<?xml version="1.0" encoding="UTF-8" standalone="no" ?>
<gpx xmlns="http://www.topografix.com/GPX/1/1" xmlns:xsi="http://www.w3.org/2001/XMLSchema-instance" xsi:schemaLocation="http://www.topografix.com/GPX/1/1 http://www.topografix.com/GPX/1/1/gpx.xsd" version="1.1" creator="VisuGPX - https://www.visugpx.com">
  <metadata>
    <name>Mtp_Grabels_06032021</name>
  </metadata>
  <trk>
    <name><![CDATA[Mtp_Grabels_06032021_1]]></name>
    <trkseg>
      <trkpt lat="43.61141" lon="3.87739">
        <ele>47</ele>
        <time>2021-03-06T12:16:46Z</time>
      </trkpt>
      <trkpt lat="43.61137" lon="3.87739">
        <ele>47</ele>
        <time>2021-03-06T12:16:57Z</time>
      </trkpt>
      <trkpt lat="43.61153" lon="3.87737">
        <ele>103</ele>
        <time>2021-03-06T12:17:17Z</time>
      </trkpt>
      <trkpt lat="43.61156" lon="3.87736">
        <ele>103</ele>
        <time>2021-03-06T12:17:20Z</time>
      </trkpt>
      <trkpt lat="43.61155" lon="3.87738">
        <ele>103</ele>
        <time>2021-03-06T12:17:25Z</time>
      </trkpt>
      <trkpt lat="43.61155" lon="3.87738">
        <ele>101</ele>
        <time>2021-03-06T12:17:26Z</time>
      </trkpt>
      <trkpt lat="43.61155" lon="3.87729">
        <ele>99</ele>
        <time>2021-03-06T12:17:31Z</time>
      </trkpt>
      <trkpt lat="43.61154" lon="3.87725">
        <ele>99</ele>
        <time>2021-03-06T12:17:32Z</time>
      </trkpt>
      <trkpt lat="43.61153" lon="3.87719">
        <ele>99</ele>
        <time>2021-03-06T12:17:33Z</time>
      </trkpt>
      <trkpt lat="43.61153" lon="3.87716">
        <ele>99</ele>
        <time>2021-03-06T12:17:34Z</time>
      </trkpt>
      <trkpt lat="43.61154" lon="3.87713">
        <ele>99</ele>
        <time>2021-03-06T12:17:35Z</time>
      </trkpt>
      <trkpt lat="43.61155" lon="3.8771">
        <ele>99</ele>
        <time>2021-03-06T12:17:36Z</time>
      </trkpt>
      <trkpt lat="43.61157" lon="3.87707">
        <ele>99</ele>
        <time>2021-03-06T12:17:37Z</time>
      </trkpt>
      <trkpt lat="43.61159" lon="3.87703">
        <ele>99</ele>
        <time>2021-03-06T12:17:38Z</time>
      </trkpt>
      <trkpt lat="43.61162" lon="3.87699">
        <ele>99</ele>
        <time>2021-03-06T12:17:39Z</time>
      </trkpt>
      <trkpt lat="43.61164" lon="3.87695">
        <ele>99</ele>
        <time>2021-03-06T12:17:40Z</time>
      </trkpt>
      <trkpt lat="43.61166" lon="3.8769">
        <ele>87</ele>
        <time>2021-03-06T12:17:41Z</time>
      </trkpt>
      <trkpt lat="43.61168" lon="3.87687">
        <ele>87</ele>
        <time>2021-03-06T12:17:42Z</time>
      </trkpt>
      <trkpt lat="43.61169" lon="3.87682">
        <ele>87</ele>
        <time>2021-03-06T12:17:43Z</time>
      </trkpt>
      <trkpt lat="43.61171" lon="3.87678">
        <ele>87</ele>
        <time>2021-03-06T12:17:44Z</time>
      </trkpt>
      <trkpt lat="43.61172" lon="3.87672">
        <ele>87</ele>
        <time>2021-03-06T12:17:45Z</time>
      </trkpt>
      <trkpt lat="43.61173" lon="3.87666">
        <ele>87</ele>
        <time>2021-03-06T12:17:46Z</time>
      </trkpt>
      <trkpt lat="43.61174" lon="3.8766">
        <ele>87</ele>
        <time>2021-03-06T12:17:47Z</time>
      </trkpt>
      <trkpt lat="43.61176" lon="3.87646">
        <ele>87</ele>
        <time>2021-03-06T12:17:49Z</time>
      </trkpt>
      <trkpt lat="43.61172" lon="3.87633">
        <ele>87</ele>
        <time>2021-03-06T12:17:52Z</time>
      </trkpt>
      <trkpt lat="43.61168" lon="3.8763">
        <ele>87</ele>
        <time>2021-03-06T12:17:55Z</time>
      </trkpt>
      <trkpt lat="43.61163" lon="3.8762">
        <ele>87</ele>
        <time>2021-03-06T12:18:02Z</time>
      </trkpt>
      <trkpt lat="43.61156" lon="3.87612">
        <ele>87</ele>
        <time>2021-03-06T12:18:06Z</time>
      </trkpt>
      <trkpt lat="43.6115" lon="3.87601">
        <ele>87</ele>
        <time>2021-03-06T12:18:09Z</time>
      </trkpt>
      <trkpt lat="43.61145" lon="3.87587">
        <ele>71</ele>
        <time>2021-03-06T12:18:11Z</time>
      </trkpt>
      <trkpt lat="43.6114" lon="3.87572">
        <ele>71</ele>
        <time>2021-03-06T12:18:14Z</time>
      </trkpt>
      <trkpt lat="43.61135" lon="3.87558">
        <ele>71</ele>
        <time>2021-03-06T12:18:17Z</time>
      </trkpt>
      <trkpt lat="43.61127" lon="3.87543">
        <ele>71</ele>
        <time>2021-03-06T12:18:20Z</time>
      </trkpt>
      <trkpt lat="43.61129" lon="3.87526">
        <ele>71</ele>
        <time>2021-03-06T12:18:23Z</time>
      </trkpt>
      <trkpt lat="43.61135" lon="3.87516">
        <ele>71</ele>
        <time>2021-03-06T12:18:25Z</time>
      </trkpt>
      <trkpt lat="43.61138" lon="3.87501">
        <ele>71</ele>
        <time>2021-03-06T12:18:28Z</time>
      </trkpt>
      <trkpt lat="43.61136" lon="3.87487">
        <ele>66</ele>
        <time>2021-03-06T12:18:31Z</time>
      </trkpt>
      <trkpt lat="43.61136" lon="3.87473">
        <ele>66</ele>
        <time>2021-03-06T12:18:34Z</time>
      </trkpt>
      <trkpt lat="43.61138" lon="3.87458">
        <ele>66</ele>
        <time>2021-03-06T12:18:37Z</time>
      </trkpt>
      <trkpt lat="43.61141" lon="3.87449">
        <ele>66</ele>
        <time>2021-03-06T12:18:39Z</time>
      </trkpt>
      <trkpt lat="43.61144" lon="3.8744">
        <ele>64</ele>
        <time>2021-03-06T12:18:41Z</time>
      </trkpt>
      <trkpt lat="43.61145" lon="3.87436">
        <ele>64</ele>
        <time>2021-03-06T12:18:42Z</time>
      </trkpt>
      <trkpt lat="43.61146" lon="3.87431">
        <ele>64</ele>
        <time>2021-03-06T12:18:43Z</time>
      </trkpt>
      <trkpt lat="43.61146" lon="3.87421">
        <ele>64</ele>
        <time>2021-03-06T12:18:45Z</time>
      </trkpt>
      <trkpt lat="43.61148" lon="3.87416">
        <ele>64</ele>
        <time>2021-03-06T12:18:46Z</time>
      </trkpt>
      <trkpt lat="43.6115" lon="3.87411">
        <ele>64</ele>
        <time>2021-03-06T12:18:47Z</time>
      </trkpt>
      <trkpt lat="43.61152" lon="3.87406">
        <ele>64</ele>
        <time>2021-03-06T12:18:48Z</time>
      </trkpt>
      <trkpt lat="43.61154" lon="3.87402">
        <ele>64</ele>
        <time>2021-03-06T12:18:49Z</time>
      </trkpt>
      <trkpt lat="43.61154" lon="3.87396">
        <ele>64</ele>
        <time>2021-03-06T12:18:50Z</time>
      </trkpt>
      <trkpt lat="43.61155" lon="3.8739">
        <ele>62</ele>
        <time>2021-03-06T12:18:51Z</time>
      </trkpt>
      <trkpt lat="43.61155" lon="3.87385">
        <ele>62</ele>
        <time>2021-03-06T12:18:52Z</time>
      </trkpt>
      <trkpt lat="43.61157" lon="3.8738">
        <ele>62</ele>
        <time>2021-03-06T12:18:53Z</time>
      </trkpt>
      <trkpt lat="43.61158" lon="3.87376">
        <ele>62</ele>
        <time>2021-03-06T12:18:54Z</time>
      </trkpt>
      <trkpt lat="43.6116" lon="3.87375">
        <ele>62</ele>
        <time>2021-03-06T12:18:56Z</time>
      </trkpt>
      <trkpt lat="43.61162" lon="3.87375">
        <ele>62</ele>
        <time>2021-03-06T12:18:57Z</time>
      </trkpt>
      <trkpt lat="43.61165" lon="3.87376">
        <ele>62</ele>
        <time>2021-03-06T12:18:58Z</time>
      </trkpt>
      <trkpt lat="43.61168" lon="3.87377">
        <ele>62</ele>
        <time>2021-03-06T12:18:59Z</time>
      </trkpt>
      <trkpt lat="43.61171" lon="3.87377">
        <ele>62</ele>
        <time>2021-03-06T12:19:00Z</time>
      </trkpt>
      <trkpt lat="43.61173" lon="3.87378">
        <ele>64</ele>
        <time>2021-03-06T12:19:01Z</time>
      </trkpt>
      <trkpt lat="43.61176" lon="3.87377">
        <ele>64</ele>
        <time>2021-03-06T12:19:02Z</time>
      </trkpt>
      <trkpt lat="43.61178" lon="3.87375">
        <ele>64</ele>
        <time>2021-03-06T12:19:03Z</time>
      </trkpt>
      <trkpt lat="43.61181" lon="3.87373">
        <ele>64</ele>
        <time>2021-03-06T12:19:04Z</time>
      </trkpt>
      <trkpt lat="43.61184" lon="3.87371">
        <ele>64</ele>
        <time>2021-03-06T12:19:05Z</time>
      </trkpt>
      <trkpt lat="43.61186" lon="3.8737">
        <ele>64</ele>
        <time>2021-03-06T12:19:06Z</time>
      </trkpt>
      <trkpt lat="43.61188" lon="3.87368">
        <ele>64</ele>
        <time>2021-03-06T12:19:07Z</time>
      </trkpt>
      <trkpt lat="43.61189" lon="3.87366">
        <ele>64</ele>
        <time>2021-03-06T12:19:08Z</time>
      </trkpt>
      <trkpt lat="43.61191" lon="3.87363">
        <ele>64</ele>
        <time>2021-03-06T12:19:09Z</time>
      </trkpt>
      <trkpt lat="43.61193" lon="3.87359">
        <ele>64</ele>
        <time>2021-03-06T12:19:10Z</time>
      </trkpt>
      <trkpt lat="43.61195" lon="3.87354">
        <ele>64</ele>
        <time>2021-03-06T12:19:11Z</time>
      </trkpt>
      <trkpt lat="43.61197" lon="3.8735">
        <ele>64</ele>
        <time>2021-03-06T12:19:12Z</time>
      </trkpt>
      <trkpt lat="43.61205" lon="3.87342">
        <ele>64</ele>
        <time>2021-03-06T12:19:14Z</time>
      </trkpt>
      <trkpt lat="43.61214" lon="3.87332">
        <ele>64</ele>
        <time>2021-03-06T12:19:17Z</time>
      </trkpt>
      <trkpt lat="43.61224" lon="3.87321">
        <ele>64</ele>
        <time>2021-03-06T12:19:20Z</time>
      </trkpt>
      <trkpt lat="43.61231" lon="3.87312">
        <ele>64</ele>
        <time>2021-03-06T12:19:22Z</time>
      </trkpt>
      <trkpt lat="43.61238" lon="3.87303">
        <ele>64</ele>
        <time>2021-03-06T12:19:24Z</time>
      </trkpt>
      <trkpt lat="43.6124" lon="3.87291">
        <ele>64</ele>
        <time>2021-03-06T12:19:30Z</time>
      </trkpt>
      <trkpt lat="43.61249" lon="3.87279">
        <ele>64</ele>
        <time>2021-03-06T12:19:38Z</time>
      </trkpt>
      <trkpt lat="43.61255" lon="3.87267">
        <ele>64</ele>
        <time>2021-03-06T12:19:40Z</time>
      </trkpt>
      <trkpt lat="43.61258" lon="3.87254">
        <ele>64</ele>
        <time>2021-03-06T12:19:42Z</time>
      </trkpt>
      <trkpt lat="43.61258" lon="3.87247">
        <ele>64</ele>
        <time>2021-03-06T12:19:43Z</time>
      </trkpt>
      <trkpt lat="43.61257" lon="3.87241">
        <ele>64</ele>
        <time>2021-03-06T12:19:44Z</time>
      </trkpt>
      <trkpt lat="43.61256" lon="3.87235">
        <ele>64</ele>
        <time>2021-03-06T12:19:45Z</time>
      </trkpt>
      <trkpt lat="43.61255" lon="3.87231">
        <ele>64</ele>
        <time>2021-03-06T12:19:46Z</time>
      </trkpt>
      <trkpt lat="43.61254" lon="3.87228">
        <ele>64</ele>
        <time>2021-03-06T12:19:47Z</time>
      </trkpt>
      <trkpt lat="43.61253" lon="3.87224">
        <ele>64</ele>
        <time>2021-03-06T12:19:48Z</time>
      </trkpt>
      <trkpt lat="43.61253" lon="3.87219">
        <ele>64</ele>
        <time>2021-03-06T12:19:49Z</time>
      </trkpt>
      <trkpt lat="43.61252" lon="3.87214">
        <ele>64</ele>
        <time>2021-03-06T12:19:50Z</time>
      </trkpt>
      <trkpt lat="43.61252" lon="3.87208">
        <ele>55</ele>
        <time>2021-03-06T12:19:51Z</time>
      </trkpt>
      <trkpt lat="43.61252" lon="3.87203">
        <ele>55</ele>
        <time>2021-03-06T12:19:52Z</time>
      </trkpt>
      <trkpt lat="43.61253" lon="3.87197">
        <ele>55</ele>
        <time>2021-03-06T12:19:53Z</time>
      </trkpt>
      <trkpt lat="43.61255" lon="3.87193">
        <ele>55</ele>
        <time>2021-03-06T12:19:54Z</time>
      </trkpt>
      <trkpt lat="43.61256" lon="3.87189">
        <ele>55</ele>
        <time>2021-03-06T12:19:55Z</time>
      </trkpt>
      <trkpt lat="43.61257" lon="3.87185">
        <ele>55</ele>
        <time>2021-03-06T12:19:56Z</time>
      </trkpt>
      <trkpt lat="43.61258" lon="3.8718">
        <ele>55</ele>
        <time>2021-03-06T12:19:57Z</time>
      </trkpt>
      <trkpt lat="43.61259" lon="3.87175">
        <ele>55</ele>
        <time>2021-03-06T12:19:58Z</time>
      </trkpt>
      <trkpt lat="43.6126" lon="3.8717">
        <ele>55</ele>
        <time>2021-03-06T12:19:59Z</time>
      </trkpt>
      <trkpt lat="43.61261" lon="3.87165">
        <ele>55</ele>
        <time>2021-03-06T12:20:00Z</time>
      </trkpt>
      <trkpt lat="43.61264" lon="3.87154">
        <ele>55</ele>
        <time>2021-03-06T12:20:02Z</time>
      </trkpt>
      <trkpt lat="43.61265" lon="3.87148">
        <ele>55</ele>
        <time>2021-03-06T12:20:03Z</time>
      </trkpt>
      <trkpt lat="43.61266" lon="3.87143">
        <ele>55</ele>
        <time>2021-03-06T12:20:04Z</time>
      </trkpt>
      <trkpt lat="43.61267" lon="3.87137">
        <ele>55</ele>
        <time>2021-03-06T12:20:05Z</time>
      </trkpt>
      <trkpt lat="43.61267" lon="3.87132">
        <ele>55</ele>
        <time>2021-03-06T12:20:06Z</time>
      </trkpt>
      <trkpt lat="43.61268" lon="3.87127">
        <ele>55</ele>
        <time>2021-03-06T12:20:07Z</time>
      </trkpt>
      <trkpt lat="43.61269" lon="3.87123">
        <ele>55</ele>
        <time>2021-03-06T12:20:08Z</time>
      </trkpt>
      <trkpt lat="43.6127" lon="3.87118">
        <ele>55</ele>
        <time>2021-03-06T12:20:09Z</time>
      </trkpt>
      <trkpt lat="43.61271" lon="3.87113">
        <ele>55</ele>
        <time>2021-03-06T12:20:10Z</time>
      </trkpt>
      <trkpt lat="43.61271" lon="3.87109">
        <ele>48</ele>
        <time>2021-03-06T12:20:11Z</time>
      </trkpt>
      <trkpt lat="43.61271" lon="3.87104">
        <ele>48</ele>
        <time>2021-03-06T12:20:12Z</time>
      </trkpt>
      <trkpt lat="43.61271" lon="3.87099">
        <ele>48</ele>
        <time>2021-03-06T12:20:13Z</time>
      </trkpt>
      <trkpt lat="43.61272" lon="3.87095">
        <ele>48</ele>
        <time>2021-03-06T12:20:14Z</time>
      </trkpt>
      <trkpt lat="43.61273" lon="3.8709">
        <ele>48</ele>
        <time>2021-03-06T12:20:15Z</time>
      </trkpt>
      <trkpt lat="43.61274" lon="3.87085">
        <ele>48</ele>
        <time>2021-03-06T12:20:16Z</time>
      </trkpt>
      <trkpt lat="43.61275" lon="3.87079">
        <ele>48</ele>
        <time>2021-03-06T12:20:17Z</time>
      </trkpt>
      <trkpt lat="43.61278" lon="3.87067">
        <ele>48</ele>
        <time>2021-03-06T12:20:19Z</time>
      </trkpt>
      <trkpt lat="43.6128" lon="3.87061">
        <ele>48</ele>
        <time>2021-03-06T12:20:20Z</time>
      </trkpt>
      <trkpt lat="43.61281" lon="3.87054">
        <ele>48</ele>
        <time>2021-03-06T12:20:21Z</time>
      </trkpt>
      <trkpt lat="43.61284" lon="3.87041">
        <ele>48</ele>
        <time>2021-03-06T12:20:23Z</time>
      </trkpt>
      <trkpt lat="43.61285" lon="3.87035">
        <ele>48</ele>
        <time>2021-03-06T12:20:25Z</time>
      </trkpt>
      <trkpt lat="43.61286" lon="3.87028">
        <ele>48</ele>
        <time>2021-03-06T12:20:26Z</time>
      </trkpt>
      <trkpt lat="43.61289" lon="3.87015">
        <ele>48</ele>
        <time>2021-03-06T12:20:27Z</time>
      </trkpt>
      <trkpt lat="43.6129" lon="3.87009">
        <ele>48</ele>
        <time>2021-03-06T12:20:28Z</time>
      </trkpt>
      <trkpt lat="43.61292" lon="3.87002">
        <ele>48</ele>
        <time>2021-03-06T12:20:29Z</time>
      </trkpt>
      <trkpt lat="43.61294" lon="3.86995">
        <ele>48</ele>
        <time>2021-03-06T12:20:30Z</time>
      </trkpt>
      <trkpt lat="43.61296" lon="3.86988">
        <ele>44</ele>
        <time>2021-03-06T12:20:31Z</time>
      </trkpt>
      <trkpt lat="43.61298" lon="3.86981">
        <ele>44</ele>
        <time>2021-03-06T12:20:32Z</time>
      </trkpt>
      <trkpt lat="43.613" lon="3.86974">
        <ele>44</ele>
        <time>2021-03-06T12:20:33Z</time>
      </trkpt>
      <trkpt lat="43.61302" lon="3.86965">
        <ele>44</ele>
        <time>2021-03-06T12:20:34Z</time>
      </trkpt>
      <trkpt lat="43.61303" lon="3.86957">
        <ele>44</ele>
        <time>2021-03-06T12:20:35Z</time>
      </trkpt>
      <trkpt lat="43.61304" lon="3.86948">
        <ele>44</ele>
        <time>2021-03-06T12:20:36Z</time>
      </trkpt>
      <trkpt lat="43.61305" lon="3.86939">
        <ele>44</ele>
        <time>2021-03-06T12:20:37Z</time>
      </trkpt>
      <trkpt lat="43.61306" lon="3.8693">
        <ele>44</ele>
        <time>2021-03-06T12:20:38Z</time>
      </trkpt>
      <trkpt lat="43.61307" lon="3.86921">
        <ele>44</ele>
        <time>2021-03-06T12:20:39Z</time>
      </trkpt>
      <trkpt lat="43.61308" lon="3.86912">
        <ele>44</ele>
        <time>2021-03-06T12:20:40Z</time>
      </trkpt>
      <trkpt lat="43.61309" lon="3.86904">
        <ele>43</ele>
        <time>2021-03-06T12:20:41Z</time>
      </trkpt>
      <trkpt lat="43.6131" lon="3.86897">
        <ele>43</ele>
        <time>2021-03-06T12:20:42Z</time>
      </trkpt>
      <trkpt lat="43.61311" lon="3.86892">
        <ele>43</ele>
        <time>2021-03-06T12:20:43Z</time>
      </trkpt>
      <trkpt lat="43.61311" lon="3.86887">
        <ele>43</ele>
        <time>2021-03-06T12:20:44Z</time>
      </trkpt>
      <trkpt lat="43.61311" lon="3.86883">
        <ele>43</ele>
        <time>2021-03-06T12:20:45Z</time>
      </trkpt>
      <trkpt lat="43.61311" lon="3.8688">
        <ele>43</ele>
        <time>2021-03-06T12:20:46Z</time>
      </trkpt>
      <trkpt lat="43.61312" lon="3.86876">
        <ele>43</ele>
        <time>2021-03-06T12:20:47Z</time>
      </trkpt>
      <trkpt lat="43.61312" lon="3.86872">
        <ele>43</ele>
        <time>2021-03-06T12:20:48Z</time>
      </trkpt>
      <trkpt lat="43.61313" lon="3.86867">
        <ele>43</ele>
        <time>2021-03-06T12:20:49Z</time>
      </trkpt>
      <trkpt lat="43.61314" lon="3.86861">
        <ele>43</ele>
        <time>2021-03-06T12:20:50Z</time>
      </trkpt>
      <trkpt lat="43.61315" lon="3.86856">
        <ele>42</ele>
        <time>2021-03-06T12:20:51Z</time>
      </trkpt>
      <trkpt lat="43.61316" lon="3.86851">
        <ele>42</ele>
        <time>2021-03-06T12:20:52Z</time>
      </trkpt>
      <trkpt lat="43.61318" lon="3.86847">
        <ele>42</ele>
        <time>2021-03-06T12:20:53Z</time>
      </trkpt>
      <trkpt lat="43.61318" lon="3.86844">
        <ele>42</ele>
        <time>2021-03-06T12:20:54Z</time>
      </trkpt>
      <trkpt lat="43.61319" lon="3.8684">
        <ele>42</ele>
        <time>2021-03-06T12:20:56Z</time>
      </trkpt>
      <trkpt lat="43.61318" lon="3.86837">
        <ele>42</ele>
        <time>2021-03-06T12:20:57Z</time>
      </trkpt>
      <trkpt lat="43.61318" lon="3.86834">
        <ele>42</ele>
        <time>2021-03-06T12:20:58Z</time>
      </trkpt>
      <trkpt lat="43.61318" lon="3.86829">
        <ele>42</ele>
        <time>2021-03-06T12:20:59Z</time>
      </trkpt>
      <trkpt lat="43.61319" lon="3.86823">
        <ele>42</ele>
        <time>2021-03-06T12:21:00Z</time>
      </trkpt>
      <trkpt lat="43.6132" lon="3.86818">
        <ele>40</ele>
        <time>2021-03-06T12:21:01Z</time>
      </trkpt>
      <trkpt lat="43.61322" lon="3.86812">
        <ele>40</ele>
        <time>2021-03-06T12:21:02Z</time>
      </trkpt>
      <trkpt lat="43.61323" lon="3.86806">
        <ele>40</ele>
        <time>2021-03-06T12:21:03Z</time>
      </trkpt>
      <trkpt lat="43.61324" lon="3.868">
        <ele>40</ele>
        <time>2021-03-06T12:21:04Z</time>
      </trkpt>
      <trkpt lat="43.61325" lon="3.86795">
        <ele>40</ele>
        <time>2021-03-06T12:21:05Z</time>
      </trkpt>
      <trkpt lat="43.61325" lon="3.86793">
        <ele>40</ele>
        <time>2021-03-06T12:21:06Z</time>
      </trkpt>
      <trkpt lat="43.61324" lon="3.8679">
        <ele>38</ele>
        <time>2021-03-06T12:21:11Z</time>
      </trkpt>
      <trkpt lat="43.61323" lon="3.86787">
        <ele>38</ele>
        <time>2021-03-06T12:21:13Z</time>
      </trkpt>
      <trkpt lat="43.61324" lon="3.86783">
        <ele>38</ele>
        <time>2021-03-06T12:21:15Z</time>
      </trkpt>
      <trkpt lat="43.61327" lon="3.8678">
        <ele>38</ele>
        <time>2021-03-06T12:21:16Z</time>
      </trkpt>
      <trkpt lat="43.61329" lon="3.86777">
        <ele>38</ele>
        <time>2021-03-06T12:21:17Z</time>
      </trkpt>
      <trkpt lat="43.61331" lon="3.86773">
        <ele>38</ele>
        <time>2021-03-06T12:21:18Z</time>
      </trkpt>
      <trkpt lat="43.61333" lon="3.86768">
        <ele>38</ele>
        <time>2021-03-06T12:21:19Z</time>
      </trkpt>
      <trkpt lat="43.61335" lon="3.86763">
        <ele>38</ele>
        <time>2021-03-06T12:21:20Z</time>
      </trkpt>
      <trkpt lat="43.61337" lon="3.86758">
        <ele>39</ele>
        <time>2021-03-06T12:21:21Z</time>
      </trkpt>
      <trkpt lat="43.61341" lon="3.86748">
        <ele>39</ele>
        <time>2021-03-06T12:21:23Z</time>
      </trkpt>
      <trkpt lat="43.61342" lon="3.86742">
        <ele>39</ele>
        <time>2021-03-06T12:21:24Z</time>
      </trkpt>
      <trkpt lat="43.61345" lon="3.86736">
        <ele>39</ele>
        <time>2021-03-06T12:21:25Z</time>
      </trkpt>
      <trkpt lat="43.61349" lon="3.86726">
        <ele>39</ele>
        <time>2021-03-06T12:21:27Z</time>
      </trkpt>
      <trkpt lat="43.61351" lon="3.8672">
        <ele>39</ele>
        <time>2021-03-06T12:21:28Z</time>
      </trkpt>
      <trkpt lat="43.61353" lon="3.86715">
        <ele>39</ele>
        <time>2021-03-06T12:21:29Z</time>
      </trkpt>
      <trkpt lat="43.61355" lon="3.86709">
        <ele>39</ele>
        <time>2021-03-06T12:21:30Z</time>
      </trkpt>
      <trkpt lat="43.61357" lon="3.86703">
        <ele>39</ele>
        <time>2021-03-06T12:21:31Z</time>
      </trkpt>
      <trkpt lat="43.61359" lon="3.86697">
        <ele>39</ele>
        <time>2021-03-06T12:21:32Z</time>
      </trkpt>
      <trkpt lat="43.61361" lon="3.86692">
        <ele>39</ele>
        <time>2021-03-06T12:21:33Z</time>
      </trkpt>
      <trkpt lat="43.61363" lon="3.86686">
        <ele>39</ele>
        <time>2021-03-06T12:21:34Z</time>
      </trkpt>
      <trkpt lat="43.61365" lon="3.8668">
        <ele>39</ele>
        <time>2021-03-06T12:21:35Z</time>
      </trkpt>
      <trkpt lat="43.61367" lon="3.86674">
        <ele>39</ele>
        <time>2021-03-06T12:21:36Z</time>
      </trkpt>
      <trkpt lat="43.61369" lon="3.86668">
        <ele>39</ele>
        <time>2021-03-06T12:21:37Z</time>
      </trkpt>
      <trkpt lat="43.61369" lon="3.86662">
        <ele>39</ele>
        <time>2021-03-06T12:21:38Z</time>
      </trkpt>
      <trkpt lat="43.61371" lon="3.86656">
        <ele>39</ele>
        <time>2021-03-06T12:21:39Z</time>
      </trkpt>
      <trkpt lat="43.61372" lon="3.86649">
        <ele>39</ele>
        <time>2021-03-06T12:21:40Z</time>
      </trkpt>
      <trkpt lat="43.61373" lon="3.86643">
        <ele>39</ele>
        <time>2021-03-06T12:21:41Z</time>
      </trkpt>
      <trkpt lat="43.61374" lon="3.86637">
        <ele>39</ele>
        <time>2021-03-06T12:21:42Z</time>
      </trkpt>
      <trkpt lat="43.61375" lon="3.86631">
        <ele>39</ele>
        <time>2021-03-06T12:21:43Z</time>
      </trkpt>
      <trkpt lat="43.61375" lon="3.86624">
        <ele>39</ele>
        <time>2021-03-06T12:21:44Z</time>
      </trkpt>
      <trkpt lat="43.61377" lon="3.86617">
        <ele>39</ele>
        <time>2021-03-06T12:21:45Z</time>
      </trkpt>
      <trkpt lat="43.61378" lon="3.86611">
        <ele>39</ele>
        <time>2021-03-06T12:21:46Z</time>
      </trkpt>
      <trkpt lat="43.61379" lon="3.86604">
        <ele>39</ele>
        <time>2021-03-06T12:21:47Z</time>
      </trkpt>
      <trkpt lat="43.61381" lon="3.86597">
        <ele>39</ele>
        <time>2021-03-06T12:21:48Z</time>
      </trkpt>
      <trkpt lat="43.61384" lon="3.86591">
        <ele>39</ele>
        <time>2021-03-06T12:21:49Z</time>
      </trkpt>
      <trkpt lat="43.61388" lon="3.86586">
        <ele>39</ele>
        <time>2021-03-06T12:21:50Z</time>
      </trkpt>
      <trkpt lat="43.61391" lon="3.86582">
        <ele>39</ele>
        <time>2021-03-06T12:21:51Z</time>
      </trkpt>
      <trkpt lat="43.61395" lon="3.86577">
        <ele>39</ele>
        <time>2021-03-06T12:21:52Z</time>
      </trkpt>
      <trkpt lat="43.61398" lon="3.86572">
        <ele>39</ele>
        <time>2021-03-06T12:21:53Z</time>
      </trkpt>
      <trkpt lat="43.61404" lon="3.86563">
        <ele>39</ele>
        <time>2021-03-06T12:21:55Z</time>
      </trkpt>
      <trkpt lat="43.61412" lon="3.86548">
        <ele>39</ele>
        <time>2021-03-06T12:21:58Z</time>
      </trkpt>
      <trkpt lat="43.61416" lon="3.86537">
        <ele>39</ele>
        <time>2021-03-06T12:22:00Z</time>
      </trkpt>
      <trkpt lat="43.61422" lon="3.86522">
        <ele>39</ele>
        <time>2021-03-06T12:22:03Z</time>
      </trkpt>
      <trkpt lat="43.61429" lon="3.86514">
        <ele>39</ele>
        <time>2021-03-06T12:22:05Z</time>
      </trkpt>
      <trkpt lat="43.61433" lon="3.86509">
        <ele>39</ele>
        <time>2021-03-06T12:22:06Z</time>
      </trkpt>
      <trkpt lat="43.61438" lon="3.86504">
        <ele>39</ele>
        <time>2021-03-06T12:22:07Z</time>
      </trkpt>
      <trkpt lat="43.61443" lon="3.865">
        <ele>39</ele>
        <time>2021-03-06T12:22:08Z</time>
      </trkpt>
      <trkpt lat="43.61447" lon="3.86496">
        <ele>39</ele>
        <time>2021-03-06T12:22:10Z</time>
      </trkpt>
      <trkpt lat="43.6145" lon="3.86491">
        <ele>40</ele>
        <time>2021-03-06T12:22:11Z</time>
      </trkpt>
      <trkpt lat="43.61453" lon="3.86487">
        <ele>40</ele>
        <time>2021-03-06T12:22:12Z</time>
      </trkpt>
      <trkpt lat="43.61457" lon="3.86482">
        <ele>40</ele>
        <time>2021-03-06T12:22:13Z</time>
      </trkpt>
      <trkpt lat="43.61463" lon="3.86474">
        <ele>40</ele>
        <time>2021-03-06T12:22:14Z</time>
      </trkpt>
      <trkpt lat="43.61466" lon="3.8647">
        <ele>40</ele>
        <time>2021-03-06T12:22:15Z</time>
      </trkpt>
      <trkpt lat="43.61468" lon="3.86465">
        <ele>40</ele>
        <time>2021-03-06T12:22:16Z</time>
      </trkpt>
      <trkpt lat="43.61471" lon="3.8646">
        <ele>40</ele>
        <time>2021-03-06T12:22:17Z</time>
      </trkpt>
      <trkpt lat="43.61474" lon="3.86455">
        <ele>40</ele>
        <time>2021-03-06T12:22:18Z</time>
      </trkpt>
      <trkpt lat="43.61476" lon="3.8645">
        <ele>40</ele>
        <time>2021-03-06T12:22:19Z</time>
      </trkpt>
      <trkpt lat="43.61479" lon="3.86445">
        <ele>40</ele>
        <time>2021-03-06T12:22:20Z</time>
      </trkpt>
      <trkpt lat="43.61481" lon="3.86441">
        <ele>41</ele>
        <time>2021-03-06T12:22:21Z</time>
      </trkpt>
      <trkpt lat="43.61488" lon="3.86434">
        <ele>41</ele>
        <time>2021-03-06T12:22:23Z</time>
      </trkpt>
      <trkpt lat="43.61492" lon="3.86429">
        <ele>41</ele>
        <time>2021-03-06T12:22:24Z</time>
      </trkpt>
      <trkpt lat="43.61495" lon="3.86425">
        <ele>41</ele>
        <time>2021-03-06T12:22:25Z</time>
      </trkpt>
      <trkpt lat="43.61498" lon="3.86421">
        <ele>41</ele>
        <time>2021-03-06T12:22:26Z</time>
      </trkpt>
      <trkpt lat="43.61501" lon="3.86416">
        <ele>41</ele>
        <time>2021-03-06T12:22:27Z</time>
      </trkpt>
      <trkpt lat="43.61504" lon="3.8641">
        <ele>41</ele>
        <time>2021-03-06T12:22:28Z</time>
      </trkpt>
      <trkpt lat="43.61505" lon="3.86404">
        <ele>41</ele>
        <time>2021-03-06T12:22:29Z</time>
      </trkpt>
      <trkpt lat="43.61508" lon="3.864">
        <ele>41</ele>
        <time>2021-03-06T12:22:30Z</time>
      </trkpt>
      <trkpt lat="43.61512" lon="3.86395">
        <ele>44</ele>
        <time>2021-03-06T12:22:31Z</time>
      </trkpt>
      <trkpt lat="43.61515" lon="3.8639">
        <ele>44</ele>
        <time>2021-03-06T12:22:32Z</time>
      </trkpt>
      <trkpt lat="43.61519" lon="3.86386">
        <ele>44</ele>
        <time>2021-03-06T12:22:33Z</time>
      </trkpt>
      <trkpt lat="43.61521" lon="3.86382">
        <ele>44</ele>
        <time>2021-03-06T12:22:35Z</time>
      </trkpt>
      <trkpt lat="43.61524" lon="3.86377">
        <ele>44</ele>
        <time>2021-03-06T12:22:36Z</time>
      </trkpt>
      <trkpt lat="43.6153" lon="3.86367">
        <ele>44</ele>
        <time>2021-03-06T12:22:37Z</time>
      </trkpt>
      <trkpt lat="43.61533" lon="3.86362">
        <ele>44</ele>
        <time>2021-03-06T12:22:38Z</time>
      </trkpt>
      <trkpt lat="43.61536" lon="3.86357">
        <ele>44</ele>
        <time>2021-03-06T12:22:39Z</time>
      </trkpt>
      <trkpt lat="43.61539" lon="3.86353">
        <ele>44</ele>
        <time>2021-03-06T12:22:40Z</time>
      </trkpt>
      <trkpt lat="43.61542" lon="3.86348">
        <ele>45</ele>
        <time>2021-03-06T12:22:41Z</time>
      </trkpt>
      <trkpt lat="43.61546" lon="3.86343">
        <ele>45</ele>
        <time>2021-03-06T12:22:42Z</time>
      </trkpt>
      <trkpt lat="43.61549" lon="3.86339">
        <ele>45</ele>
        <time>2021-03-06T12:22:43Z</time>
      </trkpt>
      <trkpt lat="43.61556" lon="3.86329">
        <ele>45</ele>
        <time>2021-03-06T12:22:45Z</time>
      </trkpt>
      <trkpt lat="43.61559" lon="3.86325">
        <ele>45</ele>
        <time>2021-03-06T12:22:46Z</time>
      </trkpt>
      <trkpt lat="43.61562" lon="3.86321">
        <ele>45</ele>
        <time>2021-03-06T12:22:47Z</time>
      </trkpt>
      <trkpt lat="43.61566" lon="3.86317">
        <ele>45</ele>
        <time>2021-03-06T12:22:48Z</time>
      </trkpt>
      <trkpt lat="43.61569" lon="3.86313">
        <ele>45</ele>
        <time>2021-03-06T12:22:49Z</time>
      </trkpt>
      <trkpt lat="43.61572" lon="3.86309">
        <ele>45</ele>
        <time>2021-03-06T12:22:50Z</time>
      </trkpt>
      <trkpt lat="43.61579" lon="3.863">
        <ele>45</ele>
        <time>2021-03-06T12:22:52Z</time>
      </trkpt>
      <trkpt lat="43.61584" lon="3.86291">
        <ele>45</ele>
        <time>2021-03-06T12:22:54Z</time>
      </trkpt>
      <trkpt lat="43.61587" lon="3.86288">
        <ele>45</ele>
        <time>2021-03-06T12:22:55Z</time>
      </trkpt>
      <trkpt lat="43.61588" lon="3.86286">
        <ele>45</ele>
        <time>2021-03-06T12:22:56Z</time>
      </trkpt>
      <trkpt lat="43.61591" lon="3.86284">
        <ele>45</ele>
        <time>2021-03-06T12:22:58Z</time>
      </trkpt>
      <trkpt lat="43.61593" lon="3.86282">
        <ele>45</ele>
        <time>2021-03-06T12:22:59Z</time>
      </trkpt>
      <trkpt lat="43.61595" lon="3.86281">
        <ele>45</ele>
        <time>2021-03-06T12:23:00Z</time>
      </trkpt>
      <trkpt lat="43.61598" lon="3.86278">
        <ele>48</ele>
        <time>2021-03-06T12:23:01Z</time>
      </trkpt>
      <trkpt lat="43.616" lon="3.86275">
        <ele>48</ele>
        <time>2021-03-06T12:23:02Z</time>
      </trkpt>
      <trkpt lat="43.61603" lon="3.86273">
        <ele>48</ele>
        <time>2021-03-06T12:23:03Z</time>
      </trkpt>
      <trkpt lat="43.61605" lon="3.86269">
        <ele>48</ele>
        <time>2021-03-06T12:23:04Z</time>
      </trkpt>
      <trkpt lat="43.61607" lon="3.86266">
        <ele>48</ele>
        <time>2021-03-06T12:23:05Z</time>
      </trkpt>
      <trkpt lat="43.61609" lon="3.86263">
        <ele>48</ele>
        <time>2021-03-06T12:23:06Z</time>
      </trkpt>
      <trkpt lat="43.61612" lon="3.8626">
        <ele>48</ele>
        <time>2021-03-06T12:23:07Z</time>
      </trkpt>
      <trkpt lat="43.61614" lon="3.86256">
        <ele>48</ele>
        <time>2021-03-06T12:23:08Z</time>
      </trkpt>
      <trkpt lat="43.61616" lon="3.86252">
        <ele>48</ele>
        <time>2021-03-06T12:23:09Z</time>
      </trkpt>
      <trkpt lat="43.61622" lon="3.86245">
        <ele>47</ele>
        <time>2021-03-06T12:23:11Z</time>
      </trkpt>
      <trkpt lat="43.61625" lon="3.86241">
        <ele>47</ele>
        <time>2021-03-06T12:23:12Z</time>
      </trkpt>
      <trkpt lat="43.61627" lon="3.86237">
        <ele>47</ele>
        <time>2021-03-06T12:23:13Z</time>
      </trkpt>
      <trkpt lat="43.61632" lon="3.8623">
        <ele>47</ele>
        <time>2021-03-06T12:23:15Z</time>
      </trkpt>
      <trkpt lat="43.61635" lon="3.86226">
        <ele>47</ele>
        <time>2021-03-06T12:23:16Z</time>
      </trkpt>
      <trkpt lat="43.61638" lon="3.86221">
        <ele>47</ele>
        <time>2021-03-06T12:23:17Z</time>
      </trkpt>
      <trkpt lat="43.6164" lon="3.86217">
        <ele>47</ele>
        <time>2021-03-06T12:23:18Z</time>
      </trkpt>
      <trkpt lat="43.61643" lon="3.86213">
        <ele>47</ele>
        <time>2021-03-06T12:23:19Z</time>
      </trkpt>
      <trkpt lat="43.61646" lon="3.86209">
        <ele>47</ele>
        <time>2021-03-06T12:23:20Z</time>
      </trkpt>
      <trkpt lat="43.61649" lon="3.86205">
        <ele>46</ele>
        <time>2021-03-06T12:23:21Z</time>
      </trkpt>
      <trkpt lat="43.61652" lon="3.86201">
        <ele>46</ele>
        <time>2021-03-06T12:23:22Z</time>
      </trkpt>
      <trkpt lat="43.61655" lon="3.86197">
        <ele>46</ele>
        <time>2021-03-06T12:23:23Z</time>
      </trkpt>
      <trkpt lat="43.61658" lon="3.86193">
        <ele>46</ele>
        <time>2021-03-06T12:23:24Z</time>
      </trkpt>
      <trkpt lat="43.61661" lon="3.86189">
        <ele>46</ele>
        <time>2021-03-06T12:23:25Z</time>
      </trkpt>
      <trkpt lat="43.61664" lon="3.86185">
        <ele>46</ele>
        <time>2021-03-06T12:23:26Z</time>
      </trkpt>
      <trkpt lat="43.61667" lon="3.8618">
        <ele>46</ele>
        <time>2021-03-06T12:23:27Z</time>
      </trkpt>
      <trkpt lat="43.6167" lon="3.86176">
        <ele>46</ele>
        <time>2021-03-06T12:23:28Z</time>
      </trkpt>
      <trkpt lat="43.61673" lon="3.86172">
        <ele>46</ele>
        <time>2021-03-06T12:23:29Z</time>
      </trkpt>
      <trkpt lat="43.61676" lon="3.86168">
        <ele>46</ele>
        <time>2021-03-06T12:23:30Z</time>
      </trkpt>
      <trkpt lat="43.61679" lon="3.86163">
        <ele>45</ele>
        <time>2021-03-06T12:23:31Z</time>
      </trkpt>
      <trkpt lat="43.61682" lon="3.86159">
        <ele>45</ele>
        <time>2021-03-06T12:23:33Z</time>
      </trkpt>
      <trkpt lat="43.61688" lon="3.86151">
        <ele>45</ele>
        <time>2021-03-06T12:23:34Z</time>
      </trkpt>
      <trkpt lat="43.61691" lon="3.86148">
        <ele>45</ele>
        <time>2021-03-06T12:23:35Z</time>
      </trkpt>
      <trkpt lat="43.61693" lon="3.86143">
        <ele>45</ele>
        <time>2021-03-06T12:23:36Z</time>
      </trkpt>
      <trkpt lat="43.61696" lon="3.86139">
        <ele>45</ele>
        <time>2021-03-06T12:23:37Z</time>
      </trkpt>
      <trkpt lat="43.61699" lon="3.86135">
        <ele>45</ele>
        <time>2021-03-06T12:23:38Z</time>
      </trkpt>
      <trkpt lat="43.61702" lon="3.86131">
        <ele>45</ele>
        <time>2021-03-06T12:23:39Z</time>
      </trkpt>
      <trkpt lat="43.61705" lon="3.86126">
        <ele>45</ele>
        <time>2021-03-06T12:23:40Z</time>
      </trkpt>
      <trkpt lat="43.61708" lon="3.86122">
        <ele>45</ele>
        <time>2021-03-06T12:23:41Z</time>
      </trkpt>
      <trkpt lat="43.6171" lon="3.86117">
        <ele>45</ele>
        <time>2021-03-06T12:23:42Z</time>
      </trkpt>
      <trkpt lat="43.61713" lon="3.86112">
        <ele>45</ele>
        <time>2021-03-06T12:23:43Z</time>
      </trkpt>
      <trkpt lat="43.61719" lon="3.86103">
        <ele>45</ele>
        <time>2021-03-06T12:23:45Z</time>
      </trkpt>
      <trkpt lat="43.61723" lon="3.86098">
        <ele>45</ele>
        <time>2021-03-06T12:23:46Z</time>
      </trkpt>
      <trkpt lat="43.61726" lon="3.86094">
        <ele>45</ele>
        <time>2021-03-06T12:23:47Z</time>
      </trkpt>
      <trkpt lat="43.61732" lon="3.86085">
        <ele>45</ele>
        <time>2021-03-06T12:23:49Z</time>
      </trkpt>
      <trkpt lat="43.61735" lon="3.8608">
        <ele>45</ele>
        <time>2021-03-06T12:23:50Z</time>
      </trkpt>
      <trkpt lat="43.61738" lon="3.86076">
        <ele>45</ele>
        <time>2021-03-06T12:23:51Z</time>
      </trkpt>
      <trkpt lat="43.61744" lon="3.86067">
        <ele>45</ele>
        <time>2021-03-06T12:23:53Z</time>
      </trkpt>
      <trkpt lat="43.61747" lon="3.86063">
        <ele>45</ele>
        <time>2021-03-06T12:23:54Z</time>
      </trkpt>
      <trkpt lat="43.6175" lon="3.86058">
        <ele>45</ele>
        <time>2021-03-06T12:23:55Z</time>
      </trkpt>
      <trkpt lat="43.61753" lon="3.86054">
        <ele>45</ele>
        <time>2021-03-06T12:23:56Z</time>
      </trkpt>
      <trkpt lat="43.61759" lon="3.86045">
        <ele>45</ele>
        <time>2021-03-06T12:23:58Z</time>
      </trkpt>
      <trkpt lat="43.61762" lon="3.8604">
        <ele>45</ele>
        <time>2021-03-06T12:23:59Z</time>
      </trkpt>
      <trkpt lat="43.61764" lon="3.86036">
        <ele>45</ele>
        <time>2021-03-06T12:24:00Z</time>
      </trkpt>
      <trkpt lat="43.61767" lon="3.86032">
        <ele>45</ele>
        <time>2021-03-06T12:24:01Z</time>
      </trkpt>
      <trkpt lat="43.6177" lon="3.86028">
        <ele>45</ele>
        <time>2021-03-06T12:24:02Z</time>
      </trkpt>
      <trkpt lat="43.61773" lon="3.86024">
        <ele>45</ele>
        <time>2021-03-06T12:24:03Z</time>
      </trkpt>
      <trkpt lat="43.61777" lon="3.86019">
        <ele>45</ele>
        <time>2021-03-06T12:24:04Z</time>
      </trkpt>
      <trkpt lat="43.61783" lon="3.8601">
        <ele>45</ele>
        <time>2021-03-06T12:24:06Z</time>
      </trkpt>
      <trkpt lat="43.61786" lon="3.86006">
        <ele>45</ele>
        <time>2021-03-06T12:24:07Z</time>
      </trkpt>
      <trkpt lat="43.61788" lon="3.86001">
        <ele>45</ele>
        <time>2021-03-06T12:24:08Z</time>
      </trkpt>
      <trkpt lat="43.61794" lon="3.85991">
        <ele>45</ele>
        <time>2021-03-06T12:24:10Z</time>
      </trkpt>
      <trkpt lat="43.61798" lon="3.85986">
        <ele>45</ele>
        <time>2021-03-06T12:24:11Z</time>
      </trkpt>
      <trkpt lat="43.61801" lon="3.85981">
        <ele>45</ele>
        <time>2021-03-06T12:24:12Z</time>
      </trkpt>
      <trkpt lat="43.61805" lon="3.85976">
        <ele>45</ele>
        <time>2021-03-06T12:24:13Z</time>
      </trkpt>
      <trkpt lat="43.61809" lon="3.8597">
        <ele>45</ele>
        <time>2021-03-06T12:24:14Z</time>
      </trkpt>
      <trkpt lat="43.61813" lon="3.85964">
        <ele>45</ele>
        <time>2021-03-06T12:24:15Z</time>
      </trkpt>
      <trkpt lat="43.61817" lon="3.85958">
        <ele>45</ele>
        <time>2021-03-06T12:24:16Z</time>
      </trkpt>
      <trkpt lat="43.61821" lon="3.85952">
        <ele>45</ele>
        <time>2021-03-06T12:24:17Z</time>
      </trkpt>
      <trkpt lat="43.61825" lon="3.85946">
        <ele>45</ele>
        <time>2021-03-06T12:24:18Z</time>
      </trkpt>
      <trkpt lat="43.61829" lon="3.8594">
        <ele>45</ele>
        <time>2021-03-06T12:24:19Z</time>
      </trkpt>
      <trkpt lat="43.61833" lon="3.85934">
        <ele>45</ele>
        <time>2021-03-06T12:24:20Z</time>
      </trkpt>
      <trkpt lat="43.61837" lon="3.85928">
        <ele>46</ele>
        <time>2021-03-06T12:24:21Z</time>
      </trkpt>
      <trkpt lat="43.61847" lon="3.85916">
        <ele>46</ele>
        <time>2021-03-06T12:24:23Z</time>
      </trkpt>
      <trkpt lat="43.61852" lon="3.8591">
        <ele>46</ele>
        <time>2021-03-06T12:24:24Z</time>
      </trkpt>
      <trkpt lat="43.61857" lon="3.85905">
        <ele>46</ele>
        <time>2021-03-06T12:24:25Z</time>
      </trkpt>
      <trkpt lat="43.61861" lon="3.859">
        <ele>46</ele>
        <time>2021-03-06T12:24:26Z</time>
      </trkpt>
      <trkpt lat="43.61867" lon="3.85895">
        <ele>46</ele>
        <time>2021-03-06T12:24:27Z</time>
      </trkpt>
      <trkpt lat="43.61872" lon="3.85891">
        <ele>46</ele>
        <time>2021-03-06T12:24:28Z</time>
      </trkpt>
      <trkpt lat="43.61877" lon="3.85888">
        <ele>46</ele>
        <time>2021-03-06T12:24:29Z</time>
      </trkpt>
      <trkpt lat="43.61883" lon="3.85885">
        <ele>46</ele>
        <time>2021-03-06T12:24:30Z</time>
      </trkpt>
      <trkpt lat="43.61889" lon="3.85881">
        <ele>46</ele>
        <time>2021-03-06T12:24:31Z</time>
      </trkpt>
      <trkpt lat="43.61895" lon="3.85878">
        <ele>46</ele>
        <time>2021-03-06T12:24:32Z</time>
      </trkpt>
      <trkpt lat="43.61901" lon="3.85875">
        <ele>46</ele>
        <time>2021-03-06T12:24:33Z</time>
      </trkpt>
      <trkpt lat="43.61907" lon="3.85872">
        <ele>46</ele>
        <time>2021-03-06T12:24:34Z</time>
      </trkpt>
      <trkpt lat="43.61911" lon="3.85869">
        <ele>46</ele>
        <time>2021-03-06T12:24:35Z</time>
      </trkpt>
      <trkpt lat="43.61916" lon="3.85866">
        <ele>46</ele>
        <time>2021-03-06T12:24:36Z</time>
      </trkpt>
      <trkpt lat="43.61922" lon="3.85862">
        <ele>46</ele>
        <time>2021-03-06T12:24:37Z</time>
      </trkpt>
      <trkpt lat="43.6193" lon="3.85859">
        <ele>46</ele>
        <time>2021-03-06T12:24:38Z</time>
      </trkpt>
      <trkpt lat="43.61937" lon="3.85858">
        <ele>46</ele>
        <time>2021-03-06T12:24:39Z</time>
      </trkpt>
      <trkpt lat="43.61944" lon="3.85859">
        <ele>46</ele>
        <time>2021-03-06T12:24:40Z</time>
      </trkpt>
      <trkpt lat="43.61951" lon="3.8586">
        <ele>47</ele>
        <time>2021-03-06T12:24:41Z</time>
      </trkpt>
      <trkpt lat="43.61957" lon="3.85861">
        <ele>47</ele>
        <time>2021-03-06T12:24:42Z</time>
      </trkpt>
      <trkpt lat="43.6197" lon="3.85865">
        <ele>47</ele>
        <time>2021-03-06T12:24:44Z</time>
      </trkpt>
      <trkpt lat="43.61977" lon="3.85866">
        <ele>47</ele>
        <time>2021-03-06T12:24:45Z</time>
      </trkpt>
      <trkpt lat="43.61983" lon="3.85867">
        <ele>47</ele>
        <time>2021-03-06T12:24:46Z</time>
      </trkpt>
      <trkpt lat="43.61989" lon="3.85867">
        <ele>47</ele>
        <time>2021-03-06T12:24:47Z</time>
      </trkpt>
      <trkpt lat="43.61995" lon="3.85867">
        <ele>47</ele>
        <time>2021-03-06T12:24:48Z</time>
      </trkpt>
      <trkpt lat="43.62007" lon="3.85865">
        <ele>47</ele>
        <time>2021-03-06T12:24:50Z</time>
      </trkpt>
      <trkpt lat="43.62012" lon="3.85862">
        <ele>44</ele>
        <time>2021-03-06T12:24:51Z</time>
      </trkpt>
      <trkpt lat="43.62018" lon="3.85858">
        <ele>44</ele>
        <time>2021-03-06T12:24:52Z</time>
      </trkpt>
      <trkpt lat="43.62023" lon="3.85853">
        <ele>44</ele>
        <time>2021-03-06T12:24:53Z</time>
      </trkpt>
      <trkpt lat="43.62028" lon="3.85849">
        <ele>44</ele>
        <time>2021-03-06T12:24:54Z</time>
      </trkpt>
      <trkpt lat="43.62032" lon="3.85845">
        <ele>44</ele>
        <time>2021-03-06T12:24:55Z</time>
      </trkpt>
      <trkpt lat="43.62036" lon="3.8584">
        <ele>44</ele>
        <time>2021-03-06T12:24:56Z</time>
      </trkpt>
      <trkpt lat="43.6204" lon="3.85835">
        <ele>44</ele>
        <time>2021-03-06T12:24:57Z</time>
      </trkpt>
      <trkpt lat="43.62044" lon="3.8583">
        <ele>44</ele>
        <time>2021-03-06T12:24:58Z</time>
      </trkpt>
      <trkpt lat="43.62046" lon="3.85824">
        <ele>44</ele>
        <time>2021-03-06T12:24:59Z</time>
      </trkpt>
      <trkpt lat="43.62051" lon="3.8581">
        <ele>41</ele>
        <time>2021-03-06T12:25:01Z</time>
      </trkpt>
      <trkpt lat="43.62054" lon="3.85803">
        <ele>41</ele>
        <time>2021-03-06T12:25:02Z</time>
      </trkpt>
      <trkpt lat="43.62057" lon="3.85796">
        <ele>41</ele>
        <time>2021-03-06T12:25:03Z</time>
      </trkpt>
      <trkpt lat="43.6206" lon="3.85789">
        <ele>41</ele>
        <time>2021-03-06T12:25:04Z</time>
      </trkpt>
      <trkpt lat="43.62062" lon="3.85782">
        <ele>41</ele>
        <time>2021-03-06T12:25:05Z</time>
      </trkpt>
      <trkpt lat="43.62065" lon="3.85774">
        <ele>41</ele>
        <time>2021-03-06T12:25:06Z</time>
      </trkpt>
      <trkpt lat="43.62067" lon="3.85766">
        <ele>41</ele>
        <time>2021-03-06T12:25:07Z</time>
      </trkpt>
      <trkpt lat="43.6207" lon="3.85758">
        <ele>41</ele>
        <time>2021-03-06T12:25:08Z</time>
      </trkpt>
      <trkpt lat="43.62072" lon="3.85751">
        <ele>41</ele>
        <time>2021-03-06T12:25:09Z</time>
      </trkpt>
      <trkpt lat="43.62074" lon="3.85743">
        <ele>41</ele>
        <time>2021-03-06T12:25:10Z</time>
      </trkpt>
      <trkpt lat="43.62078" lon="3.85738">
        <ele>39</ele>
        <time>2021-03-06T12:25:11Z</time>
      </trkpt>
      <trkpt lat="43.62082" lon="3.85735">
        <ele>39</ele>
        <time>2021-03-06T12:25:12Z</time>
      </trkpt>
      <trkpt lat="43.62086" lon="3.85733">
        <ele>39</ele>
        <time>2021-03-06T12:25:13Z</time>
      </trkpt>
      <trkpt lat="43.62088" lon="3.8573">
        <ele>39</ele>
        <time>2021-03-06T12:25:14Z</time>
      </trkpt>
      <trkpt lat="43.62091" lon="3.85724">
        <ele>39</ele>
        <time>2021-03-06T12:25:15Z</time>
      </trkpt>
      <trkpt lat="43.62095" lon="3.85717">
        <ele>39</ele>
        <time>2021-03-06T12:25:16Z</time>
      </trkpt>
      <trkpt lat="43.62098" lon="3.8571">
        <ele>39</ele>
        <time>2021-03-06T12:25:17Z</time>
      </trkpt>
      <trkpt lat="43.62102" lon="3.85703">
        <ele>39</ele>
        <time>2021-03-06T12:25:18Z</time>
      </trkpt>
      <trkpt lat="43.62105" lon="3.85696">
        <ele>39</ele>
        <time>2021-03-06T12:25:19Z</time>
      </trkpt>
      <trkpt lat="43.62108" lon="3.85689">
        <ele>39</ele>
        <time>2021-03-06T12:25:20Z</time>
      </trkpt>
      <trkpt lat="43.62111" lon="3.85682">
        <ele>39</ele>
        <time>2021-03-06T12:25:21Z</time>
      </trkpt>
      <trkpt lat="43.62114" lon="3.85675">
        <ele>39</ele>
        <time>2021-03-06T12:25:22Z</time>
      </trkpt>
      <trkpt lat="43.62117" lon="3.85668">
        <ele>39</ele>
        <time>2021-03-06T12:25:23Z</time>
      </trkpt>
      <trkpt lat="43.6212" lon="3.85662">
        <ele>39</ele>
        <time>2021-03-06T12:25:24Z</time>
      </trkpt>
      <trkpt lat="43.62124" lon="3.85656">
        <ele>39</ele>
        <time>2021-03-06T12:25:25Z</time>
      </trkpt>
      <trkpt lat="43.62127" lon="3.85649">
        <ele>39</ele>
        <time>2021-03-06T12:25:26Z</time>
      </trkpt>
      <trkpt lat="43.62131" lon="3.85643">
        <ele>39</ele>
        <time>2021-03-06T12:25:27Z</time>
      </trkpt>
      <trkpt lat="43.62135" lon="3.85637">
        <ele>39</ele>
        <time>2021-03-06T12:25:28Z</time>
      </trkpt>
      <trkpt lat="43.62138" lon="3.85632">
        <ele>39</ele>
        <time>2021-03-06T12:25:29Z</time>
      </trkpt>
      <trkpt lat="43.62142" lon="3.85626">
        <ele>39</ele>
        <time>2021-03-06T12:25:30Z</time>
      </trkpt>
      <trkpt lat="43.62146" lon="3.8562">
        <ele>40</ele>
        <time>2021-03-06T12:25:31Z</time>
      </trkpt>
      <trkpt lat="43.6215" lon="3.85615">
        <ele>40</ele>
        <time>2021-03-06T12:25:32Z</time>
      </trkpt>
      <trkpt lat="43.62153" lon="3.85609">
        <ele>40</ele>
        <time>2021-03-06T12:25:33Z</time>
      </trkpt>
      <trkpt lat="43.62157" lon="3.85604">
        <ele>40</ele>
        <time>2021-03-06T12:25:34Z</time>
      </trkpt>
      <trkpt lat="43.6216" lon="3.85599">
        <ele>40</ele>
        <time>2021-03-06T12:25:35Z</time>
      </trkpt>
      <trkpt lat="43.62161" lon="3.85596">
        <ele>40</ele>
        <time>2021-03-06T12:25:36Z</time>
      </trkpt>
      <trkpt lat="43.62163" lon="3.85593">
        <ele>40</ele>
        <time>2021-03-06T12:25:37Z</time>
      </trkpt>
      <trkpt lat="43.62164" lon="3.85591">
        <ele>40</ele>
        <time>2021-03-06T12:25:38Z</time>
      </trkpt>
      <trkpt lat="43.62165" lon="3.85589">
        <ele>40</ele>
        <time>2021-03-06T12:25:39Z</time>
      </trkpt>
      <trkpt lat="43.62167" lon="3.85586">
        <ele>40</ele>
        <time>2021-03-06T12:25:40Z</time>
      </trkpt>
      <trkpt lat="43.62169" lon="3.85584">
        <ele>39</ele>
        <time>2021-03-06T12:25:41Z</time>
      </trkpt>
      <trkpt lat="43.62172" lon="3.8558">
        <ele>39</ele>
        <time>2021-03-06T12:25:42Z</time>
      </trkpt>
      <trkpt lat="43.62174" lon="3.85577">
        <ele>39</ele>
        <time>2021-03-06T12:25:43Z</time>
      </trkpt>
      <trkpt lat="43.62177" lon="3.85573">
        <ele>39</ele>
        <time>2021-03-06T12:25:44Z</time>
      </trkpt>
      <trkpt lat="43.6218" lon="3.85569">
        <ele>39</ele>
        <time>2021-03-06T12:25:45Z</time>
      </trkpt>
      <trkpt lat="43.62183" lon="3.85564">
        <ele>39</ele>
        <time>2021-03-06T12:25:46Z</time>
      </trkpt>
      <trkpt lat="43.62185" lon="3.8556">
        <ele>39</ele>
        <time>2021-03-06T12:25:47Z</time>
      </trkpt>
      <trkpt lat="43.62188" lon="3.85555">
        <ele>39</ele>
        <time>2021-03-06T12:25:48Z</time>
      </trkpt>
      <trkpt lat="43.62191" lon="3.8555">
        <ele>39</ele>
        <time>2021-03-06T12:25:49Z</time>
      </trkpt>
      <trkpt lat="43.62194" lon="3.85545">
        <ele>39</ele>
        <time>2021-03-06T12:25:50Z</time>
      </trkpt>
      <trkpt lat="43.62197" lon="3.8554">
        <ele>39</ele>
        <time>2021-03-06T12:25:51Z</time>
      </trkpt>
      <trkpt lat="43.622" lon="3.85535">
        <ele>39</ele>
        <time>2021-03-06T12:25:52Z</time>
      </trkpt>
      <trkpt lat="43.62204" lon="3.8553">
        <ele>39</ele>
        <time>2021-03-06T12:25:53Z</time>
      </trkpt>
      <trkpt lat="43.62207" lon="3.85525">
        <ele>39</ele>
        <time>2021-03-06T12:25:54Z</time>
      </trkpt>
      <trkpt lat="43.6221" lon="3.85521">
        <ele>39</ele>
        <time>2021-03-06T12:25:55Z</time>
      </trkpt>
      <trkpt lat="43.62217" lon="3.85511">
        <ele>39</ele>
        <time>2021-03-06T12:25:57Z</time>
      </trkpt>
      <trkpt lat="43.6222" lon="3.85506">
        <ele>39</ele>
        <time>2021-03-06T12:25:58Z</time>
      </trkpt>
      <trkpt lat="43.62223" lon="3.85501">
        <ele>39</ele>
        <time>2021-03-06T12:25:59Z</time>
      </trkpt>
      <trkpt lat="43.6223" lon="3.85492">
        <ele>40</ele>
        <time>2021-03-06T12:26:01Z</time>
      </trkpt>
      <trkpt lat="43.62233" lon="3.85487">
        <ele>40</ele>
        <time>2021-03-06T12:26:02Z</time>
      </trkpt>
      <trkpt lat="43.62237" lon="3.85483">
        <ele>40</ele>
        <time>2021-03-06T12:26:03Z</time>
      </trkpt>
      <trkpt lat="43.6224" lon="3.85478">
        <ele>40</ele>
        <time>2021-03-06T12:26:04Z</time>
      </trkpt>
      <trkpt lat="43.62243" lon="3.85474">
        <ele>40</ele>
        <time>2021-03-06T12:26:05Z</time>
      </trkpt>
      <trkpt lat="43.62248" lon="3.8547">
        <ele>40</ele>
        <time>2021-03-06T12:26:06Z</time>
      </trkpt>
      <trkpt lat="43.62252" lon="3.85467">
        <ele>40</ele>
        <time>2021-03-06T12:26:07Z</time>
      </trkpt>
      <trkpt lat="43.62256" lon="3.85463">
        <ele>40</ele>
        <time>2021-03-06T12:26:08Z</time>
      </trkpt>
      <trkpt lat="43.62259" lon="3.8546">
        <ele>40</ele>
        <time>2021-03-06T12:26:09Z</time>
      </trkpt>
      <trkpt lat="43.62262" lon="3.85458">
        <ele>40</ele>
        <time>2021-03-06T12:26:10Z</time>
      </trkpt>
      <trkpt lat="43.62264" lon="3.85456">
        <ele>42</ele>
        <time>2021-03-06T12:26:11Z</time>
      </trkpt>
      <trkpt lat="43.62267" lon="3.85454">
        <ele>42</ele>
        <time>2021-03-06T12:26:12Z</time>
      </trkpt>
      <trkpt lat="43.62269" lon="3.85452">
        <ele>42</ele>
        <time>2021-03-06T12:26:13Z</time>
      </trkpt>
      <trkpt lat="43.62272" lon="3.8545">
        <ele>42</ele>
        <time>2021-03-06T12:26:14Z</time>
      </trkpt>
      <trkpt lat="43.62275" lon="3.85449">
        <ele>42</ele>
        <time>2021-03-06T12:26:15Z</time>
      </trkpt>
      <trkpt lat="43.62278" lon="3.85448">
        <ele>42</ele>
        <time>2021-03-06T12:26:16Z</time>
      </trkpt>
      <trkpt lat="43.62281" lon="3.85447">
        <ele>42</ele>
        <time>2021-03-06T12:26:17Z</time>
      </trkpt>
      <trkpt lat="43.62284" lon="3.85447">
        <ele>42</ele>
        <time>2021-03-06T12:26:19Z</time>
      </trkpt>
      <trkpt lat="43.62288" lon="3.85445">
        <ele>42</ele>
        <time>2021-03-06T12:26:22Z</time>
      </trkpt>
      <trkpt lat="43.62292" lon="3.85444">
        <ele>42</ele>
        <time>2021-03-06T12:26:23Z</time>
      </trkpt>
      <trkpt lat="43.62295" lon="3.85443">
        <ele>42</ele>
        <time>2021-03-06T12:26:24Z</time>
      </trkpt>
      <trkpt lat="43.62299" lon="3.85441">
        <ele>42</ele>
        <time>2021-03-06T12:26:25Z</time>
      </trkpt>
      <trkpt lat="43.62303" lon="3.8544">
        <ele>42</ele>
        <time>2021-03-06T12:26:27Z</time>
      </trkpt>
      <trkpt lat="43.62308" lon="3.85438">
        <ele>42</ele>
        <time>2021-03-06T12:26:28Z</time>
      </trkpt>
      <trkpt lat="43.62312" lon="3.85435">
        <ele>42</ele>
        <time>2021-03-06T12:26:29Z</time>
      </trkpt>
      <trkpt lat="43.62321" lon="3.85428">
        <ele>42</ele>
        <time>2021-03-06T12:26:30Z</time>
      </trkpt>
      <trkpt lat="43.62325" lon="3.85424">
        <ele>42</ele>
        <time>2021-03-06T12:26:31Z</time>
      </trkpt>
      <trkpt lat="43.62329" lon="3.8542">
        <ele>42</ele>
        <time>2021-03-06T12:26:32Z</time>
      </trkpt>
      <trkpt lat="43.62333" lon="3.85416">
        <ele>42</ele>
        <time>2021-03-06T12:26:33Z</time>
      </trkpt>
      <trkpt lat="43.62336" lon="3.85412">
        <ele>42</ele>
        <time>2021-03-06T12:26:34Z</time>
      </trkpt>
      <trkpt lat="43.6234" lon="3.85409">
        <ele>42</ele>
        <time>2021-03-06T12:26:35Z</time>
      </trkpt>
      <trkpt lat="43.62344" lon="3.85405">
        <ele>42</ele>
        <time>2021-03-06T12:26:36Z</time>
      </trkpt>
      <trkpt lat="43.62348" lon="3.854">
        <ele>42</ele>
        <time>2021-03-06T12:26:37Z</time>
      </trkpt>
      <trkpt lat="43.62352" lon="3.85395">
        <ele>42</ele>
        <time>2021-03-06T12:26:38Z</time>
      </trkpt>
      <trkpt lat="43.62355" lon="3.8539">
        <ele>42</ele>
        <time>2021-03-06T12:26:39Z</time>
      </trkpt>
      <trkpt lat="43.62358" lon="3.85385">
        <ele>42</ele>
        <time>2021-03-06T12:26:40Z</time>
      </trkpt>
      <trkpt lat="43.62362" lon="3.85381">
        <ele>42</ele>
        <time>2021-03-06T12:26:41Z</time>
      </trkpt>
      <trkpt lat="43.62365" lon="3.85376">
        <ele>42</ele>
        <time>2021-03-06T12:26:42Z</time>
      </trkpt>
      <trkpt lat="43.62369" lon="3.85372">
        <ele>42</ele>
        <time>2021-03-06T12:26:43Z</time>
      </trkpt>
      <trkpt lat="43.62373" lon="3.85367">
        <ele>42</ele>
        <time>2021-03-06T12:26:44Z</time>
      </trkpt>
      <trkpt lat="43.62376" lon="3.85362">
        <ele>42</ele>
        <time>2021-03-06T12:26:45Z</time>
      </trkpt>
      <trkpt lat="43.62383" lon="3.85353">
        <ele>42</ele>
        <time>2021-03-06T12:26:47Z</time>
      </trkpt>
      <trkpt lat="43.62386" lon="3.85349">
        <ele>42</ele>
        <time>2021-03-06T12:26:48Z</time>
      </trkpt>
      <trkpt lat="43.6239" lon="3.85344">
        <ele>42</ele>
        <time>2021-03-06T12:26:49Z</time>
      </trkpt>
      <trkpt lat="43.62393" lon="3.85339">
        <ele>42</ele>
        <time>2021-03-06T12:26:50Z</time>
      </trkpt>
      <trkpt lat="43.62396" lon="3.85334">
        <ele>42</ele>
        <time>2021-03-06T12:26:51Z</time>
      </trkpt>
      <trkpt lat="43.62399" lon="3.8533">
        <ele>42</ele>
        <time>2021-03-06T12:26:52Z</time>
      </trkpt>
      <trkpt lat="43.62403" lon="3.85325">
        <ele>42</ele>
        <time>2021-03-06T12:26:53Z</time>
      </trkpt>
      <trkpt lat="43.62406" lon="3.85321">
        <ele>42</ele>
        <time>2021-03-06T12:26:54Z</time>
      </trkpt>
      <trkpt lat="43.62409" lon="3.85316">
        <ele>42</ele>
        <time>2021-03-06T12:26:55Z</time>
      </trkpt>
      <trkpt lat="43.62411" lon="3.85311">
        <ele>42</ele>
        <time>2021-03-06T12:26:56Z</time>
      </trkpt>
      <trkpt lat="43.62414" lon="3.85306">
        <ele>42</ele>
        <time>2021-03-06T12:26:57Z</time>
      </trkpt>
      <trkpt lat="43.62417" lon="3.853">
        <ele>42</ele>
        <time>2021-03-06T12:26:58Z</time>
      </trkpt>
      <trkpt lat="43.6242" lon="3.85295">
        <ele>42</ele>
        <time>2021-03-06T12:26:59Z</time>
      </trkpt>
      <trkpt lat="43.62423" lon="3.85291">
        <ele>42</ele>
        <time>2021-03-06T12:27:00Z</time>
      </trkpt>
      <trkpt lat="43.62426" lon="3.85286">
        <ele>43</ele>
        <time>2021-03-06T12:27:01Z</time>
      </trkpt>
      <trkpt lat="43.62428" lon="3.8528">
        <ele>43</ele>
        <time>2021-03-06T12:27:02Z</time>
      </trkpt>
      <trkpt lat="43.62433" lon="3.85269">
        <ele>43</ele>
        <time>2021-03-06T12:27:04Z</time>
      </trkpt>
      <trkpt lat="43.62436" lon="3.85264">
        <ele>43</ele>
        <time>2021-03-06T12:27:05Z</time>
      </trkpt>
      <trkpt lat="43.62439" lon="3.85258">
        <ele>43</ele>
        <time>2021-03-06T12:27:06Z</time>
      </trkpt>
      <trkpt lat="43.62445" lon="3.85248">
        <ele>43</ele>
        <time>2021-03-06T12:27:08Z</time>
      </trkpt>
      <trkpt lat="43.62447" lon="3.85242">
        <ele>43</ele>
        <time>2021-03-06T12:27:09Z</time>
      </trkpt>
      <trkpt lat="43.6245" lon="3.85237">
        <ele>43</ele>
        <time>2021-03-06T12:27:10Z</time>
      </trkpt>
      <trkpt lat="43.62452" lon="3.85231">
        <ele>43</ele>
        <time>2021-03-06T12:27:11Z</time>
      </trkpt>
      <trkpt lat="43.62455" lon="3.85226">
        <ele>43</ele>
        <time>2021-03-06T12:27:13Z</time>
      </trkpt>
      <trkpt lat="43.62458" lon="3.85221">
        <ele>43</ele>
        <time>2021-03-06T12:27:14Z</time>
      </trkpt>
      <trkpt lat="43.6246" lon="3.85215">
        <ele>43</ele>
        <time>2021-03-06T12:27:15Z</time>
      </trkpt>
      <trkpt lat="43.62464" lon="3.85203">
        <ele>43</ele>
        <time>2021-03-06T12:27:16Z</time>
      </trkpt>
      <trkpt lat="43.62467" lon="3.85198">
        <ele>43</ele>
        <time>2021-03-06T12:27:17Z</time>
      </trkpt>
      <trkpt lat="43.62469" lon="3.85192">
        <ele>43</ele>
        <time>2021-03-06T12:27:18Z</time>
      </trkpt>
      <trkpt lat="43.62471" lon="3.85186">
        <ele>43</ele>
        <time>2021-03-06T12:27:20Z</time>
      </trkpt>
      <trkpt lat="43.62476" lon="3.85174">
        <ele>43</ele>
        <time>2021-03-06T12:27:21Z</time>
      </trkpt>
      <trkpt lat="43.62478" lon="3.85168">
        <ele>43</ele>
        <time>2021-03-06T12:27:22Z</time>
      </trkpt>
      <trkpt lat="43.6248" lon="3.85163">
        <ele>43</ele>
        <time>2021-03-06T12:27:23Z</time>
      </trkpt>
      <trkpt lat="43.62484" lon="3.85152">
        <ele>43</ele>
        <time>2021-03-06T12:27:25Z</time>
      </trkpt>
      <trkpt lat="43.62487" lon="3.85147">
        <ele>43</ele>
        <time>2021-03-06T12:27:26Z</time>
      </trkpt>
      <trkpt lat="43.62489" lon="3.85141">
        <ele>43</ele>
        <time>2021-03-06T12:27:27Z</time>
      </trkpt>
      <trkpt lat="43.62493" lon="3.8513">
        <ele>43</ele>
        <time>2021-03-06T12:27:29Z</time>
      </trkpt>
      <trkpt lat="43.62495" lon="3.85124">
        <ele>43</ele>
        <time>2021-03-06T12:27:30Z</time>
      </trkpt>
      <trkpt lat="43.62497" lon="3.85118">
        <ele>43</ele>
        <time>2021-03-06T12:27:31Z</time>
      </trkpt>
      <trkpt lat="43.62501" lon="3.85106">
        <ele>43</ele>
        <time>2021-03-06T12:27:33Z</time>
      </trkpt>
      <trkpt lat="43.62503" lon="3.85101">
        <ele>43</ele>
        <time>2021-03-06T12:27:34Z</time>
      </trkpt>
      <trkpt lat="43.62505" lon="3.85095">
        <ele>43</ele>
        <time>2021-03-06T12:27:35Z</time>
      </trkpt>
      <trkpt lat="43.62507" lon="3.8509">
        <ele>43</ele>
        <time>2021-03-06T12:27:36Z</time>
      </trkpt>
      <trkpt lat="43.62509" lon="3.85084">
        <ele>43</ele>
        <time>2021-03-06T12:27:37Z</time>
      </trkpt>
      <trkpt lat="43.62511" lon="3.85078">
        <ele>43</ele>
        <time>2021-03-06T12:27:38Z</time>
      </trkpt>
      <trkpt lat="43.62513" lon="3.85073">
        <ele>43</ele>
        <time>2021-03-06T12:27:39Z</time>
      </trkpt>
      <trkpt lat="43.62515" lon="3.85068">
        <ele>43</ele>
        <time>2021-03-06T12:27:40Z</time>
      </trkpt>
      <trkpt lat="43.62517" lon="3.85062">
        <ele>43</ele>
        <time>2021-03-06T12:27:41Z</time>
      </trkpt>
      <trkpt lat="43.62519" lon="3.85057">
        <ele>43</ele>
        <time>2021-03-06T12:27:42Z</time>
      </trkpt>
      <trkpt lat="43.62521" lon="3.85051">
        <ele>43</ele>
        <time>2021-03-06T12:27:43Z</time>
      </trkpt>
      <trkpt lat="43.62523" lon="3.85046">
        <ele>43</ele>
        <time>2021-03-06T12:27:44Z</time>
      </trkpt>
      <trkpt lat="43.62526" lon="3.85041">
        <ele>43</ele>
        <time>2021-03-06T12:27:45Z</time>
      </trkpt>
      <trkpt lat="43.62528" lon="3.85036">
        <ele>43</ele>
        <time>2021-03-06T12:27:46Z</time>
      </trkpt>
      <trkpt lat="43.6253" lon="3.85031">
        <ele>43</ele>
        <time>2021-03-06T12:27:47Z</time>
      </trkpt>
      <trkpt lat="43.62533" lon="3.85026">
        <ele>43</ele>
        <time>2021-03-06T12:27:48Z</time>
      </trkpt>
      <trkpt lat="43.62534" lon="3.8502">
        <ele>43</ele>
        <time>2021-03-06T12:27:49Z</time>
      </trkpt>
      <trkpt lat="43.62536" lon="3.85014">
        <ele>43</ele>
        <time>2021-03-06T12:27:50Z</time>
      </trkpt>
      <trkpt lat="43.62537" lon="3.85008">
        <ele>43</ele>
        <time>2021-03-06T12:27:51Z</time>
      </trkpt>
      <trkpt lat="43.62537" lon="3.85003">
        <ele>43</ele>
        <time>2021-03-06T12:27:52Z</time>
      </trkpt>
      <trkpt lat="43.62535" lon="3.84999">
        <ele>43</ele>
        <time>2021-03-06T12:27:53Z</time>
      </trkpt>
      <trkpt lat="43.62534" lon="3.84995">
        <ele>43</ele>
        <time>2021-03-06T12:27:54Z</time>
      </trkpt>
      <trkpt lat="43.62531" lon="3.84992">
        <ele>43</ele>
        <time>2021-03-06T12:27:55Z</time>
      </trkpt>
      <trkpt lat="43.62529" lon="3.8499">
        <ele>43</ele>
        <time>2021-03-06T12:27:56Z</time>
      </trkpt>
      <trkpt lat="43.62526" lon="3.84987">
        <ele>43</ele>
        <time>2021-03-06T12:27:57Z</time>
      </trkpt>
      <trkpt lat="43.62523" lon="3.84985">
        <ele>43</ele>
        <time>2021-03-06T12:27:58Z</time>
      </trkpt>
      <trkpt lat="43.62519" lon="3.84982">
        <ele>43</ele>
        <time>2021-03-06T12:28:00Z</time>
      </trkpt>
      <trkpt lat="43.62517" lon="3.84979">
        <ele>44</ele>
        <time>2021-03-06T12:28:01Z</time>
      </trkpt>
      <trkpt lat="43.62514" lon="3.84976">
        <ele>44</ele>
        <time>2021-03-06T12:28:02Z</time>
      </trkpt>
      <trkpt lat="43.62512" lon="3.84973">
        <ele>44</ele>
        <time>2021-03-06T12:28:03Z</time>
      </trkpt>
      <trkpt lat="43.6251" lon="3.8497">
        <ele>44</ele>
        <time>2021-03-06T12:28:04Z</time>
      </trkpt>
      <trkpt lat="43.62508" lon="3.84967">
        <ele>44</ele>
        <time>2021-03-06T12:28:05Z</time>
      </trkpt>
      <trkpt lat="43.62504" lon="3.84962">
        <ele>44</ele>
        <time>2021-03-06T12:28:07Z</time>
      </trkpt>
      <trkpt lat="43.62502" lon="3.84959">
        <ele>44</ele>
        <time>2021-03-06T12:28:08Z</time>
      </trkpt>
      <trkpt lat="43.625" lon="3.84957">
        <ele>44</ele>
        <time>2021-03-06T12:28:09Z</time>
      </trkpt>
      <trkpt lat="43.62495" lon="3.84951">
        <ele>45</ele>
        <time>2021-03-06T12:28:11Z</time>
      </trkpt>
      <trkpt lat="43.62493" lon="3.84947">
        <ele>45</ele>
        <time>2021-03-06T12:28:12Z</time>
      </trkpt>
      <trkpt lat="43.62491" lon="3.84944">
        <ele>45</ele>
        <time>2021-03-06T12:28:13Z</time>
      </trkpt>
      <trkpt lat="43.62489" lon="3.8494">
        <ele>45</ele>
        <time>2021-03-06T12:28:14Z</time>
      </trkpt>
      <trkpt lat="43.62487" lon="3.84937">
        <ele>45</ele>
        <time>2021-03-06T12:28:15Z</time>
      </trkpt>
      <trkpt lat="43.62485" lon="3.84933">
        <ele>45</ele>
        <time>2021-03-06T12:28:16Z</time>
      </trkpt>
      <trkpt lat="43.62483" lon="3.8493">
        <ele>45</ele>
        <time>2021-03-06T12:28:17Z</time>
      </trkpt>
      <trkpt lat="43.62479" lon="3.84926">
        <ele>45</ele>
        <time>2021-03-06T12:28:18Z</time>
      </trkpt>
      <trkpt lat="43.62474" lon="3.84919">
        <ele>45</ele>
        <time>2021-03-06T12:28:20Z</time>
      </trkpt>
      <trkpt lat="43.62472" lon="3.84916">
        <ele>46</ele>
        <time>2021-03-06T12:28:21Z</time>
      </trkpt>
      <trkpt lat="43.62469" lon="3.84913">
        <ele>46</ele>
        <time>2021-03-06T12:28:22Z</time>
      </trkpt>
      <trkpt lat="43.62466" lon="3.8491">
        <ele>46</ele>
        <time>2021-03-06T12:28:23Z</time>
      </trkpt>
      <trkpt lat="43.62463" lon="3.84908">
        <ele>46</ele>
        <time>2021-03-06T12:28:24Z</time>
      </trkpt>
      <trkpt lat="43.62461" lon="3.84905">
        <ele>46</ele>
        <time>2021-03-06T12:28:25Z</time>
      </trkpt>
      <trkpt lat="43.62455" lon="3.84899">
        <ele>46</ele>
        <time>2021-03-06T12:28:27Z</time>
      </trkpt>
      <trkpt lat="43.62452" lon="3.84897">
        <ele>46</ele>
        <time>2021-03-06T12:28:28Z</time>
      </trkpt>
      <trkpt lat="43.62449" lon="3.84894">
        <ele>46</ele>
        <time>2021-03-06T12:28:29Z</time>
      </trkpt>
      <trkpt lat="43.62446" lon="3.84892">
        <ele>46</ele>
        <time>2021-03-06T12:28:30Z</time>
      </trkpt>
      <trkpt lat="43.62444" lon="3.84889">
        <ele>47</ele>
        <time>2021-03-06T12:28:31Z</time>
      </trkpt>
      <trkpt lat="43.62441" lon="3.84886">
        <ele>47</ele>
        <time>2021-03-06T12:28:32Z</time>
      </trkpt>
      <trkpt lat="43.62439" lon="3.84883">
        <ele>47</ele>
        <time>2021-03-06T12:28:33Z</time>
      </trkpt>
      <trkpt lat="43.62437" lon="3.8488">
        <ele>47</ele>
        <time>2021-03-06T12:28:34Z</time>
      </trkpt>
      <trkpt lat="43.62435" lon="3.84877">
        <ele>47</ele>
        <time>2021-03-06T12:28:35Z</time>
      </trkpt>
      <trkpt lat="43.6243" lon="3.8487">
        <ele>47</ele>
        <time>2021-03-06T12:28:37Z</time>
      </trkpt>
      <trkpt lat="43.62427" lon="3.84867">
        <ele>47</ele>
        <time>2021-03-06T12:28:38Z</time>
      </trkpt>
      <trkpt lat="43.62425" lon="3.84864">
        <ele>47</ele>
        <time>2021-03-06T12:28:39Z</time>
      </trkpt>
      <trkpt lat="43.62422" lon="3.84861">
        <ele>47</ele>
        <time>2021-03-06T12:28:40Z</time>
      </trkpt>
      <trkpt lat="43.6242" lon="3.84858">
        <ele>47</ele>
        <time>2021-03-06T12:28:41Z</time>
      </trkpt>
      <trkpt lat="43.62417" lon="3.84854">
        <ele>47</ele>
        <time>2021-03-06T12:28:42Z</time>
      </trkpt>
      <trkpt lat="43.62415" lon="3.84851">
        <ele>47</ele>
        <time>2021-03-06T12:28:43Z</time>
      </trkpt>
      <trkpt lat="43.62413" lon="3.84848">
        <ele>47</ele>
        <time>2021-03-06T12:28:44Z</time>
      </trkpt>
      <trkpt lat="43.62407" lon="3.84843">
        <ele>47</ele>
        <time>2021-03-06T12:28:46Z</time>
      </trkpt>
      <trkpt lat="43.62405" lon="3.8484">
        <ele>47</ele>
        <time>2021-03-06T12:28:47Z</time>
      </trkpt>
      <trkpt lat="43.62402" lon="3.84838">
        <ele>47</ele>
        <time>2021-03-06T12:28:48Z</time>
      </trkpt>
      <trkpt lat="43.62399" lon="3.84837">
        <ele>47</ele>
        <time>2021-03-06T12:28:49Z</time>
      </trkpt>
      <trkpt lat="43.62396" lon="3.84835">
        <ele>47</ele>
        <time>2021-03-06T12:28:50Z</time>
      </trkpt>
      <trkpt lat="43.62393" lon="3.84834">
        <ele>48</ele>
        <time>2021-03-06T12:28:51Z</time>
      </trkpt>
      <trkpt lat="43.6239" lon="3.84833">
        <ele>48</ele>
        <time>2021-03-06T12:28:52Z</time>
      </trkpt>
      <trkpt lat="43.62387" lon="3.84832">
        <ele>48</ele>
        <time>2021-03-06T12:28:53Z</time>
      </trkpt>
      <trkpt lat="43.62385" lon="3.84831">
        <ele>48</ele>
        <time>2021-03-06T12:28:54Z</time>
      </trkpt>
      <trkpt lat="43.62382" lon="3.8483">
        <ele>48</ele>
        <time>2021-03-06T12:28:55Z</time>
      </trkpt>
      <trkpt lat="43.62379" lon="3.8483">
        <ele>48</ele>
        <time>2021-03-06T12:28:56Z</time>
      </trkpt>
      <trkpt lat="43.62376" lon="3.84829">
        <ele>48</ele>
        <time>2021-03-06T12:28:57Z</time>
      </trkpt>
      <trkpt lat="43.6237" lon="3.84826">
        <ele>48</ele>
        <time>2021-03-06T12:28:59Z</time>
      </trkpt>
      <trkpt lat="43.62368" lon="3.84825">
        <ele>48</ele>
        <time>2021-03-06T12:29:00Z</time>
      </trkpt>
      <trkpt lat="43.62365" lon="3.84824">
        <ele>51</ele>
        <time>2021-03-06T12:29:01Z</time>
      </trkpt>
      <trkpt lat="43.62363" lon="3.84823">
        <ele>51</ele>
        <time>2021-03-06T12:29:02Z</time>
      </trkpt>
      <trkpt lat="43.6236" lon="3.84822">
        <ele>51</ele>
        <time>2021-03-06T12:29:03Z</time>
      </trkpt>
      <trkpt lat="43.62358" lon="3.8482">
        <ele>51</ele>
        <time>2021-03-06T12:29:04Z</time>
      </trkpt>
      <trkpt lat="43.62355" lon="3.84819">
        <ele>51</ele>
        <time>2021-03-06T12:29:05Z</time>
      </trkpt>
      <trkpt lat="43.62353" lon="3.84818">
        <ele>51</ele>
        <time>2021-03-06T12:29:06Z</time>
      </trkpt>
      <trkpt lat="43.62351" lon="3.84817">
        <ele>51</ele>
        <time>2021-03-06T12:29:07Z</time>
      </trkpt>
      <trkpt lat="43.62348" lon="3.84816">
        <ele>51</ele>
        <time>2021-03-06T12:29:08Z</time>
      </trkpt>
      <trkpt lat="43.62346" lon="3.84815">
        <ele>51</ele>
        <time>2021-03-06T12:29:09Z</time>
      </trkpt>
      <trkpt lat="43.62344" lon="3.84814">
        <ele>51</ele>
        <time>2021-03-06T12:29:10Z</time>
      </trkpt>
      <trkpt lat="43.62342" lon="3.84812">
        <ele>53</ele>
        <time>2021-03-06T12:29:11Z</time>
      </trkpt>
      <trkpt lat="43.62341" lon="3.84811">
        <ele>53</ele>
        <time>2021-03-06T12:29:12Z</time>
      </trkpt>
      <trkpt lat="43.62339" lon="3.84809">
        <ele>53</ele>
        <time>2021-03-06T12:29:13Z</time>
      </trkpt>
      <trkpt lat="43.62337" lon="3.84808">
        <ele>53</ele>
        <time>2021-03-06T12:29:14Z</time>
      </trkpt>
      <trkpt lat="43.62334" lon="3.84806">
        <ele>53</ele>
        <time>2021-03-06T12:29:16Z</time>
      </trkpt>
      <trkpt lat="43.62332" lon="3.84805">
        <ele>53</ele>
        <time>2021-03-06T12:29:17Z</time>
      </trkpt>
      <trkpt lat="43.6233" lon="3.84804">
        <ele>53</ele>
        <time>2021-03-06T12:29:18Z</time>
      </trkpt>
      <trkpt lat="43.62328" lon="3.84802">
        <ele>53</ele>
        <time>2021-03-06T12:29:19Z</time>
      </trkpt>
      <trkpt lat="43.62327" lon="3.848">
        <ele>53</ele>
        <time>2021-03-06T12:29:20Z</time>
      </trkpt>
      <trkpt lat="43.62325" lon="3.84799">
        <ele>56</ele>
        <time>2021-03-06T12:29:21Z</time>
      </trkpt>
      <trkpt lat="43.62323" lon="3.84798">
        <ele>56</ele>
        <time>2021-03-06T12:29:22Z</time>
      </trkpt>
      <trkpt lat="43.6232" lon="3.84794">
        <ele>56</ele>
        <time>2021-03-06T12:29:24Z</time>
      </trkpt>
      <trkpt lat="43.62318" lon="3.84791">
        <ele>56</ele>
        <time>2021-03-06T12:29:26Z</time>
      </trkpt>
      <trkpt lat="43.62315" lon="3.84787">
        <ele>56</ele>
        <time>2021-03-06T12:29:28Z</time>
      </trkpt>
      <trkpt lat="43.62313" lon="3.84785">
        <ele>56</ele>
        <time>2021-03-06T12:29:29Z</time>
      </trkpt>
      <trkpt lat="43.62311" lon="3.84784">
        <ele>56</ele>
        <time>2021-03-06T12:29:30Z</time>
      </trkpt>
      <trkpt lat="43.6231" lon="3.84782">
        <ele>57</ele>
        <time>2021-03-06T12:29:31Z</time>
      </trkpt>
      <trkpt lat="43.62308" lon="3.8478">
        <ele>57</ele>
        <time>2021-03-06T12:29:32Z</time>
      </trkpt>
      <trkpt lat="43.62306" lon="3.84778">
        <ele>57</ele>
        <time>2021-03-06T12:29:33Z</time>
      </trkpt>
      <trkpt lat="43.62305" lon="3.84776">
        <ele>57</ele>
        <time>2021-03-06T12:29:34Z</time>
      </trkpt>
      <trkpt lat="43.62302" lon="3.84775">
        <ele>57</ele>
        <time>2021-03-06T12:29:35Z</time>
      </trkpt>
      <trkpt lat="43.623" lon="3.84773">
        <ele>57</ele>
        <time>2021-03-06T12:29:36Z</time>
      </trkpt>
      <trkpt lat="43.62298" lon="3.84772">
        <ele>57</ele>
        <time>2021-03-06T12:29:37Z</time>
      </trkpt>
      <trkpt lat="43.62297" lon="3.8477">
        <ele>57</ele>
        <time>2021-03-06T12:29:38Z</time>
      </trkpt>
      <trkpt lat="43.62295" lon="3.84769">
        <ele>57</ele>
        <time>2021-03-06T12:29:39Z</time>
      </trkpt>
      <trkpt lat="43.62293" lon="3.84768">
        <ele>57</ele>
        <time>2021-03-06T12:29:40Z</time>
      </trkpt>
      <trkpt lat="43.6229" lon="3.84768">
        <ele>57</ele>
        <time>2021-03-06T12:29:42Z</time>
      </trkpt>
      <trkpt lat="43.62287" lon="3.84771">
        <ele>57</ele>
        <time>2021-03-06T12:29:44Z</time>
      </trkpt>
      <trkpt lat="43.62286" lon="3.84774">
        <ele>57</ele>
        <time>2021-03-06T12:29:45Z</time>
      </trkpt>
      <trkpt lat="43.62285" lon="3.84778">
        <ele>57</ele>
        <time>2021-03-06T12:29:46Z</time>
      </trkpt>
      <trkpt lat="43.62284" lon="3.84781">
        <ele>57</ele>
        <time>2021-03-06T12:29:47Z</time>
      </trkpt>
      <trkpt lat="43.62283" lon="3.84784">
        <ele>57</ele>
        <time>2021-03-06T12:29:48Z</time>
      </trkpt>
      <trkpt lat="43.62283" lon="3.84788">
        <ele>57</ele>
        <time>2021-03-06T12:29:49Z</time>
      </trkpt>
      <trkpt lat="43.62282" lon="3.84791">
        <ele>57</ele>
        <time>2021-03-06T12:29:50Z</time>
      </trkpt>
      <trkpt lat="43.62281" lon="3.84795">
        <ele>59</ele>
        <time>2021-03-06T12:29:51Z</time>
      </trkpt>
      <trkpt lat="43.6228" lon="3.84803">
        <ele>59</ele>
        <time>2021-03-06T12:29:53Z</time>
      </trkpt>
      <trkpt lat="43.6228" lon="3.84807">
        <ele>59</ele>
        <time>2021-03-06T12:29:54Z</time>
      </trkpt>
      <trkpt lat="43.62279" lon="3.84811">
        <ele>59</ele>
        <time>2021-03-06T12:29:55Z</time>
      </trkpt>
      <trkpt lat="43.62279" lon="3.84819">
        <ele>59</ele>
        <time>2021-03-06T12:29:57Z</time>
      </trkpt>
      <trkpt lat="43.62278" lon="3.84822">
        <ele>59</ele>
        <time>2021-03-06T12:29:58Z</time>
      </trkpt>
      <trkpt lat="43.62278" lon="3.84826">
        <ele>59</ele>
        <time>2021-03-06T12:29:59Z</time>
      </trkpt>
      <trkpt lat="43.62278" lon="3.8483">
        <ele>59</ele>
        <time>2021-03-06T12:30:00Z</time>
      </trkpt>
      <trkpt lat="43.62278" lon="3.84834">
        <ele>60</ele>
        <time>2021-03-06T12:30:01Z</time>
      </trkpt>
      <trkpt lat="43.62279" lon="3.84837">
        <ele>60</ele>
        <time>2021-03-06T12:30:02Z</time>
      </trkpt>
      <trkpt lat="43.62279" lon="3.84841">
        <ele>60</ele>
        <time>2021-03-06T12:30:03Z</time>
      </trkpt>
      <trkpt lat="43.62279" lon="3.84845">
        <ele>60</ele>
        <time>2021-03-06T12:30:04Z</time>
      </trkpt>
      <trkpt lat="43.6228" lon="3.84853">
        <ele>60</ele>
        <time>2021-03-06T12:30:06Z</time>
      </trkpt>
      <trkpt lat="43.62279" lon="3.84857">
        <ele>60</ele>
        <time>2021-03-06T12:30:07Z</time>
      </trkpt>
      <trkpt lat="43.62279" lon="3.84861">
        <ele>60</ele>
        <time>2021-03-06T12:30:08Z</time>
      </trkpt>
      <trkpt lat="43.62279" lon="3.84872">
        <ele>60</ele>
        <time>2021-03-06T12:30:10Z</time>
      </trkpt>
      <trkpt lat="43.62279" lon="3.84878">
        <ele>62</ele>
        <time>2021-03-06T12:30:11Z</time>
      </trkpt>
      <trkpt lat="43.62278" lon="3.84889">
        <ele>62</ele>
        <time>2021-03-06T12:30:13Z</time>
      </trkpt>
      <trkpt lat="43.62277" lon="3.84892">
        <ele>62</ele>
        <time>2021-03-06T12:30:14Z</time>
      </trkpt>
      <trkpt lat="43.62275" lon="3.84893">
        <ele>62</ele>
        <time>2021-03-06T12:30:15Z</time>
      </trkpt>
      <trkpt lat="43.62273" lon="3.84892">
        <ele>62</ele>
        <time>2021-03-06T12:30:18Z</time>
      </trkpt>
      <trkpt lat="43.62271" lon="3.84892">
        <ele>62</ele>
        <time>2021-03-06T12:30:22Z</time>
      </trkpt>
      <trkpt lat="43.62275" lon="3.84904">
        <ele>62</ele>
        <time>2021-03-06T12:30:42Z</time>
      </trkpt>
      <trkpt lat="43.6227" lon="3.84911">
        <ele>62</ele>
        <time>2021-03-06T12:30:43Z</time>
      </trkpt>
      <trkpt lat="43.62268" lon="3.84911">
        <ele>62</ele>
        <time>2021-03-06T12:30:45Z</time>
      </trkpt>
      <trkpt lat="43.62266" lon="3.84909">
        <ele>62</ele>
        <time>2021-03-06T12:30:46Z</time>
      </trkpt>
      <trkpt lat="43.62266" lon="3.84907">
        <ele>62</ele>
        <time>2021-03-06T12:30:47Z</time>
      </trkpt>
      <trkpt lat="43.62263" lon="3.84898">
        <ele>61</ele>
        <time>2021-03-06T12:31:18Z</time>
      </trkpt>
      <trkpt lat="43.62263" lon="3.84896">
        <ele>61</ele>
        <time>2021-03-06T12:31:19Z</time>
      </trkpt>
      <trkpt lat="43.62262" lon="3.84906">
        <ele>66</ele>
        <time>2021-03-06T12:33:30Z</time>
      </trkpt>
      <trkpt lat="43.62262" lon="3.84907">
        <ele>66</ele>
        <time>2021-03-06T12:33:31Z</time>
      </trkpt>
      <trkpt lat="43.62264" lon="3.84907">
        <ele>66</ele>
        <time>2021-03-06T12:33:42Z</time>
      </trkpt>
      <trkpt lat="43.62266" lon="3.84906">
        <ele>66</ele>
        <time>2021-03-06T12:33:45Z</time>
      </trkpt>
      <trkpt lat="43.62265" lon="3.84903">
        <ele>66</ele>
        <time>2021-03-06T12:34:01Z</time>
      </trkpt>
      <trkpt lat="43.62262" lon="3.84908">
        <ele>69</ele>
        <time>2021-03-06T12:35:28Z</time>
      </trkpt>
      <trkpt lat="43.62264" lon="3.84901">
        <ele>65</ele>
        <time>2021-03-06T12:41:22Z</time>
      </trkpt>
      <trkpt lat="43.62264" lon="3.84902">
        <ele>65</ele>
        <time>2021-03-06T12:41:24Z</time>
      </trkpt>
      <trkpt lat="43.62265" lon="3.84905">
        <ele>65</ele>
        <time>2021-03-06T12:41:27Z</time>
      </trkpt>
      <trkpt lat="43.62264" lon="3.84904">
        <ele>64</ele>
        <time>2021-03-06T12:41:31Z</time>
      </trkpt>
      <trkpt lat="43.62262" lon="3.84906">
        <ele>65</ele>
        <time>2021-03-06T12:42:44Z</time>
      </trkpt>
      <trkpt lat="43.62263" lon="3.84909">
        <ele>65</ele>
        <time>2021-03-06T12:42:46Z</time>
      </trkpt>
      <trkpt lat="43.62261" lon="3.84909">
        <ele>65</ele>
        <time>2021-03-06T12:42:48Z</time>
      </trkpt>
      <trkpt lat="43.62261" lon="3.84906">
        <ele>65</ele>
        <time>2021-03-06T12:42:49Z</time>
      </trkpt>
      <trkpt lat="43.62262" lon="3.84903">
        <ele>65</ele>
        <time>2021-03-06T12:42:50Z</time>
      </trkpt>
      <trkpt lat="43.62263" lon="3.849">
        <ele>65</ele>
        <time>2021-03-06T12:42:51Z</time>
      </trkpt>
      <trkpt lat="43.62264" lon="3.84897">
        <ele>65</ele>
        <time>2021-03-06T12:42:53Z</time>
      </trkpt>
      <trkpt lat="43.62267" lon="3.84897">
        <ele>65</ele>
        <time>2021-03-06T12:42:56Z</time>
      </trkpt>
      <trkpt lat="43.62264" lon="3.84899">
        <ele>65</ele>
        <time>2021-03-06T12:42:59Z</time>
      </trkpt>
      <trkpt lat="43.62264" lon="3.84899">
        <ele>66</ele>
        <time>2021-03-06T12:43:05Z</time>
      </trkpt>
      <trkpt lat="43.62265" lon="3.84907">
        <ele>65</ele>
        <time>2021-03-06T12:43:48Z</time>
      </trkpt>
      <trkpt lat="43.62265" lon="3.84908">
        <ele>65</ele>
        <time>2021-03-06T12:43:49Z</time>
      </trkpt>
      <trkpt lat="43.62265" lon="3.84909">
        <ele>64</ele>
        <time>2021-03-06T12:43:55Z</time>
      </trkpt>
      <trkpt lat="43.62261" lon="3.84908">
        <ele>64</ele>
        <time>2021-03-06T12:44:06Z</time>
      </trkpt>
      <trkpt lat="43.62261" lon="3.84903">
        <ele>64</ele>
        <time>2021-03-06T12:44:07Z</time>
      </trkpt>
      <trkpt lat="43.62263" lon="3.84901">
        <ele>64</ele>
        <time>2021-03-06T12:44:09Z</time>
      </trkpt>
      <trkpt lat="43.62264" lon="3.84904">
        <ele>64</ele>
        <time>2021-03-06T12:44:11Z</time>
      </trkpt>
      <trkpt lat="43.62264" lon="3.84908">
        <ele>64</ele>
        <time>2021-03-06T12:44:13Z</time>
      </trkpt>
      <trkpt lat="43.62267" lon="3.84909">
        <ele>64</ele>
        <time>2021-03-06T12:44:17Z</time>
      </trkpt>
      <trkpt lat="43.62269" lon="3.8491">
        <ele>64</ele>
        <time>2021-03-06T12:44:18Z</time>
      </trkpt>
      <trkpt lat="43.62272" lon="3.84911">
        <ele>64</ele>
        <time>2021-03-06T12:44:21Z</time>
      </trkpt>
      <trkpt lat="43.62274" lon="3.84908">
        <ele>64</ele>
        <time>2021-03-06T12:44:23Z</time>
      </trkpt>
      <trkpt lat="43.62274" lon="3.84903">
        <ele>64</ele>
        <time>2021-03-06T12:44:25Z</time>
      </trkpt>
      <trkpt lat="43.62275" lon="3.84901">
        <ele>62</ele>
        <time>2021-03-06T12:44:26Z</time>
      </trkpt>
      <trkpt lat="43.62275" lon="3.84898">
        <ele>62</ele>
        <time>2021-03-06T12:44:27Z</time>
      </trkpt>
      <trkpt lat="43.62276" lon="3.84894">
        <ele>62</ele>
        <time>2021-03-06T12:44:29Z</time>
      </trkpt>
      <trkpt lat="43.62277" lon="3.84891">
        <ele>62</ele>
        <time>2021-03-06T12:44:31Z</time>
      </trkpt>
      <trkpt lat="43.62278" lon="3.84887">
        <ele>62</ele>
        <time>2021-03-06T12:44:33Z</time>
      </trkpt>
      <trkpt lat="43.6228" lon="3.84884">
        <ele>62</ele>
        <time>2021-03-06T12:44:35Z</time>
      </trkpt>
      <trkpt lat="43.62281" lon="3.84881">
        <ele>62</ele>
        <time>2021-03-06T12:44:38Z</time>
      </trkpt>
      <trkpt lat="43.62281" lon="3.84877">
        <ele>62</ele>
        <time>2021-03-06T12:44:39Z</time>
      </trkpt>
      <trkpt lat="43.62281" lon="3.84874">
        <ele>62</ele>
        <time>2021-03-06T12:44:41Z</time>
      </trkpt>
      <trkpt lat="43.62281" lon="3.84871">
        <ele>62</ele>
        <time>2021-03-06T12:44:44Z</time>
      </trkpt>
      <trkpt lat="43.62281" lon="3.84867">
        <ele>65</ele>
        <time>2021-03-06T12:44:46Z</time>
      </trkpt>
      <trkpt lat="43.62282" lon="3.84863">
        <ele>65</ele>
        <time>2021-03-06T12:44:48Z</time>
      </trkpt>
      <trkpt lat="43.62282" lon="3.8486">
        <ele>65</ele>
        <time>2021-03-06T12:44:49Z</time>
      </trkpt>
      <trkpt lat="43.62282" lon="3.84857">
        <ele>65</ele>
        <time>2021-03-06T12:44:50Z</time>
      </trkpt>
      <trkpt lat="43.62283" lon="3.84854">
        <ele>65</ele>
        <time>2021-03-06T12:44:52Z</time>
      </trkpt>
      <trkpt lat="43.62282" lon="3.84851">
        <ele>65</ele>
        <time>2021-03-06T12:44:53Z</time>
      </trkpt>
      <trkpt lat="43.62282" lon="3.84847">
        <ele>65</ele>
        <time>2021-03-06T12:44:55Z</time>
      </trkpt>
      <trkpt lat="43.62281" lon="3.84844">
        <ele>65</ele>
        <time>2021-03-06T12:44:57Z</time>
      </trkpt>
      <trkpt lat="43.6228" lon="3.84842">
        <ele>65</ele>
        <time>2021-03-06T12:44:59Z</time>
      </trkpt>
      <trkpt lat="43.6228" lon="3.84838">
        <ele>65</ele>
        <time>2021-03-06T12:45:02Z</time>
      </trkpt>
      <trkpt lat="43.6228" lon="3.84834">
        <ele>65</ele>
        <time>2021-03-06T12:45:04Z</time>
      </trkpt>
      <trkpt lat="43.62279" lon="3.8483">
        <ele>66</ele>
        <time>2021-03-06T12:45:06Z</time>
      </trkpt>
      <trkpt lat="43.62279" lon="3.84827">
        <ele>66</ele>
        <time>2021-03-06T12:45:07Z</time>
      </trkpt>
      <trkpt lat="43.62279" lon="3.84823">
        <ele>66</ele>
        <time>2021-03-06T12:45:08Z</time>
      </trkpt>
      <trkpt lat="43.62279" lon="3.84819">
        <ele>66</ele>
        <time>2021-03-06T12:45:09Z</time>
      </trkpt>
      <trkpt lat="43.62281" lon="3.84812">
        <ele>66</ele>
        <time>2021-03-06T12:45:10Z</time>
      </trkpt>
      <trkpt lat="43.62282" lon="3.84809">
        <ele>66</ele>
        <time>2021-03-06T12:45:11Z</time>
      </trkpt>
      <trkpt lat="43.62283" lon="3.84806">
        <ele>66</ele>
        <time>2021-03-06T12:45:12Z</time>
      </trkpt>
      <trkpt lat="43.62284" lon="3.84797">
        <ele>66</ele>
        <time>2021-03-06T12:45:14Z</time>
      </trkpt>
      <trkpt lat="43.62285" lon="3.84792">
        <ele>66</ele>
        <time>2021-03-06T12:45:15Z</time>
      </trkpt>
      <trkpt lat="43.62286" lon="3.84787">
        <ele>66</ele>
        <time>2021-03-06T12:45:16Z</time>
      </trkpt>
      <trkpt lat="43.62286" lon="3.84781">
        <ele>66</ele>
        <time>2021-03-06T12:45:17Z</time>
      </trkpt>
      <trkpt lat="43.62288" lon="3.84776">
        <ele>66</ele>
        <time>2021-03-06T12:45:19Z</time>
      </trkpt>
      <trkpt lat="43.62288" lon="3.84771">
        <ele>66</ele>
        <time>2021-03-06T12:45:20Z</time>
      </trkpt>
      <trkpt lat="43.62287" lon="3.84767">
        <ele>66</ele>
        <time>2021-03-06T12:45:21Z</time>
      </trkpt>
      <trkpt lat="43.62285" lon="3.8476">
        <ele>66</ele>
        <time>2021-03-06T12:45:22Z</time>
      </trkpt>
      <trkpt lat="43.62284" lon="3.84756">
        <ele>66</ele>
        <time>2021-03-06T12:45:23Z</time>
      </trkpt>
      <trkpt lat="43.62282" lon="3.84752">
        <ele>66</ele>
        <time>2021-03-06T12:45:24Z</time>
      </trkpt>
      <trkpt lat="43.62281" lon="3.84748">
        <ele>66</ele>
        <time>2021-03-06T12:45:25Z</time>
      </trkpt>
      <trkpt lat="43.6228" lon="3.84744">
        <ele>64</ele>
        <time>2021-03-06T12:45:26Z</time>
      </trkpt>
      <trkpt lat="43.62279" lon="3.84739">
        <ele>64</ele>
        <time>2021-03-06T12:45:27Z</time>
      </trkpt>
      <trkpt lat="43.62277" lon="3.84735">
        <ele>64</ele>
        <time>2021-03-06T12:45:28Z</time>
      </trkpt>
      <trkpt lat="43.62275" lon="3.8473">
        <ele>64</ele>
        <time>2021-03-06T12:45:29Z</time>
      </trkpt>
      <trkpt lat="43.62273" lon="3.84725">
        <ele>64</ele>
        <time>2021-03-06T12:45:30Z</time>
      </trkpt>
      <trkpt lat="43.62271" lon="3.8472">
        <ele>64</ele>
        <time>2021-03-06T12:45:31Z</time>
      </trkpt>
      <trkpt lat="43.62267" lon="3.84708">
        <ele>64</ele>
        <time>2021-03-06T12:45:33Z</time>
      </trkpt>
      <trkpt lat="43.62261" lon="3.84693">
        <ele>64</ele>
        <time>2021-03-06T12:45:35Z</time>
      </trkpt>
      <trkpt lat="43.62259" lon="3.84688">
        <ele>61</ele>
        <time>2021-03-06T12:45:36Z</time>
      </trkpt>
      <trkpt lat="43.62256" lon="3.84685">
        <ele>61</ele>
        <time>2021-03-06T12:45:37Z</time>
      </trkpt>
      <trkpt lat="43.62254" lon="3.84681">
        <ele>61</ele>
        <time>2021-03-06T12:45:39Z</time>
      </trkpt>
      <trkpt lat="43.62252" lon="3.84679">
        <ele>61</ele>
        <time>2021-03-06T12:45:40Z</time>
      </trkpt>
      <trkpt lat="43.6225" lon="3.84676">
        <ele>61</ele>
        <time>2021-03-06T12:45:41Z</time>
      </trkpt>
      <trkpt lat="43.62246" lon="3.84674">
        <ele>61</ele>
        <time>2021-03-06T12:45:43Z</time>
      </trkpt>
      <trkpt lat="43.62242" lon="3.84672">
        <ele>61</ele>
        <time>2021-03-06T12:45:44Z</time>
      </trkpt>
      <trkpt lat="43.62237" lon="3.84667">
        <ele>61</ele>
        <time>2021-03-06T12:45:45Z</time>
      </trkpt>
      <trkpt lat="43.62231" lon="3.84662">
        <ele>61</ele>
        <time>2021-03-06T12:45:46Z</time>
      </trkpt>
      <trkpt lat="43.62226" lon="3.84656">
        <ele>61</ele>
        <time>2021-03-06T12:45:47Z</time>
      </trkpt>
      <trkpt lat="43.62222" lon="3.84652">
        <ele>61</ele>
        <time>2021-03-06T12:45:48Z</time>
      </trkpt>
      <trkpt lat="43.6222" lon="3.84648">
        <ele>61</ele>
        <time>2021-03-06T12:45:49Z</time>
      </trkpt>
      <trkpt lat="43.62219" lon="3.84645">
        <ele>61</ele>
        <time>2021-03-06T12:45:50Z</time>
      </trkpt>
      <trkpt lat="43.62221" lon="3.84641">
        <ele>61</ele>
        <time>2021-03-06T12:45:51Z</time>
      </trkpt>
      <trkpt lat="43.62223" lon="3.84638">
        <ele>61</ele>
        <time>2021-03-06T12:45:53Z</time>
      </trkpt>
      <trkpt lat="43.62225" lon="3.84633">
        <ele>61</ele>
        <time>2021-03-06T12:45:54Z</time>
      </trkpt>
      <trkpt lat="43.62228" lon="3.84627">
        <ele>61</ele>
        <time>2021-03-06T12:45:55Z</time>
      </trkpt>
      <trkpt lat="43.62232" lon="3.84617">
        <ele>59</ele>
        <time>2021-03-06T12:45:56Z</time>
      </trkpt>
      <trkpt lat="43.62233" lon="3.84613">
        <ele>59</ele>
        <time>2021-03-06T12:45:57Z</time>
      </trkpt>
      <trkpt lat="43.62234" lon="3.8461">
        <ele>59</ele>
        <time>2021-03-06T12:45:58Z</time>
      </trkpt>
      <trkpt lat="43.62235" lon="3.84607">
        <ele>59</ele>
        <time>2021-03-06T12:45:59Z</time>
      </trkpt>
      <trkpt lat="43.62236" lon="3.84604">
        <ele>59</ele>
        <time>2021-03-06T12:46:00Z</time>
      </trkpt>
      <trkpt lat="43.62237" lon="3.84602">
        <ele>59</ele>
        <time>2021-03-06T12:46:01Z</time>
      </trkpt>
      <trkpt lat="43.62239" lon="3.84601">
        <ele>59</ele>
        <time>2021-03-06T12:46:02Z</time>
      </trkpt>
      <trkpt lat="43.62237" lon="3.84596">
        <ele>59</ele>
        <time>2021-03-06T12:46:04Z</time>
      </trkpt>
      <trkpt lat="43.62236" lon="3.84592">
        <ele>59</ele>
        <time>2021-03-06T12:46:07Z</time>
      </trkpt>
      <trkpt lat="43.62236" lon="3.84589">
        <ele>59</ele>
        <time>2021-03-06T12:46:09Z</time>
      </trkpt>
      <trkpt lat="43.62238" lon="3.84584">
        <ele>59</ele>
        <time>2021-03-06T12:46:11Z</time>
      </trkpt>
      <trkpt lat="43.62238" lon="3.84581">
        <ele>59</ele>
        <time>2021-03-06T12:46:12Z</time>
      </trkpt>
      <trkpt lat="43.62238" lon="3.84578">
        <ele>59</ele>
        <time>2021-03-06T12:46:13Z</time>
      </trkpt>
      <trkpt lat="43.62239" lon="3.84576">
        <ele>59</ele>
        <time>2021-03-06T12:46:14Z</time>
      </trkpt>
      <trkpt lat="43.6224" lon="3.84573">
        <ele>59</ele>
        <time>2021-03-06T12:46:15Z</time>
      </trkpt>
      <trkpt lat="43.62243" lon="3.84567">
        <ele>55</ele>
        <time>2021-03-06T12:46:16Z</time>
      </trkpt>
      <trkpt lat="43.62245" lon="3.84563">
        <ele>55</ele>
        <time>2021-03-06T12:46:18Z</time>
      </trkpt>
      <trkpt lat="43.62246" lon="3.8456">
        <ele>55</ele>
        <time>2021-03-06T12:46:19Z</time>
      </trkpt>
      <trkpt lat="43.62248" lon="3.84556">
        <ele>55</ele>
        <time>2021-03-06T12:46:20Z</time>
      </trkpt>
      <trkpt lat="43.6225" lon="3.84552">
        <ele>55</ele>
        <time>2021-03-06T12:46:21Z</time>
      </trkpt>
      <trkpt lat="43.62254" lon="3.84545">
        <ele>55</ele>
        <time>2021-03-06T12:46:22Z</time>
      </trkpt>
      <trkpt lat="43.62255" lon="3.84541">
        <ele>55</ele>
        <time>2021-03-06T12:46:23Z</time>
      </trkpt>
      <trkpt lat="43.62255" lon="3.84537">
        <ele>55</ele>
        <time>2021-03-06T12:46:24Z</time>
      </trkpt>
      <trkpt lat="43.62255" lon="3.84532">
        <ele>55</ele>
        <time>2021-03-06T12:46:25Z</time>
      </trkpt>
      <trkpt lat="43.62257" lon="3.84529">
        <ele>54</ele>
        <time>2021-03-06T12:46:26Z</time>
      </trkpt>
      <trkpt lat="43.62258" lon="3.84526">
        <ele>54</ele>
        <time>2021-03-06T12:46:27Z</time>
      </trkpt>
      <trkpt lat="43.62261" lon="3.84523">
        <ele>54</ele>
        <time>2021-03-06T12:46:28Z</time>
      </trkpt>
      <trkpt lat="43.62262" lon="3.8452">
        <ele>54</ele>
        <time>2021-03-06T12:46:29Z</time>
      </trkpt>
      <trkpt lat="43.62264" lon="3.84517">
        <ele>54</ele>
        <time>2021-03-06T12:46:30Z</time>
      </trkpt>
      <trkpt lat="43.62265" lon="3.84513">
        <ele>54</ele>
        <time>2021-03-06T12:46:31Z</time>
      </trkpt>
      <trkpt lat="43.62266" lon="3.8451">
        <ele>54</ele>
        <time>2021-03-06T12:46:32Z</time>
      </trkpt>
      <trkpt lat="43.62268" lon="3.84506">
        <ele>54</ele>
        <time>2021-03-06T12:46:33Z</time>
      </trkpt>
      <trkpt lat="43.6227" lon="3.84503">
        <ele>54</ele>
        <time>2021-03-06T12:46:34Z</time>
      </trkpt>
      <trkpt lat="43.62272" lon="3.845">
        <ele>54</ele>
        <time>2021-03-06T12:46:35Z</time>
      </trkpt>
      <trkpt lat="43.62274" lon="3.84496">
        <ele>57</ele>
        <time>2021-03-06T12:46:36Z</time>
      </trkpt>
      <trkpt lat="43.62276" lon="3.84493">
        <ele>57</ele>
        <time>2021-03-06T12:46:37Z</time>
      </trkpt>
      <trkpt lat="43.62277" lon="3.8449">
        <ele>57</ele>
        <time>2021-03-06T12:46:38Z</time>
      </trkpt>
      <trkpt lat="43.62279" lon="3.84487">
        <ele>57</ele>
        <time>2021-03-06T12:46:39Z</time>
      </trkpt>
      <trkpt lat="43.62281" lon="3.84483">
        <ele>57</ele>
        <time>2021-03-06T12:46:40Z</time>
      </trkpt>
      <trkpt lat="43.62283" lon="3.8448">
        <ele>57</ele>
        <time>2021-03-06T12:46:41Z</time>
      </trkpt>
      <trkpt lat="43.62285" lon="3.84476">
        <ele>57</ele>
        <time>2021-03-06T12:46:42Z</time>
      </trkpt>
      <trkpt lat="43.62287" lon="3.84472">
        <ele>57</ele>
        <time>2021-03-06T12:46:43Z</time>
      </trkpt>
      <trkpt lat="43.6229" lon="3.84464">
        <ele>57</ele>
        <time>2021-03-06T12:46:45Z</time>
      </trkpt>
      <trkpt lat="43.62293" lon="3.84456">
        <ele>57</ele>
        <time>2021-03-06T12:46:47Z</time>
      </trkpt>
      <trkpt lat="43.62295" lon="3.84452">
        <ele>57</ele>
        <time>2021-03-06T12:46:48Z</time>
      </trkpt>
      <trkpt lat="43.62296" lon="3.84448">
        <ele>57</ele>
        <time>2021-03-06T12:46:49Z</time>
      </trkpt>
      <trkpt lat="43.62298" lon="3.84445">
        <ele>57</ele>
        <time>2021-03-06T12:46:50Z</time>
      </trkpt>
      <trkpt lat="43.623" lon="3.84442">
        <ele>57</ele>
        <time>2021-03-06T12:46:52Z</time>
      </trkpt>
      <trkpt lat="43.62302" lon="3.84439">
        <ele>57</ele>
        <time>2021-03-06T12:46:53Z</time>
      </trkpt>
      <trkpt lat="43.62304" lon="3.84435">
        <ele>57</ele>
        <time>2021-03-06T12:46:54Z</time>
      </trkpt>
      <trkpt lat="43.62306" lon="3.84432">
        <ele>57</ele>
        <time>2021-03-06T12:46:55Z</time>
      </trkpt>
      <trkpt lat="43.62309" lon="3.84428">
        <ele>60</ele>
        <time>2021-03-06T12:46:56Z</time>
      </trkpt>
      <trkpt lat="43.62312" lon="3.84423">
        <ele>60</ele>
        <time>2021-03-06T12:46:57Z</time>
      </trkpt>
      <trkpt lat="43.62315" lon="3.84419">
        <ele>60</ele>
        <time>2021-03-06T12:46:58Z</time>
      </trkpt>
      <trkpt lat="43.62317" lon="3.84415">
        <ele>60</ele>
        <time>2021-03-06T12:46:59Z</time>
      </trkpt>
      <trkpt lat="43.6232" lon="3.84412">
        <ele>60</ele>
        <time>2021-03-06T12:47:00Z</time>
      </trkpt>
      <trkpt lat="43.62322" lon="3.84409">
        <ele>60</ele>
        <time>2021-03-06T12:47:01Z</time>
      </trkpt>
      <trkpt lat="43.62324" lon="3.84406">
        <ele>60</ele>
        <time>2021-03-06T12:47:02Z</time>
      </trkpt>
      <trkpt lat="43.62326" lon="3.84403">
        <ele>60</ele>
        <time>2021-03-06T12:47:03Z</time>
      </trkpt>
      <trkpt lat="43.62329" lon="3.84397">
        <ele>60</ele>
        <time>2021-03-06T12:47:04Z</time>
      </trkpt>
      <trkpt lat="43.62331" lon="3.84395">
        <ele>60</ele>
        <time>2021-03-06T12:47:05Z</time>
      </trkpt>
      <trkpt lat="43.62334" lon="3.84392">
        <ele>59</ele>
        <time>2021-03-06T12:47:06Z</time>
      </trkpt>
      <trkpt lat="43.62336" lon="3.8439">
        <ele>59</ele>
        <time>2021-03-06T12:47:07Z</time>
      </trkpt>
      <trkpt lat="43.62338" lon="3.84387">
        <ele>59</ele>
        <time>2021-03-06T12:47:09Z</time>
      </trkpt>
      <trkpt lat="43.6234" lon="3.84384">
        <ele>59</ele>
        <time>2021-03-06T12:47:10Z</time>
      </trkpt>
      <trkpt lat="43.62342" lon="3.84381">
        <ele>59</ele>
        <time>2021-03-06T12:47:11Z</time>
      </trkpt>
      <trkpt lat="43.62343" lon="3.84378">
        <ele>59</ele>
        <time>2021-03-06T12:47:12Z</time>
      </trkpt>
      <trkpt lat="43.62345" lon="3.84376">
        <ele>59</ele>
        <time>2021-03-06T12:47:13Z</time>
      </trkpt>
      <trkpt lat="43.62348" lon="3.84373">
        <ele>59</ele>
        <time>2021-03-06T12:47:14Z</time>
      </trkpt>
      <trkpt lat="43.6235" lon="3.8437">
        <ele>59</ele>
        <time>2021-03-06T12:47:15Z</time>
      </trkpt>
      <trkpt lat="43.62352" lon="3.84368">
        <ele>59</ele>
        <time>2021-03-06T12:47:16Z</time>
      </trkpt>
      <trkpt lat="43.62353" lon="3.84365">
        <ele>59</ele>
        <time>2021-03-06T12:47:17Z</time>
      </trkpt>
      <trkpt lat="43.62355" lon="3.84361">
        <ele>59</ele>
        <time>2021-03-06T12:47:18Z</time>
      </trkpt>
      <trkpt lat="43.62356" lon="3.84358">
        <ele>59</ele>
        <time>2021-03-06T12:47:19Z</time>
      </trkpt>
      <trkpt lat="43.62357" lon="3.84355">
        <ele>59</ele>
        <time>2021-03-06T12:47:20Z</time>
      </trkpt>
      <trkpt lat="43.62358" lon="3.84352">
        <ele>59</ele>
        <time>2021-03-06T12:47:21Z</time>
      </trkpt>
      <trkpt lat="43.62359" lon="3.84348">
        <ele>59</ele>
        <time>2021-03-06T12:47:22Z</time>
      </trkpt>
      <trkpt lat="43.62359" lon="3.84344">
        <ele>59</ele>
        <time>2021-03-06T12:47:23Z</time>
      </trkpt>
      <trkpt lat="43.62358" lon="3.8434">
        <ele>59</ele>
        <time>2021-03-06T12:47:24Z</time>
      </trkpt>
      <trkpt lat="43.62358" lon="3.84336">
        <ele>59</ele>
        <time>2021-03-06T12:47:25Z</time>
      </trkpt>
      <trkpt lat="43.62357" lon="3.84333">
        <ele>58</ele>
        <time>2021-03-06T12:47:26Z</time>
      </trkpt>
      <trkpt lat="43.62357" lon="3.84326">
        <ele>58</ele>
        <time>2021-03-06T12:47:27Z</time>
      </trkpt>
      <trkpt lat="43.62357" lon="3.84323">
        <ele>58</ele>
        <time>2021-03-06T12:47:28Z</time>
      </trkpt>
      <trkpt lat="43.62359" lon="3.8432">
        <ele>58</ele>
        <time>2021-03-06T12:47:29Z</time>
      </trkpt>
      <trkpt lat="43.62361" lon="3.84317">
        <ele>58</ele>
        <time>2021-03-06T12:47:30Z</time>
      </trkpt>
      <trkpt lat="43.62362" lon="3.84314">
        <ele>58</ele>
        <time>2021-03-06T12:47:32Z</time>
      </trkpt>
      <trkpt lat="43.62364" lon="3.84311">
        <ele>58</ele>
        <time>2021-03-06T12:47:33Z</time>
      </trkpt>
      <trkpt lat="43.62365" lon="3.84309">
        <ele>58</ele>
        <time>2021-03-06T12:47:34Z</time>
      </trkpt>
      <trkpt lat="43.62367" lon="3.84306">
        <ele>58</ele>
        <time>2021-03-06T12:47:35Z</time>
      </trkpt>
      <trkpt lat="43.62371" lon="3.84301">
        <ele>58</ele>
        <time>2021-03-06T12:47:36Z</time>
      </trkpt>
      <trkpt lat="43.62374" lon="3.843">
        <ele>58</ele>
        <time>2021-03-06T12:47:37Z</time>
      </trkpt>
      <trkpt lat="43.62377" lon="3.84298">
        <ele>58</ele>
        <time>2021-03-06T12:47:38Z</time>
      </trkpt>
      <trkpt lat="43.62379" lon="3.84295">
        <ele>58</ele>
        <time>2021-03-06T12:47:39Z</time>
      </trkpt>
      <trkpt lat="43.62381" lon="3.84292">
        <ele>58</ele>
        <time>2021-03-06T12:47:40Z</time>
      </trkpt>
      <trkpt lat="43.62384" lon="3.84289">
        <ele>58</ele>
        <time>2021-03-06T12:47:41Z</time>
      </trkpt>
      <trkpt lat="43.62387" lon="3.84286">
        <ele>58</ele>
        <time>2021-03-06T12:47:42Z</time>
      </trkpt>
      <trkpt lat="43.62389" lon="3.84282">
        <ele>58</ele>
        <time>2021-03-06T12:47:43Z</time>
      </trkpt>
      <trkpt lat="43.62391" lon="3.84277">
        <ele>58</ele>
        <time>2021-03-06T12:47:44Z</time>
      </trkpt>
      <trkpt lat="43.62393" lon="3.84271">
        <ele>58</ele>
        <time>2021-03-06T12:47:45Z</time>
      </trkpt>
      <trkpt lat="43.62393" lon="3.84263">
        <ele>58</ele>
        <time>2021-03-06T12:47:47Z</time>
      </trkpt>
      <trkpt lat="43.62393" lon="3.84252">
        <ele>58</ele>
        <time>2021-03-06T12:47:48Z</time>
      </trkpt>
      <trkpt lat="43.62393" lon="3.84242">
        <ele>58</ele>
        <time>2021-03-06T12:47:49Z</time>
      </trkpt>
      <trkpt lat="43.62391" lon="3.8423">
        <ele>58</ele>
        <time>2021-03-06T12:47:51Z</time>
      </trkpt>
      <trkpt lat="43.62393" lon="3.84227">
        <ele>58</ele>
        <time>2021-03-06T12:47:52Z</time>
      </trkpt>
      <trkpt lat="43.62396" lon="3.84224">
        <ele>58</ele>
        <time>2021-03-06T12:47:55Z</time>
      </trkpt>
      <trkpt lat="43.62397" lon="3.84222">
        <ele>58</ele>
        <time>2021-03-06T12:47:57Z</time>
      </trkpt>
      <trkpt lat="43.62395" lon="3.84218">
        <ele>58</ele>
        <time>2021-03-06T12:48:00Z</time>
      </trkpt>
      <trkpt lat="43.62396" lon="3.84214">
        <ele>58</ele>
        <time>2021-03-06T12:48:02Z</time>
      </trkpt>
      <trkpt lat="43.62396" lon="3.84211">
        <ele>58</ele>
        <time>2021-03-06T12:48:03Z</time>
      </trkpt>
      <trkpt lat="43.62395" lon="3.84207">
        <ele>58</ele>
        <time>2021-03-06T12:48:04Z</time>
      </trkpt>
      <trkpt lat="43.62395" lon="3.84205">
        <ele>58</ele>
        <time>2021-03-06T12:48:05Z</time>
      </trkpt>
      <trkpt lat="43.62394" lon="3.84202">
        <ele>58</ele>
        <time>2021-03-06T12:48:08Z</time>
      </trkpt>
      <trkpt lat="43.62394" lon="3.84199">
        <ele>58</ele>
        <time>2021-03-06T12:48:10Z</time>
      </trkpt>
      <trkpt lat="43.62394" lon="3.84196">
        <ele>58</ele>
        <time>2021-03-06T12:48:12Z</time>
      </trkpt>
      <trkpt lat="43.62394" lon="3.84193">
        <ele>58</ele>
        <time>2021-03-06T12:48:14Z</time>
      </trkpt>
      <trkpt lat="43.62393" lon="3.8419">
        <ele>58</ele>
        <time>2021-03-06T12:48:15Z</time>
      </trkpt>
      <trkpt lat="43.62392" lon="3.84187">
        <ele>63</ele>
        <time>2021-03-06T12:48:16Z</time>
      </trkpt>
      <trkpt lat="43.62391" lon="3.84184">
        <ele>63</ele>
        <time>2021-03-06T12:48:17Z</time>
      </trkpt>
      <trkpt lat="43.62391" lon="3.84177">
        <ele>63</ele>
        <time>2021-03-06T12:48:18Z</time>
      </trkpt>
      <trkpt lat="43.62392" lon="3.84174">
        <ele>63</ele>
        <time>2021-03-06T12:48:19Z</time>
      </trkpt>
      <trkpt lat="43.62393" lon="3.8417">
        <ele>63</ele>
        <time>2021-03-06T12:48:21Z</time>
      </trkpt>
      <trkpt lat="43.62394" lon="3.84168">
        <ele>63</ele>
        <time>2021-03-06T12:48:22Z</time>
      </trkpt>
      <trkpt lat="43.62395" lon="3.84165">
        <ele>63</ele>
        <time>2021-03-06T12:48:23Z</time>
      </trkpt>
      <trkpt lat="43.62395" lon="3.84162">
        <ele>63</ele>
        <time>2021-03-06T12:48:24Z</time>
      </trkpt>
      <trkpt lat="43.62396" lon="3.84159">
        <ele>63</ele>
        <time>2021-03-06T12:48:25Z</time>
      </trkpt>
      <trkpt lat="43.62395" lon="3.84153">
        <ele>63</ele>
        <time>2021-03-06T12:48:27Z</time>
      </trkpt>
      <trkpt lat="43.62395" lon="3.84151">
        <ele>63</ele>
        <time>2021-03-06T12:48:28Z</time>
      </trkpt>
      <trkpt lat="43.62394" lon="3.84147">
        <ele>63</ele>
        <time>2021-03-06T12:48:31Z</time>
      </trkpt>
      <trkpt lat="43.62396" lon="3.84144">
        <ele>63</ele>
        <time>2021-03-06T12:48:32Z</time>
      </trkpt>
      <trkpt lat="43.62401" lon="3.84142">
        <ele>63</ele>
        <time>2021-03-06T12:48:35Z</time>
      </trkpt>
      <trkpt lat="43.62403" lon="3.84141">
        <ele>65</ele>
        <time>2021-03-06T12:48:36Z</time>
      </trkpt>
      <trkpt lat="43.62405" lon="3.8414">
        <ele>65</ele>
        <time>2021-03-06T12:48:37Z</time>
      </trkpt>
      <trkpt lat="43.62408" lon="3.8414">
        <ele>65</ele>
        <time>2021-03-06T12:48:38Z</time>
      </trkpt>
      <trkpt lat="43.62411" lon="3.84139">
        <ele>65</ele>
        <time>2021-03-06T12:48:39Z</time>
      </trkpt>
      <trkpt lat="43.62413" lon="3.84138">
        <ele>65</ele>
        <time>2021-03-06T12:48:40Z</time>
      </trkpt>
      <trkpt lat="43.62416" lon="3.84138">
        <ele>65</ele>
        <time>2021-03-06T12:48:41Z</time>
      </trkpt>
      <trkpt lat="43.62418" lon="3.84137">
        <ele>65</ele>
        <time>2021-03-06T12:48:42Z</time>
      </trkpt>
      <trkpt lat="43.62421" lon="3.84137">
        <ele>65</ele>
        <time>2021-03-06T12:48:43Z</time>
      </trkpt>
      <trkpt lat="43.62423" lon="3.84136">
        <ele>65</ele>
        <time>2021-03-06T12:48:44Z</time>
      </trkpt>
      <trkpt lat="43.62425" lon="3.84134">
        <ele>65</ele>
        <time>2021-03-06T12:48:45Z</time>
      </trkpt>
      <trkpt lat="43.62428" lon="3.84133">
        <ele>65</ele>
        <time>2021-03-06T12:48:46Z</time>
      </trkpt>
      <trkpt lat="43.62432" lon="3.84132">
        <ele>65</ele>
        <time>2021-03-06T12:48:48Z</time>
      </trkpt>
      <trkpt lat="43.62434" lon="3.84131">
        <ele>65</ele>
        <time>2021-03-06T12:48:49Z</time>
      </trkpt>
      <trkpt lat="43.62436" lon="3.8413">
        <ele>65</ele>
        <time>2021-03-06T12:48:50Z</time>
      </trkpt>
      <trkpt lat="43.62438" lon="3.84129">
        <ele>65</ele>
        <time>2021-03-06T12:48:52Z</time>
      </trkpt>
      <trkpt lat="43.6244" lon="3.84128">
        <ele>65</ele>
        <time>2021-03-06T12:48:53Z</time>
      </trkpt>
      <trkpt lat="43.62442" lon="3.84128">
        <ele>65</ele>
        <time>2021-03-06T12:48:54Z</time>
      </trkpt>
      <trkpt lat="43.62444" lon="3.84127">
        <ele>65</ele>
        <time>2021-03-06T12:48:55Z</time>
      </trkpt>
      <trkpt lat="43.62446" lon="3.84126">
        <ele>66</ele>
        <time>2021-03-06T12:48:56Z</time>
      </trkpt>
      <trkpt lat="43.62448" lon="3.84126">
        <ele>66</ele>
        <time>2021-03-06T12:48:57Z</time>
      </trkpt>
      <trkpt lat="43.6245" lon="3.84126">
        <ele>66</ele>
        <time>2021-03-06T12:48:58Z</time>
      </trkpt>
      <trkpt lat="43.62452" lon="3.84125">
        <ele>66</ele>
        <time>2021-03-06T12:48:59Z</time>
      </trkpt>
      <trkpt lat="43.62454" lon="3.84125">
        <ele>66</ele>
        <time>2021-03-06T12:49:00Z</time>
      </trkpt>
      <trkpt lat="43.62456" lon="3.84124">
        <ele>66</ele>
        <time>2021-03-06T12:49:01Z</time>
      </trkpt>
      <trkpt lat="43.62458" lon="3.84122">
        <ele>66</ele>
        <time>2021-03-06T12:49:02Z</time>
      </trkpt>
      <trkpt lat="43.6246" lon="3.84121">
        <ele>66</ele>
        <time>2021-03-06T12:49:03Z</time>
      </trkpt>
      <trkpt lat="43.62463" lon="3.84119">
        <ele>66</ele>
        <time>2021-03-06T12:49:04Z</time>
      </trkpt>
      <trkpt lat="43.62467" lon="3.84116">
        <ele>66</ele>
        <time>2021-03-06T12:49:05Z</time>
      </trkpt>
      <trkpt lat="43.62469" lon="3.84113">
        <ele>64</ele>
        <time>2021-03-06T12:49:06Z</time>
      </trkpt>
      <trkpt lat="43.6247" lon="3.8411">
        <ele>64</ele>
        <time>2021-03-06T12:49:07Z</time>
      </trkpt>
      <trkpt lat="43.62472" lon="3.84107">
        <ele>64</ele>
        <time>2021-03-06T12:49:08Z</time>
      </trkpt>
      <trkpt lat="43.62473" lon="3.84105">
        <ele>64</ele>
        <time>2021-03-06T12:49:10Z</time>
      </trkpt>
      <trkpt lat="43.62475" lon="3.84102">
        <ele>64</ele>
        <time>2021-03-06T12:49:11Z</time>
      </trkpt>
      <trkpt lat="43.62477" lon="3.84098">
        <ele>64</ele>
        <time>2021-03-06T12:49:12Z</time>
      </trkpt>
      <trkpt lat="43.62479" lon="3.84095">
        <ele>64</ele>
        <time>2021-03-06T12:49:13Z</time>
      </trkpt>
      <trkpt lat="43.6248" lon="3.84092">
        <ele>64</ele>
        <time>2021-03-06T12:49:15Z</time>
      </trkpt>
      <trkpt lat="43.62482" lon="3.84089">
        <ele>64</ele>
        <time>2021-03-06T12:49:16Z</time>
      </trkpt>
      <trkpt lat="43.62483" lon="3.84086">
        <ele>64</ele>
        <time>2021-03-06T12:49:17Z</time>
      </trkpt>
      <trkpt lat="43.62484" lon="3.84083">
        <ele>64</ele>
        <time>2021-03-06T12:49:18Z</time>
      </trkpt>
      <trkpt lat="43.62485" lon="3.8408">
        <ele>64</ele>
        <time>2021-03-06T12:49:19Z</time>
      </trkpt>
      <trkpt lat="43.62486" lon="3.84077">
        <ele>64</ele>
        <time>2021-03-06T12:49:20Z</time>
      </trkpt>
      <trkpt lat="43.62487" lon="3.84074">
        <ele>64</ele>
        <time>2021-03-06T12:49:21Z</time>
      </trkpt>
      <trkpt lat="43.62489" lon="3.84071">
        <ele>64</ele>
        <time>2021-03-06T12:49:22Z</time>
      </trkpt>
      <trkpt lat="43.6249" lon="3.84068">
        <ele>64</ele>
        <time>2021-03-06T12:49:23Z</time>
      </trkpt>
      <trkpt lat="43.62491" lon="3.84065">
        <ele>64</ele>
        <time>2021-03-06T12:49:24Z</time>
      </trkpt>
      <trkpt lat="43.62493" lon="3.84063">
        <ele>64</ele>
        <time>2021-03-06T12:49:25Z</time>
      </trkpt>
      <trkpt lat="43.62495" lon="3.84057">
        <ele>65</ele>
        <time>2021-03-06T12:49:26Z</time>
      </trkpt>
      <trkpt lat="43.62496" lon="3.84054">
        <ele>65</ele>
        <time>2021-03-06T12:49:27Z</time>
      </trkpt>
      <trkpt lat="43.62497" lon="3.84051">
        <ele>65</ele>
        <time>2021-03-06T12:49:28Z</time>
      </trkpt>
      <trkpt lat="43.62498" lon="3.84048">
        <ele>65</ele>
        <time>2021-03-06T12:49:29Z</time>
      </trkpt>
      <trkpt lat="43.62499" lon="3.84045">
        <ele>65</ele>
        <time>2021-03-06T12:49:30Z</time>
      </trkpt>
      <trkpt lat="43.62499" lon="3.84041">
        <ele>65</ele>
        <time>2021-03-06T12:49:31Z</time>
      </trkpt>
      <trkpt lat="43.62501" lon="3.84038">
        <ele>65</ele>
        <time>2021-03-06T12:49:32Z</time>
      </trkpt>
      <trkpt lat="43.62502" lon="3.84035">
        <ele>65</ele>
        <time>2021-03-06T12:49:33Z</time>
      </trkpt>
      <trkpt lat="43.62503" lon="3.84032">
        <ele>65</ele>
        <time>2021-03-06T12:49:34Z</time>
      </trkpt>
      <trkpt lat="43.62504" lon="3.84029">
        <ele>65</ele>
        <time>2021-03-06T12:49:35Z</time>
      </trkpt>
      <trkpt lat="43.62505" lon="3.84026">
        <ele>67</ele>
        <time>2021-03-06T12:49:36Z</time>
      </trkpt>
      <trkpt lat="43.62507" lon="3.84024">
        <ele>67</ele>
        <time>2021-03-06T12:49:37Z</time>
      </trkpt>
      <trkpt lat="43.62508" lon="3.84021">
        <ele>67</ele>
        <time>2021-03-06T12:49:38Z</time>
      </trkpt>
      <trkpt lat="43.62511" lon="3.84015">
        <ele>67</ele>
        <time>2021-03-06T12:49:40Z</time>
      </trkpt>
      <trkpt lat="43.62512" lon="3.84013">
        <ele>67</ele>
        <time>2021-03-06T12:49:41Z</time>
      </trkpt>
      <trkpt lat="43.62513" lon="3.8401">
        <ele>67</ele>
        <time>2021-03-06T12:49:42Z</time>
      </trkpt>
      <trkpt lat="43.62515" lon="3.84006">
        <ele>67</ele>
        <time>2021-03-06T12:49:44Z</time>
      </trkpt>
      <trkpt lat="43.62516" lon="3.84003">
        <ele>67</ele>
        <time>2021-03-06T12:49:45Z</time>
      </trkpt>
      <trkpt lat="43.62517" lon="3.84001">
        <ele>67</ele>
        <time>2021-03-06T12:49:46Z</time>
      </trkpt>
      <trkpt lat="43.62518" lon="3.83998">
        <ele>67</ele>
        <time>2021-03-06T12:49:47Z</time>
      </trkpt>
      <trkpt lat="43.62519" lon="3.83996">
        <ele>67</ele>
        <time>2021-03-06T12:49:49Z</time>
      </trkpt>
      <trkpt lat="43.62521" lon="3.83989">
        <ele>67</ele>
        <time>2021-03-06T12:49:51Z</time>
      </trkpt>
      <trkpt lat="43.62522" lon="3.83987">
        <ele>67</ele>
        <time>2021-03-06T12:49:52Z</time>
      </trkpt>
      <trkpt lat="43.62524" lon="3.83985">
        <ele>67</ele>
        <time>2021-03-06T12:49:53Z</time>
      </trkpt>
      <trkpt lat="43.62525" lon="3.83983">
        <ele>67</ele>
        <time>2021-03-06T12:49:54Z</time>
      </trkpt>
      <trkpt lat="43.62525" lon="3.83981">
        <ele>67</ele>
        <time>2021-03-06T12:49:55Z</time>
      </trkpt>
      <trkpt lat="43.62526" lon="3.83978">
        <ele>69</ele>
        <time>2021-03-06T12:49:56Z</time>
      </trkpt>
      <trkpt lat="43.62528" lon="3.83976">
        <ele>69</ele>
        <time>2021-03-06T12:49:57Z</time>
      </trkpt>
      <trkpt lat="43.62528" lon="3.83974">
        <ele>69</ele>
        <time>2021-03-06T12:49:58Z</time>
      </trkpt>
      <trkpt lat="43.6253" lon="3.83971">
        <ele>69</ele>
        <time>2021-03-06T12:49:59Z</time>
      </trkpt>
      <trkpt lat="43.62531" lon="3.83969">
        <ele>69</ele>
        <time>2021-03-06T12:50:00Z</time>
      </trkpt>
      <trkpt lat="43.62532" lon="3.83966">
        <ele>69</ele>
        <time>2021-03-06T12:50:01Z</time>
      </trkpt>
      <trkpt lat="43.62534" lon="3.83961">
        <ele>69</ele>
        <time>2021-03-06T12:50:03Z</time>
      </trkpt>
      <trkpt lat="43.62535" lon="3.83958">
        <ele>69</ele>
        <time>2021-03-06T12:50:04Z</time>
      </trkpt>
      <trkpt lat="43.62536" lon="3.83955">
        <ele>69</ele>
        <time>2021-03-06T12:50:05Z</time>
      </trkpt>
      <trkpt lat="43.62537" lon="3.83953">
        <ele>70</ele>
        <time>2021-03-06T12:50:06Z</time>
      </trkpt>
      <trkpt lat="43.62537" lon="3.8395">
        <ele>70</ele>
        <time>2021-03-06T12:50:07Z</time>
      </trkpt>
      <trkpt lat="43.62537" lon="3.83947">
        <ele>70</ele>
        <time>2021-03-06T12:50:08Z</time>
      </trkpt>
      <trkpt lat="43.62538" lon="3.83944">
        <ele>70</ele>
        <time>2021-03-06T12:50:09Z</time>
      </trkpt>
      <trkpt lat="43.62538" lon="3.83941">
        <ele>70</ele>
        <time>2021-03-06T12:50:10Z</time>
      </trkpt>
      <trkpt lat="43.62538" lon="3.83938">
        <ele>70</ele>
        <time>2021-03-06T12:50:11Z</time>
      </trkpt>
      <trkpt lat="43.62537" lon="3.83936">
        <ele>70</ele>
        <time>2021-03-06T12:50:12Z</time>
      </trkpt>
      <trkpt lat="43.62536" lon="3.83933">
        <ele>70</ele>
        <time>2021-03-06T12:50:13Z</time>
      </trkpt>
      <trkpt lat="43.62535" lon="3.8393">
        <ele>70</ele>
        <time>2021-03-06T12:50:14Z</time>
      </trkpt>
      <trkpt lat="43.62535" lon="3.83928">
        <ele>70</ele>
        <time>2021-03-06T12:50:15Z</time>
      </trkpt>
      <trkpt lat="43.62534" lon="3.83925">
        <ele>72</ele>
        <time>2021-03-06T12:50:16Z</time>
      </trkpt>
      <trkpt lat="43.62533" lon="3.83919">
        <ele>72</ele>
        <time>2021-03-06T12:50:18Z</time>
      </trkpt>
      <trkpt lat="43.62532" lon="3.83917">
        <ele>72</ele>
        <time>2021-03-06T12:50:19Z</time>
      </trkpt>
      <trkpt lat="43.62532" lon="3.83914">
        <ele>72</ele>
        <time>2021-03-06T12:50:20Z</time>
      </trkpt>
      <trkpt lat="43.62531" lon="3.83912">
        <ele>72</ele>
        <time>2021-03-06T12:50:21Z</time>
      </trkpt>
      <trkpt lat="43.62531" lon="3.83909">
        <ele>72</ele>
        <time>2021-03-06T12:50:23Z</time>
      </trkpt>
      <trkpt lat="43.6253" lon="3.83906">
        <ele>72</ele>
        <time>2021-03-06T12:50:24Z</time>
      </trkpt>
      <trkpt lat="43.6253" lon="3.83903">
        <ele>72</ele>
        <time>2021-03-06T12:50:25Z</time>
      </trkpt>
      <trkpt lat="43.6253" lon="3.839">
        <ele>73</ele>
        <time>2021-03-06T12:50:26Z</time>
      </trkpt>
      <trkpt lat="43.62529" lon="3.83896">
        <ele>73</ele>
        <time>2021-03-06T12:50:27Z</time>
      </trkpt>
      <trkpt lat="43.62529" lon="3.83893">
        <ele>73</ele>
        <time>2021-03-06T12:50:28Z</time>
      </trkpt>
      <trkpt lat="43.62528" lon="3.8389">
        <ele>73</ele>
        <time>2021-03-06T12:50:29Z</time>
      </trkpt>
      <trkpt lat="43.62527" lon="3.83888">
        <ele>73</ele>
        <time>2021-03-06T12:50:30Z</time>
      </trkpt>
      <trkpt lat="43.62525" lon="3.83885">
        <ele>73</ele>
        <time>2021-03-06T12:50:31Z</time>
      </trkpt>
      <trkpt lat="43.62525" lon="3.83882">
        <ele>73</ele>
        <time>2021-03-06T12:50:32Z</time>
      </trkpt>
      <trkpt lat="43.62524" lon="3.83879">
        <ele>73</ele>
        <time>2021-03-06T12:50:33Z</time>
      </trkpt>
      <trkpt lat="43.62524" lon="3.83876">
        <ele>73</ele>
        <time>2021-03-06T12:50:34Z</time>
      </trkpt>
      <trkpt lat="43.62523" lon="3.83869">
        <ele>73</ele>
        <time>2021-03-06T12:50:35Z</time>
      </trkpt>
      <trkpt lat="43.62522" lon="3.83866">
        <ele>72</ele>
        <time>2021-03-06T12:50:36Z</time>
      </trkpt>
      <trkpt lat="43.62522" lon="3.83863">
        <ele>72</ele>
        <time>2021-03-06T12:50:37Z</time>
      </trkpt>
      <trkpt lat="43.62521" lon="3.83861">
        <ele>72</ele>
        <time>2021-03-06T12:50:38Z</time>
      </trkpt>
      <trkpt lat="43.6252" lon="3.83855">
        <ele>72</ele>
        <time>2021-03-06T12:50:40Z</time>
      </trkpt>
      <trkpt lat="43.62519" lon="3.83852">
        <ele>72</ele>
        <time>2021-03-06T12:50:41Z</time>
      </trkpt>
      <trkpt lat="43.62519" lon="3.83849">
        <ele>72</ele>
        <time>2021-03-06T12:50:42Z</time>
      </trkpt>
      <trkpt lat="43.62517" lon="3.83844">
        <ele>72</ele>
        <time>2021-03-06T12:50:44Z</time>
      </trkpt>
      <trkpt lat="43.62515" lon="3.83841">
        <ele>72</ele>
        <time>2021-03-06T12:50:45Z</time>
      </trkpt>
      <trkpt lat="43.62514" lon="3.83839">
        <ele>72</ele>
        <time>2021-03-06T12:50:46Z</time>
      </trkpt>
      <trkpt lat="43.62512" lon="3.83837">
        <ele>72</ele>
        <time>2021-03-06T12:50:47Z</time>
      </trkpt>
      <trkpt lat="43.6251" lon="3.83835">
        <ele>72</ele>
        <time>2021-03-06T12:50:48Z</time>
      </trkpt>
      <trkpt lat="43.62508" lon="3.83833">
        <ele>72</ele>
        <time>2021-03-06T12:50:49Z</time>
      </trkpt>
      <trkpt lat="43.62506" lon="3.83831">
        <ele>72</ele>
        <time>2021-03-06T12:50:50Z</time>
      </trkpt>
      <trkpt lat="43.62504" lon="3.8383">
        <ele>72</ele>
        <time>2021-03-06T12:50:51Z</time>
      </trkpt>
      <trkpt lat="43.62502" lon="3.83828">
        <ele>72</ele>
        <time>2021-03-06T12:50:52Z</time>
      </trkpt>
      <trkpt lat="43.625" lon="3.83826">
        <ele>72</ele>
        <time>2021-03-06T12:50:53Z</time>
      </trkpt>
      <trkpt lat="43.62498" lon="3.83824">
        <ele>72</ele>
        <time>2021-03-06T12:50:54Z</time>
      </trkpt>
      <trkpt lat="43.62496" lon="3.83822">
        <ele>72</ele>
        <time>2021-03-06T12:50:55Z</time>
      </trkpt>
      <trkpt lat="43.62494" lon="3.8382">
        <ele>72</ele>
        <time>2021-03-06T12:50:56Z</time>
      </trkpt>
      <trkpt lat="43.62492" lon="3.83819">
        <ele>72</ele>
        <time>2021-03-06T12:50:57Z</time>
      </trkpt>
      <trkpt lat="43.6249" lon="3.83818">
        <ele>72</ele>
        <time>2021-03-06T12:50:59Z</time>
      </trkpt>
      <trkpt lat="43.62488" lon="3.83817">
        <ele>72</ele>
        <time>2021-03-06T12:51:00Z</time>
      </trkpt>
      <trkpt lat="43.62486" lon="3.83815">
        <ele>72</ele>
        <time>2021-03-06T12:51:01Z</time>
      </trkpt>
      <trkpt lat="43.62484" lon="3.83814">
        <ele>72</ele>
        <time>2021-03-06T12:51:02Z</time>
      </trkpt>
      <trkpt lat="43.62482" lon="3.83813">
        <ele>72</ele>
        <time>2021-03-06T12:51:03Z</time>
      </trkpt>
      <trkpt lat="43.6248" lon="3.83811">
        <ele>72</ele>
        <time>2021-03-06T12:51:04Z</time>
      </trkpt>
      <trkpt lat="43.62476" lon="3.83807">
        <ele>72</ele>
        <time>2021-03-06T12:51:05Z</time>
      </trkpt>
      <trkpt lat="43.62474" lon="3.83805">
        <ele>72</ele>
        <time>2021-03-06T12:51:07Z</time>
      </trkpt>
      <trkpt lat="43.62472" lon="3.83803">
        <ele>72</ele>
        <time>2021-03-06T12:51:08Z</time>
      </trkpt>
      <trkpt lat="43.62469" lon="3.83801">
        <ele>72</ele>
        <time>2021-03-06T12:51:09Z</time>
      </trkpt>
      <trkpt lat="43.62464" lon="3.83798">
        <ele>72</ele>
        <time>2021-03-06T12:51:10Z</time>
      </trkpt>
      <trkpt lat="43.62462" lon="3.83796">
        <ele>72</ele>
        <time>2021-03-06T12:51:12Z</time>
      </trkpt>
      <trkpt lat="43.6246" lon="3.83795">
        <ele>72</ele>
        <time>2021-03-06T12:51:13Z</time>
      </trkpt>
      <trkpt lat="43.62458" lon="3.83793">
        <ele>72</ele>
        <time>2021-03-06T12:51:14Z</time>
      </trkpt>
      <trkpt lat="43.62455" lon="3.83791">
        <ele>72</ele>
        <time>2021-03-06T12:51:15Z</time>
      </trkpt>
      <trkpt lat="43.62453" lon="3.83789">
        <ele>72</ele>
        <time>2021-03-06T12:51:16Z</time>
      </trkpt>
      <trkpt lat="43.62451" lon="3.83787">
        <ele>72</ele>
        <time>2021-03-06T12:51:17Z</time>
      </trkpt>
      <trkpt lat="43.62449" lon="3.83784">
        <ele>72</ele>
        <time>2021-03-06T12:51:18Z</time>
      </trkpt>
      <trkpt lat="43.62448" lon="3.83782">
        <ele>72</ele>
        <time>2021-03-06T12:51:19Z</time>
      </trkpt>
      <trkpt lat="43.62446" lon="3.83779">
        <ele>72</ele>
        <time>2021-03-06T12:51:20Z</time>
      </trkpt>
      <trkpt lat="43.62445" lon="3.83777">
        <ele>72</ele>
        <time>2021-03-06T12:51:21Z</time>
      </trkpt>
      <trkpt lat="43.62443" lon="3.83774">
        <ele>72</ele>
        <time>2021-03-06T12:51:22Z</time>
      </trkpt>
      <trkpt lat="43.62442" lon="3.83772">
        <ele>72</ele>
        <time>2021-03-06T12:51:23Z</time>
      </trkpt>
      <trkpt lat="43.62441" lon="3.83769">
        <ele>72</ele>
        <time>2021-03-06T12:51:24Z</time>
      </trkpt>
      <trkpt lat="43.62439" lon="3.83763">
        <ele>72</ele>
        <time>2021-03-06T12:51:25Z</time>
      </trkpt>
      <trkpt lat="43.62438" lon="3.8376">
        <ele>72</ele>
        <time>2021-03-06T12:51:26Z</time>
      </trkpt>
      <trkpt lat="43.62438" lon="3.83756">
        <ele>72</ele>
        <time>2021-03-06T12:51:27Z</time>
      </trkpt>
      <trkpt lat="43.62437" lon="3.83752">
        <ele>72</ele>
        <time>2021-03-06T12:51:28Z</time>
      </trkpt>
      <trkpt lat="43.62436" lon="3.83747">
        <ele>72</ele>
        <time>2021-03-06T12:51:29Z</time>
      </trkpt>
      <trkpt lat="43.62436" lon="3.83743">
        <ele>72</ele>
        <time>2021-03-06T12:51:30Z</time>
      </trkpt>
      <trkpt lat="43.62434" lon="3.83733">
        <ele>72</ele>
        <time>2021-03-06T12:51:32Z</time>
      </trkpt>
      <trkpt lat="43.62433" lon="3.83729">
        <ele>72</ele>
        <time>2021-03-06T12:51:33Z</time>
      </trkpt>
      <trkpt lat="43.62431" lon="3.83724">
        <ele>72</ele>
        <time>2021-03-06T12:51:34Z</time>
      </trkpt>
      <trkpt lat="43.62428" lon="3.83715">
        <ele>74</ele>
        <time>2021-03-06T12:51:36Z</time>
      </trkpt>
      <trkpt lat="43.62427" lon="3.83711">
        <ele>74</ele>
        <time>2021-03-06T12:51:37Z</time>
      </trkpt>
      <trkpt lat="43.62426" lon="3.83707">
        <ele>74</ele>
        <time>2021-03-06T12:51:38Z</time>
      </trkpt>
      <trkpt lat="43.62426" lon="3.83704">
        <ele>74</ele>
        <time>2021-03-06T12:51:40Z</time>
      </trkpt>
      <trkpt lat="43.62425" lon="3.83701">
        <ele>74</ele>
        <time>2021-03-06T12:51:41Z</time>
      </trkpt>
      <trkpt lat="43.62425" lon="3.83698">
        <ele>74</ele>
        <time>2021-03-06T12:51:44Z</time>
      </trkpt>
      <trkpt lat="43.62422" lon="3.83695">
        <ele>74</ele>
        <time>2021-03-06T12:51:46Z</time>
      </trkpt>
      <trkpt lat="43.6242" lon="3.83694">
        <ele>74</ele>
        <time>2021-03-06T12:51:47Z</time>
      </trkpt>
      <trkpt lat="43.62419" lon="3.83691">
        <ele>74</ele>
        <time>2021-03-06T12:51:48Z</time>
      </trkpt>
      <trkpt lat="43.62418" lon="3.83689">
        <ele>74</ele>
        <time>2021-03-06T12:51:49Z</time>
      </trkpt>
      <trkpt lat="43.62419" lon="3.83685">
        <ele>74</ele>
        <time>2021-03-06T12:51:50Z</time>
      </trkpt>
      <trkpt lat="43.62418" lon="3.83682">
        <ele>74</ele>
        <time>2021-03-06T12:51:51Z</time>
      </trkpt>
      <trkpt lat="43.62417" lon="3.83679">
        <ele>74</ele>
        <time>2021-03-06T12:51:52Z</time>
      </trkpt>
      <trkpt lat="43.62416" lon="3.83676">
        <ele>74</ele>
        <time>2021-03-06T12:51:53Z</time>
      </trkpt>
      <trkpt lat="43.62416" lon="3.83673">
        <ele>74</ele>
        <time>2021-03-06T12:51:54Z</time>
      </trkpt>
      <trkpt lat="43.62417" lon="3.8367">
        <ele>74</ele>
        <time>2021-03-06T12:51:55Z</time>
      </trkpt>
      <trkpt lat="43.62422" lon="3.83667">
        <ele>75</ele>
        <time>2021-03-06T12:51:56Z</time>
      </trkpt>
      <trkpt lat="43.62424" lon="3.83668">
        <ele>75</ele>
        <time>2021-03-06T12:51:58Z</time>
      </trkpt>
      <trkpt lat="43.62427" lon="3.83667">
        <ele>75</ele>
        <time>2021-03-06T12:51:59Z</time>
      </trkpt>
      <trkpt lat="43.62429" lon="3.83667">
        <ele>75</ele>
        <time>2021-03-06T12:52:00Z</time>
      </trkpt>
      <trkpt lat="43.62432" lon="3.83666">
        <ele>75</ele>
        <time>2021-03-06T12:52:01Z</time>
      </trkpt>
      <trkpt lat="43.62434" lon="3.83664">
        <ele>75</ele>
        <time>2021-03-06T12:52:02Z</time>
      </trkpt>
      <trkpt lat="43.62436" lon="3.83663">
        <ele>75</ele>
        <time>2021-03-06T12:52:03Z</time>
      </trkpt>
      <trkpt lat="43.62439" lon="3.83662">
        <ele>75</ele>
        <time>2021-03-06T12:52:04Z</time>
      </trkpt>
      <trkpt lat="43.62441" lon="3.83661">
        <ele>75</ele>
        <time>2021-03-06T12:52:05Z</time>
      </trkpt>
      <trkpt lat="43.62443" lon="3.8366">
        <ele>76</ele>
        <time>2021-03-06T12:52:06Z</time>
      </trkpt>
      <trkpt lat="43.62446" lon="3.83659">
        <ele>76</ele>
        <time>2021-03-06T12:52:07Z</time>
      </trkpt>
      <trkpt lat="43.62448" lon="3.83658">
        <ele>76</ele>
        <time>2021-03-06T12:52:08Z</time>
      </trkpt>
      <trkpt lat="43.6245" lon="3.83657">
        <ele>76</ele>
        <time>2021-03-06T12:52:09Z</time>
      </trkpt>
      <trkpt lat="43.62452" lon="3.83657">
        <ele>76</ele>
        <time>2021-03-06T12:52:10Z</time>
      </trkpt>
      <trkpt lat="43.62455" lon="3.83656">
        <ele>76</ele>
        <time>2021-03-06T12:52:11Z</time>
      </trkpt>
      <trkpt lat="43.62457" lon="3.83656">
        <ele>76</ele>
        <time>2021-03-06T12:52:12Z</time>
      </trkpt>
      <trkpt lat="43.62461" lon="3.83654">
        <ele>76</ele>
        <time>2021-03-06T12:52:13Z</time>
      </trkpt>
      <trkpt lat="43.62463" lon="3.83653">
        <ele>76</ele>
        <time>2021-03-06T12:52:14Z</time>
      </trkpt>
      <trkpt lat="43.62466" lon="3.83652">
        <ele>76</ele>
        <time>2021-03-06T12:52:15Z</time>
      </trkpt>
      <trkpt lat="43.62468" lon="3.83652">
        <ele>77</ele>
        <time>2021-03-06T12:52:16Z</time>
      </trkpt>
      <trkpt lat="43.6247" lon="3.83651">
        <ele>77</ele>
        <time>2021-03-06T12:52:17Z</time>
      </trkpt>
      <trkpt lat="43.62473" lon="3.8365">
        <ele>77</ele>
        <time>2021-03-06T12:52:18Z</time>
      </trkpt>
      <trkpt lat="43.62475" lon="3.83649">
        <ele>77</ele>
        <time>2021-03-06T12:52:19Z</time>
      </trkpt>
      <trkpt lat="43.62478" lon="3.83648">
        <ele>77</ele>
        <time>2021-03-06T12:52:20Z</time>
      </trkpt>
      <trkpt lat="43.62481" lon="3.83647">
        <ele>77</ele>
        <time>2021-03-06T12:52:21Z</time>
      </trkpt>
      <trkpt lat="43.62483" lon="3.83646">
        <ele>77</ele>
        <time>2021-03-06T12:52:22Z</time>
      </trkpt>
      <trkpt lat="43.62486" lon="3.83645">
        <ele>77</ele>
        <time>2021-03-06T12:52:23Z</time>
      </trkpt>
      <trkpt lat="43.62488" lon="3.83643">
        <ele>77</ele>
        <time>2021-03-06T12:52:24Z</time>
      </trkpt>
      <trkpt lat="43.6249" lon="3.8364">
        <ele>77</ele>
        <time>2021-03-06T12:52:25Z</time>
      </trkpt>
      <trkpt lat="43.62492" lon="3.83637">
        <ele>78</ele>
        <time>2021-03-06T12:52:26Z</time>
      </trkpt>
      <trkpt lat="43.62493" lon="3.83634">
        <ele>78</ele>
        <time>2021-03-06T12:52:27Z</time>
      </trkpt>
      <trkpt lat="43.62494" lon="3.8363">
        <ele>78</ele>
        <time>2021-03-06T12:52:28Z</time>
      </trkpt>
      <trkpt lat="43.62495" lon="3.83627">
        <ele>78</ele>
        <time>2021-03-06T12:52:29Z</time>
      </trkpt>
      <trkpt lat="43.62496" lon="3.83624">
        <ele>78</ele>
        <time>2021-03-06T12:52:30Z</time>
      </trkpt>
      <trkpt lat="43.62497" lon="3.83621">
        <ele>78</ele>
        <time>2021-03-06T12:52:31Z</time>
      </trkpt>
      <trkpt lat="43.62498" lon="3.83619">
        <ele>78</ele>
        <time>2021-03-06T12:52:32Z</time>
      </trkpt>
      <trkpt lat="43.625" lon="3.83615">
        <ele>78</ele>
        <time>2021-03-06T12:52:34Z</time>
      </trkpt>
      <trkpt lat="43.62502" lon="3.83612">
        <ele>78</ele>
        <time>2021-03-06T12:52:35Z</time>
      </trkpt>
      <trkpt lat="43.62505" lon="3.83609">
        <ele>78</ele>
        <time>2021-03-06T12:52:36Z</time>
      </trkpt>
      <trkpt lat="43.62511" lon="3.83605">
        <ele>78</ele>
        <time>2021-03-06T12:52:38Z</time>
      </trkpt>
      <trkpt lat="43.62514" lon="3.83604">
        <ele>78</ele>
        <time>2021-03-06T12:52:40Z</time>
      </trkpt>
      <trkpt lat="43.62518" lon="3.83604">
        <ele>78</ele>
        <time>2021-03-06T12:52:41Z</time>
      </trkpt>
      <trkpt lat="43.62521" lon="3.83603">
        <ele>78</ele>
        <time>2021-03-06T12:52:42Z</time>
      </trkpt>
      <trkpt lat="43.62525" lon="3.83604">
        <ele>78</ele>
        <time>2021-03-06T12:52:43Z</time>
      </trkpt>
      <trkpt lat="43.62528" lon="3.83605">
        <ele>78</ele>
        <time>2021-03-06T12:52:44Z</time>
      </trkpt>
      <trkpt lat="43.62531" lon="3.83606">
        <ele>78</ele>
        <time>2021-03-06T12:52:45Z</time>
      </trkpt>
      <trkpt lat="43.62534" lon="3.83608">
        <ele>78</ele>
        <time>2021-03-06T12:52:46Z</time>
      </trkpt>
      <trkpt lat="43.62536" lon="3.83611">
        <ele>78</ele>
        <time>2021-03-06T12:52:47Z</time>
      </trkpt>
      <trkpt lat="43.62539" lon="3.83613">
        <ele>78</ele>
        <time>2021-03-06T12:52:48Z</time>
      </trkpt>
      <trkpt lat="43.62544" lon="3.83617">
        <ele>78</ele>
        <time>2021-03-06T12:52:49Z</time>
      </trkpt>
      <trkpt lat="43.62547" lon="3.8362">
        <ele>78</ele>
        <time>2021-03-06T12:52:50Z</time>
      </trkpt>
      <trkpt lat="43.62549" lon="3.83621">
        <ele>78</ele>
        <time>2021-03-06T12:52:51Z</time>
      </trkpt>
      <trkpt lat="43.62552" lon="3.8362">
        <ele>78</ele>
        <time>2021-03-06T12:52:52Z</time>
      </trkpt>
      <trkpt lat="43.62555" lon="3.83619">
        <ele>78</ele>
        <time>2021-03-06T12:52:53Z</time>
      </trkpt>
      <trkpt lat="43.62558" lon="3.83618">
        <ele>78</ele>
        <time>2021-03-06T12:52:54Z</time>
      </trkpt>
      <trkpt lat="43.6256" lon="3.83617">
        <ele>78</ele>
        <time>2021-03-06T12:52:55Z</time>
      </trkpt>
      <trkpt lat="43.62563" lon="3.83616">
        <ele>78</ele>
        <time>2021-03-06T12:52:56Z</time>
      </trkpt>
      <trkpt lat="43.62566" lon="3.83615">
        <ele>78</ele>
        <time>2021-03-06T12:52:57Z</time>
      </trkpt>
      <trkpt lat="43.62569" lon="3.83614">
        <ele>78</ele>
        <time>2021-03-06T12:52:58Z</time>
      </trkpt>
      <trkpt lat="43.62571" lon="3.83613">
        <ele>78</ele>
        <time>2021-03-06T12:52:59Z</time>
      </trkpt>
      <trkpt lat="43.62574" lon="3.83611">
        <ele>78</ele>
        <time>2021-03-06T12:53:00Z</time>
      </trkpt>
      <trkpt lat="43.62575" lon="3.83609">
        <ele>78</ele>
        <time>2021-03-06T12:53:02Z</time>
      </trkpt>
      <trkpt lat="43.62576" lon="3.83605">
        <ele>78</ele>
        <time>2021-03-06T12:53:03Z</time>
      </trkpt>
      <trkpt lat="43.62575" lon="3.83602">
        <ele>78</ele>
        <time>2021-03-06T12:53:04Z</time>
      </trkpt>
      <trkpt lat="43.62573" lon="3.83596">
        <ele>78</ele>
        <time>2021-03-06T12:53:05Z</time>
      </trkpt>
      <trkpt lat="43.62572" lon="3.83593">
        <ele>77</ele>
        <time>2021-03-06T12:53:06Z</time>
      </trkpt>
      <trkpt lat="43.62572" lon="3.8359">
        <ele>77</ele>
        <time>2021-03-06T12:53:07Z</time>
      </trkpt>
      <trkpt lat="43.6257" lon="3.83587">
        <ele>77</ele>
        <time>2021-03-06T12:53:08Z</time>
      </trkpt>
      <trkpt lat="43.62568" lon="3.83585">
        <ele>77</ele>
        <time>2021-03-06T12:53:09Z</time>
      </trkpt>
      <trkpt lat="43.62565" lon="3.83582">
        <ele>77</ele>
        <time>2021-03-06T12:53:10Z</time>
      </trkpt>
      <trkpt lat="43.62562" lon="3.83579">
        <ele>77</ele>
        <time>2021-03-06T12:53:11Z</time>
      </trkpt>
      <trkpt lat="43.62556" lon="3.83572">
        <ele>77</ele>
        <time>2021-03-06T12:53:13Z</time>
      </trkpt>
      <trkpt lat="43.62553" lon="3.8357">
        <ele>77</ele>
        <time>2021-03-06T12:53:14Z</time>
      </trkpt>
      <trkpt lat="43.62551" lon="3.83567">
        <ele>77</ele>
        <time>2021-03-06T12:53:15Z</time>
      </trkpt>
      <trkpt lat="43.62548" lon="3.83565">
        <ele>76</ele>
        <time>2021-03-06T12:53:16Z</time>
      </trkpt>
      <trkpt lat="43.62545" lon="3.83563">
        <ele>76</ele>
        <time>2021-03-06T12:53:18Z</time>
      </trkpt>
      <trkpt lat="43.62542" lon="3.83561">
        <ele>76</ele>
        <time>2021-03-06T12:53:19Z</time>
      </trkpt>
      <trkpt lat="43.62539" lon="3.83558">
        <ele>76</ele>
        <time>2021-03-06T12:53:20Z</time>
      </trkpt>
      <trkpt lat="43.62537" lon="3.83554">
        <ele>76</ele>
        <time>2021-03-06T12:53:21Z</time>
      </trkpt>
      <trkpt lat="43.62535" lon="3.8355">
        <ele>76</ele>
        <time>2021-03-06T12:53:22Z</time>
      </trkpt>
      <trkpt lat="43.62533" lon="3.83546">
        <ele>76</ele>
        <time>2021-03-06T12:53:23Z</time>
      </trkpt>
      <trkpt lat="43.62532" lon="3.83541">
        <ele>76</ele>
        <time>2021-03-06T12:53:24Z</time>
      </trkpt>
      <trkpt lat="43.62531" lon="3.83536">
        <ele>76</ele>
        <time>2021-03-06T12:53:25Z</time>
      </trkpt>
      <trkpt lat="43.6253" lon="3.83531">
        <ele>75</ele>
        <time>2021-03-06T12:53:26Z</time>
      </trkpt>
      <trkpt lat="43.62529" lon="3.83527">
        <ele>75</ele>
        <time>2021-03-06T12:53:27Z</time>
      </trkpt>
      <trkpt lat="43.62528" lon="3.83523">
        <ele>75</ele>
        <time>2021-03-06T12:53:28Z</time>
      </trkpt>
      <trkpt lat="43.62526" lon="3.83519">
        <ele>75</ele>
        <time>2021-03-06T12:53:29Z</time>
      </trkpt>
      <trkpt lat="43.62524" lon="3.83515">
        <ele>75</ele>
        <time>2021-03-06T12:53:30Z</time>
      </trkpt>
      <trkpt lat="43.62523" lon="3.83511">
        <ele>75</ele>
        <time>2021-03-06T12:53:31Z</time>
      </trkpt>
      <trkpt lat="43.62521" lon="3.83507">
        <ele>75</ele>
        <time>2021-03-06T12:53:32Z</time>
      </trkpt>
      <trkpt lat="43.62519" lon="3.83503">
        <ele>75</ele>
        <time>2021-03-06T12:53:33Z</time>
      </trkpt>
      <trkpt lat="43.62518" lon="3.83499">
        <ele>75</ele>
        <time>2021-03-06T12:53:34Z</time>
      </trkpt>
      <trkpt lat="43.62516" lon="3.83495">
        <ele>75</ele>
        <time>2021-03-06T12:53:35Z</time>
      </trkpt>
      <trkpt lat="43.62514" lon="3.83491">
        <ele>77</ele>
        <time>2021-03-06T12:53:36Z</time>
      </trkpt>
      <trkpt lat="43.62512" lon="3.83487">
        <ele>77</ele>
        <time>2021-03-06T12:53:37Z</time>
      </trkpt>
      <trkpt lat="43.6251" lon="3.83483">
        <ele>77</ele>
        <time>2021-03-06T12:53:38Z</time>
      </trkpt>
      <trkpt lat="43.62508" lon="3.83478">
        <ele>77</ele>
        <time>2021-03-06T12:53:39Z</time>
      </trkpt>
      <trkpt lat="43.62507" lon="3.83473">
        <ele>77</ele>
        <time>2021-03-06T12:53:40Z</time>
      </trkpt>
      <trkpt lat="43.62505" lon="3.83468">
        <ele>77</ele>
        <time>2021-03-06T12:53:41Z</time>
      </trkpt>
      <trkpt lat="43.62504" lon="3.83462">
        <ele>77</ele>
        <time>2021-03-06T12:53:42Z</time>
      </trkpt>
      <trkpt lat="43.62504" lon="3.83456">
        <ele>77</ele>
        <time>2021-03-06T12:53:43Z</time>
      </trkpt>
      <trkpt lat="43.62506" lon="3.83451">
        <ele>77</ele>
        <time>2021-03-06T12:53:44Z</time>
      </trkpt>
      <trkpt lat="43.62507" lon="3.83445">
        <ele>77</ele>
        <time>2021-03-06T12:53:45Z</time>
      </trkpt>
      <trkpt lat="43.62509" lon="3.8344">
        <ele>77</ele>
        <time>2021-03-06T12:53:46Z</time>
      </trkpt>
      <trkpt lat="43.6251" lon="3.83434">
        <ele>77</ele>
        <time>2021-03-06T12:53:47Z</time>
      </trkpt>
      <trkpt lat="43.62512" lon="3.83428">
        <ele>77</ele>
        <time>2021-03-06T12:53:48Z</time>
      </trkpt>
      <trkpt lat="43.62514" lon="3.83423">
        <ele>77</ele>
        <time>2021-03-06T12:53:49Z</time>
      </trkpt>
      <trkpt lat="43.62515" lon="3.83417">
        <ele>77</ele>
        <time>2021-03-06T12:53:50Z</time>
      </trkpt>
      <trkpt lat="43.62516" lon="3.83411">
        <ele>77</ele>
        <time>2021-03-06T12:53:51Z</time>
      </trkpt>
      <trkpt lat="43.62517" lon="3.83404">
        <ele>77</ele>
        <time>2021-03-06T12:53:52Z</time>
      </trkpt>
      <trkpt lat="43.62518" lon="3.83397">
        <ele>77</ele>
        <time>2021-03-06T12:53:53Z</time>
      </trkpt>
      <trkpt lat="43.62519" lon="3.83391">
        <ele>77</ele>
        <time>2021-03-06T12:53:54Z</time>
      </trkpt>
      <trkpt lat="43.62523" lon="3.8338">
        <ele>77</ele>
        <time>2021-03-06T12:53:55Z</time>
      </trkpt>
      <trkpt lat="43.62525" lon="3.83376">
        <ele>78</ele>
        <time>2021-03-06T12:53:56Z</time>
      </trkpt>
      <trkpt lat="43.62526" lon="3.83371">
        <ele>78</ele>
        <time>2021-03-06T12:53:57Z</time>
      </trkpt>
      <trkpt lat="43.62528" lon="3.83366">
        <ele>78</ele>
        <time>2021-03-06T12:53:58Z</time>
      </trkpt>
      <trkpt lat="43.62529" lon="3.83362">
        <ele>78</ele>
        <time>2021-03-06T12:53:59Z</time>
      </trkpt>
      <trkpt lat="43.62531" lon="3.83357">
        <ele>78</ele>
        <time>2021-03-06T12:54:00Z</time>
      </trkpt>
      <trkpt lat="43.62533" lon="3.83353">
        <ele>78</ele>
        <time>2021-03-06T12:54:01Z</time>
      </trkpt>
      <trkpt lat="43.62534" lon="3.83348">
        <ele>78</ele>
        <time>2021-03-06T12:54:02Z</time>
      </trkpt>
      <trkpt lat="43.62535" lon="3.83344">
        <ele>78</ele>
        <time>2021-03-06T12:54:03Z</time>
      </trkpt>
      <trkpt lat="43.62537" lon="3.83339">
        <ele>78</ele>
        <time>2021-03-06T12:54:04Z</time>
      </trkpt>
      <trkpt lat="43.62538" lon="3.83334">
        <ele>78</ele>
        <time>2021-03-06T12:54:05Z</time>
      </trkpt>
      <trkpt lat="43.62539" lon="3.83329">
        <ele>80</ele>
        <time>2021-03-06T12:54:06Z</time>
      </trkpt>
      <trkpt lat="43.62541" lon="3.8332">
        <ele>80</ele>
        <time>2021-03-06T12:54:08Z</time>
      </trkpt>
      <trkpt lat="43.62542" lon="3.83316">
        <ele>80</ele>
        <time>2021-03-06T12:54:09Z</time>
      </trkpt>
      <trkpt lat="43.62543" lon="3.83311">
        <ele>80</ele>
        <time>2021-03-06T12:54:10Z</time>
      </trkpt>
      <trkpt lat="43.62544" lon="3.83307">
        <ele>80</ele>
        <time>2021-03-06T12:54:11Z</time>
      </trkpt>
      <trkpt lat="43.62545" lon="3.83302">
        <ele>80</ele>
        <time>2021-03-06T12:54:13Z</time>
      </trkpt>
      <trkpt lat="43.62546" lon="3.83297">
        <ele>80</ele>
        <time>2021-03-06T12:54:14Z</time>
      </trkpt>
      <trkpt lat="43.62547" lon="3.83293">
        <ele>80</ele>
        <time>2021-03-06T12:54:15Z</time>
      </trkpt>
      <trkpt lat="43.62547" lon="3.83288">
        <ele>80</ele>
        <time>2021-03-06T12:54:16Z</time>
      </trkpt>
      <trkpt lat="43.62548" lon="3.83283">
        <ele>80</ele>
        <time>2021-03-06T12:54:17Z</time>
      </trkpt>
      <trkpt lat="43.62549" lon="3.83279">
        <ele>80</ele>
        <time>2021-03-06T12:54:18Z</time>
      </trkpt>
      <trkpt lat="43.6255" lon="3.83275">
        <ele>80</ele>
        <time>2021-03-06T12:54:19Z</time>
      </trkpt>
      <trkpt lat="43.62551" lon="3.83271">
        <ele>80</ele>
        <time>2021-03-06T12:54:20Z</time>
      </trkpt>
      <trkpt lat="43.62553" lon="3.83268">
        <ele>80</ele>
        <time>2021-03-06T12:54:21Z</time>
      </trkpt>
      <trkpt lat="43.62555" lon="3.83264">
        <ele>80</ele>
        <time>2021-03-06T12:54:22Z</time>
      </trkpt>
      <trkpt lat="43.62557" lon="3.83261">
        <ele>80</ele>
        <time>2021-03-06T12:54:23Z</time>
      </trkpt>
      <trkpt lat="43.62559" lon="3.83258">
        <ele>80</ele>
        <time>2021-03-06T12:54:24Z</time>
      </trkpt>
      <trkpt lat="43.62561" lon="3.83257">
        <ele>80</ele>
        <time>2021-03-06T12:54:25Z</time>
      </trkpt>
      <trkpt lat="43.62564" lon="3.83256">
        <ele>80</ele>
        <time>2021-03-06T12:54:26Z</time>
      </trkpt>
      <trkpt lat="43.62567" lon="3.83255">
        <ele>80</ele>
        <time>2021-03-06T12:54:27Z</time>
      </trkpt>
      <trkpt lat="43.6257" lon="3.83253">
        <ele>80</ele>
        <time>2021-03-06T12:54:28Z</time>
      </trkpt>
      <trkpt lat="43.62573" lon="3.83251">
        <ele>80</ele>
        <time>2021-03-06T12:54:29Z</time>
      </trkpt>
      <trkpt lat="43.62575" lon="3.83249">
        <ele>80</ele>
        <time>2021-03-06T12:54:30Z</time>
      </trkpt>
      <trkpt lat="43.62577" lon="3.83245">
        <ele>80</ele>
        <time>2021-03-06T12:54:31Z</time>
      </trkpt>
      <trkpt lat="43.62579" lon="3.83242">
        <ele>80</ele>
        <time>2021-03-06T12:54:32Z</time>
      </trkpt>
      <trkpt lat="43.6258" lon="3.83238">
        <ele>80</ele>
        <time>2021-03-06T12:54:33Z</time>
      </trkpt>
      <trkpt lat="43.62582" lon="3.83234">
        <ele>80</ele>
        <time>2021-03-06T12:54:34Z</time>
      </trkpt>
      <trkpt lat="43.62585" lon="3.83231">
        <ele>80</ele>
        <time>2021-03-06T12:54:35Z</time>
      </trkpt>
      <trkpt lat="43.62587" lon="3.83228">
        <ele>80</ele>
        <time>2021-03-06T12:54:36Z</time>
      </trkpt>
      <trkpt lat="43.6259" lon="3.83226">
        <ele>80</ele>
        <time>2021-03-06T12:54:37Z</time>
      </trkpt>
      <trkpt lat="43.62593" lon="3.83224">
        <ele>80</ele>
        <time>2021-03-06T12:54:38Z</time>
      </trkpt>
      <trkpt lat="43.62596" lon="3.83222">
        <ele>80</ele>
        <time>2021-03-06T12:54:39Z</time>
      </trkpt>
      <trkpt lat="43.62598" lon="3.8322">
        <ele>80</ele>
        <time>2021-03-06T12:54:40Z</time>
      </trkpt>
      <trkpt lat="43.626" lon="3.83217">
        <ele>80</ele>
        <time>2021-03-06T12:54:41Z</time>
      </trkpt>
      <trkpt lat="43.62602" lon="3.83214">
        <ele>80</ele>
        <time>2021-03-06T12:54:42Z</time>
      </trkpt>
      <trkpt lat="43.62604" lon="3.83211">
        <ele>80</ele>
        <time>2021-03-06T12:54:43Z</time>
      </trkpt>
      <trkpt lat="43.62606" lon="3.83208">
        <ele>80</ele>
        <time>2021-03-06T12:54:44Z</time>
      </trkpt>
      <trkpt lat="43.62607" lon="3.83204">
        <ele>80</ele>
        <time>2021-03-06T12:54:45Z</time>
      </trkpt>
      <trkpt lat="43.62607" lon="3.83201">
        <ele>81</ele>
        <time>2021-03-06T12:54:46Z</time>
      </trkpt>
      <trkpt lat="43.62608" lon="3.83197">
        <ele>81</ele>
        <time>2021-03-06T12:54:47Z</time>
      </trkpt>
      <trkpt lat="43.62609" lon="3.83192">
        <ele>81</ele>
        <time>2021-03-06T12:54:48Z</time>
      </trkpt>
      <trkpt lat="43.62611" lon="3.83187">
        <ele>81</ele>
        <time>2021-03-06T12:54:49Z</time>
      </trkpt>
      <trkpt lat="43.62613" lon="3.83182">
        <ele>81</ele>
        <time>2021-03-06T12:54:50Z</time>
      </trkpt>
      <trkpt lat="43.62615" lon="3.83177">
        <ele>81</ele>
        <time>2021-03-06T12:54:51Z</time>
      </trkpt>
      <trkpt lat="43.62617" lon="3.83173">
        <ele>81</ele>
        <time>2021-03-06T12:54:52Z</time>
      </trkpt>
      <trkpt lat="43.62618" lon="3.83168">
        <ele>81</ele>
        <time>2021-03-06T12:54:53Z</time>
      </trkpt>
      <trkpt lat="43.62622" lon="3.83159">
        <ele>81</ele>
        <time>2021-03-06T12:54:54Z</time>
      </trkpt>
      <trkpt lat="43.62624" lon="3.83154">
        <ele>81</ele>
        <time>2021-03-06T12:54:55Z</time>
      </trkpt>
      <trkpt lat="43.62626" lon="3.8315">
        <ele>81</ele>
        <time>2021-03-06T12:54:56Z</time>
      </trkpt>
      <trkpt lat="43.62627" lon="3.83146">
        <ele>81</ele>
        <time>2021-03-06T12:54:57Z</time>
      </trkpt>
      <trkpt lat="43.62632" lon="3.83139">
        <ele>81</ele>
        <time>2021-03-06T12:54:59Z</time>
      </trkpt>
      <trkpt lat="43.62634" lon="3.83136">
        <ele>81</ele>
        <time>2021-03-06T12:55:00Z</time>
      </trkpt>
      <trkpt lat="43.62636" lon="3.83133">
        <ele>81</ele>
        <time>2021-03-06T12:55:01Z</time>
      </trkpt>
      <trkpt lat="43.62637" lon="3.83125">
        <ele>81</ele>
        <time>2021-03-06T12:55:03Z</time>
      </trkpt>
      <trkpt lat="43.62638" lon="3.83121">
        <ele>81</ele>
        <time>2021-03-06T12:55:04Z</time>
      </trkpt>
      <trkpt lat="43.62638" lon="3.83116">
        <ele>81</ele>
        <time>2021-03-06T12:55:05Z</time>
      </trkpt>
      <trkpt lat="43.62638" lon="3.8311">
        <ele>81</ele>
        <time>2021-03-06T12:55:06Z</time>
      </trkpt>
      <trkpt lat="43.62639" lon="3.83104">
        <ele>81</ele>
        <time>2021-03-06T12:55:08Z</time>
      </trkpt>
      <trkpt lat="43.62639" lon="3.83098">
        <ele>81</ele>
        <time>2021-03-06T12:55:09Z</time>
      </trkpt>
      <trkpt lat="43.62639" lon="3.83093">
        <ele>81</ele>
        <time>2021-03-06T12:55:10Z</time>
      </trkpt>
      <trkpt lat="43.6264" lon="3.83082">
        <ele>81</ele>
        <time>2021-03-06T12:55:11Z</time>
      </trkpt>
      <trkpt lat="43.62641" lon="3.83075">
        <ele>81</ele>
        <time>2021-03-06T12:55:12Z</time>
      </trkpt>
      <trkpt lat="43.62642" lon="3.83069">
        <ele>81</ele>
        <time>2021-03-06T12:55:13Z</time>
      </trkpt>
      <trkpt lat="43.62642" lon="3.83063">
        <ele>81</ele>
        <time>2021-03-06T12:55:14Z</time>
      </trkpt>
      <trkpt lat="43.62643" lon="3.83057">
        <ele>81</ele>
        <time>2021-03-06T12:55:15Z</time>
      </trkpt>
      <trkpt lat="43.62644" lon="3.83051">
        <ele>81</ele>
        <time>2021-03-06T12:55:16Z</time>
      </trkpt>
      <trkpt lat="43.62644" lon="3.83045">
        <ele>81</ele>
        <time>2021-03-06T12:55:17Z</time>
      </trkpt>
      <trkpt lat="43.62645" lon="3.83038">
        <ele>81</ele>
        <time>2021-03-06T12:55:18Z</time>
      </trkpt>
      <trkpt lat="43.62645" lon="3.83031">
        <ele>81</ele>
        <time>2021-03-06T12:55:19Z</time>
      </trkpt>
      <trkpt lat="43.62646" lon="3.83024">
        <ele>81</ele>
        <time>2021-03-06T12:55:20Z</time>
      </trkpt>
      <trkpt lat="43.62647" lon="3.83017">
        <ele>81</ele>
        <time>2021-03-06T12:55:21Z</time>
      </trkpt>
      <trkpt lat="43.6265" lon="3.83012">
        <ele>81</ele>
        <time>2021-03-06T12:55:22Z</time>
      </trkpt>
      <trkpt lat="43.62658" lon="3.8301">
        <ele>81</ele>
        <time>2021-03-06T12:55:24Z</time>
      </trkpt>
      <trkpt lat="43.6266" lon="3.83012">
        <ele>81</ele>
        <time>2021-03-06T12:55:25Z</time>
      </trkpt>
      <trkpt lat="43.62663" lon="3.83014">
        <ele>80</ele>
        <time>2021-03-06T12:55:26Z</time>
      </trkpt>
      <trkpt lat="43.62668" lon="3.83016">
        <ele>80</ele>
        <time>2021-03-06T12:55:28Z</time>
      </trkpt>
      <trkpt lat="43.6267" lon="3.83017">
        <ele>80</ele>
        <time>2021-03-06T12:55:29Z</time>
      </trkpt>
      <trkpt lat="43.62673" lon="3.83018">
        <ele>80</ele>
        <time>2021-03-06T12:55:30Z</time>
      </trkpt>
      <trkpt lat="43.62675" lon="3.83018">
        <ele>80</ele>
        <time>2021-03-06T12:55:32Z</time>
      </trkpt>
      <trkpt lat="43.62677" lon="3.83019">
        <ele>80</ele>
        <time>2021-03-06T12:55:33Z</time>
      </trkpt>
      <trkpt lat="43.6268" lon="3.83019">
        <ele>80</ele>
        <time>2021-03-06T12:55:34Z</time>
      </trkpt>
      <trkpt lat="43.62682" lon="3.83019">
        <ele>80</ele>
        <time>2021-03-06T12:55:35Z</time>
      </trkpt>
      <trkpt lat="43.62686" lon="3.83021">
        <ele>82</ele>
        <time>2021-03-06T12:55:36Z</time>
      </trkpt>
      <trkpt lat="43.62688" lon="3.83022">
        <ele>82</ele>
        <time>2021-03-06T12:55:37Z</time>
      </trkpt>
      <trkpt lat="43.62691" lon="3.83023">
        <ele>82</ele>
        <time>2021-03-06T12:55:38Z</time>
      </trkpt>
      <trkpt lat="43.62693" lon="3.83024">
        <ele>82</ele>
        <time>2021-03-06T12:55:39Z</time>
      </trkpt>
      <trkpt lat="43.62698" lon="3.83026">
        <ele>82</ele>
        <time>2021-03-06T12:55:41Z</time>
      </trkpt>
      <trkpt lat="43.627" lon="3.83027">
        <ele>82</ele>
        <time>2021-03-06T12:55:42Z</time>
      </trkpt>
      <trkpt lat="43.62703" lon="3.83028">
        <ele>82</ele>
        <time>2021-03-06T12:55:43Z</time>
      </trkpt>
      <trkpt lat="43.62708" lon="3.8303">
        <ele>82</ele>
        <time>2021-03-06T12:55:45Z</time>
      </trkpt>
      <trkpt lat="43.62711" lon="3.8303">
        <ele>83</ele>
        <time>2021-03-06T12:55:46Z</time>
      </trkpt>
      <trkpt lat="43.62716" lon="3.83032">
        <ele>83</ele>
        <time>2021-03-06T12:55:48Z</time>
      </trkpt>
      <trkpt lat="43.62719" lon="3.83033">
        <ele>83</ele>
        <time>2021-03-06T12:55:49Z</time>
      </trkpt>
      <trkpt lat="43.62721" lon="3.83034">
        <ele>83</ele>
        <time>2021-03-06T12:55:50Z</time>
      </trkpt>
      <trkpt lat="43.62724" lon="3.83035">
        <ele>83</ele>
        <time>2021-03-06T12:55:51Z</time>
      </trkpt>
      <trkpt lat="43.62726" lon="3.83036">
        <ele>83</ele>
        <time>2021-03-06T12:55:52Z</time>
      </trkpt>
      <trkpt lat="43.62731" lon="3.83039">
        <ele>83</ele>
        <time>2021-03-06T12:55:54Z</time>
      </trkpt>
      <trkpt lat="43.62733" lon="3.8304">
        <ele>83</ele>
        <time>2021-03-06T12:55:55Z</time>
      </trkpt>
      <trkpt lat="43.62735" lon="3.83041">
        <ele>84</ele>
        <time>2021-03-06T12:55:56Z</time>
      </trkpt>
      <trkpt lat="43.62739" lon="3.83045">
        <ele>84</ele>
        <time>2021-03-06T12:55:58Z</time>
      </trkpt>
      <trkpt lat="43.62741" lon="3.83046">
        <ele>84</ele>
        <time>2021-03-06T12:55:59Z</time>
      </trkpt>
      <trkpt lat="43.62743" lon="3.83048">
        <ele>84</ele>
        <time>2021-03-06T12:56:00Z</time>
      </trkpt>
      <trkpt lat="43.62746" lon="3.8305">
        <ele>84</ele>
        <time>2021-03-06T12:56:01Z</time>
      </trkpt>
      <trkpt lat="43.62748" lon="3.83051">
        <ele>84</ele>
        <time>2021-03-06T12:56:02Z</time>
      </trkpt>
      <trkpt lat="43.62752" lon="3.83054">
        <ele>84</ele>
        <time>2021-03-06T12:56:04Z</time>
      </trkpt>
      <trkpt lat="43.62754" lon="3.83056">
        <ele>84</ele>
        <time>2021-03-06T12:56:05Z</time>
      </trkpt>
      <trkpt lat="43.62756" lon="3.83058">
        <ele>84</ele>
        <time>2021-03-06T12:56:07Z</time>
      </trkpt>
      <trkpt lat="43.62758" lon="3.8306">
        <ele>84</ele>
        <time>2021-03-06T12:56:08Z</time>
      </trkpt>
      <trkpt lat="43.6276" lon="3.83063">
        <ele>84</ele>
        <time>2021-03-06T12:56:09Z</time>
      </trkpt>
      <trkpt lat="43.62761" lon="3.83065">
        <ele>84</ele>
        <time>2021-03-06T12:56:10Z</time>
      </trkpt>
      <trkpt lat="43.62764" lon="3.83069">
        <ele>84</ele>
        <time>2021-03-06T12:56:11Z</time>
      </trkpt>
      <trkpt lat="43.62766" lon="3.83071">
        <ele>84</ele>
        <time>2021-03-06T12:56:12Z</time>
      </trkpt>
      <trkpt lat="43.62768" lon="3.83075">
        <ele>84</ele>
        <time>2021-03-06T12:56:14Z</time>
      </trkpt>
      <trkpt lat="43.62769" lon="3.83077">
        <ele>86</ele>
        <time>2021-03-06T12:56:16Z</time>
      </trkpt>
      <trkpt lat="43.62771" lon="3.83079">
        <ele>86</ele>
        <time>2021-03-06T12:56:17Z</time>
      </trkpt>
      <trkpt lat="43.62772" lon="3.83081">
        <ele>86</ele>
        <time>2021-03-06T12:56:18Z</time>
      </trkpt>
      <trkpt lat="43.62773" lon="3.83083">
        <ele>86</ele>
        <time>2021-03-06T12:56:19Z</time>
      </trkpt>
      <trkpt lat="43.62774" lon="3.83086">
        <ele>86</ele>
        <time>2021-03-06T12:56:20Z</time>
      </trkpt>
      <trkpt lat="43.62775" lon="3.83089">
        <ele>86</ele>
        <time>2021-03-06T12:56:21Z</time>
      </trkpt>
      <trkpt lat="43.62777" lon="3.83092">
        <ele>86</ele>
        <time>2021-03-06T12:56:22Z</time>
      </trkpt>
      <trkpt lat="43.62777" lon="3.83095">
        <ele>86</ele>
        <time>2021-03-06T12:56:23Z</time>
      </trkpt>
      <trkpt lat="43.62779" lon="3.83098">
        <ele>86</ele>
        <time>2021-03-06T12:56:25Z</time>
      </trkpt>
      <trkpt lat="43.62783" lon="3.83098">
        <ele>86</ele>
        <time>2021-03-06T12:56:27Z</time>
      </trkpt>
      <trkpt lat="43.62786" lon="3.83098">
        <ele>86</ele>
        <time>2021-03-06T12:56:28Z</time>
      </trkpt>
      <trkpt lat="43.62789" lon="3.83098">
        <ele>86</ele>
        <time>2021-03-06T12:56:29Z</time>
      </trkpt>
      <trkpt lat="43.62792" lon="3.83097">
        <ele>86</ele>
        <time>2021-03-06T12:56:30Z</time>
      </trkpt>
      <trkpt lat="43.62795" lon="3.83096">
        <ele>86</ele>
        <time>2021-03-06T12:56:31Z</time>
      </trkpt>
      <trkpt lat="43.62797" lon="3.83095">
        <ele>86</ele>
        <time>2021-03-06T12:56:32Z</time>
      </trkpt>
      <trkpt lat="43.62799" lon="3.83095">
        <ele>86</ele>
        <time>2021-03-06T12:56:33Z</time>
      </trkpt>
      <trkpt lat="43.62801" lon="3.83094">
        <ele>86</ele>
        <time>2021-03-06T12:56:34Z</time>
      </trkpt>
      <trkpt lat="43.62803" lon="3.83093">
        <ele>86</ele>
        <time>2021-03-06T12:56:35Z</time>
      </trkpt>
      <trkpt lat="43.62805" lon="3.83092">
        <ele>85</ele>
        <time>2021-03-06T12:56:36Z</time>
      </trkpt>
      <trkpt lat="43.62808" lon="3.83091">
        <ele>85</ele>
        <time>2021-03-06T12:56:37Z</time>
      </trkpt>
      <trkpt lat="43.6281" lon="3.83091">
        <ele>85</ele>
        <time>2021-03-06T12:56:38Z</time>
      </trkpt>
      <trkpt lat="43.62813" lon="3.8309">
        <ele>85</ele>
        <time>2021-03-06T12:56:39Z</time>
      </trkpt>
      <trkpt lat="43.62816" lon="3.83089">
        <ele>85</ele>
        <time>2021-03-06T12:56:40Z</time>
      </trkpt>
      <trkpt lat="43.62818" lon="3.83089">
        <ele>85</ele>
        <time>2021-03-06T12:56:41Z</time>
      </trkpt>
      <trkpt lat="43.62824" lon="3.83087">
        <ele>85</ele>
        <time>2021-03-06T12:56:42Z</time>
      </trkpt>
      <trkpt lat="43.62827" lon="3.83087">
        <ele>85</ele>
        <time>2021-03-06T12:56:43Z</time>
      </trkpt>
      <trkpt lat="43.62828" lon="3.83086">
        <ele>85</ele>
        <time>2021-03-06T12:56:44Z</time>
      </trkpt>
      <trkpt lat="43.62831" lon="3.83086">
        <ele>85</ele>
        <time>2021-03-06T12:56:45Z</time>
      </trkpt>
      <trkpt lat="43.62833" lon="3.83086">
        <ele>85</ele>
        <time>2021-03-06T12:56:46Z</time>
      </trkpt>
      <trkpt lat="43.62835" lon="3.83087">
        <ele>85</ele>
        <time>2021-03-06T12:56:47Z</time>
      </trkpt>
      <trkpt lat="43.62837" lon="3.83086">
        <ele>85</ele>
        <time>2021-03-06T12:56:48Z</time>
      </trkpt>
      <trkpt lat="43.62839" lon="3.83085">
        <ele>85</ele>
        <time>2021-03-06T12:56:49Z</time>
      </trkpt>
      <trkpt lat="43.6284" lon="3.83084">
        <ele>85</ele>
        <time>2021-03-06T12:56:50Z</time>
      </trkpt>
      <trkpt lat="43.62841" lon="3.83081">
        <ele>85</ele>
        <time>2021-03-06T12:56:51Z</time>
      </trkpt>
      <trkpt lat="43.62842" lon="3.83078">
        <ele>85</ele>
        <time>2021-03-06T12:56:52Z</time>
      </trkpt>
      <trkpt lat="43.62844" lon="3.83074">
        <ele>85</ele>
        <time>2021-03-06T12:56:53Z</time>
      </trkpt>
      <trkpt lat="43.62845" lon="3.83071">
        <ele>85</ele>
        <time>2021-03-06T12:56:54Z</time>
      </trkpt>
      <trkpt lat="43.62847" lon="3.83066">
        <ele>85</ele>
        <time>2021-03-06T12:56:55Z</time>
      </trkpt>
      <trkpt lat="43.62847" lon="3.8306">
        <ele>84</ele>
        <time>2021-03-06T12:56:56Z</time>
      </trkpt>
      <trkpt lat="43.62845" lon="3.83054">
        <ele>84</ele>
        <time>2021-03-06T12:56:57Z</time>
      </trkpt>
      <trkpt lat="43.62844" lon="3.8305">
        <ele>84</ele>
        <time>2021-03-06T12:56:58Z</time>
      </trkpt>
      <trkpt lat="43.62841" lon="3.83042">
        <ele>84</ele>
        <time>2021-03-06T12:57:00Z</time>
      </trkpt>
      <trkpt lat="43.6284" lon="3.83037">
        <ele>84</ele>
        <time>2021-03-06T12:57:01Z</time>
      </trkpt>
      <trkpt lat="43.62839" lon="3.83032">
        <ele>84</ele>
        <time>2021-03-06T12:57:02Z</time>
      </trkpt>
      <trkpt lat="43.62838" lon="3.83026">
        <ele>84</ele>
        <time>2021-03-06T12:57:04Z</time>
      </trkpt>
      <trkpt lat="43.62837" lon="3.8302">
        <ele>84</ele>
        <time>2021-03-06T12:57:05Z</time>
      </trkpt>
      <trkpt lat="43.62836" lon="3.83009">
        <ele>80</ele>
        <time>2021-03-06T12:57:06Z</time>
      </trkpt>
      <trkpt lat="43.62836" lon="3.83003">
        <ele>80</ele>
        <time>2021-03-06T12:57:07Z</time>
      </trkpt>
      <trkpt lat="43.62836" lon="3.82996">
        <ele>80</ele>
        <time>2021-03-06T12:57:08Z</time>
      </trkpt>
      <trkpt lat="43.62836" lon="3.82989">
        <ele>80</ele>
        <time>2021-03-06T12:57:09Z</time>
      </trkpt>
      <trkpt lat="43.62836" lon="3.82983">
        <ele>80</ele>
        <time>2021-03-06T12:57:10Z</time>
      </trkpt>
      <trkpt lat="43.62834" lon="3.82976">
        <ele>80</ele>
        <time>2021-03-06T12:57:11Z</time>
      </trkpt>
      <trkpt lat="43.62832" lon="3.82968">
        <ele>80</ele>
        <time>2021-03-06T12:57:12Z</time>
      </trkpt>
      <trkpt lat="43.62831" lon="3.82961">
        <ele>80</ele>
        <time>2021-03-06T12:57:13Z</time>
      </trkpt>
      <trkpt lat="43.62831" lon="3.82953">
        <ele>80</ele>
        <time>2021-03-06T12:57:14Z</time>
      </trkpt>
      <trkpt lat="43.62832" lon="3.82947">
        <ele>80</ele>
        <time>2021-03-06T12:57:15Z</time>
      </trkpt>
      <trkpt lat="43.62833" lon="3.82937">
        <ele>80</ele>
        <time>2021-03-06T12:57:17Z</time>
      </trkpt>
      <trkpt lat="43.62835" lon="3.82936">
        <ele>80</ele>
        <time>2021-03-06T12:57:18Z</time>
      </trkpt>
      <trkpt lat="43.62838" lon="3.82936">
        <ele>80</ele>
        <time>2021-03-06T12:57:19Z</time>
      </trkpt>
      <trkpt lat="43.62841" lon="3.82938">
        <ele>80</ele>
        <time>2021-03-06T12:57:21Z</time>
      </trkpt>
      <trkpt lat="43.62844" lon="3.8294">
        <ele>80</ele>
        <time>2021-03-06T12:57:23Z</time>
      </trkpt>
      <trkpt lat="43.62847" lon="3.82941">
        <ele>77</ele>
        <time>2021-03-06T12:57:26Z</time>
      </trkpt>
      <trkpt lat="43.62849" lon="3.82942">
        <ele>77</ele>
        <time>2021-03-06T12:57:27Z</time>
      </trkpt>
      <trkpt lat="43.62851" lon="3.82942">
        <ele>77</ele>
        <time>2021-03-06T12:57:30Z</time>
      </trkpt>
      <trkpt lat="43.62853" lon="3.82942">
        <ele>77</ele>
        <time>2021-03-06T12:57:31Z</time>
      </trkpt>
      <trkpt lat="43.62856" lon="3.82942">
        <ele>77</ele>
        <time>2021-03-06T12:57:33Z</time>
      </trkpt>
      <trkpt lat="43.62859" lon="3.82943">
        <ele>77</ele>
        <time>2021-03-06T12:57:35Z</time>
      </trkpt>
      <trkpt lat="43.62862" lon="3.82944">
        <ele>77</ele>
        <time>2021-03-06T12:57:37Z</time>
      </trkpt>
      <trkpt lat="43.62864" lon="3.82944">
        <ele>77</ele>
        <time>2021-03-06T12:57:39Z</time>
      </trkpt>
      <trkpt lat="43.62866" lon="3.82944">
        <ele>77</ele>
        <time>2021-03-06T12:57:40Z</time>
      </trkpt>
      <trkpt lat="43.62868" lon="3.82944">
        <ele>77</ele>
        <time>2021-03-06T12:57:41Z</time>
      </trkpt>
      <trkpt lat="43.6287" lon="3.82945">
        <ele>77</ele>
        <time>2021-03-06T12:57:42Z</time>
      </trkpt>
      <trkpt lat="43.62872" lon="3.82945">
        <ele>77</ele>
        <time>2021-03-06T12:57:43Z</time>
      </trkpt>
      <trkpt lat="43.62875" lon="3.82945">
        <ele>77</ele>
        <time>2021-03-06T12:57:44Z</time>
      </trkpt>
      <trkpt lat="43.6288" lon="3.82946">
        <ele>77</ele>
        <time>2021-03-06T12:57:45Z</time>
      </trkpt>
      <trkpt lat="43.62883" lon="3.82946">
        <ele>77</ele>
        <time>2021-03-06T12:57:46Z</time>
      </trkpt>
      <trkpt lat="43.62886" lon="3.82946">
        <ele>77</ele>
        <time>2021-03-06T12:57:48Z</time>
      </trkpt>
      <trkpt lat="43.62889" lon="3.82947">
        <ele>77</ele>
        <time>2021-03-06T12:57:49Z</time>
      </trkpt>
      <trkpt lat="43.62891" lon="3.82948">
        <ele>77</ele>
        <time>2021-03-06T12:57:50Z</time>
      </trkpt>
      <trkpt lat="43.62897" lon="3.8295">
        <ele>77</ele>
        <time>2021-03-06T12:57:51Z</time>
      </trkpt>
      <trkpt lat="43.62899" lon="3.82951">
        <ele>77</ele>
        <time>2021-03-06T12:57:52Z</time>
      </trkpt>
      <trkpt lat="43.62902" lon="3.82951">
        <ele>77</ele>
        <time>2021-03-06T12:57:53Z</time>
      </trkpt>
      <trkpt lat="43.62905" lon="3.82952">
        <ele>77</ele>
        <time>2021-03-06T12:57:54Z</time>
      </trkpt>
      <trkpt lat="43.62907" lon="3.82953">
        <ele>77</ele>
        <time>2021-03-06T12:57:55Z</time>
      </trkpt>
      <trkpt lat="43.6291" lon="3.82955">
        <ele>77</ele>
        <time>2021-03-06T12:57:56Z</time>
      </trkpt>
      <trkpt lat="43.62913" lon="3.82956">
        <ele>77</ele>
        <time>2021-03-06T12:57:57Z</time>
      </trkpt>
      <trkpt lat="43.62915" lon="3.82957">
        <ele>77</ele>
        <time>2021-03-06T12:57:58Z</time>
      </trkpt>
      <trkpt lat="43.62917" lon="3.82959">
        <ele>77</ele>
        <time>2021-03-06T12:58:00Z</time>
      </trkpt>
      <trkpt lat="43.6292" lon="3.8296">
        <ele>77</ele>
        <time>2021-03-06T12:58:01Z</time>
      </trkpt>
      <trkpt lat="43.62922" lon="3.82962">
        <ele>77</ele>
        <time>2021-03-06T12:58:02Z</time>
      </trkpt>
      <trkpt lat="43.62925" lon="3.82963">
        <ele>77</ele>
        <time>2021-03-06T12:58:03Z</time>
      </trkpt>
      <trkpt lat="43.6293" lon="3.82964">
        <ele>77</ele>
        <time>2021-03-06T12:58:04Z</time>
      </trkpt>
      <trkpt lat="43.62932" lon="3.82965">
        <ele>77</ele>
        <time>2021-03-06T12:58:05Z</time>
      </trkpt>
      <trkpt lat="43.62934" lon="3.82966">
        <ele>76</ele>
        <time>2021-03-06T12:58:06Z</time>
      </trkpt>
      <trkpt lat="43.62937" lon="3.82967">
        <ele>76</ele>
        <time>2021-03-06T12:58:07Z</time>
      </trkpt>
      <trkpt lat="43.62939" lon="3.82968">
        <ele>76</ele>
        <time>2021-03-06T12:58:08Z</time>
      </trkpt>
      <trkpt lat="43.62941" lon="3.82968">
        <ele>76</ele>
        <time>2021-03-06T12:58:09Z</time>
      </trkpt>
      <trkpt lat="43.62943" lon="3.8297">
        <ele>76</ele>
        <time>2021-03-06T12:58:10Z</time>
      </trkpt>
      <trkpt lat="43.62945" lon="3.82971">
        <ele>76</ele>
        <time>2021-03-06T12:58:11Z</time>
      </trkpt>
      <trkpt lat="43.62949" lon="3.82973">
        <ele>76</ele>
        <time>2021-03-06T12:58:13Z</time>
      </trkpt>
      <trkpt lat="43.62951" lon="3.82974">
        <ele>76</ele>
        <time>2021-03-06T12:58:14Z</time>
      </trkpt>
      <trkpt lat="43.62953" lon="3.82975">
        <ele>76</ele>
        <time>2021-03-06T12:58:15Z</time>
      </trkpt>
      <trkpt lat="43.62958" lon="3.82976">
        <ele>76</ele>
        <time>2021-03-06T12:58:17Z</time>
      </trkpt>
      <trkpt lat="43.6296" lon="3.82977">
        <ele>76</ele>
        <time>2021-03-06T12:58:18Z</time>
      </trkpt>
      <trkpt lat="43.62962" lon="3.82978">
        <ele>76</ele>
        <time>2021-03-06T12:58:19Z</time>
      </trkpt>
      <trkpt lat="43.62968" lon="3.82977">
        <ele>76</ele>
        <time>2021-03-06T12:58:21Z</time>
      </trkpt>
      <trkpt lat="43.62971" lon="3.82976">
        <ele>76</ele>
        <time>2021-03-06T12:58:23Z</time>
      </trkpt>
      <trkpt lat="43.62974" lon="3.82974">
        <ele>76</ele>
        <time>2021-03-06T12:58:24Z</time>
      </trkpt>
      <trkpt lat="43.62977" lon="3.82973">
        <ele>76</ele>
        <time>2021-03-06T12:58:25Z</time>
      </trkpt>
      <trkpt lat="43.6298" lon="3.82971">
        <ele>78</ele>
        <time>2021-03-06T12:58:26Z</time>
      </trkpt>
      <trkpt lat="43.62983" lon="3.8297">
        <ele>78</ele>
        <time>2021-03-06T12:58:27Z</time>
      </trkpt>
      <trkpt lat="43.62986" lon="3.82968">
        <ele>78</ele>
        <time>2021-03-06T12:58:28Z</time>
      </trkpt>
      <trkpt lat="43.62992" lon="3.82965">
        <ele>78</ele>
        <time>2021-03-06T12:58:29Z</time>
      </trkpt>
      <trkpt lat="43.62995" lon="3.82964">
        <ele>78</ele>
        <time>2021-03-06T12:58:30Z</time>
      </trkpt>
      <trkpt lat="43.62998" lon="3.82962">
        <ele>78</ele>
        <time>2021-03-06T12:58:31Z</time>
      </trkpt>
      <trkpt lat="43.63" lon="3.8296">
        <ele>78</ele>
        <time>2021-03-06T12:58:32Z</time>
      </trkpt>
      <trkpt lat="43.63003" lon="3.82959">
        <ele>78</ele>
        <time>2021-03-06T12:58:33Z</time>
      </trkpt>
      <trkpt lat="43.63005" lon="3.82958">
        <ele>78</ele>
        <time>2021-03-06T12:58:34Z</time>
      </trkpt>
      <trkpt lat="43.63008" lon="3.82956">
        <ele>78</ele>
        <time>2021-03-06T12:58:35Z</time>
      </trkpt>
      <trkpt lat="43.63011" lon="3.82954">
        <ele>78</ele>
        <time>2021-03-06T12:58:36Z</time>
      </trkpt>
      <trkpt lat="43.63016" lon="3.82951">
        <ele>78</ele>
        <time>2021-03-06T12:58:38Z</time>
      </trkpt>
      <trkpt lat="43.63019" lon="3.82949">
        <ele>78</ele>
        <time>2021-03-06T12:58:39Z</time>
      </trkpt>
      <trkpt lat="43.63022" lon="3.82949">
        <ele>78</ele>
        <time>2021-03-06T12:58:40Z</time>
      </trkpt>
      <trkpt lat="43.63026" lon="3.8295">
        <ele>78</ele>
        <time>2021-03-06T12:58:41Z</time>
      </trkpt>
      <trkpt lat="43.63028" lon="3.82952">
        <ele>78</ele>
        <time>2021-03-06T12:58:42Z</time>
      </trkpt>
      <trkpt lat="43.6303" lon="3.82954">
        <ele>78</ele>
        <time>2021-03-06T12:58:43Z</time>
      </trkpt>
      <trkpt lat="43.63032" lon="3.82957">
        <ele>78</ele>
        <time>2021-03-06T12:58:44Z</time>
      </trkpt>
      <trkpt lat="43.63034" lon="3.82959">
        <ele>78</ele>
        <time>2021-03-06T12:58:45Z</time>
      </trkpt>
      <trkpt lat="43.63036" lon="3.82961">
        <ele>79</ele>
        <time>2021-03-06T12:58:46Z</time>
      </trkpt>
      <trkpt lat="43.63038" lon="3.82963">
        <ele>79</ele>
        <time>2021-03-06T12:58:47Z</time>
      </trkpt>
      <trkpt lat="43.6304" lon="3.82965">
        <ele>79</ele>
        <time>2021-03-06T12:58:48Z</time>
      </trkpt>
      <trkpt lat="43.63042" lon="3.82967">
        <ele>79</ele>
        <time>2021-03-06T12:58:49Z</time>
      </trkpt>
      <trkpt lat="43.63044" lon="3.82969">
        <ele>79</ele>
        <time>2021-03-06T12:58:51Z</time>
      </trkpt>
      <trkpt lat="43.63045" lon="3.82971">
        <ele>79</ele>
        <time>2021-03-06T12:58:52Z</time>
      </trkpt>
      <trkpt lat="43.63047" lon="3.82973">
        <ele>79</ele>
        <time>2021-03-06T12:58:53Z</time>
      </trkpt>
      <trkpt lat="43.63049" lon="3.82975">
        <ele>79</ele>
        <time>2021-03-06T12:58:54Z</time>
      </trkpt>
      <trkpt lat="43.63051" lon="3.82977">
        <ele>79</ele>
        <time>2021-03-06T12:58:55Z</time>
      </trkpt>
      <trkpt lat="43.63052" lon="3.82979">
        <ele>79</ele>
        <time>2021-03-06T12:58:56Z</time>
      </trkpt>
      <trkpt lat="43.63054" lon="3.82981">
        <ele>79</ele>
        <time>2021-03-06T12:58:57Z</time>
      </trkpt>
      <trkpt lat="43.63055" lon="3.82982">
        <ele>79</ele>
        <time>2021-03-06T12:58:58Z</time>
      </trkpt>
      <trkpt lat="43.63057" lon="3.82984">
        <ele>79</ele>
        <time>2021-03-06T12:58:59Z</time>
      </trkpt>
      <trkpt lat="43.63061" lon="3.82989">
        <ele>79</ele>
        <time>2021-03-06T12:59:00Z</time>
      </trkpt>
      <trkpt lat="43.63063" lon="3.82991">
        <ele>79</ele>
        <time>2021-03-06T12:59:01Z</time>
      </trkpt>
      <trkpt lat="43.63065" lon="3.82992">
        <ele>79</ele>
        <time>2021-03-06T12:59:03Z</time>
      </trkpt>
      <trkpt lat="43.63068" lon="3.82992">
        <ele>79</ele>
        <time>2021-03-06T12:59:05Z</time>
      </trkpt>
      <trkpt lat="43.6307" lon="3.8299">
        <ele>79</ele>
        <time>2021-03-06T12:59:06Z</time>
      </trkpt>
      <trkpt lat="43.63072" lon="3.82987">
        <ele>79</ele>
        <time>2021-03-06T12:59:07Z</time>
      </trkpt>
      <trkpt lat="43.63077" lon="3.82981">
        <ele>79</ele>
        <time>2021-03-06T12:59:08Z</time>
      </trkpt>
      <trkpt lat="43.6308" lon="3.82977">
        <ele>79</ele>
        <time>2021-03-06T12:59:09Z</time>
      </trkpt>
      <trkpt lat="43.63082" lon="3.82974">
        <ele>79</ele>
        <time>2021-03-06T12:59:10Z</time>
      </trkpt>
      <trkpt lat="43.63085" lon="3.82972">
        <ele>79</ele>
        <time>2021-03-06T12:59:11Z</time>
      </trkpt>
      <trkpt lat="43.63092" lon="3.82972">
        <ele>79</ele>
        <time>2021-03-06T12:59:13Z</time>
      </trkpt>
      <trkpt lat="43.63094" lon="3.82972">
        <ele>79</ele>
        <time>2021-03-06T12:59:14Z</time>
      </trkpt>
      <trkpt lat="43.63097" lon="3.82972">
        <ele>79</ele>
        <time>2021-03-06T12:59:15Z</time>
      </trkpt>
      <trkpt lat="43.63101" lon="3.82972">
        <ele>79</ele>
        <time>2021-03-06T12:59:17Z</time>
      </trkpt>
      <trkpt lat="43.63103" lon="3.82972">
        <ele>79</ele>
        <time>2021-03-06T12:59:18Z</time>
      </trkpt>
      <trkpt lat="43.63105" lon="3.82971">
        <ele>79</ele>
        <time>2021-03-06T12:59:20Z</time>
      </trkpt>
      <trkpt lat="43.63107" lon="3.82971">
        <ele>79</ele>
        <time>2021-03-06T12:59:21Z</time>
      </trkpt>
      <trkpt lat="43.6311" lon="3.82971">
        <ele>79</ele>
        <time>2021-03-06T12:59:22Z</time>
      </trkpt>
      <trkpt lat="43.63113" lon="3.82972">
        <ele>79</ele>
        <time>2021-03-06T12:59:23Z</time>
      </trkpt>
      <trkpt lat="43.63115" lon="3.82974">
        <ele>79</ele>
        <time>2021-03-06T12:59:24Z</time>
      </trkpt>
      <trkpt lat="43.63118" lon="3.82974">
        <ele>79</ele>
        <time>2021-03-06T12:59:25Z</time>
      </trkpt>
      <trkpt lat="43.63126" lon="3.82972">
        <ele>78</ele>
        <time>2021-03-06T12:59:26Z</time>
      </trkpt>
      <trkpt lat="43.6313" lon="3.82971">
        <ele>78</ele>
        <time>2021-03-06T12:59:27Z</time>
      </trkpt>
      <trkpt lat="43.63135" lon="3.82971">
        <ele>78</ele>
        <time>2021-03-06T12:59:28Z</time>
      </trkpt>
      <trkpt lat="43.63139" lon="3.82971">
        <ele>78</ele>
        <time>2021-03-06T12:59:30Z</time>
      </trkpt>
      <trkpt lat="43.63143" lon="3.82972">
        <ele>78</ele>
        <time>2021-03-06T12:59:31Z</time>
      </trkpt>
      <trkpt lat="43.63147" lon="3.82972">
        <ele>78</ele>
        <time>2021-03-06T12:59:32Z</time>
      </trkpt>
      <trkpt lat="43.63151" lon="3.82972">
        <ele>78</ele>
        <time>2021-03-06T12:59:33Z</time>
      </trkpt>
      <trkpt lat="43.63158" lon="3.82971">
        <ele>78</ele>
        <time>2021-03-06T12:59:34Z</time>
      </trkpt>
      <trkpt lat="43.63162" lon="3.82971">
        <ele>78</ele>
        <time>2021-03-06T12:59:35Z</time>
      </trkpt>
      <trkpt lat="43.63166" lon="3.82971">
        <ele>78</ele>
        <time>2021-03-06T12:59:37Z</time>
      </trkpt>
      <trkpt lat="43.63173" lon="3.82971">
        <ele>78</ele>
        <time>2021-03-06T12:59:38Z</time>
      </trkpt>
      <trkpt lat="43.63175" lon="3.82972">
        <ele>78</ele>
        <time>2021-03-06T12:59:40Z</time>
      </trkpt>
      <trkpt lat="43.63177" lon="3.82972">
        <ele>78</ele>
        <time>2021-03-06T12:59:42Z</time>
      </trkpt>
      <trkpt lat="43.63179" lon="3.82972">
        <ele>78</ele>
        <time>2021-03-06T12:59:43Z</time>
      </trkpt>
      <trkpt lat="43.63182" lon="3.82971">
        <ele>78</ele>
        <time>2021-03-06T12:59:45Z</time>
      </trkpt>
      <trkpt lat="43.63184" lon="3.8297">
        <ele>77</ele>
        <time>2021-03-06T12:59:46Z</time>
      </trkpt>
      <trkpt lat="43.63187" lon="3.82967">
        <ele>77</ele>
        <time>2021-03-06T12:59:49Z</time>
      </trkpt>
      <trkpt lat="43.63188" lon="3.82966">
        <ele>77</ele>
        <time>2021-03-06T12:59:50Z</time>
      </trkpt>
      <trkpt lat="43.63192" lon="3.82963">
        <ele>77</ele>
        <time>2021-03-06T12:59:51Z</time>
      </trkpt>
      <trkpt lat="43.63194" lon="3.82961">
        <ele>77</ele>
        <time>2021-03-06T12:59:52Z</time>
      </trkpt>
      <trkpt lat="43.63196" lon="3.8296">
        <ele>77</ele>
        <time>2021-03-06T12:59:53Z</time>
      </trkpt>
      <trkpt lat="43.63197" lon="3.82958">
        <ele>77</ele>
        <time>2021-03-06T12:59:54Z</time>
      </trkpt>
      <trkpt lat="43.63199" lon="3.82957">
        <ele>77</ele>
        <time>2021-03-06T12:59:56Z</time>
      </trkpt>
      <trkpt lat="43.63201" lon="3.82955">
        <ele>77</ele>
        <time>2021-03-06T12:59:57Z</time>
      </trkpt>
      <trkpt lat="43.63203" lon="3.82954">
        <ele>77</ele>
        <time>2021-03-06T12:59:58Z</time>
      </trkpt>
      <trkpt lat="43.63205" lon="3.82952">
        <ele>77</ele>
        <time>2021-03-06T12:59:59Z</time>
      </trkpt>
      <trkpt lat="43.63207" lon="3.82951">
        <ele>77</ele>
        <time>2021-03-06T13:00:00Z</time>
      </trkpt>
      <trkpt lat="43.63208" lon="3.8295">
        <ele>77</ele>
        <time>2021-03-06T13:00:01Z</time>
      </trkpt>
      <trkpt lat="43.6321" lon="3.82948">
        <ele>77</ele>
        <time>2021-03-06T13:00:02Z</time>
      </trkpt>
      <trkpt lat="43.63211" lon="3.82946">
        <ele>77</ele>
        <time>2021-03-06T13:00:03Z</time>
      </trkpt>
      <trkpt lat="43.6321" lon="3.82938">
        <ele>77</ele>
        <time>2021-03-06T13:00:05Z</time>
      </trkpt>
      <trkpt lat="43.63209" lon="3.82935">
        <ele>77</ele>
        <time>2021-03-06T13:00:06Z</time>
      </trkpt>
      <trkpt lat="43.63208" lon="3.82932">
        <ele>77</ele>
        <time>2021-03-06T13:00:07Z</time>
      </trkpt>
      <trkpt lat="43.63207" lon="3.82928">
        <ele>77</ele>
        <time>2021-03-06T13:00:08Z</time>
      </trkpt>
      <trkpt lat="43.63206" lon="3.82925">
        <ele>77</ele>
        <time>2021-03-06T13:00:10Z</time>
      </trkpt>
      <trkpt lat="43.63205" lon="3.82921">
        <ele>77</ele>
        <time>2021-03-06T13:00:11Z</time>
      </trkpt>
      <trkpt lat="43.63204" lon="3.82918">
        <ele>77</ele>
        <time>2021-03-06T13:00:12Z</time>
      </trkpt>
      <trkpt lat="43.63201" lon="3.8291">
        <ele>77</ele>
        <time>2021-03-06T13:00:13Z</time>
      </trkpt>
      <trkpt lat="43.632" lon="3.82907">
        <ele>77</ele>
        <time>2021-03-06T13:00:14Z</time>
      </trkpt>
      <trkpt lat="43.63199" lon="3.82903">
        <ele>77</ele>
        <time>2021-03-06T13:00:15Z</time>
      </trkpt>
      <trkpt lat="43.63198" lon="3.829">
        <ele>78</ele>
        <time>2021-03-06T13:00:16Z</time>
      </trkpt>
      <trkpt lat="43.63197" lon="3.82896">
        <ele>78</ele>
        <time>2021-03-06T13:00:17Z</time>
      </trkpt>
      <trkpt lat="43.63196" lon="3.82893">
        <ele>78</ele>
        <time>2021-03-06T13:00:18Z</time>
      </trkpt>
      <trkpt lat="43.63195" lon="3.8289">
        <ele>78</ele>
        <time>2021-03-06T13:00:19Z</time>
      </trkpt>
      <trkpt lat="43.63194" lon="3.82886">
        <ele>78</ele>
        <time>2021-03-06T13:00:20Z</time>
      </trkpt>
      <trkpt lat="43.63193" lon="3.82882">
        <ele>78</ele>
        <time>2021-03-06T13:00:21Z</time>
      </trkpt>
      <trkpt lat="43.63193" lon="3.82878">
        <ele>78</ele>
        <time>2021-03-06T13:00:22Z</time>
      </trkpt>
      <trkpt lat="43.63192" lon="3.82875">
        <ele>78</ele>
        <time>2021-03-06T13:00:23Z</time>
      </trkpt>
      <trkpt lat="43.63192" lon="3.82871">
        <ele>78</ele>
        <time>2021-03-06T13:00:24Z</time>
      </trkpt>
      <trkpt lat="43.63191" lon="3.82868">
        <ele>78</ele>
        <time>2021-03-06T13:00:25Z</time>
      </trkpt>
      <trkpt lat="43.6319" lon="3.82861">
        <ele>78</ele>
        <time>2021-03-06T13:00:27Z</time>
      </trkpt>
      <trkpt lat="43.63189" lon="3.82857">
        <ele>78</ele>
        <time>2021-03-06T13:00:28Z</time>
      </trkpt>
      <trkpt lat="43.63188" lon="3.82854">
        <ele>78</ele>
        <time>2021-03-06T13:00:29Z</time>
      </trkpt>
      <trkpt lat="43.63187" lon="3.8285">
        <ele>78</ele>
        <time>2021-03-06T13:00:30Z</time>
      </trkpt>
      <trkpt lat="43.63186" lon="3.82846">
        <ele>78</ele>
        <time>2021-03-06T13:00:32Z</time>
      </trkpt>
      <trkpt lat="43.63185" lon="3.82842">
        <ele>78</ele>
        <time>2021-03-06T13:00:33Z</time>
      </trkpt>
      <trkpt lat="43.63184" lon="3.82839">
        <ele>78</ele>
        <time>2021-03-06T13:00:34Z</time>
      </trkpt>
      <trkpt lat="43.63183" lon="3.82835">
        <ele>78</ele>
        <time>2021-03-06T13:00:35Z</time>
      </trkpt>
      <trkpt lat="43.63182" lon="3.82832">
        <ele>80</ele>
        <time>2021-03-06T13:00:36Z</time>
      </trkpt>
      <trkpt lat="43.63182" lon="3.82828">
        <ele>80</ele>
        <time>2021-03-06T13:00:37Z</time>
      </trkpt>
      <trkpt lat="43.63181" lon="3.82824">
        <ele>80</ele>
        <time>2021-03-06T13:00:38Z</time>
      </trkpt>
      <trkpt lat="43.6318" lon="3.82821">
        <ele>80</ele>
        <time>2021-03-06T13:00:39Z</time>
      </trkpt>
      <trkpt lat="43.63179" lon="3.82813">
        <ele>80</ele>
        <time>2021-03-06T13:00:40Z</time>
      </trkpt>
      <trkpt lat="43.63178" lon="3.82809">
        <ele>80</ele>
        <time>2021-03-06T13:00:41Z</time>
      </trkpt>
      <trkpt lat="43.63177" lon="3.82806">
        <ele>80</ele>
        <time>2021-03-06T13:00:42Z</time>
      </trkpt>
      <trkpt lat="43.63176" lon="3.82802">
        <ele>80</ele>
        <time>2021-03-06T13:00:43Z</time>
      </trkpt>
      <trkpt lat="43.63175" lon="3.82799">
        <ele>80</ele>
        <time>2021-03-06T13:00:45Z</time>
      </trkpt>
      <trkpt lat="43.63175" lon="3.82795">
        <ele>81</ele>
        <time>2021-03-06T13:00:46Z</time>
      </trkpt>
      <trkpt lat="43.63174" lon="3.82791">
        <ele>81</ele>
        <time>2021-03-06T13:00:47Z</time>
      </trkpt>
      <trkpt lat="43.63175" lon="3.82788">
        <ele>81</ele>
        <time>2021-03-06T13:00:48Z</time>
      </trkpt>
      <trkpt lat="43.63176" lon="3.82785">
        <ele>81</ele>
        <time>2021-03-06T13:00:49Z</time>
      </trkpt>
      <trkpt lat="43.63177" lon="3.82782">
        <ele>81</ele>
        <time>2021-03-06T13:00:50Z</time>
      </trkpt>
      <trkpt lat="43.63179" lon="3.8278">
        <ele>81</ele>
        <time>2021-03-06T13:00:51Z</time>
      </trkpt>
      <trkpt lat="43.63181" lon="3.82777">
        <ele>81</ele>
        <time>2021-03-06T13:00:52Z</time>
      </trkpt>
      <trkpt lat="43.63183" lon="3.82772">
        <ele>81</ele>
        <time>2021-03-06T13:00:53Z</time>
      </trkpt>
      <trkpt lat="43.63185" lon="3.82769">
        <ele>81</ele>
        <time>2021-03-06T13:00:54Z</time>
      </trkpt>
      <trkpt lat="43.63187" lon="3.82766">
        <ele>81</ele>
        <time>2021-03-06T13:00:55Z</time>
      </trkpt>
      <trkpt lat="43.63188" lon="3.82763">
        <ele>82</ele>
        <time>2021-03-06T13:00:56Z</time>
      </trkpt>
      <trkpt lat="43.6319" lon="3.8276">
        <ele>82</ele>
        <time>2021-03-06T13:00:58Z</time>
      </trkpt>
      <trkpt lat="43.63191" lon="3.82758">
        <ele>82</ele>
        <time>2021-03-06T13:00:59Z</time>
      </trkpt>
      <trkpt lat="43.63192" lon="3.82755">
        <ele>82</ele>
        <time>2021-03-06T13:01:00Z</time>
      </trkpt>
      <trkpt lat="43.63194" lon="3.82752">
        <ele>82</ele>
        <time>2021-03-06T13:01:01Z</time>
      </trkpt>
      <trkpt lat="43.63195" lon="3.82749">
        <ele>82</ele>
        <time>2021-03-06T13:01:02Z</time>
      </trkpt>
      <trkpt lat="43.63196" lon="3.82746">
        <ele>82</ele>
        <time>2021-03-06T13:01:03Z</time>
      </trkpt>
      <trkpt lat="43.63198" lon="3.82743">
        <ele>82</ele>
        <time>2021-03-06T13:01:04Z</time>
      </trkpt>
      <trkpt lat="43.63199" lon="3.8274">
        <ele>82</ele>
        <time>2021-03-06T13:01:05Z</time>
      </trkpt>
      <trkpt lat="43.63201" lon="3.82738">
        <ele>84</ele>
        <time>2021-03-06T13:01:06Z</time>
      </trkpt>
      <trkpt lat="43.63203" lon="3.82735">
        <ele>84</ele>
        <time>2021-03-06T13:01:07Z</time>
      </trkpt>
      <trkpt lat="43.63204" lon="3.82733">
        <ele>84</ele>
        <time>2021-03-06T13:01:08Z</time>
      </trkpt>
      <trkpt lat="43.63206" lon="3.8273">
        <ele>84</ele>
        <time>2021-03-06T13:01:09Z</time>
      </trkpt>
      <trkpt lat="43.63208" lon="3.82727">
        <ele>84</ele>
        <time>2021-03-06T13:01:10Z</time>
      </trkpt>
      <trkpt lat="43.63209" lon="3.82724">
        <ele>84</ele>
        <time>2021-03-06T13:01:11Z</time>
      </trkpt>
      <trkpt lat="43.63211" lon="3.82722">
        <ele>84</ele>
        <time>2021-03-06T13:01:12Z</time>
      </trkpt>
      <trkpt lat="43.63213" lon="3.82719">
        <ele>84</ele>
        <time>2021-03-06T13:01:13Z</time>
      </trkpt>
      <trkpt lat="43.63215" lon="3.82717">
        <ele>84</ele>
        <time>2021-03-06T13:01:14Z</time>
      </trkpt>
      <trkpt lat="43.63217" lon="3.82714">
        <ele>84</ele>
        <time>2021-03-06T13:01:15Z</time>
      </trkpt>
      <trkpt lat="43.63219" lon="3.82711">
        <ele>84</ele>
        <time>2021-03-06T13:01:16Z</time>
      </trkpt>
      <trkpt lat="43.63221" lon="3.82708">
        <ele>84</ele>
        <time>2021-03-06T13:01:17Z</time>
      </trkpt>
      <trkpt lat="43.63223" lon="3.82705">
        <ele>84</ele>
        <time>2021-03-06T13:01:18Z</time>
      </trkpt>
      <trkpt lat="43.63224" lon="3.82701">
        <ele>84</ele>
        <time>2021-03-06T13:01:19Z</time>
      </trkpt>
      <trkpt lat="43.63226" lon="3.82698">
        <ele>84</ele>
        <time>2021-03-06T13:01:20Z</time>
      </trkpt>
      <trkpt lat="43.63228" lon="3.82695">
        <ele>84</ele>
        <time>2021-03-06T13:01:21Z</time>
      </trkpt>
      <trkpt lat="43.6323" lon="3.82691">
        <ele>84</ele>
        <time>2021-03-06T13:01:22Z</time>
      </trkpt>
      <trkpt lat="43.63231" lon="3.82688">
        <ele>84</ele>
        <time>2021-03-06T13:01:23Z</time>
      </trkpt>
      <trkpt lat="43.63233" lon="3.82684">
        <ele>84</ele>
        <time>2021-03-06T13:01:24Z</time>
      </trkpt>
      <trkpt lat="43.63235" lon="3.82681">
        <ele>84</ele>
        <time>2021-03-06T13:01:25Z</time>
      </trkpt>
      <trkpt lat="43.63236" lon="3.82677">
        <ele>85</ele>
        <time>2021-03-06T13:01:26Z</time>
      </trkpt>
      <trkpt lat="43.63238" lon="3.82674">
        <ele>85</ele>
        <time>2021-03-06T13:01:27Z</time>
      </trkpt>
      <trkpt lat="43.63241" lon="3.82671">
        <ele>85</ele>
        <time>2021-03-06T13:01:28Z</time>
      </trkpt>
      <trkpt lat="43.63243" lon="3.82668">
        <ele>85</ele>
        <time>2021-03-06T13:01:29Z</time>
      </trkpt>
      <trkpt lat="43.63245" lon="3.82665">
        <ele>85</ele>
        <time>2021-03-06T13:01:30Z</time>
      </trkpt>
      <trkpt lat="43.63247" lon="3.82662">
        <ele>85</ele>
        <time>2021-03-06T13:01:31Z</time>
      </trkpt>
      <trkpt lat="43.6325" lon="3.82659">
        <ele>85</ele>
        <time>2021-03-06T13:01:32Z</time>
      </trkpt>
      <trkpt lat="43.63252" lon="3.82655">
        <ele>85</ele>
        <time>2021-03-06T13:01:33Z</time>
      </trkpt>
      <trkpt lat="43.63255" lon="3.82652">
        <ele>85</ele>
        <time>2021-03-06T13:01:34Z</time>
      </trkpt>
      <trkpt lat="43.63258" lon="3.82648">
        <ele>85</ele>
        <time>2021-03-06T13:01:35Z</time>
      </trkpt>
      <trkpt lat="43.63261" lon="3.82644">
        <ele>85</ele>
        <time>2021-03-06T13:01:36Z</time>
      </trkpt>
      <trkpt lat="43.63264" lon="3.8264">
        <ele>85</ele>
        <time>2021-03-06T13:01:37Z</time>
      </trkpt>
      <trkpt lat="43.63267" lon="3.82636">
        <ele>85</ele>
        <time>2021-03-06T13:01:38Z</time>
      </trkpt>
      <trkpt lat="43.6327" lon="3.82633">
        <ele>85</ele>
        <time>2021-03-06T13:01:39Z</time>
      </trkpt>
      <trkpt lat="43.63274" lon="3.82629">
        <ele>85</ele>
        <time>2021-03-06T13:01:40Z</time>
      </trkpt>
      <trkpt lat="43.63278" lon="3.82626">
        <ele>85</ele>
        <time>2021-03-06T13:01:41Z</time>
      </trkpt>
      <trkpt lat="43.63282" lon="3.82622">
        <ele>85</ele>
        <time>2021-03-06T13:01:42Z</time>
      </trkpt>
      <trkpt lat="43.63286" lon="3.82618">
        <ele>85</ele>
        <time>2021-03-06T13:01:43Z</time>
      </trkpt>
      <trkpt lat="43.6329" lon="3.82615">
        <ele>85</ele>
        <time>2021-03-06T13:01:44Z</time>
      </trkpt>
      <trkpt lat="43.63293" lon="3.82612">
        <ele>85</ele>
        <time>2021-03-06T13:01:45Z</time>
      </trkpt>
      <trkpt lat="43.63297" lon="3.82609">
        <ele>83</ele>
        <time>2021-03-06T13:01:46Z</time>
      </trkpt>
      <trkpt lat="43.63301" lon="3.82605">
        <ele>83</ele>
        <time>2021-03-06T13:01:47Z</time>
      </trkpt>
      <trkpt lat="43.63305" lon="3.82601">
        <ele>83</ele>
        <time>2021-03-06T13:01:48Z</time>
      </trkpt>
      <trkpt lat="43.6331" lon="3.82598">
        <ele>83</ele>
        <time>2021-03-06T13:01:49Z</time>
      </trkpt>
      <trkpt lat="43.63314" lon="3.82594">
        <ele>83</ele>
        <time>2021-03-06T13:01:50Z</time>
      </trkpt>
      <trkpt lat="43.63319" lon="3.8259">
        <ele>83</ele>
        <time>2021-03-06T13:01:51Z</time>
      </trkpt>
      <trkpt lat="43.63328" lon="3.82583">
        <ele>83</ele>
        <time>2021-03-06T13:01:52Z</time>
      </trkpt>
      <trkpt lat="43.63332" lon="3.8258">
        <ele>83</ele>
        <time>2021-03-06T13:01:53Z</time>
      </trkpt>
      <trkpt lat="43.63337" lon="3.82577">
        <ele>83</ele>
        <time>2021-03-06T13:01:54Z</time>
      </trkpt>
      <trkpt lat="43.63342" lon="3.82575">
        <ele>83</ele>
        <time>2021-03-06T13:01:55Z</time>
      </trkpt>
      <trkpt lat="43.63346" lon="3.82572">
        <ele>82</ele>
        <time>2021-03-06T13:01:56Z</time>
      </trkpt>
      <trkpt lat="43.63351" lon="3.8257">
        <ele>82</ele>
        <time>2021-03-06T13:01:57Z</time>
      </trkpt>
      <trkpt lat="43.63355" lon="3.82567">
        <ele>82</ele>
        <time>2021-03-06T13:01:58Z</time>
      </trkpt>
      <trkpt lat="43.63358" lon="3.82565">
        <ele>82</ele>
        <time>2021-03-06T13:01:59Z</time>
      </trkpt>
      <trkpt lat="43.63366" lon="3.82561">
        <ele>82</ele>
        <time>2021-03-06T13:02:01Z</time>
      </trkpt>
      <trkpt lat="43.63369" lon="3.82559">
        <ele>82</ele>
        <time>2021-03-06T13:02:02Z</time>
      </trkpt>
      <trkpt lat="43.63373" lon="3.82558">
        <ele>82</ele>
        <time>2021-03-06T13:02:03Z</time>
      </trkpt>
      <trkpt lat="43.63375" lon="3.82557">
        <ele>82</ele>
        <time>2021-03-06T13:02:06Z</time>
      </trkpt>
      <trkpt lat="43.63378" lon="3.82557">
        <ele>82</ele>
        <time>2021-03-06T13:02:07Z</time>
      </trkpt>
      <trkpt lat="43.63386" lon="3.82556">
        <ele>82</ele>
        <time>2021-03-06T13:02:09Z</time>
      </trkpt>
      <trkpt lat="43.63389" lon="3.82555">
        <ele>82</ele>
        <time>2021-03-06T13:02:10Z</time>
      </trkpt>
      <trkpt lat="43.63393" lon="3.82555">
        <ele>82</ele>
        <time>2021-03-06T13:02:12Z</time>
      </trkpt>
      <trkpt lat="43.63396" lon="3.82554">
        <ele>82</ele>
        <time>2021-03-06T13:02:13Z</time>
      </trkpt>
      <trkpt lat="43.63399" lon="3.82554">
        <ele>82</ele>
        <time>2021-03-06T13:02:14Z</time>
      </trkpt>
      <trkpt lat="43.63402" lon="3.82554">
        <ele>82</ele>
        <time>2021-03-06T13:02:15Z</time>
      </trkpt>
      <trkpt lat="43.63406" lon="3.82553">
        <ele>83</ele>
        <time>2021-03-06T13:02:16Z</time>
      </trkpt>
      <trkpt lat="43.63412" lon="3.82552">
        <ele>83</ele>
        <time>2021-03-06T13:02:17Z</time>
      </trkpt>
      <trkpt lat="43.63415" lon="3.82552">
        <ele>83</ele>
        <time>2021-03-06T13:02:19Z</time>
      </trkpt>
      <trkpt lat="43.63419" lon="3.82551">
        <ele>83</ele>
        <time>2021-03-06T13:02:20Z</time>
      </trkpt>
      <trkpt lat="43.63422" lon="3.82551">
        <ele>83</ele>
        <time>2021-03-06T13:02:21Z</time>
      </trkpt>
      <trkpt lat="43.63425" lon="3.82551">
        <ele>83</ele>
        <time>2021-03-06T13:02:22Z</time>
      </trkpt>
      <trkpt lat="43.63428" lon="3.8255">
        <ele>83</ele>
        <time>2021-03-06T13:02:23Z</time>
      </trkpt>
      <trkpt lat="43.63431" lon="3.8255">
        <ele>83</ele>
        <time>2021-03-06T13:02:24Z</time>
      </trkpt>
      <trkpt lat="43.63434" lon="3.82549">
        <ele>83</ele>
        <time>2021-03-06T13:02:25Z</time>
      </trkpt>
      <trkpt lat="43.63436" lon="3.82549">
        <ele>84</ele>
        <time>2021-03-06T13:02:26Z</time>
      </trkpt>
      <trkpt lat="43.63439" lon="3.82549">
        <ele>84</ele>
        <time>2021-03-06T13:02:27Z</time>
      </trkpt>
      <trkpt lat="43.63442" lon="3.82548">
        <ele>84</ele>
        <time>2021-03-06T13:02:28Z</time>
      </trkpt>
      <trkpt lat="43.63444" lon="3.82548">
        <ele>84</ele>
        <time>2021-03-06T13:02:29Z</time>
      </trkpt>
      <trkpt lat="43.63449" lon="3.82547">
        <ele>84</ele>
        <time>2021-03-06T13:02:30Z</time>
      </trkpt>
      <trkpt lat="43.63452" lon="3.82547">
        <ele>84</ele>
        <time>2021-03-06T13:02:31Z</time>
      </trkpt>
      <trkpt lat="43.63454" lon="3.82546">
        <ele>84</ele>
        <time>2021-03-06T13:02:32Z</time>
      </trkpt>
      <trkpt lat="43.63457" lon="3.82546">
        <ele>84</ele>
        <time>2021-03-06T13:02:33Z</time>
      </trkpt>
      <trkpt lat="43.63459" lon="3.82547">
        <ele>84</ele>
        <time>2021-03-06T13:02:34Z</time>
      </trkpt>
      <trkpt lat="43.63462" lon="3.82546">
        <ele>84</ele>
        <time>2021-03-06T13:02:35Z</time>
      </trkpt>
      <trkpt lat="43.63464" lon="3.82546">
        <ele>85</ele>
        <time>2021-03-06T13:02:36Z</time>
      </trkpt>
      <trkpt lat="43.63466" lon="3.82545">
        <ele>85</ele>
        <time>2021-03-06T13:02:37Z</time>
      </trkpt>
      <trkpt lat="43.63472" lon="3.82545">
        <ele>85</ele>
        <time>2021-03-06T13:02:39Z</time>
      </trkpt>
      <trkpt lat="43.63474" lon="3.82545">
        <ele>85</ele>
        <time>2021-03-06T13:02:40Z</time>
      </trkpt>
      <trkpt lat="43.63477" lon="3.82544">
        <ele>85</ele>
        <time>2021-03-06T13:02:41Z</time>
      </trkpt>
      <trkpt lat="43.6348" lon="3.82544">
        <ele>85</ele>
        <time>2021-03-06T13:02:43Z</time>
      </trkpt>
      <trkpt lat="43.63482" lon="3.82544">
        <ele>85</ele>
        <time>2021-03-06T13:02:44Z</time>
      </trkpt>
      <trkpt lat="43.63485" lon="3.82543">
        <ele>85</ele>
        <time>2021-03-06T13:02:45Z</time>
      </trkpt>
      <trkpt lat="43.63487" lon="3.82543">
        <ele>86</ele>
        <time>2021-03-06T13:02:46Z</time>
      </trkpt>
      <trkpt lat="43.63489" lon="3.82543">
        <ele>86</ele>
        <time>2021-03-06T13:02:47Z</time>
      </trkpt>
      <trkpt lat="43.63492" lon="3.82543">
        <ele>86</ele>
        <time>2021-03-06T13:02:48Z</time>
      </trkpt>
      <trkpt lat="43.63495" lon="3.82543">
        <ele>86</ele>
        <time>2021-03-06T13:02:49Z</time>
      </trkpt>
      <trkpt lat="43.63497" lon="3.82542">
        <ele>86</ele>
        <time>2021-03-06T13:02:50Z</time>
      </trkpt>
      <trkpt lat="43.635" lon="3.82542">
        <ele>86</ele>
        <time>2021-03-06T13:02:51Z</time>
      </trkpt>
      <trkpt lat="43.63503" lon="3.82542">
        <ele>86</ele>
        <time>2021-03-06T13:02:52Z</time>
      </trkpt>
      <trkpt lat="43.63505" lon="3.82542">
        <ele>86</ele>
        <time>2021-03-06T13:02:53Z</time>
      </trkpt>
      <trkpt lat="43.63508" lon="3.82541">
        <ele>86</ele>
        <time>2021-03-06T13:02:54Z</time>
      </trkpt>
      <trkpt lat="43.63511" lon="3.82541">
        <ele>86</ele>
        <time>2021-03-06T13:02:55Z</time>
      </trkpt>
      <trkpt lat="43.63513" lon="3.8254">
        <ele>88</ele>
        <time>2021-03-06T13:02:56Z</time>
      </trkpt>
      <trkpt lat="43.63516" lon="3.8254">
        <ele>88</ele>
        <time>2021-03-06T13:02:57Z</time>
      </trkpt>
      <trkpt lat="43.63518" lon="3.82539">
        <ele>88</ele>
        <time>2021-03-06T13:02:58Z</time>
      </trkpt>
      <trkpt lat="43.63521" lon="3.82539">
        <ele>88</ele>
        <time>2021-03-06T13:02:59Z</time>
      </trkpt>
      <trkpt lat="43.63523" lon="3.82539">
        <ele>88</ele>
        <time>2021-03-06T13:03:00Z</time>
      </trkpt>
      <trkpt lat="43.63525" lon="3.82538">
        <ele>88</ele>
        <time>2021-03-06T13:03:01Z</time>
      </trkpt>
      <trkpt lat="43.63528" lon="3.82538">
        <ele>88</ele>
        <time>2021-03-06T13:03:03Z</time>
      </trkpt>
      <trkpt lat="43.6353" lon="3.82537">
        <ele>88</ele>
        <time>2021-03-06T13:03:05Z</time>
      </trkpt>
      <trkpt lat="43.63533" lon="3.82536">
        <ele>88</ele>
        <time>2021-03-06T13:03:07Z</time>
      </trkpt>
      <trkpt lat="43.63535" lon="3.82536">
        <ele>88</ele>
        <time>2021-03-06T13:03:09Z</time>
      </trkpt>
      <trkpt lat="43.63539" lon="3.82535">
        <ele>88</ele>
        <time>2021-03-06T13:03:11Z</time>
      </trkpt>
      <trkpt lat="43.63541" lon="3.82535">
        <ele>88</ele>
        <time>2021-03-06T13:03:13Z</time>
      </trkpt>
      <trkpt lat="43.63544" lon="3.82534">
        <ele>88</ele>
        <time>2021-03-06T13:03:15Z</time>
      </trkpt>
      <trkpt lat="43.63547" lon="3.82534">
        <ele>88</ele>
        <time>2021-03-06T13:03:17Z</time>
      </trkpt>
      <trkpt lat="43.6355" lon="3.82532">
        <ele>88</ele>
        <time>2021-03-06T13:03:19Z</time>
      </trkpt>
      <trkpt lat="43.63553" lon="3.82529">
        <ele>88</ele>
        <time>2021-03-06T13:03:20Z</time>
      </trkpt>
      <trkpt lat="43.63556" lon="3.82526">
        <ele>88</ele>
        <time>2021-03-06T13:03:22Z</time>
      </trkpt>
      <trkpt lat="43.63558" lon="3.82524">
        <ele>88</ele>
        <time>2021-03-06T13:03:23Z</time>
      </trkpt>
      <trkpt lat="43.63559" lon="3.82522">
        <ele>88</ele>
        <time>2021-03-06T13:03:24Z</time>
      </trkpt>
      <trkpt lat="43.63561" lon="3.8252">
        <ele>88</ele>
        <time>2021-03-06T13:03:25Z</time>
      </trkpt>
      <trkpt lat="43.63563" lon="3.82519">
        <ele>91</ele>
        <time>2021-03-06T13:03:26Z</time>
      </trkpt>
      <trkpt lat="43.63566" lon="3.82518">
        <ele>91</ele>
        <time>2021-03-06T13:03:27Z</time>
      </trkpt>
      <trkpt lat="43.63568" lon="3.82517">
        <ele>91</ele>
        <time>2021-03-06T13:03:28Z</time>
      </trkpt>
      <trkpt lat="43.63571" lon="3.82519">
        <ele>91</ele>
        <time>2021-03-06T13:03:29Z</time>
      </trkpt>
      <trkpt lat="43.63573" lon="3.82521">
        <ele>91</ele>
        <time>2021-03-06T13:03:30Z</time>
      </trkpt>
      <trkpt lat="43.63574" lon="3.82523">
        <ele>91</ele>
        <time>2021-03-06T13:03:31Z</time>
      </trkpt>
      <trkpt lat="43.63575" lon="3.82526">
        <ele>91</ele>
        <time>2021-03-06T13:03:32Z</time>
      </trkpt>
      <trkpt lat="43.63575" lon="3.82529">
        <ele>91</ele>
        <time>2021-03-06T13:03:33Z</time>
      </trkpt>
      <trkpt lat="43.63576" lon="3.82533">
        <ele>91</ele>
        <time>2021-03-06T13:03:34Z</time>
      </trkpt>
      <trkpt lat="43.63577" lon="3.82537">
        <ele>91</ele>
        <time>2021-03-06T13:03:35Z</time>
      </trkpt>
      <trkpt lat="43.63578" lon="3.82541">
        <ele>91</ele>
        <time>2021-03-06T13:03:37Z</time>
      </trkpt>
      <trkpt lat="43.63579" lon="3.82546">
        <ele>91</ele>
        <time>2021-03-06T13:03:38Z</time>
      </trkpt>
      <trkpt lat="43.6358" lon="3.82554">
        <ele>91</ele>
        <time>2021-03-06T13:03:39Z</time>
      </trkpt>
      <trkpt lat="43.63581" lon="3.82558">
        <ele>91</ele>
        <time>2021-03-06T13:03:40Z</time>
      </trkpt>
      <trkpt lat="43.63582" lon="3.82562">
        <ele>91</ele>
        <time>2021-03-06T13:03:41Z</time>
      </trkpt>
      <trkpt lat="43.63584" lon="3.82567">
        <ele>91</ele>
        <time>2021-03-06T13:03:42Z</time>
      </trkpt>
      <trkpt lat="43.63585" lon="3.82571">
        <ele>91</ele>
        <time>2021-03-06T13:03:44Z</time>
      </trkpt>
      <trkpt lat="43.63586" lon="3.82575">
        <ele>91</ele>
        <time>2021-03-06T13:03:45Z</time>
      </trkpt>
      <trkpt lat="43.63591" lon="3.82586">
        <ele>91</ele>
        <time>2021-03-06T13:03:48Z</time>
      </trkpt>
      <trkpt lat="43.63594" lon="3.82596">
        <ele>91</ele>
        <time>2021-03-06T13:03:49Z</time>
      </trkpt>
      <trkpt lat="43.63594" lon="3.82602">
        <ele>91</ele>
        <time>2021-03-06T13:03:50Z</time>
      </trkpt>
      <trkpt lat="43.63595" lon="3.82608">
        <ele>91</ele>
        <time>2021-03-06T13:03:51Z</time>
      </trkpt>
      <trkpt lat="43.63596" lon="3.82613">
        <ele>91</ele>
        <time>2021-03-06T13:03:52Z</time>
      </trkpt>
      <trkpt lat="43.63598" lon="3.82618">
        <ele>91</ele>
        <time>2021-03-06T13:03:53Z</time>
      </trkpt>
      <trkpt lat="43.636" lon="3.82625">
        <ele>91</ele>
        <time>2021-03-06T13:03:54Z</time>
      </trkpt>
      <trkpt lat="43.63601" lon="3.82632">
        <ele>91</ele>
        <time>2021-03-06T13:03:55Z</time>
      </trkpt>
      <trkpt lat="43.63603" lon="3.82639">
        <ele>91</ele>
        <time>2021-03-06T13:03:57Z</time>
      </trkpt>
      <trkpt lat="43.63607" lon="3.82645">
        <ele>91</ele>
        <time>2021-03-06T13:03:58Z</time>
      </trkpt>
      <trkpt lat="43.63611" lon="3.82649">
        <ele>91</ele>
        <time>2021-03-06T13:03:59Z</time>
      </trkpt>
      <trkpt lat="43.63617" lon="3.82651">
        <ele>91</ele>
        <time>2021-03-06T13:04:00Z</time>
      </trkpt>
      <trkpt lat="43.63621" lon="3.82655">
        <ele>91</ele>
        <time>2021-03-06T13:04:01Z</time>
      </trkpt>
      <trkpt lat="43.63626" lon="3.8266">
        <ele>91</ele>
        <time>2021-03-06T13:04:02Z</time>
      </trkpt>
      <trkpt lat="43.6363" lon="3.82667">
        <ele>91</ele>
        <time>2021-03-06T13:04:03Z</time>
      </trkpt>
      <trkpt lat="43.63633" lon="3.82672">
        <ele>91</ele>
        <time>2021-03-06T13:04:04Z</time>
      </trkpt>
      <trkpt lat="43.63637" lon="3.82677">
        <ele>91</ele>
        <time>2021-03-06T13:04:05Z</time>
      </trkpt>
      <trkpt lat="43.6364" lon="3.82682">
        <ele>88</ele>
        <time>2021-03-06T13:04:06Z</time>
      </trkpt>
      <trkpt lat="43.63644" lon="3.82688">
        <ele>88</ele>
        <time>2021-03-06T13:04:07Z</time>
      </trkpt>
      <trkpt lat="43.63642" lon="3.82697">
        <ele>88</ele>
        <time>2021-03-06T13:04:08Z</time>
      </trkpt>
      <trkpt lat="43.6364" lon="3.82707">
        <ele>88</ele>
        <time>2021-03-06T13:04:09Z</time>
      </trkpt>
      <trkpt lat="43.63637" lon="3.82717">
        <ele>88</ele>
        <time>2021-03-06T13:04:10Z</time>
      </trkpt>
      <trkpt lat="43.63636" lon="3.82727">
        <ele>88</ele>
        <time>2021-03-06T13:04:11Z</time>
      </trkpt>
      <trkpt lat="43.63635" lon="3.82735">
        <ele>88</ele>
        <time>2021-03-06T13:04:12Z</time>
      </trkpt>
      <trkpt lat="43.63635" lon="3.82744">
        <ele>88</ele>
        <time>2021-03-06T13:04:13Z</time>
      </trkpt>
      <trkpt lat="43.63635" lon="3.82757">
        <ele>88</ele>
        <time>2021-03-06T13:04:14Z</time>
      </trkpt>
      <trkpt lat="43.63636" lon="3.8276">
        <ele>88</ele>
        <time>2021-03-06T13:04:15Z</time>
      </trkpt>
      <trkpt lat="43.63639" lon="3.82762">
        <ele>88</ele>
        <time>2021-03-06T13:04:17Z</time>
      </trkpt>
      <trkpt lat="43.63641" lon="3.82762">
        <ele>88</ele>
        <time>2021-03-06T13:04:19Z</time>
      </trkpt>
      <trkpt lat="43.63644" lon="3.82763">
        <ele>88</ele>
        <time>2021-03-06T13:04:20Z</time>
      </trkpt>
      <trkpt lat="43.63647" lon="3.82765">
        <ele>88</ele>
        <time>2021-03-06T13:04:22Z</time>
      </trkpt>
      <trkpt lat="43.63649" lon="3.82767">
        <ele>88</ele>
        <time>2021-03-06T13:04:24Z</time>
      </trkpt>
      <trkpt lat="43.63652" lon="3.8277">
        <ele>83</ele>
        <time>2021-03-06T13:04:26Z</time>
      </trkpt>
      <trkpt lat="43.63655" lon="3.8277">
        <ele>83</ele>
        <time>2021-03-06T13:04:28Z</time>
      </trkpt>
      <trkpt lat="43.63657" lon="3.8277">
        <ele>83</ele>
        <time>2021-03-06T13:04:29Z</time>
      </trkpt>
      <trkpt lat="43.63659" lon="3.82769">
        <ele>83</ele>
        <time>2021-03-06T13:04:30Z</time>
      </trkpt>
      <trkpt lat="43.63662" lon="3.82768">
        <ele>83</ele>
        <time>2021-03-06T13:04:31Z</time>
      </trkpt>
      <trkpt lat="43.63664" lon="3.82767">
        <ele>83</ele>
        <time>2021-03-06T13:04:32Z</time>
      </trkpt>
      <trkpt lat="43.63666" lon="3.82767">
        <ele>83</ele>
        <time>2021-03-06T13:04:33Z</time>
      </trkpt>
      <trkpt lat="43.63668" lon="3.82766">
        <ele>83</ele>
        <time>2021-03-06T13:04:34Z</time>
      </trkpt>
      <trkpt lat="43.6367" lon="3.82765">
        <ele>83</ele>
        <time>2021-03-06T13:04:35Z</time>
      </trkpt>
      <trkpt lat="43.63672" lon="3.82765">
        <ele>81</ele>
        <time>2021-03-06T13:04:36Z</time>
      </trkpt>
      <trkpt lat="43.63675" lon="3.82765">
        <ele>81</ele>
        <time>2021-03-06T13:04:38Z</time>
      </trkpt>
      <trkpt lat="43.6368" lon="3.82763">
        <ele>81</ele>
        <time>2021-03-06T13:04:40Z</time>
      </trkpt>
      <trkpt lat="43.63683" lon="3.82762">
        <ele>81</ele>
        <time>2021-03-06T13:04:42Z</time>
      </trkpt>
      <trkpt lat="43.63687" lon="3.82761">
        <ele>81</ele>
        <time>2021-03-06T13:04:45Z</time>
      </trkpt>
      <trkpt lat="43.63689" lon="3.8276">
        <ele>80</ele>
        <time>2021-03-06T13:04:46Z</time>
      </trkpt>
      <trkpt lat="43.63691" lon="3.8276">
        <ele>80</ele>
        <time>2021-03-06T13:04:47Z</time>
      </trkpt>
      <trkpt lat="43.63694" lon="3.82759">
        <ele>80</ele>
        <time>2021-03-06T13:04:48Z</time>
      </trkpt>
      <trkpt lat="43.63697" lon="3.82759">
        <ele>80</ele>
        <time>2021-03-06T13:04:49Z</time>
      </trkpt>
      <trkpt lat="43.63705" lon="3.82758">
        <ele>80</ele>
        <time>2021-03-06T13:04:50Z</time>
      </trkpt>
      <trkpt lat="43.63708" lon="3.82757">
        <ele>80</ele>
        <time>2021-03-06T13:04:51Z</time>
      </trkpt>
      <trkpt lat="43.63712" lon="3.82756">
        <ele>80</ele>
        <time>2021-03-06T13:04:52Z</time>
      </trkpt>
      <trkpt lat="43.63716" lon="3.82755">
        <ele>80</ele>
        <time>2021-03-06T13:04:54Z</time>
      </trkpt>
      <trkpt lat="43.6372" lon="3.82754">
        <ele>80</ele>
        <time>2021-03-06T13:04:55Z</time>
      </trkpt>
      <trkpt lat="43.63723" lon="3.82753">
        <ele>80</ele>
        <time>2021-03-06T13:04:56Z</time>
      </trkpt>
      <trkpt lat="43.63727" lon="3.82752">
        <ele>80</ele>
        <time>2021-03-06T13:04:57Z</time>
      </trkpt>
      <trkpt lat="43.63731" lon="3.82751">
        <ele>80</ele>
        <time>2021-03-06T13:04:58Z</time>
      </trkpt>
      <trkpt lat="43.63735" lon="3.82751">
        <ele>80</ele>
        <time>2021-03-06T13:04:59Z</time>
      </trkpt>
      <trkpt lat="43.63739" lon="3.8275">
        <ele>80</ele>
        <time>2021-03-06T13:05:00Z</time>
      </trkpt>
      <trkpt lat="43.63743" lon="3.82749">
        <ele>80</ele>
        <time>2021-03-06T13:05:01Z</time>
      </trkpt>
      <trkpt lat="43.63751" lon="3.82746">
        <ele>80</ele>
        <time>2021-03-06T13:05:02Z</time>
      </trkpt>
      <trkpt lat="43.63754" lon="3.82746">
        <ele>80</ele>
        <time>2021-03-06T13:05:03Z</time>
      </trkpt>
      <trkpt lat="43.63761" lon="3.82744">
        <ele>80</ele>
        <time>2021-03-06T13:05:05Z</time>
      </trkpt>
      <trkpt lat="43.63765" lon="3.82744">
        <ele>80</ele>
        <time>2021-03-06T13:05:06Z</time>
      </trkpt>
      <trkpt lat="43.63769" lon="3.82743">
        <ele>80</ele>
        <time>2021-03-06T13:05:07Z</time>
      </trkpt>
      <trkpt lat="43.63773" lon="3.82743">
        <ele>80</ele>
        <time>2021-03-06T13:05:08Z</time>
      </trkpt>
      <trkpt lat="43.63777" lon="3.82742">
        <ele>80</ele>
        <time>2021-03-06T13:05:09Z</time>
      </trkpt>
      <trkpt lat="43.6378" lon="3.82741">
        <ele>80</ele>
        <time>2021-03-06T13:05:10Z</time>
      </trkpt>
      <trkpt lat="43.63784" lon="3.8274">
        <ele>80</ele>
        <time>2021-03-06T13:05:11Z</time>
      </trkpt>
      <trkpt lat="43.63787" lon="3.82739">
        <ele>80</ele>
        <time>2021-03-06T13:05:12Z</time>
      </trkpt>
      <trkpt lat="43.63791" lon="3.82739">
        <ele>80</ele>
        <time>2021-03-06T13:05:13Z</time>
      </trkpt>
      <trkpt lat="43.63794" lon="3.82738">
        <ele>80</ele>
        <time>2021-03-06T13:05:14Z</time>
      </trkpt>
      <trkpt lat="43.63797" lon="3.82737">
        <ele>80</ele>
        <time>2021-03-06T13:05:15Z</time>
      </trkpt>
      <trkpt lat="43.638" lon="3.82736">
        <ele>80</ele>
        <time>2021-03-06T13:05:16Z</time>
      </trkpt>
      <trkpt lat="43.63803" lon="3.82734">
        <ele>80</ele>
        <time>2021-03-06T13:05:17Z</time>
      </trkpt>
      <trkpt lat="43.63807" lon="3.82732">
        <ele>80</ele>
        <time>2021-03-06T13:05:18Z</time>
      </trkpt>
      <trkpt lat="43.63815" lon="3.82728">
        <ele>80</ele>
        <time>2021-03-06T13:05:20Z</time>
      </trkpt>
      <trkpt lat="43.63819" lon="3.82726">
        <ele>80</ele>
        <time>2021-03-06T13:05:22Z</time>
      </trkpt>
      <trkpt lat="43.63823" lon="3.82724">
        <ele>80</ele>
        <time>2021-03-06T13:05:23Z</time>
      </trkpt>
      <trkpt lat="43.6383" lon="3.82722">
        <ele>80</ele>
        <time>2021-03-06T13:05:24Z</time>
      </trkpt>
      <trkpt lat="43.63833" lon="3.82721">
        <ele>80</ele>
        <time>2021-03-06T13:05:25Z</time>
      </trkpt>
      <trkpt lat="43.63837" lon="3.8272">
        <ele>81</ele>
        <time>2021-03-06T13:05:26Z</time>
      </trkpt>
      <trkpt lat="43.63839" lon="3.82719">
        <ele>81</ele>
        <time>2021-03-06T13:05:28Z</time>
      </trkpt>
      <trkpt lat="43.63845" lon="3.82717">
        <ele>81</ele>
        <time>2021-03-06T13:05:29Z</time>
      </trkpt>
      <trkpt lat="43.63848" lon="3.82717">
        <ele>81</ele>
        <time>2021-03-06T13:05:30Z</time>
      </trkpt>
      <trkpt lat="43.6385" lon="3.82716">
        <ele>81</ele>
        <time>2021-03-06T13:05:31Z</time>
      </trkpt>
      <trkpt lat="43.63853" lon="3.82715">
        <ele>81</ele>
        <time>2021-03-06T13:05:32Z</time>
      </trkpt>
      <trkpt lat="43.63856" lon="3.82714">
        <ele>81</ele>
        <time>2021-03-06T13:05:33Z</time>
      </trkpt>
      <trkpt lat="43.63858" lon="3.82714">
        <ele>81</ele>
        <time>2021-03-06T13:05:34Z</time>
      </trkpt>
      <trkpt lat="43.6386" lon="3.82713">
        <ele>81</ele>
        <time>2021-03-06T13:05:35Z</time>
      </trkpt>
      <trkpt lat="43.63863" lon="3.82712">
        <ele>83</ele>
        <time>2021-03-06T13:05:36Z</time>
      </trkpt>
      <trkpt lat="43.63865" lon="3.82712">
        <ele>83</ele>
        <time>2021-03-06T13:05:37Z</time>
      </trkpt>
      <trkpt lat="43.63867" lon="3.82712">
        <ele>83</ele>
        <time>2021-03-06T13:05:38Z</time>
      </trkpt>
      <trkpt lat="43.63869" lon="3.82714">
        <ele>83</ele>
        <time>2021-03-06T13:05:39Z</time>
      </trkpt>
      <trkpt lat="43.63873" lon="3.8272">
        <ele>83</ele>
        <time>2021-03-06T13:05:41Z</time>
      </trkpt>
      <trkpt lat="43.63874" lon="3.82724">
        <ele>83</ele>
        <time>2021-03-06T13:05:42Z</time>
      </trkpt>
      <trkpt lat="43.63876" lon="3.82728">
        <ele>83</ele>
        <time>2021-03-06T13:05:43Z</time>
      </trkpt>
      <trkpt lat="43.63877" lon="3.82732">
        <ele>83</ele>
        <time>2021-03-06T13:05:44Z</time>
      </trkpt>
      <trkpt lat="43.63879" lon="3.82736">
        <ele>84</ele>
        <time>2021-03-06T13:05:46Z</time>
      </trkpt>
      <trkpt lat="43.63881" lon="3.8274">
        <ele>84</ele>
        <time>2021-03-06T13:05:47Z</time>
      </trkpt>
      <trkpt lat="43.63883" lon="3.82743">
        <ele>84</ele>
        <time>2021-03-06T13:05:48Z</time>
      </trkpt>
      <trkpt lat="43.63889" lon="3.82746">
        <ele>84</ele>
        <time>2021-03-06T13:05:49Z</time>
      </trkpt>
      <trkpt lat="43.63892" lon="3.82748">
        <ele>84</ele>
        <time>2021-03-06T13:05:50Z</time>
      </trkpt>
      <trkpt lat="43.63895" lon="3.8275">
        <ele>84</ele>
        <time>2021-03-06T13:05:51Z</time>
      </trkpt>
      <trkpt lat="43.63898" lon="3.82759">
        <ele>84</ele>
        <time>2021-03-06T13:05:53Z</time>
      </trkpt>
      <trkpt lat="43.639" lon="3.82763">
        <ele>84</ele>
        <time>2021-03-06T13:05:54Z</time>
      </trkpt>
      <trkpt lat="43.63902" lon="3.82769">
        <ele>84</ele>
        <time>2021-03-06T13:05:55Z</time>
      </trkpt>
      <trkpt lat="43.63903" lon="3.82774">
        <ele>83</ele>
        <time>2021-03-06T13:05:56Z</time>
      </trkpt>
      <trkpt lat="43.63905" lon="3.82779">
        <ele>83</ele>
        <time>2021-03-06T13:05:57Z</time>
      </trkpt>
      <trkpt lat="43.63907" lon="3.82784">
        <ele>83</ele>
        <time>2021-03-06T13:05:58Z</time>
      </trkpt>
      <trkpt lat="43.63909" lon="3.82789">
        <ele>83</ele>
        <time>2021-03-06T13:05:59Z</time>
      </trkpt>
      <trkpt lat="43.63911" lon="3.82793">
        <ele>83</ele>
        <time>2021-03-06T13:06:00Z</time>
      </trkpt>
      <trkpt lat="43.63914" lon="3.82798">
        <ele>83</ele>
        <time>2021-03-06T13:06:01Z</time>
      </trkpt>
      <trkpt lat="43.63917" lon="3.82802">
        <ele>83</ele>
        <time>2021-03-06T13:06:02Z</time>
      </trkpt>
      <trkpt lat="43.63919" lon="3.82805">
        <ele>83</ele>
        <time>2021-03-06T13:06:03Z</time>
      </trkpt>
      <trkpt lat="43.63921" lon="3.82809">
        <ele>83</ele>
        <time>2021-03-06T13:06:04Z</time>
      </trkpt>
      <trkpt lat="43.63924" lon="3.82812">
        <ele>83</ele>
        <time>2021-03-06T13:06:05Z</time>
      </trkpt>
      <trkpt lat="43.63926" lon="3.82815">
        <ele>83</ele>
        <time>2021-03-06T13:06:06Z</time>
      </trkpt>
      <trkpt lat="43.63928" lon="3.82819">
        <ele>83</ele>
        <time>2021-03-06T13:06:07Z</time>
      </trkpt>
      <trkpt lat="43.6393" lon="3.82822">
        <ele>83</ele>
        <time>2021-03-06T13:06:08Z</time>
      </trkpt>
      <trkpt lat="43.63932" lon="3.82824">
        <ele>83</ele>
        <time>2021-03-06T13:06:09Z</time>
      </trkpt>
      <trkpt lat="43.63934" lon="3.82824">
        <ele>83</ele>
        <time>2021-03-06T13:06:10Z</time>
      </trkpt>
      <trkpt lat="43.63938" lon="3.82824">
        <ele>83</ele>
        <time>2021-03-06T13:06:12Z</time>
      </trkpt>
      <trkpt lat="43.6394" lon="3.82823">
        <ele>83</ele>
        <time>2021-03-06T13:06:13Z</time>
      </trkpt>
      <trkpt lat="43.63943" lon="3.82821">
        <ele>83</ele>
        <time>2021-03-06T13:06:14Z</time>
      </trkpt>
      <trkpt lat="43.63945" lon="3.8282">
        <ele>83</ele>
        <time>2021-03-06T13:06:15Z</time>
      </trkpt>
      <trkpt lat="43.63947" lon="3.82818">
        <ele>83</ele>
        <time>2021-03-06T13:06:17Z</time>
      </trkpt>
      <trkpt lat="43.63951" lon="3.82816">
        <ele>83</ele>
        <time>2021-03-06T13:06:18Z</time>
      </trkpt>
      <trkpt lat="43.63953" lon="3.82815">
        <ele>83</ele>
        <time>2021-03-06T13:06:19Z</time>
      </trkpt>
      <trkpt lat="43.63955" lon="3.82814">
        <ele>83</ele>
        <time>2021-03-06T13:06:21Z</time>
      </trkpt>
      <trkpt lat="43.63957" lon="3.82813">
        <ele>83</ele>
        <time>2021-03-06T13:06:22Z</time>
      </trkpt>
      <trkpt lat="43.63959" lon="3.82812">
        <ele>83</ele>
        <time>2021-03-06T13:06:23Z</time>
      </trkpt>
      <trkpt lat="43.63962" lon="3.82808">
        <ele>83</ele>
        <time>2021-03-06T13:06:24Z</time>
      </trkpt>
      <trkpt lat="43.63964" lon="3.82807">
        <ele>83</ele>
        <time>2021-03-06T13:06:25Z</time>
      </trkpt>
      <trkpt lat="43.63967" lon="3.82806">
        <ele>83</ele>
        <time>2021-03-06T13:06:26Z</time>
      </trkpt>
      <trkpt lat="43.6397" lon="3.82805">
        <ele>83</ele>
        <time>2021-03-06T13:06:27Z</time>
      </trkpt>
      <trkpt lat="43.63973" lon="3.82804">
        <ele>83</ele>
        <time>2021-03-06T13:06:29Z</time>
      </trkpt>
      <trkpt lat="43.63976" lon="3.82803">
        <ele>83</ele>
        <time>2021-03-06T13:06:30Z</time>
      </trkpt>
      <trkpt lat="43.63978" lon="3.82801">
        <ele>83</ele>
        <time>2021-03-06T13:06:31Z</time>
      </trkpt>
      <trkpt lat="43.6398" lon="3.82799">
        <ele>83</ele>
        <time>2021-03-06T13:06:32Z</time>
      </trkpt>
      <trkpt lat="43.63983" lon="3.82798">
        <ele>83</ele>
        <time>2021-03-06T13:06:33Z</time>
      </trkpt>
      <trkpt lat="43.63986" lon="3.82797">
        <ele>83</ele>
        <time>2021-03-06T13:06:34Z</time>
      </trkpt>
      <trkpt lat="43.63989" lon="3.82797">
        <ele>83</ele>
        <time>2021-03-06T13:06:35Z</time>
      </trkpt>
      <trkpt lat="43.63995" lon="3.82797">
        <ele>83</ele>
        <time>2021-03-06T13:06:36Z</time>
      </trkpt>
      <trkpt lat="43.63998" lon="3.82796">
        <ele>83</ele>
        <time>2021-03-06T13:06:37Z</time>
      </trkpt>
      <trkpt lat="43.64001" lon="3.82795">
        <ele>83</ele>
        <time>2021-03-06T13:06:38Z</time>
      </trkpt>
      <trkpt lat="43.64003" lon="3.82795">
        <ele>83</ele>
        <time>2021-03-06T13:06:39Z</time>
      </trkpt>
      <trkpt lat="43.64006" lon="3.82794">
        <ele>83</ele>
        <time>2021-03-06T13:06:40Z</time>
      </trkpt>
      <trkpt lat="43.6401" lon="3.82793">
        <ele>83</ele>
        <time>2021-03-06T13:06:42Z</time>
      </trkpt>
      <trkpt lat="43.64012" lon="3.82792">
        <ele>83</ele>
        <time>2021-03-06T13:06:43Z</time>
      </trkpt>
      <trkpt lat="43.64014" lon="3.82792">
        <ele>83</ele>
        <time>2021-03-06T13:06:44Z</time>
      </trkpt>
      <trkpt lat="43.64015" lon="3.8279">
        <ele>83</ele>
        <time>2021-03-06T13:06:45Z</time>
      </trkpt>
      <trkpt lat="43.64016" lon="3.82787">
        <ele>83</ele>
        <time>2021-03-06T13:06:46Z</time>
      </trkpt>
      <trkpt lat="43.64017" lon="3.82783">
        <ele>83</ele>
        <time>2021-03-06T13:06:47Z</time>
      </trkpt>
      <trkpt lat="43.64018" lon="3.82779">
        <ele>83</ele>
        <time>2021-03-06T13:06:48Z</time>
      </trkpt>
      <trkpt lat="43.64019" lon="3.82775">
        <ele>83</ele>
        <time>2021-03-06T13:06:49Z</time>
      </trkpt>
      <trkpt lat="43.64021" lon="3.82772">
        <ele>83</ele>
        <time>2021-03-06T13:06:51Z</time>
      </trkpt>
      <trkpt lat="43.64022" lon="3.82769">
        <ele>83</ele>
        <time>2021-03-06T13:06:52Z</time>
      </trkpt>
      <trkpt lat="43.64024" lon="3.82766">
        <ele>83</ele>
        <time>2021-03-06T13:06:53Z</time>
      </trkpt>
      <trkpt lat="43.64028" lon="3.82759">
        <ele>83</ele>
        <time>2021-03-06T13:06:54Z</time>
      </trkpt>
      <trkpt lat="43.64031" lon="3.82752">
        <ele>84</ele>
        <time>2021-03-06T13:06:56Z</time>
      </trkpt>
      <trkpt lat="43.64033" lon="3.82747">
        <ele>84</ele>
        <time>2021-03-06T13:06:57Z</time>
      </trkpt>
      <trkpt lat="43.64034" lon="3.82743">
        <ele>84</ele>
        <time>2021-03-06T13:06:58Z</time>
      </trkpt>
      <trkpt lat="43.64036" lon="3.82739">
        <ele>84</ele>
        <time>2021-03-06T13:06:59Z</time>
      </trkpt>
      <trkpt lat="43.64038" lon="3.82735">
        <ele>84</ele>
        <time>2021-03-06T13:07:00Z</time>
      </trkpt>
      <trkpt lat="43.6404" lon="3.82732">
        <ele>84</ele>
        <time>2021-03-06T13:07:01Z</time>
      </trkpt>
      <trkpt lat="43.64042" lon="3.82728">
        <ele>84</ele>
        <time>2021-03-06T13:07:02Z</time>
      </trkpt>
      <trkpt lat="43.64044" lon="3.82725">
        <ele>84</ele>
        <time>2021-03-06T13:07:03Z</time>
      </trkpt>
      <trkpt lat="43.64046" lon="3.82721">
        <ele>84</ele>
        <time>2021-03-06T13:07:04Z</time>
      </trkpt>
      <trkpt lat="43.64048" lon="3.82718">
        <ele>84</ele>
        <time>2021-03-06T13:07:05Z</time>
      </trkpt>
      <trkpt lat="43.6405" lon="3.82714">
        <ele>86</ele>
        <time>2021-03-06T13:07:06Z</time>
      </trkpt>
      <trkpt lat="43.64051" lon="3.8271">
        <ele>86</ele>
        <time>2021-03-06T13:07:07Z</time>
      </trkpt>
      <trkpt lat="43.64053" lon="3.82707">
        <ele>86</ele>
        <time>2021-03-06T13:07:08Z</time>
      </trkpt>
      <trkpt lat="43.64056" lon="3.82703">
        <ele>86</ele>
        <time>2021-03-06T13:07:09Z</time>
      </trkpt>
      <trkpt lat="43.64057" lon="3.82699">
        <ele>86</ele>
        <time>2021-03-06T13:07:10Z</time>
      </trkpt>
      <trkpt lat="43.64058" lon="3.82695">
        <ele>86</ele>
        <time>2021-03-06T13:07:11Z</time>
      </trkpt>
      <trkpt lat="43.64059" lon="3.82691">
        <ele>86</ele>
        <time>2021-03-06T13:07:13Z</time>
      </trkpt>
      <trkpt lat="43.6406" lon="3.82687">
        <ele>86</ele>
        <time>2021-03-06T13:07:14Z</time>
      </trkpt>
      <trkpt lat="43.64061" lon="3.82683">
        <ele>86</ele>
        <time>2021-03-06T13:07:15Z</time>
      </trkpt>
      <trkpt lat="43.64062" lon="3.82679">
        <ele>88</ele>
        <time>2021-03-06T13:07:16Z</time>
      </trkpt>
      <trkpt lat="43.64063" lon="3.82675">
        <ele>88</ele>
        <time>2021-03-06T13:07:17Z</time>
      </trkpt>
      <trkpt lat="43.64065" lon="3.82672">
        <ele>88</ele>
        <time>2021-03-06T13:07:18Z</time>
      </trkpt>
      <trkpt lat="43.64067" lon="3.82669">
        <ele>88</ele>
        <time>2021-03-06T13:07:19Z</time>
      </trkpt>
      <trkpt lat="43.64068" lon="3.82666">
        <ele>88</ele>
        <time>2021-03-06T13:07:20Z</time>
      </trkpt>
      <trkpt lat="43.6407" lon="3.82662">
        <ele>88</ele>
        <time>2021-03-06T13:07:21Z</time>
      </trkpt>
      <trkpt lat="43.64072" lon="3.82659">
        <ele>88</ele>
        <time>2021-03-06T13:07:22Z</time>
      </trkpt>
      <trkpt lat="43.64074" lon="3.82656">
        <ele>88</ele>
        <time>2021-03-06T13:07:23Z</time>
      </trkpt>
      <trkpt lat="43.64075" lon="3.82653">
        <ele>88</ele>
        <time>2021-03-06T13:07:24Z</time>
      </trkpt>
      <trkpt lat="43.64077" lon="3.8265">
        <ele>88</ele>
        <time>2021-03-06T13:07:25Z</time>
      </trkpt>
      <trkpt lat="43.64078" lon="3.82646">
        <ele>89</ele>
        <time>2021-03-06T13:07:26Z</time>
      </trkpt>
      <trkpt lat="43.64079" lon="3.82643">
        <ele>89</ele>
        <time>2021-03-06T13:07:27Z</time>
      </trkpt>
      <trkpt lat="43.6408" lon="3.8264">
        <ele>89</ele>
        <time>2021-03-06T13:07:28Z</time>
      </trkpt>
      <trkpt lat="43.64081" lon="3.82636">
        <ele>89</ele>
        <time>2021-03-06T13:07:29Z</time>
      </trkpt>
      <trkpt lat="43.64081" lon="3.82633">
        <ele>89</ele>
        <time>2021-03-06T13:07:30Z</time>
      </trkpt>
      <trkpt lat="43.64082" lon="3.82629">
        <ele>89</ele>
        <time>2021-03-06T13:07:31Z</time>
      </trkpt>
      <trkpt lat="43.64082" lon="3.82626">
        <ele>89</ele>
        <time>2021-03-06T13:07:32Z</time>
      </trkpt>
      <trkpt lat="43.64082" lon="3.82622">
        <ele>89</ele>
        <time>2021-03-06T13:07:33Z</time>
      </trkpt>
      <trkpt lat="43.64082" lon="3.82618">
        <ele>89</ele>
        <time>2021-03-06T13:07:34Z</time>
      </trkpt>
      <trkpt lat="43.64083" lon="3.82615">
        <ele>89</ele>
        <time>2021-03-06T13:07:35Z</time>
      </trkpt>
      <trkpt lat="43.64084" lon="3.82611">
        <ele>91</ele>
        <time>2021-03-06T13:07:36Z</time>
      </trkpt>
      <trkpt lat="43.64085" lon="3.82607">
        <ele>91</ele>
        <time>2021-03-06T13:07:37Z</time>
      </trkpt>
      <trkpt lat="43.64086" lon="3.82603">
        <ele>91</ele>
        <time>2021-03-06T13:07:38Z</time>
      </trkpt>
      <trkpt lat="43.64087" lon="3.826">
        <ele>91</ele>
        <time>2021-03-06T13:07:39Z</time>
      </trkpt>
      <trkpt lat="43.64089" lon="3.82596">
        <ele>91</ele>
        <time>2021-03-06T13:07:40Z</time>
      </trkpt>
      <trkpt lat="43.6409" lon="3.82593">
        <ele>91</ele>
        <time>2021-03-06T13:07:41Z</time>
      </trkpt>
      <trkpt lat="43.64091" lon="3.82589">
        <ele>91</ele>
        <time>2021-03-06T13:07:42Z</time>
      </trkpt>
      <trkpt lat="43.64092" lon="3.82585">
        <ele>91</ele>
        <time>2021-03-06T13:07:43Z</time>
      </trkpt>
      <trkpt lat="43.64094" lon="3.82582">
        <ele>91</ele>
        <time>2021-03-06T13:07:44Z</time>
      </trkpt>
      <trkpt lat="43.64096" lon="3.82579">
        <ele>91</ele>
        <time>2021-03-06T13:07:45Z</time>
      </trkpt>
      <trkpt lat="43.64098" lon="3.82576">
        <ele>92</ele>
        <time>2021-03-06T13:07:46Z</time>
      </trkpt>
      <trkpt lat="43.64099" lon="3.82572">
        <ele>92</ele>
        <time>2021-03-06T13:07:47Z</time>
      </trkpt>
      <trkpt lat="43.641" lon="3.82568">
        <ele>92</ele>
        <time>2021-03-06T13:07:48Z</time>
      </trkpt>
      <trkpt lat="43.64101" lon="3.82564">
        <ele>92</ele>
        <time>2021-03-06T13:07:49Z</time>
      </trkpt>
      <trkpt lat="43.64103" lon="3.82561">
        <ele>92</ele>
        <time>2021-03-06T13:07:50Z</time>
      </trkpt>
      <trkpt lat="43.64105" lon="3.82558">
        <ele>92</ele>
        <time>2021-03-06T13:07:51Z</time>
      </trkpt>
      <trkpt lat="43.64106" lon="3.82554">
        <ele>92</ele>
        <time>2021-03-06T13:07:52Z</time>
      </trkpt>
      <trkpt lat="43.64107" lon="3.8255">
        <ele>92</ele>
        <time>2021-03-06T13:07:53Z</time>
      </trkpt>
      <trkpt lat="43.64108" lon="3.82547">
        <ele>92</ele>
        <time>2021-03-06T13:07:54Z</time>
      </trkpt>
      <trkpt lat="43.64109" lon="3.82543">
        <ele>92</ele>
        <time>2021-03-06T13:07:55Z</time>
      </trkpt>
      <trkpt lat="43.6411" lon="3.8254">
        <ele>94</ele>
        <time>2021-03-06T13:07:56Z</time>
      </trkpt>
      <trkpt lat="43.64111" lon="3.82536">
        <ele>94</ele>
        <time>2021-03-06T13:07:57Z</time>
      </trkpt>
      <trkpt lat="43.64112" lon="3.82533">
        <ele>94</ele>
        <time>2021-03-06T13:07:58Z</time>
      </trkpt>
      <trkpt lat="43.64114" lon="3.8253">
        <ele>94</ele>
        <time>2021-03-06T13:07:59Z</time>
      </trkpt>
      <trkpt lat="43.64115" lon="3.82527">
        <ele>94</ele>
        <time>2021-03-06T13:08:00Z</time>
      </trkpt>
      <trkpt lat="43.64116" lon="3.82524">
        <ele>94</ele>
        <time>2021-03-06T13:08:01Z</time>
      </trkpt>
      <trkpt lat="43.64118" lon="3.82521">
        <ele>94</ele>
        <time>2021-03-06T13:08:02Z</time>
      </trkpt>
      <trkpt lat="43.64119" lon="3.82518">
        <ele>94</ele>
        <time>2021-03-06T13:08:03Z</time>
      </trkpt>
      <trkpt lat="43.6412" lon="3.82515">
        <ele>94</ele>
        <time>2021-03-06T13:08:04Z</time>
      </trkpt>
      <trkpt lat="43.64122" lon="3.82512">
        <ele>94</ele>
        <time>2021-03-06T13:08:05Z</time>
      </trkpt>
      <trkpt lat="43.64123" lon="3.82509">
        <ele>95</ele>
        <time>2021-03-06T13:08:06Z</time>
      </trkpt>
      <trkpt lat="43.64125" lon="3.82507">
        <ele>95</ele>
        <time>2021-03-06T13:08:07Z</time>
      </trkpt>
      <trkpt lat="43.64127" lon="3.82505">
        <ele>95</ele>
        <time>2021-03-06T13:08:08Z</time>
      </trkpt>
      <trkpt lat="43.64128" lon="3.82502">
        <ele>95</ele>
        <time>2021-03-06T13:08:09Z</time>
      </trkpt>
      <trkpt lat="43.6413" lon="3.82499">
        <ele>95</ele>
        <time>2021-03-06T13:08:10Z</time>
      </trkpt>
      <trkpt lat="43.64132" lon="3.82495">
        <ele>95</ele>
        <time>2021-03-06T13:08:11Z</time>
      </trkpt>
      <trkpt lat="43.64134" lon="3.82492">
        <ele>95</ele>
        <time>2021-03-06T13:08:12Z</time>
      </trkpt>
      <trkpt lat="43.64136" lon="3.82489">
        <ele>95</ele>
        <time>2021-03-06T13:08:13Z</time>
      </trkpt>
      <trkpt lat="43.64137" lon="3.82486">
        <ele>95</ele>
        <time>2021-03-06T13:08:14Z</time>
      </trkpt>
      <trkpt lat="43.64137" lon="3.82482">
        <ele>95</ele>
        <time>2021-03-06T13:08:15Z</time>
      </trkpt>
      <trkpt lat="43.64138" lon="3.82479">
        <ele>96</ele>
        <time>2021-03-06T13:08:16Z</time>
      </trkpt>
      <trkpt lat="43.64139" lon="3.82475">
        <ele>96</ele>
        <time>2021-03-06T13:08:17Z</time>
      </trkpt>
      <trkpt lat="43.64139" lon="3.82472">
        <ele>96</ele>
        <time>2021-03-06T13:08:18Z</time>
      </trkpt>
      <trkpt lat="43.64141" lon="3.8247">
        <ele>96</ele>
        <time>2021-03-06T13:08:19Z</time>
      </trkpt>
      <trkpt lat="43.64142" lon="3.82466">
        <ele>96</ele>
        <time>2021-03-06T13:08:20Z</time>
      </trkpt>
      <trkpt lat="43.64143" lon="3.82462">
        <ele>96</ele>
        <time>2021-03-06T13:08:21Z</time>
      </trkpt>
      <trkpt lat="43.64144" lon="3.82459">
        <ele>96</ele>
        <time>2021-03-06T13:08:22Z</time>
      </trkpt>
      <trkpt lat="43.64145" lon="3.82455">
        <ele>96</ele>
        <time>2021-03-06T13:08:23Z</time>
      </trkpt>
      <trkpt lat="43.64146" lon="3.82451">
        <ele>96</ele>
        <time>2021-03-06T13:08:24Z</time>
      </trkpt>
      <trkpt lat="43.64145" lon="3.82447">
        <ele>96</ele>
        <time>2021-03-06T13:08:25Z</time>
      </trkpt>
      <trkpt lat="43.64145" lon="3.82443">
        <ele>97</ele>
        <time>2021-03-06T13:08:26Z</time>
      </trkpt>
      <trkpt lat="43.64146" lon="3.8244">
        <ele>97</ele>
        <time>2021-03-06T13:08:27Z</time>
      </trkpt>
      <trkpt lat="43.64147" lon="3.82436">
        <ele>97</ele>
        <time>2021-03-06T13:08:28Z</time>
      </trkpt>
      <trkpt lat="43.64148" lon="3.82433">
        <ele>97</ele>
        <time>2021-03-06T13:08:29Z</time>
      </trkpt>
      <trkpt lat="43.64149" lon="3.8243">
        <ele>97</ele>
        <time>2021-03-06T13:08:30Z</time>
      </trkpt>
      <trkpt lat="43.64149" lon="3.82422">
        <ele>97</ele>
        <time>2021-03-06T13:08:31Z</time>
      </trkpt>
      <trkpt lat="43.64149" lon="3.82417">
        <ele>97</ele>
        <time>2021-03-06T13:08:32Z</time>
      </trkpt>
      <trkpt lat="43.64151" lon="3.82414">
        <ele>97</ele>
        <time>2021-03-06T13:08:33Z</time>
      </trkpt>
      <trkpt lat="43.64152" lon="3.8241">
        <ele>97</ele>
        <time>2021-03-06T13:08:34Z</time>
      </trkpt>
      <trkpt lat="43.64154" lon="3.82407">
        <ele>97</ele>
        <time>2021-03-06T13:08:35Z</time>
      </trkpt>
      <trkpt lat="43.64156" lon="3.82403">
        <ele>98</ele>
        <time>2021-03-06T13:08:36Z</time>
      </trkpt>
      <trkpt lat="43.64157" lon="3.824">
        <ele>98</ele>
        <time>2021-03-06T13:08:37Z</time>
      </trkpt>
      <trkpt lat="43.64159" lon="3.82397">
        <ele>98</ele>
        <time>2021-03-06T13:08:38Z</time>
      </trkpt>
      <trkpt lat="43.64161" lon="3.8239">
        <ele>98</ele>
        <time>2021-03-06T13:08:40Z</time>
      </trkpt>
      <trkpt lat="43.64162" lon="3.82387">
        <ele>98</ele>
        <time>2021-03-06T13:08:41Z</time>
      </trkpt>
      <trkpt lat="43.64162" lon="3.82383">
        <ele>98</ele>
        <time>2021-03-06T13:08:42Z</time>
      </trkpt>
      <trkpt lat="43.64165" lon="3.82377">
        <ele>98</ele>
        <time>2021-03-06T13:08:44Z</time>
      </trkpt>
      <trkpt lat="43.64167" lon="3.82374">
        <ele>98</ele>
        <time>2021-03-06T13:08:45Z</time>
      </trkpt>
      <trkpt lat="43.6417" lon="3.82372">
        <ele>100</ele>
        <time>2021-03-06T13:08:46Z</time>
      </trkpt>
      <trkpt lat="43.64172" lon="3.82372">
        <ele>100</ele>
        <time>2021-03-06T13:08:47Z</time>
      </trkpt>
      <trkpt lat="43.64175" lon="3.8237">
        <ele>100</ele>
        <time>2021-03-06T13:08:50Z</time>
      </trkpt>
      <trkpt lat="43.64176" lon="3.82368">
        <ele>100</ele>
        <time>2021-03-06T13:08:51Z</time>
      </trkpt>
      <trkpt lat="43.64177" lon="3.82365">
        <ele>100</ele>
        <time>2021-03-06T13:08:52Z</time>
      </trkpt>
      <trkpt lat="43.64178" lon="3.82361">
        <ele>100</ele>
        <time>2021-03-06T13:08:53Z</time>
      </trkpt>
      <trkpt lat="43.64179" lon="3.82358">
        <ele>100</ele>
        <time>2021-03-06T13:08:54Z</time>
      </trkpt>
      <trkpt lat="43.6418" lon="3.82354">
        <ele>100</ele>
        <time>2021-03-06T13:08:55Z</time>
      </trkpt>
      <trkpt lat="43.64181" lon="3.8235">
        <ele>101</ele>
        <time>2021-03-06T13:08:56Z</time>
      </trkpt>
      <trkpt lat="43.64182" lon="3.82346">
        <ele>101</ele>
        <time>2021-03-06T13:08:57Z</time>
      </trkpt>
      <trkpt lat="43.64183" lon="3.82342">
        <ele>101</ele>
        <time>2021-03-06T13:08:58Z</time>
      </trkpt>
      <trkpt lat="43.64183" lon="3.82337">
        <ele>101</ele>
        <time>2021-03-06T13:08:59Z</time>
      </trkpt>
      <trkpt lat="43.64184" lon="3.82333">
        <ele>101</ele>
        <time>2021-03-06T13:09:00Z</time>
      </trkpt>
      <trkpt lat="43.64185" lon="3.82329">
        <ele>101</ele>
        <time>2021-03-06T13:09:01Z</time>
      </trkpt>
      <trkpt lat="43.64188" lon="3.82325">
        <ele>101</ele>
        <time>2021-03-06T13:09:02Z</time>
      </trkpt>
      <trkpt lat="43.64191" lon="3.82321">
        <ele>101</ele>
        <time>2021-03-06T13:09:03Z</time>
      </trkpt>
      <trkpt lat="43.64194" lon="3.82317">
        <ele>101</ele>
        <time>2021-03-06T13:09:04Z</time>
      </trkpt>
      <trkpt lat="43.64198" lon="3.82314">
        <ele>101</ele>
        <time>2021-03-06T13:09:05Z</time>
      </trkpt>
      <trkpt lat="43.64201" lon="3.82311">
        <ele>102</ele>
        <time>2021-03-06T13:09:06Z</time>
      </trkpt>
      <trkpt lat="43.64206" lon="3.82309">
        <ele>102</ele>
        <time>2021-03-06T13:09:07Z</time>
      </trkpt>
      <trkpt lat="43.6421" lon="3.82306">
        <ele>102</ele>
        <time>2021-03-06T13:09:08Z</time>
      </trkpt>
      <trkpt lat="43.64214" lon="3.82304">
        <ele>102</ele>
        <time>2021-03-06T13:09:09Z</time>
      </trkpt>
      <trkpt lat="43.64218" lon="3.82303">
        <ele>102</ele>
        <time>2021-03-06T13:09:10Z</time>
      </trkpt>
      <trkpt lat="43.64221" lon="3.82303">
        <ele>102</ele>
        <time>2021-03-06T13:09:11Z</time>
      </trkpt>
      <trkpt lat="43.64226" lon="3.82303">
        <ele>102</ele>
        <time>2021-03-06T13:09:12Z</time>
      </trkpt>
      <trkpt lat="43.6423" lon="3.82303">
        <ele>102</ele>
        <time>2021-03-06T13:09:13Z</time>
      </trkpt>
      <trkpt lat="43.64235" lon="3.82303">
        <ele>102</ele>
        <time>2021-03-06T13:09:14Z</time>
      </trkpt>
      <trkpt lat="43.64239" lon="3.82304">
        <ele>102</ele>
        <time>2021-03-06T13:09:15Z</time>
      </trkpt>
      <trkpt lat="43.64242" lon="3.82304">
        <ele>102</ele>
        <time>2021-03-06T13:09:16Z</time>
      </trkpt>
      <trkpt lat="43.64247" lon="3.82303">
        <ele>102</ele>
        <time>2021-03-06T13:09:17Z</time>
      </trkpt>
      <trkpt lat="43.64251" lon="3.82303">
        <ele>102</ele>
        <time>2021-03-06T13:09:18Z</time>
      </trkpt>
      <trkpt lat="43.64255" lon="3.82303">
        <ele>102</ele>
        <time>2021-03-06T13:09:19Z</time>
      </trkpt>
      <trkpt lat="43.64259" lon="3.82303">
        <ele>102</ele>
        <time>2021-03-06T13:09:20Z</time>
      </trkpt>
      <trkpt lat="43.64264" lon="3.82305">
        <ele>102</ele>
        <time>2021-03-06T13:09:21Z</time>
      </trkpt>
      <trkpt lat="43.64272" lon="3.82311">
        <ele>102</ele>
        <time>2021-03-06T13:09:22Z</time>
      </trkpt>
      <trkpt lat="43.64276" lon="3.82312">
        <ele>102</ele>
        <time>2021-03-06T13:09:23Z</time>
      </trkpt>
      <trkpt lat="43.6428" lon="3.82312">
        <ele>102</ele>
        <time>2021-03-06T13:09:24Z</time>
      </trkpt>
      <trkpt lat="43.64285" lon="3.8231">
        <ele>102</ele>
        <time>2021-03-06T13:09:25Z</time>
      </trkpt>
      <trkpt lat="43.64289" lon="3.82307">
        <ele>102</ele>
        <time>2021-03-06T13:09:27Z</time>
      </trkpt>
      <trkpt lat="43.64293" lon="3.82303">
        <ele>102</ele>
        <time>2021-03-06T13:09:28Z</time>
      </trkpt>
      <trkpt lat="43.64295" lon="3.82299">
        <ele>102</ele>
        <time>2021-03-06T13:09:29Z</time>
      </trkpt>
      <trkpt lat="43.64299" lon="3.82296">
        <ele>102</ele>
        <time>2021-03-06T13:09:30Z</time>
      </trkpt>
      <trkpt lat="43.64303" lon="3.82296">
        <ele>102</ele>
        <time>2021-03-06T13:09:31Z</time>
      </trkpt>
      <trkpt lat="43.64307" lon="3.82297">
        <ele>102</ele>
        <time>2021-03-06T13:09:32Z</time>
      </trkpt>
      <trkpt lat="43.64312" lon="3.82297">
        <ele>102</ele>
        <time>2021-03-06T13:09:33Z</time>
      </trkpt>
      <trkpt lat="43.64316" lon="3.82296">
        <ele>102</ele>
        <time>2021-03-06T13:09:34Z</time>
      </trkpt>
      <trkpt lat="43.64321" lon="3.82294">
        <ele>102</ele>
        <time>2021-03-06T13:09:35Z</time>
      </trkpt>
      <trkpt lat="43.64325" lon="3.82293">
        <ele>101</ele>
        <time>2021-03-06T13:09:36Z</time>
      </trkpt>
      <trkpt lat="43.64329" lon="3.82292">
        <ele>101</ele>
        <time>2021-03-06T13:09:37Z</time>
      </trkpt>
      <trkpt lat="43.64333" lon="3.82291">
        <ele>101</ele>
        <time>2021-03-06T13:09:38Z</time>
      </trkpt>
      <trkpt lat="43.64337" lon="3.82289">
        <ele>101</ele>
        <time>2021-03-06T13:09:39Z</time>
      </trkpt>
      <trkpt lat="43.64342" lon="3.82287">
        <ele>101</ele>
        <time>2021-03-06T13:09:40Z</time>
      </trkpt>
      <trkpt lat="43.64345" lon="3.82285">
        <ele>101</ele>
        <time>2021-03-06T13:09:41Z</time>
      </trkpt>
      <trkpt lat="43.64347" lon="3.82283">
        <ele>101</ele>
        <time>2021-03-06T13:09:42Z</time>
      </trkpt>
      <trkpt lat="43.64351" lon="3.82278">
        <ele>101</ele>
        <time>2021-03-06T13:09:44Z</time>
      </trkpt>
      <trkpt lat="43.64353" lon="3.82275">
        <ele>101</ele>
        <time>2021-03-06T13:09:45Z</time>
      </trkpt>
      <trkpt lat="43.64355" lon="3.82273">
        <ele>101</ele>
        <time>2021-03-06T13:09:46Z</time>
      </trkpt>
      <trkpt lat="43.64356" lon="3.82271">
        <ele>101</ele>
        <time>2021-03-06T13:09:47Z</time>
      </trkpt>
      <trkpt lat="43.64356" lon="3.82271">
        <ele>100</ele>
        <time>2021-03-06T13:09:54Z</time>
      </trkpt>
      <trkpt lat="43.64353" lon="3.8227">
        <ele>99</ele>
        <time>2021-03-06T13:12:09Z</time>
      </trkpt>
      <trkpt lat="43.64357" lon="3.82266">
        <ele>97</ele>
        <time>2021-03-06T13:13:33Z</time>
      </trkpt>
      <trkpt lat="43.6436" lon="3.82267">
        <ele>97</ele>
        <time>2021-03-06T13:13:34Z</time>
      </trkpt>
      <trkpt lat="43.64363" lon="3.82267">
        <ele>97</ele>
        <time>2021-03-06T13:13:35Z</time>
      </trkpt>
      <trkpt lat="43.64365" lon="3.82265">
        <ele>97</ele>
        <time>2021-03-06T13:13:36Z</time>
      </trkpt>
      <trkpt lat="43.64369" lon="3.82261">
        <ele>97</ele>
        <time>2021-03-06T13:13:37Z</time>
      </trkpt>
      <trkpt lat="43.64371" lon="3.82258">
        <ele>97</ele>
        <time>2021-03-06T13:13:38Z</time>
      </trkpt>
      <trkpt lat="43.64373" lon="3.82256">
        <ele>97</ele>
        <time>2021-03-06T13:13:39Z</time>
      </trkpt>
      <trkpt lat="43.64376" lon="3.82256">
        <ele>97</ele>
        <time>2021-03-06T13:13:40Z</time>
      </trkpt>
      <trkpt lat="43.64378" lon="3.82256">
        <ele>97</ele>
        <time>2021-03-06T13:13:41Z</time>
      </trkpt>
      <trkpt lat="43.64381" lon="3.82257">
        <ele>97</ele>
        <time>2021-03-06T13:13:42Z</time>
      </trkpt>
      <trkpt lat="43.64383" lon="3.82257">
        <ele>97</ele>
        <time>2021-03-06T13:13:43Z</time>
      </trkpt>
      <trkpt lat="43.64386" lon="3.82256">
        <ele>97</ele>
        <time>2021-03-06T13:13:45Z</time>
      </trkpt>
      <trkpt lat="43.64388" lon="3.82255">
        <ele>97</ele>
        <time>2021-03-06T13:13:46Z</time>
      </trkpt>
      <trkpt lat="43.64391" lon="3.82254">
        <ele>97</ele>
        <time>2021-03-06T13:13:47Z</time>
      </trkpt>
      <trkpt lat="43.64393" lon="3.82253">
        <ele>97</ele>
        <time>2021-03-06T13:13:48Z</time>
      </trkpt>
      <trkpt lat="43.64395" lon="3.82252">
        <ele>97</ele>
        <time>2021-03-06T13:13:49Z</time>
      </trkpt>
      <trkpt lat="43.64398" lon="3.8225">
        <ele>97</ele>
        <time>2021-03-06T13:13:50Z</time>
      </trkpt>
      <trkpt lat="43.644" lon="3.82249">
        <ele>97</ele>
        <time>2021-03-06T13:13:51Z</time>
      </trkpt>
      <trkpt lat="43.64406" lon="3.82246">
        <ele>97</ele>
        <time>2021-03-06T13:13:52Z</time>
      </trkpt>
      <trkpt lat="43.64408" lon="3.82245">
        <ele>98</ele>
        <time>2021-03-06T13:13:53Z</time>
      </trkpt>
      <trkpt lat="43.64412" lon="3.82243">
        <ele>98</ele>
        <time>2021-03-06T13:13:54Z</time>
      </trkpt>
      <trkpt lat="43.64415" lon="3.82243">
        <ele>98</ele>
        <time>2021-03-06T13:13:55Z</time>
      </trkpt>
      <trkpt lat="43.64419" lon="3.82244">
        <ele>98</ele>
        <time>2021-03-06T13:13:56Z</time>
      </trkpt>
      <trkpt lat="43.64421" lon="3.82245">
        <ele>98</ele>
        <time>2021-03-06T13:13:57Z</time>
      </trkpt>
      <trkpt lat="43.64424" lon="3.82247">
        <ele>98</ele>
        <time>2021-03-06T13:13:58Z</time>
      </trkpt>
      <trkpt lat="43.64426" lon="3.82248">
        <ele>98</ele>
        <time>2021-03-06T13:13:59Z</time>
      </trkpt>
      <trkpt lat="43.64428" lon="3.82249">
        <ele>98</ele>
        <time>2021-03-06T13:14:00Z</time>
      </trkpt>
      <trkpt lat="43.6443" lon="3.8225">
        <ele>98</ele>
        <time>2021-03-06T13:14:01Z</time>
      </trkpt>
      <trkpt lat="43.64432" lon="3.82251">
        <ele>98</ele>
        <time>2021-03-06T13:14:02Z</time>
      </trkpt>
      <trkpt lat="43.64434" lon="3.82253">
        <ele>98</ele>
        <time>2021-03-06T13:14:03Z</time>
      </trkpt>
      <trkpt lat="43.64437" lon="3.82255">
        <ele>98</ele>
        <time>2021-03-06T13:14:04Z</time>
      </trkpt>
      <trkpt lat="43.6444" lon="3.82257">
        <ele>98</ele>
        <time>2021-03-06T13:14:05Z</time>
      </trkpt>
      <trkpt lat="43.64443" lon="3.82259">
        <ele>98</ele>
        <time>2021-03-06T13:14:06Z</time>
      </trkpt>
      <trkpt lat="43.64446" lon="3.82262">
        <ele>98</ele>
        <time>2021-03-06T13:14:07Z</time>
      </trkpt>
      <trkpt lat="43.64449" lon="3.82265">
        <ele>98</ele>
        <time>2021-03-06T13:14:08Z</time>
      </trkpt>
      <trkpt lat="43.64454" lon="3.8227">
        <ele>98</ele>
        <time>2021-03-06T13:14:10Z</time>
      </trkpt>
      <trkpt lat="43.64457" lon="3.82272">
        <ele>98</ele>
        <time>2021-03-06T13:14:11Z</time>
      </trkpt>
      <trkpt lat="43.64462" lon="3.82273">
        <ele>98</ele>
        <time>2021-03-06T13:14:13Z</time>
      </trkpt>
      <trkpt lat="43.64464" lon="3.82274">
        <ele>98</ele>
        <time>2021-03-06T13:14:15Z</time>
      </trkpt>
      <trkpt lat="43.64466" lon="3.82275">
        <ele>98</ele>
        <time>2021-03-06T13:14:16Z</time>
      </trkpt>
      <trkpt lat="43.64468" lon="3.82278">
        <ele>98</ele>
        <time>2021-03-06T13:14:17Z</time>
      </trkpt>
      <trkpt lat="43.64471" lon="3.82286">
        <ele>98</ele>
        <time>2021-03-06T13:14:19Z</time>
      </trkpt>
      <trkpt lat="43.64474" lon="3.82289">
        <ele>98</ele>
        <time>2021-03-06T13:14:20Z</time>
      </trkpt>
      <trkpt lat="43.64477" lon="3.82289">
        <ele>98</ele>
        <time>2021-03-06T13:14:21Z</time>
      </trkpt>
      <trkpt lat="43.64483" lon="3.82285">
        <ele>98</ele>
        <time>2021-03-06T13:14:23Z</time>
      </trkpt>
      <trkpt lat="43.64488" lon="3.82285">
        <ele>98</ele>
        <time>2021-03-06T13:14:24Z</time>
      </trkpt>
      <trkpt lat="43.64492" lon="3.82286">
        <ele>98</ele>
        <time>2021-03-06T13:14:25Z</time>
      </trkpt>
      <trkpt lat="43.64499" lon="3.8229">
        <ele>98</ele>
        <time>2021-03-06T13:14:27Z</time>
      </trkpt>
      <trkpt lat="43.645" lon="3.82292">
        <ele>98</ele>
        <time>2021-03-06T13:14:28Z</time>
      </trkpt>
      <trkpt lat="43.64502" lon="3.82294">
        <ele>98</ele>
        <time>2021-03-06T13:14:29Z</time>
      </trkpt>
      <trkpt lat="43.64507" lon="3.82298">
        <ele>98</ele>
        <time>2021-03-06T13:14:31Z</time>
      </trkpt>
      <trkpt lat="43.64509" lon="3.82298">
        <ele>98</ele>
        <time>2021-03-06T13:14:32Z</time>
      </trkpt>
      <trkpt lat="43.64512" lon="3.823">
        <ele>98</ele>
        <time>2021-03-06T13:14:34Z</time>
      </trkpt>
      <trkpt lat="43.64514" lon="3.82301">
        <ele>98</ele>
        <time>2021-03-06T13:14:35Z</time>
      </trkpt>
      <trkpt lat="43.64517" lon="3.82303">
        <ele>98</ele>
        <time>2021-03-06T13:14:36Z</time>
      </trkpt>
      <trkpt lat="43.64519" lon="3.82303">
        <ele>98</ele>
        <time>2021-03-06T13:14:37Z</time>
      </trkpt>
      <trkpt lat="43.64522" lon="3.82304">
        <ele>98</ele>
        <time>2021-03-06T13:14:38Z</time>
      </trkpt>
      <trkpt lat="43.64524" lon="3.82304">
        <ele>98</ele>
        <time>2021-03-06T13:14:39Z</time>
      </trkpt>
      <trkpt lat="43.64527" lon="3.82305">
        <ele>98</ele>
        <time>2021-03-06T13:14:40Z</time>
      </trkpt>
      <trkpt lat="43.64529" lon="3.82305">
        <ele>98</ele>
        <time>2021-03-06T13:14:41Z</time>
      </trkpt>
      <trkpt lat="43.64532" lon="3.82306">
        <ele>98</ele>
        <time>2021-03-06T13:14:42Z</time>
      </trkpt>
      <trkpt lat="43.64538" lon="3.82308">
        <ele>98</ele>
        <time>2021-03-06T13:14:44Z</time>
      </trkpt>
      <trkpt lat="43.64542" lon="3.82309">
        <ele>98</ele>
        <time>2021-03-06T13:14:45Z</time>
      </trkpt>
      <trkpt lat="43.64545" lon="3.82309">
        <ele>98</ele>
        <time>2021-03-06T13:14:46Z</time>
      </trkpt>
      <trkpt lat="43.64552" lon="3.8231">
        <ele>98</ele>
        <time>2021-03-06T13:14:48Z</time>
      </trkpt>
      <trkpt lat="43.64555" lon="3.8231">
        <ele>98</ele>
        <time>2021-03-06T13:14:49Z</time>
      </trkpt>
      <trkpt lat="43.64563" lon="3.82312">
        <ele>98</ele>
        <time>2021-03-06T13:14:51Z</time>
      </trkpt>
      <trkpt lat="43.64567" lon="3.82314">
        <ele>98</ele>
        <time>2021-03-06T13:14:52Z</time>
      </trkpt>
      <trkpt lat="43.6457" lon="3.82316">
        <ele>100</ele>
        <time>2021-03-06T13:14:53Z</time>
      </trkpt>
      <trkpt lat="43.64574" lon="3.82317">
        <ele>100</ele>
        <time>2021-03-06T13:14:54Z</time>
      </trkpt>
      <trkpt lat="43.64578" lon="3.8232">
        <ele>100</ele>
        <time>2021-03-06T13:14:55Z</time>
      </trkpt>
      <trkpt lat="43.64582" lon="3.82323">
        <ele>100</ele>
        <time>2021-03-06T13:14:56Z</time>
      </trkpt>
      <trkpt lat="43.64585" lon="3.82326">
        <ele>100</ele>
        <time>2021-03-06T13:14:57Z</time>
      </trkpt>
      <trkpt lat="43.64588" lon="3.82329">
        <ele>100</ele>
        <time>2021-03-06T13:14:59Z</time>
      </trkpt>
      <trkpt lat="43.64591" lon="3.82332">
        <ele>100</ele>
        <time>2021-03-06T13:15:00Z</time>
      </trkpt>
      <trkpt lat="43.64594" lon="3.82335">
        <ele>100</ele>
        <time>2021-03-06T13:15:01Z</time>
      </trkpt>
      <trkpt lat="43.64597" lon="3.82338">
        <ele>100</ele>
        <time>2021-03-06T13:15:02Z</time>
      </trkpt>
      <trkpt lat="43.64601" lon="3.82341">
        <ele>99</ele>
        <time>2021-03-06T13:15:03Z</time>
      </trkpt>
      <trkpt lat="43.64604" lon="3.82343">
        <ele>99</ele>
        <time>2021-03-06T13:15:04Z</time>
      </trkpt>
      <trkpt lat="43.64607" lon="3.82346">
        <ele>99</ele>
        <time>2021-03-06T13:15:05Z</time>
      </trkpt>
      <trkpt lat="43.6461" lon="3.82348">
        <ele>99</ele>
        <time>2021-03-06T13:15:06Z</time>
      </trkpt>
      <trkpt lat="43.64614" lon="3.82351">
        <ele>99</ele>
        <time>2021-03-06T13:15:07Z</time>
      </trkpt>
      <trkpt lat="43.64617" lon="3.82353">
        <ele>99</ele>
        <time>2021-03-06T13:15:08Z</time>
      </trkpt>
      <trkpt lat="43.64623" lon="3.82357">
        <ele>99</ele>
        <time>2021-03-06T13:15:09Z</time>
      </trkpt>
      <trkpt lat="43.64626" lon="3.82358">
        <ele>99</ele>
        <time>2021-03-06T13:15:10Z</time>
      </trkpt>
      <trkpt lat="43.64629" lon="3.82359">
        <ele>99</ele>
        <time>2021-03-06T13:15:11Z</time>
      </trkpt>
      <trkpt lat="43.64632" lon="3.8236">
        <ele>99</ele>
        <time>2021-03-06T13:15:12Z</time>
      </trkpt>
      <trkpt lat="43.64634" lon="3.82362">
        <ele>99</ele>
        <time>2021-03-06T13:15:13Z</time>
      </trkpt>
      <trkpt lat="43.64637" lon="3.82365">
        <ele>99</ele>
        <time>2021-03-06T13:15:14Z</time>
      </trkpt>
      <trkpt lat="43.64639" lon="3.82368">
        <ele>99</ele>
        <time>2021-03-06T13:15:15Z</time>
      </trkpt>
      <trkpt lat="43.64642" lon="3.82371">
        <ele>99</ele>
        <time>2021-03-06T13:15:16Z</time>
      </trkpt>
      <trkpt lat="43.64648" lon="3.82377">
        <ele>99</ele>
        <time>2021-03-06T13:15:18Z</time>
      </trkpt>
      <trkpt lat="43.64652" lon="3.82379">
        <ele>99</ele>
        <time>2021-03-06T13:15:19Z</time>
      </trkpt>
      <trkpt lat="43.64655" lon="3.82382">
        <ele>99</ele>
        <time>2021-03-06T13:15:20Z</time>
      </trkpt>
      <trkpt lat="43.64662" lon="3.82387">
        <ele>99</ele>
        <time>2021-03-06T13:15:22Z</time>
      </trkpt>
      <trkpt lat="43.64665" lon="3.8239">
        <ele>99</ele>
        <time>2021-03-06T13:15:23Z</time>
      </trkpt>
      <trkpt lat="43.64669" lon="3.82392">
        <ele>99</ele>
        <time>2021-03-06T13:15:24Z</time>
      </trkpt>
      <trkpt lat="43.64675" lon="3.82397">
        <ele>99</ele>
        <time>2021-03-06T13:15:26Z</time>
      </trkpt>
      <trkpt lat="43.64678" lon="3.82399">
        <ele>99</ele>
        <time>2021-03-06T13:15:27Z</time>
      </trkpt>
      <trkpt lat="43.64681" lon="3.82401">
        <ele>99</ele>
        <time>2021-03-06T13:15:29Z</time>
      </trkpt>
      <trkpt lat="43.64684" lon="3.82403">
        <ele>99</ele>
        <time>2021-03-06T13:15:30Z</time>
      </trkpt>
      <trkpt lat="43.64687" lon="3.82405">
        <ele>99</ele>
        <time>2021-03-06T13:15:31Z</time>
      </trkpt>
      <trkpt lat="43.64691" lon="3.82407">
        <ele>99</ele>
        <time>2021-03-06T13:15:32Z</time>
      </trkpt>
      <trkpt lat="43.64694" lon="3.82409">
        <ele>99</ele>
        <time>2021-03-06T13:15:33Z</time>
      </trkpt>
      <trkpt lat="43.647" lon="3.82414">
        <ele>99</ele>
        <time>2021-03-06T13:15:34Z</time>
      </trkpt>
      <trkpt lat="43.64703" lon="3.82415">
        <ele>99</ele>
        <time>2021-03-06T13:15:36Z</time>
      </trkpt>
      <trkpt lat="43.64707" lon="3.82417">
        <ele>99</ele>
        <time>2021-03-06T13:15:37Z</time>
      </trkpt>
      <trkpt lat="43.6471" lon="3.8242">
        <ele>99</ele>
        <time>2021-03-06T13:15:38Z</time>
      </trkpt>
      <trkpt lat="43.64713" lon="3.82422">
        <ele>99</ele>
        <time>2021-03-06T13:15:39Z</time>
      </trkpt>
      <trkpt lat="43.64717" lon="3.82424">
        <ele>99</ele>
        <time>2021-03-06T13:15:40Z</time>
      </trkpt>
      <trkpt lat="43.6472" lon="3.82426">
        <ele>99</ele>
        <time>2021-03-06T13:15:41Z</time>
      </trkpt>
      <trkpt lat="43.64724" lon="3.82428">
        <ele>99</ele>
        <time>2021-03-06T13:15:42Z</time>
      </trkpt>
      <trkpt lat="43.64727" lon="3.82429">
        <ele>100</ele>
        <time>2021-03-06T13:15:43Z</time>
      </trkpt>
      <trkpt lat="43.64731" lon="3.8243">
        <ele>100</ele>
        <time>2021-03-06T13:15:44Z</time>
      </trkpt>
      <trkpt lat="43.64734" lon="3.82431">
        <ele>100</ele>
        <time>2021-03-06T13:15:45Z</time>
      </trkpt>
      <trkpt lat="43.64737" lon="3.82431">
        <ele>100</ele>
        <time>2021-03-06T13:15:46Z</time>
      </trkpt>
      <trkpt lat="43.6474" lon="3.82432">
        <ele>100</ele>
        <time>2021-03-06T13:15:47Z</time>
      </trkpt>
      <trkpt lat="43.64743" lon="3.82432">
        <ele>100</ele>
        <time>2021-03-06T13:15:48Z</time>
      </trkpt>
      <trkpt lat="43.64746" lon="3.82432">
        <ele>100</ele>
        <time>2021-03-06T13:15:49Z</time>
      </trkpt>
      <trkpt lat="43.6475" lon="3.82432">
        <ele>100</ele>
        <time>2021-03-06T13:15:50Z</time>
      </trkpt>
      <trkpt lat="43.64752" lon="3.82432">
        <ele>100</ele>
        <time>2021-03-06T13:15:51Z</time>
      </trkpt>
      <trkpt lat="43.64755" lon="3.82432">
        <ele>100</ele>
        <time>2021-03-06T13:15:52Z</time>
      </trkpt>
      <trkpt lat="43.64758" lon="3.82432">
        <ele>101</ele>
        <time>2021-03-06T13:15:53Z</time>
      </trkpt>
      <trkpt lat="43.64761" lon="3.82431">
        <ele>101</ele>
        <time>2021-03-06T13:15:54Z</time>
      </trkpt>
      <trkpt lat="43.64764" lon="3.82431">
        <ele>101</ele>
        <time>2021-03-06T13:15:55Z</time>
      </trkpt>
      <trkpt lat="43.64766" lon="3.8243">
        <ele>101</ele>
        <time>2021-03-06T13:15:56Z</time>
      </trkpt>
      <trkpt lat="43.64769" lon="3.82429">
        <ele>101</ele>
        <time>2021-03-06T13:15:57Z</time>
      </trkpt>
      <trkpt lat="43.64772" lon="3.82429">
        <ele>101</ele>
        <time>2021-03-06T13:15:58Z</time>
      </trkpt>
      <trkpt lat="43.64775" lon="3.82428">
        <ele>101</ele>
        <time>2021-03-06T13:15:59Z</time>
      </trkpt>
      <trkpt lat="43.64777" lon="3.82428">
        <ele>101</ele>
        <time>2021-03-06T13:16:00Z</time>
      </trkpt>
      <trkpt lat="43.6478" lon="3.82428">
        <ele>101</ele>
        <time>2021-03-06T13:16:01Z</time>
      </trkpt>
      <trkpt lat="43.64783" lon="3.82427">
        <ele>101</ele>
        <time>2021-03-06T13:16:02Z</time>
      </trkpt>
      <trkpt lat="43.64785" lon="3.82426">
        <ele>102</ele>
        <time>2021-03-06T13:16:03Z</time>
      </trkpt>
      <trkpt lat="43.64788" lon="3.82425">
        <ele>102</ele>
        <time>2021-03-06T13:16:04Z</time>
      </trkpt>
      <trkpt lat="43.6479" lon="3.82424">
        <ele>102</ele>
        <time>2021-03-06T13:16:05Z</time>
      </trkpt>
      <trkpt lat="43.64793" lon="3.82424">
        <ele>102</ele>
        <time>2021-03-06T13:16:06Z</time>
      </trkpt>
      <trkpt lat="43.64795" lon="3.82423">
        <ele>102</ele>
        <time>2021-03-06T13:16:07Z</time>
      </trkpt>
      <trkpt lat="43.64798" lon="3.82422">
        <ele>102</ele>
        <time>2021-03-06T13:16:08Z</time>
      </trkpt>
      <trkpt lat="43.648" lon="3.82422">
        <ele>102</ele>
        <time>2021-03-06T13:16:09Z</time>
      </trkpt>
      <trkpt lat="43.64803" lon="3.82422">
        <ele>102</ele>
        <time>2021-03-06T13:16:10Z</time>
      </trkpt>
      <trkpt lat="43.64805" lon="3.82421">
        <ele>102</ele>
        <time>2021-03-06T13:16:11Z</time>
      </trkpt>
      <trkpt lat="43.64808" lon="3.82421">
        <ele>102</ele>
        <time>2021-03-06T13:16:12Z</time>
      </trkpt>
      <trkpt lat="43.6481" lon="3.8242">
        <ele>103</ele>
        <time>2021-03-06T13:16:13Z</time>
      </trkpt>
      <trkpt lat="43.64813" lon="3.8242">
        <ele>103</ele>
        <time>2021-03-06T13:16:14Z</time>
      </trkpt>
      <trkpt lat="43.64816" lon="3.82419">
        <ele>103</ele>
        <time>2021-03-06T13:16:15Z</time>
      </trkpt>
      <trkpt lat="43.64819" lon="3.82419">
        <ele>103</ele>
        <time>2021-03-06T13:16:16Z</time>
      </trkpt>
      <trkpt lat="43.64822" lon="3.82419">
        <ele>103</ele>
        <time>2021-03-06T13:16:17Z</time>
      </trkpt>
      <trkpt lat="43.64825" lon="3.82419">
        <ele>103</ele>
        <time>2021-03-06T13:16:18Z</time>
      </trkpt>
      <trkpt lat="43.64828" lon="3.82419">
        <ele>103</ele>
        <time>2021-03-06T13:16:19Z</time>
      </trkpt>
      <trkpt lat="43.64831" lon="3.82418">
        <ele>103</ele>
        <time>2021-03-06T13:16:20Z</time>
      </trkpt>
      <trkpt lat="43.64833" lon="3.82418">
        <ele>103</ele>
        <time>2021-03-06T13:16:21Z</time>
      </trkpt>
      <trkpt lat="43.64836" lon="3.82417">
        <ele>103</ele>
        <time>2021-03-06T13:16:22Z</time>
      </trkpt>
      <trkpt lat="43.64839" lon="3.82417">
        <ele>104</ele>
        <time>2021-03-06T13:16:23Z</time>
      </trkpt>
      <trkpt lat="43.64842" lon="3.82416">
        <ele>104</ele>
        <time>2021-03-06T13:16:24Z</time>
      </trkpt>
      <trkpt lat="43.64844" lon="3.82416">
        <ele>104</ele>
        <time>2021-03-06T13:16:25Z</time>
      </trkpt>
      <trkpt lat="43.64847" lon="3.82415">
        <ele>104</ele>
        <time>2021-03-06T13:16:26Z</time>
      </trkpt>
      <trkpt lat="43.6485" lon="3.82415">
        <ele>104</ele>
        <time>2021-03-06T13:16:27Z</time>
      </trkpt>
      <trkpt lat="43.64852" lon="3.82414">
        <ele>104</ele>
        <time>2021-03-06T13:16:28Z</time>
      </trkpt>
      <trkpt lat="43.64855" lon="3.82413">
        <ele>104</ele>
        <time>2021-03-06T13:16:29Z</time>
      </trkpt>
      <trkpt lat="43.64857" lon="3.82413">
        <ele>104</ele>
        <time>2021-03-06T13:16:30Z</time>
      </trkpt>
      <trkpt lat="43.6486" lon="3.82413">
        <ele>104</ele>
        <time>2021-03-06T13:16:31Z</time>
      </trkpt>
      <trkpt lat="43.64863" lon="3.82413">
        <ele>104</ele>
        <time>2021-03-06T13:16:32Z</time>
      </trkpt>
      <trkpt lat="43.64865" lon="3.82413">
        <ele>106</ele>
        <time>2021-03-06T13:16:33Z</time>
      </trkpt>
      <trkpt lat="43.64867" lon="3.82414">
        <ele>106</ele>
        <time>2021-03-06T13:16:34Z</time>
      </trkpt>
      <trkpt lat="43.6487" lon="3.82414">
        <ele>106</ele>
        <time>2021-03-06T13:16:35Z</time>
      </trkpt>
      <trkpt lat="43.64872" lon="3.82416">
        <ele>106</ele>
        <time>2021-03-06T13:16:36Z</time>
      </trkpt>
      <trkpt lat="43.64874" lon="3.82417">
        <ele>106</ele>
        <time>2021-03-06T13:16:37Z</time>
      </trkpt>
      <trkpt lat="43.64876" lon="3.82419">
        <ele>106</ele>
        <time>2021-03-06T13:16:38Z</time>
      </trkpt>
      <trkpt lat="43.64878" lon="3.82421">
        <ele>106</ele>
        <time>2021-03-06T13:16:39Z</time>
      </trkpt>
      <trkpt lat="43.6488" lon="3.82424">
        <ele>106</ele>
        <time>2021-03-06T13:16:40Z</time>
      </trkpt>
      <trkpt lat="43.64883" lon="3.82428">
        <ele>106</ele>
        <time>2021-03-06T13:16:41Z</time>
      </trkpt>
      <trkpt lat="43.64885" lon="3.82431">
        <ele>107</ele>
        <time>2021-03-06T13:16:43Z</time>
      </trkpt>
      <trkpt lat="43.64887" lon="3.82435">
        <ele>107</ele>
        <time>2021-03-06T13:16:45Z</time>
      </trkpt>
      <trkpt lat="43.64888" lon="3.82437">
        <ele>107</ele>
        <time>2021-03-06T13:16:46Z</time>
      </trkpt>
      <trkpt lat="43.6489" lon="3.82439">
        <ele>107</ele>
        <time>2021-03-06T13:16:47Z</time>
      </trkpt>
      <trkpt lat="43.64891" lon="3.82441">
        <ele>107</ele>
        <time>2021-03-06T13:16:48Z</time>
      </trkpt>
      <trkpt lat="43.64893" lon="3.82442">
        <ele>107</ele>
        <time>2021-03-06T13:16:49Z</time>
      </trkpt>
      <trkpt lat="43.64894" lon="3.82444">
        <ele>107</ele>
        <time>2021-03-06T13:16:50Z</time>
      </trkpt>
      <trkpt lat="43.64896" lon="3.82446">
        <ele>107</ele>
        <time>2021-03-06T13:16:51Z</time>
      </trkpt>
      <trkpt lat="43.64897" lon="3.82448">
        <ele>107</ele>
        <time>2021-03-06T13:16:52Z</time>
      </trkpt>
      <trkpt lat="43.64899" lon="3.8245">
        <ele>108</ele>
        <time>2021-03-06T13:16:53Z</time>
      </trkpt>
      <trkpt lat="43.64901" lon="3.82452">
        <ele>108</ele>
        <time>2021-03-06T13:16:54Z</time>
      </trkpt>
      <trkpt lat="43.64902" lon="3.82454">
        <ele>108</ele>
        <time>2021-03-06T13:16:55Z</time>
      </trkpt>
      <trkpt lat="43.64904" lon="3.82456">
        <ele>108</ele>
        <time>2021-03-06T13:16:56Z</time>
      </trkpt>
      <trkpt lat="43.64905" lon="3.82458">
        <ele>108</ele>
        <time>2021-03-06T13:16:57Z</time>
      </trkpt>
      <trkpt lat="43.64908" lon="3.8246">
        <ele>108</ele>
        <time>2021-03-06T13:16:59Z</time>
      </trkpt>
      <trkpt lat="43.6491" lon="3.82461">
        <ele>108</ele>
        <time>2021-03-06T13:17:00Z</time>
      </trkpt>
      <trkpt lat="43.64912" lon="3.82461">
        <ele>108</ele>
        <time>2021-03-06T13:17:01Z</time>
      </trkpt>
      <trkpt lat="43.64914" lon="3.82462">
        <ele>108</ele>
        <time>2021-03-06T13:17:02Z</time>
      </trkpt>
      <trkpt lat="43.64916" lon="3.82462">
        <ele>108</ele>
        <time>2021-03-06T13:17:04Z</time>
      </trkpt>
      <trkpt lat="43.64918" lon="3.82462">
        <ele>108</ele>
        <time>2021-03-06T13:17:05Z</time>
      </trkpt>
      <trkpt lat="43.64921" lon="3.82462">
        <ele>108</ele>
        <time>2021-03-06T13:17:06Z</time>
      </trkpt>
      <trkpt lat="43.64925" lon="3.82461">
        <ele>108</ele>
        <time>2021-03-06T13:17:07Z</time>
      </trkpt>
      <trkpt lat="43.64927" lon="3.82459">
        <ele>108</ele>
        <time>2021-03-06T13:17:08Z</time>
      </trkpt>
      <trkpt lat="43.64929" lon="3.82457">
        <ele>108</ele>
        <time>2021-03-06T13:17:09Z</time>
      </trkpt>
      <trkpt lat="43.64932" lon="3.82454">
        <ele>108</ele>
        <time>2021-03-06T13:17:10Z</time>
      </trkpt>
      <trkpt lat="43.64935" lon="3.82452">
        <ele>108</ele>
        <time>2021-03-06T13:17:12Z</time>
      </trkpt>
      <trkpt lat="43.64938" lon="3.8245">
        <ele>109</ele>
        <time>2021-03-06T13:17:13Z</time>
      </trkpt>
      <trkpt lat="43.64941" lon="3.82448">
        <ele>109</ele>
        <time>2021-03-06T13:17:14Z</time>
      </trkpt>
      <trkpt lat="43.64944" lon="3.82446">
        <ele>109</ele>
        <time>2021-03-06T13:17:15Z</time>
      </trkpt>
      <trkpt lat="43.64947" lon="3.82444">
        <ele>109</ele>
        <time>2021-03-06T13:17:16Z</time>
      </trkpt>
      <trkpt lat="43.6495" lon="3.82444">
        <ele>109</ele>
        <time>2021-03-06T13:17:17Z</time>
      </trkpt>
      <trkpt lat="43.64953" lon="3.82443">
        <ele>109</ele>
        <time>2021-03-06T13:17:18Z</time>
      </trkpt>
      <trkpt lat="43.64955" lon="3.82442">
        <ele>109</ele>
        <time>2021-03-06T13:17:19Z</time>
      </trkpt>
      <trkpt lat="43.6496" lon="3.82442">
        <ele>109</ele>
        <time>2021-03-06T13:17:20Z</time>
      </trkpt>
      <trkpt lat="43.64963" lon="3.82443">
        <ele>109</ele>
        <time>2021-03-06T13:17:21Z</time>
      </trkpt>
      <trkpt lat="43.64965" lon="3.82443">
        <ele>109</ele>
        <time>2021-03-06T13:17:22Z</time>
      </trkpt>
      <trkpt lat="43.64967" lon="3.82443">
        <ele>110</ele>
        <time>2021-03-06T13:17:23Z</time>
      </trkpt>
      <trkpt lat="43.64971" lon="3.82445">
        <ele>110</ele>
        <time>2021-03-06T13:17:25Z</time>
      </trkpt>
      <trkpt lat="43.64974" lon="3.82445">
        <ele>110</ele>
        <time>2021-03-06T13:17:26Z</time>
      </trkpt>
      <trkpt lat="43.64976" lon="3.82446">
        <ele>110</ele>
        <time>2021-03-06T13:17:27Z</time>
      </trkpt>
      <trkpt lat="43.64978" lon="3.82447">
        <ele>110</ele>
        <time>2021-03-06T13:17:28Z</time>
      </trkpt>
      <trkpt lat="43.6498" lon="3.82448">
        <ele>110</ele>
        <time>2021-03-06T13:17:30Z</time>
      </trkpt>
      <trkpt lat="43.64983" lon="3.82448">
        <ele>110</ele>
        <time>2021-03-06T13:17:31Z</time>
      </trkpt>
      <trkpt lat="43.64985" lon="3.82449">
        <ele>110</ele>
        <time>2021-03-06T13:17:32Z</time>
      </trkpt>
      <trkpt lat="43.64986" lon="3.82449">
        <ele>113</ele>
        <time>2021-03-06T13:17:33Z</time>
      </trkpt>
      <trkpt lat="43.6499" lon="3.82448">
        <ele>113</ele>
        <time>2021-03-06T13:17:34Z</time>
      </trkpt>
      <trkpt lat="43.64992" lon="3.82447">
        <ele>113</ele>
        <time>2021-03-06T13:17:35Z</time>
      </trkpt>
      <trkpt lat="43.64993" lon="3.82445">
        <ele>113</ele>
        <time>2021-03-06T13:17:36Z</time>
      </trkpt>
      <trkpt lat="43.64994" lon="3.82443">
        <ele>113</ele>
        <time>2021-03-06T13:17:37Z</time>
      </trkpt>
      <trkpt lat="43.64996" lon="3.8244">
        <ele>113</ele>
        <time>2021-03-06T13:17:38Z</time>
      </trkpt>
      <trkpt lat="43.64997" lon="3.82438">
        <ele>113</ele>
        <time>2021-03-06T13:17:39Z</time>
      </trkpt>
      <trkpt lat="43.64998" lon="3.82435">
        <ele>113</ele>
        <time>2021-03-06T13:17:40Z</time>
      </trkpt>
      <trkpt lat="43.65" lon="3.82432">
        <ele>113</ele>
        <time>2021-03-06T13:17:41Z</time>
      </trkpt>
      <trkpt lat="43.65002" lon="3.8243">
        <ele>113</ele>
        <time>2021-03-06T13:17:42Z</time>
      </trkpt>
      <trkpt lat="43.65003" lon="3.82428">
        <ele>114</ele>
        <time>2021-03-06T13:17:43Z</time>
      </trkpt>
      <trkpt lat="43.65005" lon="3.82426">
        <ele>114</ele>
        <time>2021-03-06T13:17:44Z</time>
      </trkpt>
      <trkpt lat="43.65007" lon="3.82424">
        <ele>114</ele>
        <time>2021-03-06T13:17:45Z</time>
      </trkpt>
      <trkpt lat="43.65009" lon="3.82422">
        <ele>114</ele>
        <time>2021-03-06T13:17:46Z</time>
      </trkpt>
      <trkpt lat="43.6501" lon="3.82421">
        <ele>114</ele>
        <time>2021-03-06T13:17:47Z</time>
      </trkpt>
      <trkpt lat="43.65012" lon="3.82419">
        <ele>114</ele>
        <time>2021-03-06T13:17:48Z</time>
      </trkpt>
      <trkpt lat="43.65013" lon="3.82417">
        <ele>114</ele>
        <time>2021-03-06T13:17:49Z</time>
      </trkpt>
      <trkpt lat="43.65015" lon="3.82415">
        <ele>114</ele>
        <time>2021-03-06T13:17:50Z</time>
      </trkpt>
      <trkpt lat="43.65017" lon="3.82414">
        <ele>114</ele>
        <time>2021-03-06T13:17:51Z</time>
      </trkpt>
      <trkpt lat="43.65019" lon="3.82413">
        <ele>114</ele>
        <time>2021-03-06T13:17:52Z</time>
      </trkpt>
      <trkpt lat="43.65021" lon="3.82413">
        <ele>115</ele>
        <time>2021-03-06T13:17:53Z</time>
      </trkpt>
      <trkpt lat="43.65023" lon="3.82412">
        <ele>115</ele>
        <time>2021-03-06T13:17:55Z</time>
      </trkpt>
      <trkpt lat="43.65025" lon="3.82411">
        <ele>115</ele>
        <time>2021-03-06T13:17:56Z</time>
      </trkpt>
      <trkpt lat="43.65026" lon="3.82411">
        <ele>115</ele>
        <time>2021-03-06T13:17:57Z</time>
      </trkpt>
      <trkpt lat="43.65028" lon="3.82411">
        <ele>115</ele>
        <time>2021-03-06T13:17:58Z</time>
      </trkpt>
      <trkpt lat="43.6503" lon="3.8241">
        <ele>115</ele>
        <time>2021-03-06T13:17:59Z</time>
      </trkpt>
      <trkpt lat="43.65032" lon="3.8241">
        <ele>115</ele>
        <time>2021-03-06T13:18:00Z</time>
      </trkpt>
      <trkpt lat="43.65036" lon="3.82409">
        <ele>115</ele>
        <time>2021-03-06T13:18:02Z</time>
      </trkpt>
      <trkpt lat="43.65038" lon="3.82408">
        <ele>116</ele>
        <time>2021-03-06T13:18:03Z</time>
      </trkpt>
      <trkpt lat="43.6504" lon="3.82407">
        <ele>116</ele>
        <time>2021-03-06T13:18:04Z</time>
      </trkpt>
      <trkpt lat="43.65043" lon="3.82407">
        <ele>116</ele>
        <time>2021-03-06T13:18:05Z</time>
      </trkpt>
      <trkpt lat="43.65046" lon="3.82406">
        <ele>116</ele>
        <time>2021-03-06T13:18:06Z</time>
      </trkpt>
      <trkpt lat="43.65048" lon="3.82406">
        <ele>116</ele>
        <time>2021-03-06T13:18:07Z</time>
      </trkpt>
      <trkpt lat="43.65051" lon="3.82405">
        <ele>116</ele>
        <time>2021-03-06T13:18:08Z</time>
      </trkpt>
      <trkpt lat="43.65054" lon="3.82405">
        <ele>116</ele>
        <time>2021-03-06T13:18:09Z</time>
      </trkpt>
      <trkpt lat="43.65056" lon="3.82404">
        <ele>116</ele>
        <time>2021-03-06T13:18:10Z</time>
      </trkpt>
      <trkpt lat="43.65059" lon="3.82404">
        <ele>116</ele>
        <time>2021-03-06T13:18:11Z</time>
      </trkpt>
      <trkpt lat="43.65061" lon="3.82404">
        <ele>116</ele>
        <time>2021-03-06T13:18:12Z</time>
      </trkpt>
      <trkpt lat="43.65063" lon="3.82403">
        <ele>117</ele>
        <time>2021-03-06T13:18:13Z</time>
      </trkpt>
      <trkpt lat="43.65066" lon="3.82401">
        <ele>117</ele>
        <time>2021-03-06T13:18:15Z</time>
      </trkpt>
      <trkpt lat="43.65067" lon="3.82397">
        <ele>117</ele>
        <time>2021-03-06T13:18:17Z</time>
      </trkpt>
      <trkpt lat="43.65068" lon="3.82392">
        <ele>117</ele>
        <time>2021-03-06T13:18:18Z</time>
      </trkpt>
      <trkpt lat="43.65069" lon="3.82387">
        <ele>117</ele>
        <time>2021-03-06T13:18:21Z</time>
      </trkpt>
      <trkpt lat="43.65069" lon="3.82385">
        <ele>117</ele>
        <time>2021-03-06T13:18:22Z</time>
      </trkpt>
      <trkpt lat="43.6507" lon="3.82381">
        <ele>118</ele>
        <time>2021-03-06T13:18:23Z</time>
      </trkpt>
      <trkpt lat="43.6507" lon="3.82378">
        <ele>118</ele>
        <time>2021-03-06T13:18:24Z</time>
      </trkpt>
      <trkpt lat="43.65071" lon="3.82374">
        <ele>118</ele>
        <time>2021-03-06T13:18:25Z</time>
      </trkpt>
      <trkpt lat="43.65073" lon="3.82371">
        <ele>118</ele>
        <time>2021-03-06T13:18:26Z</time>
      </trkpt>
      <trkpt lat="43.65074" lon="3.82367">
        <ele>118</ele>
        <time>2021-03-06T13:18:27Z</time>
      </trkpt>
      <trkpt lat="43.65076" lon="3.82364">
        <ele>118</ele>
        <time>2021-03-06T13:18:28Z</time>
      </trkpt>
      <trkpt lat="43.65078" lon="3.82361">
        <ele>118</ele>
        <time>2021-03-06T13:18:29Z</time>
      </trkpt>
      <trkpt lat="43.65082" lon="3.82357">
        <ele>118</ele>
        <time>2021-03-06T13:18:30Z</time>
      </trkpt>
      <trkpt lat="43.65084" lon="3.82356">
        <ele>118</ele>
        <time>2021-03-06T13:18:31Z</time>
      </trkpt>
      <trkpt lat="43.65086" lon="3.82354">
        <ele>118</ele>
        <time>2021-03-06T13:18:32Z</time>
      </trkpt>
      <trkpt lat="43.65087" lon="3.82353">
        <ele>118</ele>
        <time>2021-03-06T13:18:33Z</time>
      </trkpt>
      <trkpt lat="43.6509" lon="3.82352">
        <ele>118</ele>
        <time>2021-03-06T13:18:36Z</time>
      </trkpt>
      <trkpt lat="43.65093" lon="3.82351">
        <ele>118</ele>
        <time>2021-03-06T13:18:38Z</time>
      </trkpt>
      <trkpt lat="43.65097" lon="3.82351">
        <ele>118</ele>
        <time>2021-03-06T13:18:39Z</time>
      </trkpt>
      <trkpt lat="43.651" lon="3.82351">
        <ele>118</ele>
        <time>2021-03-06T13:18:41Z</time>
      </trkpt>
      <trkpt lat="43.65102" lon="3.82351">
        <ele>118</ele>
        <time>2021-03-06T13:18:42Z</time>
      </trkpt>
      <trkpt lat="43.65104" lon="3.82352">
        <ele>119</ele>
        <time>2021-03-06T13:18:43Z</time>
      </trkpt>
      <trkpt lat="43.65107" lon="3.82353">
        <ele>119</ele>
        <time>2021-03-06T13:18:45Z</time>
      </trkpt>
      <trkpt lat="43.65109" lon="3.82354">
        <ele>119</ele>
        <time>2021-03-06T13:18:46Z</time>
      </trkpt>
      <trkpt lat="43.65111" lon="3.82354">
        <ele>119</ele>
        <time>2021-03-06T13:18:47Z</time>
      </trkpt>
      <trkpt lat="43.65112" lon="3.82355">
        <ele>119</ele>
        <time>2021-03-06T13:18:48Z</time>
      </trkpt>
      <trkpt lat="43.65116" lon="3.82357">
        <ele>119</ele>
        <time>2021-03-06T13:18:50Z</time>
      </trkpt>
      <trkpt lat="43.65117" lon="3.82358">
        <ele>119</ele>
        <time>2021-03-06T13:18:52Z</time>
      </trkpt>
      <trkpt lat="43.65121" lon="3.8236">
        <ele>120</ele>
        <time>2021-03-06T13:18:53Z</time>
      </trkpt>
      <trkpt lat="43.65123" lon="3.82362">
        <ele>120</ele>
        <time>2021-03-06T13:18:54Z</time>
      </trkpt>
      <trkpt lat="43.65126" lon="3.82364">
        <ele>120</ele>
        <time>2021-03-06T13:18:56Z</time>
      </trkpt>
      <trkpt lat="43.65128" lon="3.82366">
        <ele>120</ele>
        <time>2021-03-06T13:18:58Z</time>
      </trkpt>
      <trkpt lat="43.6513" lon="3.82367">
        <ele>120</ele>
        <time>2021-03-06T13:18:59Z</time>
      </trkpt>
      <trkpt lat="43.65131" lon="3.82369">
        <ele>120</ele>
        <time>2021-03-06T13:19:00Z</time>
      </trkpt>
      <trkpt lat="43.65133" lon="3.82371">
        <ele>120</ele>
        <time>2021-03-06T13:19:01Z</time>
      </trkpt>
      <trkpt lat="43.65134" lon="3.82372">
        <ele>120</ele>
        <time>2021-03-06T13:19:02Z</time>
      </trkpt>
      <trkpt lat="43.65136" lon="3.82374">
        <ele>120</ele>
        <time>2021-03-06T13:19:03Z</time>
      </trkpt>
      <trkpt lat="43.65137" lon="3.82376">
        <ele>120</ele>
        <time>2021-03-06T13:19:04Z</time>
      </trkpt>
      <trkpt lat="43.65138" lon="3.82379">
        <ele>120</ele>
        <time>2021-03-06T13:19:05Z</time>
      </trkpt>
      <trkpt lat="43.65139" lon="3.82381">
        <ele>120</ele>
        <time>2021-03-06T13:19:06Z</time>
      </trkpt>
      <trkpt lat="43.65141" lon="3.82384">
        <ele>120</ele>
        <time>2021-03-06T13:19:07Z</time>
      </trkpt>
      <trkpt lat="43.65142" lon="3.82387">
        <ele>120</ele>
        <time>2021-03-06T13:19:08Z</time>
      </trkpt>
      <trkpt lat="43.65143" lon="3.8239">
        <ele>120</ele>
        <time>2021-03-06T13:19:09Z</time>
      </trkpt>
      <trkpt lat="43.65144" lon="3.82393">
        <ele>120</ele>
        <time>2021-03-06T13:19:10Z</time>
      </trkpt>
      <trkpt lat="43.65145" lon="3.82396">
        <ele>120</ele>
        <time>2021-03-06T13:19:11Z</time>
      </trkpt>
      <trkpt lat="43.65148" lon="3.82402">
        <ele>120</ele>
        <time>2021-03-06T13:19:12Z</time>
      </trkpt>
      <trkpt lat="43.6515" lon="3.82405">
        <ele>120</ele>
        <time>2021-03-06T13:19:14Z</time>
      </trkpt>
      <trkpt lat="43.65152" lon="3.82408">
        <ele>120</ele>
        <time>2021-03-06T13:19:15Z</time>
      </trkpt>
      <trkpt lat="43.65154" lon="3.82412">
        <ele>120</ele>
        <time>2021-03-06T13:19:16Z</time>
      </trkpt>
      <trkpt lat="43.65157" lon="3.8242">
        <ele>120</ele>
        <time>2021-03-06T13:19:17Z</time>
      </trkpt>
      <trkpt lat="43.65159" lon="3.82425">
        <ele>120</ele>
        <time>2021-03-06T13:19:18Z</time>
      </trkpt>
      <trkpt lat="43.6516" lon="3.8243">
        <ele>120</ele>
        <time>2021-03-06T13:19:19Z</time>
      </trkpt>
      <trkpt lat="43.6516" lon="3.82435">
        <ele>120</ele>
        <time>2021-03-06T13:19:20Z</time>
      </trkpt>
      <trkpt lat="43.65162" lon="3.82446">
        <ele>120</ele>
        <time>2021-03-06T13:19:22Z</time>
      </trkpt>
      <trkpt lat="43.65162" lon="3.82451">
        <ele>120</ele>
        <time>2021-03-06T13:19:23Z</time>
      </trkpt>
      <trkpt lat="43.65162" lon="3.82457">
        <ele>120</ele>
        <time>2021-03-06T13:19:24Z</time>
      </trkpt>
      <trkpt lat="43.65162" lon="3.82462">
        <ele>120</ele>
        <time>2021-03-06T13:19:26Z</time>
      </trkpt>
      <trkpt lat="43.65161" lon="3.82467">
        <ele>120</ele>
        <time>2021-03-06T13:19:27Z</time>
      </trkpt>
      <trkpt lat="43.65161" lon="3.8247">
        <ele>120</ele>
        <time>2021-03-06T13:19:28Z</time>
      </trkpt>
      <trkpt lat="43.6516" lon="3.82474">
        <ele>120</ele>
        <time>2021-03-06T13:19:29Z</time>
      </trkpt>
      <trkpt lat="43.65158" lon="3.82476">
        <ele>120</ele>
        <time>2021-03-06T13:19:30Z</time>
      </trkpt>
      <trkpt lat="43.65157" lon="3.82478">
        <ele>120</ele>
        <time>2021-03-06T13:19:31Z</time>
      </trkpt>
      <trkpt lat="43.65156" lon="3.82482">
        <ele>119</ele>
        <time>2021-03-06T13:19:33Z</time>
      </trkpt>
      <trkpt lat="43.65157" lon="3.82487">
        <ele>119</ele>
        <time>2021-03-06T13:19:35Z</time>
      </trkpt>
      <trkpt lat="43.65158" lon="3.82491">
        <ele>119</ele>
        <time>2021-03-06T13:19:36Z</time>
      </trkpt>
      <trkpt lat="43.6516" lon="3.82495">
        <ele>119</ele>
        <time>2021-03-06T13:19:37Z</time>
      </trkpt>
      <trkpt lat="43.65161" lon="3.82499">
        <ele>119</ele>
        <time>2021-03-06T13:19:38Z</time>
      </trkpt>
      <trkpt lat="43.65163" lon="3.82509">
        <ele>119</ele>
        <time>2021-03-06T13:19:39Z</time>
      </trkpt>
      <trkpt lat="43.65163" lon="3.82512">
        <ele>119</ele>
        <time>2021-03-06T13:19:40Z</time>
      </trkpt>
      <trkpt lat="43.65165" lon="3.82515">
        <ele>119</ele>
        <time>2021-03-06T13:19:44Z</time>
      </trkpt>
      <trkpt lat="43.65166" lon="3.82517">
        <ele>119</ele>
        <time>2021-03-06T13:19:46Z</time>
      </trkpt>
      <trkpt lat="43.65171" lon="3.82514">
        <ele>119</ele>
        <time>2021-03-06T13:19:48Z</time>
      </trkpt>
      <trkpt lat="43.65174" lon="3.82513">
        <ele>119</ele>
        <time>2021-03-06T13:19:49Z</time>
      </trkpt>
      <trkpt lat="43.65178" lon="3.82513">
        <ele>119</ele>
        <time>2021-03-06T13:19:50Z</time>
      </trkpt>
      <trkpt lat="43.65182" lon="3.82514">
        <ele>119</ele>
        <time>2021-03-06T13:19:51Z</time>
      </trkpt>
      <trkpt lat="43.65192" lon="3.82516">
        <ele>116</ele>
        <time>2021-03-06T13:19:53Z</time>
      </trkpt>
      <trkpt lat="43.65198" lon="3.82518">
        <ele>116</ele>
        <time>2021-03-06T13:19:54Z</time>
      </trkpt>
      <trkpt lat="43.65203" lon="3.8252">
        <ele>116</ele>
        <time>2021-03-06T13:19:55Z</time>
      </trkpt>
      <trkpt lat="43.65209" lon="3.82521">
        <ele>116</ele>
        <time>2021-03-06T13:19:56Z</time>
      </trkpt>
      <trkpt lat="43.65215" lon="3.82522">
        <ele>116</ele>
        <time>2021-03-06T13:19:58Z</time>
      </trkpt>
      <trkpt lat="43.6522" lon="3.82523">
        <ele>116</ele>
        <time>2021-03-06T13:19:59Z</time>
      </trkpt>
      <trkpt lat="43.65224" lon="3.82524">
        <ele>116</ele>
        <time>2021-03-06T13:20:00Z</time>
      </trkpt>
      <trkpt lat="43.65232" lon="3.82528">
        <ele>116</ele>
        <time>2021-03-06T13:20:01Z</time>
      </trkpt>
      <trkpt lat="43.65236" lon="3.82531">
        <ele>116</ele>
        <time>2021-03-06T13:20:02Z</time>
      </trkpt>
      <trkpt lat="43.6524" lon="3.82533">
        <ele>113</ele>
        <time>2021-03-06T13:20:03Z</time>
      </trkpt>
      <trkpt lat="43.65245" lon="3.82534">
        <ele>113</ele>
        <time>2021-03-06T13:20:04Z</time>
      </trkpt>
      <trkpt lat="43.65249" lon="3.82536">
        <ele>113</ele>
        <time>2021-03-06T13:20:06Z</time>
      </trkpt>
      <trkpt lat="43.65253" lon="3.82538">
        <ele>113</ele>
        <time>2021-03-06T13:20:07Z</time>
      </trkpt>
      <trkpt lat="43.65257" lon="3.8254">
        <ele>113</ele>
        <time>2021-03-06T13:20:08Z</time>
      </trkpt>
      <trkpt lat="43.65261" lon="3.82541">
        <ele>113</ele>
        <time>2021-03-06T13:20:09Z</time>
      </trkpt>
      <trkpt lat="43.65265" lon="3.82541">
        <ele>113</ele>
        <time>2021-03-06T13:20:10Z</time>
      </trkpt>
      <trkpt lat="43.65268" lon="3.82541">
        <ele>113</ele>
        <time>2021-03-06T13:20:11Z</time>
      </trkpt>
      <trkpt lat="43.65271" lon="3.82542">
        <ele>113</ele>
        <time>2021-03-06T13:20:12Z</time>
      </trkpt>
      <trkpt lat="43.65276" lon="3.82542">
        <ele>111</ele>
        <time>2021-03-06T13:20:13Z</time>
      </trkpt>
      <trkpt lat="43.65279" lon="3.82543">
        <ele>111</ele>
        <time>2021-03-06T13:20:14Z</time>
      </trkpt>
      <trkpt lat="43.65281" lon="3.82545">
        <ele>111</ele>
        <time>2021-03-06T13:20:15Z</time>
      </trkpt>
      <trkpt lat="43.65283" lon="3.82546">
        <ele>111</ele>
        <time>2021-03-06T13:20:16Z</time>
      </trkpt>
      <trkpt lat="43.65284" lon="3.82547">
        <ele>111</ele>
        <time>2021-03-06T13:20:17Z</time>
      </trkpt>
      <trkpt lat="43.65286" lon="3.82548">
        <ele>111</ele>
        <time>2021-03-06T13:20:18Z</time>
      </trkpt>
      <trkpt lat="43.65287" lon="3.82549">
        <ele>111</ele>
        <time>2021-03-06T13:20:19Z</time>
      </trkpt>
      <trkpt lat="43.65291" lon="3.82552">
        <ele>111</ele>
        <time>2021-03-06T13:20:21Z</time>
      </trkpt>
      <trkpt lat="43.65293" lon="3.82555">
        <ele>111</ele>
        <time>2021-03-06T13:20:24Z</time>
      </trkpt>
      <trkpt lat="43.65294" lon="3.82556">
        <ele>109</ele>
        <time>2021-03-06T13:20:32Z</time>
      </trkpt>
      <trkpt lat="43.653" lon="3.82554">
        <ele>108</ele>
        <time>2021-03-06T13:20:43Z</time>
      </trkpt>
      <trkpt lat="43.65304" lon="3.82555">
        <ele>108</ele>
        <time>2021-03-06T13:20:44Z</time>
      </trkpt>
      <trkpt lat="43.65307" lon="3.82558">
        <ele>108</ele>
        <time>2021-03-06T13:20:45Z</time>
      </trkpt>
      <trkpt lat="43.6531" lon="3.82561">
        <ele>108</ele>
        <time>2021-03-06T13:20:46Z</time>
      </trkpt>
      <trkpt lat="43.65313" lon="3.82563">
        <ele>108</ele>
        <time>2021-03-06T13:20:47Z</time>
      </trkpt>
      <trkpt lat="43.65317" lon="3.82565">
        <ele>108</ele>
        <time>2021-03-06T13:20:48Z</time>
      </trkpt>
      <trkpt lat="43.6532" lon="3.82567">
        <ele>108</ele>
        <time>2021-03-06T13:20:49Z</time>
      </trkpt>
      <trkpt lat="43.65323" lon="3.82569">
        <ele>108</ele>
        <time>2021-03-06T13:20:50Z</time>
      </trkpt>
      <trkpt lat="43.65326" lon="3.82569">
        <ele>108</ele>
        <time>2021-03-06T13:20:51Z</time>
      </trkpt>
      <trkpt lat="43.65328" lon="3.82568">
        <ele>106</ele>
        <time>2021-03-06T13:20:53Z</time>
      </trkpt>
      <trkpt lat="43.6533" lon="3.82567">
        <ele>106</ele>
        <time>2021-03-06T13:20:56Z</time>
      </trkpt>
      <trkpt lat="43.65328" lon="3.8256">
        <ele>106</ele>
        <time>2021-03-06T13:20:58Z</time>
      </trkpt>
      <trkpt lat="43.65327" lon="3.82556">
        <ele>106</ele>
        <time>2021-03-06T13:20:59Z</time>
      </trkpt>
      <trkpt lat="43.65327" lon="3.82552">
        <ele>106</ele>
        <time>2021-03-06T13:21:00Z</time>
      </trkpt>
      <trkpt lat="43.65326" lon="3.82547">
        <ele>106</ele>
        <time>2021-03-06T13:21:01Z</time>
      </trkpt>
      <trkpt lat="43.65325" lon="3.82538">
        <ele>105</ele>
        <time>2021-03-06T13:21:03Z</time>
      </trkpt>
      <trkpt lat="43.65325" lon="3.82534">
        <ele>105</ele>
        <time>2021-03-06T13:21:04Z</time>
      </trkpt>
      <trkpt lat="43.65324" lon="3.8253">
        <ele>105</ele>
        <time>2021-03-06T13:21:05Z</time>
      </trkpt>
      <trkpt lat="43.65324" lon="3.82526">
        <ele>105</ele>
        <time>2021-03-06T13:21:06Z</time>
      </trkpt>
      <trkpt lat="43.65325" lon="3.82524">
        <ele>105</ele>
        <time>2021-03-06T13:21:08Z</time>
      </trkpt>
      <trkpt lat="43.65325" lon="3.8252">
        <ele>105</ele>
        <time>2021-03-06T13:21:14Z</time>
      </trkpt>
      <trkpt lat="43.65325" lon="3.82515">
        <ele>105</ele>
        <time>2021-03-06T13:21:15Z</time>
      </trkpt>
      <trkpt lat="43.65326" lon="3.8251">
        <ele>105</ele>
        <time>2021-03-06T13:21:16Z</time>
      </trkpt>
      <trkpt lat="43.65326" lon="3.82505">
        <ele>105</ele>
        <time>2021-03-06T13:21:17Z</time>
      </trkpt>
      <trkpt lat="43.65326" lon="3.825">
        <ele>105</ele>
        <time>2021-03-06T13:21:18Z</time>
      </trkpt>
      <trkpt lat="43.65327" lon="3.82495">
        <ele>105</ele>
        <time>2021-03-06T13:21:19Z</time>
      </trkpt>
      <trkpt lat="43.65327" lon="3.82489">
        <ele>105</ele>
        <time>2021-03-06T13:21:20Z</time>
      </trkpt>
      <trkpt lat="43.65328" lon="3.82483">
        <ele>105</ele>
        <time>2021-03-06T13:21:21Z</time>
      </trkpt>
      <trkpt lat="43.65328" lon="3.82477">
        <ele>105</ele>
        <time>2021-03-06T13:21:22Z</time>
      </trkpt>
      <trkpt lat="43.65328" lon="3.82472">
        <ele>100</ele>
        <time>2021-03-06T13:21:23Z</time>
      </trkpt>
      <trkpt lat="43.65327" lon="3.8246">
        <ele>97</ele>
        <time>2021-03-06T13:22:09Z</time>
      </trkpt>
      <trkpt lat="43.65327" lon="3.82456">
        <ele>97</ele>
        <time>2021-03-06T13:22:11Z</time>
      </trkpt>
      <trkpt lat="43.65329" lon="3.8245">
        <ele>97</ele>
        <time>2021-03-06T13:22:12Z</time>
      </trkpt>
      <trkpt lat="43.65332" lon="3.8245">
        <ele>97</ele>
        <time>2021-03-06T13:22:13Z</time>
      </trkpt>
      <trkpt lat="43.65335" lon="3.82449">
        <ele>97</ele>
        <time>2021-03-06T13:22:14Z</time>
      </trkpt>
      <trkpt lat="43.6534" lon="3.82442">
        <ele>97</ele>
        <time>2021-03-06T13:22:16Z</time>
      </trkpt>
      <trkpt lat="43.6534" lon="3.82437">
        <ele>97</ele>
        <time>2021-03-06T13:22:17Z</time>
      </trkpt>
      <trkpt lat="43.65341" lon="3.82431">
        <ele>97</ele>
        <time>2021-03-06T13:22:18Z</time>
      </trkpt>
      <trkpt lat="43.65341" lon="3.82426">
        <ele>95</ele>
        <time>2021-03-06T13:22:19Z</time>
      </trkpt>
      <trkpt lat="43.65342" lon="3.82421">
        <ele>95</ele>
        <time>2021-03-06T13:22:21Z</time>
      </trkpt>
      <trkpt lat="43.65341" lon="3.82416">
        <ele>95</ele>
        <time>2021-03-06T13:22:22Z</time>
      </trkpt>
      <trkpt lat="43.6534" lon="3.82411">
        <ele>95</ele>
        <time>2021-03-06T13:22:23Z</time>
      </trkpt>
      <trkpt lat="43.6534" lon="3.82404">
        <ele>95</ele>
        <time>2021-03-06T13:22:24Z</time>
      </trkpt>
      <trkpt lat="43.65342" lon="3.82402">
        <ele>95</ele>
        <time>2021-03-06T13:22:25Z</time>
      </trkpt>
      <trkpt lat="43.65343" lon="3.82399">
        <ele>95</ele>
        <time>2021-03-06T13:22:26Z</time>
      </trkpt>
      <trkpt lat="43.65343" lon="3.8239">
        <ele>95</ele>
        <time>2021-03-06T13:22:28Z</time>
      </trkpt>
      <trkpt lat="43.65344" lon="3.82386">
        <ele>93</ele>
        <time>2021-03-06T13:22:29Z</time>
      </trkpt>
      <trkpt lat="43.65344" lon="3.82381">
        <ele>93</ele>
        <time>2021-03-06T13:22:30Z</time>
      </trkpt>
      <trkpt lat="43.65345" lon="3.82376">
        <ele>93</ele>
        <time>2021-03-06T13:22:31Z</time>
      </trkpt>
      <trkpt lat="43.65345" lon="3.82371">
        <ele>93</ele>
        <time>2021-03-06T13:22:32Z</time>
      </trkpt>
      <trkpt lat="43.65346" lon="3.82365">
        <ele>93</ele>
        <time>2021-03-06T13:22:33Z</time>
      </trkpt>
      <trkpt lat="43.65346" lon="3.82359">
        <ele>93</ele>
        <time>2021-03-06T13:22:34Z</time>
      </trkpt>
      <trkpt lat="43.65346" lon="3.82353">
        <ele>93</ele>
        <time>2021-03-06T13:22:35Z</time>
      </trkpt>
      <trkpt lat="43.65347" lon="3.82347">
        <ele>93</ele>
        <time>2021-03-06T13:22:36Z</time>
      </trkpt>
      <trkpt lat="43.65348" lon="3.82341">
        <ele>93</ele>
        <time>2021-03-06T13:22:37Z</time>
      </trkpt>
      <trkpt lat="43.65349" lon="3.82335">
        <ele>93</ele>
        <time>2021-03-06T13:22:38Z</time>
      </trkpt>
      <trkpt lat="43.6535" lon="3.82329">
        <ele>93</ele>
        <time>2021-03-06T13:22:40Z</time>
      </trkpt>
      <trkpt lat="43.6535" lon="3.82322">
        <ele>93</ele>
        <time>2021-03-06T13:22:41Z</time>
      </trkpt>
      <trkpt lat="43.65351" lon="3.82315">
        <ele>93</ele>
        <time>2021-03-06T13:22:42Z</time>
      </trkpt>
      <trkpt lat="43.65352" lon="3.82308">
        <ele>93</ele>
        <time>2021-03-06T13:22:43Z</time>
      </trkpt>
      <trkpt lat="43.65353" lon="3.82301">
        <ele>93</ele>
        <time>2021-03-06T13:22:44Z</time>
      </trkpt>
      <trkpt lat="43.65354" lon="3.82293">
        <ele>93</ele>
        <time>2021-03-06T13:22:45Z</time>
      </trkpt>
      <trkpt lat="43.65355" lon="3.82286">
        <ele>93</ele>
        <time>2021-03-06T13:22:46Z</time>
      </trkpt>
      <trkpt lat="43.65355" lon="3.82278">
        <ele>93</ele>
        <time>2021-03-06T13:22:47Z</time>
      </trkpt>
      <trkpt lat="43.65355" lon="3.8227">
        <ele>93</ele>
        <time>2021-03-06T13:22:48Z</time>
      </trkpt>
      <trkpt lat="43.65356" lon="3.82263">
        <ele>90</ele>
        <time>2021-03-06T13:22:49Z</time>
      </trkpt>
      <trkpt lat="43.65357" lon="3.82256">
        <ele>90</ele>
        <time>2021-03-06T13:22:50Z</time>
      </trkpt>
      <trkpt lat="43.65358" lon="3.82249">
        <ele>90</ele>
        <time>2021-03-06T13:22:51Z</time>
      </trkpt>
      <trkpt lat="43.6536" lon="3.82242">
        <ele>90</ele>
        <time>2021-03-06T13:22:52Z</time>
      </trkpt>
      <trkpt lat="43.65361" lon="3.82236">
        <ele>90</ele>
        <time>2021-03-06T13:22:53Z</time>
      </trkpt>
      <trkpt lat="43.65363" lon="3.82231">
        <ele>90</ele>
        <time>2021-03-06T13:22:54Z</time>
      </trkpt>
      <trkpt lat="43.65364" lon="3.82229">
        <ele>90</ele>
        <time>2021-03-06T13:22:55Z</time>
      </trkpt>
      <trkpt lat="43.65366" lon="3.82226">
        <ele>90</ele>
        <time>2021-03-06T13:22:58Z</time>
      </trkpt>
      <trkpt lat="43.65367" lon="3.82224">
        <ele>88</ele>
        <time>2021-03-06T13:22:59Z</time>
      </trkpt>
      <trkpt lat="43.65368" lon="3.82221">
        <ele>88</ele>
        <time>2021-03-06T13:23:00Z</time>
      </trkpt>
      <trkpt lat="43.65371" lon="3.82219">
        <ele>88</ele>
        <time>2021-03-06T13:23:01Z</time>
      </trkpt>
      <trkpt lat="43.65373" lon="3.82216">
        <ele>88</ele>
        <time>2021-03-06T13:23:02Z</time>
      </trkpt>
      <trkpt lat="43.65377" lon="3.82213">
        <ele>88</ele>
        <time>2021-03-06T13:23:03Z</time>
      </trkpt>
      <trkpt lat="43.65381" lon="3.8221">
        <ele>88</ele>
        <time>2021-03-06T13:23:04Z</time>
      </trkpt>
      <trkpt lat="43.65386" lon="3.82206">
        <ele>88</ele>
        <time>2021-03-06T13:23:05Z</time>
      </trkpt>
      <trkpt lat="43.65391" lon="3.82201">
        <ele>88</ele>
        <time>2021-03-06T13:23:06Z</time>
      </trkpt>
      <trkpt lat="43.65394" lon="3.82194">
        <ele>88</ele>
        <time>2021-03-06T13:23:07Z</time>
      </trkpt>
      <trkpt lat="43.65397" lon="3.82186">
        <ele>88</ele>
        <time>2021-03-06T13:23:08Z</time>
      </trkpt>
      <trkpt lat="43.65398" lon="3.82179">
        <ele>85</ele>
        <time>2021-03-06T13:23:09Z</time>
      </trkpt>
      <trkpt lat="43.65399" lon="3.82172">
        <ele>85</ele>
        <time>2021-03-06T13:23:10Z</time>
      </trkpt>
      <trkpt lat="43.654" lon="3.82165">
        <ele>85</ele>
        <time>2021-03-06T13:23:11Z</time>
      </trkpt>
      <trkpt lat="43.65402" lon="3.82158">
        <ele>85</ele>
        <time>2021-03-06T13:23:12Z</time>
      </trkpt>
      <trkpt lat="43.65403" lon="3.82152">
        <ele>85</ele>
        <time>2021-03-06T13:23:13Z</time>
      </trkpt>
      <trkpt lat="43.65404" lon="3.82146">
        <ele>85</ele>
        <time>2021-03-06T13:23:14Z</time>
      </trkpt>
      <trkpt lat="43.65405" lon="3.82141">
        <ele>85</ele>
        <time>2021-03-06T13:23:15Z</time>
      </trkpt>
      <trkpt lat="43.65405" lon="3.82135">
        <ele>85</ele>
        <time>2021-03-06T13:23:16Z</time>
      </trkpt>
      <trkpt lat="43.65406" lon="3.82129">
        <ele>85</ele>
        <time>2021-03-06T13:23:17Z</time>
      </trkpt>
      <trkpt lat="43.65406" lon="3.82123">
        <ele>85</ele>
        <time>2021-03-06T13:23:18Z</time>
      </trkpt>
      <trkpt lat="43.65407" lon="3.82117">
        <ele>84</ele>
        <time>2021-03-06T13:23:19Z</time>
      </trkpt>
      <trkpt lat="43.65407" lon="3.82112">
        <ele>84</ele>
        <time>2021-03-06T13:23:20Z</time>
      </trkpt>
      <trkpt lat="43.65408" lon="3.82106">
        <ele>84</ele>
        <time>2021-03-06T13:23:21Z</time>
      </trkpt>
      <trkpt lat="43.65409" lon="3.821">
        <ele>84</ele>
        <time>2021-03-06T13:23:22Z</time>
      </trkpt>
      <trkpt lat="43.65408" lon="3.82094">
        <ele>84</ele>
        <time>2021-03-06T13:23:23Z</time>
      </trkpt>
      <trkpt lat="43.65406" lon="3.82089">
        <ele>84</ele>
        <time>2021-03-06T13:23:24Z</time>
      </trkpt>
      <trkpt lat="43.65403" lon="3.82084">
        <ele>84</ele>
        <time>2021-03-06T13:23:25Z</time>
      </trkpt>
      <trkpt lat="43.65399" lon="3.82079">
        <ele>84</ele>
        <time>2021-03-06T13:23:26Z</time>
      </trkpt>
      <trkpt lat="43.65399" lon="3.82068">
        <ele>84</ele>
        <time>2021-03-06T13:23:27Z</time>
      </trkpt>
      <trkpt lat="43.65401" lon="3.82064">
        <ele>84</ele>
        <time>2021-03-06T13:23:28Z</time>
      </trkpt>
      <trkpt lat="43.65403" lon="3.8206">
        <ele>84</ele>
        <time>2021-03-06T13:23:29Z</time>
      </trkpt>
      <trkpt lat="43.65405" lon="3.82058">
        <ele>84</ele>
        <time>2021-03-06T13:23:30Z</time>
      </trkpt>
      <trkpt lat="43.65406" lon="3.82055">
        <ele>84</ele>
        <time>2021-03-06T13:23:32Z</time>
      </trkpt>
      <trkpt lat="43.65407" lon="3.8205">
        <ele>84</ele>
        <time>2021-03-06T13:23:34Z</time>
      </trkpt>
      <trkpt lat="43.65409" lon="3.82047">
        <ele>84</ele>
        <time>2021-03-06T13:23:36Z</time>
      </trkpt>
      <trkpt lat="43.65412" lon="3.82045">
        <ele>84</ele>
        <time>2021-03-06T13:23:38Z</time>
      </trkpt>
      <trkpt lat="43.65414" lon="3.82044">
        <ele>84</ele>
        <time>2021-03-06T13:23:40Z</time>
      </trkpt>
      <trkpt lat="43.65416" lon="3.82043">
        <ele>84</ele>
        <time>2021-03-06T13:23:41Z</time>
      </trkpt>
      <trkpt lat="43.65418" lon="3.82041">
        <ele>84</ele>
        <time>2021-03-06T13:23:42Z</time>
      </trkpt>
      <trkpt lat="43.6542" lon="3.82039">
        <ele>84</ele>
        <time>2021-03-06T13:23:43Z</time>
      </trkpt>
      <trkpt lat="43.65422" lon="3.82037">
        <ele>84</ele>
        <time>2021-03-06T13:23:44Z</time>
      </trkpt>
      <trkpt lat="43.65424" lon="3.82035">
        <ele>84</ele>
        <time>2021-03-06T13:23:46Z</time>
      </trkpt>
      <trkpt lat="43.65425" lon="3.82032">
        <ele>83</ele>
        <time>2021-03-06T13:23:50Z</time>
      </trkpt>
      <trkpt lat="43.65425" lon="3.82029">
        <ele>83</ele>
        <time>2021-03-06T13:23:52Z</time>
      </trkpt>
      <trkpt lat="43.65426" lon="3.82027">
        <ele>83</ele>
        <time>2021-03-06T13:23:54Z</time>
      </trkpt>
      <trkpt lat="43.65427" lon="3.82023">
        <ele>83</ele>
        <time>2021-03-06T13:23:55Z</time>
      </trkpt>
      <trkpt lat="43.65428" lon="3.8202">
        <ele>83</ele>
        <time>2021-03-06T13:23:56Z</time>
      </trkpt>
      <trkpt lat="43.65429" lon="3.82016">
        <ele>83</ele>
        <time>2021-03-06T13:23:57Z</time>
      </trkpt>
      <trkpt lat="43.6543" lon="3.82012">
        <ele>82</ele>
        <time>2021-03-06T13:23:59Z</time>
      </trkpt>
      <trkpt lat="43.65432" lon="3.82006">
        <ele>82</ele>
        <time>2021-03-06T13:24:00Z</time>
      </trkpt>
      <trkpt lat="43.65434" lon="3.81999">
        <ele>82</ele>
        <time>2021-03-06T13:24:01Z</time>
      </trkpt>
      <trkpt lat="43.65436" lon="3.81983">
        <ele>82</ele>
        <time>2021-03-06T13:24:02Z</time>
      </trkpt>
      <trkpt lat="43.65434" lon="3.81975">
        <ele>82</ele>
        <time>2021-03-06T13:24:04Z</time>
      </trkpt>
      <trkpt lat="43.65431" lon="3.81962">
        <ele>82</ele>
        <time>2021-03-06T13:24:05Z</time>
      </trkpt>
      <trkpt lat="43.65429" lon="3.81955">
        <ele>82</ele>
        <time>2021-03-06T13:24:06Z</time>
      </trkpt>
      <trkpt lat="43.65427" lon="3.81948">
        <ele>82</ele>
        <time>2021-03-06T13:24:08Z</time>
      </trkpt>
      <trkpt lat="43.65424" lon="3.81941">
        <ele>81</ele>
        <time>2021-03-06T13:24:09Z</time>
      </trkpt>
      <trkpt lat="43.65422" lon="3.81935">
        <ele>81</ele>
        <time>2021-03-06T13:24:10Z</time>
      </trkpt>
      <trkpt lat="43.65417" lon="3.81922">
        <ele>81</ele>
        <time>2021-03-06T13:24:11Z</time>
      </trkpt>
      <trkpt lat="43.65415" lon="3.81916">
        <ele>81</ele>
        <time>2021-03-06T13:24:12Z</time>
      </trkpt>
      <trkpt lat="43.65413" lon="3.8191">
        <ele>81</ele>
        <time>2021-03-06T13:24:13Z</time>
      </trkpt>
      <trkpt lat="43.65412" lon="3.81904">
        <ele>81</ele>
        <time>2021-03-06T13:24:14Z</time>
      </trkpt>
      <trkpt lat="43.65409" lon="3.81892">
        <ele>81</ele>
        <time>2021-03-06T13:24:16Z</time>
      </trkpt>
      <trkpt lat="43.65408" lon="3.81887">
        <ele>81</ele>
        <time>2021-03-06T13:24:17Z</time>
      </trkpt>
      <trkpt lat="43.65407" lon="3.81881">
        <ele>81</ele>
        <time>2021-03-06T13:24:18Z</time>
      </trkpt>
      <trkpt lat="43.65405" lon="3.81876">
        <ele>80</ele>
        <time>2021-03-06T13:24:19Z</time>
      </trkpt>
      <trkpt lat="43.65403" lon="3.81863">
        <ele>80</ele>
        <time>2021-03-06T13:24:21Z</time>
      </trkpt>
      <trkpt lat="43.65403" lon="3.81857">
        <ele>80</ele>
        <time>2021-03-06T13:24:22Z</time>
      </trkpt>
      <trkpt lat="43.65403" lon="3.81852">
        <ele>80</ele>
        <time>2021-03-06T13:24:23Z</time>
      </trkpt>
      <trkpt lat="43.65406" lon="3.81847">
        <ele>80</ele>
        <time>2021-03-06T13:24:25Z</time>
      </trkpt>
      <trkpt lat="43.65411" lon="3.81843">
        <ele>80</ele>
        <time>2021-03-06T13:24:26Z</time>
      </trkpt>
      <trkpt lat="43.65416" lon="3.8184">
        <ele>80</ele>
        <time>2021-03-06T13:24:27Z</time>
      </trkpt>
      <trkpt lat="43.65421" lon="3.81838">
        <ele>80</ele>
        <time>2021-03-06T13:24:28Z</time>
      </trkpt>
      <trkpt lat="43.65426" lon="3.81837">
        <ele>79</ele>
        <time>2021-03-06T13:24:29Z</time>
      </trkpt>
      <trkpt lat="43.65431" lon="3.81835">
        <ele>79</ele>
        <time>2021-03-06T13:24:30Z</time>
      </trkpt>
      <trkpt lat="43.65435" lon="3.81833">
        <ele>79</ele>
        <time>2021-03-06T13:24:31Z</time>
      </trkpt>
      <trkpt lat="43.6544" lon="3.81831">
        <ele>79</ele>
        <time>2021-03-06T13:24:32Z</time>
      </trkpt>
      <trkpt lat="43.65444" lon="3.81829">
        <ele>79</ele>
        <time>2021-03-06T13:24:33Z</time>
      </trkpt>
      <trkpt lat="43.65448" lon="3.81827">
        <ele>79</ele>
        <time>2021-03-06T13:24:34Z</time>
      </trkpt>
      <trkpt lat="43.65453" lon="3.81825">
        <ele>79</ele>
        <time>2021-03-06T13:24:35Z</time>
      </trkpt>
      <trkpt lat="43.65456" lon="3.81824">
        <ele>79</ele>
        <time>2021-03-06T13:24:36Z</time>
      </trkpt>
      <trkpt lat="43.6546" lon="3.81823">
        <ele>79</ele>
        <time>2021-03-06T13:24:37Z</time>
      </trkpt>
      <trkpt lat="43.65464" lon="3.81822">
        <ele>79</ele>
        <time>2021-03-06T13:24:38Z</time>
      </trkpt>
      <trkpt lat="43.65467" lon="3.81821">
        <ele>78</ele>
        <time>2021-03-06T13:24:39Z</time>
      </trkpt>
      <trkpt lat="43.6547" lon="3.81821">
        <ele>78</ele>
        <time>2021-03-06T13:24:40Z</time>
      </trkpt>
      <trkpt lat="43.65476" lon="3.81818">
        <ele>78</ele>
        <time>2021-03-06T13:24:41Z</time>
      </trkpt>
      <trkpt lat="43.65478" lon="3.81817">
        <ele>78</ele>
        <time>2021-03-06T13:24:43Z</time>
      </trkpt>
      <trkpt lat="43.6548" lon="3.81815">
        <ele>78</ele>
        <time>2021-03-06T13:24:44Z</time>
      </trkpt>
      <trkpt lat="43.65482" lon="3.81814">
        <ele>78</ele>
        <time>2021-03-06T13:24:45Z</time>
      </trkpt>
      <trkpt lat="43.65484" lon="3.81812">
        <ele>78</ele>
        <time>2021-03-06T13:24:46Z</time>
      </trkpt>
      <trkpt lat="43.65486" lon="3.81811">
        <ele>78</ele>
        <time>2021-03-06T13:24:47Z</time>
      </trkpt>
      <trkpt lat="43.65488" lon="3.81809">
        <ele>78</ele>
        <time>2021-03-06T13:24:48Z</time>
      </trkpt>
      <trkpt lat="43.6549" lon="3.81807">
        <ele>78</ele>
        <time>2021-03-06T13:24:49Z</time>
      </trkpt>
      <trkpt lat="43.65494" lon="3.81803">
        <ele>78</ele>
        <time>2021-03-06T13:24:50Z</time>
      </trkpt>
      <trkpt lat="43.65496" lon="3.81801">
        <ele>78</ele>
        <time>2021-03-06T13:24:51Z</time>
      </trkpt>
      <trkpt lat="43.65498" lon="3.81799">
        <ele>78</ele>
        <time>2021-03-06T13:24:52Z</time>
      </trkpt>
      <trkpt lat="43.655" lon="3.81797">
        <ele>78</ele>
        <time>2021-03-06T13:24:53Z</time>
      </trkpt>
      <trkpt lat="43.65502" lon="3.81795">
        <ele>78</ele>
        <time>2021-03-06T13:24:54Z</time>
      </trkpt>
      <trkpt lat="43.65503" lon="3.81793">
        <ele>78</ele>
        <time>2021-03-06T13:24:55Z</time>
      </trkpt>
      <trkpt lat="43.65505" lon="3.81791">
        <ele>78</ele>
        <time>2021-03-06T13:24:56Z</time>
      </trkpt>
      <trkpt lat="43.65507" lon="3.8179">
        <ele>78</ele>
        <time>2021-03-06T13:24:57Z</time>
      </trkpt>
      <trkpt lat="43.65509" lon="3.81788">
        <ele>79</ele>
        <time>2021-03-06T13:24:59Z</time>
      </trkpt>
      <trkpt lat="43.65511" lon="3.81785">
        <ele>79</ele>
        <time>2021-03-06T13:25:00Z</time>
      </trkpt>
      <trkpt lat="43.65513" lon="3.81782">
        <ele>79</ele>
        <time>2021-03-06T13:25:01Z</time>
      </trkpt>
      <trkpt lat="43.65515" lon="3.8178">
        <ele>79</ele>
        <time>2021-03-06T13:25:02Z</time>
      </trkpt>
      <trkpt lat="43.65517" lon="3.81778">
        <ele>79</ele>
        <time>2021-03-06T13:25:03Z</time>
      </trkpt>
      <trkpt lat="43.65519" lon="3.81775">
        <ele>79</ele>
        <time>2021-03-06T13:25:04Z</time>
      </trkpt>
      <trkpt lat="43.65521" lon="3.81773">
        <ele>79</ele>
        <time>2021-03-06T13:25:05Z</time>
      </trkpt>
      <trkpt lat="43.65523" lon="3.81771">
        <ele>79</ele>
        <time>2021-03-06T13:25:06Z</time>
      </trkpt>
      <trkpt lat="43.65525" lon="3.81769">
        <ele>79</ele>
        <time>2021-03-06T13:25:07Z</time>
      </trkpt>
      <trkpt lat="43.65527" lon="3.81766">
        <ele>79</ele>
        <time>2021-03-06T13:25:08Z</time>
      </trkpt>
      <trkpt lat="43.65529" lon="3.81763">
        <ele>79</ele>
        <time>2021-03-06T13:25:09Z</time>
      </trkpt>
      <trkpt lat="43.65531" lon="3.81761">
        <ele>79</ele>
        <time>2021-03-06T13:25:10Z</time>
      </trkpt>
      <trkpt lat="43.65533" lon="3.81759">
        <ele>79</ele>
        <time>2021-03-06T13:25:11Z</time>
      </trkpt>
      <trkpt lat="43.65535" lon="3.81756">
        <ele>79</ele>
        <time>2021-03-06T13:25:12Z</time>
      </trkpt>
      <trkpt lat="43.65537" lon="3.81754">
        <ele>79</ele>
        <time>2021-03-06T13:25:13Z</time>
      </trkpt>
      <trkpt lat="43.6554" lon="3.81751">
        <ele>79</ele>
        <time>2021-03-06T13:25:14Z</time>
      </trkpt>
      <trkpt lat="43.65542" lon="3.81749">
        <ele>79</ele>
        <time>2021-03-06T13:25:15Z</time>
      </trkpt>
      <trkpt lat="43.65544" lon="3.81747">
        <ele>79</ele>
        <time>2021-03-06T13:25:16Z</time>
      </trkpt>
      <trkpt lat="43.65547" lon="3.81745">
        <ele>79</ele>
        <time>2021-03-06T13:25:17Z</time>
      </trkpt>
      <trkpt lat="43.65549" lon="3.81743">
        <ele>79</ele>
        <time>2021-03-06T13:25:18Z</time>
      </trkpt>
      <trkpt lat="43.65551" lon="3.8174">
        <ele>79</ele>
        <time>2021-03-06T13:25:19Z</time>
      </trkpt>
      <trkpt lat="43.65553" lon="3.81738">
        <ele>79</ele>
        <time>2021-03-06T13:25:20Z</time>
      </trkpt>
      <trkpt lat="43.65556" lon="3.81736">
        <ele>79</ele>
        <time>2021-03-06T13:25:21Z</time>
      </trkpt>
      <trkpt lat="43.65558" lon="3.81733">
        <ele>79</ele>
        <time>2021-03-06T13:25:22Z</time>
      </trkpt>
      <trkpt lat="43.65561" lon="3.81731">
        <ele>79</ele>
        <time>2021-03-06T13:25:23Z</time>
      </trkpt>
      <trkpt lat="43.65563" lon="3.81729">
        <ele>79</ele>
        <time>2021-03-06T13:25:24Z</time>
      </trkpt>
      <trkpt lat="43.65566" lon="3.81727">
        <ele>79</ele>
        <time>2021-03-06T13:25:25Z</time>
      </trkpt>
      <trkpt lat="43.65568" lon="3.81724">
        <ele>79</ele>
        <time>2021-03-06T13:25:26Z</time>
      </trkpt>
      <trkpt lat="43.6557" lon="3.81722">
        <ele>79</ele>
        <time>2021-03-06T13:25:27Z</time>
      </trkpt>
      <trkpt lat="43.65573" lon="3.81719">
        <ele>79</ele>
        <time>2021-03-06T13:25:28Z</time>
      </trkpt>
      <trkpt lat="43.65575" lon="3.81717">
        <ele>79</ele>
        <time>2021-03-06T13:25:29Z</time>
      </trkpt>
      <trkpt lat="43.65577" lon="3.81715">
        <ele>79</ele>
        <time>2021-03-06T13:25:30Z</time>
      </trkpt>
      <trkpt lat="43.6558" lon="3.81712">
        <ele>79</ele>
        <time>2021-03-06T13:25:31Z</time>
      </trkpt>
      <trkpt lat="43.65582" lon="3.8171">
        <ele>79</ele>
        <time>2021-03-06T13:25:32Z</time>
      </trkpt>
      <trkpt lat="43.65584" lon="3.81707">
        <ele>79</ele>
        <time>2021-03-06T13:25:33Z</time>
      </trkpt>
      <trkpt lat="43.65587" lon="3.81705">
        <ele>79</ele>
        <time>2021-03-06T13:25:34Z</time>
      </trkpt>
      <trkpt lat="43.65589" lon="3.81702">
        <ele>79</ele>
        <time>2021-03-06T13:25:35Z</time>
      </trkpt>
      <trkpt lat="43.65591" lon="3.817">
        <ele>79</ele>
        <time>2021-03-06T13:25:36Z</time>
      </trkpt>
      <trkpt lat="43.65593" lon="3.81697">
        <ele>79</ele>
        <time>2021-03-06T13:25:37Z</time>
      </trkpt>
      <trkpt lat="43.65595" lon="3.81694">
        <ele>79</ele>
        <time>2021-03-06T13:25:38Z</time>
      </trkpt>
      <trkpt lat="43.65599" lon="3.8169">
        <ele>79</ele>
        <time>2021-03-06T13:25:39Z</time>
      </trkpt>
      <trkpt lat="43.65602" lon="3.81688">
        <ele>79</ele>
        <time>2021-03-06T13:25:40Z</time>
      </trkpt>
      <trkpt lat="43.65604" lon="3.81687">
        <ele>79</ele>
        <time>2021-03-06T13:25:41Z</time>
      </trkpt>
      <trkpt lat="43.65607" lon="3.81686">
        <ele>79</ele>
        <time>2021-03-06T13:25:42Z</time>
      </trkpt>
      <trkpt lat="43.65609" lon="3.81685">
        <ele>79</ele>
        <time>2021-03-06T13:25:43Z</time>
      </trkpt>
      <trkpt lat="43.65611" lon="3.81683">
        <ele>79</ele>
        <time>2021-03-06T13:25:44Z</time>
      </trkpt>
      <trkpt lat="43.65614" lon="3.81682">
        <ele>79</ele>
        <time>2021-03-06T13:25:45Z</time>
      </trkpt>
      <trkpt lat="43.65617" lon="3.81682">
        <ele>79</ele>
        <time>2021-03-06T13:25:46Z</time>
      </trkpt>
      <trkpt lat="43.6562" lon="3.81681">
        <ele>79</ele>
        <time>2021-03-06T13:25:47Z</time>
      </trkpt>
      <trkpt lat="43.65622" lon="3.81681">
        <ele>79</ele>
        <time>2021-03-06T13:25:48Z</time>
      </trkpt>
      <trkpt lat="43.65625" lon="3.8168">
        <ele>79</ele>
        <time>2021-03-06T13:25:50Z</time>
      </trkpt>
      <trkpt lat="43.65628" lon="3.81678">
        <ele>79</ele>
        <time>2021-03-06T13:25:51Z</time>
      </trkpt>
      <trkpt lat="43.6563" lon="3.81677">
        <ele>79</ele>
        <time>2021-03-06T13:25:52Z</time>
      </trkpt>
      <trkpt lat="43.65633" lon="3.81677">
        <ele>79</ele>
        <time>2021-03-06T13:25:53Z</time>
      </trkpt>
      <trkpt lat="43.65635" lon="3.81675">
        <ele>79</ele>
        <time>2021-03-06T13:25:54Z</time>
      </trkpt>
      <trkpt lat="43.65637" lon="3.81674">
        <ele>79</ele>
        <time>2021-03-06T13:25:55Z</time>
      </trkpt>
      <trkpt lat="43.6564" lon="3.81672">
        <ele>79</ele>
        <time>2021-03-06T13:25:56Z</time>
      </trkpt>
      <trkpt lat="43.65642" lon="3.81671">
        <ele>79</ele>
        <time>2021-03-06T13:25:57Z</time>
      </trkpt>
      <trkpt lat="43.65647" lon="3.81668">
        <ele>79</ele>
        <time>2021-03-06T13:25:58Z</time>
      </trkpt>
      <trkpt lat="43.65649" lon="3.81667">
        <ele>80</ele>
        <time>2021-03-06T13:25:59Z</time>
      </trkpt>
      <trkpt lat="43.65652" lon="3.81666">
        <ele>80</ele>
        <time>2021-03-06T13:26:00Z</time>
      </trkpt>
      <trkpt lat="43.65656" lon="3.81665">
        <ele>80</ele>
        <time>2021-03-06T13:26:02Z</time>
      </trkpt>
      <trkpt lat="43.65659" lon="3.81665">
        <ele>80</ele>
        <time>2021-03-06T13:26:03Z</time>
      </trkpt>
      <trkpt lat="43.65661" lon="3.81664">
        <ele>80</ele>
        <time>2021-03-06T13:26:04Z</time>
      </trkpt>
      <trkpt lat="43.65666" lon="3.81664">
        <ele>80</ele>
        <time>2021-03-06T13:26:06Z</time>
      </trkpt>
      <trkpt lat="43.65668" lon="3.81663">
        <ele>80</ele>
        <time>2021-03-06T13:26:07Z</time>
      </trkpt>
      <trkpt lat="43.65671" lon="3.81663">
        <ele>80</ele>
        <time>2021-03-06T13:26:08Z</time>
      </trkpt>
      <trkpt lat="43.65673" lon="3.81663">
        <ele>81</ele>
        <time>2021-03-06T13:26:09Z</time>
      </trkpt>
      <trkpt lat="43.65676" lon="3.81662">
        <ele>81</ele>
        <time>2021-03-06T13:26:10Z</time>
      </trkpt>
      <trkpt lat="43.65678" lon="3.81663">
        <ele>81</ele>
        <time>2021-03-06T13:26:11Z</time>
      </trkpt>
      <trkpt lat="43.65681" lon="3.81663">
        <ele>81</ele>
        <time>2021-03-06T13:26:12Z</time>
      </trkpt>
      <trkpt lat="43.65683" lon="3.81663">
        <ele>81</ele>
        <time>2021-03-06T13:26:13Z</time>
      </trkpt>
      <trkpt lat="43.65685" lon="3.81663">
        <ele>81</ele>
        <time>2021-03-06T13:26:14Z</time>
      </trkpt>
      <trkpt lat="43.65687" lon="3.81663">
        <ele>81</ele>
        <time>2021-03-06T13:26:15Z</time>
      </trkpt>
      <trkpt lat="43.65689" lon="3.81663">
        <ele>81</ele>
        <time>2021-03-06T13:26:17Z</time>
      </trkpt>
      <trkpt lat="43.65695" lon="3.8166">
        <ele>82</ele>
        <time>2021-03-06T13:26:28Z</time>
      </trkpt>
      <trkpt lat="43.65701" lon="3.81658">
        <ele>82</ele>
        <time>2021-03-06T13:26:29Z</time>
      </trkpt>
      <trkpt lat="43.65707" lon="3.81655">
        <ele>82</ele>
        <time>2021-03-06T13:26:31Z</time>
      </trkpt>
      <trkpt lat="43.6571" lon="3.81654">
        <ele>82</ele>
        <time>2021-03-06T13:26:33Z</time>
      </trkpt>
      <trkpt lat="43.65712" lon="3.81652">
        <ele>82</ele>
        <time>2021-03-06T13:26:34Z</time>
      </trkpt>
      <trkpt lat="43.65713" lon="3.8165">
        <ele>82</ele>
        <time>2021-03-06T13:26:35Z</time>
      </trkpt>
      <trkpt lat="43.65715" lon="3.81648">
        <ele>82</ele>
        <time>2021-03-06T13:26:36Z</time>
      </trkpt>
      <trkpt lat="43.65716" lon="3.81646">
        <ele>82</ele>
        <time>2021-03-06T13:26:37Z</time>
      </trkpt>
      <trkpt lat="43.65719" lon="3.81642">
        <ele>84</ele>
        <time>2021-03-06T13:26:38Z</time>
      </trkpt>
      <trkpt lat="43.6572" lon="3.8164">
        <ele>84</ele>
        <time>2021-03-06T13:26:39Z</time>
      </trkpt>
      <trkpt lat="43.65723" lon="3.81636">
        <ele>84</ele>
        <time>2021-03-06T13:26:41Z</time>
      </trkpt>
      <trkpt lat="43.65724" lon="3.81634">
        <ele>84</ele>
        <time>2021-03-06T13:26:42Z</time>
      </trkpt>
      <trkpt lat="43.65726" lon="3.81632">
        <ele>84</ele>
        <time>2021-03-06T13:26:43Z</time>
      </trkpt>
      <trkpt lat="43.65729" lon="3.81627">
        <ele>84</ele>
        <time>2021-03-06T13:26:45Z</time>
      </trkpt>
      <trkpt lat="43.65731" lon="3.81625">
        <ele>84</ele>
        <time>2021-03-06T13:26:46Z</time>
      </trkpt>
      <trkpt lat="43.65733" lon="3.81623">
        <ele>84</ele>
        <time>2021-03-06T13:26:47Z</time>
      </trkpt>
      <trkpt lat="43.65735" lon="3.81621">
        <ele>85</ele>
        <time>2021-03-06T13:26:48Z</time>
      </trkpt>
      <trkpt lat="43.65737" lon="3.81619">
        <ele>85</ele>
        <time>2021-03-06T13:26:49Z</time>
      </trkpt>
      <trkpt lat="43.65739" lon="3.81617">
        <ele>85</ele>
        <time>2021-03-06T13:26:50Z</time>
      </trkpt>
      <trkpt lat="43.65741" lon="3.81616">
        <ele>85</ele>
        <time>2021-03-06T13:26:51Z</time>
      </trkpt>
      <trkpt lat="43.65743" lon="3.81614">
        <ele>85</ele>
        <time>2021-03-06T13:26:52Z</time>
      </trkpt>
      <trkpt lat="43.65746" lon="3.81612">
        <ele>85</ele>
        <time>2021-03-06T13:26:53Z</time>
      </trkpt>
      <trkpt lat="43.65749" lon="3.8161">
        <ele>85</ele>
        <time>2021-03-06T13:26:54Z</time>
      </trkpt>
      <trkpt lat="43.65752" lon="3.81609">
        <ele>85</ele>
        <time>2021-03-06T13:26:55Z</time>
      </trkpt>
      <trkpt lat="43.65755" lon="3.81607">
        <ele>85</ele>
        <time>2021-03-06T13:26:56Z</time>
      </trkpt>
      <trkpt lat="43.65758" lon="3.81605">
        <ele>85</ele>
        <time>2021-03-06T13:26:57Z</time>
      </trkpt>
      <trkpt lat="43.65761" lon="3.81603">
        <ele>86</ele>
        <time>2021-03-06T13:26:58Z</time>
      </trkpt>
      <trkpt lat="43.65765" lon="3.816">
        <ele>86</ele>
        <time>2021-03-06T13:26:59Z</time>
      </trkpt>
      <trkpt lat="43.65771" lon="3.81594">
        <ele>86</ele>
        <time>2021-03-06T13:27:01Z</time>
      </trkpt>
      <trkpt lat="43.65774" lon="3.81591">
        <ele>86</ele>
        <time>2021-03-06T13:27:02Z</time>
      </trkpt>
      <trkpt lat="43.65776" lon="3.81588">
        <ele>86</ele>
        <time>2021-03-06T13:27:03Z</time>
      </trkpt>
      <trkpt lat="43.65779" lon="3.81586">
        <ele>86</ele>
        <time>2021-03-06T13:27:04Z</time>
      </trkpt>
      <trkpt lat="43.65782" lon="3.81582">
        <ele>86</ele>
        <time>2021-03-06T13:27:05Z</time>
      </trkpt>
      <trkpt lat="43.65787" lon="3.81576">
        <ele>86</ele>
        <time>2021-03-06T13:27:07Z</time>
      </trkpt>
      <trkpt lat="43.6579" lon="3.81574">
        <ele>86</ele>
        <time>2021-03-06T13:27:08Z</time>
      </trkpt>
      <trkpt lat="43.65792" lon="3.81571">
        <ele>86</ele>
        <time>2021-03-06T13:27:10Z</time>
      </trkpt>
      <trkpt lat="43.65797" lon="3.81566">
        <ele>86</ele>
        <time>2021-03-06T13:27:11Z</time>
      </trkpt>
      <trkpt lat="43.658" lon="3.81563">
        <ele>86</ele>
        <time>2021-03-06T13:27:13Z</time>
      </trkpt>
      <trkpt lat="43.65802" lon="3.8156">
        <ele>86</ele>
        <time>2021-03-06T13:27:14Z</time>
      </trkpt>
      <trkpt lat="43.65805" lon="3.81557">
        <ele>86</ele>
        <time>2021-03-06T13:27:15Z</time>
      </trkpt>
      <trkpt lat="43.65808" lon="3.81554">
        <ele>86</ele>
        <time>2021-03-06T13:27:16Z</time>
      </trkpt>
      <trkpt lat="43.65811" lon="3.81551">
        <ele>86</ele>
        <time>2021-03-06T13:27:17Z</time>
      </trkpt>
      <trkpt lat="43.65814" lon="3.81547">
        <ele>85</ele>
        <time>2021-03-06T13:27:18Z</time>
      </trkpt>
      <trkpt lat="43.65816" lon="3.81544">
        <ele>85</ele>
        <time>2021-03-06T13:27:19Z</time>
      </trkpt>
      <trkpt lat="43.65819" lon="3.81541">
        <ele>85</ele>
        <time>2021-03-06T13:27:20Z</time>
      </trkpt>
      <trkpt lat="43.65822" lon="3.81538">
        <ele>85</ele>
        <time>2021-03-06T13:27:21Z</time>
      </trkpt>
      <trkpt lat="43.65825" lon="3.81535">
        <ele>85</ele>
        <time>2021-03-06T13:27:22Z</time>
      </trkpt>
      <trkpt lat="43.65831" lon="3.81529">
        <ele>85</ele>
        <time>2021-03-06T13:27:23Z</time>
      </trkpt>
      <trkpt lat="43.65834" lon="3.81526">
        <ele>85</ele>
        <time>2021-03-06T13:27:24Z</time>
      </trkpt>
      <trkpt lat="43.65837" lon="3.81523">
        <ele>85</ele>
        <time>2021-03-06T13:27:25Z</time>
      </trkpt>
      <trkpt lat="43.6584" lon="3.81519">
        <ele>85</ele>
        <time>2021-03-06T13:27:26Z</time>
      </trkpt>
      <trkpt lat="43.65843" lon="3.81516">
        <ele>85</ele>
        <time>2021-03-06T13:27:27Z</time>
      </trkpt>
      <trkpt lat="43.65846" lon="3.81513">
        <ele>84</ele>
        <time>2021-03-06T13:27:28Z</time>
      </trkpt>
      <trkpt lat="43.65849" lon="3.8151">
        <ele>84</ele>
        <time>2021-03-06T13:27:29Z</time>
      </trkpt>
      <trkpt lat="43.65851" lon="3.81507">
        <ele>84</ele>
        <time>2021-03-06T13:27:30Z</time>
      </trkpt>
      <trkpt lat="43.65854" lon="3.81504">
        <ele>84</ele>
        <time>2021-03-06T13:27:31Z</time>
      </trkpt>
      <trkpt lat="43.65857" lon="3.815">
        <ele>84</ele>
        <time>2021-03-06T13:27:33Z</time>
      </trkpt>
      <trkpt lat="43.6586" lon="3.81497">
        <ele>84</ele>
        <time>2021-03-06T13:27:34Z</time>
      </trkpt>
      <trkpt lat="43.65863" lon="3.81494">
        <ele>84</ele>
        <time>2021-03-06T13:27:35Z</time>
      </trkpt>
      <trkpt lat="43.65869" lon="3.81487">
        <ele>84</ele>
        <time>2021-03-06T13:27:36Z</time>
      </trkpt>
      <trkpt lat="43.65872" lon="3.81484">
        <ele>84</ele>
        <time>2021-03-06T13:27:37Z</time>
      </trkpt>
      <trkpt lat="43.65875" lon="3.81481">
        <ele>84</ele>
        <time>2021-03-06T13:27:38Z</time>
      </trkpt>
      <trkpt lat="43.65878" lon="3.81478">
        <ele>84</ele>
        <time>2021-03-06T13:27:39Z</time>
      </trkpt>
      <trkpt lat="43.65881" lon="3.81475">
        <ele>84</ele>
        <time>2021-03-06T13:27:40Z</time>
      </trkpt>
      <trkpt lat="43.65885" lon="3.81472">
        <ele>84</ele>
        <time>2021-03-06T13:27:41Z</time>
      </trkpt>
      <trkpt lat="43.65888" lon="3.81468">
        <ele>84</ele>
        <time>2021-03-06T13:27:42Z</time>
      </trkpt>
      <trkpt lat="43.65891" lon="3.81464">
        <ele>84</ele>
        <time>2021-03-06T13:27:43Z</time>
      </trkpt>
      <trkpt lat="43.65894" lon="3.8146">
        <ele>84</ele>
        <time>2021-03-06T13:27:44Z</time>
      </trkpt>
      <trkpt lat="43.659" lon="3.81453">
        <ele>84</ele>
        <time>2021-03-06T13:27:46Z</time>
      </trkpt>
      <trkpt lat="43.65904" lon="3.81449">
        <ele>83</ele>
        <time>2021-03-06T13:27:48Z</time>
      </trkpt>
      <trkpt lat="43.65907" lon="3.81446">
        <ele>83</ele>
        <time>2021-03-06T13:27:49Z</time>
      </trkpt>
      <trkpt lat="43.65911" lon="3.81443">
        <ele>83</ele>
        <time>2021-03-06T13:27:50Z</time>
      </trkpt>
      <trkpt lat="43.65914" lon="3.8144">
        <ele>83</ele>
        <time>2021-03-06T13:27:51Z</time>
      </trkpt>
      <trkpt lat="43.65918" lon="3.81437">
        <ele>83</ele>
        <time>2021-03-06T13:27:52Z</time>
      </trkpt>
      <trkpt lat="43.65922" lon="3.81434">
        <ele>83</ele>
        <time>2021-03-06T13:27:53Z</time>
      </trkpt>
      <trkpt lat="43.65929" lon="3.81428">
        <ele>83</ele>
        <time>2021-03-06T13:27:54Z</time>
      </trkpt>
      <trkpt lat="43.65933" lon="3.81425">
        <ele>83</ele>
        <time>2021-03-06T13:27:55Z</time>
      </trkpt>
      <trkpt lat="43.65936" lon="3.81421">
        <ele>83</ele>
        <time>2021-03-06T13:27:56Z</time>
      </trkpt>
      <trkpt lat="43.65943" lon="3.81416">
        <ele>83</ele>
        <time>2021-03-06T13:27:58Z</time>
      </trkpt>
      <trkpt lat="43.65946" lon="3.81414">
        <ele>83</ele>
        <time>2021-03-06T13:27:59Z</time>
      </trkpt>
      <trkpt lat="43.65949" lon="3.81412">
        <ele>83</ele>
        <time>2021-03-06T13:28:00Z</time>
      </trkpt>
      <trkpt lat="43.65956" lon="3.81409">
        <ele>83</ele>
        <time>2021-03-06T13:28:02Z</time>
      </trkpt>
      <trkpt lat="43.65959" lon="3.81408">
        <ele>83</ele>
        <time>2021-03-06T13:28:03Z</time>
      </trkpt>
      <trkpt lat="43.65965" lon="3.81405">
        <ele>83</ele>
        <time>2021-03-06T13:28:05Z</time>
      </trkpt>
      <trkpt lat="43.65968" lon="3.81403">
        <ele>83</ele>
        <time>2021-03-06T13:28:06Z</time>
      </trkpt>
      <trkpt lat="43.65971" lon="3.81402">
        <ele>83</ele>
        <time>2021-03-06T13:28:07Z</time>
      </trkpt>
      <trkpt lat="43.65975" lon="3.814">
        <ele>83</ele>
        <time>2021-03-06T13:28:08Z</time>
      </trkpt>
      <trkpt lat="43.65978" lon="3.81398">
        <ele>83</ele>
        <time>2021-03-06T13:28:09Z</time>
      </trkpt>
      <trkpt lat="43.65983" lon="3.81395">
        <ele>83</ele>
        <time>2021-03-06T13:28:11Z</time>
      </trkpt>
      <trkpt lat="43.65987" lon="3.81393">
        <ele>83</ele>
        <time>2021-03-06T13:28:12Z</time>
      </trkpt>
      <trkpt lat="43.6599" lon="3.81392">
        <ele>83</ele>
        <time>2021-03-06T13:28:13Z</time>
      </trkpt>
      <trkpt lat="43.65996" lon="3.81389">
        <ele>83</ele>
        <time>2021-03-06T13:28:15Z</time>
      </trkpt>
      <trkpt lat="43.65999" lon="3.81388">
        <ele>83</ele>
        <time>2021-03-06T13:28:16Z</time>
      </trkpt>
      <trkpt lat="43.66002" lon="3.81386">
        <ele>83</ele>
        <time>2021-03-06T13:28:17Z</time>
      </trkpt>
      <trkpt lat="43.66008" lon="3.81385">
        <ele>83</ele>
        <time>2021-03-06T13:28:19Z</time>
      </trkpt>
      <trkpt lat="43.66011" lon="3.81384">
        <ele>83</ele>
        <time>2021-03-06T13:28:21Z</time>
      </trkpt>
      <trkpt lat="43.66014" lon="3.81383">
        <ele>83</ele>
        <time>2021-03-06T13:28:22Z</time>
      </trkpt>
      <trkpt lat="43.66018" lon="3.81382">
        <ele>83</ele>
        <time>2021-03-06T13:28:23Z</time>
      </trkpt>
      <trkpt lat="43.66021" lon="3.81382">
        <ele>83</ele>
        <time>2021-03-06T13:28:24Z</time>
      </trkpt>
      <trkpt lat="43.66023" lon="3.81382">
        <ele>83</ele>
        <time>2021-03-06T13:28:25Z</time>
      </trkpt>
      <trkpt lat="43.66026" lon="3.81382">
        <ele>83</ele>
        <time>2021-03-06T13:28:26Z</time>
      </trkpt>
      <trkpt lat="43.66029" lon="3.81381">
        <ele>83</ele>
        <time>2021-03-06T13:28:27Z</time>
      </trkpt>
      <trkpt lat="43.66032" lon="3.8138">
        <ele>84</ele>
        <time>2021-03-06T13:28:28Z</time>
      </trkpt>
      <trkpt lat="43.66034" lon="3.8138">
        <ele>84</ele>
        <time>2021-03-06T13:28:29Z</time>
      </trkpt>
      <trkpt lat="43.66037" lon="3.81379">
        <ele>84</ele>
        <time>2021-03-06T13:28:30Z</time>
      </trkpt>
      <trkpt lat="43.66043" lon="3.81377">
        <ele>84</ele>
        <time>2021-03-06T13:28:31Z</time>
      </trkpt>
      <trkpt lat="43.66045" lon="3.81376">
        <ele>84</ele>
        <time>2021-03-06T13:28:32Z</time>
      </trkpt>
      <trkpt lat="43.66048" lon="3.81374">
        <ele>84</ele>
        <time>2021-03-06T13:28:33Z</time>
      </trkpt>
      <trkpt lat="43.6605" lon="3.81373">
        <ele>84</ele>
        <time>2021-03-06T13:28:34Z</time>
      </trkpt>
      <trkpt lat="43.66055" lon="3.81371">
        <ele>84</ele>
        <time>2021-03-06T13:28:36Z</time>
      </trkpt>
      <trkpt lat="43.66058" lon="3.8137">
        <ele>84</ele>
        <time>2021-03-06T13:28:38Z</time>
      </trkpt>
      <trkpt lat="43.6606" lon="3.81368">
        <ele>84</ele>
        <time>2021-03-06T13:28:39Z</time>
      </trkpt>
      <trkpt lat="43.66066" lon="3.81366">
        <ele>84</ele>
        <time>2021-03-06T13:28:40Z</time>
      </trkpt>
      <trkpt lat="43.66069" lon="3.81365">
        <ele>84</ele>
        <time>2021-03-06T13:28:41Z</time>
      </trkpt>
      <trkpt lat="43.66072" lon="3.81364">
        <ele>84</ele>
        <time>2021-03-06T13:28:42Z</time>
      </trkpt>
      <trkpt lat="43.66077" lon="3.81361">
        <ele>84</ele>
        <time>2021-03-06T13:28:44Z</time>
      </trkpt>
      <trkpt lat="43.6608" lon="3.8136">
        <ele>84</ele>
        <time>2021-03-06T13:28:45Z</time>
      </trkpt>
      <trkpt lat="43.66083" lon="3.81358">
        <ele>84</ele>
        <time>2021-03-06T13:28:46Z</time>
      </trkpt>
      <trkpt lat="43.66086" lon="3.81357">
        <ele>84</ele>
        <time>2021-03-06T13:28:47Z</time>
      </trkpt>
      <trkpt lat="43.66089" lon="3.81356">
        <ele>84</ele>
        <time>2021-03-06T13:28:49Z</time>
      </trkpt>
      <trkpt lat="43.66092" lon="3.81354">
        <ele>84</ele>
        <time>2021-03-06T13:28:50Z</time>
      </trkpt>
      <trkpt lat="43.66095" lon="3.81353">
        <ele>84</ele>
        <time>2021-03-06T13:28:51Z</time>
      </trkpt>
      <trkpt lat="43.66098" lon="3.81352">
        <ele>84</ele>
        <time>2021-03-06T13:28:52Z</time>
      </trkpt>
      <trkpt lat="43.66104" lon="3.81349">
        <ele>84</ele>
        <time>2021-03-06T13:28:53Z</time>
      </trkpt>
      <trkpt lat="43.66107" lon="3.81348">
        <ele>84</ele>
        <time>2021-03-06T13:28:55Z</time>
      </trkpt>
      <trkpt lat="43.6611" lon="3.81346">
        <ele>84</ele>
        <time>2021-03-06T13:28:56Z</time>
      </trkpt>
      <trkpt lat="43.66112" lon="3.81345">
        <ele>84</ele>
        <time>2021-03-06T13:28:57Z</time>
      </trkpt>
      <trkpt lat="43.66115" lon="3.81343">
        <ele>84</ele>
        <time>2021-03-06T13:28:58Z</time>
      </trkpt>
      <trkpt lat="43.66118" lon="3.81342">
        <ele>84</ele>
        <time>2021-03-06T13:28:59Z</time>
      </trkpt>
      <trkpt lat="43.66121" lon="3.8134">
        <ele>84</ele>
        <time>2021-03-06T13:29:00Z</time>
      </trkpt>
      <trkpt lat="43.66124" lon="3.81339">
        <ele>84</ele>
        <time>2021-03-06T13:29:01Z</time>
      </trkpt>
      <trkpt lat="43.66127" lon="3.81337">
        <ele>84</ele>
        <time>2021-03-06T13:29:02Z</time>
      </trkpt>
      <trkpt lat="43.6613" lon="3.81336">
        <ele>84</ele>
        <time>2021-03-06T13:29:03Z</time>
      </trkpt>
      <trkpt lat="43.66132" lon="3.81334">
        <ele>84</ele>
        <time>2021-03-06T13:29:04Z</time>
      </trkpt>
      <trkpt lat="43.66135" lon="3.81333">
        <ele>84</ele>
        <time>2021-03-06T13:29:05Z</time>
      </trkpt>
      <trkpt lat="43.66137" lon="3.81331">
        <ele>84</ele>
        <time>2021-03-06T13:29:06Z</time>
      </trkpt>
      <trkpt lat="43.6614" lon="3.81329">
        <ele>84</ele>
        <time>2021-03-06T13:29:07Z</time>
      </trkpt>
      <trkpt lat="43.66142" lon="3.81328">
        <ele>85</ele>
        <time>2021-03-06T13:29:08Z</time>
      </trkpt>
      <trkpt lat="43.66144" lon="3.81326">
        <ele>85</ele>
        <time>2021-03-06T13:29:09Z</time>
      </trkpt>
      <trkpt lat="43.66146" lon="3.81324">
        <ele>85</ele>
        <time>2021-03-06T13:29:10Z</time>
      </trkpt>
      <trkpt lat="43.66148" lon="3.81323">
        <ele>85</ele>
        <time>2021-03-06T13:29:11Z</time>
      </trkpt>
      <trkpt lat="43.6615" lon="3.81321">
        <ele>85</ele>
        <time>2021-03-06T13:29:12Z</time>
      </trkpt>
      <trkpt lat="43.66152" lon="3.8132">
        <ele>85</ele>
        <time>2021-03-06T13:29:13Z</time>
      </trkpt>
      <trkpt lat="43.66155" lon="3.81318">
        <ele>85</ele>
        <time>2021-03-06T13:29:14Z</time>
      </trkpt>
      <trkpt lat="43.66159" lon="3.81315">
        <ele>85</ele>
        <time>2021-03-06T13:29:15Z</time>
      </trkpt>
      <trkpt lat="43.66162" lon="3.81313">
        <ele>85</ele>
        <time>2021-03-06T13:29:16Z</time>
      </trkpt>
      <trkpt lat="43.66164" lon="3.81312">
        <ele>85</ele>
        <time>2021-03-06T13:29:17Z</time>
      </trkpt>
      <trkpt lat="43.66167" lon="3.8131">
        <ele>87</ele>
        <time>2021-03-06T13:29:18Z</time>
      </trkpt>
      <trkpt lat="43.66172" lon="3.81308">
        <ele>87</ele>
        <time>2021-03-06T13:29:20Z</time>
      </trkpt>
      <trkpt lat="43.66174" lon="3.81306">
        <ele>87</ele>
        <time>2021-03-06T13:29:21Z</time>
      </trkpt>
      <trkpt lat="43.66176" lon="3.81305">
        <ele>87</ele>
        <time>2021-03-06T13:29:22Z</time>
      </trkpt>
      <trkpt lat="43.66179" lon="3.81303">
        <ele>87</ele>
        <time>2021-03-06T13:29:23Z</time>
      </trkpt>
      <trkpt lat="43.66181" lon="3.81302">
        <ele>87</ele>
        <time>2021-03-06T13:29:25Z</time>
      </trkpt>
      <trkpt lat="43.66183" lon="3.813">
        <ele>87</ele>
        <time>2021-03-06T13:29:26Z</time>
      </trkpt>
      <trkpt lat="43.66185" lon="3.81299">
        <ele>87</ele>
        <time>2021-03-06T13:29:27Z</time>
      </trkpt>
      <trkpt lat="43.66188" lon="3.81297">
        <ele>89</ele>
        <time>2021-03-06T13:29:28Z</time>
      </trkpt>
      <trkpt lat="43.6619" lon="3.81296">
        <ele>89</ele>
        <time>2021-03-06T13:29:29Z</time>
      </trkpt>
      <trkpt lat="43.66192" lon="3.81294">
        <ele>89</ele>
        <time>2021-03-06T13:29:30Z</time>
      </trkpt>
      <trkpt lat="43.66194" lon="3.81293">
        <ele>89</ele>
        <time>2021-03-06T13:29:31Z</time>
      </trkpt>
      <trkpt lat="43.66197" lon="3.81292">
        <ele>89</ele>
        <time>2021-03-06T13:29:32Z</time>
      </trkpt>
      <trkpt lat="43.66199" lon="3.81291">
        <ele>89</ele>
        <time>2021-03-06T13:29:33Z</time>
      </trkpt>
      <trkpt lat="43.66201" lon="3.8129">
        <ele>89</ele>
        <time>2021-03-06T13:29:34Z</time>
      </trkpt>
      <trkpt lat="43.66204" lon="3.81288">
        <ele>89</ele>
        <time>2021-03-06T13:29:35Z</time>
      </trkpt>
      <trkpt lat="43.66206" lon="3.81287">
        <ele>89</ele>
        <time>2021-03-06T13:29:36Z</time>
      </trkpt>
      <trkpt lat="43.66208" lon="3.81286">
        <ele>89</ele>
        <time>2021-03-06T13:29:37Z</time>
      </trkpt>
      <trkpt lat="43.6621" lon="3.81284">
        <ele>91</ele>
        <time>2021-03-06T13:29:38Z</time>
      </trkpt>
      <trkpt lat="43.66212" lon="3.81283">
        <ele>91</ele>
        <time>2021-03-06T13:29:39Z</time>
      </trkpt>
      <trkpt lat="43.66214" lon="3.81282">
        <ele>91</ele>
        <time>2021-03-06T13:29:40Z</time>
      </trkpt>
      <trkpt lat="43.66216" lon="3.81281">
        <ele>91</ele>
        <time>2021-03-06T13:29:41Z</time>
      </trkpt>
      <trkpt lat="43.66218" lon="3.8128">
        <ele>91</ele>
        <time>2021-03-06T13:29:42Z</time>
      </trkpt>
      <trkpt lat="43.6622" lon="3.81279">
        <ele>91</ele>
        <time>2021-03-06T13:29:43Z</time>
      </trkpt>
      <trkpt lat="43.66222" lon="3.81279">
        <ele>91</ele>
        <time>2021-03-06T13:29:44Z</time>
      </trkpt>
      <trkpt lat="43.66224" lon="3.81278">
        <ele>91</ele>
        <time>2021-03-06T13:29:45Z</time>
      </trkpt>
      <trkpt lat="43.66226" lon="3.81277">
        <ele>91</ele>
        <time>2021-03-06T13:29:46Z</time>
      </trkpt>
      <trkpt lat="43.66228" lon="3.81276">
        <ele>91</ele>
        <time>2021-03-06T13:29:47Z</time>
      </trkpt>
      <trkpt lat="43.6623" lon="3.81276">
        <ele>92</ele>
        <time>2021-03-06T13:29:48Z</time>
      </trkpt>
      <trkpt lat="43.66232" lon="3.81275">
        <ele>92</ele>
        <time>2021-03-06T13:29:49Z</time>
      </trkpt>
      <trkpt lat="43.66234" lon="3.81275">
        <ele>92</ele>
        <time>2021-03-06T13:29:50Z</time>
      </trkpt>
      <trkpt lat="43.66235" lon="3.81274">
        <ele>92</ele>
        <time>2021-03-06T13:29:51Z</time>
      </trkpt>
      <trkpt lat="43.66237" lon="3.81273">
        <ele>92</ele>
        <time>2021-03-06T13:29:52Z</time>
      </trkpt>
      <trkpt lat="43.66241" lon="3.81273">
        <ele>92</ele>
        <time>2021-03-06T13:29:53Z</time>
      </trkpt>
      <trkpt lat="43.66243" lon="3.81272">
        <ele>92</ele>
        <time>2021-03-06T13:29:55Z</time>
      </trkpt>
      <trkpt lat="43.66245" lon="3.81272">
        <ele>92</ele>
        <time>2021-03-06T13:29:56Z</time>
      </trkpt>
      <trkpt lat="43.66247" lon="3.81271">
        <ele>92</ele>
        <time>2021-03-06T13:29:57Z</time>
      </trkpt>
      <trkpt lat="43.66249" lon="3.81271">
        <ele>94</ele>
        <time>2021-03-06T13:29:58Z</time>
      </trkpt>
      <trkpt lat="43.66253" lon="3.8127">
        <ele>94</ele>
        <time>2021-03-06T13:29:59Z</time>
      </trkpt>
      <trkpt lat="43.66256" lon="3.81269">
        <ele>94</ele>
        <time>2021-03-06T13:30:00Z</time>
      </trkpt>
      <trkpt lat="43.66258" lon="3.81269">
        <ele>94</ele>
        <time>2021-03-06T13:30:01Z</time>
      </trkpt>
      <trkpt lat="43.6626" lon="3.81268">
        <ele>94</ele>
        <time>2021-03-06T13:30:02Z</time>
      </trkpt>
      <trkpt lat="43.66262" lon="3.81268">
        <ele>94</ele>
        <time>2021-03-06T13:30:03Z</time>
      </trkpt>
      <trkpt lat="43.66265" lon="3.81266">
        <ele>94</ele>
        <time>2021-03-06T13:30:05Z</time>
      </trkpt>
      <trkpt lat="43.66267" lon="3.81265">
        <ele>94</ele>
        <time>2021-03-06T13:30:06Z</time>
      </trkpt>
      <trkpt lat="43.66269" lon="3.81264">
        <ele>94</ele>
        <time>2021-03-06T13:30:07Z</time>
      </trkpt>
      <trkpt lat="43.66271" lon="3.81263">
        <ele>94</ele>
        <time>2021-03-06T13:30:09Z</time>
      </trkpt>
      <trkpt lat="43.66273" lon="3.81262">
        <ele>94</ele>
        <time>2021-03-06T13:30:10Z</time>
      </trkpt>
      <trkpt lat="43.66276" lon="3.8126">
        <ele>94</ele>
        <time>2021-03-06T13:30:11Z</time>
      </trkpt>
      <trkpt lat="43.66277" lon="3.81259">
        <ele>94</ele>
        <time>2021-03-06T13:30:12Z</time>
      </trkpt>
      <trkpt lat="43.66279" lon="3.81258">
        <ele>94</ele>
        <time>2021-03-06T13:30:13Z</time>
      </trkpt>
      <trkpt lat="43.66281" lon="3.81257">
        <ele>94</ele>
        <time>2021-03-06T13:30:14Z</time>
      </trkpt>
      <trkpt lat="43.66283" lon="3.81256">
        <ele>94</ele>
        <time>2021-03-06T13:30:15Z</time>
      </trkpt>
      <trkpt lat="43.66286" lon="3.81253">
        <ele>94</ele>
        <time>2021-03-06T13:30:17Z</time>
      </trkpt>
      <trkpt lat="43.66287" lon="3.81252">
        <ele>94</ele>
        <time>2021-03-06T13:30:19Z</time>
      </trkpt>
      <trkpt lat="43.66289" lon="3.8125">
        <ele>94</ele>
        <time>2021-03-06T13:30:20Z</time>
      </trkpt>
      <trkpt lat="43.6629" lon="3.81248">
        <ele>94</ele>
        <time>2021-03-06T13:30:21Z</time>
      </trkpt>
      <trkpt lat="43.66292" lon="3.81246">
        <ele>94</ele>
        <time>2021-03-06T13:30:22Z</time>
      </trkpt>
      <trkpt lat="43.66293" lon="3.81245">
        <ele>94</ele>
        <time>2021-03-06T13:30:23Z</time>
      </trkpt>
      <trkpt lat="43.66295" lon="3.81244">
        <ele>94</ele>
        <time>2021-03-06T13:30:24Z</time>
      </trkpt>
      <trkpt lat="43.66298" lon="3.81242">
        <ele>94</ele>
        <time>2021-03-06T13:30:26Z</time>
      </trkpt>
      <trkpt lat="43.66302" lon="3.81241">
        <ele>99</ele>
        <time>2021-03-06T13:30:28Z</time>
      </trkpt>
      <trkpt lat="43.66305" lon="3.81241">
        <ele>99</ele>
        <time>2021-03-06T13:30:30Z</time>
      </trkpt>
      <trkpt lat="43.66309" lon="3.8124">
        <ele>99</ele>
        <time>2021-03-06T13:30:32Z</time>
      </trkpt>
      <trkpt lat="43.66312" lon="3.8124">
        <ele>99</ele>
        <time>2021-03-06T13:30:34Z</time>
      </trkpt>
      <trkpt lat="43.66315" lon="3.81238">
        <ele>99</ele>
        <time>2021-03-06T13:30:36Z</time>
      </trkpt>
      <trkpt lat="43.66318" lon="3.81239">
        <ele>101</ele>
        <time>2021-03-06T13:30:38Z</time>
      </trkpt>
      <trkpt lat="43.66321" lon="3.81239">
        <ele>101</ele>
        <time>2021-03-06T13:30:40Z</time>
      </trkpt>
      <trkpt lat="43.66324" lon="3.8124">
        <ele>101</ele>
        <time>2021-03-06T13:30:42Z</time>
      </trkpt>
      <trkpt lat="43.66327" lon="3.81241">
        <ele>101</ele>
        <time>2021-03-06T13:30:44Z</time>
      </trkpt>
      <trkpt lat="43.6633" lon="3.8124">
        <ele>101</ele>
        <time>2021-03-06T13:30:46Z</time>
      </trkpt>
      <trkpt lat="43.66333" lon="3.8124">
        <ele>103</ele>
        <time>2021-03-06T13:30:48Z</time>
      </trkpt>
      <trkpt lat="43.66335" lon="3.81239">
        <ele>103</ele>
        <time>2021-03-06T13:30:50Z</time>
      </trkpt>
      <trkpt lat="43.66338" lon="3.81239">
        <ele>103</ele>
        <time>2021-03-06T13:30:52Z</time>
      </trkpt>
      <trkpt lat="43.66341" lon="3.81238">
        <ele>103</ele>
        <time>2021-03-06T13:30:54Z</time>
      </trkpt>
      <trkpt lat="43.66343" lon="3.81237">
        <ele>103</ele>
        <time>2021-03-06T13:30:56Z</time>
      </trkpt>
      <trkpt lat="43.66346" lon="3.81237">
        <ele>103</ele>
        <time>2021-03-06T13:30:57Z</time>
      </trkpt>
      <trkpt lat="43.66348" lon="3.81237">
        <ele>103</ele>
        <time>2021-03-06T13:31:00Z</time>
      </trkpt>
      <trkpt lat="43.66351" lon="3.81237">
        <ele>103</ele>
        <time>2021-03-06T13:31:02Z</time>
      </trkpt>
      <trkpt lat="43.66354" lon="3.81236">
        <ele>103</ele>
        <time>2021-03-06T13:31:03Z</time>
      </trkpt>
      <trkpt lat="43.66357" lon="3.81236">
        <ele>103</ele>
        <time>2021-03-06T13:31:05Z</time>
      </trkpt>
      <trkpt lat="43.66359" lon="3.81237">
        <ele>108</ele>
        <time>2021-03-06T13:31:08Z</time>
      </trkpt>
      <trkpt lat="43.66362" lon="3.81238">
        <ele>108</ele>
        <time>2021-03-06T13:31:10Z</time>
      </trkpt>
      <trkpt lat="43.66365" lon="3.81238">
        <ele>108</ele>
        <time>2021-03-06T13:31:12Z</time>
      </trkpt>
      <trkpt lat="43.66368" lon="3.81238">
        <ele>108</ele>
        <time>2021-03-06T13:31:14Z</time>
      </trkpt>
      <trkpt lat="43.66371" lon="3.81239">
        <ele>108</ele>
        <time>2021-03-06T13:31:16Z</time>
      </trkpt>
      <trkpt lat="43.66374" lon="3.8124">
        <ele>108</ele>
        <time>2021-03-06T13:31:17Z</time>
      </trkpt>
      <trkpt lat="43.66378" lon="3.81241">
        <ele>108</ele>
        <time>2021-03-06T13:31:20Z</time>
      </trkpt>
      <trkpt lat="43.66381" lon="3.81242">
        <ele>108</ele>
        <time>2021-03-06T13:31:22Z</time>
      </trkpt>
      <trkpt lat="43.66384" lon="3.81242">
        <ele>108</ele>
        <time>2021-03-06T13:31:24Z</time>
      </trkpt>
      <trkpt lat="43.66387" lon="3.81241">
        <ele>108</ele>
        <time>2021-03-06T13:31:26Z</time>
      </trkpt>
      <trkpt lat="43.66389" lon="3.81241">
        <ele>110</ele>
        <time>2021-03-06T13:31:28Z</time>
      </trkpt>
      <trkpt lat="43.66392" lon="3.81241">
        <ele>110</ele>
        <time>2021-03-06T13:31:30Z</time>
      </trkpt>
      <trkpt lat="43.66396" lon="3.81241">
        <ele>110</ele>
        <time>2021-03-06T13:31:32Z</time>
      </trkpt>
      <trkpt lat="43.66399" lon="3.81242">
        <ele>110</ele>
        <time>2021-03-06T13:31:34Z</time>
      </trkpt>
      <trkpt lat="43.66402" lon="3.81242">
        <ele>110</ele>
        <time>2021-03-06T13:31:36Z</time>
      </trkpt>
      <trkpt lat="43.66406" lon="3.81242">
        <ele>111</ele>
        <time>2021-03-06T13:31:38Z</time>
      </trkpt>
      <trkpt lat="43.66409" lon="3.81242">
        <ele>111</ele>
        <time>2021-03-06T13:31:40Z</time>
      </trkpt>
      <trkpt lat="43.66412" lon="3.81242">
        <ele>111</ele>
        <time>2021-03-06T13:31:42Z</time>
      </trkpt>
      <trkpt lat="43.66415" lon="3.81241">
        <ele>111</ele>
        <time>2021-03-06T13:31:44Z</time>
      </trkpt>
      <trkpt lat="43.66418" lon="3.8124">
        <ele>111</ele>
        <time>2021-03-06T13:31:46Z</time>
      </trkpt>
      <trkpt lat="43.66421" lon="3.8124">
        <ele>113</ele>
        <time>2021-03-06T13:31:48Z</time>
      </trkpt>
      <trkpt lat="43.66424" lon="3.81241">
        <ele>113</ele>
        <time>2021-03-06T13:31:50Z</time>
      </trkpt>
      <trkpt lat="43.66428" lon="3.81241">
        <ele>113</ele>
        <time>2021-03-06T13:31:52Z</time>
      </trkpt>
      <trkpt lat="43.6643" lon="3.8124">
        <ele>113</ele>
        <time>2021-03-06T13:31:53Z</time>
      </trkpt>
      <trkpt lat="43.66434" lon="3.81239">
        <ele>113</ele>
        <time>2021-03-06T13:31:55Z</time>
      </trkpt>
      <trkpt lat="43.66437" lon="3.81238">
        <ele>115</ele>
        <time>2021-03-06T13:31:58Z</time>
      </trkpt>
      <trkpt lat="43.6644" lon="3.81238">
        <ele>115</ele>
        <time>2021-03-06T13:32:00Z</time>
      </trkpt>
      <trkpt lat="43.66443" lon="3.81238">
        <ele>115</ele>
        <time>2021-03-06T13:32:01Z</time>
      </trkpt>
      <trkpt lat="43.66446" lon="3.81239">
        <ele>115</ele>
        <time>2021-03-06T13:32:03Z</time>
      </trkpt>
      <trkpt lat="43.66449" lon="3.81239">
        <ele>115</ele>
        <time>2021-03-06T13:32:06Z</time>
      </trkpt>
      <trkpt lat="43.66453" lon="3.8124">
        <ele>117</ele>
        <time>2021-03-06T13:32:08Z</time>
      </trkpt>
      <trkpt lat="43.66456" lon="3.8124">
        <ele>117</ele>
        <time>2021-03-06T13:32:09Z</time>
      </trkpt>
      <trkpt lat="43.66459" lon="3.8124">
        <ele>117</ele>
        <time>2021-03-06T13:32:11Z</time>
      </trkpt>
      <trkpt lat="43.66462" lon="3.8124">
        <ele>117</ele>
        <time>2021-03-06T13:32:14Z</time>
      </trkpt>
      <trkpt lat="43.66465" lon="3.81241">
        <ele>117</ele>
        <time>2021-03-06T13:32:15Z</time>
      </trkpt>
      <trkpt lat="43.66468" lon="3.81242">
        <ele>117</ele>
        <time>2021-03-06T13:32:17Z</time>
      </trkpt>
      <trkpt lat="43.66471" lon="3.81242">
        <ele>117</ele>
        <time>2021-03-06T13:32:19Z</time>
      </trkpt>
      <trkpt lat="43.66474" lon="3.81242">
        <ele>117</ele>
        <time>2021-03-06T13:32:21Z</time>
      </trkpt>
      <trkpt lat="43.66477" lon="3.81242">
        <ele>117</ele>
        <time>2021-03-06T13:32:23Z</time>
      </trkpt>
      <trkpt lat="43.6648" lon="3.81242">
        <ele>117</ele>
        <time>2021-03-06T13:32:25Z</time>
      </trkpt>
      <trkpt lat="43.66483" lon="3.81241">
        <ele>117</ele>
        <time>2021-03-06T13:32:27Z</time>
      </trkpt>
      <trkpt lat="43.66486" lon="3.81241">
        <ele>117</ele>
        <time>2021-03-06T13:32:29Z</time>
      </trkpt>
      <trkpt lat="43.66489" lon="3.81241">
        <ele>117</ele>
        <time>2021-03-06T13:32:32Z</time>
      </trkpt>
      <trkpt lat="43.66492" lon="3.81241">
        <ele>117</ele>
        <time>2021-03-06T13:32:34Z</time>
      </trkpt>
      <trkpt lat="43.66495" lon="3.81242">
        <ele>117</ele>
        <time>2021-03-06T13:32:36Z</time>
      </trkpt>
      <trkpt lat="43.66497" lon="3.81242">
        <ele>124</ele>
        <time>2021-03-06T13:32:38Z</time>
      </trkpt>
      <trkpt lat="43.665" lon="3.81242">
        <ele>124</ele>
        <time>2021-03-06T13:32:39Z</time>
      </trkpt>
      <trkpt lat="43.66503" lon="3.81242">
        <ele>124</ele>
        <time>2021-03-06T13:32:42Z</time>
      </trkpt>
      <trkpt lat="43.66506" lon="3.81242">
        <ele>124</ele>
        <time>2021-03-06T13:32:44Z</time>
      </trkpt>
      <trkpt lat="43.66509" lon="3.81242">
        <ele>124</ele>
        <time>2021-03-06T13:32:46Z</time>
      </trkpt>
      <trkpt lat="43.66512" lon="3.81243">
        <ele>125</ele>
        <time>2021-03-06T13:32:48Z</time>
      </trkpt>
      <trkpt lat="43.66515" lon="3.81243">
        <ele>125</ele>
        <time>2021-03-06T13:32:50Z</time>
      </trkpt>
      <trkpt lat="43.66518" lon="3.81243">
        <ele>125</ele>
        <time>2021-03-06T13:32:52Z</time>
      </trkpt>
      <trkpt lat="43.6652" lon="3.81243">
        <ele>125</ele>
        <time>2021-03-06T13:32:54Z</time>
      </trkpt>
      <trkpt lat="43.66523" lon="3.81243">
        <ele>125</ele>
        <time>2021-03-06T13:32:56Z</time>
      </trkpt>
      <trkpt lat="43.66526" lon="3.81243">
        <ele>126</ele>
        <time>2021-03-06T13:32:58Z</time>
      </trkpt>
      <trkpt lat="43.66529" lon="3.81243">
        <ele>126</ele>
        <time>2021-03-06T13:33:00Z</time>
      </trkpt>
      <trkpt lat="43.66532" lon="3.81243">
        <ele>126</ele>
        <time>2021-03-06T13:33:02Z</time>
      </trkpt>
      <trkpt lat="43.66535" lon="3.81243">
        <ele>126</ele>
        <time>2021-03-06T13:33:04Z</time>
      </trkpt>
      <trkpt lat="43.66538" lon="3.81243">
        <ele>126</ele>
        <time>2021-03-06T13:33:06Z</time>
      </trkpt>
      <trkpt lat="43.66541" lon="3.81243">
        <ele>128</ele>
        <time>2021-03-06T13:33:08Z</time>
      </trkpt>
      <trkpt lat="43.66544" lon="3.81242">
        <ele>128</ele>
        <time>2021-03-06T13:33:09Z</time>
      </trkpt>
      <trkpt lat="43.66547" lon="3.81241">
        <ele>128</ele>
        <time>2021-03-06T13:33:11Z</time>
      </trkpt>
      <trkpt lat="43.6655" lon="3.81241">
        <ele>128</ele>
        <time>2021-03-06T13:33:13Z</time>
      </trkpt>
      <trkpt lat="43.66553" lon="3.81241">
        <ele>128</ele>
        <time>2021-03-06T13:33:15Z</time>
      </trkpt>
      <trkpt lat="43.66556" lon="3.81241">
        <ele>128</ele>
        <time>2021-03-06T13:33:17Z</time>
      </trkpt>
      <trkpt lat="43.66559" lon="3.81241">
        <ele>128</ele>
        <time>2021-03-06T13:33:19Z</time>
      </trkpt>
      <trkpt lat="43.66562" lon="3.81241">
        <ele>128</ele>
        <time>2021-03-06T13:33:20Z</time>
      </trkpt>
      <trkpt lat="43.66565" lon="3.8124">
        <ele>128</ele>
        <time>2021-03-06T13:33:21Z</time>
      </trkpt>
      <trkpt lat="43.66568" lon="3.8124">
        <ele>128</ele>
        <time>2021-03-06T13:33:22Z</time>
      </trkpt>
      <trkpt lat="43.6657" lon="3.8124">
        <ele>128</ele>
        <time>2021-03-06T13:33:23Z</time>
      </trkpt>
      <trkpt lat="43.66573" lon="3.81239">
        <ele>128</ele>
        <time>2021-03-06T13:33:24Z</time>
      </trkpt>
      <trkpt lat="43.66576" lon="3.81239">
        <ele>128</ele>
        <time>2021-03-06T13:33:25Z</time>
      </trkpt>
      <trkpt lat="43.66579" lon="3.8124">
        <ele>128</ele>
        <time>2021-03-06T13:33:26Z</time>
      </trkpt>
      <trkpt lat="43.66582" lon="3.8124">
        <ele>128</ele>
        <time>2021-03-06T13:33:27Z</time>
      </trkpt>
      <trkpt lat="43.66588" lon="3.8124">
        <ele>133</ele>
        <time>2021-03-06T13:33:28Z</time>
      </trkpt>
      <trkpt lat="43.6659" lon="3.8124">
        <ele>133</ele>
        <time>2021-03-06T13:33:29Z</time>
      </trkpt>
      <trkpt lat="43.66593" lon="3.8124">
        <ele>133</ele>
        <time>2021-03-06T13:33:30Z</time>
      </trkpt>
      <trkpt lat="43.66596" lon="3.81241">
        <ele>133</ele>
        <time>2021-03-06T13:33:32Z</time>
      </trkpt>
      <trkpt lat="43.66598" lon="3.81241">
        <ele>133</ele>
        <time>2021-03-06T13:33:33Z</time>
      </trkpt>
      <trkpt lat="43.66601" lon="3.8124">
        <ele>133</ele>
        <time>2021-03-06T13:33:34Z</time>
      </trkpt>
      <trkpt lat="43.66603" lon="3.81239">
        <ele>133</ele>
        <time>2021-03-06T13:33:35Z</time>
      </trkpt>
      <trkpt lat="43.66605" lon="3.81239">
        <ele>133</ele>
        <time>2021-03-06T13:33:36Z</time>
      </trkpt>
      <trkpt lat="43.66606" lon="3.81238">
        <ele>133</ele>
        <time>2021-03-06T13:33:37Z</time>
      </trkpt>
      <trkpt lat="43.6661" lon="3.81237">
        <ele>133</ele>
        <time>2021-03-06T13:33:39Z</time>
      </trkpt>
      <trkpt lat="43.66613" lon="3.81235">
        <ele>133</ele>
        <time>2021-03-06T13:33:40Z</time>
      </trkpt>
      <trkpt lat="43.66616" lon="3.81233">
        <ele>133</ele>
        <time>2021-03-06T13:33:42Z</time>
      </trkpt>
      <trkpt lat="43.66619" lon="3.81231">
        <ele>133</ele>
        <time>2021-03-06T13:33:45Z</time>
      </trkpt>
      <trkpt lat="43.66621" lon="3.8123">
        <ele>133</ele>
        <time>2021-03-06T13:33:46Z</time>
      </trkpt>
      <trkpt lat="43.66623" lon="3.81229">
        <ele>133</ele>
        <time>2021-03-06T13:33:47Z</time>
      </trkpt>
      <trkpt lat="43.66628" lon="3.81228">
        <ele>133</ele>
        <time>2021-03-06T13:33:49Z</time>
      </trkpt>
      <trkpt lat="43.6663" lon="3.81227">
        <ele>133</ele>
        <time>2021-03-06T13:33:50Z</time>
      </trkpt>
      <trkpt lat="43.66632" lon="3.81227">
        <ele>133</ele>
        <time>2021-03-06T13:33:51Z</time>
      </trkpt>
      <trkpt lat="43.66634" lon="3.81227">
        <ele>133</ele>
        <time>2021-03-06T13:33:52Z</time>
      </trkpt>
      <trkpt lat="43.66636" lon="3.81227">
        <ele>133</ele>
        <time>2021-03-06T13:33:54Z</time>
      </trkpt>
      <trkpt lat="43.66638" lon="3.81227">
        <ele>133</ele>
        <time>2021-03-06T13:33:55Z</time>
      </trkpt>
      <trkpt lat="43.6664" lon="3.81226">
        <ele>133</ele>
        <time>2021-03-06T13:33:56Z</time>
      </trkpt>
      <trkpt lat="43.66642" lon="3.81226">
        <ele>133</ele>
        <time>2021-03-06T13:33:57Z</time>
      </trkpt>
      <trkpt lat="43.66644" lon="3.81225">
        <ele>137</ele>
        <time>2021-03-06T13:33:58Z</time>
      </trkpt>
      <trkpt lat="43.66646" lon="3.81225">
        <ele>137</ele>
        <time>2021-03-06T13:33:59Z</time>
      </trkpt>
      <trkpt lat="43.66648" lon="3.81224">
        <ele>137</ele>
        <time>2021-03-06T13:34:00Z</time>
      </trkpt>
      <trkpt lat="43.6665" lon="3.81225">
        <ele>137</ele>
        <time>2021-03-06T13:34:01Z</time>
      </trkpt>
      <trkpt lat="43.66652" lon="3.81225">
        <ele>137</ele>
        <time>2021-03-06T13:34:02Z</time>
      </trkpt>
      <trkpt lat="43.66654" lon="3.81224">
        <ele>137</ele>
        <time>2021-03-06T13:34:03Z</time>
      </trkpt>
      <trkpt lat="43.66656" lon="3.81223">
        <ele>137</ele>
        <time>2021-03-06T13:34:04Z</time>
      </trkpt>
      <trkpt lat="43.66657" lon="3.81222">
        <ele>137</ele>
        <time>2021-03-06T13:34:05Z</time>
      </trkpt>
      <trkpt lat="43.66659" lon="3.81217">
        <ele>137</ele>
        <time>2021-03-06T13:34:07Z</time>
      </trkpt>
      <trkpt lat="43.66659" lon="3.81218">
        <ele>139</ele>
        <time>2021-03-06T13:39:20Z</time>
      </trkpt>
      <trkpt lat="43.66668" lon="3.81217">
        <ele>139</ele>
        <time>2021-03-06T13:40:08Z</time>
      </trkpt>
      <trkpt lat="43.66671" lon="3.81216">
        <ele>139</ele>
        <time>2021-03-06T13:40:10Z</time>
      </trkpt>
      <trkpt lat="43.66675" lon="3.81216">
        <ele>139</ele>
        <time>2021-03-06T13:40:12Z</time>
      </trkpt>
      <trkpt lat="43.66677" lon="3.81216">
        <ele>139</ele>
        <time>2021-03-06T13:40:13Z</time>
      </trkpt>
      <trkpt lat="43.6668" lon="3.81216">
        <ele>139</ele>
        <time>2021-03-06T13:40:14Z</time>
      </trkpt>
      <trkpt lat="43.66682" lon="3.81216">
        <ele>139</ele>
        <time>2021-03-06T13:40:15Z</time>
      </trkpt>
      <trkpt lat="43.66685" lon="3.81216">
        <ele>139</ele>
        <time>2021-03-06T13:40:16Z</time>
      </trkpt>
      <trkpt lat="43.66687" lon="3.81216">
        <ele>139</ele>
        <time>2021-03-06T13:40:17Z</time>
      </trkpt>
      <trkpt lat="43.6669" lon="3.81216">
        <ele>139</ele>
        <time>2021-03-06T13:40:18Z</time>
      </trkpt>
      <trkpt lat="43.66692" lon="3.81217">
        <ele>139</ele>
        <time>2021-03-06T13:40:20Z</time>
      </trkpt>
      <trkpt lat="43.66695" lon="3.81217">
        <ele>139</ele>
        <time>2021-03-06T13:40:21Z</time>
      </trkpt>
      <trkpt lat="43.66698" lon="3.81217">
        <ele>139</ele>
        <time>2021-03-06T13:40:22Z</time>
      </trkpt>
      <trkpt lat="43.66701" lon="3.81217">
        <ele>139</ele>
        <time>2021-03-06T13:40:23Z</time>
      </trkpt>
      <trkpt lat="43.66704" lon="3.81218">
        <ele>139</ele>
        <time>2021-03-06T13:40:24Z</time>
      </trkpt>
      <trkpt lat="43.66707" lon="3.8122">
        <ele>139</ele>
        <time>2021-03-06T13:40:25Z</time>
      </trkpt>
      <trkpt lat="43.66709" lon="3.81224">
        <ele>139</ele>
        <time>2021-03-06T13:40:26Z</time>
      </trkpt>
      <trkpt lat="43.66708" lon="3.81234">
        <ele>139</ele>
        <time>2021-03-06T13:40:27Z</time>
      </trkpt>
      <trkpt lat="43.66706" lon="3.81239">
        <ele>138</ele>
        <time>2021-03-06T13:40:28Z</time>
      </trkpt>
      <trkpt lat="43.66704" lon="3.81243">
        <ele>138</ele>
        <time>2021-03-06T13:40:29Z</time>
      </trkpt>
      <trkpt lat="43.66702" lon="3.81246">
        <ele>138</ele>
        <time>2021-03-06T13:40:30Z</time>
      </trkpt>
      <trkpt lat="43.667" lon="3.8125">
        <ele>138</ele>
        <time>2021-03-06T13:40:31Z</time>
      </trkpt>
      <trkpt lat="43.66698" lon="3.81254">
        <ele>138</ele>
        <time>2021-03-06T13:40:32Z</time>
      </trkpt>
      <trkpt lat="43.66696" lon="3.81259">
        <ele>138</ele>
        <time>2021-03-06T13:40:33Z</time>
      </trkpt>
      <trkpt lat="43.66694" lon="3.81263">
        <ele>138</ele>
        <time>2021-03-06T13:40:34Z</time>
      </trkpt>
      <trkpt lat="43.66692" lon="3.81268">
        <ele>138</ele>
        <time>2021-03-06T13:40:35Z</time>
      </trkpt>
      <trkpt lat="43.66689" lon="3.81273">
        <ele>138</ele>
        <time>2021-03-06T13:40:36Z</time>
      </trkpt>
      <trkpt lat="43.66686" lon="3.81277">
        <ele>138</ele>
        <time>2021-03-06T13:40:37Z</time>
      </trkpt>
      <trkpt lat="43.66683" lon="3.81282">
        <ele>138</ele>
        <time>2021-03-06T13:40:38Z</time>
      </trkpt>
      <trkpt lat="43.6668" lon="3.81286">
        <ele>138</ele>
        <time>2021-03-06T13:40:39Z</time>
      </trkpt>
      <trkpt lat="43.66674" lon="3.81294">
        <ele>138</ele>
        <time>2021-03-06T13:40:41Z</time>
      </trkpt>
      <trkpt lat="43.6667" lon="3.81298">
        <ele>138</ele>
        <time>2021-03-06T13:40:42Z</time>
      </trkpt>
      <trkpt lat="43.66667" lon="3.81302">
        <ele>138</ele>
        <time>2021-03-06T13:40:43Z</time>
      </trkpt>
      <trkpt lat="43.66659" lon="3.81309">
        <ele>138</ele>
        <time>2021-03-06T13:40:45Z</time>
      </trkpt>
      <trkpt lat="43.66655" lon="3.81313">
        <ele>138</ele>
        <time>2021-03-06T13:40:47Z</time>
      </trkpt>
      <trkpt lat="43.66651" lon="3.81317">
        <ele>137</ele>
        <time>2021-03-06T13:40:48Z</time>
      </trkpt>
      <trkpt lat="43.66648" lon="3.8132">
        <ele>137</ele>
        <time>2021-03-06T13:40:49Z</time>
      </trkpt>
      <trkpt lat="43.66644" lon="3.81324">
        <ele>137</ele>
        <time>2021-03-06T13:40:50Z</time>
      </trkpt>
      <trkpt lat="43.66641" lon="3.81328">
        <ele>137</ele>
        <time>2021-03-06T13:40:51Z</time>
      </trkpt>
      <trkpt lat="43.66638" lon="3.81333">
        <ele>137</ele>
        <time>2021-03-06T13:40:52Z</time>
      </trkpt>
      <trkpt lat="43.66633" lon="3.81343">
        <ele>137</ele>
        <time>2021-03-06T13:40:53Z</time>
      </trkpt>
      <trkpt lat="43.66631" lon="3.81347">
        <ele>137</ele>
        <time>2021-03-06T13:40:54Z</time>
      </trkpt>
      <trkpt lat="43.66628" lon="3.81352">
        <ele>137</ele>
        <time>2021-03-06T13:40:55Z</time>
      </trkpt>
      <trkpt lat="43.66624" lon="3.81354">
        <ele>137</ele>
        <time>2021-03-06T13:40:56Z</time>
      </trkpt>
      <trkpt lat="43.66621" lon="3.81354">
        <ele>137</ele>
        <time>2021-03-06T13:40:57Z</time>
      </trkpt>
      <trkpt lat="43.66618" lon="3.81354">
        <ele>137</ele>
        <time>2021-03-06T13:40:59Z</time>
      </trkpt>
      <trkpt lat="43.66615" lon="3.81353">
        <ele>137</ele>
        <time>2021-03-06T13:41:00Z</time>
      </trkpt>
      <trkpt lat="43.66611" lon="3.81352">
        <ele>137</ele>
        <time>2021-03-06T13:41:01Z</time>
      </trkpt>
      <trkpt lat="43.66609" lon="3.81351">
        <ele>137</ele>
        <time>2021-03-06T13:41:02Z</time>
      </trkpt>
      <trkpt lat="43.66607" lon="3.8135">
        <ele>137</ele>
        <time>2021-03-06T13:41:03Z</time>
      </trkpt>
      <trkpt lat="43.66604" lon="3.81349">
        <ele>137</ele>
        <time>2021-03-06T13:41:04Z</time>
      </trkpt>
      <trkpt lat="43.66602" lon="3.81348">
        <ele>137</ele>
        <time>2021-03-06T13:41:05Z</time>
      </trkpt>
      <trkpt lat="43.666" lon="3.81347">
        <ele>137</ele>
        <time>2021-03-06T13:41:06Z</time>
      </trkpt>
      <trkpt lat="43.66595" lon="3.81344">
        <ele>137</ele>
        <time>2021-03-06T13:41:07Z</time>
      </trkpt>
      <trkpt lat="43.66593" lon="3.81344">
        <ele>136</ele>
        <time>2021-03-06T13:41:08Z</time>
      </trkpt>
      <trkpt lat="43.66591" lon="3.81343">
        <ele>136</ele>
        <time>2021-03-06T13:41:09Z</time>
      </trkpt>
      <trkpt lat="43.66589" lon="3.81342">
        <ele>136</ele>
        <time>2021-03-06T13:41:11Z</time>
      </trkpt>
      <trkpt lat="43.66587" lon="3.81342">
        <ele>136</ele>
        <time>2021-03-06T13:41:12Z</time>
      </trkpt>
      <trkpt lat="43.66585" lon="3.81341">
        <ele>136</ele>
        <time>2021-03-06T13:41:13Z</time>
      </trkpt>
      <trkpt lat="43.66583" lon="3.81341">
        <ele>136</ele>
        <time>2021-03-06T13:41:14Z</time>
      </trkpt>
      <trkpt lat="43.66581" lon="3.8134">
        <ele>136</ele>
        <time>2021-03-06T13:41:15Z</time>
      </trkpt>
      <trkpt lat="43.66579" lon="3.8134">
        <ele>136</ele>
        <time>2021-03-06T13:41:16Z</time>
      </trkpt>
      <trkpt lat="43.66577" lon="3.81339">
        <ele>136</ele>
        <time>2021-03-06T13:41:17Z</time>
      </trkpt>
      <trkpt lat="43.66575" lon="3.81339">
        <ele>137</ele>
        <time>2021-03-06T13:41:18Z</time>
      </trkpt>
      <trkpt lat="43.66573" lon="3.81339">
        <ele>137</ele>
        <time>2021-03-06T13:41:19Z</time>
      </trkpt>
      <trkpt lat="43.66571" lon="3.81339">
        <ele>137</ele>
        <time>2021-03-06T13:41:20Z</time>
      </trkpt>
      <trkpt lat="43.66568" lon="3.81338">
        <ele>137</ele>
        <time>2021-03-06T13:41:21Z</time>
      </trkpt>
      <trkpt lat="43.66566" lon="3.81338">
        <ele>137</ele>
        <time>2021-03-06T13:41:22Z</time>
      </trkpt>
      <trkpt lat="43.66564" lon="3.81337">
        <ele>137</ele>
        <time>2021-03-06T13:41:23Z</time>
      </trkpt>
      <trkpt lat="43.66562" lon="3.81337">
        <ele>137</ele>
        <time>2021-03-06T13:41:24Z</time>
      </trkpt>
      <trkpt lat="43.6656" lon="3.81337">
        <ele>137</ele>
        <time>2021-03-06T13:41:25Z</time>
      </trkpt>
      <trkpt lat="43.66558" lon="3.81336">
        <ele>137</ele>
        <time>2021-03-06T13:41:26Z</time>
      </trkpt>
      <trkpt lat="43.66555" lon="3.81335">
        <ele>137</ele>
        <time>2021-03-06T13:41:27Z</time>
      </trkpt>
      <trkpt lat="43.66553" lon="3.81335">
        <ele>138</ele>
        <time>2021-03-06T13:41:28Z</time>
      </trkpt>
      <trkpt lat="43.66551" lon="3.81335">
        <ele>138</ele>
        <time>2021-03-06T13:41:29Z</time>
      </trkpt>
      <trkpt lat="43.66548" lon="3.81334">
        <ele>138</ele>
        <time>2021-03-06T13:41:30Z</time>
      </trkpt>
      <trkpt lat="43.66546" lon="3.81334">
        <ele>138</ele>
        <time>2021-03-06T13:41:31Z</time>
      </trkpt>
      <trkpt lat="43.66543" lon="3.81333">
        <ele>138</ele>
        <time>2021-03-06T13:41:32Z</time>
      </trkpt>
      <trkpt lat="43.66541" lon="3.81332">
        <ele>138</ele>
        <time>2021-03-06T13:41:33Z</time>
      </trkpt>
      <trkpt lat="43.66538" lon="3.81332">
        <ele>138</ele>
        <time>2021-03-06T13:41:34Z</time>
      </trkpt>
      <trkpt lat="43.66536" lon="3.81332">
        <ele>138</ele>
        <time>2021-03-06T13:41:35Z</time>
      </trkpt>
      <trkpt lat="43.66533" lon="3.81331">
        <ele>138</ele>
        <time>2021-03-06T13:41:36Z</time>
      </trkpt>
      <trkpt lat="43.66531" lon="3.81331">
        <ele>138</ele>
        <time>2021-03-06T13:41:37Z</time>
      </trkpt>
      <trkpt lat="43.66528" lon="3.8133">
        <ele>139</ele>
        <time>2021-03-06T13:41:38Z</time>
      </trkpt>
      <trkpt lat="43.66526" lon="3.81329">
        <ele>139</ele>
        <time>2021-03-06T13:41:39Z</time>
      </trkpt>
      <trkpt lat="43.66523" lon="3.81329">
        <ele>139</ele>
        <time>2021-03-06T13:41:40Z</time>
      </trkpt>
      <trkpt lat="43.6652" lon="3.81329">
        <ele>139</ele>
        <time>2021-03-06T13:41:41Z</time>
      </trkpt>
      <trkpt lat="43.66518" lon="3.81329">
        <ele>139</ele>
        <time>2021-03-06T13:41:42Z</time>
      </trkpt>
      <trkpt lat="43.66515" lon="3.8133">
        <ele>139</ele>
        <time>2021-03-06T13:41:43Z</time>
      </trkpt>
      <trkpt lat="43.6651" lon="3.81333">
        <ele>139</ele>
        <time>2021-03-06T13:41:44Z</time>
      </trkpt>
      <trkpt lat="43.66508" lon="3.81334">
        <ele>139</ele>
        <time>2021-03-06T13:41:45Z</time>
      </trkpt>
      <trkpt lat="43.66505" lon="3.81336">
        <ele>139</ele>
        <time>2021-03-06T13:41:46Z</time>
      </trkpt>
      <trkpt lat="43.66502" lon="3.81337">
        <ele>139</ele>
        <time>2021-03-06T13:41:47Z</time>
      </trkpt>
      <trkpt lat="43.66497" lon="3.81339">
        <ele>139</ele>
        <time>2021-03-06T13:41:49Z</time>
      </trkpt>
      <trkpt lat="43.66495" lon="3.8134">
        <ele>139</ele>
        <time>2021-03-06T13:41:50Z</time>
      </trkpt>
      <trkpt lat="43.66492" lon="3.81341">
        <ele>139</ele>
        <time>2021-03-06T13:41:51Z</time>
      </trkpt>
      <trkpt lat="43.66489" lon="3.81342">
        <ele>139</ele>
        <time>2021-03-06T13:41:52Z</time>
      </trkpt>
      <trkpt lat="43.66487" lon="3.81343">
        <ele>139</ele>
        <time>2021-03-06T13:41:53Z</time>
      </trkpt>
      <trkpt lat="43.66484" lon="3.81343">
        <ele>139</ele>
        <time>2021-03-06T13:41:54Z</time>
      </trkpt>
      <trkpt lat="43.66481" lon="3.81343">
        <ele>139</ele>
        <time>2021-03-06T13:41:55Z</time>
      </trkpt>
      <trkpt lat="43.66478" lon="3.81343">
        <ele>139</ele>
        <time>2021-03-06T13:41:56Z</time>
      </trkpt>
      <trkpt lat="43.66475" lon="3.81343">
        <ele>140</ele>
        <time>2021-03-06T13:41:58Z</time>
      </trkpt>
      <trkpt lat="43.66472" lon="3.81343">
        <ele>140</ele>
        <time>2021-03-06T13:41:59Z</time>
      </trkpt>
      <trkpt lat="43.6647" lon="3.81344">
        <ele>140</ele>
        <time>2021-03-06T13:42:00Z</time>
      </trkpt>
      <trkpt lat="43.66467" lon="3.81345">
        <ele>140</ele>
        <time>2021-03-06T13:42:01Z</time>
      </trkpt>
      <trkpt lat="43.66464" lon="3.81346">
        <ele>140</ele>
        <time>2021-03-06T13:42:02Z</time>
      </trkpt>
      <trkpt lat="43.66462" lon="3.81347">
        <ele>140</ele>
        <time>2021-03-06T13:42:03Z</time>
      </trkpt>
      <trkpt lat="43.6646" lon="3.81349">
        <ele>140</ele>
        <time>2021-03-06T13:42:04Z</time>
      </trkpt>
      <trkpt lat="43.66458" lon="3.8135">
        <ele>140</ele>
        <time>2021-03-06T13:42:05Z</time>
      </trkpt>
      <trkpt lat="43.66456" lon="3.81351">
        <ele>140</ele>
        <time>2021-03-06T13:42:06Z</time>
      </trkpt>
      <trkpt lat="43.66454" lon="3.81352">
        <ele>140</ele>
        <time>2021-03-06T13:42:07Z</time>
      </trkpt>
      <trkpt lat="43.66452" lon="3.81353">
        <ele>140</ele>
        <time>2021-03-06T13:42:08Z</time>
      </trkpt>
      <trkpt lat="43.66451" lon="3.81354">
        <ele>140</ele>
        <time>2021-03-06T13:42:09Z</time>
      </trkpt>
      <trkpt lat="43.66448" lon="3.81357">
        <ele>140</ele>
        <time>2021-03-06T13:42:11Z</time>
      </trkpt>
      <trkpt lat="43.66445" lon="3.81358">
        <ele>140</ele>
        <time>2021-03-06T13:42:13Z</time>
      </trkpt>
      <trkpt lat="43.66443" lon="3.8136">
        <ele>140</ele>
        <time>2021-03-06T13:42:15Z</time>
      </trkpt>
      <trkpt lat="43.6644" lon="3.81362">
        <ele>140</ele>
        <time>2021-03-06T13:42:17Z</time>
      </trkpt>
      <trkpt lat="43.66437" lon="3.81362">
        <ele>142</ele>
        <time>2021-03-06T13:42:18Z</time>
      </trkpt>
      <trkpt lat="43.66434" lon="3.81364">
        <ele>142</ele>
        <time>2021-03-06T13:42:21Z</time>
      </trkpt>
      <trkpt lat="43.66433" lon="3.81366">
        <ele>142</ele>
        <time>2021-03-06T13:42:22Z</time>
      </trkpt>
      <trkpt lat="43.66429" lon="3.81368">
        <ele>142</ele>
        <time>2021-03-06T13:42:23Z</time>
      </trkpt>
      <trkpt lat="43.66426" lon="3.8137">
        <ele>142</ele>
        <time>2021-03-06T13:42:25Z</time>
      </trkpt>
      <trkpt lat="43.66423" lon="3.81373">
        <ele>144</ele>
        <time>2021-03-06T13:42:28Z</time>
      </trkpt>
      <trkpt lat="43.6642" lon="3.81375">
        <ele>144</ele>
        <time>2021-03-06T13:42:29Z</time>
      </trkpt>
      <trkpt lat="43.66417" lon="3.81377">
        <ele>144</ele>
        <time>2021-03-06T13:42:31Z</time>
      </trkpt>
      <trkpt lat="43.66414" lon="3.81379">
        <ele>144</ele>
        <time>2021-03-06T13:42:33Z</time>
      </trkpt>
      <trkpt lat="43.66412" lon="3.81381">
        <ele>144</ele>
        <time>2021-03-06T13:42:34Z</time>
      </trkpt>
      <trkpt lat="43.66409" lon="3.81384">
        <ele>144</ele>
        <time>2021-03-06T13:42:37Z</time>
      </trkpt>
      <trkpt lat="43.66407" lon="3.81385">
        <ele>146</ele>
        <time>2021-03-06T13:42:38Z</time>
      </trkpt>
      <trkpt lat="43.66404" lon="3.81387">
        <ele>146</ele>
        <time>2021-03-06T13:42:40Z</time>
      </trkpt>
      <trkpt lat="43.66401" lon="3.8139">
        <ele>146</ele>
        <time>2021-03-06T13:42:42Z</time>
      </trkpt>
      <trkpt lat="43.66399" lon="3.81392">
        <ele>146</ele>
        <time>2021-03-06T13:42:44Z</time>
      </trkpt>
      <trkpt lat="43.66396" lon="3.81394">
        <ele>146</ele>
        <time>2021-03-06T13:42:45Z</time>
      </trkpt>
      <trkpt lat="43.66393" lon="3.81396">
        <ele>146</ele>
        <time>2021-03-06T13:42:47Z</time>
      </trkpt>
      <trkpt lat="43.6639" lon="3.81397">
        <ele>146</ele>
        <time>2021-03-06T13:42:50Z</time>
      </trkpt>
      <trkpt lat="43.66387" lon="3.81399">
        <ele>146</ele>
        <time>2021-03-06T13:42:52Z</time>
      </trkpt>
      <trkpt lat="43.66385" lon="3.81401">
        <ele>146</ele>
        <time>2021-03-06T13:42:54Z</time>
      </trkpt>
      <trkpt lat="43.66382" lon="3.81404">
        <ele>146</ele>
        <time>2021-03-06T13:42:56Z</time>
      </trkpt>
      <trkpt lat="43.6638" lon="3.81407">
        <ele>148</ele>
        <time>2021-03-06T13:42:58Z</time>
      </trkpt>
      <trkpt lat="43.66378" lon="3.81411">
        <ele>148</ele>
        <time>2021-03-06T13:42:59Z</time>
      </trkpt>
      <trkpt lat="43.66376" lon="3.81414">
        <ele>148</ele>
        <time>2021-03-06T13:43:01Z</time>
      </trkpt>
      <trkpt lat="43.66373" lon="3.81416">
        <ele>148</ele>
        <time>2021-03-06T13:43:03Z</time>
      </trkpt>
      <trkpt lat="43.6637" lon="3.81419">
        <ele>148</ele>
        <time>2021-03-06T13:43:05Z</time>
      </trkpt>
      <trkpt lat="43.66368" lon="3.81423">
        <ele>149</ele>
        <time>2021-03-06T13:43:08Z</time>
      </trkpt>
      <trkpt lat="43.66366" lon="3.81424">
        <ele>149</ele>
        <time>2021-03-06T13:43:09Z</time>
      </trkpt>
      <trkpt lat="43.66365" lon="3.81426">
        <ele>149</ele>
        <time>2021-03-06T13:43:10Z</time>
      </trkpt>
      <trkpt lat="43.66363" lon="3.8143">
        <ele>149</ele>
        <time>2021-03-06T13:43:12Z</time>
      </trkpt>
      <trkpt lat="43.6636" lon="3.81433">
        <ele>149</ele>
        <time>2021-03-06T13:43:14Z</time>
      </trkpt>
      <trkpt lat="43.66357" lon="3.81435">
        <ele>149</ele>
        <time>2021-03-06T13:43:16Z</time>
      </trkpt>
      <trkpt lat="43.66354" lon="3.81437">
        <ele>151</ele>
        <time>2021-03-06T13:43:18Z</time>
      </trkpt>
      <trkpt lat="43.66352" lon="3.8144">
        <ele>151</ele>
        <time>2021-03-06T13:43:20Z</time>
      </trkpt>
      <trkpt lat="43.6635" lon="3.81443">
        <ele>151</ele>
        <time>2021-03-06T13:43:22Z</time>
      </trkpt>
      <trkpt lat="43.66347" lon="3.81445">
        <ele>151</ele>
        <time>2021-03-06T13:43:24Z</time>
      </trkpt>
      <trkpt lat="43.66347" lon="3.81448">
        <ele>151</ele>
        <time>2021-03-06T13:43:27Z</time>
      </trkpt>
      <trkpt lat="43.66346" lon="3.81451">
        <ele>151</ele>
        <time>2021-03-06T13:43:29Z</time>
      </trkpt>
      <trkpt lat="43.66345" lon="3.81455">
        <ele>151</ele>
        <time>2021-03-06T13:43:31Z</time>
      </trkpt>
      <trkpt lat="43.66345" lon="3.81458">
        <ele>151</ele>
        <time>2021-03-06T13:43:33Z</time>
      </trkpt>
      <trkpt lat="43.66345" lon="3.81462">
        <ele>151</ele>
        <time>2021-03-06T13:43:35Z</time>
      </trkpt>
      <trkpt lat="43.66346" lon="3.81465">
        <ele>151</ele>
        <time>2021-03-06T13:43:37Z</time>
      </trkpt>
      <trkpt lat="43.66347" lon="3.81468">
        <ele>154</ele>
        <time>2021-03-06T13:43:38Z</time>
      </trkpt>
      <trkpt lat="43.66348" lon="3.8147">
        <ele>154</ele>
        <time>2021-03-06T13:43:40Z</time>
      </trkpt>
      <trkpt lat="43.66348" lon="3.81474">
        <ele>154</ele>
        <time>2021-03-06T13:43:42Z</time>
      </trkpt>
      <trkpt lat="43.66349" lon="3.81476">
        <ele>154</ele>
        <time>2021-03-06T13:43:44Z</time>
      </trkpt>
      <trkpt lat="43.6635" lon="3.81479">
        <ele>154</ele>
        <time>2021-03-06T13:43:46Z</time>
      </trkpt>
      <trkpt lat="43.6635" lon="3.81482">
        <ele>155</ele>
        <time>2021-03-06T13:43:48Z</time>
      </trkpt>
      <trkpt lat="43.6635" lon="3.81485">
        <ele>155</ele>
        <time>2021-03-06T13:43:51Z</time>
      </trkpt>
      <trkpt lat="43.66351" lon="3.81486">
        <ele>155</ele>
        <time>2021-03-06T13:43:57Z</time>
      </trkpt>
      <trkpt lat="43.66353" lon="3.815">
        <ele>154</ele>
        <time>2021-03-06T13:44:06Z</time>
      </trkpt>
      <trkpt lat="43.66353" lon="3.81506">
        <ele>154</ele>
        <time>2021-03-06T13:44:08Z</time>
      </trkpt>
      <trkpt lat="43.66353" lon="3.81509">
        <ele>154</ele>
        <time>2021-03-06T13:44:09Z</time>
      </trkpt>
      <trkpt lat="43.66353" lon="3.81512">
        <ele>154</ele>
        <time>2021-03-06T13:44:10Z</time>
      </trkpt>
      <trkpt lat="43.66354" lon="3.81515">
        <ele>154</ele>
        <time>2021-03-06T13:44:11Z</time>
      </trkpt>
      <trkpt lat="43.66354" lon="3.81518">
        <ele>154</ele>
        <time>2021-03-06T13:44:12Z</time>
      </trkpt>
      <trkpt lat="43.66354" lon="3.81522">
        <ele>154</ele>
        <time>2021-03-06T13:44:13Z</time>
      </trkpt>
      <trkpt lat="43.66355" lon="3.81526">
        <ele>154</ele>
        <time>2021-03-06T13:44:14Z</time>
      </trkpt>
      <trkpt lat="43.66357" lon="3.8153">
        <ele>154</ele>
        <time>2021-03-06T13:44:15Z</time>
      </trkpt>
      <trkpt lat="43.66357" lon="3.81534">
        <ele>154</ele>
        <time>2021-03-06T13:44:17Z</time>
      </trkpt>
      <trkpt lat="43.66358" lon="3.81538">
        <ele>154</ele>
        <time>2021-03-06T13:44:18Z</time>
      </trkpt>
      <trkpt lat="43.66356" lon="3.81542">
        <ele>154</ele>
        <time>2021-03-06T13:44:19Z</time>
      </trkpt>
      <trkpt lat="43.66354" lon="3.81545">
        <ele>154</ele>
        <time>2021-03-06T13:44:20Z</time>
      </trkpt>
      <trkpt lat="43.66351" lon="3.81547">
        <ele>154</ele>
        <time>2021-03-06T13:44:21Z</time>
      </trkpt>
      <trkpt lat="43.66348" lon="3.81549">
        <ele>154</ele>
        <time>2021-03-06T13:44:22Z</time>
      </trkpt>
      <trkpt lat="43.66346" lon="3.8155">
        <ele>154</ele>
        <time>2021-03-06T13:44:23Z</time>
      </trkpt>
      <trkpt lat="43.66344" lon="3.81552">
        <ele>154</ele>
        <time>2021-03-06T13:44:24Z</time>
      </trkpt>
      <trkpt lat="43.66342" lon="3.81554">
        <ele>154</ele>
        <time>2021-03-06T13:44:25Z</time>
      </trkpt>
      <trkpt lat="43.66337" lon="3.81558">
        <ele>154</ele>
        <time>2021-03-06T13:44:26Z</time>
      </trkpt>
      <trkpt lat="43.66335" lon="3.8156">
        <ele>154</ele>
        <time>2021-03-06T13:44:27Z</time>
      </trkpt>
      <trkpt lat="43.66333" lon="3.81562">
        <ele>154</ele>
        <time>2021-03-06T13:44:28Z</time>
      </trkpt>
      <trkpt lat="43.66331" lon="3.81564">
        <ele>154</ele>
        <time>2021-03-06T13:44:29Z</time>
      </trkpt>
      <trkpt lat="43.66329" lon="3.81566">
        <ele>154</ele>
        <time>2021-03-06T13:44:30Z</time>
      </trkpt>
      <trkpt lat="43.66327" lon="3.8157">
        <ele>154</ele>
        <time>2021-03-06T13:44:31Z</time>
      </trkpt>
      <trkpt lat="43.66326" lon="3.81573">
        <ele>154</ele>
        <time>2021-03-06T13:44:32Z</time>
      </trkpt>
      <trkpt lat="43.66325" lon="3.81577">
        <ele>154</ele>
        <time>2021-03-06T13:44:33Z</time>
      </trkpt>
      <trkpt lat="43.66325" lon="3.81582">
        <ele>154</ele>
        <time>2021-03-06T13:44:34Z</time>
      </trkpt>
      <trkpt lat="43.66326" lon="3.81587">
        <ele>154</ele>
        <time>2021-03-06T13:44:35Z</time>
      </trkpt>
      <trkpt lat="43.66329" lon="3.81592">
        <ele>154</ele>
        <time>2021-03-06T13:44:37Z</time>
      </trkpt>
      <trkpt lat="43.6633" lon="3.81597">
        <ele>154</ele>
        <time>2021-03-06T13:44:38Z</time>
      </trkpt>
      <trkpt lat="43.66331" lon="3.81601">
        <ele>154</ele>
        <time>2021-03-06T13:44:39Z</time>
      </trkpt>
      <trkpt lat="43.66331" lon="3.81606">
        <ele>154</ele>
        <time>2021-03-06T13:44:40Z</time>
      </trkpt>
      <trkpt lat="43.66331" lon="3.8161">
        <ele>154</ele>
        <time>2021-03-06T13:44:41Z</time>
      </trkpt>
      <trkpt lat="43.66331" lon="3.81615">
        <ele>154</ele>
        <time>2021-03-06T13:44:42Z</time>
      </trkpt>
      <trkpt lat="43.6633" lon="3.81623">
        <ele>154</ele>
        <time>2021-03-06T13:44:43Z</time>
      </trkpt>
      <trkpt lat="43.6633" lon="3.81627">
        <ele>154</ele>
        <time>2021-03-06T13:44:45Z</time>
      </trkpt>
      <trkpt lat="43.66329" lon="3.81632">
        <ele>154</ele>
        <time>2021-03-06T13:44:46Z</time>
      </trkpt>
      <trkpt lat="43.66327" lon="3.81637">
        <ele>154</ele>
        <time>2021-03-06T13:44:47Z</time>
      </trkpt>
      <trkpt lat="43.66326" lon="3.81642">
        <ele>154</ele>
        <time>2021-03-06T13:44:48Z</time>
      </trkpt>
      <trkpt lat="43.66325" lon="3.81647">
        <ele>154</ele>
        <time>2021-03-06T13:44:49Z</time>
      </trkpt>
      <trkpt lat="43.66324" lon="3.81652">
        <ele>154</ele>
        <time>2021-03-06T13:44:50Z</time>
      </trkpt>
      <trkpt lat="43.66323" lon="3.81657">
        <ele>154</ele>
        <time>2021-03-06T13:44:51Z</time>
      </trkpt>
      <trkpt lat="43.66322" lon="3.81661">
        <ele>154</ele>
        <time>2021-03-06T13:44:52Z</time>
      </trkpt>
      <trkpt lat="43.66322" lon="3.81667">
        <ele>154</ele>
        <time>2021-03-06T13:44:53Z</time>
      </trkpt>
      <trkpt lat="43.66323" lon="3.81672">
        <ele>154</ele>
        <time>2021-03-06T13:44:54Z</time>
      </trkpt>
      <trkpt lat="43.66322" lon="3.81678">
        <ele>154</ele>
        <time>2021-03-06T13:44:55Z</time>
      </trkpt>
      <trkpt lat="43.66321" lon="3.81684">
        <ele>154</ele>
        <time>2021-03-06T13:44:56Z</time>
      </trkpt>
      <trkpt lat="43.66321" lon="3.8169">
        <ele>154</ele>
        <time>2021-03-06T13:44:57Z</time>
      </trkpt>
      <trkpt lat="43.66321" lon="3.81697">
        <ele>154</ele>
        <time>2021-03-06T13:44:58Z</time>
      </trkpt>
      <trkpt lat="43.66325" lon="3.81698">
        <ele>154</ele>
        <time>2021-03-06T13:45:01Z</time>
      </trkpt>
      <trkpt lat="43.66327" lon="3.81698">
        <ele>154</ele>
        <time>2021-03-06T13:45:02Z</time>
      </trkpt>
      <trkpt lat="43.66329" lon="3.81697">
        <ele>154</ele>
        <time>2021-03-06T13:45:03Z</time>
      </trkpt>
      <trkpt lat="43.66331" lon="3.81697">
        <ele>154</ele>
        <time>2021-03-06T13:45:04Z</time>
      </trkpt>
      <trkpt lat="43.66336" lon="3.81693">
        <ele>153</ele>
        <time>2021-03-06T13:45:06Z</time>
      </trkpt>
      <trkpt lat="43.66338" lon="3.81693">
        <ele>153</ele>
        <time>2021-03-06T13:45:07Z</time>
      </trkpt>
      <trkpt lat="43.6634" lon="3.81692">
        <ele>153</ele>
        <time>2021-03-06T13:45:08Z</time>
      </trkpt>
      <trkpt lat="43.66344" lon="3.8169">
        <ele>153</ele>
        <time>2021-03-06T13:45:10Z</time>
      </trkpt>
      <trkpt lat="43.66346" lon="3.81689">
        <ele>153</ele>
        <time>2021-03-06T13:45:11Z</time>
      </trkpt>
      <trkpt lat="43.66348" lon="3.81688">
        <ele>153</ele>
        <time>2021-03-06T13:45:12Z</time>
      </trkpt>
      <trkpt lat="43.6635" lon="3.81687">
        <ele>153</ele>
        <time>2021-03-06T13:45:13Z</time>
      </trkpt>
      <trkpt lat="43.66352" lon="3.81687">
        <ele>153</ele>
        <time>2021-03-06T13:45:14Z</time>
      </trkpt>
      <trkpt lat="43.66354" lon="3.81686">
        <ele>153</ele>
        <time>2021-03-06T13:45:15Z</time>
      </trkpt>
      <trkpt lat="43.66358" lon="3.81688">
        <ele>153</ele>
        <time>2021-03-06T13:45:17Z</time>
      </trkpt>
      <trkpt lat="43.6636" lon="3.81689">
        <ele>153</ele>
        <time>2021-03-06T13:45:19Z</time>
      </trkpt>
      <trkpt lat="43.66362" lon="3.81688">
        <ele>153</ele>
        <time>2021-03-06T13:45:20Z</time>
      </trkpt>
      <trkpt lat="43.66364" lon="3.81687">
        <ele>153</ele>
        <time>2021-03-06T13:45:21Z</time>
      </trkpt>
      <trkpt lat="43.66366" lon="3.81686">
        <ele>153</ele>
        <time>2021-03-06T13:45:22Z</time>
      </trkpt>
      <trkpt lat="43.66369" lon="3.81685">
        <ele>153</ele>
        <time>2021-03-06T13:45:23Z</time>
      </trkpt>
      <trkpt lat="43.66374" lon="3.81684">
        <ele>153</ele>
        <time>2021-03-06T13:45:24Z</time>
      </trkpt>
      <trkpt lat="43.66377" lon="3.81684">
        <ele>153</ele>
        <time>2021-03-06T13:45:25Z</time>
      </trkpt>
      <trkpt lat="43.6638" lon="3.81684">
        <ele>151</ele>
        <time>2021-03-06T13:45:26Z</time>
      </trkpt>
      <trkpt lat="43.66383" lon="3.81685">
        <ele>151</ele>
        <time>2021-03-06T13:45:28Z</time>
      </trkpt>
      <trkpt lat="43.66387" lon="3.81687">
        <ele>151</ele>
        <time>2021-03-06T13:45:29Z</time>
      </trkpt>
      <trkpt lat="43.6639" lon="3.81691">
        <ele>151</ele>
        <time>2021-03-06T13:45:30Z</time>
      </trkpt>
      <trkpt lat="43.66393" lon="3.81694">
        <ele>151</ele>
        <time>2021-03-06T13:45:31Z</time>
      </trkpt>
      <trkpt lat="43.66396" lon="3.81698">
        <ele>151</ele>
        <time>2021-03-06T13:45:32Z</time>
      </trkpt>
      <trkpt lat="43.66399" lon="3.81701">
        <ele>151</ele>
        <time>2021-03-06T13:45:33Z</time>
      </trkpt>
      <trkpt lat="43.66403" lon="3.81705">
        <ele>151</ele>
        <time>2021-03-06T13:45:34Z</time>
      </trkpt>
      <trkpt lat="43.66406" lon="3.81707">
        <ele>151</ele>
        <time>2021-03-06T13:45:35Z</time>
      </trkpt>
      <trkpt lat="43.66413" lon="3.8171">
        <ele>149</ele>
        <time>2021-03-06T13:45:36Z</time>
      </trkpt>
      <trkpt lat="43.66417" lon="3.81711">
        <ele>149</ele>
        <time>2021-03-06T13:45:37Z</time>
      </trkpt>
      <trkpt lat="43.6642" lon="3.81714">
        <ele>149</ele>
        <time>2021-03-06T13:45:38Z</time>
      </trkpt>
      <trkpt lat="43.66423" lon="3.81716">
        <ele>149</ele>
        <time>2021-03-06T13:45:39Z</time>
      </trkpt>
      <trkpt lat="43.66426" lon="3.81719">
        <ele>149</ele>
        <time>2021-03-06T13:45:40Z</time>
      </trkpt>
      <trkpt lat="43.66429" lon="3.81722">
        <ele>149</ele>
        <time>2021-03-06T13:45:41Z</time>
      </trkpt>
      <trkpt lat="43.66432" lon="3.81725">
        <ele>149</ele>
        <time>2021-03-06T13:45:42Z</time>
      </trkpt>
      <trkpt lat="43.66436" lon="3.81728">
        <ele>149</ele>
        <time>2021-03-06T13:45:43Z</time>
      </trkpt>
      <trkpt lat="43.66439" lon="3.81731">
        <ele>149</ele>
        <time>2021-03-06T13:45:44Z</time>
      </trkpt>
      <trkpt lat="43.66443" lon="3.81734">
        <ele>149</ele>
        <time>2021-03-06T13:45:45Z</time>
      </trkpt>
      <trkpt lat="43.66447" lon="3.81736">
        <ele>149</ele>
        <time>2021-03-06T13:45:47Z</time>
      </trkpt>
      <trkpt lat="43.66452" lon="3.81739">
        <ele>149</ele>
        <time>2021-03-06T13:45:48Z</time>
      </trkpt>
      <trkpt lat="43.6646" lon="3.81745">
        <ele>149</ele>
        <time>2021-03-06T13:45:49Z</time>
      </trkpt>
      <trkpt lat="43.66465" lon="3.81746">
        <ele>149</ele>
        <time>2021-03-06T13:45:50Z</time>
      </trkpt>
      <trkpt lat="43.6647" lon="3.81748">
        <ele>149</ele>
        <time>2021-03-06T13:45:51Z</time>
      </trkpt>
      <trkpt lat="43.66474" lon="3.81751">
        <ele>149</ele>
        <time>2021-03-06T13:45:52Z</time>
      </trkpt>
      <trkpt lat="43.6648" lon="3.8176">
        <ele>149</ele>
        <time>2021-03-06T13:45:54Z</time>
      </trkpt>
      <trkpt lat="43.66481" lon="3.81765">
        <ele>149</ele>
        <time>2021-03-06T13:45:55Z</time>
      </trkpt>
      <trkpt lat="43.66482" lon="3.81768">
        <ele>145</ele>
        <time>2021-03-06T13:45:56Z</time>
      </trkpt>
      <trkpt lat="43.66483" lon="3.81771">
        <ele>145</ele>
        <time>2021-03-06T13:45:59Z</time>
      </trkpt>
      <trkpt lat="43.66481" lon="3.81769">
        <ele>145</ele>
        <time>2021-03-06T13:46:02Z</time>
      </trkpt>
      <trkpt lat="43.6648" lon="3.81765">
        <ele>145</ele>
        <time>2021-03-06T13:46:04Z</time>
      </trkpt>
      <trkpt lat="43.66479" lon="3.81762">
        <ele>145</ele>
        <time>2021-03-06T13:46:05Z</time>
      </trkpt>
      <trkpt lat="43.66478" lon="3.81759">
        <ele>145</ele>
        <time>2021-03-06T13:46:06Z</time>
      </trkpt>
      <trkpt lat="43.66477" lon="3.81756">
        <ele>145</ele>
        <time>2021-03-06T13:46:07Z</time>
      </trkpt>
      <trkpt lat="43.66476" lon="3.81753">
        <ele>145</ele>
        <time>2021-03-06T13:46:08Z</time>
      </trkpt>
      <trkpt lat="43.66475" lon="3.8175">
        <ele>145</ele>
        <time>2021-03-06T13:46:09Z</time>
      </trkpt>
      <trkpt lat="43.66474" lon="3.81747">
        <ele>145</ele>
        <time>2021-03-06T13:46:10Z</time>
      </trkpt>
      <trkpt lat="43.66474" lon="3.81744">
        <ele>145</ele>
        <time>2021-03-06T13:46:11Z</time>
      </trkpt>
      <trkpt lat="43.66473" lon="3.81741">
        <ele>145</ele>
        <time>2021-03-06T13:46:12Z</time>
      </trkpt>
      <trkpt lat="43.66472" lon="3.81739">
        <ele>145</ele>
        <time>2021-03-06T13:46:13Z</time>
      </trkpt>
      <trkpt lat="43.66471" lon="3.81736">
        <ele>145</ele>
        <time>2021-03-06T13:46:15Z</time>
      </trkpt>
      <trkpt lat="43.6647" lon="3.81733">
        <ele>145</ele>
        <time>2021-03-06T13:46:17Z</time>
      </trkpt>
      <trkpt lat="43.66469" lon="3.8173">
        <ele>145</ele>
        <time>2021-03-06T13:46:19Z</time>
      </trkpt>
      <trkpt lat="43.66467" lon="3.81726">
        <ele>145</ele>
        <time>2021-03-06T13:46:21Z</time>
      </trkpt>
      <trkpt lat="43.66466" lon="3.81722">
        <ele>145</ele>
        <time>2021-03-06T13:46:23Z</time>
      </trkpt>
      <trkpt lat="43.66464" lon="3.81717">
        <ele>145</ele>
        <time>2021-03-06T13:46:25Z</time>
      </trkpt>
      <trkpt lat="43.66464" lon="3.81714">
        <ele>145</ele>
        <time>2021-03-06T13:46:26Z</time>
      </trkpt>
      <trkpt lat="43.66462" lon="3.81708">
        <ele>145</ele>
        <time>2021-03-06T13:46:27Z</time>
      </trkpt>
      <trkpt lat="43.66461" lon="3.81705">
        <ele>145</ele>
        <time>2021-03-06T13:46:29Z</time>
      </trkpt>
      <trkpt lat="43.6646" lon="3.81702">
        <ele>145</ele>
        <time>2021-03-06T13:46:30Z</time>
      </trkpt>
      <trkpt lat="43.6646" lon="3.81699">
        <ele>145</ele>
        <time>2021-03-06T13:46:31Z</time>
      </trkpt>
      <trkpt lat="43.66459" lon="3.81697">
        <ele>145</ele>
        <time>2021-03-06T13:46:32Z</time>
      </trkpt>
      <trkpt lat="43.66459" lon="3.81694">
        <ele>145</ele>
        <time>2021-03-06T13:46:33Z</time>
      </trkpt>
      <trkpt lat="43.66459" lon="3.81691">
        <ele>145</ele>
        <time>2021-03-06T13:46:34Z</time>
      </trkpt>
      <trkpt lat="43.66458" lon="3.81687">
        <ele>145</ele>
        <time>2021-03-06T13:46:35Z</time>
      </trkpt>
      <trkpt lat="43.66459" lon="3.81684">
        <ele>145</ele>
        <time>2021-03-06T13:46:36Z</time>
      </trkpt>
      <trkpt lat="43.66459" lon="3.8168">
        <ele>145</ele>
        <time>2021-03-06T13:46:37Z</time>
      </trkpt>
      <trkpt lat="43.6646" lon="3.81677">
        <ele>145</ele>
        <time>2021-03-06T13:46:38Z</time>
      </trkpt>
      <trkpt lat="43.6646" lon="3.81673">
        <ele>145</ele>
        <time>2021-03-06T13:46:39Z</time>
      </trkpt>
      <trkpt lat="43.66462" lon="3.81666">
        <ele>145</ele>
        <time>2021-03-06T13:46:40Z</time>
      </trkpt>
      <trkpt lat="43.66463" lon="3.81663">
        <ele>145</ele>
        <time>2021-03-06T13:46:41Z</time>
      </trkpt>
      <trkpt lat="43.66463" lon="3.81659">
        <ele>145</ele>
        <time>2021-03-06T13:46:42Z</time>
      </trkpt>
      <trkpt lat="43.66464" lon="3.81656">
        <ele>145</ele>
        <time>2021-03-06T13:46:43Z</time>
      </trkpt>
      <trkpt lat="43.66465" lon="3.81653">
        <ele>145</ele>
        <time>2021-03-06T13:46:44Z</time>
      </trkpt>
      <trkpt lat="43.66466" lon="3.8165">
        <ele>145</ele>
        <time>2021-03-06T13:46:45Z</time>
      </trkpt>
      <trkpt lat="43.66468" lon="3.81647">
        <ele>145</ele>
        <time>2021-03-06T13:46:46Z</time>
      </trkpt>
      <trkpt lat="43.66469" lon="3.81645">
        <ele>145</ele>
        <time>2021-03-06T13:46:47Z</time>
      </trkpt>
      <trkpt lat="43.66473" lon="3.81639">
        <ele>145</ele>
        <time>2021-03-06T13:46:49Z</time>
      </trkpt>
      <trkpt lat="43.66476" lon="3.81637">
        <ele>145</ele>
        <time>2021-03-06T13:46:50Z</time>
      </trkpt>
      <trkpt lat="43.66478" lon="3.81634">
        <ele>145</ele>
        <time>2021-03-06T13:46:51Z</time>
      </trkpt>
      <trkpt lat="43.66482" lon="3.81628">
        <ele>145</ele>
        <time>2021-03-06T13:46:53Z</time>
      </trkpt>
      <trkpt lat="43.66484" lon="3.81625">
        <ele>145</ele>
        <time>2021-03-06T13:46:54Z</time>
      </trkpt>
      <trkpt lat="43.66486" lon="3.81622">
        <ele>145</ele>
        <time>2021-03-06T13:46:55Z</time>
      </trkpt>
      <trkpt lat="43.66488" lon="3.81616">
        <ele>145</ele>
        <time>2021-03-06T13:46:57Z</time>
      </trkpt>
      <trkpt lat="43.66491" lon="3.81609">
        <ele>145</ele>
        <time>2021-03-06T13:46:59Z</time>
      </trkpt>
      <trkpt lat="43.66492" lon="3.81605">
        <ele>145</ele>
        <time>2021-03-06T13:47:00Z</time>
      </trkpt>
      <trkpt lat="43.66493" lon="3.81601">
        <ele>145</ele>
        <time>2021-03-06T13:47:01Z</time>
      </trkpt>
      <trkpt lat="43.66494" lon="3.81597">
        <ele>145</ele>
        <time>2021-03-06T13:47:02Z</time>
      </trkpt>
      <trkpt lat="43.66494" lon="3.81593">
        <ele>145</ele>
        <time>2021-03-06T13:47:03Z</time>
      </trkpt>
      <trkpt lat="43.66495" lon="3.81588">
        <ele>145</ele>
        <time>2021-03-06T13:47:04Z</time>
      </trkpt>
      <trkpt lat="43.66496" lon="3.81584">
        <ele>145</ele>
        <time>2021-03-06T13:47:06Z</time>
      </trkpt>
      <trkpt lat="43.66497" lon="3.81579">
        <ele>145</ele>
        <time>2021-03-06T13:47:07Z</time>
      </trkpt>
      <trkpt lat="43.66498" lon="3.81575">
        <ele>145</ele>
        <time>2021-03-06T13:47:08Z</time>
      </trkpt>
      <trkpt lat="43.66499" lon="3.8157">
        <ele>145</ele>
        <time>2021-03-06T13:47:09Z</time>
      </trkpt>
      <trkpt lat="43.665" lon="3.81565">
        <ele>145</ele>
        <time>2021-03-06T13:47:10Z</time>
      </trkpt>
      <trkpt lat="43.66501" lon="3.8156">
        <ele>145</ele>
        <time>2021-03-06T13:47:11Z</time>
      </trkpt>
      <trkpt lat="43.66502" lon="3.81556">
        <ele>145</ele>
        <time>2021-03-06T13:47:12Z</time>
      </trkpt>
      <trkpt lat="43.66503" lon="3.81552">
        <ele>145</ele>
        <time>2021-03-06T13:47:13Z</time>
      </trkpt>
      <trkpt lat="43.66504" lon="3.81548">
        <ele>145</ele>
        <time>2021-03-06T13:47:14Z</time>
      </trkpt>
      <trkpt lat="43.66504" lon="3.81544">
        <ele>145</ele>
        <time>2021-03-06T13:47:15Z</time>
      </trkpt>
      <trkpt lat="43.66505" lon="3.8154">
        <ele>145</ele>
        <time>2021-03-06T13:47:16Z</time>
      </trkpt>
      <trkpt lat="43.66506" lon="3.81535">
        <ele>145</ele>
        <time>2021-03-06T13:47:17Z</time>
      </trkpt>
      <trkpt lat="43.66507" lon="3.81531">
        <ele>145</ele>
        <time>2021-03-06T13:47:18Z</time>
      </trkpt>
      <trkpt lat="43.66509" lon="3.81527">
        <ele>145</ele>
        <time>2021-03-06T13:47:19Z</time>
      </trkpt>
      <trkpt lat="43.6651" lon="3.81522">
        <ele>145</ele>
        <time>2021-03-06T13:47:20Z</time>
      </trkpt>
      <trkpt lat="43.66511" lon="3.81518">
        <ele>145</ele>
        <time>2021-03-06T13:47:21Z</time>
      </trkpt>
      <trkpt lat="43.66512" lon="3.81513">
        <ele>145</ele>
        <time>2021-03-06T13:47:22Z</time>
      </trkpt>
      <trkpt lat="43.66513" lon="3.81508">
        <ele>145</ele>
        <time>2021-03-06T13:47:23Z</time>
      </trkpt>
      <trkpt lat="43.66514" lon="3.81503">
        <ele>145</ele>
        <time>2021-03-06T13:47:24Z</time>
      </trkpt>
      <trkpt lat="43.66516" lon="3.81499">
        <ele>145</ele>
        <time>2021-03-06T13:47:25Z</time>
      </trkpt>
      <trkpt lat="43.66519" lon="3.81496">
        <ele>144</ele>
        <time>2021-03-06T13:47:26Z</time>
      </trkpt>
      <trkpt lat="43.66523" lon="3.81493">
        <ele>144</ele>
        <time>2021-03-06T13:47:27Z</time>
      </trkpt>
      <trkpt lat="43.66527" lon="3.81492">
        <ele>144</ele>
        <time>2021-03-06T13:47:28Z</time>
      </trkpt>
      <trkpt lat="43.66532" lon="3.81492">
        <ele>144</ele>
        <time>2021-03-06T13:47:29Z</time>
      </trkpt>
      <trkpt lat="43.66536" lon="3.8149">
        <ele>144</ele>
        <time>2021-03-06T13:47:30Z</time>
      </trkpt>
      <trkpt lat="43.66546" lon="3.81486">
        <ele>144</ele>
        <time>2021-03-06T13:47:31Z</time>
      </trkpt>
      <trkpt lat="43.6655" lon="3.81484">
        <ele>144</ele>
        <time>2021-03-06T13:47:33Z</time>
      </trkpt>
      <trkpt lat="43.66554" lon="3.81482">
        <ele>144</ele>
        <time>2021-03-06T13:47:34Z</time>
      </trkpt>
      <trkpt lat="43.66559" lon="3.8148">
        <ele>144</ele>
        <time>2021-03-06T13:47:35Z</time>
      </trkpt>
      <trkpt lat="43.66562" lon="3.81475">
        <ele>143</ele>
        <time>2021-03-06T13:47:36Z</time>
      </trkpt>
      <trkpt lat="43.66565" lon="3.81469">
        <ele>143</ele>
        <time>2021-03-06T13:47:37Z</time>
      </trkpt>
      <trkpt lat="43.66569" lon="3.81463">
        <ele>143</ele>
        <time>2021-03-06T13:47:38Z</time>
      </trkpt>
      <trkpt lat="43.66574" lon="3.81457">
        <ele>143</ele>
        <time>2021-03-06T13:47:39Z</time>
      </trkpt>
      <trkpt lat="43.66578" lon="3.81451">
        <ele>143</ele>
        <time>2021-03-06T13:47:40Z</time>
      </trkpt>
      <trkpt lat="43.66583" lon="3.81444">
        <ele>143</ele>
        <time>2021-03-06T13:47:41Z</time>
      </trkpt>
      <trkpt lat="43.66588" lon="3.81437">
        <ele>143</ele>
        <time>2021-03-06T13:47:42Z</time>
      </trkpt>
      <trkpt lat="43.66592" lon="3.8143">
        <ele>143</ele>
        <time>2021-03-06T13:47:43Z</time>
      </trkpt>
      <trkpt lat="43.66596" lon="3.81423">
        <ele>143</ele>
        <time>2021-03-06T13:47:44Z</time>
      </trkpt>
      <trkpt lat="43.66599" lon="3.81416">
        <ele>143</ele>
        <time>2021-03-06T13:47:45Z</time>
      </trkpt>
      <trkpt lat="43.66603" lon="3.81408">
        <ele>141</ele>
        <time>2021-03-06T13:47:46Z</time>
      </trkpt>
      <trkpt lat="43.66605" lon="3.81401">
        <ele>141</ele>
        <time>2021-03-06T13:47:47Z</time>
      </trkpt>
      <trkpt lat="43.66608" lon="3.81394">
        <ele>141</ele>
        <time>2021-03-06T13:47:48Z</time>
      </trkpt>
      <trkpt lat="43.66611" lon="3.81388">
        <ele>141</ele>
        <time>2021-03-06T13:47:49Z</time>
      </trkpt>
      <trkpt lat="43.66614" lon="3.81382">
        <ele>141</ele>
        <time>2021-03-06T13:47:50Z</time>
      </trkpt>
      <trkpt lat="43.66616" lon="3.81376">
        <ele>141</ele>
        <time>2021-03-06T13:47:51Z</time>
      </trkpt>
      <trkpt lat="43.66618" lon="3.81371">
        <ele>141</ele>
        <time>2021-03-06T13:47:52Z</time>
      </trkpt>
      <trkpt lat="43.6662" lon="3.81366">
        <ele>141</ele>
        <time>2021-03-06T13:47:53Z</time>
      </trkpt>
      <trkpt lat="43.66625" lon="3.81357">
        <ele>141</ele>
        <time>2021-03-06T13:47:54Z</time>
      </trkpt>
      <trkpt lat="43.66627" lon="3.81352">
        <ele>141</ele>
        <time>2021-03-06T13:47:55Z</time>
      </trkpt>
      <trkpt lat="43.66628" lon="3.81348">
        <ele>141</ele>
        <time>2021-03-06T13:47:57Z</time>
      </trkpt>
      <trkpt lat="43.6663" lon="3.81343">
        <ele>141</ele>
        <time>2021-03-06T13:47:58Z</time>
      </trkpt>
      <trkpt lat="43.66632" lon="3.81339">
        <ele>141</ele>
        <time>2021-03-06T13:47:59Z</time>
      </trkpt>
      <trkpt lat="43.66634" lon="3.81335">
        <ele>141</ele>
        <time>2021-03-06T13:48:00Z</time>
      </trkpt>
      <trkpt lat="43.66636" lon="3.81331">
        <ele>141</ele>
        <time>2021-03-06T13:48:01Z</time>
      </trkpt>
      <trkpt lat="43.66638" lon="3.81327">
        <ele>141</ele>
        <time>2021-03-06T13:48:02Z</time>
      </trkpt>
      <trkpt lat="43.66641" lon="3.81324">
        <ele>141</ele>
        <time>2021-03-06T13:48:03Z</time>
      </trkpt>
      <trkpt lat="43.66643" lon="3.8132">
        <ele>141</ele>
        <time>2021-03-06T13:48:04Z</time>
      </trkpt>
      <trkpt lat="43.66645" lon="3.81317">
        <ele>141</ele>
        <time>2021-03-06T13:48:05Z</time>
      </trkpt>
      <trkpt lat="43.66648" lon="3.81315">
        <ele>138</ele>
        <time>2021-03-06T13:48:06Z</time>
      </trkpt>
      <trkpt lat="43.66653" lon="3.81309">
        <ele>138</ele>
        <time>2021-03-06T13:48:07Z</time>
      </trkpt>
      <trkpt lat="43.66655" lon="3.81307">
        <ele>138</ele>
        <time>2021-03-06T13:48:08Z</time>
      </trkpt>
      <trkpt lat="43.66658" lon="3.81304">
        <ele>138</ele>
        <time>2021-03-06T13:48:09Z</time>
      </trkpt>
      <trkpt lat="43.66663" lon="3.81299">
        <ele>138</ele>
        <time>2021-03-06T13:48:11Z</time>
      </trkpt>
      <trkpt lat="43.66666" lon="3.81297">
        <ele>138</ele>
        <time>2021-03-06T13:48:12Z</time>
      </trkpt>
      <trkpt lat="43.66668" lon="3.81295">
        <ele>138</ele>
        <time>2021-03-06T13:48:13Z</time>
      </trkpt>
      <trkpt lat="43.6667" lon="3.81293">
        <ele>138</ele>
        <time>2021-03-06T13:48:14Z</time>
      </trkpt>
      <trkpt lat="43.66673" lon="3.8129">
        <ele>138</ele>
        <time>2021-03-06T13:48:16Z</time>
      </trkpt>
      <trkpt lat="43.66675" lon="3.81288">
        <ele>138</ele>
        <time>2021-03-06T13:48:17Z</time>
      </trkpt>
      <trkpt lat="43.66677" lon="3.81286">
        <ele>138</ele>
        <time>2021-03-06T13:48:18Z</time>
      </trkpt>
      <trkpt lat="43.66678" lon="3.81284">
        <ele>138</ele>
        <time>2021-03-06T13:48:19Z</time>
      </trkpt>
      <trkpt lat="43.6668" lon="3.81281">
        <ele>138</ele>
        <time>2021-03-06T13:48:20Z</time>
      </trkpt>
      <trkpt lat="43.66681" lon="3.81279">
        <ele>138</ele>
        <time>2021-03-06T13:48:21Z</time>
      </trkpt>
      <trkpt lat="43.66683" lon="3.81276">
        <ele>138</ele>
        <time>2021-03-06T13:48:22Z</time>
      </trkpt>
      <trkpt lat="43.66685" lon="3.81273">
        <ele>138</ele>
        <time>2021-03-06T13:48:23Z</time>
      </trkpt>
      <trkpt lat="43.66689" lon="3.81266">
        <ele>138</ele>
        <time>2021-03-06T13:48:24Z</time>
      </trkpt>
      <trkpt lat="43.66691" lon="3.81263">
        <ele>138</ele>
        <time>2021-03-06T13:48:26Z</time>
      </trkpt>
      <trkpt lat="43.66693" lon="3.81259">
        <ele>138</ele>
        <time>2021-03-06T13:48:27Z</time>
      </trkpt>
      <trkpt lat="43.66694" lon="3.81255">
        <ele>138</ele>
        <time>2021-03-06T13:48:28Z</time>
      </trkpt>
      <trkpt lat="43.66698" lon="3.81248">
        <ele>138</ele>
        <time>2021-03-06T13:48:29Z</time>
      </trkpt>
      <trkpt lat="43.66702" lon="3.8124">
        <ele>138</ele>
        <time>2021-03-06T13:48:31Z</time>
      </trkpt>
      <trkpt lat="43.66703" lon="3.81237">
        <ele>138</ele>
        <time>2021-03-06T13:48:32Z</time>
      </trkpt>
      <trkpt lat="43.66705" lon="3.81234">
        <ele>138</ele>
        <time>2021-03-06T13:48:34Z</time>
      </trkpt>
      <trkpt lat="43.66707" lon="3.8123">
        <ele>138</ele>
        <time>2021-03-06T13:48:35Z</time>
      </trkpt>
      <trkpt lat="43.66708" lon="3.81227">
        <ele>138</ele>
        <time>2021-03-06T13:48:36Z</time>
      </trkpt>
      <trkpt lat="43.6671" lon="3.81225">
        <ele>138</ele>
        <time>2021-03-06T13:48:37Z</time>
      </trkpt>
      <trkpt lat="43.66712" lon="3.81222">
        <ele>138</ele>
        <time>2021-03-06T13:48:38Z</time>
      </trkpt>
      <trkpt lat="43.66713" lon="3.81221">
        <ele>138</ele>
        <time>2021-03-06T13:48:39Z</time>
      </trkpt>
      <trkpt lat="43.66715" lon="3.81219">
        <ele>138</ele>
        <time>2021-03-06T13:48:40Z</time>
      </trkpt>
      <trkpt lat="43.66717" lon="3.81217">
        <ele>138</ele>
        <time>2021-03-06T13:48:41Z</time>
      </trkpt>
      <trkpt lat="43.66719" lon="3.81216">
        <ele>138</ele>
        <time>2021-03-06T13:48:42Z</time>
      </trkpt>
      <trkpt lat="43.66721" lon="3.81215">
        <ele>138</ele>
        <time>2021-03-06T13:48:43Z</time>
      </trkpt>
      <trkpt lat="43.66723" lon="3.81215">
        <ele>138</ele>
        <time>2021-03-06T13:48:44Z</time>
      </trkpt>
      <trkpt lat="43.66724" lon="3.81214">
        <ele>138</ele>
        <time>2021-03-06T13:48:45Z</time>
      </trkpt>
      <trkpt lat="43.66728" lon="3.81213">
        <ele>138</ele>
        <time>2021-03-06T13:48:47Z</time>
      </trkpt>
      <trkpt lat="43.66728" lon="3.81212">
        <ele>139</ele>
        <time>2021-03-06T13:48:52Z</time>
      </trkpt>
      <trkpt lat="43.66737" lon="3.81216">
        <ele>138</ele>
        <time>2021-03-06T13:49:07Z</time>
      </trkpt>
      <trkpt lat="43.66739" lon="3.81218">
        <ele>138</ele>
        <time>2021-03-06T13:49:09Z</time>
      </trkpt>
      <trkpt lat="43.66741" lon="3.8122">
        <ele>138</ele>
        <time>2021-03-06T13:49:10Z</time>
      </trkpt>
      <trkpt lat="43.66744" lon="3.81222">
        <ele>138</ele>
        <time>2021-03-06T13:49:11Z</time>
      </trkpt>
      <trkpt lat="43.66747" lon="3.81225">
        <ele>138</ele>
        <time>2021-03-06T13:49:12Z</time>
      </trkpt>
      <trkpt lat="43.66751" lon="3.81226">
        <ele>138</ele>
        <time>2021-03-06T13:49:13Z</time>
      </trkpt>
      <trkpt lat="43.66754" lon="3.81225">
        <ele>138</ele>
        <time>2021-03-06T13:49:14Z</time>
      </trkpt>
      <trkpt lat="43.66756" lon="3.81223">
        <ele>138</ele>
        <time>2021-03-06T13:49:15Z</time>
      </trkpt>
      <trkpt lat="43.66757" lon="3.8122">
        <ele>138</ele>
        <time>2021-03-06T13:49:17Z</time>
      </trkpt>
      <trkpt lat="43.66759" lon="3.81217">
        <ele>138</ele>
        <time>2021-03-06T13:49:19Z</time>
      </trkpt>
      <trkpt lat="43.6676" lon="3.81215">
        <ele>138</ele>
        <time>2021-03-06T13:49:20Z</time>
      </trkpt>
      <trkpt lat="43.66761" lon="3.81211">
        <ele>138</ele>
        <time>2021-03-06T13:49:22Z</time>
      </trkpt>
      <trkpt lat="43.66764" lon="3.81209">
        <ele>138</ele>
        <time>2021-03-06T13:49:24Z</time>
      </trkpt>
      <trkpt lat="43.66767" lon="3.81208">
        <ele>138</ele>
        <time>2021-03-06T13:49:25Z</time>
      </trkpt>
      <trkpt lat="43.66769" lon="3.81206">
        <ele>138</ele>
        <time>2021-03-06T13:49:26Z</time>
      </trkpt>
      <trkpt lat="43.66774" lon="3.81199">
        <ele>138</ele>
        <time>2021-03-06T13:49:27Z</time>
      </trkpt>
      <trkpt lat="43.66776" lon="3.81195">
        <ele>138</ele>
        <time>2021-03-06T13:49:28Z</time>
      </trkpt>
      <trkpt lat="43.66777" lon="3.81189">
        <ele>138</ele>
        <time>2021-03-06T13:49:30Z</time>
      </trkpt>
      <trkpt lat="43.66778" lon="3.81183">
        <ele>138</ele>
        <time>2021-03-06T13:49:31Z</time>
      </trkpt>
      <trkpt lat="43.66778" lon="3.81178">
        <ele>138</ele>
        <time>2021-03-06T13:49:32Z</time>
      </trkpt>
      <trkpt lat="43.66778" lon="3.81173">
        <ele>138</ele>
        <time>2021-03-06T13:49:33Z</time>
      </trkpt>
      <trkpt lat="43.66779" lon="3.81167">
        <ele>138</ele>
        <time>2021-03-06T13:49:34Z</time>
      </trkpt>
      <trkpt lat="43.66781" lon="3.81164">
        <ele>138</ele>
        <time>2021-03-06T13:49:35Z</time>
      </trkpt>
      <trkpt lat="43.66785" lon="3.81163">
        <ele>138</ele>
        <time>2021-03-06T13:49:36Z</time>
      </trkpt>
      <trkpt lat="43.66789" lon="3.81164">
        <ele>137</ele>
        <time>2021-03-06T13:49:37Z</time>
      </trkpt>
      <trkpt lat="43.66798" lon="3.81168">
        <ele>137</ele>
        <time>2021-03-06T13:49:38Z</time>
      </trkpt>
      <trkpt lat="43.66802" lon="3.81169">
        <ele>137</ele>
        <time>2021-03-06T13:49:39Z</time>
      </trkpt>
      <trkpt lat="43.66806" lon="3.81168">
        <ele>137</ele>
        <time>2021-03-06T13:49:40Z</time>
      </trkpt>
      <trkpt lat="43.66809" lon="3.81166">
        <ele>137</ele>
        <time>2021-03-06T13:49:41Z</time>
      </trkpt>
      <trkpt lat="43.66813" lon="3.8116">
        <ele>137</ele>
        <time>2021-03-06T13:49:43Z</time>
      </trkpt>
      <trkpt lat="43.66814" lon="3.81155">
        <ele>137</ele>
        <time>2021-03-06T13:49:44Z</time>
      </trkpt>
      <trkpt lat="43.66814" lon="3.81151">
        <ele>137</ele>
        <time>2021-03-06T13:49:45Z</time>
      </trkpt>
      <trkpt lat="43.66814" lon="3.81143">
        <ele>136</ele>
        <time>2021-03-06T13:49:47Z</time>
      </trkpt>
      <trkpt lat="43.66814" lon="3.81139">
        <ele>136</ele>
        <time>2021-03-06T13:49:48Z</time>
      </trkpt>
      <trkpt lat="43.66817" lon="3.81136">
        <ele>136</ele>
        <time>2021-03-06T13:49:49Z</time>
      </trkpt>
      <trkpt lat="43.66819" lon="3.81133">
        <ele>136</ele>
        <time>2021-03-06T13:49:50Z</time>
      </trkpt>
      <trkpt lat="43.66822" lon="3.81127">
        <ele>136</ele>
        <time>2021-03-06T13:49:51Z</time>
      </trkpt>
      <trkpt lat="43.66825" lon="3.8112">
        <ele>136</ele>
        <time>2021-03-06T13:49:52Z</time>
      </trkpt>
      <trkpt lat="43.66828" lon="3.81111">
        <ele>136</ele>
        <time>2021-03-06T13:49:53Z</time>
      </trkpt>
      <trkpt lat="43.66831" lon="3.81103">
        <ele>136</ele>
        <time>2021-03-06T13:49:54Z</time>
      </trkpt>
      <trkpt lat="43.66839" lon="3.81095">
        <ele>136</ele>
        <time>2021-03-06T13:49:56Z</time>
      </trkpt>
      <trkpt lat="43.66843" lon="3.81093">
        <ele>132</ele>
        <time>2021-03-06T13:49:57Z</time>
      </trkpt>
      <trkpt lat="43.66846" lon="3.81092">
        <ele>132</ele>
        <time>2021-03-06T13:49:58Z</time>
      </trkpt>
      <trkpt lat="43.66847" lon="3.81092">
        <ele>130</ele>
        <time>2021-03-06T13:50:06Z</time>
      </trkpt>
      <trkpt lat="43.66853" lon="3.81091">
        <ele>125</ele>
        <time>2021-03-06T13:51:01Z</time>
      </trkpt>
      <trkpt lat="43.66857" lon="3.81091">
        <ele>125</ele>
        <time>2021-03-06T13:51:02Z</time>
      </trkpt>
      <trkpt lat="43.66866" lon="3.81092">
        <ele>125</ele>
        <time>2021-03-06T13:51:03Z</time>
      </trkpt>
      <trkpt lat="43.66871" lon="3.81091">
        <ele>125</ele>
        <time>2021-03-06T13:51:04Z</time>
      </trkpt>
      <trkpt lat="43.66875" lon="3.8109">
        <ele>125</ele>
        <time>2021-03-06T13:51:05Z</time>
      </trkpt>
      <trkpt lat="43.6688" lon="3.81089">
        <ele>125</ele>
        <time>2021-03-06T13:51:07Z</time>
      </trkpt>
      <trkpt lat="43.66885" lon="3.81088">
        <ele>125</ele>
        <time>2021-03-06T13:51:08Z</time>
      </trkpt>
      <trkpt lat="43.66891" lon="3.81087">
        <ele>125</ele>
        <time>2021-03-06T13:51:09Z</time>
      </trkpt>
      <trkpt lat="43.669" lon="3.81088">
        <ele>125</ele>
        <time>2021-03-06T13:51:10Z</time>
      </trkpt>
      <trkpt lat="43.66904" lon="3.81087">
        <ele>123</ele>
        <time>2021-03-06T13:51:11Z</time>
      </trkpt>
      <trkpt lat="43.66907" lon="3.81085">
        <ele>123</ele>
        <time>2021-03-06T13:51:12Z</time>
      </trkpt>
      <trkpt lat="43.66909" lon="3.81081">
        <ele>123</ele>
        <time>2021-03-06T13:51:13Z</time>
      </trkpt>
      <trkpt lat="43.66911" lon="3.81078">
        <ele>123</ele>
        <time>2021-03-06T13:51:15Z</time>
      </trkpt>
      <trkpt lat="43.66914" lon="3.81076">
        <ele>123</ele>
        <time>2021-03-06T13:51:16Z</time>
      </trkpt>
      <trkpt lat="43.66917" lon="3.81074">
        <ele>123</ele>
        <time>2021-03-06T13:51:17Z</time>
      </trkpt>
      <trkpt lat="43.66919" lon="3.81073">
        <ele>123</ele>
        <time>2021-03-06T13:51:18Z</time>
      </trkpt>
      <trkpt lat="43.66921" lon="3.81073">
        <ele>123</ele>
        <time>2021-03-06T13:51:19Z</time>
      </trkpt>
      <trkpt lat="43.66923" lon="3.81073">
        <ele>123</ele>
        <time>2021-03-06T13:51:20Z</time>
      </trkpt>
      <trkpt lat="43.66927" lon="3.81069">
        <ele>121</ele>
        <time>2021-03-06T13:51:21Z</time>
      </trkpt>
      <trkpt lat="43.66929" lon="3.81067">
        <ele>121</ele>
        <time>2021-03-06T13:51:22Z</time>
      </trkpt>
      <trkpt lat="43.66931" lon="3.81065">
        <ele>121</ele>
        <time>2021-03-06T13:51:23Z</time>
      </trkpt>
      <trkpt lat="43.66932" lon="3.81063">
        <ele>121</ele>
        <time>2021-03-06T13:51:24Z</time>
      </trkpt>
      <trkpt lat="43.66934" lon="3.81061">
        <ele>121</ele>
        <time>2021-03-06T13:51:25Z</time>
      </trkpt>
      <trkpt lat="43.66936" lon="3.8106">
        <ele>121</ele>
        <time>2021-03-06T13:51:26Z</time>
      </trkpt>
      <trkpt lat="43.66938" lon="3.81058">
        <ele>121</ele>
        <time>2021-03-06T13:51:27Z</time>
      </trkpt>
      <trkpt lat="43.66941" lon="3.81056">
        <ele>121</ele>
        <time>2021-03-06T13:51:29Z</time>
      </trkpt>
      <trkpt lat="43.66943" lon="3.81055">
        <ele>121</ele>
        <time>2021-03-06T13:51:30Z</time>
      </trkpt>
      <trkpt lat="43.66947" lon="3.81053">
        <ele>121</ele>
        <time>2021-03-06T13:51:32Z</time>
      </trkpt>
      <trkpt lat="43.6695" lon="3.81052">
        <ele>121</ele>
        <time>2021-03-06T13:51:33Z</time>
      </trkpt>
      <trkpt lat="43.66952" lon="3.81051">
        <ele>121</ele>
        <time>2021-03-06T13:51:34Z</time>
      </trkpt>
      <trkpt lat="43.66956" lon="3.81048">
        <ele>121</ele>
        <time>2021-03-06T13:51:36Z</time>
      </trkpt>
      <trkpt lat="43.66958" lon="3.81047">
        <ele>121</ele>
        <time>2021-03-06T13:51:37Z</time>
      </trkpt>
      <trkpt lat="43.6696" lon="3.81046">
        <ele>121</ele>
        <time>2021-03-06T13:51:38Z</time>
      </trkpt>
      <trkpt lat="43.66962" lon="3.81045">
        <ele>121</ele>
        <time>2021-03-06T13:51:39Z</time>
      </trkpt>
      <trkpt lat="43.66965" lon="3.81044">
        <ele>118</ele>
        <time>2021-03-06T13:51:41Z</time>
      </trkpt>
      <trkpt lat="43.66968" lon="3.81043">
        <ele>118</ele>
        <time>2021-03-06T13:51:43Z</time>
      </trkpt>
      <trkpt lat="43.66971" lon="3.8104">
        <ele>118</ele>
        <time>2021-03-06T13:51:45Z</time>
      </trkpt>
      <trkpt lat="43.66973" lon="3.81038">
        <ele>118</ele>
        <time>2021-03-06T13:51:46Z</time>
      </trkpt>
      <trkpt lat="43.66976" lon="3.81037">
        <ele>118</ele>
        <time>2021-03-06T13:51:47Z</time>
      </trkpt>
      <trkpt lat="43.66981" lon="3.81037">
        <ele>118</ele>
        <time>2021-03-06T13:51:49Z</time>
      </trkpt>
      <trkpt lat="43.66983" lon="3.81038">
        <ele>118</ele>
        <time>2021-03-06T13:51:50Z</time>
      </trkpt>
      <trkpt lat="43.66986" lon="3.81039">
        <ele>119</ele>
        <time>2021-03-06T13:51:51Z</time>
      </trkpt>
      <trkpt lat="43.66988" lon="3.8104">
        <ele>119</ele>
        <time>2021-03-06T13:51:52Z</time>
      </trkpt>
      <trkpt lat="43.66991" lon="3.8104">
        <ele>119</ele>
        <time>2021-03-06T13:51:54Z</time>
      </trkpt>
      <trkpt lat="43.66993" lon="3.81041">
        <ele>119</ele>
        <time>2021-03-06T13:51:55Z</time>
      </trkpt>
      <trkpt lat="43.66995" lon="3.81042">
        <ele>119</ele>
        <time>2021-03-06T13:51:56Z</time>
      </trkpt>
      <trkpt lat="43.66997" lon="3.81043">
        <ele>119</ele>
        <time>2021-03-06T13:51:57Z</time>
      </trkpt>
      <trkpt lat="43.67" lon="3.81045">
        <ele>119</ele>
        <time>2021-03-06T13:51:58Z</time>
      </trkpt>
      <trkpt lat="43.67003" lon="3.81047">
        <ele>119</ele>
        <time>2021-03-06T13:52:00Z</time>
      </trkpt>
      <trkpt lat="43.67006" lon="3.81049">
        <ele>119</ele>
        <time>2021-03-06T13:52:02Z</time>
      </trkpt>
      <trkpt lat="43.67009" lon="3.81051">
        <ele>119</ele>
        <time>2021-03-06T13:52:04Z</time>
      </trkpt>
      <trkpt lat="43.67011" lon="3.81052">
        <ele>119</ele>
        <time>2021-03-06T13:52:06Z</time>
      </trkpt>
      <trkpt lat="43.67011" lon="3.81052">
        <ele>120</ele>
        <time>2021-03-06T13:52:12Z</time>
      </trkpt>
      <trkpt lat="43.67017" lon="3.81052">
        <ele>120</ele>
        <time>2021-03-06T13:52:21Z</time>
      </trkpt>
      <trkpt lat="43.67019" lon="3.81052">
        <ele>120</ele>
        <time>2021-03-06T13:52:22Z</time>
      </trkpt>
      <trkpt lat="43.67022" lon="3.81053">
        <ele>120</ele>
        <time>2021-03-06T13:52:23Z</time>
      </trkpt>
      <trkpt lat="43.67027" lon="3.81056">
        <ele>120</ele>
        <time>2021-03-06T13:52:24Z</time>
      </trkpt>
      <trkpt lat="43.67029" lon="3.81058">
        <ele>120</ele>
        <time>2021-03-06T13:52:26Z</time>
      </trkpt>
      <trkpt lat="43.67032" lon="3.8106">
        <ele>120</ele>
        <time>2021-03-06T13:52:28Z</time>
      </trkpt>
      <trkpt lat="43.67035" lon="3.8106">
        <ele>120</ele>
        <time>2021-03-06T13:52:29Z</time>
      </trkpt>
      <trkpt lat="43.6704" lon="3.8106">
        <ele>120</ele>
        <time>2021-03-06T13:52:31Z</time>
      </trkpt>
      <trkpt lat="43.67043" lon="3.81061">
        <ele>120</ele>
        <time>2021-03-06T13:52:33Z</time>
      </trkpt>
      <trkpt lat="43.67046" lon="3.81062">
        <ele>120</ele>
        <time>2021-03-06T13:52:34Z</time>
      </trkpt>
      <trkpt lat="43.6705" lon="3.81064">
        <ele>120</ele>
        <time>2021-03-06T13:52:35Z</time>
      </trkpt>
      <trkpt lat="43.67054" lon="3.81065">
        <ele>120</ele>
        <time>2021-03-06T13:52:36Z</time>
      </trkpt>
      <trkpt lat="43.67061" lon="3.81066">
        <ele>120</ele>
        <time>2021-03-06T13:52:37Z</time>
      </trkpt>
      <trkpt lat="43.67065" lon="3.81067">
        <ele>120</ele>
        <time>2021-03-06T13:52:38Z</time>
      </trkpt>
      <trkpt lat="43.67068" lon="3.81067">
        <ele>120</ele>
        <time>2021-03-06T13:52:39Z</time>
      </trkpt>
      <trkpt lat="43.67074" lon="3.81067">
        <ele>120</ele>
        <time>2021-03-06T13:52:41Z</time>
      </trkpt>
      <trkpt lat="43.67077" lon="3.81066">
        <ele>120</ele>
        <time>2021-03-06T13:52:42Z</time>
      </trkpt>
      <trkpt lat="43.67081" lon="3.81067">
        <ele>120</ele>
        <time>2021-03-06T13:52:43Z</time>
      </trkpt>
      <trkpt lat="43.67084" lon="3.81068">
        <ele>120</ele>
        <time>2021-03-06T13:52:44Z</time>
      </trkpt>
      <trkpt lat="43.67087" lon="3.81068">
        <ele>120</ele>
        <time>2021-03-06T13:52:45Z</time>
      </trkpt>
      <trkpt lat="43.6709" lon="3.81069">
        <ele>120</ele>
        <time>2021-03-06T13:52:46Z</time>
      </trkpt>
      <trkpt lat="43.67094" lon="3.81069">
        <ele>120</ele>
        <time>2021-03-06T13:52:47Z</time>
      </trkpt>
      <trkpt lat="43.67097" lon="3.81069">
        <ele>120</ele>
        <time>2021-03-06T13:52:48Z</time>
      </trkpt>
      <trkpt lat="43.671" lon="3.8107">
        <ele>120</ele>
        <time>2021-03-06T13:52:49Z</time>
      </trkpt>
      <trkpt lat="43.67104" lon="3.8107">
        <ele>120</ele>
        <time>2021-03-06T13:52:50Z</time>
      </trkpt>
      <trkpt lat="43.67107" lon="3.81071">
        <ele>120</ele>
        <time>2021-03-06T13:52:52Z</time>
      </trkpt>
      <trkpt lat="43.67111" lon="3.81073">
        <ele>120</ele>
        <time>2021-03-06T13:52:53Z</time>
      </trkpt>
      <trkpt lat="43.67114" lon="3.81074">
        <ele>120</ele>
        <time>2021-03-06T13:52:54Z</time>
      </trkpt>
      <trkpt lat="43.67118" lon="3.81075">
        <ele>120</ele>
        <time>2021-03-06T13:52:55Z</time>
      </trkpt>
      <trkpt lat="43.67121" lon="3.81076">
        <ele>120</ele>
        <time>2021-03-06T13:52:56Z</time>
      </trkpt>
      <trkpt lat="43.67125" lon="3.81078">
        <ele>120</ele>
        <time>2021-03-06T13:52:57Z</time>
      </trkpt>
      <trkpt lat="43.67128" lon="3.8108">
        <ele>120</ele>
        <time>2021-03-06T13:52:58Z</time>
      </trkpt>
      <trkpt lat="43.67131" lon="3.81082">
        <ele>120</ele>
        <time>2021-03-06T13:52:59Z</time>
      </trkpt>
      <trkpt lat="43.67134" lon="3.81084">
        <ele>120</ele>
        <time>2021-03-06T13:53:00Z</time>
      </trkpt>
      <trkpt lat="43.67137" lon="3.81084">
        <ele>121</ele>
        <time>2021-03-06T13:53:01Z</time>
      </trkpt>
      <trkpt lat="43.6714" lon="3.81085">
        <ele>121</ele>
        <time>2021-03-06T13:53:02Z</time>
      </trkpt>
      <trkpt lat="43.67144" lon="3.81083">
        <ele>121</ele>
        <time>2021-03-06T13:53:03Z</time>
      </trkpt>
      <trkpt lat="43.67147" lon="3.81082">
        <ele>121</ele>
        <time>2021-03-06T13:53:04Z</time>
      </trkpt>
      <trkpt lat="43.6715" lon="3.8108">
        <ele>121</ele>
        <time>2021-03-06T13:53:05Z</time>
      </trkpt>
      <trkpt lat="43.67153" lon="3.81079">
        <ele>121</ele>
        <time>2021-03-06T13:53:06Z</time>
      </trkpt>
      <trkpt lat="43.67155" lon="3.81077">
        <ele>121</ele>
        <time>2021-03-06T13:53:07Z</time>
      </trkpt>
      <trkpt lat="43.67156" lon="3.81076">
        <ele>121</ele>
        <time>2021-03-06T13:53:08Z</time>
      </trkpt>
      <trkpt lat="43.67158" lon="3.81074">
        <ele>121</ele>
        <time>2021-03-06T13:53:09Z</time>
      </trkpt>
      <trkpt lat="43.6716" lon="3.81072">
        <ele>121</ele>
        <time>2021-03-06T13:53:10Z</time>
      </trkpt>
      <trkpt lat="43.67163" lon="3.81069">
        <ele>121</ele>
        <time>2021-03-06T13:53:11Z</time>
      </trkpt>
      <trkpt lat="43.67165" lon="3.81067">
        <ele>121</ele>
        <time>2021-03-06T13:53:12Z</time>
      </trkpt>
      <trkpt lat="43.67167" lon="3.81065">
        <ele>121</ele>
        <time>2021-03-06T13:53:13Z</time>
      </trkpt>
      <trkpt lat="43.67172" lon="3.81063">
        <ele>121</ele>
        <time>2021-03-06T13:53:15Z</time>
      </trkpt>
      <trkpt lat="43.67174" lon="3.81062">
        <ele>121</ele>
        <time>2021-03-06T13:53:16Z</time>
      </trkpt>
      <trkpt lat="43.67175" lon="3.8106">
        <ele>121</ele>
        <time>2021-03-06T13:53:17Z</time>
      </trkpt>
      <trkpt lat="43.67178" lon="3.81054">
        <ele>121</ele>
        <time>2021-03-06T13:53:19Z</time>
      </trkpt>
      <trkpt lat="43.6718" lon="3.81052">
        <ele>121</ele>
        <time>2021-03-06T13:53:21Z</time>
      </trkpt>
      <trkpt lat="43.67182" lon="3.81049">
        <ele>121</ele>
        <time>2021-03-06T13:53:22Z</time>
      </trkpt>
      <trkpt lat="43.67184" lon="3.81047">
        <ele>121</ele>
        <time>2021-03-06T13:53:23Z</time>
      </trkpt>
      <trkpt lat="43.67187" lon="3.81045">
        <ele>121</ele>
        <time>2021-03-06T13:53:24Z</time>
      </trkpt>
      <trkpt lat="43.67189" lon="3.81043">
        <ele>121</ele>
        <time>2021-03-06T13:53:25Z</time>
      </trkpt>
      <trkpt lat="43.67192" lon="3.81041">
        <ele>121</ele>
        <time>2021-03-06T13:53:26Z</time>
      </trkpt>
      <trkpt lat="43.67194" lon="3.8104">
        <ele>121</ele>
        <time>2021-03-06T13:53:27Z</time>
      </trkpt>
      <trkpt lat="43.67197" lon="3.81038">
        <ele>121</ele>
        <time>2021-03-06T13:53:28Z</time>
      </trkpt>
      <trkpt lat="43.672" lon="3.81038">
        <ele>121</ele>
        <time>2021-03-06T13:53:29Z</time>
      </trkpt>
      <trkpt lat="43.67202" lon="3.81037">
        <ele>121</ele>
        <time>2021-03-06T13:53:30Z</time>
      </trkpt>
      <trkpt lat="43.67205" lon="3.81037">
        <ele>121</ele>
        <time>2021-03-06T13:53:32Z</time>
      </trkpt>
      <trkpt lat="43.67209" lon="3.81037">
        <ele>121</ele>
        <time>2021-03-06T13:53:34Z</time>
      </trkpt>
      <trkpt lat="43.67211" lon="3.81037">
        <ele>121</ele>
        <time>2021-03-06T13:53:35Z</time>
      </trkpt>
      <trkpt lat="43.67214" lon="3.81038">
        <ele>121</ele>
        <time>2021-03-06T13:53:36Z</time>
      </trkpt>
      <trkpt lat="43.67216" lon="3.81039">
        <ele>121</ele>
        <time>2021-03-06T13:53:37Z</time>
      </trkpt>
      <trkpt lat="43.67219" lon="3.81039">
        <ele>121</ele>
        <time>2021-03-06T13:53:38Z</time>
      </trkpt>
      <trkpt lat="43.67222" lon="3.81039">
        <ele>121</ele>
        <time>2021-03-06T13:53:39Z</time>
      </trkpt>
      <trkpt lat="43.67225" lon="3.8104">
        <ele>121</ele>
        <time>2021-03-06T13:53:40Z</time>
      </trkpt>
      <trkpt lat="43.67228" lon="3.8104">
        <ele>121</ele>
        <time>2021-03-06T13:53:41Z</time>
      </trkpt>
      <trkpt lat="43.6723" lon="3.81039">
        <ele>121</ele>
        <time>2021-03-06T13:53:42Z</time>
      </trkpt>
      <trkpt lat="43.67233" lon="3.81037">
        <ele>121</ele>
        <time>2021-03-06T13:53:43Z</time>
      </trkpt>
      <trkpt lat="43.67235" lon="3.81036">
        <ele>121</ele>
        <time>2021-03-06T13:53:44Z</time>
      </trkpt>
      <trkpt lat="43.67237" lon="3.81035">
        <ele>121</ele>
        <time>2021-03-06T13:53:45Z</time>
      </trkpt>
      <trkpt lat="43.67238" lon="3.81038">
        <ele>121</ele>
        <time>2021-03-06T13:53:47Z</time>
      </trkpt>
      <trkpt lat="43.67238" lon="3.8104">
        <ele>121</ele>
        <time>2021-03-06T13:53:50Z</time>
      </trkpt>
      <trkpt lat="43.67238" lon="3.81041">
        <ele>121</ele>
        <time>2021-03-06T13:53:54Z</time>
      </trkpt>
      <trkpt lat="43.67236" lon="3.81051">
        <ele>121</ele>
        <time>2021-03-06T13:54:41Z</time>
      </trkpt>
      <trkpt lat="43.67237" lon="3.81055">
        <ele>121</ele>
        <time>2021-03-06T13:54:42Z</time>
      </trkpt>
      <trkpt lat="43.67237" lon="3.81061">
        <ele>121</ele>
        <time>2021-03-06T13:54:43Z</time>
      </trkpt>
      <trkpt lat="43.67236" lon="3.81067">
        <ele>121</ele>
        <time>2021-03-06T13:54:44Z</time>
      </trkpt>
      <trkpt lat="43.67236" lon="3.81073">
        <ele>121</ele>
        <time>2021-03-06T13:54:45Z</time>
      </trkpt>
      <trkpt lat="43.67236" lon="3.81079">
        <ele>121</ele>
        <time>2021-03-06T13:54:46Z</time>
      </trkpt>
      <trkpt lat="43.67236" lon="3.81082">
        <ele>121</ele>
        <time>2021-03-06T13:54:47Z</time>
      </trkpt>
      <trkpt lat="43.67236" lon="3.81084">
        <ele>121</ele>
        <time>2021-03-06T13:54:48Z</time>
      </trkpt>
      <trkpt lat="43.67238" lon="3.81089">
        <ele>121</ele>
        <time>2021-03-06T13:54:49Z</time>
      </trkpt>
      <trkpt lat="43.6724" lon="3.81092">
        <ele>121</ele>
        <time>2021-03-06T13:54:50Z</time>
      </trkpt>
      <trkpt lat="43.67243" lon="3.81095">
        <ele>120</ele>
        <time>2021-03-06T13:54:51Z</time>
      </trkpt>
      <trkpt lat="43.67247" lon="3.811">
        <ele>120</ele>
        <time>2021-03-06T13:54:53Z</time>
      </trkpt>
      <trkpt lat="43.67249" lon="3.81105">
        <ele>120</ele>
        <time>2021-03-06T13:54:54Z</time>
      </trkpt>
      <trkpt lat="43.6725" lon="3.81107">
        <ele>120</ele>
        <time>2021-03-06T13:54:55Z</time>
      </trkpt>
      <trkpt lat="43.67252" lon="3.81107">
        <ele>120</ele>
        <time>2021-03-06T13:54:56Z</time>
      </trkpt>
      <trkpt lat="43.67256" lon="3.81106">
        <ele>120</ele>
        <time>2021-03-06T13:54:57Z</time>
      </trkpt>
      <trkpt lat="43.67259" lon="3.81104">
        <ele>120</ele>
        <time>2021-03-06T13:54:59Z</time>
      </trkpt>
      <trkpt lat="43.67262" lon="3.81103">
        <ele>120</ele>
        <time>2021-03-06T13:55:00Z</time>
      </trkpt>
      <trkpt lat="43.67266" lon="3.81102">
        <ele>120</ele>
        <time>2021-03-06T13:55:01Z</time>
      </trkpt>
      <trkpt lat="43.67273" lon="3.81097">
        <ele>118</ele>
        <time>2021-03-06T13:55:02Z</time>
      </trkpt>
      <trkpt lat="43.67276" lon="3.81094">
        <ele>118</ele>
        <time>2021-03-06T13:55:03Z</time>
      </trkpt>
      <trkpt lat="43.67279" lon="3.81091">
        <ele>118</ele>
        <time>2021-03-06T13:55:04Z</time>
      </trkpt>
      <trkpt lat="43.67281" lon="3.81087">
        <ele>118</ele>
        <time>2021-03-06T13:55:06Z</time>
      </trkpt>
      <trkpt lat="43.67284" lon="3.81084">
        <ele>118</ele>
        <time>2021-03-06T13:55:07Z</time>
      </trkpt>
      <trkpt lat="43.67285" lon="3.8108">
        <ele>118</ele>
        <time>2021-03-06T13:55:08Z</time>
      </trkpt>
      <trkpt lat="43.67286" lon="3.81076">
        <ele>118</ele>
        <time>2021-03-06T13:55:09Z</time>
      </trkpt>
      <trkpt lat="43.67288" lon="3.81072">
        <ele>118</ele>
        <time>2021-03-06T13:55:10Z</time>
      </trkpt>
      <trkpt lat="43.67289" lon="3.81068">
        <ele>117</ele>
        <time>2021-03-06T13:55:11Z</time>
      </trkpt>
      <trkpt lat="43.67291" lon="3.81063">
        <ele>117</ele>
        <time>2021-03-06T13:55:12Z</time>
      </trkpt>
      <trkpt lat="43.67292" lon="3.8106">
        <ele>117</ele>
        <time>2021-03-06T13:55:13Z</time>
      </trkpt>
      <trkpt lat="43.67295" lon="3.81057">
        <ele>117</ele>
        <time>2021-03-06T13:55:14Z</time>
      </trkpt>
      <trkpt lat="43.67298" lon="3.81058">
        <ele>117</ele>
        <time>2021-03-06T13:55:15Z</time>
      </trkpt>
      <trkpt lat="43.67301" lon="3.81059">
        <ele>117</ele>
        <time>2021-03-06T13:55:16Z</time>
      </trkpt>
      <trkpt lat="43.67304" lon="3.81059">
        <ele>117</ele>
        <time>2021-03-06T13:55:17Z</time>
      </trkpt>
      <trkpt lat="43.67307" lon="3.81059">
        <ele>117</ele>
        <time>2021-03-06T13:55:18Z</time>
      </trkpt>
      <trkpt lat="43.67314" lon="3.8106">
        <ele>117</ele>
        <time>2021-03-06T13:55:19Z</time>
      </trkpt>
      <trkpt lat="43.67318" lon="3.81059">
        <ele>117</ele>
        <time>2021-03-06T13:55:20Z</time>
      </trkpt>
      <trkpt lat="43.67321" lon="3.81058">
        <ele>116</ele>
        <time>2021-03-06T13:55:21Z</time>
      </trkpt>
      <trkpt lat="43.67324" lon="3.81056">
        <ele>116</ele>
        <time>2021-03-06T13:55:23Z</time>
      </trkpt>
      <trkpt lat="43.67327" lon="3.81054">
        <ele>116</ele>
        <time>2021-03-06T13:55:24Z</time>
      </trkpt>
      <trkpt lat="43.67331" lon="3.81054">
        <ele>116</ele>
        <time>2021-03-06T13:55:25Z</time>
      </trkpt>
      <trkpt lat="43.67334" lon="3.81055">
        <ele>116</ele>
        <time>2021-03-06T13:55:26Z</time>
      </trkpt>
      <trkpt lat="43.67338" lon="3.81057">
        <ele>116</ele>
        <time>2021-03-06T13:55:27Z</time>
      </trkpt>
      <trkpt lat="43.6734" lon="3.81061">
        <ele>116</ele>
        <time>2021-03-06T13:55:28Z</time>
      </trkpt>
      <trkpt lat="43.67341" lon="3.81066">
        <ele>116</ele>
        <time>2021-03-06T13:55:29Z</time>
      </trkpt>
      <trkpt lat="43.67342" lon="3.8107">
        <ele>116</ele>
        <time>2021-03-06T13:55:30Z</time>
      </trkpt>
      <trkpt lat="43.67345" lon="3.81075">
        <ele>115</ele>
        <time>2021-03-06T13:55:31Z</time>
      </trkpt>
      <trkpt lat="43.67352" lon="3.81083">
        <ele>115</ele>
        <time>2021-03-06T13:55:32Z</time>
      </trkpt>
      <trkpt lat="43.67356" lon="3.81087">
        <ele>115</ele>
        <time>2021-03-06T13:55:33Z</time>
      </trkpt>
      <trkpt lat="43.67359" lon="3.81091">
        <ele>115</ele>
        <time>2021-03-06T13:55:34Z</time>
      </trkpt>
      <trkpt lat="43.67362" lon="3.81096">
        <ele>115</ele>
        <time>2021-03-06T13:55:35Z</time>
      </trkpt>
      <trkpt lat="43.67365" lon="3.81101">
        <ele>115</ele>
        <time>2021-03-06T13:55:37Z</time>
      </trkpt>
      <trkpt lat="43.67366" lon="3.81106">
        <ele>115</ele>
        <time>2021-03-06T13:55:38Z</time>
      </trkpt>
      <trkpt lat="43.67368" lon="3.81111">
        <ele>115</ele>
        <time>2021-03-06T13:55:39Z</time>
      </trkpt>
      <trkpt lat="43.6737" lon="3.81115">
        <ele>115</ele>
        <time>2021-03-06T13:55:40Z</time>
      </trkpt>
      <trkpt lat="43.67372" lon="3.8112">
        <ele>114</ele>
        <time>2021-03-06T13:55:41Z</time>
      </trkpt>
      <trkpt lat="43.67375" lon="3.81124">
        <ele>114</ele>
        <time>2021-03-06T13:55:42Z</time>
      </trkpt>
      <trkpt lat="43.67378" lon="3.81129">
        <ele>114</ele>
        <time>2021-03-06T13:55:43Z</time>
      </trkpt>
      <trkpt lat="43.67385" lon="3.81138">
        <ele>114</ele>
        <time>2021-03-06T13:55:44Z</time>
      </trkpt>
      <trkpt lat="43.67386" lon="3.81142">
        <ele>114</ele>
        <time>2021-03-06T13:55:46Z</time>
      </trkpt>
      <trkpt lat="43.67385" lon="3.81146">
        <ele>114</ele>
        <time>2021-03-06T13:55:47Z</time>
      </trkpt>
      <trkpt lat="43.67385" lon="3.8115">
        <ele>114</ele>
        <time>2021-03-06T13:55:48Z</time>
      </trkpt>
      <trkpt lat="43.67386" lon="3.81153">
        <ele>114</ele>
        <time>2021-03-06T13:55:49Z</time>
      </trkpt>
      <trkpt lat="43.67387" lon="3.8116">
        <ele>114</ele>
        <time>2021-03-06T13:55:50Z</time>
      </trkpt>
      <trkpt lat="43.67387" lon="3.81163">
        <ele>110</ele>
        <time>2021-03-06T13:55:51Z</time>
      </trkpt>
      <trkpt lat="43.67387" lon="3.81167">
        <ele>110</ele>
        <time>2021-03-06T13:55:52Z</time>
      </trkpt>
      <trkpt lat="43.67387" lon="3.81171">
        <ele>110</ele>
        <time>2021-03-06T13:55:53Z</time>
      </trkpt>
      <trkpt lat="43.67384" lon="3.81179">
        <ele>110</ele>
        <time>2021-03-06T13:55:55Z</time>
      </trkpt>
      <trkpt lat="43.67382" lon="3.81181">
        <ele>110</ele>
        <time>2021-03-06T13:55:56Z</time>
      </trkpt>
      <trkpt lat="43.6738" lon="3.81182">
        <ele>110</ele>
        <time>2021-03-06T13:55:57Z</time>
      </trkpt>
      <trkpt lat="43.67378" lon="3.81184">
        <ele>110</ele>
        <time>2021-03-06T13:56:00Z</time>
      </trkpt>
      <trkpt lat="43.67376" lon="3.81182">
        <ele>110</ele>
        <time>2021-03-06T13:56:02Z</time>
      </trkpt>
      <trkpt lat="43.67378" lon="3.8118">
        <ele>110</ele>
        <time>2021-03-06T13:56:03Z</time>
      </trkpt>
      <trkpt lat="43.6738" lon="3.8118">
        <ele>110</ele>
        <time>2021-03-06T13:56:05Z</time>
      </trkpt>
      <trkpt lat="43.67382" lon="3.8118">
        <ele>110</ele>
        <time>2021-03-06T13:56:07Z</time>
      </trkpt>
      <trkpt lat="43.67385" lon="3.81179">
        <ele>110</ele>
        <time>2021-03-06T13:56:10Z</time>
      </trkpt>
      <trkpt lat="43.67386" lon="3.81178">
        <ele>106</ele>
        <time>2021-03-06T13:56:16Z</time>
      </trkpt>
      <trkpt lat="43.67389" lon="3.81177">
        <ele>105</ele>
        <time>2021-03-06T13:56:29Z</time>
      </trkpt>
      <trkpt lat="43.67389" lon="3.81177">
        <ele>104</ele>
        <time>2021-03-06T13:56:34Z</time>
      </trkpt>
      <trkpt lat="43.67396" lon="3.8117">
        <ele>101</ele>
        <time>2021-03-06T13:58:15Z</time>
      </trkpt>
      <trkpt lat="43.67399" lon="3.8117">
        <ele>101</ele>
        <time>2021-03-06T13:58:18Z</time>
      </trkpt>
      <trkpt lat="43.67401" lon="3.8117">
        <ele>101</ele>
        <time>2021-03-06T13:58:22Z</time>
      </trkpt>
      <trkpt lat="43.67403" lon="3.81168">
        <ele>101</ele>
        <time>2021-03-06T13:58:25Z</time>
      </trkpt>
      <trkpt lat="43.67406" lon="3.81167">
        <ele>101</ele>
        <time>2021-03-06T13:58:28Z</time>
      </trkpt>
      <trkpt lat="43.67408" lon="3.81167">
        <ele>101</ele>
        <time>2021-03-06T13:58:30Z</time>
      </trkpt>
      <trkpt lat="43.6741" lon="3.81167">
        <ele>101</ele>
        <time>2021-03-06T13:58:32Z</time>
      </trkpt>
      <trkpt lat="43.67413" lon="3.81166">
        <ele>101</ele>
        <time>2021-03-06T13:58:34Z</time>
      </trkpt>
      <trkpt lat="43.67422" lon="3.81168">
        <ele>100</ele>
        <time>2021-03-06T13:58:35Z</time>
      </trkpt>
      <trkpt lat="43.67427" lon="3.81168">
        <ele>100</ele>
        <time>2021-03-06T13:58:36Z</time>
      </trkpt>
      <trkpt lat="43.67431" lon="3.81168">
        <ele>100</ele>
        <time>2021-03-06T13:58:37Z</time>
      </trkpt>
      <trkpt lat="43.67436" lon="3.81167">
        <ele>100</ele>
        <time>2021-03-06T13:58:38Z</time>
      </trkpt>
      <trkpt lat="43.6744" lon="3.81167">
        <ele>100</ele>
        <time>2021-03-06T13:58:39Z</time>
      </trkpt>
      <trkpt lat="43.67445" lon="3.81166">
        <ele>100</ele>
        <time>2021-03-06T13:58:40Z</time>
      </trkpt>
      <trkpt lat="43.67449" lon="3.81166">
        <ele>100</ele>
        <time>2021-03-06T13:58:41Z</time>
      </trkpt>
      <trkpt lat="43.67452" lon="3.81166">
        <ele>100</ele>
        <time>2021-03-06T13:58:42Z</time>
      </trkpt>
      <trkpt lat="43.67455" lon="3.81165">
        <ele>100</ele>
        <time>2021-03-06T13:58:43Z</time>
      </trkpt>
      <trkpt lat="43.67459" lon="3.81163">
        <ele>100</ele>
        <time>2021-03-06T13:58:44Z</time>
      </trkpt>
      <trkpt lat="43.67465" lon="3.81157">
        <ele>100</ele>
        <time>2021-03-06T13:58:46Z</time>
      </trkpt>
      <trkpt lat="43.67468" lon="3.81153">
        <ele>100</ele>
        <time>2021-03-06T13:58:47Z</time>
      </trkpt>
      <trkpt lat="43.6747" lon="3.81148">
        <ele>100</ele>
        <time>2021-03-06T13:58:48Z</time>
      </trkpt>
      <trkpt lat="43.67473" lon="3.81142">
        <ele>100</ele>
        <time>2021-03-06T13:58:49Z</time>
      </trkpt>
      <trkpt lat="43.67475" lon="3.81137">
        <ele>100</ele>
        <time>2021-03-06T13:58:51Z</time>
      </trkpt>
      <trkpt lat="43.67478" lon="3.81131">
        <ele>100</ele>
        <time>2021-03-06T13:58:52Z</time>
      </trkpt>
      <trkpt lat="43.6748" lon="3.81126">
        <ele>100</ele>
        <time>2021-03-06T13:58:53Z</time>
      </trkpt>
      <trkpt lat="43.67482" lon="3.8112">
        <ele>100</ele>
        <time>2021-03-06T13:58:54Z</time>
      </trkpt>
      <trkpt lat="43.67485" lon="3.81114">
        <ele>98</ele>
        <time>2021-03-06T13:58:55Z</time>
      </trkpt>
      <trkpt lat="43.67488" lon="3.81108">
        <ele>98</ele>
        <time>2021-03-06T13:58:56Z</time>
      </trkpt>
      <trkpt lat="43.6749" lon="3.81103">
        <ele>98</ele>
        <time>2021-03-06T13:58:57Z</time>
      </trkpt>
      <trkpt lat="43.67494" lon="3.81098">
        <ele>98</ele>
        <time>2021-03-06T13:58:58Z</time>
      </trkpt>
      <trkpt lat="43.67497" lon="3.81094">
        <ele>98</ele>
        <time>2021-03-06T13:58:59Z</time>
      </trkpt>
      <trkpt lat="43.675" lon="3.8109">
        <ele>98</ele>
        <time>2021-03-06T13:59:00Z</time>
      </trkpt>
      <trkpt lat="43.67504" lon="3.81086">
        <ele>98</ele>
        <time>2021-03-06T13:59:01Z</time>
      </trkpt>
      <trkpt lat="43.67507" lon="3.81083">
        <ele>98</ele>
        <time>2021-03-06T13:59:02Z</time>
      </trkpt>
      <trkpt lat="43.67511" lon="3.8108">
        <ele>98</ele>
        <time>2021-03-06T13:59:03Z</time>
      </trkpt>
      <trkpt lat="43.67514" lon="3.81077">
        <ele>98</ele>
        <time>2021-03-06T13:59:04Z</time>
      </trkpt>
      <trkpt lat="43.67516" lon="3.81074">
        <ele>98</ele>
        <time>2021-03-06T13:59:05Z</time>
      </trkpt>
      <trkpt lat="43.6752" lon="3.81072">
        <ele>98</ele>
        <time>2021-03-06T13:59:06Z</time>
      </trkpt>
      <trkpt lat="43.67523" lon="3.81069">
        <ele>98</ele>
        <time>2021-03-06T13:59:07Z</time>
      </trkpt>
      <trkpt lat="43.67526" lon="3.81067">
        <ele>98</ele>
        <time>2021-03-06T13:59:08Z</time>
      </trkpt>
      <trkpt lat="43.67529" lon="3.81065">
        <ele>98</ele>
        <time>2021-03-06T13:59:09Z</time>
      </trkpt>
      <trkpt lat="43.67531" lon="3.81063">
        <ele>98</ele>
        <time>2021-03-06T13:59:10Z</time>
      </trkpt>
      <trkpt lat="43.67534" lon="3.81061">
        <ele>98</ele>
        <time>2021-03-06T13:59:11Z</time>
      </trkpt>
      <trkpt lat="43.67539" lon="3.81056">
        <ele>98</ele>
        <time>2021-03-06T13:59:12Z</time>
      </trkpt>
      <trkpt lat="43.67541" lon="3.81053">
        <ele>98</ele>
        <time>2021-03-06T13:59:14Z</time>
      </trkpt>
      <trkpt lat="43.67544" lon="3.81051">
        <ele>98</ele>
        <time>2021-03-06T13:59:15Z</time>
      </trkpt>
      <trkpt lat="43.67546" lon="3.81048">
        <ele>98</ele>
        <time>2021-03-06T13:59:16Z</time>
      </trkpt>
      <trkpt lat="43.6755" lon="3.81041">
        <ele>98</ele>
        <time>2021-03-06T13:59:17Z</time>
      </trkpt>
      <trkpt lat="43.67552" lon="3.81038">
        <ele>98</ele>
        <time>2021-03-06T13:59:18Z</time>
      </trkpt>
      <trkpt lat="43.67553" lon="3.81034">
        <ele>98</ele>
        <time>2021-03-06T13:59:19Z</time>
      </trkpt>
      <trkpt lat="43.67554" lon="3.81031">
        <ele>98</ele>
        <time>2021-03-06T13:59:20Z</time>
      </trkpt>
      <trkpt lat="43.67555" lon="3.81027">
        <ele>98</ele>
        <time>2021-03-06T13:59:22Z</time>
      </trkpt>
      <trkpt lat="43.67556" lon="3.81024">
        <ele>98</ele>
        <time>2021-03-06T13:59:23Z</time>
      </trkpt>
      <trkpt lat="43.67556" lon="3.81022">
        <ele>98</ele>
        <time>2021-03-06T13:59:24Z</time>
      </trkpt>
      <trkpt lat="43.67557" lon="3.81017">
        <ele>98</ele>
        <time>2021-03-06T13:59:26Z</time>
      </trkpt>
      <trkpt lat="43.67557" lon="3.81014">
        <ele>98</ele>
        <time>2021-03-06T13:59:28Z</time>
      </trkpt>
      <trkpt lat="43.67559" lon="3.81006">
        <ele>98</ele>
        <time>2021-03-06T13:59:30Z</time>
      </trkpt>
      <trkpt lat="43.67561" lon="3.81004">
        <ele>98</ele>
        <time>2021-03-06T13:59:31Z</time>
      </trkpt>
      <trkpt lat="43.67562" lon="3.81003">
        <ele>98</ele>
        <time>2021-03-06T13:59:32Z</time>
      </trkpt>
      <trkpt lat="43.67566" lon="3.81001">
        <ele>97</ele>
        <time>2021-03-06T13:59:35Z</time>
      </trkpt>
      <trkpt lat="43.67568" lon="3.80999">
        <ele>97</ele>
        <time>2021-03-06T13:59:37Z</time>
      </trkpt>
      <trkpt lat="43.67571" lon="3.80997">
        <ele>97</ele>
        <time>2021-03-06T13:59:39Z</time>
      </trkpt>
      <trkpt lat="43.67574" lon="3.80995">
        <ele>97</ele>
        <time>2021-03-06T13:59:41Z</time>
      </trkpt>
      <trkpt lat="43.67576" lon="3.80995">
        <ele>97</ele>
        <time>2021-03-06T13:59:43Z</time>
      </trkpt>
      <trkpt lat="43.67578" lon="3.80992">
        <ele>98</ele>
        <time>2021-03-06T13:59:45Z</time>
      </trkpt>
      <trkpt lat="43.67579" lon="3.80989">
        <ele>98</ele>
        <time>2021-03-06T13:59:47Z</time>
      </trkpt>
      <trkpt lat="43.67582" lon="3.80988">
        <ele>98</ele>
        <time>2021-03-06T13:59:48Z</time>
      </trkpt>
      <trkpt lat="43.6758" lon="3.80992">
        <ele>98</ele>
        <time>2021-03-06T13:59:50Z</time>
      </trkpt>
      <trkpt lat="43.67577" lon="3.80995">
        <ele>98</ele>
        <time>2021-03-06T13:59:51Z</time>
      </trkpt>
      <trkpt lat="43.67574" lon="3.80998">
        <ele>98</ele>
        <time>2021-03-06T13:59:52Z</time>
      </trkpt>
      <trkpt lat="43.6757" lon="3.81002">
        <ele>98</ele>
        <time>2021-03-06T13:59:53Z</time>
      </trkpt>
      <trkpt lat="43.67565" lon="3.81003">
        <ele>98</ele>
        <time>2021-03-06T13:59:54Z</time>
      </trkpt>
      <trkpt lat="43.67562" lon="3.81">
        <ele>98</ele>
        <time>2021-03-06T13:59:55Z</time>
      </trkpt>
      <trkpt lat="43.67561" lon="3.80995">
        <ele>98</ele>
        <time>2021-03-06T13:59:56Z</time>
      </trkpt>
      <trkpt lat="43.67561" lon="3.80988">
        <ele>98</ele>
        <time>2021-03-06T13:59:57Z</time>
      </trkpt>
      <trkpt lat="43.67566" lon="3.80976">
        <ele>98</ele>
        <time>2021-03-06T13:59:59Z</time>
      </trkpt>
      <trkpt lat="43.67568" lon="3.80969">
        <ele>98</ele>
        <time>2021-03-06T14:00:00Z</time>
      </trkpt>
      <trkpt lat="43.67574" lon="3.80956">
        <ele>98</ele>
        <time>2021-03-06T14:00:02Z</time>
      </trkpt>
      <trkpt lat="43.67576" lon="3.80949">
        <ele>98</ele>
        <time>2021-03-06T14:00:03Z</time>
      </trkpt>
      <trkpt lat="43.67578" lon="3.80942">
        <ele>98</ele>
        <time>2021-03-06T14:00:04Z</time>
      </trkpt>
      <trkpt lat="43.6758" lon="3.80936">
        <ele>98</ele>
        <time>2021-03-06T14:00:06Z</time>
      </trkpt>
      <trkpt lat="43.67582" lon="3.80929">
        <ele>98</ele>
        <time>2021-03-06T14:00:07Z</time>
      </trkpt>
      <trkpt lat="43.67584" lon="3.80921">
        <ele>98</ele>
        <time>2021-03-06T14:00:08Z</time>
      </trkpt>
      <trkpt lat="43.67586" lon="3.80914">
        <ele>98</ele>
        <time>2021-03-06T14:00:09Z</time>
      </trkpt>
      <trkpt lat="43.67588" lon="3.80906">
        <ele>98</ele>
        <time>2021-03-06T14:00:10Z</time>
      </trkpt>
      <trkpt lat="43.6759" lon="3.80898">
        <ele>98</ele>
        <time>2021-03-06T14:00:11Z</time>
      </trkpt>
      <trkpt lat="43.67592" lon="3.80889">
        <ele>98</ele>
        <time>2021-03-06T14:00:12Z</time>
      </trkpt>
      <trkpt lat="43.67595" lon="3.80881">
        <ele>98</ele>
        <time>2021-03-06T14:00:13Z</time>
      </trkpt>
      <trkpt lat="43.67597" lon="3.80872">
        <ele>98</ele>
        <time>2021-03-06T14:00:14Z</time>
      </trkpt>
      <trkpt lat="43.67599" lon="3.80863">
        <ele>94</ele>
        <time>2021-03-06T14:00:15Z</time>
      </trkpt>
      <trkpt lat="43.67601" lon="3.80855">
        <ele>94</ele>
        <time>2021-03-06T14:00:16Z</time>
      </trkpt>
      <trkpt lat="43.67603" lon="3.80846">
        <ele>94</ele>
        <time>2021-03-06T14:00:17Z</time>
      </trkpt>
      <trkpt lat="43.67605" lon="3.80837">
        <ele>94</ele>
        <time>2021-03-06T14:00:18Z</time>
      </trkpt>
      <trkpt lat="43.67606" lon="3.80829">
        <ele>94</ele>
        <time>2021-03-06T14:00:19Z</time>
      </trkpt>
      <trkpt lat="43.67607" lon="3.80821">
        <ele>94</ele>
        <time>2021-03-06T14:00:20Z</time>
      </trkpt>
      <trkpt lat="43.67609" lon="3.80813">
        <ele>94</ele>
        <time>2021-03-06T14:00:21Z</time>
      </trkpt>
      <trkpt lat="43.67613" lon="3.80797">
        <ele>94</ele>
        <time>2021-03-06T14:00:22Z</time>
      </trkpt>
      <trkpt lat="43.67615" lon="3.80789">
        <ele>94</ele>
        <time>2021-03-06T14:00:24Z</time>
      </trkpt>
      <trkpt lat="43.67617" lon="3.80781">
        <ele>93</ele>
        <time>2021-03-06T14:00:25Z</time>
      </trkpt>
      <trkpt lat="43.67618" lon="3.80775">
        <ele>93</ele>
        <time>2021-03-06T14:00:26Z</time>
      </trkpt>
      <trkpt lat="43.67618" lon="3.80773">
        <ele>93</ele>
        <time>2021-03-06T14:00:27Z</time>
      </trkpt>
      <trkpt lat="43.67619" lon="3.80769">
        <ele>93</ele>
        <time>2021-03-06T14:00:29Z</time>
      </trkpt>
      <trkpt lat="43.67618" lon="3.80765">
        <ele>93</ele>
        <time>2021-03-06T14:00:31Z</time>
      </trkpt>
      <trkpt lat="43.67615" lon="3.80762">
        <ele>93</ele>
        <time>2021-03-06T14:00:33Z</time>
      </trkpt>
      <trkpt lat="43.67613" lon="3.8076">
        <ele>93</ele>
        <time>2021-03-06T14:00:34Z</time>
      </trkpt>
      <trkpt lat="43.67608" lon="3.80757">
        <ele>92</ele>
        <time>2021-03-06T14:00:35Z</time>
      </trkpt>
      <trkpt lat="43.67606" lon="3.80755">
        <ele>92</ele>
        <time>2021-03-06T14:00:36Z</time>
      </trkpt>
      <trkpt lat="43.67607" lon="3.80751">
        <ele>92</ele>
        <time>2021-03-06T14:00:38Z</time>
      </trkpt>
      <trkpt lat="43.67608" lon="3.8075">
        <ele>92</ele>
        <time>2021-03-06T14:00:40Z</time>
      </trkpt>
      <trkpt lat="43.6761" lon="3.80748">
        <ele>92</ele>
        <time>2021-03-06T14:00:42Z</time>
      </trkpt>
      <trkpt lat="43.67611" lon="3.80746">
        <ele>92</ele>
        <time>2021-03-06T14:00:44Z</time>
      </trkpt>
      <trkpt lat="43.67613" lon="3.80744">
        <ele>92</ele>
        <time>2021-03-06T14:00:47Z</time>
      </trkpt>
      <trkpt lat="43.67616" lon="3.80741">
        <ele>92</ele>
        <time>2021-03-06T14:00:49Z</time>
      </trkpt>
      <trkpt lat="43.67617" lon="3.80738">
        <ele>92</ele>
        <time>2021-03-06T14:00:50Z</time>
      </trkpt>
      <trkpt lat="43.67618" lon="3.80736">
        <ele>92</ele>
        <time>2021-03-06T14:00:51Z</time>
      </trkpt>
      <trkpt lat="43.67619" lon="3.80734">
        <ele>92</ele>
        <time>2021-03-06T14:00:52Z</time>
      </trkpt>
      <trkpt lat="43.67621" lon="3.80732">
        <ele>92</ele>
        <time>2021-03-06T14:00:53Z</time>
      </trkpt>
      <trkpt lat="43.67623" lon="3.80728">
        <ele>90</ele>
        <time>2021-03-06T14:00:55Z</time>
      </trkpt>
      <trkpt lat="43.67625" lon="3.80726">
        <ele>90</ele>
        <time>2021-03-06T14:00:57Z</time>
      </trkpt>
      <trkpt lat="43.67627" lon="3.80723">
        <ele>90</ele>
        <time>2021-03-06T14:00:59Z</time>
      </trkpt>
      <trkpt lat="43.67629" lon="3.80721">
        <ele>90</ele>
        <time>2021-03-06T14:01:00Z</time>
      </trkpt>
      <trkpt lat="43.6763" lon="3.80719">
        <ele>90</ele>
        <time>2021-03-06T14:01:01Z</time>
      </trkpt>
      <trkpt lat="43.67632" lon="3.80717">
        <ele>90</ele>
        <time>2021-03-06T14:01:02Z</time>
      </trkpt>
      <trkpt lat="43.67633" lon="3.80714">
        <ele>90</ele>
        <time>2021-03-06T14:01:03Z</time>
      </trkpt>
      <trkpt lat="43.67635" lon="3.80712">
        <ele>90</ele>
        <time>2021-03-06T14:01:04Z</time>
      </trkpt>
      <trkpt lat="43.67638" lon="3.80707">
        <ele>89</ele>
        <time>2021-03-06T14:01:05Z</time>
      </trkpt>
      <trkpt lat="43.6764" lon="3.80704">
        <ele>89</ele>
        <time>2021-03-06T14:01:06Z</time>
      </trkpt>
      <trkpt lat="43.67641" lon="3.80702">
        <ele>89</ele>
        <time>2021-03-06T14:01:07Z</time>
      </trkpt>
      <trkpt lat="43.67643" lon="3.80699">
        <ele>89</ele>
        <time>2021-03-06T14:01:08Z</time>
      </trkpt>
      <trkpt lat="43.67644" lon="3.80697">
        <ele>89</ele>
        <time>2021-03-06T14:01:09Z</time>
      </trkpt>
      <trkpt lat="43.67646" lon="3.80695">
        <ele>89</ele>
        <time>2021-03-06T14:01:10Z</time>
      </trkpt>
      <trkpt lat="43.67647" lon="3.80693">
        <ele>89</ele>
        <time>2021-03-06T14:01:11Z</time>
      </trkpt>
      <trkpt lat="43.67649" lon="3.8069">
        <ele>89</ele>
        <time>2021-03-06T14:01:12Z</time>
      </trkpt>
      <trkpt lat="43.67651" lon="3.80687">
        <ele>89</ele>
        <time>2021-03-06T14:01:13Z</time>
      </trkpt>
      <trkpt lat="43.67653" lon="3.80685">
        <ele>89</ele>
        <time>2021-03-06T14:01:14Z</time>
      </trkpt>
      <trkpt lat="43.67655" lon="3.80682">
        <ele>89</ele>
        <time>2021-03-06T14:01:16Z</time>
      </trkpt>
      <trkpt lat="43.67658" lon="3.80679">
        <ele>89</ele>
        <time>2021-03-06T14:01:17Z</time>
      </trkpt>
      <trkpt lat="43.6766" lon="3.80677">
        <ele>89</ele>
        <time>2021-03-06T14:01:18Z</time>
      </trkpt>
      <trkpt lat="43.67661" lon="3.80674">
        <ele>89</ele>
        <time>2021-03-06T14:01:19Z</time>
      </trkpt>
      <trkpt lat="43.67663" lon="3.80671">
        <ele>89</ele>
        <time>2021-03-06T14:01:20Z</time>
      </trkpt>
      <trkpt lat="43.67666" lon="3.80669">
        <ele>89</ele>
        <time>2021-03-06T14:01:21Z</time>
      </trkpt>
      <trkpt lat="43.67668" lon="3.80666">
        <ele>89</ele>
        <time>2021-03-06T14:01:22Z</time>
      </trkpt>
      <trkpt lat="43.6767" lon="3.80663">
        <ele>89</ele>
        <time>2021-03-06T14:01:23Z</time>
      </trkpt>
      <trkpt lat="43.67672" lon="3.80661">
        <ele>89</ele>
        <time>2021-03-06T14:01:24Z</time>
      </trkpt>
      <trkpt lat="43.67674" lon="3.80658">
        <ele>89</ele>
        <time>2021-03-06T14:01:25Z</time>
      </trkpt>
      <trkpt lat="43.67675" lon="3.80655">
        <ele>89</ele>
        <time>2021-03-06T14:01:26Z</time>
      </trkpt>
      <trkpt lat="43.67675" lon="3.80653">
        <ele>89</ele>
        <time>2021-03-06T14:01:27Z</time>
      </trkpt>
      <trkpt lat="43.67676" lon="3.8065">
        <ele>89</ele>
        <time>2021-03-06T14:01:28Z</time>
      </trkpt>
      <trkpt lat="43.67676" lon="3.80647">
        <ele>89</ele>
        <time>2021-03-06T14:01:29Z</time>
      </trkpt>
      <trkpt lat="43.67675" lon="3.80644">
        <ele>89</ele>
        <time>2021-03-06T14:01:30Z</time>
      </trkpt>
      <trkpt lat="43.67673" lon="3.80642">
        <ele>89</ele>
        <time>2021-03-06T14:01:32Z</time>
      </trkpt>
      <trkpt lat="43.6767" lon="3.80639">
        <ele>89</ele>
        <time>2021-03-06T14:01:34Z</time>
      </trkpt>
      <trkpt lat="43.67668" lon="3.80638">
        <ele>89</ele>
        <time>2021-03-06T14:01:36Z</time>
      </trkpt>
      <trkpt lat="43.67666" lon="3.80635">
        <ele>89</ele>
        <time>2021-03-06T14:01:38Z</time>
      </trkpt>
      <trkpt lat="43.67668" lon="3.80631">
        <ele>89</ele>
        <time>2021-03-06T14:01:40Z</time>
      </trkpt>
      <trkpt lat="43.67669" lon="3.80627">
        <ele>89</ele>
        <time>2021-03-06T14:01:42Z</time>
      </trkpt>
      <trkpt lat="43.6767" lon="3.80624">
        <ele>89</ele>
        <time>2021-03-06T14:01:44Z</time>
      </trkpt>
      <trkpt lat="43.67671" lon="3.8062">
        <ele>90</ele>
        <time>2021-03-06T14:01:45Z</time>
      </trkpt>
      <trkpt lat="43.67669" lon="3.80617">
        <ele>90</ele>
        <time>2021-03-06T14:01:47Z</time>
      </trkpt>
      <trkpt lat="43.67667" lon="3.80615">
        <ele>90</ele>
        <time>2021-03-06T14:01:49Z</time>
      </trkpt>
      <trkpt lat="43.67665" lon="3.80611">
        <ele>90</ele>
        <time>2021-03-06T14:01:51Z</time>
      </trkpt>
      <trkpt lat="43.67663" lon="3.80608">
        <ele>90</ele>
        <time>2021-03-06T14:01:53Z</time>
      </trkpt>
      <trkpt lat="43.6766" lon="3.80606">
        <ele>90</ele>
        <time>2021-03-06T14:01:56Z</time>
      </trkpt>
      <trkpt lat="43.67658" lon="3.80601">
        <ele>90</ele>
        <time>2021-03-06T14:01:57Z</time>
      </trkpt>
      <trkpt lat="43.67656" lon="3.80599">
        <ele>90</ele>
        <time>2021-03-06T14:01:58Z</time>
      </trkpt>
      <trkpt lat="43.67654" lon="3.80596">
        <ele>90</ele>
        <time>2021-03-06T14:02:01Z</time>
      </trkpt>
      <trkpt lat="43.67652" lon="3.80593">
        <ele>90</ele>
        <time>2021-03-06T14:02:02Z</time>
      </trkpt>
      <trkpt lat="43.67648" lon="3.80591">
        <ele>93</ele>
        <time>2021-03-06T14:02:16Z</time>
      </trkpt>
      <trkpt lat="43.67647" lon="3.80586">
        <ele>93</ele>
        <time>2021-03-06T14:02:18Z</time>
      </trkpt>
      <trkpt lat="43.67646" lon="3.80583">
        <ele>93</ele>
        <time>2021-03-06T14:02:19Z</time>
      </trkpt>
      <trkpt lat="43.67645" lon="3.80579">
        <ele>93</ele>
        <time>2021-03-06T14:02:20Z</time>
      </trkpt>
      <trkpt lat="43.67643" lon="3.80576">
        <ele>93</ele>
        <time>2021-03-06T14:02:21Z</time>
      </trkpt>
      <trkpt lat="43.67641" lon="3.80573">
        <ele>93</ele>
        <time>2021-03-06T14:02:22Z</time>
      </trkpt>
      <trkpt lat="43.67639" lon="3.8057">
        <ele>93</ele>
        <time>2021-03-06T14:02:23Z</time>
      </trkpt>
      <trkpt lat="43.67637" lon="3.80566">
        <ele>93</ele>
        <time>2021-03-06T14:02:24Z</time>
      </trkpt>
      <trkpt lat="43.67636" lon="3.80563">
        <ele>93</ele>
        <time>2021-03-06T14:02:25Z</time>
      </trkpt>
      <trkpt lat="43.67634" lon="3.8056">
        <ele>93</ele>
        <time>2021-03-06T14:02:26Z</time>
      </trkpt>
      <trkpt lat="43.67632" lon="3.80556">
        <ele>93</ele>
        <time>2021-03-06T14:02:27Z</time>
      </trkpt>
      <trkpt lat="43.67631" lon="3.80553">
        <ele>93</ele>
        <time>2021-03-06T14:02:28Z</time>
      </trkpt>
      <trkpt lat="43.67629" lon="3.8055">
        <ele>93</ele>
        <time>2021-03-06T14:02:29Z</time>
      </trkpt>
      <trkpt lat="43.67628" lon="3.80547">
        <ele>93</ele>
        <time>2021-03-06T14:02:30Z</time>
      </trkpt>
      <trkpt lat="43.67627" lon="3.80544">
        <ele>93</ele>
        <time>2021-03-06T14:02:31Z</time>
      </trkpt>
      <trkpt lat="43.67626" lon="3.80541">
        <ele>93</ele>
        <time>2021-03-06T14:02:32Z</time>
      </trkpt>
      <trkpt lat="43.67625" lon="3.80539">
        <ele>93</ele>
        <time>2021-03-06T14:02:33Z</time>
      </trkpt>
      <trkpt lat="43.67624" lon="3.80536">
        <ele>93</ele>
        <time>2021-03-06T14:02:34Z</time>
      </trkpt>
      <trkpt lat="43.67623" lon="3.80533">
        <ele>93</ele>
        <time>2021-03-06T14:02:35Z</time>
      </trkpt>
      <trkpt lat="43.6762" lon="3.80528">
        <ele>94</ele>
        <time>2021-03-06T14:02:36Z</time>
      </trkpt>
      <trkpt lat="43.67619" lon="3.80525">
        <ele>94</ele>
        <time>2021-03-06T14:02:37Z</time>
      </trkpt>
      <trkpt lat="43.67618" lon="3.80522">
        <ele>94</ele>
        <time>2021-03-06T14:02:38Z</time>
      </trkpt>
      <trkpt lat="43.67616" lon="3.8052">
        <ele>94</ele>
        <time>2021-03-06T14:02:39Z</time>
      </trkpt>
      <trkpt lat="43.67614" lon="3.80517">
        <ele>94</ele>
        <time>2021-03-06T14:02:40Z</time>
      </trkpt>
      <trkpt lat="43.67613" lon="3.80515">
        <ele>94</ele>
        <time>2021-03-06T14:02:41Z</time>
      </trkpt>
      <trkpt lat="43.67612" lon="3.80513">
        <ele>94</ele>
        <time>2021-03-06T14:02:42Z</time>
      </trkpt>
      <trkpt lat="43.6761" lon="3.8051">
        <ele>94</ele>
        <time>2021-03-06T14:02:43Z</time>
      </trkpt>
      <trkpt lat="43.67609" lon="3.80508">
        <ele>94</ele>
        <time>2021-03-06T14:02:44Z</time>
      </trkpt>
      <trkpt lat="43.67608" lon="3.80506">
        <ele>94</ele>
        <time>2021-03-06T14:02:45Z</time>
      </trkpt>
      <trkpt lat="43.67607" lon="3.80504">
        <ele>94</ele>
        <time>2021-03-06T14:02:47Z</time>
      </trkpt>
      <trkpt lat="43.67605" lon="3.80501">
        <ele>94</ele>
        <time>2021-03-06T14:02:48Z</time>
      </trkpt>
      <trkpt lat="43.67604" lon="3.80499">
        <ele>94</ele>
        <time>2021-03-06T14:02:49Z</time>
      </trkpt>
      <trkpt lat="43.67603" lon="3.80497">
        <ele>94</ele>
        <time>2021-03-06T14:02:50Z</time>
      </trkpt>
      <trkpt lat="43.67602" lon="3.80494">
        <ele>94</ele>
        <time>2021-03-06T14:02:51Z</time>
      </trkpt>
      <trkpt lat="43.67601" lon="3.80492">
        <ele>94</ele>
        <time>2021-03-06T14:02:52Z</time>
      </trkpt>
      <trkpt lat="43.676" lon="3.80489">
        <ele>94</ele>
        <time>2021-03-06T14:02:53Z</time>
      </trkpt>
      <trkpt lat="43.67598" lon="3.80485">
        <ele>94</ele>
        <time>2021-03-06T14:02:54Z</time>
      </trkpt>
      <trkpt lat="43.67597" lon="3.80482">
        <ele>94</ele>
        <time>2021-03-06T14:02:55Z</time>
      </trkpt>
      <trkpt lat="43.67595" lon="3.80477">
        <ele>96</ele>
        <time>2021-03-06T14:02:56Z</time>
      </trkpt>
      <trkpt lat="43.67593" lon="3.80472">
        <ele>96</ele>
        <time>2021-03-06T14:02:57Z</time>
      </trkpt>
      <trkpt lat="43.67592" lon="3.80468">
        <ele>96</ele>
        <time>2021-03-06T14:02:58Z</time>
      </trkpt>
      <trkpt lat="43.6759" lon="3.80463">
        <ele>96</ele>
        <time>2021-03-06T14:02:59Z</time>
      </trkpt>
      <trkpt lat="43.67588" lon="3.80458">
        <ele>96</ele>
        <time>2021-03-06T14:03:00Z</time>
      </trkpt>
      <trkpt lat="43.67586" lon="3.80454">
        <ele>96</ele>
        <time>2021-03-06T14:03:01Z</time>
      </trkpt>
      <trkpt lat="43.67585" lon="3.80449">
        <ele>96</ele>
        <time>2021-03-06T14:03:02Z</time>
      </trkpt>
      <trkpt lat="43.67584" lon="3.80445">
        <ele>96</ele>
        <time>2021-03-06T14:03:03Z</time>
      </trkpt>
      <trkpt lat="43.67583" lon="3.8044">
        <ele>96</ele>
        <time>2021-03-06T14:03:04Z</time>
      </trkpt>
      <trkpt lat="43.67583" lon="3.80435">
        <ele>96</ele>
        <time>2021-03-06T14:03:05Z</time>
      </trkpt>
      <trkpt lat="43.67582" lon="3.8043">
        <ele>95</ele>
        <time>2021-03-06T14:03:06Z</time>
      </trkpt>
      <trkpt lat="43.67581" lon="3.80424">
        <ele>95</ele>
        <time>2021-03-06T14:03:07Z</time>
      </trkpt>
      <trkpt lat="43.67579" lon="3.80419">
        <ele>95</ele>
        <time>2021-03-06T14:03:08Z</time>
      </trkpt>
      <trkpt lat="43.67577" lon="3.80415">
        <ele>95</ele>
        <time>2021-03-06T14:03:09Z</time>
      </trkpt>
      <trkpt lat="43.67574" lon="3.80412">
        <ele>95</ele>
        <time>2021-03-06T14:03:10Z</time>
      </trkpt>
      <trkpt lat="43.67572" lon="3.80409">
        <ele>95</ele>
        <time>2021-03-06T14:03:11Z</time>
      </trkpt>
      <trkpt lat="43.6757" lon="3.80406">
        <ele>95</ele>
        <time>2021-03-06T14:03:12Z</time>
      </trkpt>
      <trkpt lat="43.67566" lon="3.80404">
        <ele>95</ele>
        <time>2021-03-06T14:03:13Z</time>
      </trkpt>
      <trkpt lat="43.67562" lon="3.80404">
        <ele>95</ele>
        <time>2021-03-06T14:03:15Z</time>
      </trkpt>
      <trkpt lat="43.6756" lon="3.80406">
        <ele>95</ele>
        <time>2021-03-06T14:03:17Z</time>
      </trkpt>
      <trkpt lat="43.67558" lon="3.8041">
        <ele>95</ele>
        <time>2021-03-06T14:03:19Z</time>
      </trkpt>
      <trkpt lat="43.67556" lon="3.80414">
        <ele>95</ele>
        <time>2021-03-06T14:03:21Z</time>
      </trkpt>
      <trkpt lat="43.67554" lon="3.80418">
        <ele>95</ele>
        <time>2021-03-06T14:03:23Z</time>
      </trkpt>
      <trkpt lat="43.67552" lon="3.80422">
        <ele>95</ele>
        <time>2021-03-06T14:03:25Z</time>
      </trkpt>
      <trkpt lat="43.6755" lon="3.80425">
        <ele>95</ele>
        <time>2021-03-06T14:03:28Z</time>
      </trkpt>
      <trkpt lat="43.67549" lon="3.80429">
        <ele>95</ele>
        <time>2021-03-06T14:03:30Z</time>
      </trkpt>
      <trkpt lat="43.67547" lon="3.80433">
        <ele>95</ele>
        <time>2021-03-06T14:03:32Z</time>
      </trkpt>
      <trkpt lat="43.67546" lon="3.80437">
        <ele>95</ele>
        <time>2021-03-06T14:03:34Z</time>
      </trkpt>
      <trkpt lat="43.67545" lon="3.8044">
        <ele>95</ele>
        <time>2021-03-06T14:03:36Z</time>
      </trkpt>
      <trkpt lat="43.67544" lon="3.80444">
        <ele>95</ele>
        <time>2021-03-06T14:03:38Z</time>
      </trkpt>
      <trkpt lat="43.67543" lon="3.80447">
        <ele>95</ele>
        <time>2021-03-06T14:03:40Z</time>
      </trkpt>
      <trkpt lat="43.67541" lon="3.8045">
        <ele>95</ele>
        <time>2021-03-06T14:03:41Z</time>
      </trkpt>
      <trkpt lat="43.6754" lon="3.80454">
        <ele>95</ele>
        <time>2021-03-06T14:03:44Z</time>
      </trkpt>
      <trkpt lat="43.67539" lon="3.80457">
        <ele>97</ele>
        <time>2021-03-06T14:03:46Z</time>
      </trkpt>
      <trkpt lat="43.67538" lon="3.80461">
        <ele>97</ele>
        <time>2021-03-06T14:03:48Z</time>
      </trkpt>
      <trkpt lat="43.67537" lon="3.80464">
        <ele>97</ele>
        <time>2021-03-06T14:03:50Z</time>
      </trkpt>
      <trkpt lat="43.67535" lon="3.80467">
        <ele>97</ele>
        <time>2021-03-06T14:03:52Z</time>
      </trkpt>
      <trkpt lat="43.67534" lon="3.80469">
        <ele>97</ele>
        <time>2021-03-06T14:03:54Z</time>
      </trkpt>
      <trkpt lat="43.67532" lon="3.80471">
        <ele>99</ele>
        <time>2021-03-06T14:03:56Z</time>
      </trkpt>
      <trkpt lat="43.67531" lon="3.80474">
        <ele>99</ele>
        <time>2021-03-06T14:03:59Z</time>
      </trkpt>
      <trkpt lat="43.67529" lon="3.80478">
        <ele>99</ele>
        <time>2021-03-06T14:04:01Z</time>
      </trkpt>
      <trkpt lat="43.67527" lon="3.80481">
        <ele>99</ele>
        <time>2021-03-06T14:04:03Z</time>
      </trkpt>
      <trkpt lat="43.67524" lon="3.80483">
        <ele>99</ele>
        <time>2021-03-06T14:04:05Z</time>
      </trkpt>
      <trkpt lat="43.67522" lon="3.80484">
        <ele>101</ele>
        <time>2021-03-06T14:04:06Z</time>
      </trkpt>
      <trkpt lat="43.67519" lon="3.80486">
        <ele>101</ele>
        <time>2021-03-06T14:04:09Z</time>
      </trkpt>
      <trkpt lat="43.67516" lon="3.80487">
        <ele>101</ele>
        <time>2021-03-06T14:04:11Z</time>
      </trkpt>
      <trkpt lat="43.67513" lon="3.80488">
        <ele>101</ele>
        <time>2021-03-06T14:04:13Z</time>
      </trkpt>
      <trkpt lat="43.67511" lon="3.80488">
        <ele>101</ele>
        <time>2021-03-06T14:04:15Z</time>
      </trkpt>
      <trkpt lat="43.67508" lon="3.80488">
        <ele>103</ele>
        <time>2021-03-06T14:04:16Z</time>
      </trkpt>
      <trkpt lat="43.67505" lon="3.80489">
        <ele>103</ele>
        <time>2021-03-06T14:04:18Z</time>
      </trkpt>
      <trkpt lat="43.67502" lon="3.80489">
        <ele>103</ele>
        <time>2021-03-06T14:04:20Z</time>
      </trkpt>
      <trkpt lat="43.675" lon="3.80489">
        <ele>103</ele>
        <time>2021-03-06T14:04:22Z</time>
      </trkpt>
      <trkpt lat="43.67497" lon="3.8049">
        <ele>103</ele>
        <time>2021-03-06T14:04:24Z</time>
      </trkpt>
      <trkpt lat="43.67495" lon="3.8049">
        <ele>103</ele>
        <time>2021-03-06T14:04:27Z</time>
      </trkpt>
      <trkpt lat="43.67492" lon="3.80491">
        <ele>103</ele>
        <time>2021-03-06T14:04:29Z</time>
      </trkpt>
      <trkpt lat="43.6749" lon="3.80491">
        <ele>103</ele>
        <time>2021-03-06T14:04:31Z</time>
      </trkpt>
      <trkpt lat="43.67487" lon="3.80491">
        <ele>103</ele>
        <time>2021-03-06T14:04:33Z</time>
      </trkpt>
      <trkpt lat="43.67485" lon="3.80492">
        <ele>103</ele>
        <time>2021-03-06T14:04:35Z</time>
      </trkpt>
      <trkpt lat="43.67483" lon="3.80494">
        <ele>103</ele>
        <time>2021-03-06T14:04:37Z</time>
      </trkpt>
      <trkpt lat="43.67481" lon="3.80495">
        <ele>103</ele>
        <time>2021-03-06T14:04:39Z</time>
      </trkpt>
      <trkpt lat="43.67479" lon="3.80497">
        <ele>103</ele>
        <time>2021-03-06T14:04:41Z</time>
      </trkpt>
      <trkpt lat="43.67476" lon="3.80498">
        <ele>103</ele>
        <time>2021-03-06T14:04:43Z</time>
      </trkpt>
      <trkpt lat="43.67473" lon="3.80499">
        <ele>103</ele>
        <time>2021-03-06T14:04:45Z</time>
      </trkpt>
      <trkpt lat="43.67471" lon="3.80501">
        <ele>103</ele>
        <time>2021-03-06T14:04:47Z</time>
      </trkpt>
      <trkpt lat="43.67469" lon="3.80502">
        <ele>103</ele>
        <time>2021-03-06T14:04:49Z</time>
      </trkpt>
      <trkpt lat="43.67467" lon="3.80503">
        <ele>103</ele>
        <time>2021-03-06T14:04:51Z</time>
      </trkpt>
      <trkpt lat="43.67464" lon="3.80504">
        <ele>103</ele>
        <time>2021-03-06T14:04:53Z</time>
      </trkpt>
      <trkpt lat="43.67462" lon="3.80506">
        <ele>103</ele>
        <time>2021-03-06T14:04:55Z</time>
      </trkpt>
      <trkpt lat="43.67459" lon="3.80507">
        <ele>103</ele>
        <time>2021-03-06T14:04:57Z</time>
      </trkpt>
      <trkpt lat="43.67457" lon="3.80509">
        <ele>103</ele>
        <time>2021-03-06T14:04:59Z</time>
      </trkpt>
      <trkpt lat="43.67455" lon="3.8051">
        <ele>103</ele>
        <time>2021-03-06T14:05:01Z</time>
      </trkpt>
      <trkpt lat="43.67452" lon="3.80512">
        <ele>103</ele>
        <time>2021-03-06T14:05:03Z</time>
      </trkpt>
      <trkpt lat="43.6745" lon="3.80513">
        <ele>103</ele>
        <time>2021-03-06T14:05:05Z</time>
      </trkpt>
      <trkpt lat="43.67448" lon="3.80515">
        <ele>103</ele>
        <time>2021-03-06T14:05:07Z</time>
      </trkpt>
      <trkpt lat="43.67445" lon="3.80516">
        <ele>103</ele>
        <time>2021-03-06T14:05:09Z</time>
      </trkpt>
      <trkpt lat="43.67443" lon="3.80518">
        <ele>103</ele>
        <time>2021-03-06T14:05:11Z</time>
      </trkpt>
      <trkpt lat="43.6744" lon="3.8052">
        <ele>103</ele>
        <time>2021-03-06T14:05:13Z</time>
      </trkpt>
      <trkpt lat="43.67438" lon="3.80522">
        <ele>103</ele>
        <time>2021-03-06T14:05:15Z</time>
      </trkpt>
      <trkpt lat="43.67435" lon="3.80524">
        <ele>103</ele>
        <time>2021-03-06T14:05:17Z</time>
      </trkpt>
      <trkpt lat="43.67432" lon="3.80526">
        <ele>103</ele>
        <time>2021-03-06T14:05:19Z</time>
      </trkpt>
      <trkpt lat="43.67429" lon="3.80528">
        <ele>103</ele>
        <time>2021-03-06T14:05:21Z</time>
      </trkpt>
      <trkpt lat="43.67426" lon="3.80529">
        <ele>103</ele>
        <time>2021-03-06T14:05:23Z</time>
      </trkpt>
      <trkpt lat="43.67423" lon="3.8053">
        <ele>103</ele>
        <time>2021-03-06T14:05:25Z</time>
      </trkpt>
      <trkpt lat="43.6742" lon="3.80532">
        <ele>103</ele>
        <time>2021-03-06T14:05:27Z</time>
      </trkpt>
      <trkpt lat="43.67417" lon="3.80533">
        <ele>103</ele>
        <time>2021-03-06T14:05:29Z</time>
      </trkpt>
      <trkpt lat="43.67414" lon="3.80535">
        <ele>103</ele>
        <time>2021-03-06T14:05:31Z</time>
      </trkpt>
      <trkpt lat="43.67411" lon="3.80537">
        <ele>103</ele>
        <time>2021-03-06T14:05:33Z</time>
      </trkpt>
      <trkpt lat="43.67408" lon="3.8054">
        <ele>103</ele>
        <time>2021-03-06T14:05:35Z</time>
      </trkpt>
      <trkpt lat="43.67406" lon="3.80542">
        <ele>103</ele>
        <time>2021-03-06T14:05:37Z</time>
      </trkpt>
      <trkpt lat="43.67403" lon="3.80544">
        <ele>103</ele>
        <time>2021-03-06T14:05:39Z</time>
      </trkpt>
      <trkpt lat="43.67401" lon="3.80546">
        <ele>103</ele>
        <time>2021-03-06T14:05:41Z</time>
      </trkpt>
      <trkpt lat="43.67399" lon="3.80548">
        <ele>103</ele>
        <time>2021-03-06T14:05:43Z</time>
      </trkpt>
      <trkpt lat="43.67397" lon="3.8055">
        <ele>103</ele>
        <time>2021-03-06T14:05:45Z</time>
      </trkpt>
      <trkpt lat="43.67394" lon="3.80552">
        <ele>103</ele>
        <time>2021-03-06T14:05:47Z</time>
      </trkpt>
      <trkpt lat="43.67392" lon="3.80554">
        <ele>103</ele>
        <time>2021-03-06T14:05:48Z</time>
      </trkpt>
      <trkpt lat="43.6739" lon="3.80556">
        <ele>103</ele>
        <time>2021-03-06T14:05:50Z</time>
      </trkpt>
      <trkpt lat="43.67387" lon="3.80559">
        <ele>103</ele>
        <time>2021-03-06T14:05:52Z</time>
      </trkpt>
      <trkpt lat="43.67385" lon="3.80561">
        <ele>103</ele>
        <time>2021-03-06T14:05:53Z</time>
      </trkpt>
      <trkpt lat="43.67382" lon="3.80562">
        <ele>103</ele>
        <time>2021-03-06T14:05:54Z</time>
      </trkpt>
      <trkpt lat="43.6738" lon="3.80563">
        <ele>103</ele>
        <time>2021-03-06T14:05:55Z</time>
      </trkpt>
      <trkpt lat="43.67378" lon="3.80562">
        <ele>103</ele>
        <time>2021-03-06T14:05:57Z</time>
      </trkpt>
      <trkpt lat="43.67376" lon="3.80562">
        <ele>103</ele>
        <time>2021-03-06T14:05:58Z</time>
      </trkpt>
      <trkpt lat="43.67374" lon="3.80561">
        <ele>103</ele>
        <time>2021-03-06T14:05:59Z</time>
      </trkpt>
      <trkpt lat="43.67372" lon="3.80559">
        <ele>103</ele>
        <time>2021-03-06T14:06:00Z</time>
      </trkpt>
      <trkpt lat="43.6737" lon="3.80558">
        <ele>103</ele>
        <time>2021-03-06T14:06:01Z</time>
      </trkpt>
      <trkpt lat="43.67368" lon="3.80557">
        <ele>103</ele>
        <time>2021-03-06T14:06:02Z</time>
      </trkpt>
      <trkpt lat="43.67366" lon="3.80556">
        <ele>103</ele>
        <time>2021-03-06T14:06:03Z</time>
      </trkpt>
      <trkpt lat="43.67364" lon="3.80554">
        <ele>103</ele>
        <time>2021-03-06T14:06:04Z</time>
      </trkpt>
      <trkpt lat="43.67362" lon="3.80553">
        <ele>103</ele>
        <time>2021-03-06T14:06:05Z</time>
      </trkpt>
      <trkpt lat="43.67361" lon="3.80552">
        <ele>119</ele>
        <time>2021-03-06T14:06:06Z</time>
      </trkpt>
      <trkpt lat="43.67359" lon="3.80552">
        <ele>119</ele>
        <time>2021-03-06T14:06:07Z</time>
      </trkpt>
      <trkpt lat="43.67357" lon="3.80551">
        <ele>119</ele>
        <time>2021-03-06T14:06:08Z</time>
      </trkpt>
      <trkpt lat="43.67354" lon="3.80548">
        <ele>119</ele>
        <time>2021-03-06T14:06:10Z</time>
      </trkpt>
      <trkpt lat="43.67352" lon="3.80547">
        <ele>119</ele>
        <time>2021-03-06T14:06:11Z</time>
      </trkpt>
      <trkpt lat="43.6735" lon="3.80546">
        <ele>119</ele>
        <time>2021-03-06T14:06:12Z</time>
      </trkpt>
      <trkpt lat="43.67348" lon="3.80545">
        <ele>119</ele>
        <time>2021-03-06T14:06:13Z</time>
      </trkpt>
      <trkpt lat="43.67346" lon="3.80544">
        <ele>119</ele>
        <time>2021-03-06T14:06:14Z</time>
      </trkpt>
      <trkpt lat="43.67343" lon="3.80543">
        <ele>117</ele>
        <time>2021-03-06T14:06:16Z</time>
      </trkpt>
      <trkpt lat="43.67341" lon="3.80541">
        <ele>117</ele>
        <time>2021-03-06T14:06:18Z</time>
      </trkpt>
      <trkpt lat="43.67341" lon="3.80541">
        <ele>117</ele>
        <time>2021-03-06T14:06:23Z</time>
      </trkpt>
      <trkpt lat="43.67335" lon="3.80539">
        <ele>116</ele>
        <time>2021-03-06T14:06:30Z</time>
      </trkpt>
      <trkpt lat="43.67333" lon="3.80537">
        <ele>116</ele>
        <time>2021-03-06T14:06:32Z</time>
      </trkpt>
      <trkpt lat="43.6733" lon="3.80535">
        <ele>116</ele>
        <time>2021-03-06T14:06:34Z</time>
      </trkpt>
      <trkpt lat="43.67326" lon="3.80533">
        <ele>116</ele>
        <time>2021-03-06T14:06:36Z</time>
      </trkpt>
      <trkpt lat="43.67325" lon="3.80531">
        <ele>116</ele>
        <time>2021-03-06T14:06:37Z</time>
      </trkpt>
      <trkpt lat="43.67322" lon="3.80529">
        <ele>116</ele>
        <time>2021-03-06T14:06:38Z</time>
      </trkpt>
      <trkpt lat="43.6732" lon="3.80527">
        <ele>116</ele>
        <time>2021-03-06T14:06:39Z</time>
      </trkpt>
      <trkpt lat="43.67317" lon="3.80525">
        <ele>115</ele>
        <time>2021-03-06T14:06:40Z</time>
      </trkpt>
      <trkpt lat="43.67315" lon="3.80522">
        <ele>115</ele>
        <time>2021-03-06T14:06:41Z</time>
      </trkpt>
      <trkpt lat="43.67312" lon="3.8052">
        <ele>115</ele>
        <time>2021-03-06T14:06:42Z</time>
      </trkpt>
      <trkpt lat="43.67309" lon="3.80518">
        <ele>115</ele>
        <time>2021-03-06T14:06:43Z</time>
      </trkpt>
      <trkpt lat="43.67306" lon="3.80515">
        <ele>115</ele>
        <time>2021-03-06T14:06:44Z</time>
      </trkpt>
      <trkpt lat="43.67302" lon="3.80514">
        <ele>115</ele>
        <time>2021-03-06T14:06:45Z</time>
      </trkpt>
      <trkpt lat="43.67299" lon="3.80512">
        <ele>115</ele>
        <time>2021-03-06T14:06:46Z</time>
      </trkpt>
      <trkpt lat="43.67296" lon="3.80511">
        <ele>115</ele>
        <time>2021-03-06T14:06:47Z</time>
      </trkpt>
      <trkpt lat="43.67293" lon="3.8051">
        <ele>115</ele>
        <time>2021-03-06T14:06:48Z</time>
      </trkpt>
      <trkpt lat="43.6729" lon="3.8051">
        <ele>115</ele>
        <time>2021-03-06T14:06:49Z</time>
      </trkpt>
      <trkpt lat="43.67284" lon="3.80511">
        <ele>114</ele>
        <time>2021-03-06T14:06:50Z</time>
      </trkpt>
      <trkpt lat="43.67281" lon="3.80511">
        <ele>114</ele>
        <time>2021-03-06T14:06:51Z</time>
      </trkpt>
      <trkpt lat="43.67278" lon="3.80512">
        <ele>114</ele>
        <time>2021-03-06T14:06:52Z</time>
      </trkpt>
      <trkpt lat="43.67276" lon="3.80513">
        <ele>114</ele>
        <time>2021-03-06T14:06:53Z</time>
      </trkpt>
      <trkpt lat="43.67273" lon="3.80515">
        <ele>114</ele>
        <time>2021-03-06T14:06:54Z</time>
      </trkpt>
      <trkpt lat="43.6727" lon="3.80516">
        <ele>114</ele>
        <time>2021-03-06T14:06:55Z</time>
      </trkpt>
      <trkpt lat="43.67267" lon="3.80518">
        <ele>114</ele>
        <time>2021-03-06T14:06:56Z</time>
      </trkpt>
      <trkpt lat="43.67265" lon="3.80521">
        <ele>114</ele>
        <time>2021-03-06T14:06:57Z</time>
      </trkpt>
      <trkpt lat="43.67262" lon="3.80523">
        <ele>114</ele>
        <time>2021-03-06T14:06:58Z</time>
      </trkpt>
      <trkpt lat="43.6726" lon="3.80524">
        <ele>114</ele>
        <time>2021-03-06T14:06:59Z</time>
      </trkpt>
      <trkpt lat="43.67257" lon="3.80525">
        <ele>114</ele>
        <time>2021-03-06T14:07:01Z</time>
      </trkpt>
      <trkpt lat="43.67254" lon="3.80525">
        <ele>114</ele>
        <time>2021-03-06T14:07:02Z</time>
      </trkpt>
      <trkpt lat="43.67251" lon="3.80525">
        <ele>114</ele>
        <time>2021-03-06T14:07:03Z</time>
      </trkpt>
      <trkpt lat="43.67249" lon="3.80524">
        <ele>114</ele>
        <time>2021-03-06T14:07:04Z</time>
      </trkpt>
      <trkpt lat="43.67246" lon="3.80524">
        <ele>114</ele>
        <time>2021-03-06T14:07:05Z</time>
      </trkpt>
      <trkpt lat="43.67244" lon="3.80524">
        <ele>114</ele>
        <time>2021-03-06T14:07:06Z</time>
      </trkpt>
      <trkpt lat="43.67241" lon="3.80525">
        <ele>114</ele>
        <time>2021-03-06T14:07:07Z</time>
      </trkpt>
      <trkpt lat="43.67238" lon="3.80525">
        <ele>114</ele>
        <time>2021-03-06T14:07:08Z</time>
      </trkpt>
      <trkpt lat="43.67235" lon="3.80524">
        <ele>114</ele>
        <time>2021-03-06T14:07:09Z</time>
      </trkpt>
      <trkpt lat="43.67233" lon="3.80523">
        <ele>115</ele>
        <time>2021-03-06T14:07:10Z</time>
      </trkpt>
      <trkpt lat="43.6723" lon="3.80523">
        <ele>115</ele>
        <time>2021-03-06T14:07:11Z</time>
      </trkpt>
      <trkpt lat="43.67228" lon="3.80521">
        <ele>115</ele>
        <time>2021-03-06T14:07:12Z</time>
      </trkpt>
      <trkpt lat="43.67226" lon="3.8052">
        <ele>115</ele>
        <time>2021-03-06T14:07:13Z</time>
      </trkpt>
      <trkpt lat="43.67224" lon="3.80519">
        <ele>115</ele>
        <time>2021-03-06T14:07:14Z</time>
      </trkpt>
      <trkpt lat="43.67222" lon="3.80519">
        <ele>115</ele>
        <time>2021-03-06T14:07:15Z</time>
      </trkpt>
      <trkpt lat="43.67219" lon="3.80519">
        <ele>115</ele>
        <time>2021-03-06T14:07:17Z</time>
      </trkpt>
      <trkpt lat="43.67217" lon="3.80519">
        <ele>115</ele>
        <time>2021-03-06T14:07:18Z</time>
      </trkpt>
      <trkpt lat="43.67214" lon="3.80518">
        <ele>115</ele>
        <time>2021-03-06T14:07:19Z</time>
      </trkpt>
      <trkpt lat="43.67212" lon="3.80517">
        <ele>116</ele>
        <time>2021-03-06T14:07:20Z</time>
      </trkpt>
      <trkpt lat="43.67211" lon="3.80515">
        <ele>116</ele>
        <time>2021-03-06T14:07:21Z</time>
      </trkpt>
      <trkpt lat="43.67209" lon="3.80514">
        <ele>116</ele>
        <time>2021-03-06T14:07:22Z</time>
      </trkpt>
      <trkpt lat="43.67206" lon="3.80511">
        <ele>116</ele>
        <time>2021-03-06T14:07:24Z</time>
      </trkpt>
      <trkpt lat="43.67204" lon="3.8051">
        <ele>116</ele>
        <time>2021-03-06T14:07:25Z</time>
      </trkpt>
      <trkpt lat="43.67203" lon="3.80508">
        <ele>116</ele>
        <time>2021-03-06T14:07:26Z</time>
      </trkpt>
      <trkpt lat="43.67201" lon="3.80506">
        <ele>116</ele>
        <time>2021-03-06T14:07:27Z</time>
      </trkpt>
      <trkpt lat="43.67199" lon="3.80503">
        <ele>116</ele>
        <time>2021-03-06T14:07:29Z</time>
      </trkpt>
      <trkpt lat="43.67198" lon="3.80501">
        <ele>117</ele>
        <time>2021-03-06T14:07:30Z</time>
      </trkpt>
      <trkpt lat="43.67196" lon="3.80497">
        <ele>117</ele>
        <time>2021-03-06T14:07:32Z</time>
      </trkpt>
      <trkpt lat="43.67195" lon="3.80494">
        <ele>117</ele>
        <time>2021-03-06T14:07:33Z</time>
      </trkpt>
      <trkpt lat="43.67192" lon="3.80491">
        <ele>117</ele>
        <time>2021-03-06T14:07:35Z</time>
      </trkpt>
      <trkpt lat="43.67191" lon="3.80489">
        <ele>117</ele>
        <time>2021-03-06T14:07:36Z</time>
      </trkpt>
      <trkpt lat="43.6719" lon="3.80487">
        <ele>117</ele>
        <time>2021-03-06T14:07:37Z</time>
      </trkpt>
      <trkpt lat="43.67188" lon="3.80484">
        <ele>117</ele>
        <time>2021-03-06T14:07:39Z</time>
      </trkpt>
      <trkpt lat="43.67186" lon="3.80481">
        <ele>117</ele>
        <time>2021-03-06T14:07:41Z</time>
      </trkpt>
      <trkpt lat="43.67187" lon="3.80481">
        <ele>119</ele>
        <time>2021-03-06T14:07:47Z</time>
      </trkpt>
      <trkpt lat="43.6718" lon="3.80474">
        <ele>118</ele>
        <time>2021-03-06T14:08:00Z</time>
      </trkpt>
      <trkpt lat="43.67177" lon="3.80471">
        <ele>118</ele>
        <time>2021-03-06T14:08:01Z</time>
      </trkpt>
      <trkpt lat="43.67173" lon="3.80467">
        <ele>118</ele>
        <time>2021-03-06T14:08:02Z</time>
      </trkpt>
      <trkpt lat="43.67169" lon="3.80464">
        <ele>118</ele>
        <time>2021-03-06T14:08:03Z</time>
      </trkpt>
      <trkpt lat="43.67165" lon="3.8046">
        <ele>118</ele>
        <time>2021-03-06T14:08:04Z</time>
      </trkpt>
      <trkpt lat="43.6716" lon="3.80456">
        <ele>118</ele>
        <time>2021-03-06T14:08:05Z</time>
      </trkpt>
      <trkpt lat="43.67154" lon="3.80452">
        <ele>118</ele>
        <time>2021-03-06T14:08:06Z</time>
      </trkpt>
      <trkpt lat="43.67148" lon="3.8045">
        <ele>118</ele>
        <time>2021-03-06T14:08:07Z</time>
      </trkpt>
      <trkpt lat="43.67142" lon="3.80447">
        <ele>118</ele>
        <time>2021-03-06T14:08:08Z</time>
      </trkpt>
      <trkpt lat="43.67136" lon="3.80444">
        <ele>118</ele>
        <time>2021-03-06T14:08:09Z</time>
      </trkpt>
      <trkpt lat="43.67131" lon="3.8044">
        <ele>116</ele>
        <time>2021-03-06T14:08:10Z</time>
      </trkpt>
      <trkpt lat="43.67125" lon="3.80436">
        <ele>116</ele>
        <time>2021-03-06T14:08:11Z</time>
      </trkpt>
      <trkpt lat="43.6712" lon="3.80431">
        <ele>116</ele>
        <time>2021-03-06T14:08:12Z</time>
      </trkpt>
      <trkpt lat="43.67115" lon="3.80426">
        <ele>116</ele>
        <time>2021-03-06T14:08:13Z</time>
      </trkpt>
      <trkpt lat="43.67109" lon="3.80422">
        <ele>116</ele>
        <time>2021-03-06T14:08:14Z</time>
      </trkpt>
      <trkpt lat="43.67104" lon="3.80417">
        <ele>116</ele>
        <time>2021-03-06T14:08:15Z</time>
      </trkpt>
      <trkpt lat="43.671" lon="3.80411">
        <ele>116</ele>
        <time>2021-03-06T14:08:16Z</time>
      </trkpt>
      <trkpt lat="43.67097" lon="3.80405">
        <ele>116</ele>
        <time>2021-03-06T14:08:17Z</time>
      </trkpt>
      <trkpt lat="43.67092" lon="3.804">
        <ele>116</ele>
        <time>2021-03-06T14:08:18Z</time>
      </trkpt>
      <trkpt lat="43.67088" lon="3.80395">
        <ele>116</ele>
        <time>2021-03-06T14:08:19Z</time>
      </trkpt>
      <trkpt lat="43.6708" lon="3.80393">
        <ele>113</ele>
        <time>2021-03-06T14:08:20Z</time>
      </trkpt>
      <trkpt lat="43.67076" lon="3.80394">
        <ele>113</ele>
        <time>2021-03-06T14:08:21Z</time>
      </trkpt>
      <trkpt lat="43.67073" lon="3.80396">
        <ele>113</ele>
        <time>2021-03-06T14:08:22Z</time>
      </trkpt>
      <trkpt lat="43.67068" lon="3.80399">
        <ele>113</ele>
        <time>2021-03-06T14:08:23Z</time>
      </trkpt>
      <trkpt lat="43.67064" lon="3.80401">
        <ele>113</ele>
        <time>2021-03-06T14:08:24Z</time>
      </trkpt>
      <trkpt lat="43.6706" lon="3.80404">
        <ele>113</ele>
        <time>2021-03-06T14:08:25Z</time>
      </trkpt>
      <trkpt lat="43.67056" lon="3.80407">
        <ele>113</ele>
        <time>2021-03-06T14:08:26Z</time>
      </trkpt>
      <trkpt lat="43.67052" lon="3.80411">
        <ele>113</ele>
        <time>2021-03-06T14:08:27Z</time>
      </trkpt>
      <trkpt lat="43.67044" lon="3.80416">
        <ele>113</ele>
        <time>2021-03-06T14:08:29Z</time>
      </trkpt>
      <trkpt lat="43.67041" lon="3.80417">
        <ele>113</ele>
        <time>2021-03-06T14:08:31Z</time>
      </trkpt>
      <trkpt lat="43.67037" lon="3.80418">
        <ele>113</ele>
        <time>2021-03-06T14:08:32Z</time>
      </trkpt>
      <trkpt lat="43.67034" lon="3.8042">
        <ele>113</ele>
        <time>2021-03-06T14:08:33Z</time>
      </trkpt>
      <trkpt lat="43.67031" lon="3.80421">
        <ele>113</ele>
        <time>2021-03-06T14:08:34Z</time>
      </trkpt>
      <trkpt lat="43.67028" lon="3.80421">
        <ele>113</ele>
        <time>2021-03-06T14:08:36Z</time>
      </trkpt>
      <trkpt lat="43.67025" lon="3.80424">
        <ele>113</ele>
        <time>2021-03-06T14:08:38Z</time>
      </trkpt>
      <trkpt lat="43.67023" lon="3.80427">
        <ele>108</ele>
        <time>2021-03-06T14:08:40Z</time>
      </trkpt>
      <trkpt lat="43.67021" lon="3.8043">
        <ele>108</ele>
        <time>2021-03-06T14:08:42Z</time>
      </trkpt>
      <trkpt lat="43.6702" lon="3.80434">
        <ele>108</ele>
        <time>2021-03-06T14:08:44Z</time>
      </trkpt>
      <trkpt lat="43.67019" lon="3.80437">
        <ele>108</ele>
        <time>2021-03-06T14:08:46Z</time>
      </trkpt>
      <trkpt lat="43.67016" lon="3.80438">
        <ele>108</ele>
        <time>2021-03-06T14:08:48Z</time>
      </trkpt>
      <trkpt lat="43.67015" lon="3.80435">
        <ele>107</ele>
        <time>2021-03-06T14:08:50Z</time>
      </trkpt>
      <trkpt lat="43.67016" lon="3.80432">
        <ele>107</ele>
        <time>2021-03-06T14:08:52Z</time>
      </trkpt>
      <trkpt lat="43.67016" lon="3.80428">
        <ele>107</ele>
        <time>2021-03-06T14:08:54Z</time>
      </trkpt>
      <trkpt lat="43.67017" lon="3.80424">
        <ele>107</ele>
        <time>2021-03-06T14:08:56Z</time>
      </trkpt>
      <trkpt lat="43.67019" lon="3.8042">
        <ele>107</ele>
        <time>2021-03-06T14:08:58Z</time>
      </trkpt>
      <trkpt lat="43.6702" lon="3.80417">
        <ele>107</ele>
        <time>2021-03-06T14:08:59Z</time>
      </trkpt>
      <trkpt lat="43.67021" lon="3.80413">
        <ele>107</ele>
        <time>2021-03-06T14:09:01Z</time>
      </trkpt>
      <trkpt lat="43.67023" lon="3.80413">
        <ele>107</ele>
        <time>2021-03-06T14:09:04Z</time>
      </trkpt>
      <trkpt lat="43.67025" lon="3.80416">
        <ele>107</ele>
        <time>2021-03-06T14:09:06Z</time>
      </trkpt>
      <trkpt lat="43.67026" lon="3.80421">
        <ele>107</ele>
        <time>2021-03-06T14:09:08Z</time>
      </trkpt>
      <trkpt lat="43.67026" lon="3.80424">
        <ele>107</ele>
        <time>2021-03-06T14:09:09Z</time>
      </trkpt>
      <trkpt lat="43.67025" lon="3.80428">
        <ele>105</ele>
        <time>2021-03-06T14:09:10Z</time>
      </trkpt>
      <trkpt lat="43.67023" lon="3.80431">
        <ele>105</ele>
        <time>2021-03-06T14:09:11Z</time>
      </trkpt>
      <trkpt lat="43.6702" lon="3.80433">
        <ele>105</ele>
        <time>2021-03-06T14:09:12Z</time>
      </trkpt>
      <trkpt lat="43.67018" lon="3.80434">
        <ele>105</ele>
        <time>2021-03-06T14:09:13Z</time>
      </trkpt>
      <trkpt lat="43.67015" lon="3.80434">
        <ele>105</ele>
        <time>2021-03-06T14:09:14Z</time>
      </trkpt>
      <trkpt lat="43.67013" lon="3.80434">
        <ele>105</ele>
        <time>2021-03-06T14:09:15Z</time>
      </trkpt>
      <trkpt lat="43.6701" lon="3.80434">
        <ele>105</ele>
        <time>2021-03-06T14:09:16Z</time>
      </trkpt>
      <trkpt lat="43.67008" lon="3.80434">
        <ele>105</ele>
        <time>2021-03-06T14:09:17Z</time>
      </trkpt>
      <trkpt lat="43.67006" lon="3.80434">
        <ele>105</ele>
        <time>2021-03-06T14:09:18Z</time>
      </trkpt>
      <trkpt lat="43.67004" lon="3.80435">
        <ele>105</ele>
        <time>2021-03-06T14:09:19Z</time>
      </trkpt>
      <trkpt lat="43.67001" lon="3.80435">
        <ele>104</ele>
        <time>2021-03-06T14:09:20Z</time>
      </trkpt>
      <trkpt lat="43.66999" lon="3.80435">
        <ele>104</ele>
        <time>2021-03-06T14:09:21Z</time>
      </trkpt>
      <trkpt lat="43.66997" lon="3.80435">
        <ele>104</ele>
        <time>2021-03-06T14:09:22Z</time>
      </trkpt>
      <trkpt lat="43.66995" lon="3.80436">
        <ele>104</ele>
        <time>2021-03-06T14:09:23Z</time>
      </trkpt>
      <trkpt lat="43.66993" lon="3.80436">
        <ele>104</ele>
        <time>2021-03-06T14:09:24Z</time>
      </trkpt>
      <trkpt lat="43.66991" lon="3.80436">
        <ele>104</ele>
        <time>2021-03-06T14:09:25Z</time>
      </trkpt>
      <trkpt lat="43.66989" lon="3.80437">
        <ele>104</ele>
        <time>2021-03-06T14:09:26Z</time>
      </trkpt>
      <trkpt lat="43.66987" lon="3.80437">
        <ele>104</ele>
        <time>2021-03-06T14:09:27Z</time>
      </trkpt>
      <trkpt lat="43.66984" lon="3.8044">
        <ele>104</ele>
        <time>2021-03-06T14:09:29Z</time>
      </trkpt>
      <trkpt lat="43.66981" lon="3.80441">
        <ele>104</ele>
        <time>2021-03-06T14:09:31Z</time>
      </trkpt>
      <trkpt lat="43.66978" lon="3.80441">
        <ele>104</ele>
        <time>2021-03-06T14:09:33Z</time>
      </trkpt>
      <trkpt lat="43.66975" lon="3.80441">
        <ele>104</ele>
        <time>2021-03-06T14:09:35Z</time>
      </trkpt>
      <trkpt lat="43.66972" lon="3.80441">
        <ele>104</ele>
        <time>2021-03-06T14:09:37Z</time>
      </trkpt>
      <trkpt lat="43.66969" lon="3.80442">
        <ele>104</ele>
        <time>2021-03-06T14:09:39Z</time>
      </trkpt>
      <trkpt lat="43.66967" lon="3.80442">
        <ele>104</ele>
        <time>2021-03-06T14:09:41Z</time>
      </trkpt>
      <trkpt lat="43.66965" lon="3.80441">
        <ele>104</ele>
        <time>2021-03-06T14:09:43Z</time>
      </trkpt>
      <trkpt lat="43.66963" lon="3.8044">
        <ele>104</ele>
        <time>2021-03-06T14:09:45Z</time>
      </trkpt>
      <trkpt lat="43.66961" lon="3.80438">
        <ele>104</ele>
        <time>2021-03-06T14:09:47Z</time>
      </trkpt>
      <trkpt lat="43.6696" lon="3.80435">
        <ele>104</ele>
        <time>2021-03-06T14:09:49Z</time>
      </trkpt>
      <trkpt lat="43.66957" lon="3.80433">
        <ele>104</ele>
        <time>2021-03-06T14:09:51Z</time>
      </trkpt>
      <trkpt lat="43.66955" lon="3.8043">
        <ele>104</ele>
        <time>2021-03-06T14:09:53Z</time>
      </trkpt>
      <trkpt lat="43.66953" lon="3.80428">
        <ele>104</ele>
        <time>2021-03-06T14:09:55Z</time>
      </trkpt>
      <trkpt lat="43.66951" lon="3.80425">
        <ele>104</ele>
        <time>2021-03-06T14:09:57Z</time>
      </trkpt>
      <trkpt lat="43.66949" lon="3.80424">
        <ele>104</ele>
        <time>2021-03-06T14:09:59Z</time>
      </trkpt>
      <trkpt lat="43.66947" lon="3.80423">
        <ele>104</ele>
        <time>2021-03-06T14:10:01Z</time>
      </trkpt>
      <trkpt lat="43.66947" lon="3.80426">
        <ele>104</ele>
        <time>2021-03-06T14:10:09Z</time>
      </trkpt>
      <trkpt lat="43.66947" lon="3.80426">
        <ele>112</ele>
        <time>2021-03-06T14:10:14Z</time>
      </trkpt>
      <trkpt lat="43.66944" lon="3.80419">
        <ele>113</ele>
        <time>2021-03-06T14:10:33Z</time>
      </trkpt>
      <trkpt lat="43.66943" lon="3.80418">
        <ele>113</ele>
        <time>2021-03-06T14:10:35Z</time>
      </trkpt>
      <trkpt lat="43.66941" lon="3.80417">
        <ele>113</ele>
        <time>2021-03-06T14:10:39Z</time>
      </trkpt>
      <trkpt lat="43.66939" lon="3.80417">
        <ele>113</ele>
        <time>2021-03-06T14:10:42Z</time>
      </trkpt>
      <trkpt lat="43.66937" lon="3.80417">
        <ele>113</ele>
        <time>2021-03-06T14:10:45Z</time>
      </trkpt>
      <trkpt lat="43.66935" lon="3.80415">
        <ele>113</ele>
        <time>2021-03-06T14:10:48Z</time>
      </trkpt>
      <trkpt lat="43.66935" lon="3.80414">
        <ele>116</ele>
        <time>2021-03-06T14:10:54Z</time>
      </trkpt>
      <trkpt lat="43.6693" lon="3.80402">
        <ele>121</ele>
        <time>2021-03-06T14:15:23Z</time>
      </trkpt>
      <trkpt lat="43.66929" lon="3.804">
        <ele>121</ele>
        <time>2021-03-06T14:15:25Z</time>
      </trkpt>
      <trkpt lat="43.6693" lon="3.80397">
        <ele>121</ele>
        <time>2021-03-06T14:15:27Z</time>
      </trkpt>
      <trkpt lat="43.66931" lon="3.80392">
        <ele>121</ele>
        <time>2021-03-06T14:15:29Z</time>
      </trkpt>
      <trkpt lat="43.66933" lon="3.80388">
        <ele>121</ele>
        <time>2021-03-06T14:15:31Z</time>
      </trkpt>
      <trkpt lat="43.66934" lon="3.80385">
        <ele>121</ele>
        <time>2021-03-06T14:15:33Z</time>
      </trkpt>
      <trkpt lat="43.66934" lon="3.80381">
        <ele>121</ele>
        <time>2021-03-06T14:15:35Z</time>
      </trkpt>
      <trkpt lat="43.66934" lon="3.80378">
        <ele>121</ele>
        <time>2021-03-06T14:15:37Z</time>
      </trkpt>
      <trkpt lat="43.66935" lon="3.80375">
        <ele>121</ele>
        <time>2021-03-06T14:15:39Z</time>
      </trkpt>
      <trkpt lat="43.66936" lon="3.80371">
        <ele>121</ele>
        <time>2021-03-06T14:15:41Z</time>
      </trkpt>
      <trkpt lat="43.66937" lon="3.80367">
        <ele>121</ele>
        <time>2021-03-06T14:15:43Z</time>
      </trkpt>
      <trkpt lat="43.66939" lon="3.80364">
        <ele>121</ele>
        <time>2021-03-06T14:15:44Z</time>
      </trkpt>
      <trkpt lat="43.6694" lon="3.80362">
        <ele>121</ele>
        <time>2021-03-06T14:15:45Z</time>
      </trkpt>
      <trkpt lat="43.66942" lon="3.80359">
        <ele>121</ele>
        <time>2021-03-06T14:15:46Z</time>
      </trkpt>
      <trkpt lat="43.66944" lon="3.80357">
        <ele>121</ele>
        <time>2021-03-06T14:15:47Z</time>
      </trkpt>
      <trkpt lat="43.66946" lon="3.80356">
        <ele>121</ele>
        <time>2021-03-06T14:15:48Z</time>
      </trkpt>
      <trkpt lat="43.66948" lon="3.80354">
        <ele>121</ele>
        <time>2021-03-06T14:15:49Z</time>
      </trkpt>
      <trkpt lat="43.6695" lon="3.80353">
        <ele>121</ele>
        <time>2021-03-06T14:15:50Z</time>
      </trkpt>
      <trkpt lat="43.66951" lon="3.80352">
        <ele>121</ele>
        <time>2021-03-06T14:15:51Z</time>
      </trkpt>
      <trkpt lat="43.66954" lon="3.8035">
        <ele>122</ele>
        <time>2021-03-06T14:15:53Z</time>
      </trkpt>
      <trkpt lat="43.66956" lon="3.80348">
        <ele>122</ele>
        <time>2021-03-06T14:15:55Z</time>
      </trkpt>
      <trkpt lat="43.66959" lon="3.80346">
        <ele>122</ele>
        <time>2021-03-06T14:15:57Z</time>
      </trkpt>
      <trkpt lat="43.66962" lon="3.80344">
        <ele>122</ele>
        <time>2021-03-06T14:15:59Z</time>
      </trkpt>
      <trkpt lat="43.66965" lon="3.80343">
        <ele>122</ele>
        <time>2021-03-06T14:16:01Z</time>
      </trkpt>
      <trkpt lat="43.66968" lon="3.80341">
        <ele>122</ele>
        <time>2021-03-06T14:16:03Z</time>
      </trkpt>
      <trkpt lat="43.66969" lon="3.80339">
        <ele>122</ele>
        <time>2021-03-06T14:16:04Z</time>
      </trkpt>
      <trkpt lat="43.66971" lon="3.80337">
        <ele>122</ele>
        <time>2021-03-06T14:16:06Z</time>
      </trkpt>
      <trkpt lat="43.66973" lon="3.80335">
        <ele>122</ele>
        <time>2021-03-06T14:16:07Z</time>
      </trkpt>
      <trkpt lat="43.66975" lon="3.80333">
        <ele>122</ele>
        <time>2021-03-06T14:16:09Z</time>
      </trkpt>
      <trkpt lat="43.66978" lon="3.80331">
        <ele>122</ele>
        <time>2021-03-06T14:16:11Z</time>
      </trkpt>
      <trkpt lat="43.66979" lon="3.80327">
        <ele>122</ele>
        <time>2021-03-06T14:16:14Z</time>
      </trkpt>
      <trkpt lat="43.6698" lon="3.80323">
        <ele>122</ele>
        <time>2021-03-06T14:16:16Z</time>
      </trkpt>
      <trkpt lat="43.6698" lon="3.80318">
        <ele>122</ele>
        <time>2021-03-06T14:16:18Z</time>
      </trkpt>
      <trkpt lat="43.6698" lon="3.80316">
        <ele>122</ele>
        <time>2021-03-06T14:16:19Z</time>
      </trkpt>
      <trkpt lat="43.66979" lon="3.80313">
        <ele>122</ele>
        <time>2021-03-06T14:16:20Z</time>
      </trkpt>
      <trkpt lat="43.66979" lon="3.80311">
        <ele>122</ele>
        <time>2021-03-06T14:16:21Z</time>
      </trkpt>
      <trkpt lat="43.66978" lon="3.80309">
        <ele>122</ele>
        <time>2021-03-06T14:16:22Z</time>
      </trkpt>
      <trkpt lat="43.66976" lon="3.80304">
        <ele>122</ele>
        <time>2021-03-06T14:16:24Z</time>
      </trkpt>
      <trkpt lat="43.66974" lon="3.803">
        <ele>122</ele>
        <time>2021-03-06T14:16:26Z</time>
      </trkpt>
      <trkpt lat="43.66973" lon="3.80298">
        <ele>122</ele>
        <time>2021-03-06T14:16:27Z</time>
      </trkpt>
      <trkpt lat="43.66971" lon="3.80295">
        <ele>122</ele>
        <time>2021-03-06T14:16:29Z</time>
      </trkpt>
      <trkpt lat="43.66969" lon="3.80293">
        <ele>122</ele>
        <time>2021-03-06T14:16:31Z</time>
      </trkpt>
      <trkpt lat="43.66966" lon="3.80291">
        <ele>124</ele>
        <time>2021-03-06T14:16:33Z</time>
      </trkpt>
      <trkpt lat="43.66965" lon="3.8029">
        <ele>124</ele>
        <time>2021-03-06T14:16:34Z</time>
      </trkpt>
      <trkpt lat="43.66963" lon="3.80288">
        <ele>124</ele>
        <time>2021-03-06T14:16:35Z</time>
      </trkpt>
      <trkpt lat="43.66961" lon="3.80287">
        <ele>124</ele>
        <time>2021-03-06T14:16:36Z</time>
      </trkpt>
      <trkpt lat="43.66959" lon="3.80286">
        <ele>124</ele>
        <time>2021-03-06T14:16:37Z</time>
      </trkpt>
      <trkpt lat="43.66958" lon="3.80285">
        <ele>124</ele>
        <time>2021-03-06T14:16:38Z</time>
      </trkpt>
      <trkpt lat="43.66956" lon="3.80285">
        <ele>124</ele>
        <time>2021-03-06T14:16:39Z</time>
      </trkpt>
      <trkpt lat="43.66953" lon="3.80283">
        <ele>124</ele>
        <time>2021-03-06T14:16:41Z</time>
      </trkpt>
      <trkpt lat="43.6695" lon="3.80281">
        <ele>123</ele>
        <time>2021-03-06T14:16:43Z</time>
      </trkpt>
      <trkpt lat="43.66947" lon="3.80279">
        <ele>123</ele>
        <time>2021-03-06T14:16:45Z</time>
      </trkpt>
      <trkpt lat="43.66945" lon="3.80278">
        <ele>123</ele>
        <time>2021-03-06T14:16:46Z</time>
      </trkpt>
      <trkpt lat="43.66942" lon="3.80277">
        <ele>123</ele>
        <time>2021-03-06T14:16:48Z</time>
      </trkpt>
      <trkpt lat="43.66939" lon="3.80276">
        <ele>123</ele>
        <time>2021-03-06T14:16:50Z</time>
      </trkpt>
      <trkpt lat="43.66936" lon="3.80274">
        <ele>123</ele>
        <time>2021-03-06T14:16:52Z</time>
      </trkpt>
      <trkpt lat="43.66933" lon="3.80273">
        <ele>123</ele>
        <time>2021-03-06T14:16:54Z</time>
      </trkpt>
      <trkpt lat="43.66931" lon="3.80271">
        <ele>123</ele>
        <time>2021-03-06T14:16:56Z</time>
      </trkpt>
      <trkpt lat="43.66928" lon="3.8027">
        <ele>123</ele>
        <time>2021-03-06T14:16:58Z</time>
      </trkpt>
      <trkpt lat="43.66925" lon="3.80269">
        <ele>123</ele>
        <time>2021-03-06T14:17:00Z</time>
      </trkpt>
      <trkpt lat="43.66922" lon="3.80268">
        <ele>123</ele>
        <time>2021-03-06T14:17:02Z</time>
      </trkpt>
      <trkpt lat="43.66919" lon="3.80267">
        <ele>124</ele>
        <time>2021-03-06T14:17:03Z</time>
      </trkpt>
      <trkpt lat="43.66916" lon="3.80266">
        <ele>124</ele>
        <time>2021-03-06T14:17:05Z</time>
      </trkpt>
      <trkpt lat="43.66914" lon="3.80266">
        <ele>124</ele>
        <time>2021-03-06T14:17:06Z</time>
      </trkpt>
      <trkpt lat="43.66912" lon="3.80265">
        <ele>124</ele>
        <time>2021-03-06T14:17:07Z</time>
      </trkpt>
      <trkpt lat="43.6691" lon="3.80264">
        <ele>124</ele>
        <time>2021-03-06T14:17:08Z</time>
      </trkpt>
      <trkpt lat="43.66907" lon="3.80263">
        <ele>124</ele>
        <time>2021-03-06T14:17:11Z</time>
      </trkpt>
      <trkpt lat="43.66904" lon="3.80261">
        <ele>124</ele>
        <time>2021-03-06T14:17:12Z</time>
      </trkpt>
      <trkpt lat="43.66902" lon="3.80259">
        <ele>124</ele>
        <time>2021-03-06T14:17:15Z</time>
      </trkpt>
      <trkpt lat="43.66899" lon="3.80258">
        <ele>124</ele>
        <time>2021-03-06T14:17:17Z</time>
      </trkpt>
      <trkpt lat="43.66896" lon="3.80257">
        <ele>124</ele>
        <time>2021-03-06T14:17:19Z</time>
      </trkpt>
      <trkpt lat="43.66889" lon="3.80252">
        <ele>124</ele>
        <time>2021-03-06T14:17:24Z</time>
      </trkpt>
      <trkpt lat="43.66885" lon="3.80251">
        <ele>124</ele>
        <time>2021-03-06T14:17:26Z</time>
      </trkpt>
      <trkpt lat="43.66883" lon="3.80251">
        <ele>124</ele>
        <time>2021-03-06T14:17:28Z</time>
      </trkpt>
      <trkpt lat="43.66881" lon="3.8025">
        <ele>124</ele>
        <time>2021-03-06T14:17:30Z</time>
      </trkpt>
      <trkpt lat="43.66878" lon="3.8025">
        <ele>124</ele>
        <time>2021-03-06T14:17:32Z</time>
      </trkpt>
      <trkpt lat="43.66874" lon="3.80249">
        <ele>124</ele>
        <time>2021-03-06T14:17:34Z</time>
      </trkpt>
      <trkpt lat="43.66871" lon="3.80249">
        <ele>124</ele>
        <time>2021-03-06T14:17:36Z</time>
      </trkpt>
      <trkpt lat="43.66868" lon="3.80248">
        <ele>124</ele>
        <time>2021-03-06T14:17:38Z</time>
      </trkpt>
      <trkpt lat="43.66866" lon="3.80248">
        <ele>124</ele>
        <time>2021-03-06T14:17:39Z</time>
      </trkpt>
      <trkpt lat="43.66863" lon="3.80249">
        <ele>124</ele>
        <time>2021-03-06T14:17:41Z</time>
      </trkpt>
      <trkpt lat="43.6686" lon="3.80249">
        <ele>126</ele>
        <time>2021-03-06T14:17:43Z</time>
      </trkpt>
      <trkpt lat="43.66856" lon="3.80249">
        <ele>126</ele>
        <time>2021-03-06T14:17:45Z</time>
      </trkpt>
      <trkpt lat="43.66855" lon="3.8025">
        <ele>126</ele>
        <time>2021-03-06T14:17:46Z</time>
      </trkpt>
      <trkpt lat="43.66853" lon="3.8025">
        <ele>126</ele>
        <time>2021-03-06T14:17:47Z</time>
      </trkpt>
      <trkpt lat="43.6685" lon="3.80252">
        <ele>126</ele>
        <time>2021-03-06T14:17:49Z</time>
      </trkpt>
      <trkpt lat="43.66848" lon="3.80254">
        <ele>126</ele>
        <time>2021-03-06T14:17:50Z</time>
      </trkpt>
      <trkpt lat="43.66846" lon="3.80255">
        <ele>126</ele>
        <time>2021-03-06T14:17:51Z</time>
      </trkpt>
      <trkpt lat="43.66844" lon="3.80257">
        <ele>126</ele>
        <time>2021-03-06T14:17:52Z</time>
      </trkpt>
      <trkpt lat="43.66842" lon="3.80258">
        <ele>127</ele>
        <time>2021-03-06T14:17:53Z</time>
      </trkpt>
      <trkpt lat="43.6684" lon="3.8026">
        <ele>127</ele>
        <time>2021-03-06T14:17:54Z</time>
      </trkpt>
      <trkpt lat="43.66838" lon="3.80261">
        <ele>127</ele>
        <time>2021-03-06T14:17:55Z</time>
      </trkpt>
      <trkpt lat="43.66837" lon="3.80263">
        <ele>127</ele>
        <time>2021-03-06T14:17:56Z</time>
      </trkpt>
      <trkpt lat="43.66835" lon="3.80265">
        <ele>127</ele>
        <time>2021-03-06T14:17:57Z</time>
      </trkpt>
      <trkpt lat="43.66833" lon="3.80266">
        <ele>127</ele>
        <time>2021-03-06T14:17:58Z</time>
      </trkpt>
      <trkpt lat="43.66831" lon="3.80267">
        <ele>127</ele>
        <time>2021-03-06T14:17:59Z</time>
      </trkpt>
      <trkpt lat="43.66829" lon="3.80268">
        <ele>127</ele>
        <time>2021-03-06T14:18:01Z</time>
      </trkpt>
      <trkpt lat="43.66824" lon="3.80271">
        <ele>127</ele>
        <time>2021-03-06T14:18:04Z</time>
      </trkpt>
      <trkpt lat="43.66822" lon="3.80272">
        <ele>127</ele>
        <time>2021-03-06T14:18:05Z</time>
      </trkpt>
      <trkpt lat="43.6682" lon="3.80274">
        <ele>127</ele>
        <time>2021-03-06T14:18:06Z</time>
      </trkpt>
      <trkpt lat="43.66818" lon="3.80275">
        <ele>127</ele>
        <time>2021-03-06T14:18:07Z</time>
      </trkpt>
      <trkpt lat="43.66816" lon="3.80275">
        <ele>127</ele>
        <time>2021-03-06T14:18:08Z</time>
      </trkpt>
      <trkpt lat="43.66806" lon="3.80276">
        <ele>130</ele>
        <time>2021-03-06T14:18:13Z</time>
      </trkpt>
      <trkpt lat="43.66796" lon="3.80277">
        <ele>130</ele>
        <time>2021-03-06T14:18:19Z</time>
      </trkpt>
      <trkpt lat="43.66795" lon="3.80276">
        <ele>130</ele>
        <time>2021-03-06T14:18:20Z</time>
      </trkpt>
      <trkpt lat="43.66786" lon="3.80275">
        <ele>130</ele>
        <time>2021-03-06T14:18:24Z</time>
      </trkpt>
      <trkpt lat="43.66784" lon="3.80275">
        <ele>130</ele>
        <time>2021-03-06T14:18:25Z</time>
      </trkpt>
      <trkpt lat="43.66775" lon="3.80274">
        <ele>130</ele>
        <time>2021-03-06T14:18:30Z</time>
      </trkpt>
      <trkpt lat="43.66772" lon="3.80274">
        <ele>130</ele>
        <time>2021-03-06T14:18:32Z</time>
      </trkpt>
      <trkpt lat="43.6677" lon="3.80274">
        <ele>130</ele>
        <time>2021-03-06T14:18:34Z</time>
      </trkpt>
      <trkpt lat="43.66768" lon="3.80274">
        <ele>130</ele>
        <time>2021-03-06T14:18:35Z</time>
      </trkpt>
      <trkpt lat="43.66764" lon="3.80274">
        <ele>130</ele>
        <time>2021-03-06T14:18:37Z</time>
      </trkpt>
      <trkpt lat="43.66761" lon="3.80274">
        <ele>130</ele>
        <time>2021-03-06T14:18:39Z</time>
      </trkpt>
      <trkpt lat="43.66758" lon="3.80274">
        <ele>130</ele>
        <time>2021-03-06T14:18:40Z</time>
      </trkpt>
      <trkpt lat="43.66756" lon="3.80274">
        <ele>130</ele>
        <time>2021-03-06T14:18:41Z</time>
      </trkpt>
      <trkpt lat="43.66754" lon="3.80274">
        <ele>130</ele>
        <time>2021-03-06T14:18:42Z</time>
      </trkpt>
      <trkpt lat="43.66752" lon="3.80274">
        <ele>135</ele>
        <time>2021-03-06T14:18:43Z</time>
      </trkpt>
      <trkpt lat="43.6675" lon="3.80274">
        <ele>135</ele>
        <time>2021-03-06T14:18:44Z</time>
      </trkpt>
      <trkpt lat="43.66748" lon="3.80274">
        <ele>135</ele>
        <time>2021-03-06T14:18:45Z</time>
      </trkpt>
      <trkpt lat="43.66744" lon="3.80274">
        <ele>135</ele>
        <time>2021-03-06T14:18:47Z</time>
      </trkpt>
      <trkpt lat="43.6674" lon="3.80274">
        <ele>135</ele>
        <time>2021-03-06T14:18:49Z</time>
      </trkpt>
      <trkpt lat="43.66738" lon="3.80274">
        <ele>135</ele>
        <time>2021-03-06T14:18:50Z</time>
      </trkpt>
      <trkpt lat="43.66736" lon="3.80274">
        <ele>135</ele>
        <time>2021-03-06T14:18:51Z</time>
      </trkpt>
      <trkpt lat="43.66734" lon="3.80275">
        <ele>135</ele>
        <time>2021-03-06T14:18:52Z</time>
      </trkpt>
      <trkpt lat="43.66732" lon="3.80275">
        <ele>135</ele>
        <time>2021-03-06T14:18:53Z</time>
      </trkpt>
      <trkpt lat="43.6673" lon="3.80276">
        <ele>134</ele>
        <time>2021-03-06T14:18:54Z</time>
      </trkpt>
      <trkpt lat="43.66726" lon="3.80276">
        <ele>134</ele>
        <time>2021-03-06T14:18:55Z</time>
      </trkpt>
      <trkpt lat="43.66724" lon="3.80276">
        <ele>134</ele>
        <time>2021-03-06T14:18:56Z</time>
      </trkpt>
      <trkpt lat="43.66721" lon="3.80275">
        <ele>134</ele>
        <time>2021-03-06T14:18:58Z</time>
      </trkpt>
      <trkpt lat="43.66719" lon="3.80275">
        <ele>134</ele>
        <time>2021-03-06T14:18:59Z</time>
      </trkpt>
      <trkpt lat="43.66715" lon="3.80276">
        <ele>134</ele>
        <time>2021-03-06T14:19:01Z</time>
      </trkpt>
      <trkpt lat="43.66713" lon="3.80276">
        <ele>134</ele>
        <time>2021-03-06T14:19:02Z</time>
      </trkpt>
      <trkpt lat="43.6671" lon="3.80277">
        <ele>134</ele>
        <time>2021-03-06T14:19:05Z</time>
      </trkpt>
      <trkpt lat="43.66708" lon="3.80277">
        <ele>134</ele>
        <time>2021-03-06T14:19:06Z</time>
      </trkpt>
      <trkpt lat="43.66706" lon="3.80277">
        <ele>134</ele>
        <time>2021-03-06T14:19:07Z</time>
      </trkpt>
      <trkpt lat="43.66702" lon="3.80278">
        <ele>134</ele>
        <time>2021-03-06T14:19:09Z</time>
      </trkpt>
      <trkpt lat="43.66699" lon="3.80279">
        <ele>134</ele>
        <time>2021-03-06T14:19:11Z</time>
      </trkpt>
      <trkpt lat="43.66696" lon="3.8028">
        <ele>135</ele>
        <time>2021-03-06T14:19:13Z</time>
      </trkpt>
      <trkpt lat="43.66694" lon="3.80281">
        <ele>135</ele>
        <time>2021-03-06T14:19:14Z</time>
      </trkpt>
      <trkpt lat="43.66692" lon="3.80281">
        <ele>135</ele>
        <time>2021-03-06T14:19:15Z</time>
      </trkpt>
      <trkpt lat="43.6669" lon="3.8028">
        <ele>135</ele>
        <time>2021-03-06T14:19:16Z</time>
      </trkpt>
      <trkpt lat="43.66688" lon="3.8028">
        <ele>135</ele>
        <time>2021-03-06T14:19:17Z</time>
      </trkpt>
      <trkpt lat="43.66686" lon="3.8028">
        <ele>135</ele>
        <time>2021-03-06T14:19:18Z</time>
      </trkpt>
      <trkpt lat="43.66684" lon="3.8028">
        <ele>135</ele>
        <time>2021-03-06T14:19:19Z</time>
      </trkpt>
      <trkpt lat="43.66682" lon="3.80279">
        <ele>135</ele>
        <time>2021-03-06T14:19:20Z</time>
      </trkpt>
      <trkpt lat="43.6668" lon="3.80279">
        <ele>135</ele>
        <time>2021-03-06T14:19:21Z</time>
      </trkpt>
      <trkpt lat="43.66678" lon="3.80279">
        <ele>135</ele>
        <time>2021-03-06T14:19:22Z</time>
      </trkpt>
      <trkpt lat="43.66676" lon="3.80279">
        <ele>135</ele>
        <time>2021-03-06T14:19:23Z</time>
      </trkpt>
      <trkpt lat="43.66674" lon="3.80278">
        <ele>135</ele>
        <time>2021-03-06T14:19:24Z</time>
      </trkpt>
      <trkpt lat="43.66671" lon="3.80278">
        <ele>135</ele>
        <time>2021-03-06T14:19:25Z</time>
      </trkpt>
      <trkpt lat="43.66669" lon="3.80277">
        <ele>135</ele>
        <time>2021-03-06T14:19:26Z</time>
      </trkpt>
      <trkpt lat="43.66667" lon="3.80277">
        <ele>135</ele>
        <time>2021-03-06T14:19:27Z</time>
      </trkpt>
      <trkpt lat="43.66664" lon="3.80276">
        <ele>135</ele>
        <time>2021-03-06T14:19:28Z</time>
      </trkpt>
      <trkpt lat="43.66662" lon="3.80276">
        <ele>135</ele>
        <time>2021-03-06T14:19:29Z</time>
      </trkpt>
      <trkpt lat="43.66659" lon="3.80275">
        <ele>135</ele>
        <time>2021-03-06T14:19:30Z</time>
      </trkpt>
      <trkpt lat="43.66657" lon="3.80275">
        <ele>135</ele>
        <time>2021-03-06T14:19:31Z</time>
      </trkpt>
      <trkpt lat="43.66655" lon="3.80274">
        <ele>135</ele>
        <time>2021-03-06T14:19:32Z</time>
      </trkpt>
      <trkpt lat="43.66652" lon="3.80274">
        <ele>135</ele>
        <time>2021-03-06T14:19:33Z</time>
      </trkpt>
      <trkpt lat="43.6665" lon="3.80274">
        <ele>135</ele>
        <time>2021-03-06T14:19:34Z</time>
      </trkpt>
      <trkpt lat="43.66647" lon="3.80274">
        <ele>135</ele>
        <time>2021-03-06T14:19:35Z</time>
      </trkpt>
      <trkpt lat="43.66645" lon="3.80273">
        <ele>135</ele>
        <time>2021-03-06T14:19:36Z</time>
      </trkpt>
      <trkpt lat="43.66642" lon="3.80273">
        <ele>135</ele>
        <time>2021-03-06T14:19:37Z</time>
      </trkpt>
      <trkpt lat="43.6664" lon="3.80273">
        <ele>135</ele>
        <time>2021-03-06T14:19:38Z</time>
      </trkpt>
      <trkpt lat="43.66638" lon="3.80273">
        <ele>135</ele>
        <time>2021-03-06T14:19:39Z</time>
      </trkpt>
      <trkpt lat="43.66635" lon="3.80273">
        <ele>135</ele>
        <time>2021-03-06T14:19:40Z</time>
      </trkpt>
      <trkpt lat="43.66633" lon="3.80273">
        <ele>135</ele>
        <time>2021-03-06T14:19:41Z</time>
      </trkpt>
      <trkpt lat="43.66631" lon="3.80273">
        <ele>135</ele>
        <time>2021-03-06T14:19:42Z</time>
      </trkpt>
      <trkpt lat="43.66628" lon="3.80273">
        <ele>135</ele>
        <time>2021-03-06T14:19:43Z</time>
      </trkpt>
      <trkpt lat="43.66626" lon="3.80274">
        <ele>135</ele>
        <time>2021-03-06T14:19:44Z</time>
      </trkpt>
      <trkpt lat="43.66623" lon="3.80275">
        <ele>135</ele>
        <time>2021-03-06T14:19:46Z</time>
      </trkpt>
      <trkpt lat="43.66621" lon="3.80276">
        <ele>135</ele>
        <time>2021-03-06T14:19:47Z</time>
      </trkpt>
      <trkpt lat="43.66619" lon="3.80276">
        <ele>135</ele>
        <time>2021-03-06T14:19:48Z</time>
      </trkpt>
      <trkpt lat="43.66617" lon="3.80277">
        <ele>135</ele>
        <time>2021-03-06T14:19:49Z</time>
      </trkpt>
      <trkpt lat="43.66614" lon="3.80279">
        <ele>135</ele>
        <time>2021-03-06T14:19:51Z</time>
      </trkpt>
      <trkpt lat="43.66612" lon="3.80281">
        <ele>135</ele>
        <time>2021-03-06T14:19:52Z</time>
      </trkpt>
      <trkpt lat="43.6661" lon="3.80282">
        <ele>135</ele>
        <time>2021-03-06T14:19:53Z</time>
      </trkpt>
      <trkpt lat="43.66608" lon="3.80282">
        <ele>135</ele>
        <time>2021-03-06T14:19:54Z</time>
      </trkpt>
      <trkpt lat="43.66605" lon="3.80283">
        <ele>135</ele>
        <time>2021-03-06T14:19:55Z</time>
      </trkpt>
      <trkpt lat="43.66602" lon="3.80284">
        <ele>135</ele>
        <time>2021-03-06T14:19:56Z</time>
      </trkpt>
      <trkpt lat="43.66598" lon="3.80285">
        <ele>135</ele>
        <time>2021-03-06T14:19:57Z</time>
      </trkpt>
      <trkpt lat="43.66594" lon="3.80286">
        <ele>135</ele>
        <time>2021-03-06T14:19:58Z</time>
      </trkpt>
      <trkpt lat="43.66591" lon="3.80289">
        <ele>135</ele>
        <time>2021-03-06T14:19:59Z</time>
      </trkpt>
      <trkpt lat="43.66587" lon="3.80293">
        <ele>135</ele>
        <time>2021-03-06T14:20:00Z</time>
      </trkpt>
      <trkpt lat="43.66585" lon="3.80296">
        <ele>135</ele>
        <time>2021-03-06T14:20:01Z</time>
      </trkpt>
      <trkpt lat="43.66582" lon="3.80298">
        <ele>135</ele>
        <time>2021-03-06T14:20:02Z</time>
      </trkpt>
      <trkpt lat="43.6658" lon="3.803">
        <ele>135</ele>
        <time>2021-03-06T14:20:03Z</time>
      </trkpt>
      <trkpt lat="43.66578" lon="3.80302">
        <ele>135</ele>
        <time>2021-03-06T14:20:04Z</time>
      </trkpt>
      <trkpt lat="43.66577" lon="3.80304">
        <ele>135</ele>
        <time>2021-03-06T14:20:05Z</time>
      </trkpt>
      <trkpt lat="43.66575" lon="3.80306">
        <ele>135</ele>
        <time>2021-03-06T14:20:06Z</time>
      </trkpt>
      <trkpt lat="43.66573" lon="3.80309">
        <ele>135</ele>
        <time>2021-03-06T14:20:07Z</time>
      </trkpt>
      <trkpt lat="43.66572" lon="3.80311">
        <ele>135</ele>
        <time>2021-03-06T14:20:08Z</time>
      </trkpt>
      <trkpt lat="43.6657" lon="3.80312">
        <ele>135</ele>
        <time>2021-03-06T14:20:09Z</time>
      </trkpt>
      <trkpt lat="43.66568" lon="3.80313">
        <ele>135</ele>
        <time>2021-03-06T14:20:10Z</time>
      </trkpt>
      <trkpt lat="43.66566" lon="3.80314">
        <ele>135</ele>
        <time>2021-03-06T14:20:11Z</time>
      </trkpt>
      <trkpt lat="43.66564" lon="3.80316">
        <ele>135</ele>
        <time>2021-03-06T14:20:12Z</time>
      </trkpt>
      <trkpt lat="43.66563" lon="3.80318">
        <ele>137</ele>
        <time>2021-03-06T14:20:13Z</time>
      </trkpt>
      <trkpt lat="43.66561" lon="3.80319">
        <ele>137</ele>
        <time>2021-03-06T14:20:14Z</time>
      </trkpt>
      <trkpt lat="43.66559" lon="3.80322">
        <ele>137</ele>
        <time>2021-03-06T14:20:15Z</time>
      </trkpt>
      <trkpt lat="43.66558" lon="3.80323">
        <ele>137</ele>
        <time>2021-03-06T14:20:16Z</time>
      </trkpt>
      <trkpt lat="43.66556" lon="3.80325">
        <ele>137</ele>
        <time>2021-03-06T14:20:17Z</time>
      </trkpt>
      <trkpt lat="43.66554" lon="3.80327">
        <ele>137</ele>
        <time>2021-03-06T14:20:18Z</time>
      </trkpt>
      <trkpt lat="43.66552" lon="3.80328">
        <ele>137</ele>
        <time>2021-03-06T14:20:19Z</time>
      </trkpt>
      <trkpt lat="43.66549" lon="3.80329">
        <ele>137</ele>
        <time>2021-03-06T14:20:20Z</time>
      </trkpt>
      <trkpt lat="43.66548" lon="3.8033">
        <ele>137</ele>
        <time>2021-03-06T14:20:21Z</time>
      </trkpt>
      <trkpt lat="43.66546" lon="3.80331">
        <ele>137</ele>
        <time>2021-03-06T14:20:22Z</time>
      </trkpt>
      <trkpt lat="43.66544" lon="3.80333">
        <ele>139</ele>
        <time>2021-03-06T14:20:23Z</time>
      </trkpt>
      <trkpt lat="43.66543" lon="3.80335">
        <ele>139</ele>
        <time>2021-03-06T14:20:24Z</time>
      </trkpt>
      <trkpt lat="43.66541" lon="3.80337">
        <ele>139</ele>
        <time>2021-03-06T14:20:26Z</time>
      </trkpt>
      <trkpt lat="43.66539" lon="3.8034">
        <ele>139</ele>
        <time>2021-03-06T14:20:28Z</time>
      </trkpt>
      <trkpt lat="43.66537" lon="3.80343">
        <ele>139</ele>
        <time>2021-03-06T14:20:30Z</time>
      </trkpt>
      <trkpt lat="43.66534" lon="3.80345">
        <ele>139</ele>
        <time>2021-03-06T14:20:32Z</time>
      </trkpt>
      <trkpt lat="43.66532" lon="3.80347">
        <ele>139</ele>
        <time>2021-03-06T14:20:34Z</time>
      </trkpt>
      <trkpt lat="43.6653" lon="3.80349">
        <ele>139</ele>
        <time>2021-03-06T14:20:36Z</time>
      </trkpt>
      <trkpt lat="43.66528" lon="3.80352">
        <ele>139</ele>
        <time>2021-03-06T14:20:38Z</time>
      </trkpt>
      <trkpt lat="43.66525" lon="3.80354">
        <ele>139</ele>
        <time>2021-03-06T14:20:40Z</time>
      </trkpt>
      <trkpt lat="43.66522" lon="3.80356">
        <ele>139</ele>
        <time>2021-03-06T14:20:42Z</time>
      </trkpt>
      <trkpt lat="43.66519" lon="3.80359">
        <ele>139</ele>
        <time>2021-03-06T14:20:44Z</time>
      </trkpt>
      <trkpt lat="43.66517" lon="3.80361">
        <ele>139</ele>
        <time>2021-03-06T14:20:45Z</time>
      </trkpt>
      <trkpt lat="43.66516" lon="3.80363">
        <ele>139</ele>
        <time>2021-03-06T14:20:46Z</time>
      </trkpt>
      <trkpt lat="43.66515" lon="3.80365">
        <ele>139</ele>
        <time>2021-03-06T14:20:47Z</time>
      </trkpt>
      <trkpt lat="43.66513" lon="3.80366">
        <ele>139</ele>
        <time>2021-03-06T14:20:48Z</time>
      </trkpt>
      <trkpt lat="43.66511" lon="3.8037">
        <ele>139</ele>
        <time>2021-03-06T14:20:50Z</time>
      </trkpt>
      <trkpt lat="43.6651" lon="3.80375">
        <ele>139</ele>
        <time>2021-03-06T14:20:52Z</time>
      </trkpt>
      <trkpt lat="43.66509" lon="3.80377">
        <ele>145</ele>
        <time>2021-03-06T14:20:53Z</time>
      </trkpt>
      <trkpt lat="43.66508" lon="3.80381">
        <ele>145</ele>
        <time>2021-03-06T14:20:55Z</time>
      </trkpt>
      <trkpt lat="43.66507" lon="3.80385">
        <ele>145</ele>
        <time>2021-03-06T14:20:57Z</time>
      </trkpt>
      <trkpt lat="43.66506" lon="3.80389">
        <ele>145</ele>
        <time>2021-03-06T14:20:59Z</time>
      </trkpt>
      <trkpt lat="43.66505" lon="3.80393">
        <ele>145</ele>
        <time>2021-03-06T14:21:01Z</time>
      </trkpt>
      <trkpt lat="43.66504" lon="3.80397">
        <ele>147</ele>
        <time>2021-03-06T14:21:03Z</time>
      </trkpt>
      <trkpt lat="43.66503" lon="3.804">
        <ele>147</ele>
        <time>2021-03-06T14:21:05Z</time>
      </trkpt>
      <trkpt lat="43.66503" lon="3.80404">
        <ele>147</ele>
        <time>2021-03-06T14:21:07Z</time>
      </trkpt>
      <trkpt lat="43.665" lon="3.80407">
        <ele>147</ele>
        <time>2021-03-06T14:21:09Z</time>
      </trkpt>
      <trkpt lat="43.66498" lon="3.80407">
        <ele>147</ele>
        <time>2021-03-06T14:21:11Z</time>
      </trkpt>
      <trkpt lat="43.66495" lon="3.80407">
        <ele>148</ele>
        <time>2021-03-06T14:21:13Z</time>
      </trkpt>
      <trkpt lat="43.66493" lon="3.80405">
        <ele>148</ele>
        <time>2021-03-06T14:21:15Z</time>
      </trkpt>
      <trkpt lat="43.66493" lon="3.804">
        <ele>148</ele>
        <time>2021-03-06T14:21:17Z</time>
      </trkpt>
      <trkpt lat="43.66495" lon="3.80396">
        <ele>148</ele>
        <time>2021-03-06T14:21:19Z</time>
      </trkpt>
      <trkpt lat="43.66497" lon="3.80394">
        <ele>148</ele>
        <time>2021-03-06T14:21:21Z</time>
      </trkpt>
      <trkpt lat="43.665" lon="3.80395">
        <ele>149</ele>
        <time>2021-03-06T14:21:23Z</time>
      </trkpt>
      <trkpt lat="43.665" lon="3.80398">
        <ele>149</ele>
        <time>2021-03-06T14:21:25Z</time>
      </trkpt>
      <trkpt lat="43.66499" lon="3.80401">
        <ele>149</ele>
        <time>2021-03-06T14:21:27Z</time>
      </trkpt>
      <trkpt lat="43.66497" lon="3.80399">
        <ele>149</ele>
        <time>2021-03-06T14:21:29Z</time>
      </trkpt>
      <trkpt lat="43.66495" lon="3.80398">
        <ele>149</ele>
        <time>2021-03-06T14:21:31Z</time>
      </trkpt>
      <trkpt lat="43.66493" lon="3.80399">
        <ele>151</ele>
        <time>2021-03-06T14:21:33Z</time>
      </trkpt>
      <trkpt lat="43.66491" lon="3.80401">
        <ele>151</ele>
        <time>2021-03-06T14:21:36Z</time>
      </trkpt>
      <trkpt lat="43.66489" lon="3.80402">
        <ele>151</ele>
        <time>2021-03-06T14:21:40Z</time>
      </trkpt>
      <trkpt lat="43.66492" lon="3.80404">
        <ele>154</ele>
        <time>2021-03-06T14:22:27Z</time>
      </trkpt>
      <trkpt lat="43.66493" lon="3.80403">
        <ele>154</ele>
        <time>2021-03-06T14:22:31Z</time>
      </trkpt>
      <trkpt lat="43.66495" lon="3.80402">
        <ele>154</ele>
        <time>2021-03-06T14:22:35Z</time>
      </trkpt>
      <trkpt lat="43.66498" lon="3.80401">
        <ele>154</ele>
        <time>2021-03-06T14:22:37Z</time>
      </trkpt>
      <trkpt lat="43.66499" lon="3.80401">
        <ele>154</ele>
        <time>2021-03-06T14:22:40Z</time>
      </trkpt>
      <trkpt lat="43.66501" lon="3.80401">
        <ele>154</ele>
        <time>2021-03-06T14:22:45Z</time>
      </trkpt>
      <trkpt lat="43.66503" lon="3.80402">
        <ele>154</ele>
        <time>2021-03-06T14:22:51Z</time>
      </trkpt>
      <trkpt lat="43.66505" lon="3.80403">
        <ele>154</ele>
        <time>2021-03-06T14:22:56Z</time>
      </trkpt>
      <trkpt lat="43.66505" lon="3.80404">
        <ele>157</ele>
        <time>2021-03-06T14:22:58Z</time>
      </trkpt>
      <trkpt lat="43.66511" lon="3.80405">
        <ele>156</ele>
        <time>2021-03-06T14:23:04Z</time>
      </trkpt>
      <trkpt lat="43.6651" lon="3.80402">
        <ele>156</ele>
        <time>2021-03-06T14:23:06Z</time>
      </trkpt>
      <trkpt lat="43.66506" lon="3.80401">
        <ele>156</ele>
        <time>2021-03-06T14:23:08Z</time>
      </trkpt>
      <trkpt lat="43.66504" lon="3.80401">
        <ele>156</ele>
        <time>2021-03-06T14:23:10Z</time>
      </trkpt>
      <trkpt lat="43.66502" lon="3.80401">
        <ele>156</ele>
        <time>2021-03-06T14:23:13Z</time>
      </trkpt>
      <trkpt lat="43.665" lon="3.80399">
        <ele>156</ele>
        <time>2021-03-06T14:23:16Z</time>
      </trkpt>
      <trkpt lat="43.66497" lon="3.804">
        <ele>156</ele>
        <time>2021-03-06T14:23:19Z</time>
      </trkpt>
      <trkpt lat="43.66495" lon="3.80402">
        <ele>156</ele>
        <time>2021-03-06T14:23:21Z</time>
      </trkpt>
      <trkpt lat="43.66489" lon="3.80409">
        <ele>157</ele>
        <time>2021-03-06T14:23:23Z</time>
      </trkpt>
      <trkpt lat="43.66486" lon="3.80412">
        <ele>157</ele>
        <time>2021-03-06T14:23:24Z</time>
      </trkpt>
      <trkpt lat="43.66484" lon="3.80414">
        <ele>157</ele>
        <time>2021-03-06T14:23:25Z</time>
      </trkpt>
      <trkpt lat="43.66482" lon="3.80416">
        <ele>157</ele>
        <time>2021-03-06T14:23:26Z</time>
      </trkpt>
      <trkpt lat="43.6648" lon="3.80418">
        <ele>157</ele>
        <time>2021-03-06T14:23:27Z</time>
      </trkpt>
      <trkpt lat="43.66478" lon="3.80419">
        <ele>157</ele>
        <time>2021-03-06T14:23:28Z</time>
      </trkpt>
      <trkpt lat="43.66476" lon="3.8042">
        <ele>157</ele>
        <time>2021-03-06T14:23:29Z</time>
      </trkpt>
      <trkpt lat="43.66474" lon="3.80421">
        <ele>157</ele>
        <time>2021-03-06T14:23:30Z</time>
      </trkpt>
      <trkpt lat="43.66472" lon="3.80421">
        <ele>157</ele>
        <time>2021-03-06T14:23:31Z</time>
      </trkpt>
      <trkpt lat="43.6647" lon="3.80423">
        <ele>157</ele>
        <time>2021-03-06T14:23:32Z</time>
      </trkpt>
      <trkpt lat="43.66466" lon="3.80425">
        <ele>157</ele>
        <time>2021-03-06T14:23:35Z</time>
      </trkpt>
      <trkpt lat="43.66464" lon="3.80427">
        <ele>157</ele>
        <time>2021-03-06T14:23:36Z</time>
      </trkpt>
      <trkpt lat="43.66461" lon="3.80428">
        <ele>157</ele>
        <time>2021-03-06T14:23:37Z</time>
      </trkpt>
      <trkpt lat="43.66458" lon="3.8043">
        <ele>157</ele>
        <time>2021-03-06T14:23:38Z</time>
      </trkpt>
      <trkpt lat="43.66456" lon="3.80433">
        <ele>157</ele>
        <time>2021-03-06T14:23:39Z</time>
      </trkpt>
      <trkpt lat="43.66453" lon="3.80436">
        <ele>157</ele>
        <time>2021-03-06T14:23:40Z</time>
      </trkpt>
      <trkpt lat="43.66451" lon="3.80438">
        <ele>157</ele>
        <time>2021-03-06T14:23:41Z</time>
      </trkpt>
      <trkpt lat="43.66448" lon="3.80441">
        <ele>157</ele>
        <time>2021-03-06T14:23:42Z</time>
      </trkpt>
      <trkpt lat="43.66446" lon="3.80443">
        <ele>156</ele>
        <time>2021-03-06T14:23:43Z</time>
      </trkpt>
      <trkpt lat="43.66444" lon="3.80445">
        <ele>156</ele>
        <time>2021-03-06T14:23:44Z</time>
      </trkpt>
      <trkpt lat="43.66441" lon="3.80447">
        <ele>156</ele>
        <time>2021-03-06T14:23:45Z</time>
      </trkpt>
      <trkpt lat="43.66439" lon="3.80448">
        <ele>156</ele>
        <time>2021-03-06T14:23:46Z</time>
      </trkpt>
      <trkpt lat="43.66436" lon="3.8045">
        <ele>156</ele>
        <time>2021-03-06T14:23:47Z</time>
      </trkpt>
      <trkpt lat="43.66433" lon="3.80453">
        <ele>156</ele>
        <time>2021-03-06T14:23:48Z</time>
      </trkpt>
      <trkpt lat="43.6643" lon="3.80455">
        <ele>156</ele>
        <time>2021-03-06T14:23:49Z</time>
      </trkpt>
      <trkpt lat="43.66426" lon="3.80457">
        <ele>156</ele>
        <time>2021-03-06T14:23:50Z</time>
      </trkpt>
      <trkpt lat="43.66414" lon="3.80462">
        <ele>156</ele>
        <time>2021-03-06T14:23:52Z</time>
      </trkpt>
      <trkpt lat="43.66408" lon="3.80464">
        <ele>154</ele>
        <time>2021-03-06T14:23:53Z</time>
      </trkpt>
      <trkpt lat="43.66404" lon="3.80464">
        <ele>154</ele>
        <time>2021-03-06T14:23:54Z</time>
      </trkpt>
      <trkpt lat="43.664" lon="3.80463">
        <ele>154</ele>
        <time>2021-03-06T14:23:55Z</time>
      </trkpt>
      <trkpt lat="43.66397" lon="3.80462">
        <ele>154</ele>
        <time>2021-03-06T14:23:56Z</time>
      </trkpt>
      <trkpt lat="43.66394" lon="3.8046">
        <ele>154</ele>
        <time>2021-03-06T14:23:57Z</time>
      </trkpt>
      <trkpt lat="43.6639" lon="3.80458">
        <ele>154</ele>
        <time>2021-03-06T14:23:58Z</time>
      </trkpt>
      <trkpt lat="43.66387" lon="3.80456">
        <ele>154</ele>
        <time>2021-03-06T14:23:59Z</time>
      </trkpt>
      <trkpt lat="43.66383" lon="3.80454">
        <ele>154</ele>
        <time>2021-03-06T14:24:00Z</time>
      </trkpt>
      <trkpt lat="43.6638" lon="3.80451">
        <ele>154</ele>
        <time>2021-03-06T14:24:01Z</time>
      </trkpt>
      <trkpt lat="43.66376" lon="3.80447">
        <ele>154</ele>
        <time>2021-03-06T14:24:02Z</time>
      </trkpt>
      <trkpt lat="43.66373" lon="3.80445">
        <ele>153</ele>
        <time>2021-03-06T14:24:03Z</time>
      </trkpt>
      <trkpt lat="43.6637" lon="3.80443">
        <ele>153</ele>
        <time>2021-03-06T14:24:04Z</time>
      </trkpt>
      <trkpt lat="43.66367" lon="3.8044">
        <ele>153</ele>
        <time>2021-03-06T14:24:05Z</time>
      </trkpt>
      <trkpt lat="43.66364" lon="3.80438">
        <ele>153</ele>
        <time>2021-03-06T14:24:06Z</time>
      </trkpt>
      <trkpt lat="43.66362" lon="3.80436">
        <ele>153</ele>
        <time>2021-03-06T14:24:07Z</time>
      </trkpt>
      <trkpt lat="43.6636" lon="3.80433">
        <ele>153</ele>
        <time>2021-03-06T14:24:08Z</time>
      </trkpt>
      <trkpt lat="43.66357" lon="3.8043">
        <ele>153</ele>
        <time>2021-03-06T14:24:09Z</time>
      </trkpt>
      <trkpt lat="43.66355" lon="3.80427">
        <ele>153</ele>
        <time>2021-03-06T14:24:10Z</time>
      </trkpt>
      <trkpt lat="43.66352" lon="3.80425">
        <ele>153</ele>
        <time>2021-03-06T14:24:11Z</time>
      </trkpt>
      <trkpt lat="43.66349" lon="3.80423">
        <ele>153</ele>
        <time>2021-03-06T14:24:12Z</time>
      </trkpt>
      <trkpt lat="43.66346" lon="3.8042">
        <ele>151</ele>
        <time>2021-03-06T14:24:13Z</time>
      </trkpt>
      <trkpt lat="43.66344" lon="3.80418">
        <ele>151</ele>
        <time>2021-03-06T14:24:14Z</time>
      </trkpt>
      <trkpt lat="43.66341" lon="3.80416">
        <ele>151</ele>
        <time>2021-03-06T14:24:15Z</time>
      </trkpt>
      <trkpt lat="43.66338" lon="3.80413">
        <ele>151</ele>
        <time>2021-03-06T14:24:16Z</time>
      </trkpt>
      <trkpt lat="43.66335" lon="3.80411">
        <ele>151</ele>
        <time>2021-03-06T14:24:17Z</time>
      </trkpt>
      <trkpt lat="43.66332" lon="3.80408">
        <ele>151</ele>
        <time>2021-03-06T14:24:18Z</time>
      </trkpt>
      <trkpt lat="43.66329" lon="3.80405">
        <ele>151</ele>
        <time>2021-03-06T14:24:19Z</time>
      </trkpt>
      <trkpt lat="43.66327" lon="3.80403">
        <ele>151</ele>
        <time>2021-03-06T14:24:20Z</time>
      </trkpt>
      <trkpt lat="43.66324" lon="3.804">
        <ele>151</ele>
        <time>2021-03-06T14:24:21Z</time>
      </trkpt>
      <trkpt lat="43.66321" lon="3.80397">
        <ele>151</ele>
        <time>2021-03-06T14:24:22Z</time>
      </trkpt>
      <trkpt lat="43.66318" lon="3.80394">
        <ele>149</ele>
        <time>2021-03-06T14:24:23Z</time>
      </trkpt>
      <trkpt lat="43.66315" lon="3.80391">
        <ele>149</ele>
        <time>2021-03-06T14:24:24Z</time>
      </trkpt>
      <trkpt lat="43.66312" lon="3.80388">
        <ele>149</ele>
        <time>2021-03-06T14:24:25Z</time>
      </trkpt>
      <trkpt lat="43.66309" lon="3.80385">
        <ele>149</ele>
        <time>2021-03-06T14:24:26Z</time>
      </trkpt>
      <trkpt lat="43.66306" lon="3.80382">
        <ele>149</ele>
        <time>2021-03-06T14:24:27Z</time>
      </trkpt>
      <trkpt lat="43.66303" lon="3.80379">
        <ele>149</ele>
        <time>2021-03-06T14:24:28Z</time>
      </trkpt>
      <trkpt lat="43.663" lon="3.80376">
        <ele>149</ele>
        <time>2021-03-06T14:24:29Z</time>
      </trkpt>
      <trkpt lat="43.66297" lon="3.80374">
        <ele>149</ele>
        <time>2021-03-06T14:24:30Z</time>
      </trkpt>
      <trkpt lat="43.66295" lon="3.80371">
        <ele>149</ele>
        <time>2021-03-06T14:24:31Z</time>
      </trkpt>
      <trkpt lat="43.66292" lon="3.80368">
        <ele>149</ele>
        <time>2021-03-06T14:24:32Z</time>
      </trkpt>
      <trkpt lat="43.66289" lon="3.80365">
        <ele>148</ele>
        <time>2021-03-06T14:24:33Z</time>
      </trkpt>
      <trkpt lat="43.66286" lon="3.80363">
        <ele>148</ele>
        <time>2021-03-06T14:24:34Z</time>
      </trkpt>
      <trkpt lat="43.66284" lon="3.8036">
        <ele>148</ele>
        <time>2021-03-06T14:24:35Z</time>
      </trkpt>
      <trkpt lat="43.66281" lon="3.80357">
        <ele>148</ele>
        <time>2021-03-06T14:24:36Z</time>
      </trkpt>
      <trkpt lat="43.66278" lon="3.80355">
        <ele>148</ele>
        <time>2021-03-06T14:24:37Z</time>
      </trkpt>
      <trkpt lat="43.66275" lon="3.80352">
        <ele>148</ele>
        <time>2021-03-06T14:24:38Z</time>
      </trkpt>
      <trkpt lat="43.66272" lon="3.8035">
        <ele>148</ele>
        <time>2021-03-06T14:24:39Z</time>
      </trkpt>
      <trkpt lat="43.6627" lon="3.80347">
        <ele>148</ele>
        <time>2021-03-06T14:24:40Z</time>
      </trkpt>
      <trkpt lat="43.66267" lon="3.80344">
        <ele>148</ele>
        <time>2021-03-06T14:24:41Z</time>
      </trkpt>
      <trkpt lat="43.66264" lon="3.80341">
        <ele>148</ele>
        <time>2021-03-06T14:24:42Z</time>
      </trkpt>
      <trkpt lat="43.66261" lon="3.80339">
        <ele>148</ele>
        <time>2021-03-06T14:24:43Z</time>
      </trkpt>
      <trkpt lat="43.66258" lon="3.80336">
        <ele>148</ele>
        <time>2021-03-06T14:24:44Z</time>
      </trkpt>
      <trkpt lat="43.66255" lon="3.80333">
        <ele>148</ele>
        <time>2021-03-06T14:24:45Z</time>
      </trkpt>
      <trkpt lat="43.66252" lon="3.8033">
        <ele>148</ele>
        <time>2021-03-06T14:24:46Z</time>
      </trkpt>
      <trkpt lat="43.66249" lon="3.80327">
        <ele>148</ele>
        <time>2021-03-06T14:24:47Z</time>
      </trkpt>
      <trkpt lat="43.66245" lon="3.80325">
        <ele>148</ele>
        <time>2021-03-06T14:24:48Z</time>
      </trkpt>
      <trkpt lat="43.66242" lon="3.80322">
        <ele>148</ele>
        <time>2021-03-06T14:24:49Z</time>
      </trkpt>
      <trkpt lat="43.66239" lon="3.80319">
        <ele>148</ele>
        <time>2021-03-06T14:24:50Z</time>
      </trkpt>
      <trkpt lat="43.66236" lon="3.80316">
        <ele>148</ele>
        <time>2021-03-06T14:24:51Z</time>
      </trkpt>
      <trkpt lat="43.66232" lon="3.80314">
        <ele>148</ele>
        <time>2021-03-06T14:24:52Z</time>
      </trkpt>
      <trkpt lat="43.66229" lon="3.8031">
        <ele>147</ele>
        <time>2021-03-06T14:24:53Z</time>
      </trkpt>
      <trkpt lat="43.66225" lon="3.80307">
        <ele>147</ele>
        <time>2021-03-06T14:24:54Z</time>
      </trkpt>
      <trkpt lat="43.66221" lon="3.80304">
        <ele>147</ele>
        <time>2021-03-06T14:24:55Z</time>
      </trkpt>
      <trkpt lat="43.66218" lon="3.80301">
        <ele>147</ele>
        <time>2021-03-06T14:24:56Z</time>
      </trkpt>
      <trkpt lat="43.66214" lon="3.80298">
        <ele>147</ele>
        <time>2021-03-06T14:24:57Z</time>
      </trkpt>
      <trkpt lat="43.6621" lon="3.80295">
        <ele>147</ele>
        <time>2021-03-06T14:24:58Z</time>
      </trkpt>
      <trkpt lat="43.66207" lon="3.80292">
        <ele>147</ele>
        <time>2021-03-06T14:24:59Z</time>
      </trkpt>
      <trkpt lat="43.66203" lon="3.80289">
        <ele>147</ele>
        <time>2021-03-06T14:25:00Z</time>
      </trkpt>
      <trkpt lat="43.662" lon="3.80286">
        <ele>147</ele>
        <time>2021-03-06T14:25:01Z</time>
      </trkpt>
      <trkpt lat="43.66196" lon="3.80283">
        <ele>147</ele>
        <time>2021-03-06T14:25:02Z</time>
      </trkpt>
      <trkpt lat="43.66193" lon="3.80281">
        <ele>147</ele>
        <time>2021-03-06T14:25:03Z</time>
      </trkpt>
      <trkpt lat="43.6619" lon="3.80278">
        <ele>147</ele>
        <time>2021-03-06T14:25:04Z</time>
      </trkpt>
      <trkpt lat="43.66186" lon="3.80275">
        <ele>147</ele>
        <time>2021-03-06T14:25:05Z</time>
      </trkpt>
      <trkpt lat="43.66183" lon="3.80272">
        <ele>147</ele>
        <time>2021-03-06T14:25:06Z</time>
      </trkpt>
      <trkpt lat="43.66179" lon="3.80269">
        <ele>147</ele>
        <time>2021-03-06T14:25:07Z</time>
      </trkpt>
      <trkpt lat="43.66176" lon="3.80266">
        <ele>147</ele>
        <time>2021-03-06T14:25:08Z</time>
      </trkpt>
      <trkpt lat="43.66173" lon="3.80264">
        <ele>147</ele>
        <time>2021-03-06T14:25:09Z</time>
      </trkpt>
      <trkpt lat="43.6617" lon="3.80261">
        <ele>147</ele>
        <time>2021-03-06T14:25:10Z</time>
      </trkpt>
      <trkpt lat="43.66166" lon="3.80259">
        <ele>147</ele>
        <time>2021-03-06T14:25:11Z</time>
      </trkpt>
      <trkpt lat="43.66163" lon="3.80256">
        <ele>147</ele>
        <time>2021-03-06T14:25:12Z</time>
      </trkpt>
      <trkpt lat="43.66159" lon="3.80254">
        <ele>147</ele>
        <time>2021-03-06T14:25:13Z</time>
      </trkpt>
      <trkpt lat="43.66156" lon="3.80251">
        <ele>147</ele>
        <time>2021-03-06T14:25:14Z</time>
      </trkpt>
      <trkpt lat="43.66153" lon="3.80249">
        <ele>147</ele>
        <time>2021-03-06T14:25:15Z</time>
      </trkpt>
      <trkpt lat="43.66149" lon="3.80246">
        <ele>147</ele>
        <time>2021-03-06T14:25:16Z</time>
      </trkpt>
      <trkpt lat="43.66146" lon="3.80244">
        <ele>147</ele>
        <time>2021-03-06T14:25:17Z</time>
      </trkpt>
      <trkpt lat="43.66143" lon="3.80241">
        <ele>147</ele>
        <time>2021-03-06T14:25:18Z</time>
      </trkpt>
      <trkpt lat="43.6614" lon="3.80239">
        <ele>147</ele>
        <time>2021-03-06T14:25:19Z</time>
      </trkpt>
      <trkpt lat="43.66136" lon="3.80237">
        <ele>147</ele>
        <time>2021-03-06T14:25:20Z</time>
      </trkpt>
      <trkpt lat="43.66133" lon="3.80235">
        <ele>147</ele>
        <time>2021-03-06T14:25:21Z</time>
      </trkpt>
      <trkpt lat="43.66129" lon="3.80232">
        <ele>147</ele>
        <time>2021-03-06T14:25:22Z</time>
      </trkpt>
      <trkpt lat="43.66126" lon="3.8023">
        <ele>147</ele>
        <time>2021-03-06T14:25:23Z</time>
      </trkpt>
      <trkpt lat="43.66122" lon="3.80228">
        <ele>147</ele>
        <time>2021-03-06T14:25:24Z</time>
      </trkpt>
      <trkpt lat="43.66119" lon="3.80225">
        <ele>147</ele>
        <time>2021-03-06T14:25:25Z</time>
      </trkpt>
      <trkpt lat="43.66115" lon="3.80223">
        <ele>147</ele>
        <time>2021-03-06T14:25:26Z</time>
      </trkpt>
      <trkpt lat="43.66112" lon="3.8022">
        <ele>147</ele>
        <time>2021-03-06T14:25:27Z</time>
      </trkpt>
      <trkpt lat="43.66108" lon="3.80219">
        <ele>147</ele>
        <time>2021-03-06T14:25:28Z</time>
      </trkpt>
      <trkpt lat="43.66103" lon="3.80218">
        <ele>147</ele>
        <time>2021-03-06T14:25:29Z</time>
      </trkpt>
      <trkpt lat="43.66099" lon="3.80218">
        <ele>147</ele>
        <time>2021-03-06T14:25:30Z</time>
      </trkpt>
      <trkpt lat="43.66096" lon="3.80218">
        <ele>147</ele>
        <time>2021-03-06T14:25:31Z</time>
      </trkpt>
      <trkpt lat="43.66092" lon="3.8022">
        <ele>147</ele>
        <time>2021-03-06T14:25:32Z</time>
      </trkpt>
      <trkpt lat="43.66088" lon="3.80223">
        <ele>147</ele>
        <time>2021-03-06T14:25:33Z</time>
      </trkpt>
      <trkpt lat="43.66084" lon="3.80225">
        <ele>147</ele>
        <time>2021-03-06T14:25:34Z</time>
      </trkpt>
      <trkpt lat="43.6608" lon="3.80228">
        <ele>147</ele>
        <time>2021-03-06T14:25:35Z</time>
      </trkpt>
      <trkpt lat="43.66076" lon="3.8023">
        <ele>147</ele>
        <time>2021-03-06T14:25:36Z</time>
      </trkpt>
      <trkpt lat="43.66073" lon="3.80232">
        <ele>147</ele>
        <time>2021-03-06T14:25:37Z</time>
      </trkpt>
      <trkpt lat="43.66069" lon="3.80235">
        <ele>147</ele>
        <time>2021-03-06T14:25:38Z</time>
      </trkpt>
      <trkpt lat="43.66065" lon="3.80236">
        <ele>147</ele>
        <time>2021-03-06T14:25:39Z</time>
      </trkpt>
      <trkpt lat="43.66061" lon="3.80237">
        <ele>147</ele>
        <time>2021-03-06T14:25:40Z</time>
      </trkpt>
      <trkpt lat="43.66057" lon="3.80238">
        <ele>147</ele>
        <time>2021-03-06T14:25:41Z</time>
      </trkpt>
      <trkpt lat="43.66053" lon="3.80239">
        <ele>147</ele>
        <time>2021-03-06T14:25:42Z</time>
      </trkpt>
      <trkpt lat="43.66049" lon="3.8024">
        <ele>146</ele>
        <time>2021-03-06T14:25:43Z</time>
      </trkpt>
      <trkpt lat="43.66045" lon="3.8024">
        <ele>146</ele>
        <time>2021-03-06T14:25:44Z</time>
      </trkpt>
      <trkpt lat="43.66041" lon="3.8024">
        <ele>146</ele>
        <time>2021-03-06T14:25:45Z</time>
      </trkpt>
      <trkpt lat="43.66037" lon="3.8024">
        <ele>146</ele>
        <time>2021-03-06T14:25:46Z</time>
      </trkpt>
      <trkpt lat="43.66033" lon="3.80241">
        <ele>146</ele>
        <time>2021-03-06T14:25:47Z</time>
      </trkpt>
      <trkpt lat="43.66029" lon="3.80241">
        <ele>146</ele>
        <time>2021-03-06T14:25:48Z</time>
      </trkpt>
      <trkpt lat="43.66025" lon="3.80241">
        <ele>146</ele>
        <time>2021-03-06T14:25:49Z</time>
      </trkpt>
      <trkpt lat="43.66022" lon="3.80241">
        <ele>146</ele>
        <time>2021-03-06T14:25:50Z</time>
      </trkpt>
      <trkpt lat="43.66018" lon="3.80242">
        <ele>146</ele>
        <time>2021-03-06T14:25:51Z</time>
      </trkpt>
      <trkpt lat="43.66014" lon="3.80242">
        <ele>146</ele>
        <time>2021-03-06T14:25:52Z</time>
      </trkpt>
      <trkpt lat="43.6601" lon="3.80241">
        <ele>146</ele>
        <time>2021-03-06T14:25:53Z</time>
      </trkpt>
      <trkpt lat="43.66006" lon="3.80241">
        <ele>146</ele>
        <time>2021-03-06T14:25:54Z</time>
      </trkpt>
      <trkpt lat="43.66002" lon="3.80241">
        <ele>146</ele>
        <time>2021-03-06T14:25:55Z</time>
      </trkpt>
      <trkpt lat="43.65998" lon="3.8024">
        <ele>146</ele>
        <time>2021-03-06T14:25:56Z</time>
      </trkpt>
      <trkpt lat="43.65994" lon="3.8024">
        <ele>146</ele>
        <time>2021-03-06T14:25:57Z</time>
      </trkpt>
      <trkpt lat="43.65991" lon="3.80239">
        <ele>146</ele>
        <time>2021-03-06T14:25:58Z</time>
      </trkpt>
      <trkpt lat="43.65987" lon="3.80238">
        <ele>146</ele>
        <time>2021-03-06T14:25:59Z</time>
      </trkpt>
      <trkpt lat="43.65983" lon="3.80236">
        <ele>146</ele>
        <time>2021-03-06T14:26:00Z</time>
      </trkpt>
      <trkpt lat="43.65979" lon="3.80235">
        <ele>146</ele>
        <time>2021-03-06T14:26:01Z</time>
      </trkpt>
      <trkpt lat="43.65975" lon="3.80233">
        <ele>146</ele>
        <time>2021-03-06T14:26:02Z</time>
      </trkpt>
      <trkpt lat="43.65972" lon="3.80231">
        <ele>145</ele>
        <time>2021-03-06T14:26:03Z</time>
      </trkpt>
      <trkpt lat="43.65968" lon="3.8023">
        <ele>145</ele>
        <time>2021-03-06T14:26:04Z</time>
      </trkpt>
      <trkpt lat="43.65964" lon="3.80229">
        <ele>145</ele>
        <time>2021-03-06T14:26:05Z</time>
      </trkpt>
      <trkpt lat="43.6596" lon="3.8023">
        <ele>145</ele>
        <time>2021-03-06T14:26:06Z</time>
      </trkpt>
      <trkpt lat="43.65957" lon="3.80233">
        <ele>145</ele>
        <time>2021-03-06T14:26:07Z</time>
      </trkpt>
      <trkpt lat="43.65955" lon="3.80238">
        <ele>145</ele>
        <time>2021-03-06T14:26:08Z</time>
      </trkpt>
      <trkpt lat="43.65954" lon="3.80243">
        <ele>145</ele>
        <time>2021-03-06T14:26:09Z</time>
      </trkpt>
      <trkpt lat="43.65953" lon="3.80248">
        <ele>145</ele>
        <time>2021-03-06T14:26:10Z</time>
      </trkpt>
      <trkpt lat="43.65953" lon="3.80253">
        <ele>145</ele>
        <time>2021-03-06T14:26:11Z</time>
      </trkpt>
      <trkpt lat="43.65952" lon="3.80259">
        <ele>145</ele>
        <time>2021-03-06T14:26:12Z</time>
      </trkpt>
      <trkpt lat="43.65951" lon="3.80264">
        <ele>144</ele>
        <time>2021-03-06T14:26:13Z</time>
      </trkpt>
      <trkpt lat="43.6595" lon="3.80268">
        <ele>144</ele>
        <time>2021-03-06T14:26:14Z</time>
      </trkpt>
      <trkpt lat="43.65949" lon="3.80272">
        <ele>144</ele>
        <time>2021-03-06T14:26:15Z</time>
      </trkpt>
      <trkpt lat="43.65948" lon="3.80276">
        <ele>144</ele>
        <time>2021-03-06T14:26:16Z</time>
      </trkpt>
      <trkpt lat="43.65945" lon="3.80279">
        <ele>144</ele>
        <time>2021-03-06T14:26:18Z</time>
      </trkpt>
      <trkpt lat="43.65943" lon="3.80279">
        <ele>144</ele>
        <time>2021-03-06T14:26:19Z</time>
      </trkpt>
      <trkpt lat="43.6594" lon="3.80278">
        <ele>144</ele>
        <time>2021-03-06T14:26:20Z</time>
      </trkpt>
      <trkpt lat="43.65938" lon="3.80278">
        <ele>144</ele>
        <time>2021-03-06T14:26:21Z</time>
      </trkpt>
      <trkpt lat="43.65935" lon="3.80278">
        <ele>144</ele>
        <time>2021-03-06T14:26:22Z</time>
      </trkpt>
      <trkpt lat="43.65932" lon="3.80278">
        <ele>144</ele>
        <time>2021-03-06T14:26:23Z</time>
      </trkpt>
      <trkpt lat="43.6593" lon="3.80278">
        <ele>144</ele>
        <time>2021-03-06T14:26:24Z</time>
      </trkpt>
      <trkpt lat="43.65927" lon="3.80279">
        <ele>144</ele>
        <time>2021-03-06T14:26:25Z</time>
      </trkpt>
      <trkpt lat="43.65924" lon="3.80279">
        <ele>144</ele>
        <time>2021-03-06T14:26:26Z</time>
      </trkpt>
      <trkpt lat="43.65921" lon="3.80279">
        <ele>144</ele>
        <time>2021-03-06T14:26:27Z</time>
      </trkpt>
      <trkpt lat="43.65918" lon="3.80278">
        <ele>144</ele>
        <time>2021-03-06T14:26:28Z</time>
      </trkpt>
      <trkpt lat="43.65915" lon="3.80277">
        <ele>144</ele>
        <time>2021-03-06T14:26:29Z</time>
      </trkpt>
      <trkpt lat="43.65911" lon="3.80275">
        <ele>144</ele>
        <time>2021-03-06T14:26:30Z</time>
      </trkpt>
      <trkpt lat="43.65908" lon="3.80273">
        <ele>144</ele>
        <time>2021-03-06T14:26:31Z</time>
      </trkpt>
      <trkpt lat="43.65905" lon="3.80271">
        <ele>144</ele>
        <time>2021-03-06T14:26:32Z</time>
      </trkpt>
      <trkpt lat="43.65902" lon="3.80268">
        <ele>144</ele>
        <time>2021-03-06T14:26:33Z</time>
      </trkpt>
      <trkpt lat="43.659" lon="3.80264">
        <ele>144</ele>
        <time>2021-03-06T14:26:34Z</time>
      </trkpt>
      <trkpt lat="43.65898" lon="3.80261">
        <ele>144</ele>
        <time>2021-03-06T14:26:35Z</time>
      </trkpt>
      <trkpt lat="43.65896" lon="3.80259">
        <ele>144</ele>
        <time>2021-03-06T14:26:36Z</time>
      </trkpt>
      <trkpt lat="43.65894" lon="3.80259">
        <ele>144</ele>
        <time>2021-03-06T14:26:37Z</time>
      </trkpt>
      <trkpt lat="43.65892" lon="3.8026">
        <ele>144</ele>
        <time>2021-03-06T14:26:38Z</time>
      </trkpt>
      <trkpt lat="43.6589" lon="3.80261">
        <ele>144</ele>
        <time>2021-03-06T14:26:39Z</time>
      </trkpt>
      <trkpt lat="43.65888" lon="3.80263">
        <ele>144</ele>
        <time>2021-03-06T14:26:40Z</time>
      </trkpt>
      <trkpt lat="43.65886" lon="3.80265">
        <ele>144</ele>
        <time>2021-03-06T14:26:41Z</time>
      </trkpt>
      <trkpt lat="43.65884" lon="3.80268">
        <ele>144</ele>
        <time>2021-03-06T14:26:42Z</time>
      </trkpt>
      <trkpt lat="43.65882" lon="3.8027">
        <ele>144</ele>
        <time>2021-03-06T14:26:43Z</time>
      </trkpt>
      <trkpt lat="43.6588" lon="3.80272">
        <ele>144</ele>
        <time>2021-03-06T14:26:44Z</time>
      </trkpt>
      <trkpt lat="43.65878" lon="3.80273">
        <ele>144</ele>
        <time>2021-03-06T14:26:45Z</time>
      </trkpt>
      <trkpt lat="43.65876" lon="3.80274">
        <ele>144</ele>
        <time>2021-03-06T14:26:46Z</time>
      </trkpt>
      <trkpt lat="43.65874" lon="3.80276">
        <ele>144</ele>
        <time>2021-03-06T14:26:47Z</time>
      </trkpt>
      <trkpt lat="43.65871" lon="3.80277">
        <ele>144</ele>
        <time>2021-03-06T14:26:48Z</time>
      </trkpt>
      <trkpt lat="43.65869" lon="3.80279">
        <ele>144</ele>
        <time>2021-03-06T14:26:49Z</time>
      </trkpt>
      <trkpt lat="43.65868" lon="3.8028">
        <ele>144</ele>
        <time>2021-03-06T14:26:50Z</time>
      </trkpt>
      <trkpt lat="43.65866" lon="3.80281">
        <ele>144</ele>
        <time>2021-03-06T14:26:51Z</time>
      </trkpt>
      <trkpt lat="43.65864" lon="3.80283">
        <ele>144</ele>
        <time>2021-03-06T14:26:52Z</time>
      </trkpt>
      <trkpt lat="43.65863" lon="3.80284">
        <ele>145</ele>
        <time>2021-03-06T14:26:53Z</time>
      </trkpt>
      <trkpt lat="43.6586" lon="3.80284">
        <ele>145</ele>
        <time>2021-03-06T14:26:54Z</time>
      </trkpt>
      <trkpt lat="43.65858" lon="3.80283">
        <ele>145</ele>
        <time>2021-03-06T14:26:55Z</time>
      </trkpt>
      <trkpt lat="43.65856" lon="3.80281">
        <ele>145</ele>
        <time>2021-03-06T14:26:56Z</time>
      </trkpt>
      <trkpt lat="43.65854" lon="3.80279">
        <ele>145</ele>
        <time>2021-03-06T14:26:57Z</time>
      </trkpt>
      <trkpt lat="43.65851" lon="3.80277">
        <ele>145</ele>
        <time>2021-03-06T14:26:58Z</time>
      </trkpt>
      <trkpt lat="43.65849" lon="3.80276">
        <ele>145</ele>
        <time>2021-03-06T14:26:59Z</time>
      </trkpt>
      <trkpt lat="43.65846" lon="3.80274">
        <ele>145</ele>
        <time>2021-03-06T14:27:00Z</time>
      </trkpt>
      <trkpt lat="43.65844" lon="3.80273">
        <ele>145</ele>
        <time>2021-03-06T14:27:01Z</time>
      </trkpt>
      <trkpt lat="43.65842" lon="3.80272">
        <ele>145</ele>
        <time>2021-03-06T14:27:02Z</time>
      </trkpt>
      <trkpt lat="43.6584" lon="3.80271">
        <ele>145</ele>
        <time>2021-03-06T14:27:03Z</time>
      </trkpt>
      <trkpt lat="43.65838" lon="3.8027">
        <ele>145</ele>
        <time>2021-03-06T14:27:04Z</time>
      </trkpt>
      <trkpt lat="43.65836" lon="3.80269">
        <ele>145</ele>
        <time>2021-03-06T14:27:05Z</time>
      </trkpt>
      <trkpt lat="43.65834" lon="3.80267">
        <ele>145</ele>
        <time>2021-03-06T14:27:06Z</time>
      </trkpt>
      <trkpt lat="43.65832" lon="3.80266">
        <ele>145</ele>
        <time>2021-03-06T14:27:07Z</time>
      </trkpt>
      <trkpt lat="43.6583" lon="3.80264">
        <ele>145</ele>
        <time>2021-03-06T14:27:08Z</time>
      </trkpt>
      <trkpt lat="43.65828" lon="3.80264">
        <ele>145</ele>
        <time>2021-03-06T14:27:09Z</time>
      </trkpt>
      <trkpt lat="43.65825" lon="3.80263">
        <ele>145</ele>
        <time>2021-03-06T14:27:10Z</time>
      </trkpt>
      <trkpt lat="43.65823" lon="3.80262">
        <ele>145</ele>
        <time>2021-03-06T14:27:11Z</time>
      </trkpt>
      <trkpt lat="43.65821" lon="3.80261">
        <ele>145</ele>
        <time>2021-03-06T14:27:12Z</time>
      </trkpt>
      <trkpt lat="43.65819" lon="3.8026">
        <ele>145</ele>
        <time>2021-03-06T14:27:13Z</time>
      </trkpt>
      <trkpt lat="43.65817" lon="3.80259">
        <ele>145</ele>
        <time>2021-03-06T14:27:14Z</time>
      </trkpt>
      <trkpt lat="43.65814" lon="3.80258">
        <ele>145</ele>
        <time>2021-03-06T14:27:15Z</time>
      </trkpt>
      <trkpt lat="43.65812" lon="3.80256">
        <ele>145</ele>
        <time>2021-03-06T14:27:16Z</time>
      </trkpt>
      <trkpt lat="43.6581" lon="3.80255">
        <ele>145</ele>
        <time>2021-03-06T14:27:17Z</time>
      </trkpt>
      <trkpt lat="43.65808" lon="3.80254">
        <ele>145</ele>
        <time>2021-03-06T14:27:18Z</time>
      </trkpt>
      <trkpt lat="43.65805" lon="3.80253">
        <ele>145</ele>
        <time>2021-03-06T14:27:19Z</time>
      </trkpt>
      <trkpt lat="43.65803" lon="3.80252">
        <ele>145</ele>
        <time>2021-03-06T14:27:20Z</time>
      </trkpt>
      <trkpt lat="43.65801" lon="3.80251">
        <ele>145</ele>
        <time>2021-03-06T14:27:21Z</time>
      </trkpt>
      <trkpt lat="43.65799" lon="3.8025">
        <ele>145</ele>
        <time>2021-03-06T14:27:22Z</time>
      </trkpt>
      <trkpt lat="43.65797" lon="3.80248">
        <ele>146</ele>
        <time>2021-03-06T14:27:23Z</time>
      </trkpt>
      <trkpt lat="43.65795" lon="3.80247">
        <ele>146</ele>
        <time>2021-03-06T14:27:24Z</time>
      </trkpt>
      <trkpt lat="43.65792" lon="3.80246">
        <ele>146</ele>
        <time>2021-03-06T14:27:25Z</time>
      </trkpt>
      <trkpt lat="43.6579" lon="3.80245">
        <ele>146</ele>
        <time>2021-03-06T14:27:26Z</time>
      </trkpt>
      <trkpt lat="43.65788" lon="3.80244">
        <ele>146</ele>
        <time>2021-03-06T14:27:27Z</time>
      </trkpt>
      <trkpt lat="43.65785" lon="3.80244">
        <ele>146</ele>
        <time>2021-03-06T14:27:28Z</time>
      </trkpt>
      <trkpt lat="43.65783" lon="3.80243">
        <ele>146</ele>
        <time>2021-03-06T14:27:29Z</time>
      </trkpt>
      <trkpt lat="43.65781" lon="3.80242">
        <ele>146</ele>
        <time>2021-03-06T14:27:30Z</time>
      </trkpt>
      <trkpt lat="43.65779" lon="3.80241">
        <ele>146</ele>
        <time>2021-03-06T14:27:31Z</time>
      </trkpt>
      <trkpt lat="43.65776" lon="3.80239">
        <ele>146</ele>
        <time>2021-03-06T14:27:32Z</time>
      </trkpt>
      <trkpt lat="43.65774" lon="3.80238">
        <ele>147</ele>
        <time>2021-03-06T14:27:33Z</time>
      </trkpt>
      <trkpt lat="43.65772" lon="3.80237">
        <ele>147</ele>
        <time>2021-03-06T14:27:34Z</time>
      </trkpt>
      <trkpt lat="43.6577" lon="3.80236">
        <ele>147</ele>
        <time>2021-03-06T14:27:35Z</time>
      </trkpt>
      <trkpt lat="43.65768" lon="3.80235">
        <ele>147</ele>
        <time>2021-03-06T14:27:36Z</time>
      </trkpt>
      <trkpt lat="43.65766" lon="3.80234">
        <ele>147</ele>
        <time>2021-03-06T14:27:37Z</time>
      </trkpt>
      <trkpt lat="43.65763" lon="3.80232">
        <ele>147</ele>
        <time>2021-03-06T14:27:38Z</time>
      </trkpt>
      <trkpt lat="43.65761" lon="3.80231">
        <ele>147</ele>
        <time>2021-03-06T14:27:39Z</time>
      </trkpt>
      <trkpt lat="43.65759" lon="3.8023">
        <ele>147</ele>
        <time>2021-03-06T14:27:40Z</time>
      </trkpt>
      <trkpt lat="43.65757" lon="3.80229">
        <ele>147</ele>
        <time>2021-03-06T14:27:41Z</time>
      </trkpt>
      <trkpt lat="43.65754" lon="3.80228">
        <ele>147</ele>
        <time>2021-03-06T14:27:42Z</time>
      </trkpt>
      <trkpt lat="43.65752" lon="3.80227">
        <ele>147</ele>
        <time>2021-03-06T14:27:43Z</time>
      </trkpt>
      <trkpt lat="43.65749" lon="3.80226">
        <ele>147</ele>
        <time>2021-03-06T14:27:44Z</time>
      </trkpt>
      <trkpt lat="43.65747" lon="3.80225">
        <ele>147</ele>
        <time>2021-03-06T14:27:45Z</time>
      </trkpt>
      <trkpt lat="43.65745" lon="3.80223">
        <ele>147</ele>
        <time>2021-03-06T14:27:46Z</time>
      </trkpt>
      <trkpt lat="43.65742" lon="3.80222">
        <ele>147</ele>
        <time>2021-03-06T14:27:47Z</time>
      </trkpt>
      <trkpt lat="43.6574" lon="3.80221">
        <ele>147</ele>
        <time>2021-03-06T14:27:48Z</time>
      </trkpt>
      <trkpt lat="43.65737" lon="3.8022">
        <ele>147</ele>
        <time>2021-03-06T14:27:49Z</time>
      </trkpt>
      <trkpt lat="43.65734" lon="3.80219">
        <ele>147</ele>
        <time>2021-03-06T14:27:50Z</time>
      </trkpt>
      <trkpt lat="43.65732" lon="3.80218">
        <ele>147</ele>
        <time>2021-03-06T14:27:51Z</time>
      </trkpt>
      <trkpt lat="43.65729" lon="3.80218">
        <ele>147</ele>
        <time>2021-03-06T14:27:52Z</time>
      </trkpt>
      <trkpt lat="43.65727" lon="3.80217">
        <ele>148</ele>
        <time>2021-03-06T14:27:53Z</time>
      </trkpt>
      <trkpt lat="43.65725" lon="3.80217">
        <ele>148</ele>
        <time>2021-03-06T14:27:54Z</time>
      </trkpt>
      <trkpt lat="43.65722" lon="3.80216">
        <ele>148</ele>
        <time>2021-03-06T14:27:55Z</time>
      </trkpt>
      <trkpt lat="43.65719" lon="3.80215">
        <ele>148</ele>
        <time>2021-03-06T14:27:56Z</time>
      </trkpt>
      <trkpt lat="43.65716" lon="3.80215">
        <ele>148</ele>
        <time>2021-03-06T14:27:57Z</time>
      </trkpt>
      <trkpt lat="43.65712" lon="3.80214">
        <ele>148</ele>
        <time>2021-03-06T14:27:58Z</time>
      </trkpt>
      <trkpt lat="43.65709" lon="3.80214">
        <ele>148</ele>
        <time>2021-03-06T14:27:59Z</time>
      </trkpt>
      <trkpt lat="43.65706" lon="3.80214">
        <ele>148</ele>
        <time>2021-03-06T14:28:00Z</time>
      </trkpt>
      <trkpt lat="43.65703" lon="3.80214">
        <ele>148</ele>
        <time>2021-03-06T14:28:01Z</time>
      </trkpt>
      <trkpt lat="43.657" lon="3.80213">
        <ele>148</ele>
        <time>2021-03-06T14:28:02Z</time>
      </trkpt>
      <trkpt lat="43.65697" lon="3.80213">
        <ele>148</ele>
        <time>2021-03-06T14:28:03Z</time>
      </trkpt>
      <trkpt lat="43.65694" lon="3.80213">
        <ele>148</ele>
        <time>2021-03-06T14:28:04Z</time>
      </trkpt>
      <trkpt lat="43.65691" lon="3.80212">
        <ele>148</ele>
        <time>2021-03-06T14:28:05Z</time>
      </trkpt>
      <trkpt lat="43.65688" lon="3.80212">
        <ele>148</ele>
        <time>2021-03-06T14:28:06Z</time>
      </trkpt>
      <trkpt lat="43.65686" lon="3.80212">
        <ele>148</ele>
        <time>2021-03-06T14:28:07Z</time>
      </trkpt>
      <trkpt lat="43.65683" lon="3.80212">
        <ele>148</ele>
        <time>2021-03-06T14:28:08Z</time>
      </trkpt>
      <trkpt lat="43.6568" lon="3.80212">
        <ele>148</ele>
        <time>2021-03-06T14:28:09Z</time>
      </trkpt>
      <trkpt lat="43.65677" lon="3.80211">
        <ele>148</ele>
        <time>2021-03-06T14:28:10Z</time>
      </trkpt>
      <trkpt lat="43.65673" lon="3.80211">
        <ele>148</ele>
        <time>2021-03-06T14:28:11Z</time>
      </trkpt>
      <trkpt lat="43.6567" lon="3.8021">
        <ele>148</ele>
        <time>2021-03-06T14:28:12Z</time>
      </trkpt>
      <trkpt lat="43.65667" lon="3.8021">
        <ele>148</ele>
        <time>2021-03-06T14:28:13Z</time>
      </trkpt>
      <trkpt lat="43.65663" lon="3.8021">
        <ele>148</ele>
        <time>2021-03-06T14:28:14Z</time>
      </trkpt>
      <trkpt lat="43.6566" lon="3.80209">
        <ele>148</ele>
        <time>2021-03-06T14:28:15Z</time>
      </trkpt>
      <trkpt lat="43.65656" lon="3.80208">
        <ele>148</ele>
        <time>2021-03-06T14:28:16Z</time>
      </trkpt>
      <trkpt lat="43.65652" lon="3.80207">
        <ele>148</ele>
        <time>2021-03-06T14:28:17Z</time>
      </trkpt>
      <trkpt lat="43.65649" lon="3.80207">
        <ele>148</ele>
        <time>2021-03-06T14:28:18Z</time>
      </trkpt>
      <trkpt lat="43.65645" lon="3.80206">
        <ele>148</ele>
        <time>2021-03-06T14:28:19Z</time>
      </trkpt>
      <trkpt lat="43.65641" lon="3.80206">
        <ele>148</ele>
        <time>2021-03-06T14:28:20Z</time>
      </trkpt>
      <trkpt lat="43.65638" lon="3.80206">
        <ele>148</ele>
        <time>2021-03-06T14:28:21Z</time>
      </trkpt>
      <trkpt lat="43.65634" lon="3.80205">
        <ele>148</ele>
        <time>2021-03-06T14:28:22Z</time>
      </trkpt>
      <trkpt lat="43.65631" lon="3.80205">
        <ele>148</ele>
        <time>2021-03-06T14:28:23Z</time>
      </trkpt>
      <trkpt lat="43.65627" lon="3.80205">
        <ele>148</ele>
        <time>2021-03-06T14:28:24Z</time>
      </trkpt>
      <trkpt lat="43.65624" lon="3.80204">
        <ele>148</ele>
        <time>2021-03-06T14:28:25Z</time>
      </trkpt>
      <trkpt lat="43.6562" lon="3.80204">
        <ele>148</ele>
        <time>2021-03-06T14:28:26Z</time>
      </trkpt>
      <trkpt lat="43.65617" lon="3.80202">
        <ele>148</ele>
        <time>2021-03-06T14:28:27Z</time>
      </trkpt>
      <trkpt lat="43.65614" lon="3.80202">
        <ele>148</ele>
        <time>2021-03-06T14:28:28Z</time>
      </trkpt>
      <trkpt lat="43.65611" lon="3.80201">
        <ele>148</ele>
        <time>2021-03-06T14:28:29Z</time>
      </trkpt>
      <trkpt lat="43.65608" lon="3.802">
        <ele>148</ele>
        <time>2021-03-06T14:28:30Z</time>
      </trkpt>
      <trkpt lat="43.65606" lon="3.80199">
        <ele>148</ele>
        <time>2021-03-06T14:28:31Z</time>
      </trkpt>
      <trkpt lat="43.65603" lon="3.80198">
        <ele>148</ele>
        <time>2021-03-06T14:28:32Z</time>
      </trkpt>
      <trkpt lat="43.656" lon="3.80198">
        <ele>148</ele>
        <time>2021-03-06T14:28:33Z</time>
      </trkpt>
      <trkpt lat="43.65598" lon="3.80197">
        <ele>148</ele>
        <time>2021-03-06T14:28:34Z</time>
      </trkpt>
      <trkpt lat="43.65595" lon="3.80197">
        <ele>148</ele>
        <time>2021-03-06T14:28:35Z</time>
      </trkpt>
      <trkpt lat="43.65591" lon="3.80196">
        <ele>148</ele>
        <time>2021-03-06T14:28:36Z</time>
      </trkpt>
      <trkpt lat="43.65588" lon="3.80195">
        <ele>148</ele>
        <time>2021-03-06T14:28:37Z</time>
      </trkpt>
      <trkpt lat="43.65585" lon="3.80193">
        <ele>148</ele>
        <time>2021-03-06T14:28:38Z</time>
      </trkpt>
      <trkpt lat="43.65582" lon="3.8019">
        <ele>148</ele>
        <time>2021-03-06T14:28:39Z</time>
      </trkpt>
      <trkpt lat="43.6558" lon="3.80187">
        <ele>148</ele>
        <time>2021-03-06T14:28:40Z</time>
      </trkpt>
      <trkpt lat="43.65578" lon="3.80182">
        <ele>148</ele>
        <time>2021-03-06T14:28:41Z</time>
      </trkpt>
      <trkpt lat="43.65577" lon="3.80177">
        <ele>148</ele>
        <time>2021-03-06T14:28:42Z</time>
      </trkpt>
      <trkpt lat="43.65576" lon="3.80173">
        <ele>148</ele>
        <time>2021-03-06T14:28:43Z</time>
      </trkpt>
      <trkpt lat="43.65575" lon="3.80168">
        <ele>148</ele>
        <time>2021-03-06T14:28:44Z</time>
      </trkpt>
      <trkpt lat="43.65572" lon="3.80165">
        <ele>148</ele>
        <time>2021-03-06T14:28:45Z</time>
      </trkpt>
      <trkpt lat="43.65569" lon="3.80163">
        <ele>148</ele>
        <time>2021-03-06T14:28:46Z</time>
      </trkpt>
      <trkpt lat="43.65566" lon="3.80164">
        <ele>148</ele>
        <time>2021-03-06T14:28:47Z</time>
      </trkpt>
      <trkpt lat="43.65563" lon="3.80166">
        <ele>148</ele>
        <time>2021-03-06T14:28:48Z</time>
      </trkpt>
      <trkpt lat="43.6556" lon="3.80167">
        <ele>148</ele>
        <time>2021-03-06T14:28:49Z</time>
      </trkpt>
      <trkpt lat="43.65556" lon="3.80166">
        <ele>148</ele>
        <time>2021-03-06T14:28:50Z</time>
      </trkpt>
      <trkpt lat="43.65553" lon="3.80162">
        <ele>148</ele>
        <time>2021-03-06T14:28:51Z</time>
      </trkpt>
      <trkpt lat="43.65551" lon="3.80158">
        <ele>148</ele>
        <time>2021-03-06T14:28:52Z</time>
      </trkpt>
      <trkpt lat="43.65548" lon="3.80155">
        <ele>148</ele>
        <time>2021-03-06T14:28:53Z</time>
      </trkpt>
      <trkpt lat="43.65546" lon="3.80153">
        <ele>148</ele>
        <time>2021-03-06T14:28:54Z</time>
      </trkpt>
      <trkpt lat="43.65543" lon="3.80151">
        <ele>148</ele>
        <time>2021-03-06T14:28:55Z</time>
      </trkpt>
      <trkpt lat="43.6554" lon="3.8015">
        <ele>148</ele>
        <time>2021-03-06T14:28:56Z</time>
      </trkpt>
      <trkpt lat="43.65537" lon="3.80149">
        <ele>148</ele>
        <time>2021-03-06T14:28:57Z</time>
      </trkpt>
      <trkpt lat="43.65534" lon="3.80149">
        <ele>148</ele>
        <time>2021-03-06T14:28:58Z</time>
      </trkpt>
      <trkpt lat="43.65531" lon="3.80148">
        <ele>148</ele>
        <time>2021-03-06T14:28:59Z</time>
      </trkpt>
      <trkpt lat="43.65528" lon="3.80147">
        <ele>148</ele>
        <time>2021-03-06T14:29:00Z</time>
      </trkpt>
      <trkpt lat="43.65524" lon="3.80147">
        <ele>148</ele>
        <time>2021-03-06T14:29:01Z</time>
      </trkpt>
      <trkpt lat="43.65521" lon="3.80146">
        <ele>148</ele>
        <time>2021-03-06T14:29:02Z</time>
      </trkpt>
      <trkpt lat="43.65517" lon="3.80145">
        <ele>148</ele>
        <time>2021-03-06T14:29:03Z</time>
      </trkpt>
      <trkpt lat="43.65514" lon="3.80142">
        <ele>148</ele>
        <time>2021-03-06T14:29:04Z</time>
      </trkpt>
      <trkpt lat="43.65512" lon="3.80139">
        <ele>148</ele>
        <time>2021-03-06T14:29:05Z</time>
      </trkpt>
      <trkpt lat="43.65509" lon="3.80135">
        <ele>148</ele>
        <time>2021-03-06T14:29:06Z</time>
      </trkpt>
      <trkpt lat="43.65507" lon="3.80133">
        <ele>148</ele>
        <time>2021-03-06T14:29:07Z</time>
      </trkpt>
      <trkpt lat="43.65504" lon="3.80131">
        <ele>148</ele>
        <time>2021-03-06T14:29:08Z</time>
      </trkpt>
      <trkpt lat="43.65501" lon="3.80129">
        <ele>148</ele>
        <time>2021-03-06T14:29:09Z</time>
      </trkpt>
      <trkpt lat="43.65499" lon="3.80127">
        <ele>148</ele>
        <time>2021-03-06T14:29:10Z</time>
      </trkpt>
      <trkpt lat="43.65496" lon="3.80125">
        <ele>148</ele>
        <time>2021-03-06T14:29:11Z</time>
      </trkpt>
      <trkpt lat="43.65493" lon="3.80123">
        <ele>148</ele>
        <time>2021-03-06T14:29:12Z</time>
      </trkpt>
      <trkpt lat="43.65491" lon="3.8012">
        <ele>148</ele>
        <time>2021-03-06T14:29:13Z</time>
      </trkpt>
      <trkpt lat="43.65489" lon="3.80118">
        <ele>148</ele>
        <time>2021-03-06T14:29:14Z</time>
      </trkpt>
      <trkpt lat="43.65486" lon="3.80116">
        <ele>148</ele>
        <time>2021-03-06T14:29:15Z</time>
      </trkpt>
      <trkpt lat="43.65484" lon="3.80114">
        <ele>148</ele>
        <time>2021-03-06T14:29:16Z</time>
      </trkpt>
      <trkpt lat="43.65482" lon="3.80111">
        <ele>148</ele>
        <time>2021-03-06T14:29:17Z</time>
      </trkpt>
      <trkpt lat="43.65481" lon="3.80108">
        <ele>148</ele>
        <time>2021-03-06T14:29:18Z</time>
      </trkpt>
      <trkpt lat="43.65478" lon="3.80105">
        <ele>148</ele>
        <time>2021-03-06T14:29:19Z</time>
      </trkpt>
      <trkpt lat="43.65476" lon="3.80103">
        <ele>148</ele>
        <time>2021-03-06T14:29:20Z</time>
      </trkpt>
      <trkpt lat="43.65474" lon="3.801">
        <ele>148</ele>
        <time>2021-03-06T14:29:21Z</time>
      </trkpt>
      <trkpt lat="43.65472" lon="3.80097">
        <ele>148</ele>
        <time>2021-03-06T14:29:22Z</time>
      </trkpt>
      <trkpt lat="43.6547" lon="3.80095">
        <ele>149</ele>
        <time>2021-03-06T14:29:23Z</time>
      </trkpt>
      <trkpt lat="43.65469" lon="3.80093">
        <ele>149</ele>
        <time>2021-03-06T14:29:24Z</time>
      </trkpt>
      <trkpt lat="43.65467" lon="3.80091">
        <ele>149</ele>
        <time>2021-03-06T14:29:25Z</time>
      </trkpt>
      <trkpt lat="43.65466" lon="3.80088">
        <ele>149</ele>
        <time>2021-03-06T14:29:26Z</time>
      </trkpt>
      <trkpt lat="43.65466" lon="3.80084">
        <ele>149</ele>
        <time>2021-03-06T14:29:27Z</time>
      </trkpt>
      <trkpt lat="43.65466" lon="3.80081">
        <ele>149</ele>
        <time>2021-03-06T14:29:28Z</time>
      </trkpt>
      <trkpt lat="43.65467" lon="3.80077">
        <ele>149</ele>
        <time>2021-03-06T14:29:29Z</time>
      </trkpt>
      <trkpt lat="43.65468" lon="3.80074">
        <ele>149</ele>
        <time>2021-03-06T14:29:30Z</time>
      </trkpt>
      <trkpt lat="43.65469" lon="3.80072">
        <ele>149</ele>
        <time>2021-03-06T14:29:31Z</time>
      </trkpt>
      <trkpt lat="43.6547" lon="3.80069">
        <ele>149</ele>
        <time>2021-03-06T14:29:32Z</time>
      </trkpt>
      <trkpt lat="43.65471" lon="3.80067">
        <ele>149</ele>
        <time>2021-03-06T14:29:33Z</time>
      </trkpt>
      <trkpt lat="43.65473" lon="3.80065">
        <ele>149</ele>
        <time>2021-03-06T14:29:34Z</time>
      </trkpt>
      <trkpt lat="43.65474" lon="3.80063">
        <ele>149</ele>
        <time>2021-03-06T14:29:35Z</time>
      </trkpt>
      <trkpt lat="43.65476" lon="3.80061">
        <ele>149</ele>
        <time>2021-03-06T14:29:36Z</time>
      </trkpt>
      <trkpt lat="43.65478" lon="3.8006">
        <ele>149</ele>
        <time>2021-03-06T14:29:37Z</time>
      </trkpt>
      <trkpt lat="43.65479" lon="3.80059">
        <ele>149</ele>
        <time>2021-03-06T14:29:38Z</time>
      </trkpt>
      <trkpt lat="43.65481" lon="3.80057">
        <ele>149</ele>
        <time>2021-03-06T14:29:39Z</time>
      </trkpt>
      <trkpt lat="43.65483" lon="3.80056">
        <ele>149</ele>
        <time>2021-03-06T14:29:40Z</time>
      </trkpt>
      <trkpt lat="43.65485" lon="3.80055">
        <ele>149</ele>
        <time>2021-03-06T14:29:41Z</time>
      </trkpt>
      <trkpt lat="43.65488" lon="3.80053">
        <ele>149</ele>
        <time>2021-03-06T14:29:42Z</time>
      </trkpt>
      <trkpt lat="43.65492" lon="3.8005">
        <ele>149</ele>
        <time>2021-03-06T14:29:43Z</time>
      </trkpt>
      <trkpt lat="43.65493" lon="3.80049">
        <ele>149</ele>
        <time>2021-03-06T14:29:44Z</time>
      </trkpt>
      <trkpt lat="43.65495" lon="3.80048">
        <ele>149</ele>
        <time>2021-03-06T14:29:45Z</time>
      </trkpt>
      <trkpt lat="43.65497" lon="3.80046">
        <ele>149</ele>
        <time>2021-03-06T14:29:46Z</time>
      </trkpt>
      <trkpt lat="43.655" lon="3.80043">
        <ele>149</ele>
        <time>2021-03-06T14:29:48Z</time>
      </trkpt>
      <trkpt lat="43.65502" lon="3.80041">
        <ele>149</ele>
        <time>2021-03-06T14:29:49Z</time>
      </trkpt>
      <trkpt lat="43.65503" lon="3.80039">
        <ele>149</ele>
        <time>2021-03-06T14:29:50Z</time>
      </trkpt>
      <trkpt lat="43.65506" lon="3.80034">
        <ele>149</ele>
        <time>2021-03-06T14:29:52Z</time>
      </trkpt>
      <trkpt lat="43.65508" lon="3.80031">
        <ele>149</ele>
        <time>2021-03-06T14:29:54Z</time>
      </trkpt>
      <trkpt lat="43.65509" lon="3.80029">
        <ele>149</ele>
        <time>2021-03-06T14:29:55Z</time>
      </trkpt>
      <trkpt lat="43.65511" lon="3.80027">
        <ele>149</ele>
        <time>2021-03-06T14:29:56Z</time>
      </trkpt>
      <trkpt lat="43.65512" lon="3.80024">
        <ele>149</ele>
        <time>2021-03-06T14:29:57Z</time>
      </trkpt>
      <trkpt lat="43.65513" lon="3.80022">
        <ele>149</ele>
        <time>2021-03-06T14:29:58Z</time>
      </trkpt>
      <trkpt lat="43.65514" lon="3.8002">
        <ele>149</ele>
        <time>2021-03-06T14:29:59Z</time>
      </trkpt>
      <trkpt lat="43.65516" lon="3.80017">
        <ele>149</ele>
        <time>2021-03-06T14:30:01Z</time>
      </trkpt>
      <trkpt lat="43.65516" lon="3.80013">
        <ele>150</ele>
        <time>2021-03-06T14:30:03Z</time>
      </trkpt>
      <trkpt lat="43.65515" lon="3.80009">
        <ele>150</ele>
        <time>2021-03-06T14:30:05Z</time>
      </trkpt>
      <trkpt lat="43.65513" lon="3.80006">
        <ele>150</ele>
        <time>2021-03-06T14:30:07Z</time>
      </trkpt>
      <trkpt lat="43.65512" lon="3.80002">
        <ele>150</ele>
        <time>2021-03-06T14:30:09Z</time>
      </trkpt>
      <trkpt lat="43.6551" lon="3.79999">
        <ele>150</ele>
        <time>2021-03-06T14:30:11Z</time>
      </trkpt>
      <trkpt lat="43.65508" lon="3.79997">
        <ele>150</ele>
        <time>2021-03-06T14:30:14Z</time>
      </trkpt>
      <trkpt lat="43.65506" lon="3.79994">
        <ele>150</ele>
        <time>2021-03-06T14:30:16Z</time>
      </trkpt>
      <trkpt lat="43.65504" lon="3.79991">
        <ele>150</ele>
        <time>2021-03-06T14:30:19Z</time>
      </trkpt>
      <trkpt lat="43.65503" lon="3.79989">
        <ele>150</ele>
        <time>2021-03-06T14:30:24Z</time>
      </trkpt>
      <trkpt lat="43.65499" lon="3.79981">
        <ele>151</ele>
        <time>2021-03-06T14:30:29Z</time>
      </trkpt>
      <trkpt lat="43.65496" lon="3.79979">
        <ele>151</ele>
        <time>2021-03-06T14:30:30Z</time>
      </trkpt>
      <trkpt lat="43.65494" lon="3.79976">
        <ele>151</ele>
        <time>2021-03-06T14:30:31Z</time>
      </trkpt>
      <trkpt lat="43.65492" lon="3.79973">
        <ele>151</ele>
        <time>2021-03-06T14:30:32Z</time>
      </trkpt>
      <trkpt lat="43.6549" lon="3.7997">
        <ele>151</ele>
        <time>2021-03-06T14:30:33Z</time>
      </trkpt>
      <trkpt lat="43.65488" lon="3.79967">
        <ele>151</ele>
        <time>2021-03-06T14:30:34Z</time>
      </trkpt>
      <trkpt lat="43.65486" lon="3.79964">
        <ele>151</ele>
        <time>2021-03-06T14:30:35Z</time>
      </trkpt>
      <trkpt lat="43.65484" lon="3.79961">
        <ele>151</ele>
        <time>2021-03-06T14:30:36Z</time>
      </trkpt>
      <trkpt lat="43.65482" lon="3.79958">
        <ele>151</ele>
        <time>2021-03-06T14:30:37Z</time>
      </trkpt>
      <trkpt lat="43.6548" lon="3.79955">
        <ele>151</ele>
        <time>2021-03-06T14:30:38Z</time>
      </trkpt>
      <trkpt lat="43.65478" lon="3.79953">
        <ele>151</ele>
        <time>2021-03-06T14:30:39Z</time>
      </trkpt>
      <trkpt lat="43.65476" lon="3.79951">
        <ele>151</ele>
        <time>2021-03-06T14:30:40Z</time>
      </trkpt>
      <trkpt lat="43.65474" lon="3.79947">
        <ele>151</ele>
        <time>2021-03-06T14:30:41Z</time>
      </trkpt>
      <trkpt lat="43.65473" lon="3.79944">
        <ele>151</ele>
        <time>2021-03-06T14:30:42Z</time>
      </trkpt>
      <trkpt lat="43.65471" lon="3.79942">
        <ele>151</ele>
        <time>2021-03-06T14:30:43Z</time>
      </trkpt>
      <trkpt lat="43.65468" lon="3.7994">
        <ele>151</ele>
        <time>2021-03-06T14:30:44Z</time>
      </trkpt>
      <trkpt lat="43.65466" lon="3.79937">
        <ele>151</ele>
        <time>2021-03-06T14:30:45Z</time>
      </trkpt>
      <trkpt lat="43.65464" lon="3.79934">
        <ele>151</ele>
        <time>2021-03-06T14:30:46Z</time>
      </trkpt>
      <trkpt lat="43.65462" lon="3.79931">
        <ele>151</ele>
        <time>2021-03-06T14:30:47Z</time>
      </trkpt>
      <trkpt lat="43.6546" lon="3.79928">
        <ele>151</ele>
        <time>2021-03-06T14:30:48Z</time>
      </trkpt>
      <trkpt lat="43.65458" lon="3.79924">
        <ele>151</ele>
        <time>2021-03-06T14:30:49Z</time>
      </trkpt>
      <trkpt lat="43.65454" lon="3.79918">
        <ele>151</ele>
        <time>2021-03-06T14:30:50Z</time>
      </trkpt>
      <trkpt lat="43.65452" lon="3.79915">
        <ele>151</ele>
        <time>2021-03-06T14:30:51Z</time>
      </trkpt>
      <trkpt lat="43.6545" lon="3.79913">
        <ele>151</ele>
        <time>2021-03-06T14:30:52Z</time>
      </trkpt>
      <trkpt lat="43.65447" lon="3.7991">
        <ele>151</ele>
        <time>2021-03-06T14:30:53Z</time>
      </trkpt>
      <trkpt lat="43.65445" lon="3.79907">
        <ele>151</ele>
        <time>2021-03-06T14:30:54Z</time>
      </trkpt>
      <trkpt lat="43.65442" lon="3.79904">
        <ele>151</ele>
        <time>2021-03-06T14:30:55Z</time>
      </trkpt>
      <trkpt lat="43.6544" lon="3.79902">
        <ele>151</ele>
        <time>2021-03-06T14:30:56Z</time>
      </trkpt>
      <trkpt lat="43.65437" lon="3.79899">
        <ele>151</ele>
        <time>2021-03-06T14:30:57Z</time>
      </trkpt>
      <trkpt lat="43.65434" lon="3.79896">
        <ele>151</ele>
        <time>2021-03-06T14:30:58Z</time>
      </trkpt>
      <trkpt lat="43.65431" lon="3.79893">
        <ele>151</ele>
        <time>2021-03-06T14:31:00Z</time>
      </trkpt>
      <trkpt lat="43.65428" lon="3.7989">
        <ele>151</ele>
        <time>2021-03-06T14:31:01Z</time>
      </trkpt>
      <trkpt lat="43.65425" lon="3.79887">
        <ele>151</ele>
        <time>2021-03-06T14:31:02Z</time>
      </trkpt>
      <trkpt lat="43.65422" lon="3.79885">
        <ele>151</ele>
        <time>2021-03-06T14:31:03Z</time>
      </trkpt>
      <trkpt lat="43.65419" lon="3.79883">
        <ele>151</ele>
        <time>2021-03-06T14:31:04Z</time>
      </trkpt>
      <trkpt lat="43.65417" lon="3.79881">
        <ele>151</ele>
        <time>2021-03-06T14:31:05Z</time>
      </trkpt>
      <trkpt lat="43.65415" lon="3.79879">
        <ele>151</ele>
        <time>2021-03-06T14:31:06Z</time>
      </trkpt>
      <trkpt lat="43.65413" lon="3.79878">
        <ele>151</ele>
        <time>2021-03-06T14:31:07Z</time>
      </trkpt>
      <trkpt lat="43.65411" lon="3.79876">
        <ele>151</ele>
        <time>2021-03-06T14:31:08Z</time>
      </trkpt>
      <trkpt lat="43.65409" lon="3.79874">
        <ele>151</ele>
        <time>2021-03-06T14:31:09Z</time>
      </trkpt>
      <trkpt lat="43.65407" lon="3.79872">
        <ele>151</ele>
        <time>2021-03-06T14:31:10Z</time>
      </trkpt>
      <trkpt lat="43.65405" lon="3.7987">
        <ele>151</ele>
        <time>2021-03-06T14:31:11Z</time>
      </trkpt>
      <trkpt lat="43.65402" lon="3.79868">
        <ele>151</ele>
        <time>2021-03-06T14:31:12Z</time>
      </trkpt>
      <trkpt lat="43.654" lon="3.79866">
        <ele>151</ele>
        <time>2021-03-06T14:31:13Z</time>
      </trkpt>
      <trkpt lat="43.65398" lon="3.79864">
        <ele>151</ele>
        <time>2021-03-06T14:31:14Z</time>
      </trkpt>
      <trkpt lat="43.65395" lon="3.79862">
        <ele>151</ele>
        <time>2021-03-06T14:31:15Z</time>
      </trkpt>
      <trkpt lat="43.65393" lon="3.7986">
        <ele>151</ele>
        <time>2021-03-06T14:31:16Z</time>
      </trkpt>
      <trkpt lat="43.6539" lon="3.79857">
        <ele>151</ele>
        <time>2021-03-06T14:31:17Z</time>
      </trkpt>
      <trkpt lat="43.65388" lon="3.79855">
        <ele>151</ele>
        <time>2021-03-06T14:31:18Z</time>
      </trkpt>
      <trkpt lat="43.65385" lon="3.79853">
        <ele>152</ele>
        <time>2021-03-06T14:31:19Z</time>
      </trkpt>
      <trkpt lat="43.65382" lon="3.79851">
        <ele>152</ele>
        <time>2021-03-06T14:31:20Z</time>
      </trkpt>
      <trkpt lat="43.6538" lon="3.79849">
        <ele>152</ele>
        <time>2021-03-06T14:31:21Z</time>
      </trkpt>
      <trkpt lat="43.65377" lon="3.79847">
        <ele>152</ele>
        <time>2021-03-06T14:31:22Z</time>
      </trkpt>
      <trkpt lat="43.65374" lon="3.79845">
        <ele>152</ele>
        <time>2021-03-06T14:31:23Z</time>
      </trkpt>
      <trkpt lat="43.65372" lon="3.79843">
        <ele>152</ele>
        <time>2021-03-06T14:31:24Z</time>
      </trkpt>
      <trkpt lat="43.6537" lon="3.79841">
        <ele>152</ele>
        <time>2021-03-06T14:31:25Z</time>
      </trkpt>
      <trkpt lat="43.65368" lon="3.79839">
        <ele>152</ele>
        <time>2021-03-06T14:31:26Z</time>
      </trkpt>
      <trkpt lat="43.65366" lon="3.79837">
        <ele>152</ele>
        <time>2021-03-06T14:31:27Z</time>
      </trkpt>
      <trkpt lat="43.65363" lon="3.79835">
        <ele>152</ele>
        <time>2021-03-06T14:31:28Z</time>
      </trkpt>
      <trkpt lat="43.65361" lon="3.79833">
        <ele>151</ele>
        <time>2021-03-06T14:31:29Z</time>
      </trkpt>
      <trkpt lat="43.65359" lon="3.79831">
        <ele>151</ele>
        <time>2021-03-06T14:31:30Z</time>
      </trkpt>
      <trkpt lat="43.65356" lon="3.79829">
        <ele>151</ele>
        <time>2021-03-06T14:31:31Z</time>
      </trkpt>
      <trkpt lat="43.65353" lon="3.79827">
        <ele>151</ele>
        <time>2021-03-06T14:31:32Z</time>
      </trkpt>
      <trkpt lat="43.65351" lon="3.79824">
        <ele>151</ele>
        <time>2021-03-06T14:31:33Z</time>
      </trkpt>
      <trkpt lat="43.65348" lon="3.79822">
        <ele>151</ele>
        <time>2021-03-06T14:31:34Z</time>
      </trkpt>
      <trkpt lat="43.65345" lon="3.79819">
        <ele>151</ele>
        <time>2021-03-06T14:31:35Z</time>
      </trkpt>
      <trkpt lat="43.65342" lon="3.79816">
        <ele>151</ele>
        <time>2021-03-06T14:31:36Z</time>
      </trkpt>
      <trkpt lat="43.65339" lon="3.79813">
        <ele>151</ele>
        <time>2021-03-06T14:31:37Z</time>
      </trkpt>
      <trkpt lat="43.65336" lon="3.79811">
        <ele>151</ele>
        <time>2021-03-06T14:31:38Z</time>
      </trkpt>
      <trkpt lat="43.65332" lon="3.79808">
        <ele>150</ele>
        <time>2021-03-06T14:31:39Z</time>
      </trkpt>
      <trkpt lat="43.65329" lon="3.79805">
        <ele>150</ele>
        <time>2021-03-06T14:31:40Z</time>
      </trkpt>
      <trkpt lat="43.65326" lon="3.79802">
        <ele>150</ele>
        <time>2021-03-06T14:31:41Z</time>
      </trkpt>
      <trkpt lat="43.65323" lon="3.798">
        <ele>150</ele>
        <time>2021-03-06T14:31:42Z</time>
      </trkpt>
      <trkpt lat="43.6532" lon="3.79797">
        <ele>150</ele>
        <time>2021-03-06T14:31:43Z</time>
      </trkpt>
      <trkpt lat="43.65317" lon="3.79794">
        <ele>150</ele>
        <time>2021-03-06T14:31:44Z</time>
      </trkpt>
      <trkpt lat="43.65314" lon="3.79792">
        <ele>150</ele>
        <time>2021-03-06T14:31:45Z</time>
      </trkpt>
      <trkpt lat="43.65312" lon="3.79789">
        <ele>150</ele>
        <time>2021-03-06T14:31:46Z</time>
      </trkpt>
      <trkpt lat="43.65309" lon="3.79786">
        <ele>150</ele>
        <time>2021-03-06T14:31:47Z</time>
      </trkpt>
      <trkpt lat="43.65306" lon="3.79783">
        <ele>150</ele>
        <time>2021-03-06T14:31:48Z</time>
      </trkpt>
      <trkpt lat="43.65303" lon="3.79781">
        <ele>148</ele>
        <time>2021-03-06T14:31:49Z</time>
      </trkpt>
      <trkpt lat="43.653" lon="3.79779">
        <ele>148</ele>
        <time>2021-03-06T14:31:50Z</time>
      </trkpt>
      <trkpt lat="43.65298" lon="3.79777">
        <ele>148</ele>
        <time>2021-03-06T14:31:51Z</time>
      </trkpt>
      <trkpt lat="43.65295" lon="3.79775">
        <ele>148</ele>
        <time>2021-03-06T14:31:52Z</time>
      </trkpt>
      <trkpt lat="43.65293" lon="3.79773">
        <ele>148</ele>
        <time>2021-03-06T14:31:53Z</time>
      </trkpt>
      <trkpt lat="43.6529" lon="3.79771">
        <ele>148</ele>
        <time>2021-03-06T14:31:54Z</time>
      </trkpt>
      <trkpt lat="43.65288" lon="3.79769">
        <ele>148</ele>
        <time>2021-03-06T14:31:55Z</time>
      </trkpt>
      <trkpt lat="43.65285" lon="3.79767">
        <ele>148</ele>
        <time>2021-03-06T14:31:56Z</time>
      </trkpt>
      <trkpt lat="43.65283" lon="3.79765">
        <ele>148</ele>
        <time>2021-03-06T14:31:57Z</time>
      </trkpt>
      <trkpt lat="43.6528" lon="3.79763">
        <ele>148</ele>
        <time>2021-03-06T14:31:58Z</time>
      </trkpt>
      <trkpt lat="43.65278" lon="3.79761">
        <ele>145</ele>
        <time>2021-03-06T14:31:59Z</time>
      </trkpt>
      <trkpt lat="43.65276" lon="3.79759">
        <ele>145</ele>
        <time>2021-03-06T14:32:00Z</time>
      </trkpt>
      <trkpt lat="43.65274" lon="3.79758">
        <ele>145</ele>
        <time>2021-03-06T14:32:01Z</time>
      </trkpt>
      <trkpt lat="43.65272" lon="3.79757">
        <ele>145</ele>
        <time>2021-03-06T14:32:02Z</time>
      </trkpt>
      <trkpt lat="43.6527" lon="3.79753">
        <ele>145</ele>
        <time>2021-03-06T14:32:04Z</time>
      </trkpt>
      <trkpt lat="43.65269" lon="3.79751">
        <ele>145</ele>
        <time>2021-03-06T14:32:05Z</time>
      </trkpt>
      <trkpt lat="43.65269" lon="3.79748">
        <ele>145</ele>
        <time>2021-03-06T14:32:06Z</time>
      </trkpt>
      <trkpt lat="43.65268" lon="3.79745">
        <ele>145</ele>
        <time>2021-03-06T14:32:07Z</time>
      </trkpt>
      <trkpt lat="43.65268" lon="3.79741">
        <ele>145</ele>
        <time>2021-03-06T14:32:08Z</time>
      </trkpt>
      <trkpt lat="43.65267" lon="3.79736">
        <ele>143</ele>
        <time>2021-03-06T14:32:09Z</time>
      </trkpt>
      <trkpt lat="43.65265" lon="3.79731">
        <ele>143</ele>
        <time>2021-03-06T14:32:10Z</time>
      </trkpt>
      <trkpt lat="43.65262" lon="3.79725">
        <ele>143</ele>
        <time>2021-03-06T14:32:11Z</time>
      </trkpt>
      <trkpt lat="43.65257" lon="3.79721">
        <ele>143</ele>
        <time>2021-03-06T14:32:12Z</time>
      </trkpt>
      <trkpt lat="43.65252" lon="3.79715">
        <ele>143</ele>
        <time>2021-03-06T14:32:13Z</time>
      </trkpt>
      <trkpt lat="43.65247" lon="3.79709">
        <ele>143</ele>
        <time>2021-03-06T14:32:14Z</time>
      </trkpt>
      <trkpt lat="43.65242" lon="3.79703">
        <ele>143</ele>
        <time>2021-03-06T14:32:15Z</time>
      </trkpt>
      <trkpt lat="43.65237" lon="3.79697">
        <ele>143</ele>
        <time>2021-03-06T14:32:16Z</time>
      </trkpt>
      <trkpt lat="43.65232" lon="3.79692">
        <ele>143</ele>
        <time>2021-03-06T14:32:17Z</time>
      </trkpt>
      <trkpt lat="43.65227" lon="3.79688">
        <ele>143</ele>
        <time>2021-03-06T14:32:18Z</time>
      </trkpt>
      <trkpt lat="43.65223" lon="3.79684">
        <ele>135</ele>
        <time>2021-03-06T14:32:19Z</time>
      </trkpt>
      <trkpt lat="43.6522" lon="3.7968">
        <ele>135</ele>
        <time>2021-03-06T14:32:20Z</time>
      </trkpt>
      <trkpt lat="43.65216" lon="3.79675">
        <ele>135</ele>
        <time>2021-03-06T14:32:21Z</time>
      </trkpt>
      <trkpt lat="43.65213" lon="3.79671">
        <ele>135</ele>
        <time>2021-03-06T14:32:22Z</time>
      </trkpt>
      <trkpt lat="43.65211" lon="3.79666">
        <ele>135</ele>
        <time>2021-03-06T14:32:23Z</time>
      </trkpt>
      <trkpt lat="43.6521" lon="3.7966">
        <ele>135</ele>
        <time>2021-03-06T14:32:24Z</time>
      </trkpt>
      <trkpt lat="43.6521" lon="3.79653">
        <ele>135</ele>
        <time>2021-03-06T14:32:25Z</time>
      </trkpt>
      <trkpt lat="43.6521" lon="3.79646">
        <ele>135</ele>
        <time>2021-03-06T14:32:26Z</time>
      </trkpt>
      <trkpt lat="43.65211" lon="3.79639">
        <ele>135</ele>
        <time>2021-03-06T14:32:27Z</time>
      </trkpt>
      <trkpt lat="43.65212" lon="3.79632">
        <ele>135</ele>
        <time>2021-03-06T14:32:28Z</time>
      </trkpt>
      <trkpt lat="43.65211" lon="3.79627">
        <ele>130</ele>
        <time>2021-03-06T14:32:29Z</time>
      </trkpt>
      <trkpt lat="43.6521" lon="3.79621">
        <ele>130</ele>
        <time>2021-03-06T14:32:30Z</time>
      </trkpt>
      <trkpt lat="43.65209" lon="3.79614">
        <ele>130</ele>
        <time>2021-03-06T14:32:31Z</time>
      </trkpt>
      <trkpt lat="43.65208" lon="3.79608">
        <ele>130</ele>
        <time>2021-03-06T14:32:32Z</time>
      </trkpt>
      <trkpt lat="43.65208" lon="3.79604">
        <ele>130</ele>
        <time>2021-03-06T14:32:33Z</time>
      </trkpt>
      <trkpt lat="43.65206" lon="3.79602">
        <ele>130</ele>
        <time>2021-03-06T14:32:35Z</time>
      </trkpt>
      <trkpt lat="43.65207" lon="3.79602">
        <ele>128</ele>
        <time>2021-03-06T14:32:40Z</time>
      </trkpt>
      <trkpt lat="43.65196" lon="3.79599">
        <ele>125</ele>
        <time>2021-03-06T14:33:01Z</time>
      </trkpt>
      <trkpt lat="43.65191" lon="3.79597">
        <ele>125</ele>
        <time>2021-03-06T14:33:02Z</time>
      </trkpt>
      <trkpt lat="43.65186" lon="3.79595">
        <ele>125</ele>
        <time>2021-03-06T14:33:03Z</time>
      </trkpt>
      <trkpt lat="43.65181" lon="3.79593">
        <ele>125</ele>
        <time>2021-03-06T14:33:04Z</time>
      </trkpt>
      <trkpt lat="43.65176" lon="3.79589">
        <ele>125</ele>
        <time>2021-03-06T14:33:05Z</time>
      </trkpt>
      <trkpt lat="43.65172" lon="3.79585">
        <ele>125</ele>
        <time>2021-03-06T14:33:06Z</time>
      </trkpt>
      <trkpt lat="43.65168" lon="3.79579">
        <ele>125</ele>
        <time>2021-03-06T14:33:07Z</time>
      </trkpt>
      <trkpt lat="43.65164" lon="3.79574">
        <ele>125</ele>
        <time>2021-03-06T14:33:08Z</time>
      </trkpt>
      <trkpt lat="43.65161" lon="3.79568">
        <ele>125</ele>
        <time>2021-03-06T14:33:09Z</time>
      </trkpt>
      <trkpt lat="43.65158" lon="3.79561">
        <ele>125</ele>
        <time>2021-03-06T14:33:10Z</time>
      </trkpt>
      <trkpt lat="43.65156" lon="3.79555">
        <ele>121</ele>
        <time>2021-03-06T14:33:11Z</time>
      </trkpt>
      <trkpt lat="43.65155" lon="3.79549">
        <ele>121</ele>
        <time>2021-03-06T14:33:12Z</time>
      </trkpt>
      <trkpt lat="43.65152" lon="3.79544">
        <ele>121</ele>
        <time>2021-03-06T14:33:13Z</time>
      </trkpt>
      <trkpt lat="43.65149" lon="3.79539">
        <ele>121</ele>
        <time>2021-03-06T14:33:14Z</time>
      </trkpt>
      <trkpt lat="43.65146" lon="3.79536">
        <ele>121</ele>
        <time>2021-03-06T14:33:15Z</time>
      </trkpt>
      <trkpt lat="43.65142" lon="3.79533">
        <ele>121</ele>
        <time>2021-03-06T14:33:16Z</time>
      </trkpt>
      <trkpt lat="43.65137" lon="3.7953">
        <ele>121</ele>
        <time>2021-03-06T14:33:17Z</time>
      </trkpt>
      <trkpt lat="43.65133" lon="3.79526">
        <ele>121</ele>
        <time>2021-03-06T14:33:18Z</time>
      </trkpt>
      <trkpt lat="43.65129" lon="3.7952">
        <ele>121</ele>
        <time>2021-03-06T14:33:19Z</time>
      </trkpt>
      <trkpt lat="43.65126" lon="3.79512">
        <ele>121</ele>
        <time>2021-03-06T14:33:20Z</time>
      </trkpt>
      <trkpt lat="43.65122" lon="3.79496">
        <ele>118</ele>
        <time>2021-03-06T14:33:21Z</time>
      </trkpt>
      <trkpt lat="43.6512" lon="3.79488">
        <ele>118</ele>
        <time>2021-03-06T14:33:22Z</time>
      </trkpt>
      <trkpt lat="43.65118" lon="3.7948">
        <ele>118</ele>
        <time>2021-03-06T14:33:23Z</time>
      </trkpt>
      <trkpt lat="43.65116" lon="3.79472">
        <ele>118</ele>
        <time>2021-03-06T14:33:24Z</time>
      </trkpt>
      <trkpt lat="43.65114" lon="3.79465">
        <ele>118</ele>
        <time>2021-03-06T14:33:25Z</time>
      </trkpt>
      <trkpt lat="43.65112" lon="3.79459">
        <ele>118</ele>
        <time>2021-03-06T14:33:26Z</time>
      </trkpt>
      <trkpt lat="43.65112" lon="3.79456">
        <ele>118</ele>
        <time>2021-03-06T14:33:27Z</time>
      </trkpt>
      <trkpt lat="43.65113" lon="3.79456">
        <ele>116</ele>
        <time>2021-03-06T14:33:36Z</time>
      </trkpt>
      <trkpt lat="43.6511" lon="3.79449">
        <ele>114</ele>
        <time>2021-03-06T14:33:53Z</time>
      </trkpt>
      <trkpt lat="43.65109" lon="3.79444">
        <ele>114</ele>
        <time>2021-03-06T14:33:54Z</time>
      </trkpt>
      <trkpt lat="43.65107" lon="3.79437">
        <ele>114</ele>
        <time>2021-03-06T14:33:55Z</time>
      </trkpt>
      <trkpt lat="43.65105" lon="3.7943">
        <ele>114</ele>
        <time>2021-03-06T14:33:56Z</time>
      </trkpt>
      <trkpt lat="43.65105" lon="3.79422">
        <ele>114</ele>
        <time>2021-03-06T14:33:57Z</time>
      </trkpt>
      <trkpt lat="43.65106" lon="3.79414">
        <ele>114</ele>
        <time>2021-03-06T14:33:58Z</time>
      </trkpt>
      <trkpt lat="43.65106" lon="3.79407">
        <ele>114</ele>
        <time>2021-03-06T14:33:59Z</time>
      </trkpt>
      <trkpt lat="43.65107" lon="3.79401">
        <ele>114</ele>
        <time>2021-03-06T14:34:00Z</time>
      </trkpt>
      <trkpt lat="43.65108" lon="3.79396">
        <ele>114</ele>
        <time>2021-03-06T14:34:01Z</time>
      </trkpt>
      <trkpt lat="43.65108" lon="3.79392">
        <ele>114</ele>
        <time>2021-03-06T14:34:02Z</time>
      </trkpt>
      <trkpt lat="43.65109" lon="3.79388">
        <ele>113</ele>
        <time>2021-03-06T14:34:03Z</time>
      </trkpt>
      <trkpt lat="43.6511" lon="3.79384">
        <ele>113</ele>
        <time>2021-03-06T14:34:04Z</time>
      </trkpt>
      <trkpt lat="43.65111" lon="3.7938">
        <ele>113</ele>
        <time>2021-03-06T14:34:05Z</time>
      </trkpt>
      <trkpt lat="43.65111" lon="3.79375">
        <ele>113</ele>
        <time>2021-03-06T14:34:06Z</time>
      </trkpt>
      <trkpt lat="43.65111" lon="3.7937">
        <ele>113</ele>
        <time>2021-03-06T14:34:07Z</time>
      </trkpt>
      <trkpt lat="43.65114" lon="3.79355">
        <ele>113</ele>
        <time>2021-03-06T14:34:10Z</time>
      </trkpt>
      <trkpt lat="43.65116" lon="3.79351">
        <ele>113</ele>
        <time>2021-03-06T14:34:11Z</time>
      </trkpt>
      <trkpt lat="43.65118" lon="3.79347">
        <ele>113</ele>
        <time>2021-03-06T14:34:12Z</time>
      </trkpt>
      <trkpt lat="43.6512" lon="3.79341">
        <ele>113</ele>
        <time>2021-03-06T14:34:13Z</time>
      </trkpt>
      <trkpt lat="43.65121" lon="3.79339">
        <ele>112</ele>
        <time>2021-03-06T14:34:20Z</time>
      </trkpt>
      <trkpt lat="43.65116" lon="3.79329">
        <ele>111</ele>
        <time>2021-03-06T14:35:25Z</time>
      </trkpt>
      <trkpt lat="43.65115" lon="3.79326">
        <ele>111</ele>
        <time>2021-03-06T14:35:26Z</time>
      </trkpt>
      <trkpt lat="43.65113" lon="3.79324">
        <ele>111</ele>
        <time>2021-03-06T14:35:27Z</time>
      </trkpt>
      <trkpt lat="43.65112" lon="3.79321">
        <ele>111</ele>
        <time>2021-03-06T14:35:28Z</time>
      </trkpt>
      <trkpt lat="43.6511" lon="3.79317">
        <ele>111</ele>
        <time>2021-03-06T14:35:29Z</time>
      </trkpt>
      <trkpt lat="43.65108" lon="3.79313">
        <ele>111</ele>
        <time>2021-03-06T14:35:30Z</time>
      </trkpt>
      <trkpt lat="43.65107" lon="3.7931">
        <ele>111</ele>
        <time>2021-03-06T14:35:31Z</time>
      </trkpt>
      <trkpt lat="43.65106" lon="3.79307">
        <ele>111</ele>
        <time>2021-03-06T14:35:32Z</time>
      </trkpt>
      <trkpt lat="43.65106" lon="3.79304">
        <ele>111</ele>
        <time>2021-03-06T14:35:33Z</time>
      </trkpt>
      <trkpt lat="43.65104" lon="3.793">
        <ele>111</ele>
        <time>2021-03-06T14:35:34Z</time>
      </trkpt>
      <trkpt lat="43.65103" lon="3.79297">
        <ele>110</ele>
        <time>2021-03-06T14:35:35Z</time>
      </trkpt>
      <trkpt lat="43.65101" lon="3.79292">
        <ele>110</ele>
        <time>2021-03-06T14:35:36Z</time>
      </trkpt>
      <trkpt lat="43.651" lon="3.79286">
        <ele>110</ele>
        <time>2021-03-06T14:35:37Z</time>
      </trkpt>
      <trkpt lat="43.65099" lon="3.7928">
        <ele>110</ele>
        <time>2021-03-06T14:35:38Z</time>
      </trkpt>
      <trkpt lat="43.65098" lon="3.79274">
        <ele>110</ele>
        <time>2021-03-06T14:35:39Z</time>
      </trkpt>
      <trkpt lat="43.65098" lon="3.79268">
        <ele>110</ele>
        <time>2021-03-06T14:35:40Z</time>
      </trkpt>
      <trkpt lat="43.65098" lon="3.79262">
        <ele>110</ele>
        <time>2021-03-06T14:35:41Z</time>
      </trkpt>
      <trkpt lat="43.65098" lon="3.79258">
        <ele>110</ele>
        <time>2021-03-06T14:35:42Z</time>
      </trkpt>
      <trkpt lat="43.65096" lon="3.79253">
        <ele>110</ele>
        <time>2021-03-06T14:35:43Z</time>
      </trkpt>
      <trkpt lat="43.65095" lon="3.79246">
        <ele>110</ele>
        <time>2021-03-06T14:35:44Z</time>
      </trkpt>
      <trkpt lat="43.65094" lon="3.79236">
        <ele>107</ele>
        <time>2021-03-06T14:35:45Z</time>
      </trkpt>
      <trkpt lat="43.65095" lon="3.79231">
        <ele>107</ele>
        <time>2021-03-06T14:35:46Z</time>
      </trkpt>
      <trkpt lat="43.65097" lon="3.79227">
        <ele>107</ele>
        <time>2021-03-06T14:35:47Z</time>
      </trkpt>
      <trkpt lat="43.65098" lon="3.79223">
        <ele>107</ele>
        <time>2021-03-06T14:35:48Z</time>
      </trkpt>
      <trkpt lat="43.65099" lon="3.79219">
        <ele>107</ele>
        <time>2021-03-06T14:35:49Z</time>
      </trkpt>
      <trkpt lat="43.651" lon="3.79215">
        <ele>107</ele>
        <time>2021-03-06T14:35:50Z</time>
      </trkpt>
      <trkpt lat="43.65101" lon="3.79212">
        <ele>107</ele>
        <time>2021-03-06T14:35:51Z</time>
      </trkpt>
      <trkpt lat="43.65102" lon="3.79209">
        <ele>107</ele>
        <time>2021-03-06T14:36:02Z</time>
      </trkpt>
      <trkpt lat="43.65104" lon="3.79211">
        <ele>107</ele>
        <time>2021-03-06T14:36:04Z</time>
      </trkpt>
      <trkpt lat="43.65102" lon="3.79214">
        <ele>102</ele>
        <time>2021-03-06T14:36:05Z</time>
      </trkpt>
      <trkpt lat="43.65098" lon="3.79217">
        <ele>102</ele>
        <time>2021-03-06T14:36:07Z</time>
      </trkpt>
      <trkpt lat="43.65096" lon="3.79219">
        <ele>102</ele>
        <time>2021-03-06T14:36:08Z</time>
      </trkpt>
      <trkpt lat="43.65094" lon="3.79221">
        <ele>102</ele>
        <time>2021-03-06T14:36:09Z</time>
      </trkpt>
      <trkpt lat="43.65093" lon="3.79223">
        <ele>102</ele>
        <time>2021-03-06T14:36:10Z</time>
      </trkpt>
      <trkpt lat="43.65089" lon="3.79227">
        <ele>102</ele>
        <time>2021-03-06T14:36:12Z</time>
      </trkpt>
      <trkpt lat="43.65087" lon="3.7923">
        <ele>102</ele>
        <time>2021-03-06T14:36:13Z</time>
      </trkpt>
      <trkpt lat="43.65085" lon="3.79232">
        <ele>102</ele>
        <time>2021-03-06T14:36:14Z</time>
      </trkpt>
      <trkpt lat="43.65083" lon="3.79235">
        <ele>102</ele>
        <time>2021-03-06T14:36:16Z</time>
      </trkpt>
      <trkpt lat="43.65082" lon="3.79237">
        <ele>102</ele>
        <time>2021-03-06T14:36:17Z</time>
      </trkpt>
      <trkpt lat="43.6508" lon="3.79238">
        <ele>102</ele>
        <time>2021-03-06T14:36:18Z</time>
      </trkpt>
      <trkpt lat="43.65079" lon="3.79241">
        <ele>102</ele>
        <time>2021-03-06T14:36:19Z</time>
      </trkpt>
      <trkpt lat="43.65078" lon="3.79244">
        <ele>102</ele>
        <time>2021-03-06T14:36:21Z</time>
      </trkpt>
      <trkpt lat="43.6508" lon="3.79245">
        <ele>102</ele>
        <time>2021-03-06T14:36:26Z</time>
      </trkpt>
      <trkpt lat="43.65086" lon="3.79237">
        <ele>99</ele>
        <time>2021-03-06T14:37:17Z</time>
      </trkpt>
      <trkpt lat="43.65088" lon="3.79233">
        <ele>99</ele>
        <time>2021-03-06T14:37:19Z</time>
      </trkpt>
      <trkpt lat="43.6509" lon="3.7923">
        <ele>99</ele>
        <time>2021-03-06T14:37:21Z</time>
      </trkpt>
      <trkpt lat="43.65092" lon="3.79227">
        <ele>99</ele>
        <time>2021-03-06T14:37:23Z</time>
      </trkpt>
      <trkpt lat="43.65093" lon="3.79226">
        <ele>99</ele>
        <time>2021-03-06T14:37:25Z</time>
      </trkpt>
      <trkpt lat="43.65095" lon="3.79223">
        <ele>98</ele>
        <time>2021-03-06T14:37:27Z</time>
      </trkpt>
      <trkpt lat="43.65097" lon="3.7922">
        <ele>98</ele>
        <time>2021-03-06T14:37:29Z</time>
      </trkpt>
      <trkpt lat="43.65099" lon="3.79218">
        <ele>98</ele>
        <time>2021-03-06T14:37:30Z</time>
      </trkpt>
      <trkpt lat="43.651" lon="3.79216">
        <ele>98</ele>
        <time>2021-03-06T14:37:31Z</time>
      </trkpt>
      <trkpt lat="43.65102" lon="3.79215">
        <ele>98</ele>
        <time>2021-03-06T14:37:32Z</time>
      </trkpt>
      <trkpt lat="43.65102" lon="3.79214">
        <ele>98</ele>
        <time>2021-03-06T14:37:38Z</time>
      </trkpt>
      <trkpt lat="43.65105" lon="3.79214">
        <ele>97</ele>
        <time>2021-03-06T14:37:43Z</time>
      </trkpt>
      <trkpt lat="43.65105" lon="3.79213">
        <ele>97</ele>
        <time>2021-03-06T14:37:47Z</time>
      </trkpt>
      <trkpt lat="43.65108" lon="3.79207">
        <ele>96</ele>
        <time>2021-03-06T14:37:51Z</time>
      </trkpt>
      <trkpt lat="43.65109" lon="3.79203">
        <ele>96</ele>
        <time>2021-03-06T14:37:52Z</time>
      </trkpt>
      <trkpt lat="43.65111" lon="3.79199">
        <ele>96</ele>
        <time>2021-03-06T14:37:53Z</time>
      </trkpt>
      <trkpt lat="43.65114" lon="3.79194">
        <ele>96</ele>
        <time>2021-03-06T14:37:54Z</time>
      </trkpt>
      <trkpt lat="43.65117" lon="3.79189">
        <ele>96</ele>
        <time>2021-03-06T14:37:55Z</time>
      </trkpt>
      <trkpt lat="43.6512" lon="3.79185">
        <ele>96</ele>
        <time>2021-03-06T14:37:56Z</time>
      </trkpt>
      <trkpt lat="43.65122" lon="3.79181">
        <ele>96</ele>
        <time>2021-03-06T14:37:57Z</time>
      </trkpt>
      <trkpt lat="43.65124" lon="3.79177">
        <ele>96</ele>
        <time>2021-03-06T14:37:58Z</time>
      </trkpt>
      <trkpt lat="43.65125" lon="3.79173">
        <ele>96</ele>
        <time>2021-03-06T14:37:59Z</time>
      </trkpt>
      <trkpt lat="43.65127" lon="3.79167">
        <ele>96</ele>
        <time>2021-03-06T14:38:00Z</time>
      </trkpt>
      <trkpt lat="43.6513" lon="3.79163">
        <ele>95</ele>
        <time>2021-03-06T14:38:01Z</time>
      </trkpt>
      <trkpt lat="43.65134" lon="3.79159">
        <ele>95</ele>
        <time>2021-03-06T14:38:02Z</time>
      </trkpt>
      <trkpt lat="43.65137" lon="3.79155">
        <ele>95</ele>
        <time>2021-03-06T14:38:03Z</time>
      </trkpt>
      <trkpt lat="43.6514" lon="3.79152">
        <ele>95</ele>
        <time>2021-03-06T14:38:04Z</time>
      </trkpt>
      <trkpt lat="43.65142" lon="3.7915">
        <ele>95</ele>
        <time>2021-03-06T14:38:05Z</time>
      </trkpt>
      <trkpt lat="43.65144" lon="3.79148">
        <ele>95</ele>
        <time>2021-03-06T14:38:06Z</time>
      </trkpt>
      <trkpt lat="43.65147" lon="3.79146">
        <ele>95</ele>
        <time>2021-03-06T14:38:07Z</time>
      </trkpt>
      <trkpt lat="43.65149" lon="3.79144">
        <ele>95</ele>
        <time>2021-03-06T14:38:08Z</time>
      </trkpt>
      <trkpt lat="43.65151" lon="3.79141">
        <ele>95</ele>
        <time>2021-03-06T14:38:09Z</time>
      </trkpt>
      <trkpt lat="43.65154" lon="3.79138">
        <ele>95</ele>
        <time>2021-03-06T14:38:10Z</time>
      </trkpt>
      <trkpt lat="43.65159" lon="3.79134">
        <ele>94</ele>
        <time>2021-03-06T14:38:11Z</time>
      </trkpt>
      <trkpt lat="43.65163" lon="3.79133">
        <ele>94</ele>
        <time>2021-03-06T14:38:12Z</time>
      </trkpt>
      <trkpt lat="43.65166" lon="3.79132">
        <ele>94</ele>
        <time>2021-03-06T14:38:13Z</time>
      </trkpt>
      <trkpt lat="43.65168" lon="3.79131">
        <ele>94</ele>
        <time>2021-03-06T14:38:15Z</time>
      </trkpt>
      <trkpt lat="43.65169" lon="3.79128">
        <ele>94</ele>
        <time>2021-03-06T14:38:16Z</time>
      </trkpt>
      <trkpt lat="43.65167" lon="3.79124">
        <ele>94</ele>
        <time>2021-03-06T14:38:18Z</time>
      </trkpt>
      <trkpt lat="43.65163" lon="3.79123">
        <ele>94</ele>
        <time>2021-03-06T14:38:19Z</time>
      </trkpt>
      <trkpt lat="43.65159" lon="3.79122">
        <ele>94</ele>
        <time>2021-03-06T14:38:20Z</time>
      </trkpt>
      <trkpt lat="43.65156" lon="3.79121">
        <ele>94</ele>
        <time>2021-03-06T14:38:22Z</time>
      </trkpt>
      <trkpt lat="43.65153" lon="3.7912">
        <ele>94</ele>
        <time>2021-03-06T14:38:23Z</time>
      </trkpt>
      <trkpt lat="43.6515" lon="3.79119">
        <ele>94</ele>
        <time>2021-03-06T14:38:24Z</time>
      </trkpt>
      <trkpt lat="43.65147" lon="3.79117">
        <ele>94</ele>
        <time>2021-03-06T14:38:25Z</time>
      </trkpt>
      <trkpt lat="43.65144" lon="3.79115">
        <ele>94</ele>
        <time>2021-03-06T14:38:26Z</time>
      </trkpt>
      <trkpt lat="43.65142" lon="3.79112">
        <ele>94</ele>
        <time>2021-03-06T14:38:28Z</time>
      </trkpt>
      <trkpt lat="43.65141" lon="3.7911">
        <ele>94</ele>
        <time>2021-03-06T14:38:30Z</time>
      </trkpt>
      <trkpt lat="43.6514" lon="3.79106">
        <ele>94</ele>
        <time>2021-03-06T14:38:32Z</time>
      </trkpt>
      <trkpt lat="43.6514" lon="3.79102">
        <ele>94</ele>
        <time>2021-03-06T14:38:34Z</time>
      </trkpt>
      <trkpt lat="43.65139" lon="3.79098">
        <ele>94</ele>
        <time>2021-03-06T14:38:35Z</time>
      </trkpt>
      <trkpt lat="43.6514" lon="3.79094">
        <ele>94</ele>
        <time>2021-03-06T14:38:36Z</time>
      </trkpt>
      <trkpt lat="43.6514" lon="3.79091">
        <ele>94</ele>
        <time>2021-03-06T14:38:37Z</time>
      </trkpt>
      <trkpt lat="43.6514" lon="3.79086">
        <ele>94</ele>
        <time>2021-03-06T14:38:38Z</time>
      </trkpt>
      <trkpt lat="43.6514" lon="3.79081">
        <ele>94</ele>
        <time>2021-03-06T14:38:39Z</time>
      </trkpt>
      <trkpt lat="43.6514" lon="3.79076">
        <ele>94</ele>
        <time>2021-03-06T14:38:40Z</time>
      </trkpt>
      <trkpt lat="43.65139" lon="3.7907">
        <ele>84</ele>
        <time>2021-03-06T14:38:41Z</time>
      </trkpt>
      <trkpt lat="43.65139" lon="3.79067">
        <ele>84</ele>
        <time>2021-03-06T14:38:42Z</time>
      </trkpt>
      <trkpt lat="43.65139" lon="3.79063">
        <ele>84</ele>
        <time>2021-03-06T14:38:43Z</time>
      </trkpt>
      <trkpt lat="43.6514" lon="3.79061">
        <ele>84</ele>
        <time>2021-03-06T14:38:44Z</time>
      </trkpt>
      <trkpt lat="43.65143" lon="3.79061">
        <ele>84</ele>
        <time>2021-03-06T14:38:46Z</time>
      </trkpt>
      <trkpt lat="43.65146" lon="3.79062">
        <ele>84</ele>
        <time>2021-03-06T14:38:47Z</time>
      </trkpt>
      <trkpt lat="43.65148" lon="3.79063">
        <ele>84</ele>
        <time>2021-03-06T14:38:48Z</time>
      </trkpt>
      <trkpt lat="43.6515" lon="3.79064">
        <ele>84</ele>
        <time>2021-03-06T14:38:49Z</time>
      </trkpt>
      <trkpt lat="43.65152" lon="3.79065">
        <ele>84</ele>
        <time>2021-03-06T14:38:50Z</time>
      </trkpt>
      <trkpt lat="43.65154" lon="3.79065">
        <ele>77</ele>
        <time>2021-03-06T14:38:51Z</time>
      </trkpt>
      <trkpt lat="43.65156" lon="3.79065">
        <ele>77</ele>
        <time>2021-03-06T14:38:52Z</time>
      </trkpt>
      <trkpt lat="43.6516" lon="3.79066">
        <ele>77</ele>
        <time>2021-03-06T14:38:53Z</time>
      </trkpt>
      <trkpt lat="43.65163" lon="3.79067">
        <ele>77</ele>
        <time>2021-03-06T14:38:54Z</time>
      </trkpt>
      <trkpt lat="43.65166" lon="3.79067">
        <ele>77</ele>
        <time>2021-03-06T14:38:55Z</time>
      </trkpt>
      <trkpt lat="43.65169" lon="3.79066">
        <ele>77</ele>
        <time>2021-03-06T14:38:57Z</time>
      </trkpt>
      <trkpt lat="43.65172" lon="3.79066">
        <ele>77</ele>
        <time>2021-03-06T14:38:59Z</time>
      </trkpt>
      <trkpt lat="43.65175" lon="3.79065">
        <ele>73</ele>
        <time>2021-03-06T14:39:01Z</time>
      </trkpt>
      <trkpt lat="43.65177" lon="3.79066">
        <ele>73</ele>
        <time>2021-03-06T14:39:02Z</time>
      </trkpt>
      <trkpt lat="43.65179" lon="3.79065">
        <ele>73</ele>
        <time>2021-03-06T14:39:04Z</time>
      </trkpt>
      <trkpt lat="43.65182" lon="3.79063">
        <ele>73</ele>
        <time>2021-03-06T14:39:06Z</time>
      </trkpt>
      <trkpt lat="43.65184" lon="3.7906">
        <ele>73</ele>
        <time>2021-03-06T14:39:08Z</time>
      </trkpt>
      <trkpt lat="43.65187" lon="3.79059">
        <ele>73</ele>
        <time>2021-03-06T14:39:10Z</time>
      </trkpt>
      <trkpt lat="43.6519" lon="3.79058">
        <ele>73</ele>
        <time>2021-03-06T14:39:12Z</time>
      </trkpt>
      <trkpt lat="43.65191" lon="3.79056">
        <ele>73</ele>
        <time>2021-03-06T14:39:13Z</time>
      </trkpt>
      <trkpt lat="43.6519" lon="3.79053">
        <ele>73</ele>
        <time>2021-03-06T14:39:14Z</time>
      </trkpt>
      <trkpt lat="43.65188" lon="3.79052">
        <ele>73</ele>
        <time>2021-03-06T14:39:15Z</time>
      </trkpt>
      <trkpt lat="43.65187" lon="3.79051">
        <ele>73</ele>
        <time>2021-03-06T14:39:16Z</time>
      </trkpt>
      <trkpt lat="43.65185" lon="3.7905">
        <ele>73</ele>
        <time>2021-03-06T14:39:17Z</time>
      </trkpt>
      <trkpt lat="43.65182" lon="3.7905">
        <ele>73</ele>
        <time>2021-03-06T14:39:19Z</time>
      </trkpt>
      <trkpt lat="43.65179" lon="3.79051">
        <ele>69</ele>
        <time>2021-03-06T14:39:21Z</time>
      </trkpt>
      <trkpt lat="43.65177" lon="3.79051">
        <ele>69</ele>
        <time>2021-03-06T14:39:23Z</time>
      </trkpt>
      <trkpt lat="43.65175" lon="3.7905">
        <ele>69</ele>
        <time>2021-03-06T14:39:25Z</time>
      </trkpt>
      <trkpt lat="43.65172" lon="3.79051">
        <ele>69</ele>
        <time>2021-03-06T14:39:27Z</time>
      </trkpt>
      <trkpt lat="43.6517" lon="3.79051">
        <ele>69</ele>
        <time>2021-03-06T14:39:29Z</time>
      </trkpt>
      <trkpt lat="43.65165" lon="3.79052">
        <ele>68</ele>
        <time>2021-03-06T14:39:31Z</time>
      </trkpt>
      <trkpt lat="43.65163" lon="3.79052">
        <ele>68</ele>
        <time>2021-03-06T14:39:32Z</time>
      </trkpt>
      <trkpt lat="43.65161" lon="3.79051">
        <ele>68</ele>
        <time>2021-03-06T14:39:33Z</time>
      </trkpt>
      <trkpt lat="43.65158" lon="3.79051">
        <ele>68</ele>
        <time>2021-03-06T14:39:34Z</time>
      </trkpt>
      <trkpt lat="43.65156" lon="3.79051">
        <ele>68</ele>
        <time>2021-03-06T14:39:35Z</time>
      </trkpt>
      <trkpt lat="43.65153" lon="3.79052">
        <ele>68</ele>
        <time>2021-03-06T14:39:37Z</time>
      </trkpt>
      <trkpt lat="43.6515" lon="3.79054">
        <ele>68</ele>
        <time>2021-03-06T14:39:39Z</time>
      </trkpt>
      <trkpt lat="43.65148" lon="3.79054">
        <ele>68</ele>
        <time>2021-03-06T14:39:40Z</time>
      </trkpt>
      <trkpt lat="43.65146" lon="3.79053">
        <ele>68</ele>
        <time>2021-03-06T14:39:42Z</time>
      </trkpt>
      <trkpt lat="43.65143" lon="3.79053">
        <ele>68</ele>
        <time>2021-03-06T14:39:43Z</time>
      </trkpt>
      <trkpt lat="43.65141" lon="3.79052">
        <ele>68</ele>
        <time>2021-03-06T14:39:44Z</time>
      </trkpt>
      <trkpt lat="43.65139" lon="3.79052">
        <ele>68</ele>
        <time>2021-03-06T14:39:45Z</time>
      </trkpt>
      <trkpt lat="43.65136" lon="3.79052">
        <ele>68</ele>
        <time>2021-03-06T14:39:46Z</time>
      </trkpt>
      <trkpt lat="43.65134" lon="3.79053">
        <ele>68</ele>
        <time>2021-03-06T14:39:47Z</time>
      </trkpt>
      <trkpt lat="43.65131" lon="3.79054">
        <ele>68</ele>
        <time>2021-03-06T14:39:48Z</time>
      </trkpt>
      <trkpt lat="43.65129" lon="3.79054">
        <ele>68</ele>
        <time>2021-03-06T14:39:49Z</time>
      </trkpt>
      <trkpt lat="43.65126" lon="3.79055">
        <ele>68</ele>
        <time>2021-03-06T14:39:50Z</time>
      </trkpt>
      <trkpt lat="43.65123" lon="3.79056">
        <ele>67</ele>
        <time>2021-03-06T14:39:51Z</time>
      </trkpt>
      <trkpt lat="43.65121" lon="3.79057">
        <ele>67</ele>
        <time>2021-03-06T14:39:52Z</time>
      </trkpt>
      <trkpt lat="43.65119" lon="3.79059">
        <ele>67</ele>
        <time>2021-03-06T14:39:53Z</time>
      </trkpt>
      <trkpt lat="43.65117" lon="3.79061">
        <ele>67</ele>
        <time>2021-03-06T14:39:54Z</time>
      </trkpt>
      <trkpt lat="43.65115" lon="3.79062">
        <ele>67</ele>
        <time>2021-03-06T14:39:55Z</time>
      </trkpt>
      <trkpt lat="43.65113" lon="3.79064">
        <ele>67</ele>
        <time>2021-03-06T14:39:56Z</time>
      </trkpt>
      <trkpt lat="43.6511" lon="3.79066">
        <ele>67</ele>
        <time>2021-03-06T14:39:57Z</time>
      </trkpt>
      <trkpt lat="43.65109" lon="3.79068">
        <ele>67</ele>
        <time>2021-03-06T14:39:58Z</time>
      </trkpt>
      <trkpt lat="43.65106" lon="3.79069">
        <ele>67</ele>
        <time>2021-03-06T14:39:59Z</time>
      </trkpt>
      <trkpt lat="43.65104" lon="3.79071">
        <ele>67</ele>
        <time>2021-03-06T14:40:00Z</time>
      </trkpt>
      <trkpt lat="43.65101" lon="3.79073">
        <ele>67</ele>
        <time>2021-03-06T14:40:01Z</time>
      </trkpt>
      <trkpt lat="43.65099" lon="3.79075">
        <ele>67</ele>
        <time>2021-03-06T14:40:02Z</time>
      </trkpt>
      <trkpt lat="43.65096" lon="3.79077">
        <ele>67</ele>
        <time>2021-03-06T14:40:03Z</time>
      </trkpt>
      <trkpt lat="43.65094" lon="3.7908">
        <ele>67</ele>
        <time>2021-03-06T14:40:04Z</time>
      </trkpt>
      <trkpt lat="43.65091" lon="3.79081">
        <ele>67</ele>
        <time>2021-03-06T14:40:05Z</time>
      </trkpt>
      <trkpt lat="43.65088" lon="3.79083">
        <ele>67</ele>
        <time>2021-03-06T14:40:06Z</time>
      </trkpt>
      <trkpt lat="43.65085" lon="3.79084">
        <ele>67</ele>
        <time>2021-03-06T14:40:07Z</time>
      </trkpt>
      <trkpt lat="43.65084" lon="3.79085">
        <ele>67</ele>
        <time>2021-03-06T14:40:08Z</time>
      </trkpt>
      <trkpt lat="43.65081" lon="3.79086">
        <ele>67</ele>
        <time>2021-03-06T14:40:10Z</time>
      </trkpt>
      <trkpt lat="43.65077" lon="3.79086">
        <ele>67</ele>
        <time>2021-03-06T14:40:11Z</time>
      </trkpt>
      <trkpt lat="43.65075" lon="3.79086">
        <ele>67</ele>
        <time>2021-03-06T14:40:12Z</time>
      </trkpt>
      <trkpt lat="43.65072" lon="3.79085">
        <ele>67</ele>
        <time>2021-03-06T14:40:13Z</time>
      </trkpt>
      <trkpt lat="43.6507" lon="3.79083">
        <ele>67</ele>
        <time>2021-03-06T14:40:14Z</time>
      </trkpt>
      <trkpt lat="43.65069" lon="3.79079">
        <ele>67</ele>
        <time>2021-03-06T14:40:15Z</time>
      </trkpt>
      <trkpt lat="43.65069" lon="3.79073">
        <ele>67</ele>
        <time>2021-03-06T14:40:16Z</time>
      </trkpt>
      <trkpt lat="43.65071" lon="3.79069">
        <ele>67</ele>
        <time>2021-03-06T14:40:17Z</time>
      </trkpt>
      <trkpt lat="43.65078" lon="3.79059">
        <ele>67</ele>
        <time>2021-03-06T14:40:19Z</time>
      </trkpt>
      <trkpt lat="43.65082" lon="3.79054">
        <ele>67</ele>
        <time>2021-03-06T14:40:20Z</time>
      </trkpt>
      <trkpt lat="43.65086" lon="3.79049">
        <ele>67</ele>
        <time>2021-03-06T14:40:22Z</time>
      </trkpt>
      <trkpt lat="43.65088" lon="3.79045">
        <ele>67</ele>
        <time>2021-03-06T14:40:23Z</time>
      </trkpt>
      <trkpt lat="43.6509" lon="3.79041">
        <ele>67</ele>
        <time>2021-03-06T14:40:24Z</time>
      </trkpt>
      <trkpt lat="43.65092" lon="3.79037">
        <ele>67</ele>
        <time>2021-03-06T14:40:25Z</time>
      </trkpt>
      <trkpt lat="43.65093" lon="3.79034">
        <ele>67</ele>
        <time>2021-03-06T14:40:26Z</time>
      </trkpt>
      <trkpt lat="43.65094" lon="3.7903">
        <ele>67</ele>
        <time>2021-03-06T14:40:27Z</time>
      </trkpt>
      <trkpt lat="43.65095" lon="3.79026">
        <ele>67</ele>
        <time>2021-03-06T14:40:28Z</time>
      </trkpt>
      <trkpt lat="43.65095" lon="3.79023">
        <ele>67</ele>
        <time>2021-03-06T14:40:29Z</time>
      </trkpt>
      <trkpt lat="43.65096" lon="3.7902">
        <ele>67</ele>
        <time>2021-03-06T14:40:30Z</time>
      </trkpt>
      <trkpt lat="43.65096" lon="3.79016">
        <ele>67</ele>
        <time>2021-03-06T14:40:32Z</time>
      </trkpt>
      <trkpt lat="43.65096" lon="3.79015">
        <ele>64</ele>
        <time>2021-03-06T14:40:38Z</time>
      </trkpt>
      <trkpt lat="43.65098" lon="3.79001">
        <ele>64</ele>
        <time>2021-03-06T14:40:47Z</time>
      </trkpt>
      <trkpt lat="43.65098" lon="3.78994">
        <ele>64</ele>
        <time>2021-03-06T14:40:49Z</time>
      </trkpt>
      <trkpt lat="43.65097" lon="3.78991">
        <ele>64</ele>
        <time>2021-03-06T14:40:50Z</time>
      </trkpt>
      <trkpt lat="43.65096" lon="3.78987">
        <ele>64</ele>
        <time>2021-03-06T14:40:51Z</time>
      </trkpt>
      <trkpt lat="43.65096" lon="3.78983">
        <ele>64</ele>
        <time>2021-03-06T14:40:52Z</time>
      </trkpt>
      <trkpt lat="43.65095" lon="3.7898">
        <ele>64</ele>
        <time>2021-03-06T14:40:53Z</time>
      </trkpt>
      <trkpt lat="43.65094" lon="3.78976">
        <ele>64</ele>
        <time>2021-03-06T14:40:54Z</time>
      </trkpt>
      <trkpt lat="43.65093" lon="3.78973">
        <ele>64</ele>
        <time>2021-03-06T14:40:55Z</time>
      </trkpt>
      <trkpt lat="43.65092" lon="3.78969">
        <ele>64</ele>
        <time>2021-03-06T14:40:56Z</time>
      </trkpt>
      <trkpt lat="43.65091" lon="3.78965">
        <ele>64</ele>
        <time>2021-03-06T14:40:57Z</time>
      </trkpt>
      <trkpt lat="43.6509" lon="3.78962">
        <ele>64</ele>
        <time>2021-03-06T14:40:58Z</time>
      </trkpt>
      <trkpt lat="43.65089" lon="3.78958">
        <ele>64</ele>
        <time>2021-03-06T14:40:59Z</time>
      </trkpt>
      <trkpt lat="43.65088" lon="3.78955">
        <ele>64</ele>
        <time>2021-03-06T14:41:00Z</time>
      </trkpt>
      <trkpt lat="43.65086" lon="3.78951">
        <ele>64</ele>
        <time>2021-03-06T14:41:01Z</time>
      </trkpt>
      <trkpt lat="43.65085" lon="3.78947">
        <ele>64</ele>
        <time>2021-03-06T14:41:02Z</time>
      </trkpt>
      <trkpt lat="43.65084" lon="3.78944">
        <ele>64</ele>
        <time>2021-03-06T14:41:03Z</time>
      </trkpt>
      <trkpt lat="43.65083" lon="3.7894">
        <ele>64</ele>
        <time>2021-03-06T14:41:04Z</time>
      </trkpt>
      <trkpt lat="43.65082" lon="3.78936">
        <ele>64</ele>
        <time>2021-03-06T14:41:05Z</time>
      </trkpt>
      <trkpt lat="43.6508" lon="3.78933">
        <ele>64</ele>
        <time>2021-03-06T14:41:06Z</time>
      </trkpt>
      <trkpt lat="43.65079" lon="3.78925">
        <ele>64</ele>
        <time>2021-03-06T14:41:07Z</time>
      </trkpt>
      <trkpt lat="43.65077" lon="3.78922">
        <ele>64</ele>
        <time>2021-03-06T14:41:08Z</time>
      </trkpt>
      <trkpt lat="43.65076" lon="3.78918">
        <ele>64</ele>
        <time>2021-03-06T14:41:09Z</time>
      </trkpt>
      <trkpt lat="43.65074" lon="3.78914">
        <ele>64</ele>
        <time>2021-03-06T14:41:10Z</time>
      </trkpt>
      <trkpt lat="43.65071" lon="3.78905">
        <ele>64</ele>
        <time>2021-03-06T14:41:12Z</time>
      </trkpt>
      <trkpt lat="43.6507" lon="3.78901">
        <ele>64</ele>
        <time>2021-03-06T14:41:13Z</time>
      </trkpt>
      <trkpt lat="43.65069" lon="3.78897">
        <ele>64</ele>
        <time>2021-03-06T14:41:14Z</time>
      </trkpt>
      <trkpt lat="43.65067" lon="3.78895">
        <ele>64</ele>
        <time>2021-03-06T14:41:15Z</time>
      </trkpt>
      <trkpt lat="43.65064" lon="3.78896">
        <ele>64</ele>
        <time>2021-03-06T14:41:16Z</time>
      </trkpt>
      <trkpt lat="43.65062" lon="3.789">
        <ele>64</ele>
        <time>2021-03-06T14:41:18Z</time>
      </trkpt>
      <trkpt lat="43.6506" lon="3.78903">
        <ele>64</ele>
        <time>2021-03-06T14:41:19Z</time>
      </trkpt>
      <trkpt lat="43.65059" lon="3.78905">
        <ele>64</ele>
        <time>2021-03-06T14:41:20Z</time>
      </trkpt>
      <trkpt lat="43.65059" lon="3.78909">
        <ele>62</ele>
        <time>2021-03-06T14:41:26Z</time>
      </trkpt>
      <trkpt lat="43.65063" lon="3.78925">
        <ele>64</ele>
        <time>2021-03-06T14:42:45Z</time>
      </trkpt>
      <trkpt lat="43.65063" lon="3.78929">
        <ele>64</ele>
        <time>2021-03-06T14:42:46Z</time>
      </trkpt>
      <trkpt lat="43.65062" lon="3.78932">
        <ele>64</ele>
        <time>2021-03-06T14:42:47Z</time>
      </trkpt>
      <trkpt lat="43.65062" lon="3.78935">
        <ele>64</ele>
        <time>2021-03-06T14:42:48Z</time>
      </trkpt>
      <trkpt lat="43.65063" lon="3.78938">
        <ele>64</ele>
        <time>2021-03-06T14:42:50Z</time>
      </trkpt>
      <trkpt lat="43.65062" lon="3.7894">
        <ele>64</ele>
        <time>2021-03-06T14:42:52Z</time>
      </trkpt>
      <trkpt lat="43.65064" lon="3.78944">
        <ele>64</ele>
        <time>2021-03-06T14:42:55Z</time>
      </trkpt>
      <trkpt lat="43.65065" lon="3.78946">
        <ele>64</ele>
        <time>2021-03-06T14:42:56Z</time>
      </trkpt>
      <trkpt lat="43.65067" lon="3.7895">
        <ele>64</ele>
        <time>2021-03-06T14:42:57Z</time>
      </trkpt>
      <trkpt lat="43.65068" lon="3.78953">
        <ele>64</ele>
        <time>2021-03-06T14:42:58Z</time>
      </trkpt>
      <trkpt lat="43.65071" lon="3.78953">
        <ele>64</ele>
        <time>2021-03-06T14:42:59Z</time>
      </trkpt>
      <trkpt lat="43.65073" lon="3.78952">
        <ele>64</ele>
        <time>2021-03-06T14:43:00Z</time>
      </trkpt>
      <trkpt lat="43.65076" lon="3.78949">
        <ele>64</ele>
        <time>2021-03-06T14:43:01Z</time>
      </trkpt>
      <trkpt lat="43.65078" lon="3.78947">
        <ele>64</ele>
        <time>2021-03-06T14:43:02Z</time>
      </trkpt>
      <trkpt lat="43.6508" lon="3.78945">
        <ele>64</ele>
        <time>2021-03-06T14:43:03Z</time>
      </trkpt>
      <trkpt lat="43.65082" lon="3.78943">
        <ele>64</ele>
        <time>2021-03-06T14:43:05Z</time>
      </trkpt>
      <trkpt lat="43.65084" lon="3.78942">
        <ele>63</ele>
        <time>2021-03-06T14:43:06Z</time>
      </trkpt>
      <trkpt lat="43.65087" lon="3.7894">
        <ele>63</ele>
        <time>2021-03-06T14:43:08Z</time>
      </trkpt>
      <trkpt lat="43.65092" lon="3.78938">
        <ele>63</ele>
        <time>2021-03-06T14:43:10Z</time>
      </trkpt>
      <trkpt lat="43.65095" lon="3.78936">
        <ele>63</ele>
        <time>2021-03-06T14:43:11Z</time>
      </trkpt>
      <trkpt lat="43.65097" lon="3.78933">
        <ele>63</ele>
        <time>2021-03-06T14:43:12Z</time>
      </trkpt>
      <trkpt lat="43.65099" lon="3.78931">
        <ele>63</ele>
        <time>2021-03-06T14:43:13Z</time>
      </trkpt>
      <trkpt lat="43.65101" lon="3.78928">
        <ele>63</ele>
        <time>2021-03-06T14:43:14Z</time>
      </trkpt>
      <trkpt lat="43.65103" lon="3.78926">
        <ele>63</ele>
        <time>2021-03-06T14:43:16Z</time>
      </trkpt>
      <trkpt lat="43.65105" lon="3.78925">
        <ele>63</ele>
        <time>2021-03-06T14:43:17Z</time>
      </trkpt>
      <trkpt lat="43.65107" lon="3.78923">
        <ele>63</ele>
        <time>2021-03-06T14:43:18Z</time>
      </trkpt>
      <trkpt lat="43.65108" lon="3.78921">
        <ele>63</ele>
        <time>2021-03-06T14:43:19Z</time>
      </trkpt>
      <trkpt lat="43.6511" lon="3.78919">
        <ele>63</ele>
        <time>2021-03-06T14:43:20Z</time>
      </trkpt>
      <trkpt lat="43.65112" lon="3.78918">
        <ele>63</ele>
        <time>2021-03-06T14:43:21Z</time>
      </trkpt>
      <trkpt lat="43.65114" lon="3.78916">
        <ele>63</ele>
        <time>2021-03-06T14:43:22Z</time>
      </trkpt>
      <trkpt lat="43.65115" lon="3.78915">
        <ele>63</ele>
        <time>2021-03-06T14:43:23Z</time>
      </trkpt>
      <trkpt lat="43.65117" lon="3.78913">
        <ele>63</ele>
        <time>2021-03-06T14:43:24Z</time>
      </trkpt>
      <trkpt lat="43.65119" lon="3.78912">
        <ele>62</ele>
        <time>2021-03-06T14:43:25Z</time>
      </trkpt>
      <trkpt lat="43.6512" lon="3.7891">
        <ele>62</ele>
        <time>2021-03-06T14:43:26Z</time>
      </trkpt>
      <trkpt lat="43.65121" lon="3.78908">
        <ele>62</ele>
        <time>2021-03-06T14:43:27Z</time>
      </trkpt>
      <trkpt lat="43.65124" lon="3.78906">
        <ele>62</ele>
        <time>2021-03-06T14:43:29Z</time>
      </trkpt>
      <trkpt lat="43.65126" lon="3.78903">
        <ele>62</ele>
        <time>2021-03-06T14:43:30Z</time>
      </trkpt>
      <trkpt lat="43.65128" lon="3.78901">
        <ele>62</ele>
        <time>2021-03-06T14:43:31Z</time>
      </trkpt>
      <trkpt lat="43.6513" lon="3.789">
        <ele>62</ele>
        <time>2021-03-06T14:43:32Z</time>
      </trkpt>
      <trkpt lat="43.65132" lon="3.78898">
        <ele>62</ele>
        <time>2021-03-06T14:43:33Z</time>
      </trkpt>
      <trkpt lat="43.65135" lon="3.78897">
        <ele>62</ele>
        <time>2021-03-06T14:43:34Z</time>
      </trkpt>
      <trkpt lat="43.65136" lon="3.78895">
        <ele>62</ele>
        <time>2021-03-06T14:43:35Z</time>
      </trkpt>
      <trkpt lat="43.65139" lon="3.78892">
        <ele>62</ele>
        <time>2021-03-06T14:43:37Z</time>
      </trkpt>
      <trkpt lat="43.65141" lon="3.78889">
        <ele>62</ele>
        <time>2021-03-06T14:43:39Z</time>
      </trkpt>
      <trkpt lat="43.65144" lon="3.78887">
        <ele>62</ele>
        <time>2021-03-06T14:43:41Z</time>
      </trkpt>
      <trkpt lat="43.65144" lon="3.78883">
        <ele>62</ele>
        <time>2021-03-06T14:43:44Z</time>
      </trkpt>
      <trkpt lat="43.65146" lon="3.78879">
        <ele>62</ele>
        <time>2021-03-06T14:43:46Z</time>
      </trkpt>
      <trkpt lat="43.65147" lon="3.78874">
        <ele>62</ele>
        <time>2021-03-06T14:43:48Z</time>
      </trkpt>
      <trkpt lat="43.65147" lon="3.78872">
        <ele>62</ele>
        <time>2021-03-06T14:43:49Z</time>
      </trkpt>
      <trkpt lat="43.65147" lon="3.78867">
        <ele>62</ele>
        <time>2021-03-06T14:43:51Z</time>
      </trkpt>
      <trkpt lat="43.65145" lon="3.78863">
        <ele>62</ele>
        <time>2021-03-06T14:43:53Z</time>
      </trkpt>
      <trkpt lat="43.65145" lon="3.7886">
        <ele>62</ele>
        <time>2021-03-06T14:43:54Z</time>
      </trkpt>
      <trkpt lat="43.65146" lon="3.78856">
        <ele>62</ele>
        <time>2021-03-06T14:43:56Z</time>
      </trkpt>
      <trkpt lat="43.65147" lon="3.78852">
        <ele>62</ele>
        <time>2021-03-06T14:43:58Z</time>
      </trkpt>
      <trkpt lat="43.65148" lon="3.78847">
        <ele>62</ele>
        <time>2021-03-06T14:44:00Z</time>
      </trkpt>
      <trkpt lat="43.65148" lon="3.78843">
        <ele>62</ele>
        <time>2021-03-06T14:44:02Z</time>
      </trkpt>
      <trkpt lat="43.65149" lon="3.78838">
        <ele>62</ele>
        <time>2021-03-06T14:44:04Z</time>
      </trkpt>
      <trkpt lat="43.65149" lon="3.78834">
        <ele>62</ele>
        <time>2021-03-06T14:44:06Z</time>
      </trkpt>
      <trkpt lat="43.65149" lon="3.7883">
        <ele>62</ele>
        <time>2021-03-06T14:44:08Z</time>
      </trkpt>
      <trkpt lat="43.6515" lon="3.78826">
        <ele>62</ele>
        <time>2021-03-06T14:44:10Z</time>
      </trkpt>
      <trkpt lat="43.6515" lon="3.78822">
        <ele>62</ele>
        <time>2021-03-06T14:44:12Z</time>
      </trkpt>
      <trkpt lat="43.6515" lon="3.78818">
        <ele>62</ele>
        <time>2021-03-06T14:44:14Z</time>
      </trkpt>
      <trkpt lat="43.65152" lon="3.78814">
        <ele>62</ele>
        <time>2021-03-06T14:44:16Z</time>
      </trkpt>
      <trkpt lat="43.65154" lon="3.78811">
        <ele>62</ele>
        <time>2021-03-06T14:44:18Z</time>
      </trkpt>
      <trkpt lat="43.65157" lon="3.78809">
        <ele>62</ele>
        <time>2021-03-06T14:44:20Z</time>
      </trkpt>
      <trkpt lat="43.65158" lon="3.78807">
        <ele>62</ele>
        <time>2021-03-06T14:44:21Z</time>
      </trkpt>
      <trkpt lat="43.6516" lon="3.78806">
        <ele>62</ele>
        <time>2021-03-06T14:44:22Z</time>
      </trkpt>
      <trkpt lat="43.65162" lon="3.78804">
        <ele>62</ele>
        <time>2021-03-06T14:44:23Z</time>
      </trkpt>
      <trkpt lat="43.65163" lon="3.78803">
        <ele>62</ele>
        <time>2021-03-06T14:44:24Z</time>
      </trkpt>
      <trkpt lat="43.65165" lon="3.78801">
        <ele>66</ele>
        <time>2021-03-06T14:44:25Z</time>
      </trkpt>
      <trkpt lat="43.65167" lon="3.78799">
        <ele>66</ele>
        <time>2021-03-06T14:44:26Z</time>
      </trkpt>
      <trkpt lat="43.65169" lon="3.78798">
        <ele>66</ele>
        <time>2021-03-06T14:44:27Z</time>
      </trkpt>
      <trkpt lat="43.6517" lon="3.78796">
        <ele>66</ele>
        <time>2021-03-06T14:44:28Z</time>
      </trkpt>
      <trkpt lat="43.65172" lon="3.78794">
        <ele>66</ele>
        <time>2021-03-06T14:44:29Z</time>
      </trkpt>
      <trkpt lat="43.65174" lon="3.78793">
        <ele>66</ele>
        <time>2021-03-06T14:44:30Z</time>
      </trkpt>
      <trkpt lat="43.65176" lon="3.78792">
        <ele>66</ele>
        <time>2021-03-06T14:44:31Z</time>
      </trkpt>
      <trkpt lat="43.65178" lon="3.7879">
        <ele>66</ele>
        <time>2021-03-06T14:44:32Z</time>
      </trkpt>
      <trkpt lat="43.65179" lon="3.78789">
        <ele>66</ele>
        <time>2021-03-06T14:44:33Z</time>
      </trkpt>
      <trkpt lat="43.65181" lon="3.78788">
        <ele>66</ele>
        <time>2021-03-06T14:44:34Z</time>
      </trkpt>
      <trkpt lat="43.65183" lon="3.78786">
        <ele>67</ele>
        <time>2021-03-06T14:44:35Z</time>
      </trkpt>
      <trkpt lat="43.65185" lon="3.78785">
        <ele>67</ele>
        <time>2021-03-06T14:44:36Z</time>
      </trkpt>
      <trkpt lat="43.65187" lon="3.78784">
        <ele>67</ele>
        <time>2021-03-06T14:44:37Z</time>
      </trkpt>
      <trkpt lat="43.65188" lon="3.78782">
        <ele>67</ele>
        <time>2021-03-06T14:44:38Z</time>
      </trkpt>
      <trkpt lat="43.6519" lon="3.78781">
        <ele>67</ele>
        <time>2021-03-06T14:44:39Z</time>
      </trkpt>
      <trkpt lat="43.65192" lon="3.7878">
        <ele>67</ele>
        <time>2021-03-06T14:44:40Z</time>
      </trkpt>
      <trkpt lat="43.65195" lon="3.78778">
        <ele>67</ele>
        <time>2021-03-06T14:44:41Z</time>
      </trkpt>
      <trkpt lat="43.65197" lon="3.78777">
        <ele>67</ele>
        <time>2021-03-06T14:44:42Z</time>
      </trkpt>
      <trkpt lat="43.65199" lon="3.78776">
        <ele>67</ele>
        <time>2021-03-06T14:44:43Z</time>
      </trkpt>
      <trkpt lat="43.65201" lon="3.78774">
        <ele>67</ele>
        <time>2021-03-06T14:44:44Z</time>
      </trkpt>
      <trkpt lat="43.65203" lon="3.78772">
        <ele>68</ele>
        <time>2021-03-06T14:44:45Z</time>
      </trkpt>
      <trkpt lat="43.65204" lon="3.7877">
        <ele>68</ele>
        <time>2021-03-06T14:44:46Z</time>
      </trkpt>
      <trkpt lat="43.65206" lon="3.78768">
        <ele>68</ele>
        <time>2021-03-06T14:44:47Z</time>
      </trkpt>
      <trkpt lat="43.65208" lon="3.78767">
        <ele>68</ele>
        <time>2021-03-06T14:44:48Z</time>
      </trkpt>
      <trkpt lat="43.6521" lon="3.78765">
        <ele>68</ele>
        <time>2021-03-06T14:44:49Z</time>
      </trkpt>
      <trkpt lat="43.65211" lon="3.78763">
        <ele>68</ele>
        <time>2021-03-06T14:44:50Z</time>
      </trkpt>
      <trkpt lat="43.65213" lon="3.78761">
        <ele>68</ele>
        <time>2021-03-06T14:44:51Z</time>
      </trkpt>
      <trkpt lat="43.65214" lon="3.78758">
        <ele>68</ele>
        <time>2021-03-06T14:44:52Z</time>
      </trkpt>
      <trkpt lat="43.65216" lon="3.78756">
        <ele>68</ele>
        <time>2021-03-06T14:44:53Z</time>
      </trkpt>
      <trkpt lat="43.65217" lon="3.78753">
        <ele>68</ele>
        <time>2021-03-06T14:44:54Z</time>
      </trkpt>
      <trkpt lat="43.65218" lon="3.78751">
        <ele>66</ele>
        <time>2021-03-06T14:44:55Z</time>
      </trkpt>
      <trkpt lat="43.65218" lon="3.78749">
        <ele>66</ele>
        <time>2021-03-06T14:44:56Z</time>
      </trkpt>
      <trkpt lat="43.65219" lon="3.78746">
        <ele>66</ele>
        <time>2021-03-06T14:44:57Z</time>
      </trkpt>
      <trkpt lat="43.6522" lon="3.78744">
        <ele>66</ele>
        <time>2021-03-06T14:44:58Z</time>
      </trkpt>
      <trkpt lat="43.65221" lon="3.78742">
        <ele>66</ele>
        <time>2021-03-06T14:44:59Z</time>
      </trkpt>
      <trkpt lat="43.65223" lon="3.7874">
        <ele>66</ele>
        <time>2021-03-06T14:45:00Z</time>
      </trkpt>
      <trkpt lat="43.65224" lon="3.78739">
        <ele>66</ele>
        <time>2021-03-06T14:45:01Z</time>
      </trkpt>
      <trkpt lat="43.65227" lon="3.78737">
        <ele>66</ele>
        <time>2021-03-06T14:45:03Z</time>
      </trkpt>
      <trkpt lat="43.65228" lon="3.78734">
        <ele>66</ele>
        <time>2021-03-06T14:45:05Z</time>
      </trkpt>
      <trkpt lat="43.65226" lon="3.78732">
        <ele>66</ele>
        <time>2021-03-06T14:45:07Z</time>
      </trkpt>
      <trkpt lat="43.65222" lon="3.78734">
        <ele>66</ele>
        <time>2021-03-06T14:45:09Z</time>
      </trkpt>
      <trkpt lat="43.6522" lon="3.78734">
        <ele>66</ele>
        <time>2021-03-06T14:45:10Z</time>
      </trkpt>
      <trkpt lat="43.65218" lon="3.78734">
        <ele>66</ele>
        <time>2021-03-06T14:45:11Z</time>
      </trkpt>
      <trkpt lat="43.65216" lon="3.78731">
        <ele>66</ele>
        <time>2021-03-06T14:45:12Z</time>
      </trkpt>
      <trkpt lat="43.65215" lon="3.78728">
        <ele>66</ele>
        <time>2021-03-06T14:45:13Z</time>
      </trkpt>
      <trkpt lat="43.65214" lon="3.78725">
        <ele>66</ele>
        <time>2021-03-06T14:45:14Z</time>
      </trkpt>
      <trkpt lat="43.65214" lon="3.78722">
        <ele>65</ele>
        <time>2021-03-06T14:45:15Z</time>
      </trkpt>
      <trkpt lat="43.65214" lon="3.78719">
        <ele>65</ele>
        <time>2021-03-06T14:45:16Z</time>
      </trkpt>
      <trkpt lat="43.65213" lon="3.78716">
        <ele>65</ele>
        <time>2021-03-06T14:45:17Z</time>
      </trkpt>
      <trkpt lat="43.65213" lon="3.78713">
        <ele>65</ele>
        <time>2021-03-06T14:45:18Z</time>
      </trkpt>
      <trkpt lat="43.65213" lon="3.7871">
        <ele>65</ele>
        <time>2021-03-06T14:45:19Z</time>
      </trkpt>
      <trkpt lat="43.65212" lon="3.78707">
        <ele>65</ele>
        <time>2021-03-06T14:45:20Z</time>
      </trkpt>
      <trkpt lat="43.65212" lon="3.78703">
        <ele>65</ele>
        <time>2021-03-06T14:45:21Z</time>
      </trkpt>
      <trkpt lat="43.65212" lon="3.787">
        <ele>65</ele>
        <time>2021-03-06T14:45:22Z</time>
      </trkpt>
      <trkpt lat="43.65212" lon="3.78696">
        <ele>65</ele>
        <time>2021-03-06T14:45:23Z</time>
      </trkpt>
      <trkpt lat="43.65212" lon="3.78693">
        <ele>65</ele>
        <time>2021-03-06T14:45:24Z</time>
      </trkpt>
      <trkpt lat="43.65212" lon="3.78689">
        <ele>66</ele>
        <time>2021-03-06T14:45:25Z</time>
      </trkpt>
      <trkpt lat="43.65212" lon="3.78686">
        <ele>66</ele>
        <time>2021-03-06T14:45:26Z</time>
      </trkpt>
      <trkpt lat="43.65212" lon="3.78682">
        <ele>66</ele>
        <time>2021-03-06T14:45:28Z</time>
      </trkpt>
      <trkpt lat="43.65212" lon="3.78678">
        <ele>66</ele>
        <time>2021-03-06T14:45:30Z</time>
      </trkpt>
      <trkpt lat="43.65211" lon="3.78674">
        <ele>66</ele>
        <time>2021-03-06T14:45:32Z</time>
      </trkpt>
      <trkpt lat="43.65212" lon="3.7867">
        <ele>66</ele>
        <time>2021-03-06T14:45:34Z</time>
      </trkpt>
      <trkpt lat="43.65212" lon="3.78665">
        <ele>66</ele>
        <time>2021-03-06T14:45:36Z</time>
      </trkpt>
      <trkpt lat="43.65211" lon="3.78661">
        <ele>66</ele>
        <time>2021-03-06T14:45:38Z</time>
      </trkpt>
      <trkpt lat="43.65211" lon="3.78658">
        <ele>66</ele>
        <time>2021-03-06T14:45:39Z</time>
      </trkpt>
      <trkpt lat="43.65211" lon="3.78655">
        <ele>66</ele>
        <time>2021-03-06T14:45:40Z</time>
      </trkpt>
      <trkpt lat="43.65211" lon="3.78652">
        <ele>66</ele>
        <time>2021-03-06T14:45:41Z</time>
      </trkpt>
      <trkpt lat="43.6521" lon="3.7865">
        <ele>66</ele>
        <time>2021-03-06T14:45:42Z</time>
      </trkpt>
      <trkpt lat="43.6521" lon="3.78647">
        <ele>66</ele>
        <time>2021-03-06T14:45:43Z</time>
      </trkpt>
      <trkpt lat="43.6521" lon="3.78645">
        <ele>66</ele>
        <time>2021-03-06T14:45:44Z</time>
      </trkpt>
      <trkpt lat="43.6521" lon="3.78642">
        <ele>68</ele>
        <time>2021-03-06T14:45:45Z</time>
      </trkpt>
      <trkpt lat="43.65209" lon="3.78639">
        <ele>68</ele>
        <time>2021-03-06T14:45:46Z</time>
      </trkpt>
      <trkpt lat="43.65209" lon="3.78635">
        <ele>68</ele>
        <time>2021-03-06T14:45:48Z</time>
      </trkpt>
      <trkpt lat="43.65208" lon="3.7863">
        <ele>68</ele>
        <time>2021-03-06T14:45:50Z</time>
      </trkpt>
      <trkpt lat="43.65208" lon="3.78627">
        <ele>68</ele>
        <time>2021-03-06T14:45:51Z</time>
      </trkpt>
      <trkpt lat="43.65208" lon="3.78622">
        <ele>68</ele>
        <time>2021-03-06T14:45:53Z</time>
      </trkpt>
      <trkpt lat="43.65207" lon="3.78619">
        <ele>68</ele>
        <time>2021-03-06T14:45:54Z</time>
      </trkpt>
      <trkpt lat="43.65207" lon="3.78617">
        <ele>69</ele>
        <time>2021-03-06T14:45:55Z</time>
      </trkpt>
      <trkpt lat="43.65207" lon="3.78614">
        <ele>69</ele>
        <time>2021-03-06T14:45:56Z</time>
      </trkpt>
      <trkpt lat="43.65206" lon="3.78612">
        <ele>69</ele>
        <time>2021-03-06T14:45:57Z</time>
      </trkpt>
      <trkpt lat="43.65206" lon="3.78609">
        <ele>69</ele>
        <time>2021-03-06T14:45:58Z</time>
      </trkpt>
      <trkpt lat="43.65205" lon="3.78606">
        <ele>69</ele>
        <time>2021-03-06T14:45:59Z</time>
      </trkpt>
      <trkpt lat="43.65204" lon="3.78602">
        <ele>69</ele>
        <time>2021-03-06T14:46:01Z</time>
      </trkpt>
      <trkpt lat="43.65203" lon="3.78597">
        <ele>69</ele>
        <time>2021-03-06T14:46:03Z</time>
      </trkpt>
      <trkpt lat="43.65203" lon="3.78595">
        <ele>69</ele>
        <time>2021-03-06T14:46:04Z</time>
      </trkpt>
      <trkpt lat="43.65203" lon="3.78592">
        <ele>70</ele>
        <time>2021-03-06T14:46:05Z</time>
      </trkpt>
      <trkpt lat="43.65202" lon="3.7859">
        <ele>70</ele>
        <time>2021-03-06T14:46:06Z</time>
      </trkpt>
      <trkpt lat="43.65201" lon="3.78585">
        <ele>70</ele>
        <time>2021-03-06T14:46:08Z</time>
      </trkpt>
      <trkpt lat="43.652" lon="3.78581">
        <ele>70</ele>
        <time>2021-03-06T14:46:10Z</time>
      </trkpt>
      <trkpt lat="43.652" lon="3.78576">
        <ele>70</ele>
        <time>2021-03-06T14:46:12Z</time>
      </trkpt>
      <trkpt lat="43.65199" lon="3.78572">
        <ele>70</ele>
        <time>2021-03-06T14:46:14Z</time>
      </trkpt>
      <trkpt lat="43.65198" lon="3.78568">
        <ele>71</ele>
        <time>2021-03-06T14:46:15Z</time>
      </trkpt>
      <trkpt lat="43.65197" lon="3.78564">
        <ele>71</ele>
        <time>2021-03-06T14:46:17Z</time>
      </trkpt>
      <trkpt lat="43.65195" lon="3.78559">
        <ele>71</ele>
        <time>2021-03-06T14:46:19Z</time>
      </trkpt>
      <trkpt lat="43.65194" lon="3.78555">
        <ele>71</ele>
        <time>2021-03-06T14:46:21Z</time>
      </trkpt>
      <trkpt lat="43.65193" lon="3.78551">
        <ele>71</ele>
        <time>2021-03-06T14:46:23Z</time>
      </trkpt>
      <trkpt lat="43.65192" lon="3.78547">
        <ele>71</ele>
        <time>2021-03-06T14:46:26Z</time>
      </trkpt>
      <trkpt lat="43.65192" lon="3.78542">
        <ele>71</ele>
        <time>2021-03-06T14:46:28Z</time>
      </trkpt>
      <trkpt lat="43.65193" lon="3.78537">
        <ele>71</ele>
        <time>2021-03-06T14:46:30Z</time>
      </trkpt>
      <trkpt lat="43.65193" lon="3.78533">
        <ele>71</ele>
        <time>2021-03-06T14:46:32Z</time>
      </trkpt>
      <trkpt lat="43.65193" lon="3.78531">
        <ele>71</ele>
        <time>2021-03-06T14:46:33Z</time>
      </trkpt>
      <trkpt lat="43.65193" lon="3.78526">
        <ele>71</ele>
        <time>2021-03-06T14:46:35Z</time>
      </trkpt>
      <trkpt lat="43.65194" lon="3.78524">
        <ele>72</ele>
        <time>2021-03-06T14:46:36Z</time>
      </trkpt>
      <trkpt lat="43.65195" lon="3.78521">
        <ele>72</ele>
        <time>2021-03-06T14:46:37Z</time>
      </trkpt>
      <trkpt lat="43.65195" lon="3.78519">
        <ele>72</ele>
        <time>2021-03-06T14:46:38Z</time>
      </trkpt>
      <trkpt lat="43.65196" lon="3.78516">
        <ele>72</ele>
        <time>2021-03-06T14:46:39Z</time>
      </trkpt>
      <trkpt lat="43.65196" lon="3.78514">
        <ele>72</ele>
        <time>2021-03-06T14:46:40Z</time>
      </trkpt>
      <trkpt lat="43.65197" lon="3.78511">
        <ele>72</ele>
        <time>2021-03-06T14:46:41Z</time>
      </trkpt>
      <trkpt lat="43.65197" lon="3.78509">
        <ele>72</ele>
        <time>2021-03-06T14:46:42Z</time>
      </trkpt>
      <trkpt lat="43.65198" lon="3.78504">
        <ele>72</ele>
        <time>2021-03-06T14:46:44Z</time>
      </trkpt>
      <trkpt lat="43.65199" lon="3.78499">
        <ele>72</ele>
        <time>2021-03-06T14:46:46Z</time>
      </trkpt>
      <trkpt lat="43.652" lon="3.78497">
        <ele>72</ele>
        <time>2021-03-06T14:46:47Z</time>
      </trkpt>
      <trkpt lat="43.652" lon="3.78495">
        <ele>72</ele>
        <time>2021-03-06T14:46:48Z</time>
      </trkpt>
      <trkpt lat="43.652" lon="3.78492">
        <ele>72</ele>
        <time>2021-03-06T14:46:49Z</time>
      </trkpt>
      <trkpt lat="43.65201" lon="3.78489">
        <ele>72</ele>
        <time>2021-03-06T14:46:50Z</time>
      </trkpt>
      <trkpt lat="43.65201" lon="3.78487">
        <ele>72</ele>
        <time>2021-03-06T14:46:51Z</time>
      </trkpt>
      <trkpt lat="43.65201" lon="3.78484">
        <ele>72</ele>
        <time>2021-03-06T14:46:52Z</time>
      </trkpt>
      <trkpt lat="43.65202" lon="3.78481">
        <ele>72</ele>
        <time>2021-03-06T14:46:53Z</time>
      </trkpt>
      <trkpt lat="43.65202" lon="3.78478">
        <ele>72</ele>
        <time>2021-03-06T14:46:54Z</time>
      </trkpt>
      <trkpt lat="43.65203" lon="3.78475">
        <ele>72</ele>
        <time>2021-03-06T14:46:55Z</time>
      </trkpt>
      <trkpt lat="43.65203" lon="3.78472">
        <ele>72</ele>
        <time>2021-03-06T14:46:56Z</time>
      </trkpt>
      <trkpt lat="43.65203" lon="3.7847">
        <ele>72</ele>
        <time>2021-03-06T14:46:57Z</time>
      </trkpt>
      <trkpt lat="43.65203" lon="3.78467">
        <ele>72</ele>
        <time>2021-03-06T14:46:58Z</time>
      </trkpt>
      <trkpt lat="43.65203" lon="3.78464">
        <ele>72</ele>
        <time>2021-03-06T14:46:59Z</time>
      </trkpt>
      <trkpt lat="43.65203" lon="3.7846">
        <ele>72</ele>
        <time>2021-03-06T14:47:00Z</time>
      </trkpt>
      <trkpt lat="43.65202" lon="3.78457">
        <ele>72</ele>
        <time>2021-03-06T14:47:01Z</time>
      </trkpt>
      <trkpt lat="43.65202" lon="3.78454">
        <ele>72</ele>
        <time>2021-03-06T14:47:02Z</time>
      </trkpt>
      <trkpt lat="43.65202" lon="3.78451">
        <ele>72</ele>
        <time>2021-03-06T14:47:03Z</time>
      </trkpt>
      <trkpt lat="43.65202" lon="3.78447">
        <ele>72</ele>
        <time>2021-03-06T14:47:04Z</time>
      </trkpt>
      <trkpt lat="43.65201" lon="3.78444">
        <ele>72</ele>
        <time>2021-03-06T14:47:05Z</time>
      </trkpt>
      <trkpt lat="43.652" lon="3.78441">
        <ele>72</ele>
        <time>2021-03-06T14:47:06Z</time>
      </trkpt>
      <trkpt lat="43.652" lon="3.78437">
        <ele>72</ele>
        <time>2021-03-06T14:47:07Z</time>
      </trkpt>
      <trkpt lat="43.65199" lon="3.78434">
        <ele>72</ele>
        <time>2021-03-06T14:47:08Z</time>
      </trkpt>
      <trkpt lat="43.65199" lon="3.78431">
        <ele>72</ele>
        <time>2021-03-06T14:47:09Z</time>
      </trkpt>
      <trkpt lat="43.65198" lon="3.78427">
        <ele>72</ele>
        <time>2021-03-06T14:47:10Z</time>
      </trkpt>
      <trkpt lat="43.65198" lon="3.78423">
        <ele>72</ele>
        <time>2021-03-06T14:47:11Z</time>
      </trkpt>
      <trkpt lat="43.65198" lon="3.7842">
        <ele>72</ele>
        <time>2021-03-06T14:47:12Z</time>
      </trkpt>
      <trkpt lat="43.65197" lon="3.78416">
        <ele>72</ele>
        <time>2021-03-06T14:47:13Z</time>
      </trkpt>
      <trkpt lat="43.65197" lon="3.78412">
        <ele>72</ele>
        <time>2021-03-06T14:47:14Z</time>
      </trkpt>
      <trkpt lat="43.65196" lon="3.78408">
        <ele>72</ele>
        <time>2021-03-06T14:47:15Z</time>
      </trkpt>
      <trkpt lat="43.65196" lon="3.78405">
        <ele>72</ele>
        <time>2021-03-06T14:47:16Z</time>
      </trkpt>
      <trkpt lat="43.65195" lon="3.78401">
        <ele>72</ele>
        <time>2021-03-06T14:47:17Z</time>
      </trkpt>
      <trkpt lat="43.65194" lon="3.78398">
        <ele>72</ele>
        <time>2021-03-06T14:47:18Z</time>
      </trkpt>
      <trkpt lat="43.65193" lon="3.78395">
        <ele>72</ele>
        <time>2021-03-06T14:47:19Z</time>
      </trkpt>
      <trkpt lat="43.65193" lon="3.78392">
        <ele>72</ele>
        <time>2021-03-06T14:47:20Z</time>
      </trkpt>
      <trkpt lat="43.65192" lon="3.78388">
        <ele>72</ele>
        <time>2021-03-06T14:47:21Z</time>
      </trkpt>
      <trkpt lat="43.65191" lon="3.78385">
        <ele>72</ele>
        <time>2021-03-06T14:47:22Z</time>
      </trkpt>
      <trkpt lat="43.65191" lon="3.78382">
        <ele>72</ele>
        <time>2021-03-06T14:47:23Z</time>
      </trkpt>
      <trkpt lat="43.6519" lon="3.78378">
        <ele>72</ele>
        <time>2021-03-06T14:47:24Z</time>
      </trkpt>
      <trkpt lat="43.6519" lon="3.78375">
        <ele>73</ele>
        <time>2021-03-06T14:47:25Z</time>
      </trkpt>
      <trkpt lat="43.65189" lon="3.78371">
        <ele>73</ele>
        <time>2021-03-06T14:47:26Z</time>
      </trkpt>
      <trkpt lat="43.65189" lon="3.78368">
        <ele>73</ele>
        <time>2021-03-06T14:47:27Z</time>
      </trkpt>
      <trkpt lat="43.65188" lon="3.78365">
        <ele>73</ele>
        <time>2021-03-06T14:47:28Z</time>
      </trkpt>
      <trkpt lat="43.65187" lon="3.78362">
        <ele>73</ele>
        <time>2021-03-06T14:47:29Z</time>
      </trkpt>
      <trkpt lat="43.65187" lon="3.78359">
        <ele>73</ele>
        <time>2021-03-06T14:47:30Z</time>
      </trkpt>
      <trkpt lat="43.65186" lon="3.78356">
        <ele>73</ele>
        <time>2021-03-06T14:47:31Z</time>
      </trkpt>
      <trkpt lat="43.65185" lon="3.78353">
        <ele>73</ele>
        <time>2021-03-06T14:47:32Z</time>
      </trkpt>
      <trkpt lat="43.65185" lon="3.7835">
        <ele>73</ele>
        <time>2021-03-06T14:47:33Z</time>
      </trkpt>
      <trkpt lat="43.65184" lon="3.78347">
        <ele>73</ele>
        <time>2021-03-06T14:47:34Z</time>
      </trkpt>
      <trkpt lat="43.65184" lon="3.78343">
        <ele>74</ele>
        <time>2021-03-06T14:47:35Z</time>
      </trkpt>
      <trkpt lat="43.65183" lon="3.7834">
        <ele>74</ele>
        <time>2021-03-06T14:47:36Z</time>
      </trkpt>
      <trkpt lat="43.65183" lon="3.78337">
        <ele>74</ele>
        <time>2021-03-06T14:47:37Z</time>
      </trkpt>
      <trkpt lat="43.65183" lon="3.78334">
        <ele>74</ele>
        <time>2021-03-06T14:47:38Z</time>
      </trkpt>
      <trkpt lat="43.65182" lon="3.78329">
        <ele>74</ele>
        <time>2021-03-06T14:47:40Z</time>
      </trkpt>
      <trkpt lat="43.65182" lon="3.78327">
        <ele>74</ele>
        <time>2021-03-06T14:47:41Z</time>
      </trkpt>
      <trkpt lat="43.65181" lon="3.78324">
        <ele>74</ele>
        <time>2021-03-06T14:47:42Z</time>
      </trkpt>
      <trkpt lat="43.6518" lon="3.78321">
        <ele>74</ele>
        <time>2021-03-06T14:47:43Z</time>
      </trkpt>
      <trkpt lat="43.6518" lon="3.78319">
        <ele>74</ele>
        <time>2021-03-06T14:47:44Z</time>
      </trkpt>
      <trkpt lat="43.6518" lon="3.78316">
        <ele>74</ele>
        <time>2021-03-06T14:47:45Z</time>
      </trkpt>
      <trkpt lat="43.65179" lon="3.78313">
        <ele>74</ele>
        <time>2021-03-06T14:47:46Z</time>
      </trkpt>
      <trkpt lat="43.65179" lon="3.7831">
        <ele>74</ele>
        <time>2021-03-06T14:47:47Z</time>
      </trkpt>
      <trkpt lat="43.65178" lon="3.78307">
        <ele>74</ele>
        <time>2021-03-06T14:47:48Z</time>
      </trkpt>
      <trkpt lat="43.65178" lon="3.78302">
        <ele>74</ele>
        <time>2021-03-06T14:47:50Z</time>
      </trkpt>
      <trkpt lat="43.65178" lon="3.78299">
        <ele>74</ele>
        <time>2021-03-06T14:47:51Z</time>
      </trkpt>
      <trkpt lat="43.65177" lon="3.78296">
        <ele>74</ele>
        <time>2021-03-06T14:47:52Z</time>
      </trkpt>
      <trkpt lat="43.65177" lon="3.78293">
        <ele>74</ele>
        <time>2021-03-06T14:47:53Z</time>
      </trkpt>
      <trkpt lat="43.65177" lon="3.7829">
        <ele>74</ele>
        <time>2021-03-06T14:47:54Z</time>
      </trkpt>
      <trkpt lat="43.65176" lon="3.78287">
        <ele>75</ele>
        <time>2021-03-06T14:47:55Z</time>
      </trkpt>
      <trkpt lat="43.65176" lon="3.78285">
        <ele>75</ele>
        <time>2021-03-06T14:47:56Z</time>
      </trkpt>
      <trkpt lat="43.65176" lon="3.7828">
        <ele>75</ele>
        <time>2021-03-06T14:47:58Z</time>
      </trkpt>
      <trkpt lat="43.65175" lon="3.78277">
        <ele>75</ele>
        <time>2021-03-06T14:47:59Z</time>
      </trkpt>
      <trkpt lat="43.65175" lon="3.78274">
        <ele>75</ele>
        <time>2021-03-06T14:48:00Z</time>
      </trkpt>
      <trkpt lat="43.65174" lon="3.78271">
        <ele>75</ele>
        <time>2021-03-06T14:48:01Z</time>
      </trkpt>
      <trkpt lat="43.65174" lon="3.78268">
        <ele>75</ele>
        <time>2021-03-06T14:48:02Z</time>
      </trkpt>
      <trkpt lat="43.65174" lon="3.78265">
        <ele>75</ele>
        <time>2021-03-06T14:48:03Z</time>
      </trkpt>
      <trkpt lat="43.65174" lon="3.78263">
        <ele>75</ele>
        <time>2021-03-06T14:48:04Z</time>
      </trkpt>
      <trkpt lat="43.65174" lon="3.7826">
        <ele>77</ele>
        <time>2021-03-06T14:48:05Z</time>
      </trkpt>
      <trkpt lat="43.65174" lon="3.78257">
        <ele>77</ele>
        <time>2021-03-06T14:48:06Z</time>
      </trkpt>
      <trkpt lat="43.65174" lon="3.78254">
        <ele>77</ele>
        <time>2021-03-06T14:48:07Z</time>
      </trkpt>
      <trkpt lat="43.65174" lon="3.78251">
        <ele>77</ele>
        <time>2021-03-06T14:48:08Z</time>
      </trkpt>
      <trkpt lat="43.65174" lon="3.78248">
        <ele>77</ele>
        <time>2021-03-06T14:48:09Z</time>
      </trkpt>
      <trkpt lat="43.65175" lon="3.78245">
        <ele>77</ele>
        <time>2021-03-06T14:48:10Z</time>
      </trkpt>
      <trkpt lat="43.65175" lon="3.78241">
        <ele>77</ele>
        <time>2021-03-06T14:48:11Z</time>
      </trkpt>
      <trkpt lat="43.65177" lon="3.78239">
        <ele>77</ele>
        <time>2021-03-06T14:48:12Z</time>
      </trkpt>
      <trkpt lat="43.65178" lon="3.78234">
        <ele>77</ele>
        <time>2021-03-06T14:48:14Z</time>
      </trkpt>
      <trkpt lat="43.65178" lon="3.78232">
        <ele>78</ele>
        <time>2021-03-06T14:48:15Z</time>
      </trkpt>
      <trkpt lat="43.65176" lon="3.78227">
        <ele>78</ele>
        <time>2021-03-06T14:48:17Z</time>
      </trkpt>
      <trkpt lat="43.65175" lon="3.78225">
        <ele>78</ele>
        <time>2021-03-06T14:48:18Z</time>
      </trkpt>
      <trkpt lat="43.65174" lon="3.78223">
        <ele>78</ele>
        <time>2021-03-06T14:48:19Z</time>
      </trkpt>
      <trkpt lat="43.65173" lon="3.7822">
        <ele>78</ele>
        <time>2021-03-06T14:48:20Z</time>
      </trkpt>
      <trkpt lat="43.65173" lon="3.78217">
        <ele>78</ele>
        <time>2021-03-06T14:48:21Z</time>
      </trkpt>
      <trkpt lat="43.65172" lon="3.78214">
        <ele>78</ele>
        <time>2021-03-06T14:48:22Z</time>
      </trkpt>
      <trkpt lat="43.65172" lon="3.78211">
        <ele>78</ele>
        <time>2021-03-06T14:48:23Z</time>
      </trkpt>
      <trkpt lat="43.65173" lon="3.78208">
        <ele>78</ele>
        <time>2021-03-06T14:48:24Z</time>
      </trkpt>
      <trkpt lat="43.65173" lon="3.78205">
        <ele>79</ele>
        <time>2021-03-06T14:48:25Z</time>
      </trkpt>
      <trkpt lat="43.65174" lon="3.78203">
        <ele>79</ele>
        <time>2021-03-06T14:48:26Z</time>
      </trkpt>
      <trkpt lat="43.65174" lon="3.782">
        <ele>79</ele>
        <time>2021-03-06T14:48:27Z</time>
      </trkpt>
      <trkpt lat="43.65175" lon="3.78197">
        <ele>79</ele>
        <time>2021-03-06T14:48:28Z</time>
      </trkpt>
      <trkpt lat="43.65175" lon="3.78194">
        <ele>79</ele>
        <time>2021-03-06T14:48:29Z</time>
      </trkpt>
      <trkpt lat="43.65176" lon="3.78191">
        <ele>79</ele>
        <time>2021-03-06T14:48:30Z</time>
      </trkpt>
      <trkpt lat="43.65177" lon="3.78188">
        <ele>79</ele>
        <time>2021-03-06T14:48:31Z</time>
      </trkpt>
      <trkpt lat="43.65177" lon="3.78186">
        <ele>79</ele>
        <time>2021-03-06T14:48:32Z</time>
      </trkpt>
      <trkpt lat="43.65178" lon="3.78183">
        <ele>79</ele>
        <time>2021-03-06T14:48:33Z</time>
      </trkpt>
      <trkpt lat="43.65179" lon="3.7818">
        <ele>79</ele>
        <time>2021-03-06T14:48:34Z</time>
      </trkpt>
      <trkpt lat="43.6518" lon="3.78177">
        <ele>80</ele>
        <time>2021-03-06T14:48:35Z</time>
      </trkpt>
      <trkpt lat="43.65181" lon="3.78174">
        <ele>80</ele>
        <time>2021-03-06T14:48:36Z</time>
      </trkpt>
      <trkpt lat="43.65182" lon="3.78171">
        <ele>80</ele>
        <time>2021-03-06T14:48:37Z</time>
      </trkpt>
      <trkpt lat="43.65183" lon="3.78169">
        <ele>80</ele>
        <time>2021-03-06T14:48:38Z</time>
      </trkpt>
      <trkpt lat="43.65184" lon="3.78166">
        <ele>80</ele>
        <time>2021-03-06T14:48:39Z</time>
      </trkpt>
      <trkpt lat="43.65185" lon="3.78163">
        <ele>80</ele>
        <time>2021-03-06T14:48:40Z</time>
      </trkpt>
      <trkpt lat="43.65186" lon="3.7816">
        <ele>80</ele>
        <time>2021-03-06T14:48:41Z</time>
      </trkpt>
      <trkpt lat="43.65186" lon="3.78156">
        <ele>80</ele>
        <time>2021-03-06T14:48:42Z</time>
      </trkpt>
      <trkpt lat="43.65187" lon="3.78152">
        <ele>80</ele>
        <time>2021-03-06T14:48:43Z</time>
      </trkpt>
      <trkpt lat="43.65188" lon="3.78148">
        <ele>80</ele>
        <time>2021-03-06T14:48:44Z</time>
      </trkpt>
      <trkpt lat="43.65189" lon="3.78143">
        <ele>81</ele>
        <time>2021-03-06T14:48:45Z</time>
      </trkpt>
      <trkpt lat="43.65191" lon="3.78138">
        <ele>81</ele>
        <time>2021-03-06T14:48:46Z</time>
      </trkpt>
      <trkpt lat="43.65192" lon="3.78133">
        <ele>81</ele>
        <time>2021-03-06T14:48:47Z</time>
      </trkpt>
      <trkpt lat="43.65195" lon="3.78128">
        <ele>81</ele>
        <time>2021-03-06T14:48:48Z</time>
      </trkpt>
      <trkpt lat="43.65197" lon="3.78122">
        <ele>81</ele>
        <time>2021-03-06T14:48:49Z</time>
      </trkpt>
      <trkpt lat="43.652" lon="3.78115">
        <ele>81</ele>
        <time>2021-03-06T14:48:50Z</time>
      </trkpt>
      <trkpt lat="43.65204" lon="3.78108">
        <ele>81</ele>
        <time>2021-03-06T14:48:51Z</time>
      </trkpt>
      <trkpt lat="43.65207" lon="3.78101">
        <ele>81</ele>
        <time>2021-03-06T14:48:52Z</time>
      </trkpt>
      <trkpt lat="43.65211" lon="3.78094">
        <ele>81</ele>
        <time>2021-03-06T14:48:53Z</time>
      </trkpt>
      <trkpt lat="43.65215" lon="3.78089">
        <ele>81</ele>
        <time>2021-03-06T14:48:54Z</time>
      </trkpt>
      <trkpt lat="43.65217" lon="3.78084">
        <ele>80</ele>
        <time>2021-03-06T14:48:55Z</time>
      </trkpt>
      <trkpt lat="43.65219" lon="3.78078">
        <ele>80</ele>
        <time>2021-03-06T14:48:56Z</time>
      </trkpt>
      <trkpt lat="43.65221" lon="3.78073">
        <ele>80</ele>
        <time>2021-03-06T14:48:57Z</time>
      </trkpt>
      <trkpt lat="43.65223" lon="3.78069">
        <ele>80</ele>
        <time>2021-03-06T14:48:58Z</time>
      </trkpt>
      <trkpt lat="43.65225" lon="3.78065">
        <ele>80</ele>
        <time>2021-03-06T14:48:59Z</time>
      </trkpt>
      <trkpt lat="43.65226" lon="3.78062">
        <ele>80</ele>
        <time>2021-03-06T14:49:00Z</time>
      </trkpt>
      <trkpt lat="43.65227" lon="3.7806">
        <ele>80</ele>
        <time>2021-03-06T14:49:01Z</time>
      </trkpt>
      <trkpt lat="43.65229" lon="3.78057">
        <ele>80</ele>
        <time>2021-03-06T14:49:02Z</time>
      </trkpt>
      <trkpt lat="43.6523" lon="3.78053">
        <ele>80</ele>
        <time>2021-03-06T14:49:04Z</time>
      </trkpt>
      <trkpt lat="43.65232" lon="3.78051">
        <ele>80</ele>
        <time>2021-03-06T14:49:06Z</time>
      </trkpt>
      <trkpt lat="43.65235" lon="3.78052">
        <ele>80</ele>
        <time>2021-03-06T14:49:08Z</time>
      </trkpt>
      <trkpt lat="43.65238" lon="3.78055">
        <ele>80</ele>
        <time>2021-03-06T14:49:09Z</time>
      </trkpt>
      <trkpt lat="43.65241" lon="3.78058">
        <ele>80</ele>
        <time>2021-03-06T14:49:10Z</time>
      </trkpt>
      <trkpt lat="43.65244" lon="3.78062">
        <ele>80</ele>
        <time>2021-03-06T14:49:11Z</time>
      </trkpt>
      <trkpt lat="43.65247" lon="3.78066">
        <ele>80</ele>
        <time>2021-03-06T14:49:12Z</time>
      </trkpt>
      <trkpt lat="43.6525" lon="3.78069">
        <ele>80</ele>
        <time>2021-03-06T14:49:13Z</time>
      </trkpt>
      <trkpt lat="43.65253" lon="3.78072">
        <ele>80</ele>
        <time>2021-03-06T14:49:14Z</time>
      </trkpt>
      <trkpt lat="43.65256" lon="3.78076">
        <ele>78</ele>
        <time>2021-03-06T14:49:15Z</time>
      </trkpt>
      <trkpt lat="43.65259" lon="3.78079">
        <ele>78</ele>
        <time>2021-03-06T14:49:16Z</time>
      </trkpt>
      <trkpt lat="43.65262" lon="3.78083">
        <ele>78</ele>
        <time>2021-03-06T14:49:17Z</time>
      </trkpt>
      <trkpt lat="43.65265" lon="3.78087">
        <ele>78</ele>
        <time>2021-03-06T14:49:18Z</time>
      </trkpt>
      <trkpt lat="43.65269" lon="3.78089">
        <ele>78</ele>
        <time>2021-03-06T14:49:19Z</time>
      </trkpt>
      <trkpt lat="43.65273" lon="3.78091">
        <ele>78</ele>
        <time>2021-03-06T14:49:20Z</time>
      </trkpt>
      <trkpt lat="43.65277" lon="3.78092">
        <ele>78</ele>
        <time>2021-03-06T14:49:21Z</time>
      </trkpt>
      <trkpt lat="43.6528" lon="3.78094">
        <ele>78</ele>
        <time>2021-03-06T14:49:22Z</time>
      </trkpt>
      <trkpt lat="43.65284" lon="3.78095">
        <ele>78</ele>
        <time>2021-03-06T14:49:23Z</time>
      </trkpt>
      <trkpt lat="43.65288" lon="3.78096">
        <ele>78</ele>
        <time>2021-03-06T14:49:24Z</time>
      </trkpt>
      <trkpt lat="43.65297" lon="3.78094">
        <ele>77</ele>
        <time>2021-03-06T14:49:25Z</time>
      </trkpt>
      <trkpt lat="43.65301" lon="3.78092">
        <ele>77</ele>
        <time>2021-03-06T14:49:26Z</time>
      </trkpt>
      <trkpt lat="43.65306" lon="3.7809">
        <ele>77</ele>
        <time>2021-03-06T14:49:27Z</time>
      </trkpt>
      <trkpt lat="43.6531" lon="3.78089">
        <ele>77</ele>
        <time>2021-03-06T14:49:28Z</time>
      </trkpt>
      <trkpt lat="43.65314" lon="3.78087">
        <ele>77</ele>
        <time>2021-03-06T14:49:29Z</time>
      </trkpt>
      <trkpt lat="43.65317" lon="3.78085">
        <ele>77</ele>
        <time>2021-03-06T14:49:30Z</time>
      </trkpt>
      <trkpt lat="43.6532" lon="3.78084">
        <ele>77</ele>
        <time>2021-03-06T14:49:31Z</time>
      </trkpt>
      <trkpt lat="43.65323" lon="3.78083">
        <ele>77</ele>
        <time>2021-03-06T14:49:32Z</time>
      </trkpt>
      <trkpt lat="43.65326" lon="3.78082">
        <ele>77</ele>
        <time>2021-03-06T14:49:33Z</time>
      </trkpt>
      <trkpt lat="43.65329" lon="3.78082">
        <ele>77</ele>
        <time>2021-03-06T14:49:34Z</time>
      </trkpt>
      <trkpt lat="43.65332" lon="3.78081">
        <ele>77</ele>
        <time>2021-03-06T14:49:36Z</time>
      </trkpt>
      <trkpt lat="43.65334" lon="3.78081">
        <ele>77</ele>
        <time>2021-03-06T14:49:37Z</time>
      </trkpt>
      <trkpt lat="43.65336" lon="3.7808">
        <ele>77</ele>
        <time>2021-03-06T14:49:38Z</time>
      </trkpt>
      <trkpt lat="43.65338" lon="3.7808">
        <ele>77</ele>
        <time>2021-03-06T14:49:40Z</time>
      </trkpt>
      <trkpt lat="43.6534" lon="3.78077">
        <ele>79</ele>
        <time>2021-03-06T14:49:45Z</time>
      </trkpt>
      <trkpt lat="43.65342" lon="3.78077">
        <ele>79</ele>
        <time>2021-03-06T14:49:48Z</time>
      </trkpt>
      <trkpt lat="43.65344" lon="3.78075">
        <ele>79</ele>
        <time>2021-03-06T14:49:51Z</time>
      </trkpt>
      <trkpt lat="43.65345" lon="3.78073">
        <ele>79</ele>
        <time>2021-03-06T14:49:52Z</time>
      </trkpt>
      <trkpt lat="43.65347" lon="3.78069">
        <ele>79</ele>
        <time>2021-03-06T14:49:53Z</time>
      </trkpt>
      <trkpt lat="43.6535" lon="3.78065">
        <ele>79</ele>
        <time>2021-03-06T14:49:54Z</time>
      </trkpt>
      <trkpt lat="43.65353" lon="3.78062">
        <ele>80</ele>
        <time>2021-03-06T14:49:55Z</time>
      </trkpt>
      <trkpt lat="43.65357" lon="3.78059">
        <ele>80</ele>
        <time>2021-03-06T14:49:56Z</time>
      </trkpt>
      <trkpt lat="43.6536" lon="3.78055">
        <ele>80</ele>
        <time>2021-03-06T14:49:57Z</time>
      </trkpt>
      <trkpt lat="43.65363" lon="3.78051">
        <ele>80</ele>
        <time>2021-03-06T14:49:58Z</time>
      </trkpt>
      <trkpt lat="43.65366" lon="3.78049">
        <ele>80</ele>
        <time>2021-03-06T14:49:59Z</time>
      </trkpt>
      <trkpt lat="43.65369" lon="3.78046">
        <ele>80</ele>
        <time>2021-03-06T14:50:00Z</time>
      </trkpt>
      <trkpt lat="43.65373" lon="3.78046">
        <ele>80</ele>
        <time>2021-03-06T14:50:01Z</time>
      </trkpt>
      <trkpt lat="43.65375" lon="3.78049">
        <ele>80</ele>
        <time>2021-03-06T14:50:02Z</time>
      </trkpt>
      <trkpt lat="43.65378" lon="3.78051">
        <ele>80</ele>
        <time>2021-03-06T14:50:03Z</time>
      </trkpt>
      <trkpt lat="43.6538" lon="3.78053">
        <ele>80</ele>
        <time>2021-03-06T14:50:04Z</time>
      </trkpt>
      <trkpt lat="43.65382" lon="3.78054">
        <ele>79</ele>
        <time>2021-03-06T14:50:05Z</time>
      </trkpt>
      <trkpt lat="43.65385" lon="3.78054">
        <ele>79</ele>
        <time>2021-03-06T14:50:06Z</time>
      </trkpt>
      <trkpt lat="43.65388" lon="3.78054">
        <ele>79</ele>
        <time>2021-03-06T14:50:07Z</time>
      </trkpt>
      <trkpt lat="43.6539" lon="3.78053">
        <ele>79</ele>
        <time>2021-03-06T14:50:08Z</time>
      </trkpt>
      <trkpt lat="43.65394" lon="3.78053">
        <ele>79</ele>
        <time>2021-03-06T14:50:09Z</time>
      </trkpt>
      <trkpt lat="43.65396" lon="3.78053">
        <ele>79</ele>
        <time>2021-03-06T14:50:10Z</time>
      </trkpt>
      <trkpt lat="43.65399" lon="3.78055">
        <ele>79</ele>
        <time>2021-03-06T14:50:11Z</time>
      </trkpt>
      <trkpt lat="43.65401" lon="3.78057">
        <ele>79</ele>
        <time>2021-03-06T14:50:12Z</time>
      </trkpt>
      <trkpt lat="43.65404" lon="3.78058">
        <ele>79</ele>
        <time>2021-03-06T14:50:13Z</time>
      </trkpt>
      <trkpt lat="43.65406" lon="3.78057">
        <ele>79</ele>
        <time>2021-03-06T14:50:14Z</time>
      </trkpt>
      <trkpt lat="43.65408" lon="3.78055">
        <ele>77</ele>
        <time>2021-03-06T14:50:15Z</time>
      </trkpt>
      <trkpt lat="43.65409" lon="3.78054">
        <ele>77</ele>
        <time>2021-03-06T14:50:16Z</time>
      </trkpt>
      <trkpt lat="43.65411" lon="3.78052">
        <ele>77</ele>
        <time>2021-03-06T14:50:17Z</time>
      </trkpt>
      <trkpt lat="43.65413" lon="3.78051">
        <ele>77</ele>
        <time>2021-03-06T14:50:18Z</time>
      </trkpt>
      <trkpt lat="43.65414" lon="3.78049">
        <ele>77</ele>
        <time>2021-03-06T14:50:19Z</time>
      </trkpt>
      <trkpt lat="43.65415" lon="3.78046">
        <ele>77</ele>
        <time>2021-03-06T14:50:20Z</time>
      </trkpt>
      <trkpt lat="43.65417" lon="3.78042">
        <ele>77</ele>
        <time>2021-03-06T14:50:21Z</time>
      </trkpt>
      <trkpt lat="43.65418" lon="3.78038">
        <ele>77</ele>
        <time>2021-03-06T14:50:22Z</time>
      </trkpt>
      <trkpt lat="43.6542" lon="3.78033">
        <ele>77</ele>
        <time>2021-03-06T14:50:23Z</time>
      </trkpt>
      <trkpt lat="43.65423" lon="3.78029">
        <ele>77</ele>
        <time>2021-03-06T14:50:24Z</time>
      </trkpt>
      <trkpt lat="43.65429" lon="3.78019">
        <ele>75</ele>
        <time>2021-03-06T14:50:25Z</time>
      </trkpt>
      <trkpt lat="43.65431" lon="3.78014">
        <ele>75</ele>
        <time>2021-03-06T14:50:26Z</time>
      </trkpt>
      <trkpt lat="43.65434" lon="3.7801">
        <ele>75</ele>
        <time>2021-03-06T14:50:27Z</time>
      </trkpt>
      <trkpt lat="43.65436" lon="3.78006">
        <ele>75</ele>
        <time>2021-03-06T14:50:28Z</time>
      </trkpt>
      <trkpt lat="43.65438" lon="3.78003">
        <ele>75</ele>
        <time>2021-03-06T14:50:29Z</time>
      </trkpt>
      <trkpt lat="43.65439" lon="3.77999">
        <ele>75</ele>
        <time>2021-03-06T14:50:30Z</time>
      </trkpt>
      <trkpt lat="43.6544" lon="3.77996">
        <ele>75</ele>
        <time>2021-03-06T14:50:32Z</time>
      </trkpt>
      <trkpt lat="43.65441" lon="3.77992">
        <ele>75</ele>
        <time>2021-03-06T14:50:33Z</time>
      </trkpt>
      <trkpt lat="43.65443" lon="3.77992">
        <ele>75</ele>
        <time>2021-03-06T14:50:36Z</time>
      </trkpt>
      <trkpt lat="43.65443" lon="3.77995">
        <ele>75</ele>
        <time>2021-03-06T14:50:38Z</time>
      </trkpt>
      <trkpt lat="43.65442" lon="3.77998">
        <ele>75</ele>
        <time>2021-03-06T14:50:40Z</time>
      </trkpt>
      <trkpt lat="43.65442" lon="3.78">
        <ele>75</ele>
        <time>2021-03-06T14:50:42Z</time>
      </trkpt>
      <trkpt lat="43.65443" lon="3.78003">
        <ele>75</ele>
        <time>2021-03-06T14:50:44Z</time>
      </trkpt>
      <trkpt lat="43.65442" lon="3.78008">
        <ele>75</ele>
        <time>2021-03-06T14:50:46Z</time>
      </trkpt>
      <trkpt lat="43.65441" lon="3.78011">
        <ele>75</ele>
        <time>2021-03-06T14:50:47Z</time>
      </trkpt>
      <trkpt lat="43.65439" lon="3.78014">
        <ele>75</ele>
        <time>2021-03-06T14:50:49Z</time>
      </trkpt>
      <trkpt lat="43.65436" lon="3.78015">
        <ele>75</ele>
        <time>2021-03-06T14:50:51Z</time>
      </trkpt>
      <trkpt lat="43.65434" lon="3.78015">
        <ele>75</ele>
        <time>2021-03-06T14:50:54Z</time>
      </trkpt>
      <trkpt lat="43.65432" lon="3.78013">
        <ele>75</ele>
        <time>2021-03-06T14:50:58Z</time>
      </trkpt>
      <trkpt lat="43.65433" lon="3.7801">
        <ele>75</ele>
        <time>2021-03-06T14:51:03Z</time>
      </trkpt>
      <trkpt lat="43.65435" lon="3.78007">
        <ele>71</ele>
        <time>2021-03-06T14:51:05Z</time>
      </trkpt>
      <trkpt lat="43.65436" lon="3.78004">
        <ele>71</ele>
        <time>2021-03-06T14:51:06Z</time>
      </trkpt>
      <trkpt lat="43.65437" lon="3.78002">
        <ele>71</ele>
        <time>2021-03-06T14:51:07Z</time>
      </trkpt>
      <trkpt lat="43.65438" lon="3.77999">
        <ele>71</ele>
        <time>2021-03-06T14:51:08Z</time>
      </trkpt>
      <trkpt lat="43.65439" lon="3.77996">
        <ele>71</ele>
        <time>2021-03-06T14:51:09Z</time>
      </trkpt>
      <trkpt lat="43.6544" lon="3.77992">
        <ele>71</ele>
        <time>2021-03-06T14:51:10Z</time>
      </trkpt>
      <trkpt lat="43.65441" lon="3.77989">
        <ele>71</ele>
        <time>2021-03-06T14:51:11Z</time>
      </trkpt>
      <trkpt lat="43.65441" lon="3.77985">
        <ele>71</ele>
        <time>2021-03-06T14:51:12Z</time>
      </trkpt>
      <trkpt lat="43.65442" lon="3.77982">
        <ele>71</ele>
        <time>2021-03-06T14:51:13Z</time>
      </trkpt>
      <trkpt lat="43.65443" lon="3.77979">
        <ele>71</ele>
        <time>2021-03-06T14:51:14Z</time>
      </trkpt>
      <trkpt lat="43.65443" lon="3.77976">
        <ele>72</ele>
        <time>2021-03-06T14:51:15Z</time>
      </trkpt>
      <trkpt lat="43.65444" lon="3.77973">
        <ele>72</ele>
        <time>2021-03-06T14:51:16Z</time>
      </trkpt>
      <trkpt lat="43.65444" lon="3.7797">
        <ele>72</ele>
        <time>2021-03-06T14:51:17Z</time>
      </trkpt>
      <trkpt lat="43.65444" lon="3.77967">
        <ele>72</ele>
        <time>2021-03-06T14:51:18Z</time>
      </trkpt>
      <trkpt lat="43.65445" lon="3.77964">
        <ele>72</ele>
        <time>2021-03-06T14:51:19Z</time>
      </trkpt>
      <trkpt lat="43.65445" lon="3.77961">
        <ele>72</ele>
        <time>2021-03-06T14:51:20Z</time>
      </trkpt>
      <trkpt lat="43.65445" lon="3.77958">
        <ele>72</ele>
        <time>2021-03-06T14:51:21Z</time>
      </trkpt>
      <trkpt lat="43.65446" lon="3.77956">
        <ele>72</ele>
        <time>2021-03-06T14:51:22Z</time>
      </trkpt>
      <trkpt lat="43.65446" lon="3.77952">
        <ele>72</ele>
        <time>2021-03-06T14:51:23Z</time>
      </trkpt>
      <trkpt lat="43.65446" lon="3.77949">
        <ele>72</ele>
        <time>2021-03-06T14:51:24Z</time>
      </trkpt>
      <trkpt lat="43.65447" lon="3.77945">
        <ele>73</ele>
        <time>2021-03-06T14:51:25Z</time>
      </trkpt>
      <trkpt lat="43.65447" lon="3.77942">
        <ele>73</ele>
        <time>2021-03-06T14:51:26Z</time>
      </trkpt>
      <trkpt lat="43.65448" lon="3.77939">
        <ele>73</ele>
        <time>2021-03-06T14:51:27Z</time>
      </trkpt>
      <trkpt lat="43.65449" lon="3.77936">
        <ele>73</ele>
        <time>2021-03-06T14:51:28Z</time>
      </trkpt>
      <trkpt lat="43.65449" lon="3.77933">
        <ele>73</ele>
        <time>2021-03-06T14:51:29Z</time>
      </trkpt>
      <trkpt lat="43.6545" lon="3.77931">
        <ele>73</ele>
        <time>2021-03-06T14:51:30Z</time>
      </trkpt>
      <trkpt lat="43.6545" lon="3.77928">
        <ele>73</ele>
        <time>2021-03-06T14:51:31Z</time>
      </trkpt>
      <trkpt lat="43.65451" lon="3.77925">
        <ele>73</ele>
        <time>2021-03-06T14:51:32Z</time>
      </trkpt>
      <trkpt lat="43.65451" lon="3.77922">
        <ele>73</ele>
        <time>2021-03-06T14:51:33Z</time>
      </trkpt>
      <trkpt lat="43.65451" lon="3.77919">
        <ele>73</ele>
        <time>2021-03-06T14:51:34Z</time>
      </trkpt>
      <trkpt lat="43.65452" lon="3.77915">
        <ele>73</ele>
        <time>2021-03-06T14:51:36Z</time>
      </trkpt>
      <trkpt lat="43.65456" lon="3.77915">
        <ele>73</ele>
        <time>2021-03-06T14:51:38Z</time>
      </trkpt>
      <trkpt lat="43.65458" lon="3.77916">
        <ele>73</ele>
        <time>2021-03-06T14:51:39Z</time>
      </trkpt>
      <trkpt lat="43.65461" lon="3.77917">
        <ele>73</ele>
        <time>2021-03-06T14:51:40Z</time>
      </trkpt>
      <trkpt lat="43.65464" lon="3.77917">
        <ele>73</ele>
        <time>2021-03-06T14:51:41Z</time>
      </trkpt>
      <trkpt lat="43.65467" lon="3.77917">
        <ele>73</ele>
        <time>2021-03-06T14:51:42Z</time>
      </trkpt>
      <trkpt lat="43.65471" lon="3.77915">
        <ele>73</ele>
        <time>2021-03-06T14:51:43Z</time>
      </trkpt>
      <trkpt lat="43.65473" lon="3.77915">
        <ele>73</ele>
        <time>2021-03-06T14:51:44Z</time>
      </trkpt>
      <trkpt lat="43.65475" lon="3.77915">
        <ele>73</ele>
        <time>2021-03-06T14:51:46Z</time>
      </trkpt>
      <trkpt lat="43.65477" lon="3.77916">
        <ele>73</ele>
        <time>2021-03-06T14:51:49Z</time>
      </trkpt>
      <trkpt lat="43.65476" lon="3.77919">
        <ele>73</ele>
        <time>2021-03-06T14:51:51Z</time>
      </trkpt>
      <trkpt lat="43.6548" lon="3.77923">
        <ele>75</ele>
        <time>2021-03-06T14:52:53Z</time>
      </trkpt>
      <trkpt lat="43.65482" lon="3.77924">
        <ele>75</ele>
        <time>2021-03-06T14:52:57Z</time>
      </trkpt>
      <trkpt lat="43.65482" lon="3.77924">
        <ele>75</ele>
        <time>2021-03-06T14:53:02Z</time>
      </trkpt>
      <trkpt lat="43.65485" lon="3.77927">
        <ele>75</ele>
        <time>2021-03-06T14:53:09Z</time>
      </trkpt>
      <trkpt lat="43.65485" lon="3.7793">
        <ele>75</ele>
        <time>2021-03-06T14:53:12Z</time>
      </trkpt>
      <trkpt lat="43.65486" lon="3.77933">
        <ele>75</ele>
        <time>2021-03-06T14:53:15Z</time>
      </trkpt>
      <trkpt lat="43.65486" lon="3.77936">
        <ele>75</ele>
        <time>2021-03-06T14:53:17Z</time>
      </trkpt>
      <trkpt lat="43.65487" lon="3.77939">
        <ele>74</ele>
        <time>2021-03-06T14:53:19Z</time>
      </trkpt>
      <trkpt lat="43.65487" lon="3.77943">
        <ele>74</ele>
        <time>2021-03-06T14:53:21Z</time>
      </trkpt>
      <trkpt lat="43.65487" lon="3.77947">
        <ele>74</ele>
        <time>2021-03-06T14:53:23Z</time>
      </trkpt>
      <trkpt lat="43.65487" lon="3.77951">
        <ele>74</ele>
        <time>2021-03-06T14:53:24Z</time>
      </trkpt>
      <trkpt lat="43.65488" lon="3.77954">
        <ele>74</ele>
        <time>2021-03-06T14:53:25Z</time>
      </trkpt>
      <trkpt lat="43.65489" lon="3.77958">
        <ele>74</ele>
        <time>2021-03-06T14:53:26Z</time>
      </trkpt>
      <trkpt lat="43.65491" lon="3.77961">
        <ele>74</ele>
        <time>2021-03-06T14:53:27Z</time>
      </trkpt>
      <trkpt lat="43.65492" lon="3.77964">
        <ele>74</ele>
        <time>2021-03-06T14:53:28Z</time>
      </trkpt>
      <trkpt lat="43.65496" lon="3.77969">
        <ele>73</ele>
        <time>2021-03-06T14:53:29Z</time>
      </trkpt>
      <trkpt lat="43.65498" lon="3.77971">
        <ele>73</ele>
        <time>2021-03-06T14:53:30Z</time>
      </trkpt>
      <trkpt lat="43.655" lon="3.77973">
        <ele>73</ele>
        <time>2021-03-06T14:53:31Z</time>
      </trkpt>
      <trkpt lat="43.65502" lon="3.77975">
        <ele>73</ele>
        <time>2021-03-06T14:53:32Z</time>
      </trkpt>
      <trkpt lat="43.65504" lon="3.77975">
        <ele>73</ele>
        <time>2021-03-06T14:53:33Z</time>
      </trkpt>
      <trkpt lat="43.65507" lon="3.77975">
        <ele>73</ele>
        <time>2021-03-06T14:53:34Z</time>
      </trkpt>
      <trkpt lat="43.65509" lon="3.77975">
        <ele>73</ele>
        <time>2021-03-06T14:53:35Z</time>
      </trkpt>
      <trkpt lat="43.65511" lon="3.77975">
        <ele>73</ele>
        <time>2021-03-06T14:53:36Z</time>
      </trkpt>
      <trkpt lat="43.65513" lon="3.77976">
        <ele>73</ele>
        <time>2021-03-06T14:53:37Z</time>
      </trkpt>
      <trkpt lat="43.65515" lon="3.77978">
        <ele>73</ele>
        <time>2021-03-06T14:53:38Z</time>
      </trkpt>
      <trkpt lat="43.65516" lon="3.77981">
        <ele>73</ele>
        <time>2021-03-06T14:53:40Z</time>
      </trkpt>
      <trkpt lat="43.65518" lon="3.77983">
        <ele>73</ele>
        <time>2021-03-06T14:53:41Z</time>
      </trkpt>
      <trkpt lat="43.65519" lon="3.77986">
        <ele>73</ele>
        <time>2021-03-06T14:53:42Z</time>
      </trkpt>
      <trkpt lat="43.6552" lon="3.77989">
        <ele>73</ele>
        <time>2021-03-06T14:53:43Z</time>
      </trkpt>
      <trkpt lat="43.65521" lon="3.77991">
        <ele>73</ele>
        <time>2021-03-06T14:53:44Z</time>
      </trkpt>
      <trkpt lat="43.65522" lon="3.77995">
        <ele>73</ele>
        <time>2021-03-06T14:53:46Z</time>
      </trkpt>
      <trkpt lat="43.65524" lon="3.77997">
        <ele>73</ele>
        <time>2021-03-06T14:53:48Z</time>
      </trkpt>
      <trkpt lat="43.65526" lon="3.77999">
        <ele>75</ele>
        <time>2021-03-06T14:53:49Z</time>
      </trkpt>
      <trkpt lat="43.65528" lon="3.78002">
        <ele>75</ele>
        <time>2021-03-06T14:53:51Z</time>
      </trkpt>
      <trkpt lat="43.6553" lon="3.78004">
        <ele>75</ele>
        <time>2021-03-06T14:53:52Z</time>
      </trkpt>
      <trkpt lat="43.65532" lon="3.78005">
        <ele>75</ele>
        <time>2021-03-06T14:53:53Z</time>
      </trkpt>
      <trkpt lat="43.65534" lon="3.78007">
        <ele>75</ele>
        <time>2021-03-06T14:53:55Z</time>
      </trkpt>
      <trkpt lat="43.65536" lon="3.78007">
        <ele>75</ele>
        <time>2021-03-06T14:53:58Z</time>
      </trkpt>
      <trkpt lat="43.65537" lon="3.78004">
        <ele>75</ele>
        <time>2021-03-06T14:54:00Z</time>
      </trkpt>
      <trkpt lat="43.65536" lon="3.78002">
        <ele>75</ele>
        <time>2021-03-06T14:54:02Z</time>
      </trkpt>
      <trkpt lat="43.65533" lon="3.78">
        <ele>75</ele>
        <time>2021-03-06T14:54:04Z</time>
      </trkpt>
      <trkpt lat="43.6553" lon="3.78">
        <ele>75</ele>
        <time>2021-03-06T14:54:06Z</time>
      </trkpt>
      <trkpt lat="43.65527" lon="3.78">
        <ele>75</ele>
        <time>2021-03-06T14:54:08Z</time>
      </trkpt>
      <trkpt lat="43.65524" lon="3.77999">
        <ele>75</ele>
        <time>2021-03-06T14:54:10Z</time>
      </trkpt>
      <trkpt lat="43.65523" lon="3.77996">
        <ele>75</ele>
        <time>2021-03-06T14:54:12Z</time>
      </trkpt>
      <trkpt lat="43.65521" lon="3.77996">
        <ele>76</ele>
        <time>2021-03-06T14:54:18Z</time>
      </trkpt>
      <trkpt lat="43.65522" lon="3.78002">
        <ele>76</ele>
        <time>2021-03-06T14:54:39Z</time>
      </trkpt>
      <trkpt lat="43.65523" lon="3.78004">
        <ele>76</ele>
        <time>2021-03-06T14:54:42Z</time>
      </trkpt>
      <trkpt lat="43.65526" lon="3.78014">
        <ele>76</ele>
        <time>2021-03-06T14:54:59Z</time>
      </trkpt>
      <trkpt lat="43.65528" lon="3.78017">
        <ele>76</ele>
        <time>2021-03-06T14:55:01Z</time>
      </trkpt>
      <trkpt lat="43.6553" lon="3.78021">
        <ele>76</ele>
        <time>2021-03-06T14:55:03Z</time>
      </trkpt>
      <trkpt lat="43.65531" lon="3.78024">
        <ele>76</ele>
        <time>2021-03-06T14:55:04Z</time>
      </trkpt>
      <trkpt lat="43.65532" lon="3.78026">
        <ele>76</ele>
        <time>2021-03-06T14:55:05Z</time>
      </trkpt>
      <trkpt lat="43.65533" lon="3.78029">
        <ele>76</ele>
        <time>2021-03-06T14:55:06Z</time>
      </trkpt>
      <trkpt lat="43.65534" lon="3.78032">
        <ele>76</ele>
        <time>2021-03-06T14:55:07Z</time>
      </trkpt>
      <trkpt lat="43.65534" lon="3.78035">
        <ele>76</ele>
        <time>2021-03-06T14:55:08Z</time>
      </trkpt>
      <trkpt lat="43.65535" lon="3.78037">
        <ele>75</ele>
        <time>2021-03-06T14:55:09Z</time>
      </trkpt>
      <trkpt lat="43.65536" lon="3.7804">
        <ele>75</ele>
        <time>2021-03-06T14:55:10Z</time>
      </trkpt>
      <trkpt lat="43.65536" lon="3.78043">
        <ele>75</ele>
        <time>2021-03-06T14:55:11Z</time>
      </trkpt>
      <trkpt lat="43.65537" lon="3.78046">
        <ele>75</ele>
        <time>2021-03-06T14:55:12Z</time>
      </trkpt>
      <trkpt lat="43.65537" lon="3.78049">
        <ele>75</ele>
        <time>2021-03-06T14:55:13Z</time>
      </trkpt>
      <trkpt lat="43.65537" lon="3.78052">
        <ele>75</ele>
        <time>2021-03-06T14:55:14Z</time>
      </trkpt>
      <trkpt lat="43.65537" lon="3.78055">
        <ele>75</ele>
        <time>2021-03-06T14:55:15Z</time>
      </trkpt>
      <trkpt lat="43.65537" lon="3.78058">
        <ele>75</ele>
        <time>2021-03-06T14:55:16Z</time>
      </trkpt>
      <trkpt lat="43.65537" lon="3.78061">
        <ele>75</ele>
        <time>2021-03-06T14:55:17Z</time>
      </trkpt>
      <trkpt lat="43.65537" lon="3.78064">
        <ele>75</ele>
        <time>2021-03-06T14:55:18Z</time>
      </trkpt>
      <trkpt lat="43.65537" lon="3.7807">
        <ele>76</ele>
        <time>2021-03-06T14:55:19Z</time>
      </trkpt>
      <trkpt lat="43.65537" lon="3.78073">
        <ele>76</ele>
        <time>2021-03-06T14:55:20Z</time>
      </trkpt>
      <trkpt lat="43.65537" lon="3.78076">
        <ele>76</ele>
        <time>2021-03-06T14:55:21Z</time>
      </trkpt>
      <trkpt lat="43.65537" lon="3.78079">
        <ele>76</ele>
        <time>2021-03-06T14:55:22Z</time>
      </trkpt>
      <trkpt lat="43.65537" lon="3.78081">
        <ele>76</ele>
        <time>2021-03-06T14:55:23Z</time>
      </trkpt>
      <trkpt lat="43.65537" lon="3.78086">
        <ele>76</ele>
        <time>2021-03-06T14:55:25Z</time>
      </trkpt>
      <trkpt lat="43.65537" lon="3.78089">
        <ele>76</ele>
        <time>2021-03-06T14:55:26Z</time>
      </trkpt>
      <trkpt lat="43.65537" lon="3.78092">
        <ele>76</ele>
        <time>2021-03-06T14:55:27Z</time>
      </trkpt>
      <trkpt lat="43.65536" lon="3.78094">
        <ele>76</ele>
        <time>2021-03-06T14:55:28Z</time>
      </trkpt>
      <trkpt lat="43.65536" lon="3.78097">
        <ele>76</ele>
        <time>2021-03-06T14:55:30Z</time>
      </trkpt>
      <trkpt lat="43.65536" lon="3.78102">
        <ele>76</ele>
        <time>2021-03-06T14:55:32Z</time>
      </trkpt>
      <trkpt lat="43.65537" lon="3.78106">
        <ele>76</ele>
        <time>2021-03-06T14:55:34Z</time>
      </trkpt>
      <trkpt lat="43.65537" lon="3.78109">
        <ele>76</ele>
        <time>2021-03-06T14:55:35Z</time>
      </trkpt>
      <trkpt lat="43.65538" lon="3.78113">
        <ele>76</ele>
        <time>2021-03-06T14:55:37Z</time>
      </trkpt>
      <trkpt lat="43.65538" lon="3.78116">
        <ele>76</ele>
        <time>2021-03-06T14:55:38Z</time>
      </trkpt>
      <trkpt lat="43.65538" lon="3.78119">
        <ele>79</ele>
        <time>2021-03-06T14:55:39Z</time>
      </trkpt>
      <trkpt lat="43.65539" lon="3.78122">
        <ele>79</ele>
        <time>2021-03-06T14:55:40Z</time>
      </trkpt>
      <trkpt lat="43.6554" lon="3.78125">
        <ele>79</ele>
        <time>2021-03-06T14:55:41Z</time>
      </trkpt>
      <trkpt lat="43.65541" lon="3.78127">
        <ele>79</ele>
        <time>2021-03-06T14:55:42Z</time>
      </trkpt>
      <trkpt lat="43.65541" lon="3.78131">
        <ele>79</ele>
        <time>2021-03-06T14:55:43Z</time>
      </trkpt>
      <trkpt lat="43.65542" lon="3.78134">
        <ele>79</ele>
        <time>2021-03-06T14:55:44Z</time>
      </trkpt>
      <trkpt lat="43.65543" lon="3.78138">
        <ele>79</ele>
        <time>2021-03-06T14:55:45Z</time>
      </trkpt>
      <trkpt lat="43.65544" lon="3.78142">
        <ele>79</ele>
        <time>2021-03-06T14:55:46Z</time>
      </trkpt>
      <trkpt lat="43.65546" lon="3.78146">
        <ele>79</ele>
        <time>2021-03-06T14:55:47Z</time>
      </trkpt>
      <trkpt lat="43.65549" lon="3.7815">
        <ele>79</ele>
        <time>2021-03-06T14:55:48Z</time>
      </trkpt>
      <trkpt lat="43.65552" lon="3.78155">
        <ele>78</ele>
        <time>2021-03-06T14:55:49Z</time>
      </trkpt>
      <trkpt lat="43.65555" lon="3.78159">
        <ele>78</ele>
        <time>2021-03-06T14:55:50Z</time>
      </trkpt>
      <trkpt lat="43.65557" lon="3.78164">
        <ele>78</ele>
        <time>2021-03-06T14:55:51Z</time>
      </trkpt>
      <trkpt lat="43.65559" lon="3.78169">
        <ele>78</ele>
        <time>2021-03-06T14:55:52Z</time>
      </trkpt>
      <trkpt lat="43.65561" lon="3.78174">
        <ele>78</ele>
        <time>2021-03-06T14:55:53Z</time>
      </trkpt>
      <trkpt lat="43.65562" lon="3.78179">
        <ele>78</ele>
        <time>2021-03-06T14:55:54Z</time>
      </trkpt>
      <trkpt lat="43.65564" lon="3.78184">
        <ele>78</ele>
        <time>2021-03-06T14:55:55Z</time>
      </trkpt>
      <trkpt lat="43.65564" lon="3.78189">
        <ele>78</ele>
        <time>2021-03-06T14:55:56Z</time>
      </trkpt>
      <trkpt lat="43.65565" lon="3.78195">
        <ele>78</ele>
        <time>2021-03-06T14:55:57Z</time>
      </trkpt>
      <trkpt lat="43.65565" lon="3.78199">
        <ele>78</ele>
        <time>2021-03-06T14:55:58Z</time>
      </trkpt>
      <trkpt lat="43.65565" lon="3.78204">
        <ele>78</ele>
        <time>2021-03-06T14:55:59Z</time>
      </trkpt>
      <trkpt lat="43.65566" lon="3.78209">
        <ele>78</ele>
        <time>2021-03-06T14:56:00Z</time>
      </trkpt>
      <trkpt lat="43.65566" lon="3.78213">
        <ele>78</ele>
        <time>2021-03-06T14:56:01Z</time>
      </trkpt>
      <trkpt lat="43.65567" lon="3.78218">
        <ele>78</ele>
        <time>2021-03-06T14:56:02Z</time>
      </trkpt>
      <trkpt lat="43.65567" lon="3.78222">
        <ele>78</ele>
        <time>2021-03-06T14:56:03Z</time>
      </trkpt>
      <trkpt lat="43.65568" lon="3.78227">
        <ele>78</ele>
        <time>2021-03-06T14:56:04Z</time>
      </trkpt>
      <trkpt lat="43.65568" lon="3.78232">
        <ele>78</ele>
        <time>2021-03-06T14:56:05Z</time>
      </trkpt>
      <trkpt lat="43.65568" lon="3.78237">
        <ele>78</ele>
        <time>2021-03-06T14:56:06Z</time>
      </trkpt>
      <trkpt lat="43.65569" lon="3.78242">
        <ele>78</ele>
        <time>2021-03-06T14:56:07Z</time>
      </trkpt>
      <trkpt lat="43.65569" lon="3.78247">
        <ele>78</ele>
        <time>2021-03-06T14:56:08Z</time>
      </trkpt>
      <trkpt lat="43.65569" lon="3.78252">
        <ele>77</ele>
        <time>2021-03-06T14:56:09Z</time>
      </trkpt>
      <trkpt lat="43.65569" lon="3.78258">
        <ele>77</ele>
        <time>2021-03-06T14:56:10Z</time>
      </trkpt>
      <trkpt lat="43.65569" lon="3.78263">
        <ele>77</ele>
        <time>2021-03-06T14:56:11Z</time>
      </trkpt>
      <trkpt lat="43.65567" lon="3.78268">
        <ele>77</ele>
        <time>2021-03-06T14:56:12Z</time>
      </trkpt>
      <trkpt lat="43.65566" lon="3.78272">
        <ele>77</ele>
        <time>2021-03-06T14:56:13Z</time>
      </trkpt>
      <trkpt lat="43.65565" lon="3.78275">
        <ele>77</ele>
        <time>2021-03-06T14:56:14Z</time>
      </trkpt>
      <trkpt lat="43.65565" lon="3.7828">
        <ele>77</ele>
        <time>2021-03-06T14:56:15Z</time>
      </trkpt>
      <trkpt lat="43.65561" lon="3.78291">
        <ele>77</ele>
        <time>2021-03-06T14:56:17Z</time>
      </trkpt>
      <trkpt lat="43.65556" lon="3.78301">
        <ele>77</ele>
        <time>2021-03-06T14:56:19Z</time>
      </trkpt>
      <trkpt lat="43.65553" lon="3.78306">
        <ele>77</ele>
        <time>2021-03-06T14:56:20Z</time>
      </trkpt>
      <trkpt lat="43.6555" lon="3.78312">
        <ele>77</ele>
        <time>2021-03-06T14:56:21Z</time>
      </trkpt>
      <trkpt lat="43.65547" lon="3.78316">
        <ele>77</ele>
        <time>2021-03-06T14:56:22Z</time>
      </trkpt>
      <trkpt lat="43.65544" lon="3.7832">
        <ele>77</ele>
        <time>2021-03-06T14:56:23Z</time>
      </trkpt>
      <trkpt lat="43.65541" lon="3.78324">
        <ele>77</ele>
        <time>2021-03-06T14:56:24Z</time>
      </trkpt>
      <trkpt lat="43.65538" lon="3.78328">
        <ele>77</ele>
        <time>2021-03-06T14:56:25Z</time>
      </trkpt>
      <trkpt lat="43.65535" lon="3.78332">
        <ele>77</ele>
        <time>2021-03-06T14:56:26Z</time>
      </trkpt>
      <trkpt lat="43.65533" lon="3.78337">
        <ele>77</ele>
        <time>2021-03-06T14:56:27Z</time>
      </trkpt>
      <trkpt lat="43.65531" lon="3.78341">
        <ele>77</ele>
        <time>2021-03-06T14:56:28Z</time>
      </trkpt>
      <trkpt lat="43.6553" lon="3.78344">
        <ele>77</ele>
        <time>2021-03-06T14:56:29Z</time>
      </trkpt>
      <trkpt lat="43.6553" lon="3.78348">
        <ele>77</ele>
        <time>2021-03-06T14:56:30Z</time>
      </trkpt>
      <trkpt lat="43.65529" lon="3.78351">
        <ele>77</ele>
        <time>2021-03-06T14:56:32Z</time>
      </trkpt>
      <trkpt lat="43.65527" lon="3.78353">
        <ele>77</ele>
        <time>2021-03-06T14:56:35Z</time>
      </trkpt>
      <trkpt lat="43.65525" lon="3.78351">
        <ele>77</ele>
        <time>2021-03-06T14:56:38Z</time>
      </trkpt>
      <trkpt lat="43.65523" lon="3.78349">
        <ele>77</ele>
        <time>2021-03-06T14:56:41Z</time>
      </trkpt>
      <trkpt lat="43.6552" lon="3.78351">
        <ele>77</ele>
        <time>2021-03-06T14:56:43Z</time>
      </trkpt>
      <trkpt lat="43.65518" lon="3.78352">
        <ele>77</ele>
        <time>2021-03-06T14:56:44Z</time>
      </trkpt>
      <trkpt lat="43.65516" lon="3.78353">
        <ele>77</ele>
        <time>2021-03-06T14:56:45Z</time>
      </trkpt>
      <trkpt lat="43.65514" lon="3.78354">
        <ele>77</ele>
        <time>2021-03-06T14:56:46Z</time>
      </trkpt>
      <trkpt lat="43.65512" lon="3.78355">
        <ele>77</ele>
        <time>2021-03-06T14:56:47Z</time>
      </trkpt>
      <trkpt lat="43.6551" lon="3.78357">
        <ele>77</ele>
        <time>2021-03-06T14:56:48Z</time>
      </trkpt>
      <trkpt lat="43.65508" lon="3.78359">
        <ele>75</ele>
        <time>2021-03-06T14:56:49Z</time>
      </trkpt>
      <trkpt lat="43.65506" lon="3.78362">
        <ele>75</ele>
        <time>2021-03-06T14:56:50Z</time>
      </trkpt>
      <trkpt lat="43.65503" lon="3.78365">
        <ele>75</ele>
        <time>2021-03-06T14:56:51Z</time>
      </trkpt>
      <trkpt lat="43.65501" lon="3.78368">
        <ele>75</ele>
        <time>2021-03-06T14:56:52Z</time>
      </trkpt>
      <trkpt lat="43.65499" lon="3.78372">
        <ele>75</ele>
        <time>2021-03-06T14:56:53Z</time>
      </trkpt>
      <trkpt lat="43.65496" lon="3.78375">
        <ele>75</ele>
        <time>2021-03-06T14:56:54Z</time>
      </trkpt>
      <trkpt lat="43.65494" lon="3.78378">
        <ele>75</ele>
        <time>2021-03-06T14:56:55Z</time>
      </trkpt>
      <trkpt lat="43.65492" lon="3.78381">
        <ele>75</ele>
        <time>2021-03-06T14:56:56Z</time>
      </trkpt>
      <trkpt lat="43.6549" lon="3.78385">
        <ele>75</ele>
        <time>2021-03-06T14:56:57Z</time>
      </trkpt>
      <trkpt lat="43.65488" lon="3.78388">
        <ele>75</ele>
        <time>2021-03-06T14:56:58Z</time>
      </trkpt>
      <trkpt lat="43.65485" lon="3.7839">
        <ele>74</ele>
        <time>2021-03-06T14:56:59Z</time>
      </trkpt>
      <trkpt lat="43.65483" lon="3.78393">
        <ele>74</ele>
        <time>2021-03-06T14:57:00Z</time>
      </trkpt>
      <trkpt lat="43.65482" lon="3.78395">
        <ele>74</ele>
        <time>2021-03-06T14:57:01Z</time>
      </trkpt>
      <trkpt lat="43.6548" lon="3.78398">
        <ele>74</ele>
        <time>2021-03-06T14:57:02Z</time>
      </trkpt>
      <trkpt lat="43.65478" lon="3.78401">
        <ele>74</ele>
        <time>2021-03-06T14:57:03Z</time>
      </trkpt>
      <trkpt lat="43.65476" lon="3.78406">
        <ele>74</ele>
        <time>2021-03-06T14:57:04Z</time>
      </trkpt>
      <trkpt lat="43.65473" lon="3.7841">
        <ele>74</ele>
        <time>2021-03-06T14:57:05Z</time>
      </trkpt>
      <trkpt lat="43.65471" lon="3.78415">
        <ele>74</ele>
        <time>2021-03-06T14:57:06Z</time>
      </trkpt>
      <trkpt lat="43.65468" lon="3.7842">
        <ele>74</ele>
        <time>2021-03-06T14:57:07Z</time>
      </trkpt>
      <trkpt lat="43.65464" lon="3.78424">
        <ele>74</ele>
        <time>2021-03-06T14:57:08Z</time>
      </trkpt>
      <trkpt lat="43.65461" lon="3.78429">
        <ele>73</ele>
        <time>2021-03-06T14:57:09Z</time>
      </trkpt>
      <trkpt lat="43.65458" lon="3.78434">
        <ele>73</ele>
        <time>2021-03-06T14:57:10Z</time>
      </trkpt>
      <trkpt lat="43.65456" lon="3.78439">
        <ele>73</ele>
        <time>2021-03-06T14:57:11Z</time>
      </trkpt>
      <trkpt lat="43.65454" lon="3.78445">
        <ele>73</ele>
        <time>2021-03-06T14:57:12Z</time>
      </trkpt>
      <trkpt lat="43.65452" lon="3.7845">
        <ele>73</ele>
        <time>2021-03-06T14:57:13Z</time>
      </trkpt>
      <trkpt lat="43.65449" lon="3.78456">
        <ele>73</ele>
        <time>2021-03-06T14:57:14Z</time>
      </trkpt>
      <trkpt lat="43.65447" lon="3.78461">
        <ele>73</ele>
        <time>2021-03-06T14:57:15Z</time>
      </trkpt>
      <trkpt lat="43.65446" lon="3.78467">
        <ele>73</ele>
        <time>2021-03-06T14:57:16Z</time>
      </trkpt>
      <trkpt lat="43.65444" lon="3.78472">
        <ele>73</ele>
        <time>2021-03-06T14:57:17Z</time>
      </trkpt>
      <trkpt lat="43.65442" lon="3.78478">
        <ele>73</ele>
        <time>2021-03-06T14:57:18Z</time>
      </trkpt>
      <trkpt lat="43.65439" lon="3.78483">
        <ele>72</ele>
        <time>2021-03-06T14:57:19Z</time>
      </trkpt>
      <trkpt lat="43.65438" lon="3.78489">
        <ele>72</ele>
        <time>2021-03-06T14:57:20Z</time>
      </trkpt>
      <trkpt lat="43.65435" lon="3.78494">
        <ele>72</ele>
        <time>2021-03-06T14:57:21Z</time>
      </trkpt>
      <trkpt lat="43.65433" lon="3.78499">
        <ele>72</ele>
        <time>2021-03-06T14:57:22Z</time>
      </trkpt>
      <trkpt lat="43.65431" lon="3.78505">
        <ele>72</ele>
        <time>2021-03-06T14:57:23Z</time>
      </trkpt>
      <trkpt lat="43.65429" lon="3.7851">
        <ele>72</ele>
        <time>2021-03-06T14:57:24Z</time>
      </trkpt>
      <trkpt lat="43.65428" lon="3.78516">
        <ele>72</ele>
        <time>2021-03-06T14:57:25Z</time>
      </trkpt>
      <trkpt lat="43.65427" lon="3.78521">
        <ele>72</ele>
        <time>2021-03-06T14:57:26Z</time>
      </trkpt>
      <trkpt lat="43.65426" lon="3.78527">
        <ele>72</ele>
        <time>2021-03-06T14:57:27Z</time>
      </trkpt>
      <trkpt lat="43.65425" lon="3.78532">
        <ele>72</ele>
        <time>2021-03-06T14:57:28Z</time>
      </trkpt>
      <trkpt lat="43.65425" lon="3.78538">
        <ele>69</ele>
        <time>2021-03-06T14:57:29Z</time>
      </trkpt>
      <trkpt lat="43.65426" lon="3.78544">
        <ele>69</ele>
        <time>2021-03-06T14:57:30Z</time>
      </trkpt>
      <trkpt lat="43.65427" lon="3.78549">
        <ele>69</ele>
        <time>2021-03-06T14:57:31Z</time>
      </trkpt>
      <trkpt lat="43.65429" lon="3.78554">
        <ele>69</ele>
        <time>2021-03-06T14:57:32Z</time>
      </trkpt>
      <trkpt lat="43.6543" lon="3.78559">
        <ele>69</ele>
        <time>2021-03-06T14:57:33Z</time>
      </trkpt>
      <trkpt lat="43.65431" lon="3.78564">
        <ele>69</ele>
        <time>2021-03-06T14:57:34Z</time>
      </trkpt>
      <trkpt lat="43.65432" lon="3.78569">
        <ele>69</ele>
        <time>2021-03-06T14:57:35Z</time>
      </trkpt>
      <trkpt lat="43.65433" lon="3.78574">
        <ele>69</ele>
        <time>2021-03-06T14:57:36Z</time>
      </trkpt>
      <trkpt lat="43.65433" lon="3.7858">
        <ele>69</ele>
        <time>2021-03-06T14:57:37Z</time>
      </trkpt>
      <trkpt lat="43.65433" lon="3.78587">
        <ele>69</ele>
        <time>2021-03-06T14:57:38Z</time>
      </trkpt>
      <trkpt lat="43.65433" lon="3.78594">
        <ele>68</ele>
        <time>2021-03-06T14:57:39Z</time>
      </trkpt>
      <trkpt lat="43.65433" lon="3.78601">
        <ele>68</ele>
        <time>2021-03-06T14:57:40Z</time>
      </trkpt>
      <trkpt lat="43.65433" lon="3.78608">
        <ele>68</ele>
        <time>2021-03-06T14:57:41Z</time>
      </trkpt>
      <trkpt lat="43.65433" lon="3.78615">
        <ele>68</ele>
        <time>2021-03-06T14:57:42Z</time>
      </trkpt>
      <trkpt lat="43.65429" lon="3.7862">
        <ele>68</ele>
        <time>2021-03-06T14:57:43Z</time>
      </trkpt>
      <trkpt lat="43.65425" lon="3.78623">
        <ele>68</ele>
        <time>2021-03-06T14:57:44Z</time>
      </trkpt>
      <trkpt lat="43.65421" lon="3.78625">
        <ele>68</ele>
        <time>2021-03-06T14:57:45Z</time>
      </trkpt>
      <trkpt lat="43.65417" lon="3.78627">
        <ele>68</ele>
        <time>2021-03-06T14:57:46Z</time>
      </trkpt>
      <trkpt lat="43.65414" lon="3.7863">
        <ele>68</ele>
        <time>2021-03-06T14:57:47Z</time>
      </trkpt>
      <trkpt lat="43.6541" lon="3.78631">
        <ele>68</ele>
        <time>2021-03-06T14:57:48Z</time>
      </trkpt>
      <trkpt lat="43.65407" lon="3.78633">
        <ele>65</ele>
        <time>2021-03-06T14:57:49Z</time>
      </trkpt>
      <trkpt lat="43.65404" lon="3.78634">
        <ele>65</ele>
        <time>2021-03-06T14:57:50Z</time>
      </trkpt>
      <trkpt lat="43.65402" lon="3.78635">
        <ele>65</ele>
        <time>2021-03-06T14:57:51Z</time>
      </trkpt>
      <trkpt lat="43.65399" lon="3.78636">
        <ele>65</ele>
        <time>2021-03-06T14:57:52Z</time>
      </trkpt>
      <trkpt lat="43.65397" lon="3.78637">
        <ele>65</ele>
        <time>2021-03-06T14:57:53Z</time>
      </trkpt>
      <trkpt lat="43.65394" lon="3.78638">
        <ele>65</ele>
        <time>2021-03-06T14:57:54Z</time>
      </trkpt>
      <trkpt lat="43.65391" lon="3.78639">
        <ele>65</ele>
        <time>2021-03-06T14:57:55Z</time>
      </trkpt>
      <trkpt lat="43.65388" lon="3.7864">
        <ele>65</ele>
        <time>2021-03-06T14:57:56Z</time>
      </trkpt>
      <trkpt lat="43.65386" lon="3.78642">
        <ele>65</ele>
        <time>2021-03-06T14:57:57Z</time>
      </trkpt>
      <trkpt lat="43.65383" lon="3.78643">
        <ele>65</ele>
        <time>2021-03-06T14:57:58Z</time>
      </trkpt>
      <trkpt lat="43.6538" lon="3.78644">
        <ele>65</ele>
        <time>2021-03-06T14:57:59Z</time>
      </trkpt>
      <trkpt lat="43.65377" lon="3.78645">
        <ele>65</ele>
        <time>2021-03-06T14:58:00Z</time>
      </trkpt>
      <trkpt lat="43.65375" lon="3.78646">
        <ele>65</ele>
        <time>2021-03-06T14:58:01Z</time>
      </trkpt>
      <trkpt lat="43.65372" lon="3.78647">
        <ele>65</ele>
        <time>2021-03-06T14:58:02Z</time>
      </trkpt>
      <trkpt lat="43.65369" lon="3.78649">
        <ele>65</ele>
        <time>2021-03-06T14:58:03Z</time>
      </trkpt>
      <trkpt lat="43.65367" lon="3.7865">
        <ele>65</ele>
        <time>2021-03-06T14:58:04Z</time>
      </trkpt>
      <trkpt lat="43.65364" lon="3.78651">
        <ele>65</ele>
        <time>2021-03-06T14:58:05Z</time>
      </trkpt>
      <trkpt lat="43.65362" lon="3.78653">
        <ele>65</ele>
        <time>2021-03-06T14:58:06Z</time>
      </trkpt>
      <trkpt lat="43.65359" lon="3.78655">
        <ele>65</ele>
        <time>2021-03-06T14:58:07Z</time>
      </trkpt>
      <trkpt lat="43.65357" lon="3.78656">
        <ele>65</ele>
        <time>2021-03-06T14:58:08Z</time>
      </trkpt>
      <trkpt lat="43.65354" lon="3.78657">
        <ele>67</ele>
        <time>2021-03-06T14:58:09Z</time>
      </trkpt>
      <trkpt lat="43.65352" lon="3.78659">
        <ele>67</ele>
        <time>2021-03-06T14:58:10Z</time>
      </trkpt>
      <trkpt lat="43.6535" lon="3.78661">
        <ele>67</ele>
        <time>2021-03-06T14:58:11Z</time>
      </trkpt>
      <trkpt lat="43.65347" lon="3.78664">
        <ele>67</ele>
        <time>2021-03-06T14:58:12Z</time>
      </trkpt>
      <trkpt lat="43.65345" lon="3.78666">
        <ele>67</ele>
        <time>2021-03-06T14:58:13Z</time>
      </trkpt>
      <trkpt lat="43.65342" lon="3.78667">
        <ele>67</ele>
        <time>2021-03-06T14:58:14Z</time>
      </trkpt>
      <trkpt lat="43.65341" lon="3.78669">
        <ele>67</ele>
        <time>2021-03-06T14:58:15Z</time>
      </trkpt>
      <trkpt lat="43.65339" lon="3.78672">
        <ele>67</ele>
        <time>2021-03-06T14:58:16Z</time>
      </trkpt>
      <trkpt lat="43.65336" lon="3.78674">
        <ele>67</ele>
        <time>2021-03-06T14:58:17Z</time>
      </trkpt>
      <trkpt lat="43.65333" lon="3.78676">
        <ele>67</ele>
        <time>2021-03-06T14:58:18Z</time>
      </trkpt>
      <trkpt lat="43.65331" lon="3.78677">
        <ele>68</ele>
        <time>2021-03-06T14:58:19Z</time>
      </trkpt>
      <trkpt lat="43.65328" lon="3.78679">
        <ele>68</ele>
        <time>2021-03-06T14:58:20Z</time>
      </trkpt>
      <trkpt lat="43.65326" lon="3.78682">
        <ele>68</ele>
        <time>2021-03-06T14:58:21Z</time>
      </trkpt>
      <trkpt lat="43.65324" lon="3.78684">
        <ele>68</ele>
        <time>2021-03-06T14:58:22Z</time>
      </trkpt>
      <trkpt lat="43.65322" lon="3.78685">
        <ele>68</ele>
        <time>2021-03-06T14:58:23Z</time>
      </trkpt>
      <trkpt lat="43.6532" lon="3.78687">
        <ele>68</ele>
        <time>2021-03-06T14:58:24Z</time>
      </trkpt>
      <trkpt lat="43.65319" lon="3.78689">
        <ele>68</ele>
        <time>2021-03-06T14:58:25Z</time>
      </trkpt>
      <trkpt lat="43.65317" lon="3.78691">
        <ele>68</ele>
        <time>2021-03-06T14:58:26Z</time>
      </trkpt>
      <trkpt lat="43.65315" lon="3.78693">
        <ele>68</ele>
        <time>2021-03-06T14:58:27Z</time>
      </trkpt>
      <trkpt lat="43.65314" lon="3.78695">
        <ele>68</ele>
        <time>2021-03-06T14:58:28Z</time>
      </trkpt>
      <trkpt lat="43.65309" lon="3.78699">
        <ele>68</ele>
        <time>2021-03-06T14:58:29Z</time>
      </trkpt>
      <trkpt lat="43.65306" lon="3.787">
        <ele>68</ele>
        <time>2021-03-06T14:58:30Z</time>
      </trkpt>
      <trkpt lat="43.65303" lon="3.78701">
        <ele>68</ele>
        <time>2021-03-06T14:58:31Z</time>
      </trkpt>
      <trkpt lat="43.65301" lon="3.78702">
        <ele>68</ele>
        <time>2021-03-06T14:58:32Z</time>
      </trkpt>
      <trkpt lat="43.65298" lon="3.78703">
        <ele>68</ele>
        <time>2021-03-06T14:58:33Z</time>
      </trkpt>
      <trkpt lat="43.65295" lon="3.78705">
        <ele>68</ele>
        <time>2021-03-06T14:58:34Z</time>
      </trkpt>
      <trkpt lat="43.65293" lon="3.78706">
        <ele>68</ele>
        <time>2021-03-06T14:58:35Z</time>
      </trkpt>
      <trkpt lat="43.6529" lon="3.78707">
        <ele>68</ele>
        <time>2021-03-06T14:58:36Z</time>
      </trkpt>
      <trkpt lat="43.65288" lon="3.78709">
        <ele>68</ele>
        <time>2021-03-06T14:58:37Z</time>
      </trkpt>
      <trkpt lat="43.65287" lon="3.7871">
        <ele>68</ele>
        <time>2021-03-06T14:58:38Z</time>
      </trkpt>
      <trkpt lat="43.65285" lon="3.78711">
        <ele>68</ele>
        <time>2021-03-06T14:58:40Z</time>
      </trkpt>
      <trkpt lat="43.65283" lon="3.78713">
        <ele>68</ele>
        <time>2021-03-06T14:58:41Z</time>
      </trkpt>
      <trkpt lat="43.65281" lon="3.78713">
        <ele>68</ele>
        <time>2021-03-06T14:58:42Z</time>
      </trkpt>
      <trkpt lat="43.65278" lon="3.78714">
        <ele>68</ele>
        <time>2021-03-06T14:58:43Z</time>
      </trkpt>
      <trkpt lat="43.65276" lon="3.78715">
        <ele>68</ele>
        <time>2021-03-06T14:58:44Z</time>
      </trkpt>
      <trkpt lat="43.65273" lon="3.78716">
        <ele>68</ele>
        <time>2021-03-06T14:58:45Z</time>
      </trkpt>
      <trkpt lat="43.65271" lon="3.78717">
        <ele>68</ele>
        <time>2021-03-06T14:58:46Z</time>
      </trkpt>
      <trkpt lat="43.65268" lon="3.78719">
        <ele>68</ele>
        <time>2021-03-06T14:58:47Z</time>
      </trkpt>
      <trkpt lat="43.65266" lon="3.7872">
        <ele>68</ele>
        <time>2021-03-06T14:58:48Z</time>
      </trkpt>
      <trkpt lat="43.65263" lon="3.78721">
        <ele>68</ele>
        <time>2021-03-06T14:58:49Z</time>
      </trkpt>
      <trkpt lat="43.6526" lon="3.78723">
        <ele>68</ele>
        <time>2021-03-06T14:58:50Z</time>
      </trkpt>
      <trkpt lat="43.65257" lon="3.78725">
        <ele>68</ele>
        <time>2021-03-06T14:58:51Z</time>
      </trkpt>
      <trkpt lat="43.65254" lon="3.78726">
        <ele>68</ele>
        <time>2021-03-06T14:58:52Z</time>
      </trkpt>
      <trkpt lat="43.65251" lon="3.78728">
        <ele>68</ele>
        <time>2021-03-06T14:58:53Z</time>
      </trkpt>
      <trkpt lat="43.65247" lon="3.7873">
        <ele>68</ele>
        <time>2021-03-06T14:58:54Z</time>
      </trkpt>
      <trkpt lat="43.65243" lon="3.78731">
        <ele>68</ele>
        <time>2021-03-06T14:58:55Z</time>
      </trkpt>
      <trkpt lat="43.65238" lon="3.78733">
        <ele>68</ele>
        <time>2021-03-06T14:58:56Z</time>
      </trkpt>
      <trkpt lat="43.65234" lon="3.78735">
        <ele>68</ele>
        <time>2021-03-06T14:58:57Z</time>
      </trkpt>
      <trkpt lat="43.6523" lon="3.78738">
        <ele>68</ele>
        <time>2021-03-06T14:58:58Z</time>
      </trkpt>
      <trkpt lat="43.65226" lon="3.78742">
        <ele>67</ele>
        <time>2021-03-06T14:58:59Z</time>
      </trkpt>
      <trkpt lat="43.65223" lon="3.78746">
        <ele>67</ele>
        <time>2021-03-06T14:59:00Z</time>
      </trkpt>
      <trkpt lat="43.65221" lon="3.78748">
        <ele>67</ele>
        <time>2021-03-06T14:59:01Z</time>
      </trkpt>
      <trkpt lat="43.65219" lon="3.78751">
        <ele>67</ele>
        <time>2021-03-06T14:59:02Z</time>
      </trkpt>
      <trkpt lat="43.65217" lon="3.78754">
        <ele>67</ele>
        <time>2021-03-06T14:59:03Z</time>
      </trkpt>
      <trkpt lat="43.65215" lon="3.78757">
        <ele>67</ele>
        <time>2021-03-06T14:59:04Z</time>
      </trkpt>
      <trkpt lat="43.65214" lon="3.78759">
        <ele>67</ele>
        <time>2021-03-06T14:59:05Z</time>
      </trkpt>
      <trkpt lat="43.65213" lon="3.78763">
        <ele>67</ele>
        <time>2021-03-06T14:59:07Z</time>
      </trkpt>
      <trkpt lat="43.65212" lon="3.78765">
        <ele>67</ele>
        <time>2021-03-06T14:59:08Z</time>
      </trkpt>
      <trkpt lat="43.6521" lon="3.78768">
        <ele>65</ele>
        <time>2021-03-06T14:59:09Z</time>
      </trkpt>
      <trkpt lat="43.65208" lon="3.7877">
        <ele>65</ele>
        <time>2021-03-06T14:59:10Z</time>
      </trkpt>
      <trkpt lat="43.65206" lon="3.78773">
        <ele>65</ele>
        <time>2021-03-06T14:59:11Z</time>
      </trkpt>
      <trkpt lat="43.65204" lon="3.78776">
        <ele>65</ele>
        <time>2021-03-06T14:59:12Z</time>
      </trkpt>
      <trkpt lat="43.65202" lon="3.78779">
        <ele>65</ele>
        <time>2021-03-06T14:59:13Z</time>
      </trkpt>
      <trkpt lat="43.652" lon="3.78782">
        <ele>65</ele>
        <time>2021-03-06T14:59:14Z</time>
      </trkpt>
      <trkpt lat="43.65198" lon="3.78784">
        <ele>65</ele>
        <time>2021-03-06T14:59:15Z</time>
      </trkpt>
      <trkpt lat="43.65195" lon="3.78786">
        <ele>65</ele>
        <time>2021-03-06T14:59:16Z</time>
      </trkpt>
      <trkpt lat="43.65193" lon="3.78787">
        <ele>65</ele>
        <time>2021-03-06T14:59:17Z</time>
      </trkpt>
      <trkpt lat="43.6519" lon="3.78788">
        <ele>65</ele>
        <time>2021-03-06T14:59:18Z</time>
      </trkpt>
      <trkpt lat="43.65188" lon="3.78789">
        <ele>65</ele>
        <time>2021-03-06T14:59:19Z</time>
      </trkpt>
      <trkpt lat="43.65187" lon="3.7879">
        <ele>65</ele>
        <time>2021-03-06T14:59:20Z</time>
      </trkpt>
      <trkpt lat="43.65185" lon="3.78791">
        <ele>65</ele>
        <time>2021-03-06T14:59:21Z</time>
      </trkpt>
      <trkpt lat="43.65183" lon="3.78792">
        <ele>65</ele>
        <time>2021-03-06T14:59:22Z</time>
      </trkpt>
      <trkpt lat="43.65181" lon="3.78793">
        <ele>65</ele>
        <time>2021-03-06T14:59:23Z</time>
      </trkpt>
      <trkpt lat="43.65178" lon="3.78794">
        <ele>65</ele>
        <time>2021-03-06T14:59:24Z</time>
      </trkpt>
      <trkpt lat="43.65176" lon="3.78795">
        <ele>65</ele>
        <time>2021-03-06T14:59:25Z</time>
      </trkpt>
      <trkpt lat="43.65173" lon="3.78797">
        <ele>65</ele>
        <time>2021-03-06T14:59:26Z</time>
      </trkpt>
      <trkpt lat="43.65171" lon="3.78798">
        <ele>65</ele>
        <time>2021-03-06T14:59:27Z</time>
      </trkpt>
      <trkpt lat="43.65168" lon="3.788">
        <ele>65</ele>
        <time>2021-03-06T14:59:28Z</time>
      </trkpt>
      <trkpt lat="43.65165" lon="3.78802">
        <ele>67</ele>
        <time>2021-03-06T14:59:29Z</time>
      </trkpt>
      <trkpt lat="43.65162" lon="3.78803">
        <ele>67</ele>
        <time>2021-03-06T14:59:30Z</time>
      </trkpt>
      <trkpt lat="43.6516" lon="3.78805">
        <ele>67</ele>
        <time>2021-03-06T14:59:31Z</time>
      </trkpt>
      <trkpt lat="43.65157" lon="3.78806">
        <ele>67</ele>
        <time>2021-03-06T14:59:32Z</time>
      </trkpt>
      <trkpt lat="43.65155" lon="3.78808">
        <ele>67</ele>
        <time>2021-03-06T14:59:33Z</time>
      </trkpt>
      <trkpt lat="43.65152" lon="3.78809">
        <ele>67</ele>
        <time>2021-03-06T14:59:34Z</time>
      </trkpt>
      <trkpt lat="43.6515" lon="3.7881">
        <ele>67</ele>
        <time>2021-03-06T14:59:35Z</time>
      </trkpt>
      <trkpt lat="43.65148" lon="3.78812">
        <ele>67</ele>
        <time>2021-03-06T14:59:36Z</time>
      </trkpt>
      <trkpt lat="43.65146" lon="3.78815">
        <ele>67</ele>
        <time>2021-03-06T14:59:37Z</time>
      </trkpt>
      <trkpt lat="43.65145" lon="3.78818">
        <ele>67</ele>
        <time>2021-03-06T14:59:38Z</time>
      </trkpt>
      <trkpt lat="43.65144" lon="3.78822">
        <ele>66</ele>
        <time>2021-03-06T14:59:39Z</time>
      </trkpt>
      <trkpt lat="43.65144" lon="3.78825">
        <ele>66</ele>
        <time>2021-03-06T14:59:40Z</time>
      </trkpt>
      <trkpt lat="43.65144" lon="3.78829">
        <ele>66</ele>
        <time>2021-03-06T14:59:41Z</time>
      </trkpt>
      <trkpt lat="43.65145" lon="3.78833">
        <ele>66</ele>
        <time>2021-03-06T14:59:42Z</time>
      </trkpt>
      <trkpt lat="43.65145" lon="3.78838">
        <ele>66</ele>
        <time>2021-03-06T14:59:43Z</time>
      </trkpt>
      <trkpt lat="43.65145" lon="3.78843">
        <ele>66</ele>
        <time>2021-03-06T14:59:44Z</time>
      </trkpt>
      <trkpt lat="43.65145" lon="3.78849">
        <ele>66</ele>
        <time>2021-03-06T14:59:45Z</time>
      </trkpt>
      <trkpt lat="43.65145" lon="3.78854">
        <ele>66</ele>
        <time>2021-03-06T14:59:46Z</time>
      </trkpt>
      <trkpt lat="43.65144" lon="3.7886">
        <ele>66</ele>
        <time>2021-03-06T14:59:47Z</time>
      </trkpt>
      <trkpt lat="43.65141" lon="3.78864">
        <ele>66</ele>
        <time>2021-03-06T14:59:48Z</time>
      </trkpt>
      <trkpt lat="43.65137" lon="3.78868">
        <ele>64</ele>
        <time>2021-03-06T14:59:49Z</time>
      </trkpt>
      <trkpt lat="43.65133" lon="3.78871">
        <ele>64</ele>
        <time>2021-03-06T14:59:50Z</time>
      </trkpt>
      <trkpt lat="43.6513" lon="3.78873">
        <ele>64</ele>
        <time>2021-03-06T14:59:51Z</time>
      </trkpt>
      <trkpt lat="43.65127" lon="3.78875">
        <ele>64</ele>
        <time>2021-03-06T14:59:52Z</time>
      </trkpt>
      <trkpt lat="43.65124" lon="3.78878">
        <ele>64</ele>
        <time>2021-03-06T14:59:53Z</time>
      </trkpt>
      <trkpt lat="43.65121" lon="3.7888">
        <ele>64</ele>
        <time>2021-03-06T14:59:54Z</time>
      </trkpt>
      <trkpt lat="43.65119" lon="3.78882">
        <ele>64</ele>
        <time>2021-03-06T14:59:55Z</time>
      </trkpt>
      <trkpt lat="43.65116" lon="3.78884">
        <ele>64</ele>
        <time>2021-03-06T14:59:56Z</time>
      </trkpt>
      <trkpt lat="43.65113" lon="3.78886">
        <ele>64</ele>
        <time>2021-03-06T14:59:57Z</time>
      </trkpt>
      <trkpt lat="43.6511" lon="3.78889">
        <ele>64</ele>
        <time>2021-03-06T14:59:58Z</time>
      </trkpt>
      <trkpt lat="43.65107" lon="3.78891">
        <ele>64</ele>
        <time>2021-03-06T14:59:59Z</time>
      </trkpt>
      <trkpt lat="43.65103" lon="3.78895">
        <ele>64</ele>
        <time>2021-03-06T15:00:00Z</time>
      </trkpt>
      <trkpt lat="43.65101" lon="3.78898">
        <ele>64</ele>
        <time>2021-03-06T15:00:01Z</time>
      </trkpt>
      <trkpt lat="43.65098" lon="3.78901">
        <ele>64</ele>
        <time>2021-03-06T15:00:02Z</time>
      </trkpt>
      <trkpt lat="43.65095" lon="3.78904">
        <ele>64</ele>
        <time>2021-03-06T15:00:03Z</time>
      </trkpt>
      <trkpt lat="43.65093" lon="3.78908">
        <ele>64</ele>
        <time>2021-03-06T15:00:04Z</time>
      </trkpt>
      <trkpt lat="43.6509" lon="3.78911">
        <ele>64</ele>
        <time>2021-03-06T15:00:05Z</time>
      </trkpt>
      <trkpt lat="43.65089" lon="3.78916">
        <ele>64</ele>
        <time>2021-03-06T15:00:06Z</time>
      </trkpt>
      <trkpt lat="43.65087" lon="3.78921">
        <ele>64</ele>
        <time>2021-03-06T15:00:07Z</time>
      </trkpt>
      <trkpt lat="43.65086" lon="3.78928">
        <ele>64</ele>
        <time>2021-03-06T15:00:08Z</time>
      </trkpt>
      <trkpt lat="43.65081" lon="3.78937">
        <ele>63</ele>
        <time>2021-03-06T15:00:09Z</time>
      </trkpt>
      <trkpt lat="43.65079" lon="3.7894">
        <ele>63</ele>
        <time>2021-03-06T15:00:10Z</time>
      </trkpt>
      <trkpt lat="43.65072" lon="3.78952">
        <ele>63</ele>
        <time>2021-03-06T15:00:14Z</time>
      </trkpt>
      <trkpt lat="43.65064" lon="3.78958">
        <ele>63</ele>
        <time>2021-03-06T15:00:17Z</time>
      </trkpt>
      <trkpt lat="43.65055" lon="3.78966">
        <ele>63</ele>
        <time>2021-03-06T15:00:21Z</time>
      </trkpt>
      <trkpt lat="43.65048" lon="3.78976">
        <ele>63</ele>
        <time>2021-03-06T15:00:24Z</time>
      </trkpt>
      <trkpt lat="43.65044" lon="3.78979">
        <ele>63</ele>
        <time>2021-03-06T15:00:25Z</time>
      </trkpt>
      <trkpt lat="43.65041" lon="3.7898">
        <ele>63</ele>
        <time>2021-03-06T15:00:26Z</time>
      </trkpt>
      <trkpt lat="43.65037" lon="3.78983">
        <ele>63</ele>
        <time>2021-03-06T15:00:27Z</time>
      </trkpt>
      <trkpt lat="43.65033" lon="3.78986">
        <ele>63</ele>
        <time>2021-03-06T15:00:28Z</time>
      </trkpt>
      <trkpt lat="43.65029" lon="3.78988">
        <ele>63</ele>
        <time>2021-03-06T15:00:29Z</time>
      </trkpt>
      <trkpt lat="43.65026" lon="3.7899">
        <ele>63</ele>
        <time>2021-03-06T15:00:30Z</time>
      </trkpt>
      <trkpt lat="43.65021" lon="3.78992">
        <ele>63</ele>
        <time>2021-03-06T15:00:31Z</time>
      </trkpt>
      <trkpt lat="43.65016" lon="3.78994">
        <ele>63</ele>
        <time>2021-03-06T15:00:32Z</time>
      </trkpt>
      <trkpt lat="43.65011" lon="3.78995">
        <ele>63</ele>
        <time>2021-03-06T15:00:33Z</time>
      </trkpt>
      <trkpt lat="43.65007" lon="3.78996">
        <ele>63</ele>
        <time>2021-03-06T15:00:34Z</time>
      </trkpt>
      <trkpt lat="43.65004" lon="3.78996">
        <ele>63</ele>
        <time>2021-03-06T15:00:35Z</time>
      </trkpt>
      <trkpt lat="43.65002" lon="3.78997">
        <ele>63</ele>
        <time>2021-03-06T15:00:36Z</time>
      </trkpt>
      <trkpt lat="43.64998" lon="3.78998">
        <ele>63</ele>
        <time>2021-03-06T15:00:37Z</time>
      </trkpt>
      <trkpt lat="43.64995" lon="3.78999">
        <ele>63</ele>
        <time>2021-03-06T15:00:38Z</time>
      </trkpt>
      <trkpt lat="43.64991" lon="3.79">
        <ele>63</ele>
        <time>2021-03-06T15:00:39Z</time>
      </trkpt>
      <trkpt lat="43.64988" lon="3.79001">
        <ele>63</ele>
        <time>2021-03-06T15:00:40Z</time>
      </trkpt>
      <trkpt lat="43.64985" lon="3.79001">
        <ele>63</ele>
        <time>2021-03-06T15:00:41Z</time>
      </trkpt>
      <trkpt lat="43.64981" lon="3.79">
        <ele>63</ele>
        <time>2021-03-06T15:00:42Z</time>
      </trkpt>
      <trkpt lat="43.64979" lon="3.78998">
        <ele>63</ele>
        <time>2021-03-06T15:00:43Z</time>
      </trkpt>
      <trkpt lat="43.64977" lon="3.78996">
        <ele>63</ele>
        <time>2021-03-06T15:00:44Z</time>
      </trkpt>
      <trkpt lat="43.64975" lon="3.78992">
        <ele>63</ele>
        <time>2021-03-06T15:00:45Z</time>
      </trkpt>
      <trkpt lat="43.64975" lon="3.78988">
        <ele>63</ele>
        <time>2021-03-06T15:00:46Z</time>
      </trkpt>
      <trkpt lat="43.64983" lon="3.78982">
        <ele>63</ele>
        <time>2021-03-06T15:00:51Z</time>
      </trkpt>
      <trkpt lat="43.64984" lon="3.78983">
        <ele>63</ele>
        <time>2021-03-06T15:00:52Z</time>
      </trkpt>
      <trkpt lat="43.64986" lon="3.78984">
        <ele>63</ele>
        <time>2021-03-06T15:00:53Z</time>
      </trkpt>
      <trkpt lat="43.64985" lon="3.78994">
        <ele>63</ele>
        <time>2021-03-06T15:00:57Z</time>
      </trkpt>
      <trkpt lat="43.64975" lon="3.78998">
        <ele>63</ele>
        <time>2021-03-06T15:01:01Z</time>
      </trkpt>
      <trkpt lat="43.64966" lon="3.79">
        <ele>63</ele>
        <time>2021-03-06T15:01:05Z</time>
      </trkpt>
      <trkpt lat="43.64955" lon="3.79005">
        <ele>63</ele>
        <time>2021-03-06T15:01:09Z</time>
      </trkpt>
      <trkpt lat="43.64947" lon="3.79013">
        <ele>63</ele>
        <time>2021-03-06T15:01:12Z</time>
      </trkpt>
      <trkpt lat="43.6494" lon="3.79019">
        <ele>63</ele>
        <time>2021-03-06T15:01:15Z</time>
      </trkpt>
      <trkpt lat="43.64937" lon="3.79021">
        <ele>63</ele>
        <time>2021-03-06T15:01:16Z</time>
      </trkpt>
      <trkpt lat="43.64934" lon="3.79024">
        <ele>63</ele>
        <time>2021-03-06T15:01:17Z</time>
      </trkpt>
      <trkpt lat="43.64932" lon="3.79027">
        <ele>63</ele>
        <time>2021-03-06T15:01:18Z</time>
      </trkpt>
      <trkpt lat="43.64929" lon="3.79029">
        <ele>65</ele>
        <time>2021-03-06T15:01:19Z</time>
      </trkpt>
      <trkpt lat="43.64926" lon="3.79031">
        <ele>65</ele>
        <time>2021-03-06T15:01:20Z</time>
      </trkpt>
      <trkpt lat="43.64923" lon="3.79034">
        <ele>65</ele>
        <time>2021-03-06T15:01:21Z</time>
      </trkpt>
      <trkpt lat="43.6492" lon="3.79036">
        <ele>65</ele>
        <time>2021-03-06T15:01:22Z</time>
      </trkpt>
      <trkpt lat="43.64918" lon="3.79037">
        <ele>65</ele>
        <time>2021-03-06T15:01:23Z</time>
      </trkpt>
      <trkpt lat="43.64915" lon="3.79039">
        <ele>65</ele>
        <time>2021-03-06T15:01:24Z</time>
      </trkpt>
      <trkpt lat="43.64909" lon="3.79041">
        <ele>65</ele>
        <time>2021-03-06T15:01:26Z</time>
      </trkpt>
      <trkpt lat="43.64903" lon="3.79045">
        <ele>65</ele>
        <time>2021-03-06T15:01:28Z</time>
      </trkpt>
      <trkpt lat="43.64901" lon="3.79047">
        <ele>65</ele>
        <time>2021-03-06T15:01:29Z</time>
      </trkpt>
      <trkpt lat="43.64897" lon="3.79048">
        <ele>65</ele>
        <time>2021-03-06T15:01:30Z</time>
      </trkpt>
      <trkpt lat="43.64894" lon="3.79049">
        <ele>65</ele>
        <time>2021-03-06T15:01:31Z</time>
      </trkpt>
      <trkpt lat="43.64891" lon="3.7905">
        <ele>65</ele>
        <time>2021-03-06T15:01:32Z</time>
      </trkpt>
      <trkpt lat="43.64889" lon="3.79052">
        <ele>65</ele>
        <time>2021-03-06T15:01:33Z</time>
      </trkpt>
      <trkpt lat="43.64886" lon="3.79054">
        <ele>65</ele>
        <time>2021-03-06T15:01:34Z</time>
      </trkpt>
      <trkpt lat="43.64884" lon="3.79056">
        <ele>65</ele>
        <time>2021-03-06T15:01:35Z</time>
      </trkpt>
      <trkpt lat="43.64877" lon="3.79064">
        <ele>65</ele>
        <time>2021-03-06T15:01:38Z</time>
      </trkpt>
      <trkpt lat="43.64871" lon="3.79068">
        <ele>65</ele>
        <time>2021-03-06T15:01:39Z</time>
      </trkpt>
      <trkpt lat="43.64867" lon="3.79072">
        <ele>65</ele>
        <time>2021-03-06T15:01:41Z</time>
      </trkpt>
      <trkpt lat="43.64865" lon="3.79074">
        <ele>65</ele>
        <time>2021-03-06T15:01:42Z</time>
      </trkpt>
      <trkpt lat="43.64862" lon="3.79075">
        <ele>65</ele>
        <time>2021-03-06T15:01:43Z</time>
      </trkpt>
      <trkpt lat="43.6486" lon="3.79076">
        <ele>65</ele>
        <time>2021-03-06T15:01:44Z</time>
      </trkpt>
      <trkpt lat="43.64853" lon="3.7908">
        <ele>65</ele>
        <time>2021-03-06T15:01:46Z</time>
      </trkpt>
      <trkpt lat="43.64844" lon="3.79084">
        <ele>65</ele>
        <time>2021-03-06T15:01:50Z</time>
      </trkpt>
      <trkpt lat="43.6484" lon="3.79096">
        <ele>65</ele>
        <time>2021-03-06T15:01:54Z</time>
      </trkpt>
      <trkpt lat="43.64833" lon="3.79107">
        <ele>65</ele>
        <time>2021-03-06T15:01:57Z</time>
      </trkpt>
      <trkpt lat="43.64826" lon="3.79115">
        <ele>66</ele>
        <time>2021-03-06T15:01:59Z</time>
      </trkpt>
      <trkpt lat="43.64818" lon="3.79122">
        <ele>66</ele>
        <time>2021-03-06T15:02:02Z</time>
      </trkpt>
      <trkpt lat="43.64809" lon="3.79127">
        <ele>66</ele>
        <time>2021-03-06T15:02:05Z</time>
      </trkpt>
      <trkpt lat="43.64799" lon="3.79131">
        <ele>68</ele>
        <time>2021-03-06T15:02:09Z</time>
      </trkpt>
      <trkpt lat="43.6479" lon="3.79136">
        <ele>68</ele>
        <time>2021-03-06T15:02:13Z</time>
      </trkpt>
      <trkpt lat="43.64787" lon="3.79141">
        <ele>68</ele>
        <time>2021-03-06T15:02:16Z</time>
      </trkpt>
      <trkpt lat="43.64784" lon="3.79143">
        <ele>68</ele>
        <time>2021-03-06T15:02:18Z</time>
      </trkpt>
      <trkpt lat="43.64782" lon="3.79144">
        <ele>68</ele>
        <time>2021-03-06T15:02:19Z</time>
      </trkpt>
      <trkpt lat="43.6478" lon="3.79145">
        <ele>68</ele>
        <time>2021-03-06T15:02:20Z</time>
      </trkpt>
      <trkpt lat="43.64778" lon="3.79146">
        <ele>68</ele>
        <time>2021-03-06T15:02:21Z</time>
      </trkpt>
      <trkpt lat="43.64776" lon="3.79147">
        <ele>68</ele>
        <time>2021-03-06T15:02:22Z</time>
      </trkpt>
      <trkpt lat="43.64772" lon="3.79148">
        <ele>68</ele>
        <time>2021-03-06T15:02:24Z</time>
      </trkpt>
      <trkpt lat="43.6477" lon="3.79148">
        <ele>68</ele>
        <time>2021-03-06T15:02:25Z</time>
      </trkpt>
      <trkpt lat="43.64768" lon="3.79148">
        <ele>68</ele>
        <time>2021-03-06T15:02:27Z</time>
      </trkpt>
      <trkpt lat="43.64766" lon="3.79149">
        <ele>68</ele>
        <time>2021-03-06T15:02:29Z</time>
      </trkpt>
      <trkpt lat="43.64764" lon="3.79152">
        <ele>69</ele>
        <time>2021-03-06T15:02:36Z</time>
      </trkpt>
      <trkpt lat="43.64761" lon="3.79158">
        <ele>70</ele>
        <time>2021-03-06T15:02:39Z</time>
      </trkpt>
      <trkpt lat="43.64759" lon="3.79159">
        <ele>70</ele>
        <time>2021-03-06T15:02:40Z</time>
      </trkpt>
      <trkpt lat="43.64757" lon="3.79161">
        <ele>70</ele>
        <time>2021-03-06T15:02:41Z</time>
      </trkpt>
      <trkpt lat="43.64756" lon="3.79164">
        <ele>70</ele>
        <time>2021-03-06T15:02:42Z</time>
      </trkpt>
      <trkpt lat="43.64754" lon="3.79165">
        <ele>70</ele>
        <time>2021-03-06T15:02:43Z</time>
      </trkpt>
      <trkpt lat="43.64752" lon="3.79167">
        <ele>70</ele>
        <time>2021-03-06T15:02:44Z</time>
      </trkpt>
      <trkpt lat="43.6475" lon="3.79169">
        <ele>70</ele>
        <time>2021-03-06T15:02:45Z</time>
      </trkpt>
      <trkpt lat="43.64747" lon="3.79171">
        <ele>70</ele>
        <time>2021-03-06T15:02:46Z</time>
      </trkpt>
      <trkpt lat="43.64745" lon="3.79174">
        <ele>70</ele>
        <time>2021-03-06T15:02:47Z</time>
      </trkpt>
      <trkpt lat="43.64743" lon="3.79176">
        <ele>70</ele>
        <time>2021-03-06T15:02:48Z</time>
      </trkpt>
      <trkpt lat="43.64734" lon="3.79185">
        <ele>70</ele>
        <time>2021-03-06T15:02:51Z</time>
      </trkpt>
      <trkpt lat="43.6473" lon="3.79187">
        <ele>70</ele>
        <time>2021-03-06T15:02:52Z</time>
      </trkpt>
      <trkpt lat="43.64721" lon="3.79191">
        <ele>70</ele>
        <time>2021-03-06T15:02:55Z</time>
      </trkpt>
      <trkpt lat="43.64713" lon="3.79197">
        <ele>70</ele>
        <time>2021-03-06T15:02:58Z</time>
      </trkpt>
      <trkpt lat="43.64703" lon="3.79203">
        <ele>70</ele>
        <time>2021-03-06T15:03:01Z</time>
      </trkpt>
      <trkpt lat="43.64702" lon="3.79211">
        <ele>70</ele>
        <time>2021-03-06T15:03:05Z</time>
      </trkpt>
      <trkpt lat="43.64703" lon="3.79213">
        <ele>70</ele>
        <time>2021-03-06T15:03:06Z</time>
      </trkpt>
      <trkpt lat="43.64704" lon="3.79217">
        <ele>70</ele>
        <time>2021-03-06T15:03:07Z</time>
      </trkpt>
      <trkpt lat="43.647" lon="3.79224">
        <ele>70</ele>
        <time>2021-03-06T15:03:10Z</time>
      </trkpt>
      <trkpt lat="43.64698" lon="3.79227">
        <ele>70</ele>
        <time>2021-03-06T15:03:11Z</time>
      </trkpt>
      <trkpt lat="43.64699" lon="3.7923">
        <ele>70</ele>
        <time>2021-03-06T15:03:12Z</time>
      </trkpt>
      <trkpt lat="43.64699" lon="3.79235">
        <ele>70</ele>
        <time>2021-03-06T15:03:13Z</time>
      </trkpt>
      <trkpt lat="43.64699" lon="3.79239">
        <ele>70</ele>
        <time>2021-03-06T15:03:14Z</time>
      </trkpt>
      <trkpt lat="43.64702" lon="3.79252">
        <ele>70</ele>
        <time>2021-03-06T15:03:17Z</time>
      </trkpt>
      <trkpt lat="43.64697" lon="3.79264">
        <ele>70</ele>
        <time>2021-03-06T15:03:21Z</time>
      </trkpt>
      <trkpt lat="43.64696" lon="3.79268">
        <ele>70</ele>
        <time>2021-03-06T15:03:23Z</time>
      </trkpt>
      <trkpt lat="43.64696" lon="3.79271">
        <ele>70</ele>
        <time>2021-03-06T15:03:25Z</time>
      </trkpt>
      <trkpt lat="43.64697" lon="3.79276">
        <ele>70</ele>
        <time>2021-03-06T15:03:27Z</time>
      </trkpt>
      <trkpt lat="43.64697" lon="3.79279">
        <ele>70</ele>
        <time>2021-03-06T15:03:28Z</time>
      </trkpt>
      <trkpt lat="43.64695" lon="3.79281">
        <ele>70</ele>
        <time>2021-03-06T15:03:30Z</time>
      </trkpt>
      <trkpt lat="43.64692" lon="3.79283">
        <ele>70</ele>
        <time>2021-03-06T15:03:31Z</time>
      </trkpt>
      <trkpt lat="43.64691" lon="3.79284">
        <ele>70</ele>
        <time>2021-03-06T15:03:32Z</time>
      </trkpt>
      <trkpt lat="43.64682" lon="3.79289">
        <ele>70</ele>
        <time>2021-03-06T15:03:38Z</time>
      </trkpt>
      <trkpt lat="43.64673" lon="3.7929">
        <ele>70</ele>
        <time>2021-03-06T15:03:43Z</time>
      </trkpt>
      <trkpt lat="43.64666" lon="3.79299">
        <ele>70</ele>
        <time>2021-03-06T15:03:47Z</time>
      </trkpt>
      <trkpt lat="43.64661" lon="3.79309">
        <ele>70</ele>
        <time>2021-03-06T15:03:50Z</time>
      </trkpt>
      <trkpt lat="43.64657" lon="3.79322">
        <ele>70</ele>
        <time>2021-03-06T15:03:54Z</time>
      </trkpt>
      <trkpt lat="43.64655" lon="3.79336">
        <ele>70</ele>
        <time>2021-03-06T15:03:58Z</time>
      </trkpt>
      <trkpt lat="43.64652" lon="3.79351">
        <ele>70</ele>
        <time>2021-03-06T15:04:01Z</time>
      </trkpt>
      <trkpt lat="43.64649" lon="3.79368">
        <ele>70</ele>
        <time>2021-03-06T15:04:04Z</time>
      </trkpt>
      <trkpt lat="43.64647" lon="3.79384">
        <ele>70</ele>
        <time>2021-03-06T15:04:07Z</time>
      </trkpt>
      <trkpt lat="43.64645" lon="3.79388">
        <ele>70</ele>
        <time>2021-03-06T15:04:08Z</time>
      </trkpt>
      <trkpt lat="43.64643" lon="3.79392">
        <ele>66</ele>
        <time>2021-03-06T15:04:09Z</time>
      </trkpt>
      <trkpt lat="43.6464" lon="3.79395">
        <ele>66</ele>
        <time>2021-03-06T15:04:10Z</time>
      </trkpt>
      <trkpt lat="43.64638" lon="3.79398">
        <ele>66</ele>
        <time>2021-03-06T15:04:11Z</time>
      </trkpt>
      <trkpt lat="43.64635" lon="3.79402">
        <ele>66</ele>
        <time>2021-03-06T15:04:12Z</time>
      </trkpt>
      <trkpt lat="43.64626" lon="3.79412">
        <ele>66</ele>
        <time>2021-03-06T15:04:15Z</time>
      </trkpt>
      <trkpt lat="43.64624" lon="3.79414">
        <ele>66</ele>
        <time>2021-03-06T15:04:16Z</time>
      </trkpt>
      <trkpt lat="43.64622" lon="3.79417">
        <ele>66</ele>
        <time>2021-03-06T15:04:17Z</time>
      </trkpt>
      <trkpt lat="43.64621" lon="3.79419">
        <ele>66</ele>
        <time>2021-03-06T15:04:18Z</time>
      </trkpt>
      <trkpt lat="43.64619" lon="3.79422">
        <ele>63</ele>
        <time>2021-03-06T15:04:19Z</time>
      </trkpt>
      <trkpt lat="43.64618" lon="3.79424">
        <ele>63</ele>
        <time>2021-03-06T15:04:20Z</time>
      </trkpt>
      <trkpt lat="43.6461" lon="3.79433">
        <ele>63</ele>
        <time>2021-03-06T15:04:25Z</time>
      </trkpt>
      <trkpt lat="43.64603" lon="3.79438">
        <ele>63</ele>
        <time>2021-03-06T15:04:28Z</time>
      </trkpt>
      <trkpt lat="43.646" lon="3.79441">
        <ele>63</ele>
        <time>2021-03-06T15:04:30Z</time>
      </trkpt>
      <trkpt lat="43.64598" lon="3.79443">
        <ele>63</ele>
        <time>2021-03-06T15:04:32Z</time>
      </trkpt>
      <trkpt lat="43.64596" lon="3.79448">
        <ele>63</ele>
        <time>2021-03-06T15:04:34Z</time>
      </trkpt>
      <trkpt lat="43.64595" lon="3.7945">
        <ele>63</ele>
        <time>2021-03-06T15:04:35Z</time>
      </trkpt>
      <trkpt lat="43.64594" lon="3.79452">
        <ele>63</ele>
        <time>2021-03-06T15:04:36Z</time>
      </trkpt>
      <trkpt lat="43.64592" lon="3.79454">
        <ele>63</ele>
        <time>2021-03-06T15:04:37Z</time>
      </trkpt>
      <trkpt lat="43.64591" lon="3.79458">
        <ele>61</ele>
        <time>2021-03-06T15:04:39Z</time>
      </trkpt>
      <trkpt lat="43.64592" lon="3.79461">
        <ele>61</ele>
        <time>2021-03-06T15:04:40Z</time>
      </trkpt>
      <trkpt lat="43.64593" lon="3.79464">
        <ele>61</ele>
        <time>2021-03-06T15:04:41Z</time>
      </trkpt>
      <trkpt lat="43.64595" lon="3.79467">
        <ele>61</ele>
        <time>2021-03-06T15:04:42Z</time>
      </trkpt>
      <trkpt lat="43.64597" lon="3.7947">
        <ele>61</ele>
        <time>2021-03-06T15:04:43Z</time>
      </trkpt>
      <trkpt lat="43.64599" lon="3.79474">
        <ele>61</ele>
        <time>2021-03-06T15:04:44Z</time>
      </trkpt>
      <trkpt lat="43.64599" lon="3.79478">
        <ele>61</ele>
        <time>2021-03-06T15:04:45Z</time>
      </trkpt>
      <trkpt lat="43.64598" lon="3.79481">
        <ele>61</ele>
        <time>2021-03-06T15:04:46Z</time>
      </trkpt>
      <trkpt lat="43.64595" lon="3.79484">
        <ele>61</ele>
        <time>2021-03-06T15:04:47Z</time>
      </trkpt>
      <trkpt lat="43.64594" lon="3.79487">
        <ele>61</ele>
        <time>2021-03-06T15:04:48Z</time>
      </trkpt>
      <trkpt lat="43.64592" lon="3.7949">
        <ele>60</ele>
        <time>2021-03-06T15:04:49Z</time>
      </trkpt>
      <trkpt lat="43.64591" lon="3.79492">
        <ele>60</ele>
        <time>2021-03-06T15:04:50Z</time>
      </trkpt>
      <trkpt lat="43.64589" lon="3.79495">
        <ele>60</ele>
        <time>2021-03-06T15:04:51Z</time>
      </trkpt>
      <trkpt lat="43.64587" lon="3.79498">
        <ele>60</ele>
        <time>2021-03-06T15:04:52Z</time>
      </trkpt>
      <trkpt lat="43.64586" lon="3.79501">
        <ele>60</ele>
        <time>2021-03-06T15:04:53Z</time>
      </trkpt>
      <trkpt lat="43.64585" lon="3.79504">
        <ele>60</ele>
        <time>2021-03-06T15:04:54Z</time>
      </trkpt>
      <trkpt lat="43.64584" lon="3.79508">
        <ele>60</ele>
        <time>2021-03-06T15:04:55Z</time>
      </trkpt>
      <trkpt lat="43.64582" lon="3.79512">
        <ele>60</ele>
        <time>2021-03-06T15:04:56Z</time>
      </trkpt>
      <trkpt lat="43.64581" lon="3.79515">
        <ele>60</ele>
        <time>2021-03-06T15:04:57Z</time>
      </trkpt>
      <trkpt lat="43.6458" lon="3.79519">
        <ele>60</ele>
        <time>2021-03-06T15:04:58Z</time>
      </trkpt>
      <trkpt lat="43.64578" lon="3.79522">
        <ele>61</ele>
        <time>2021-03-06T15:04:59Z</time>
      </trkpt>
      <trkpt lat="43.64576" lon="3.79526">
        <ele>61</ele>
        <time>2021-03-06T15:05:00Z</time>
      </trkpt>
      <trkpt lat="43.64575" lon="3.7953">
        <ele>61</ele>
        <time>2021-03-06T15:05:01Z</time>
      </trkpt>
      <trkpt lat="43.64573" lon="3.79533">
        <ele>61</ele>
        <time>2021-03-06T15:05:02Z</time>
      </trkpt>
      <trkpt lat="43.64572" lon="3.79538">
        <ele>61</ele>
        <time>2021-03-06T15:05:03Z</time>
      </trkpt>
      <trkpt lat="43.64571" lon="3.79542">
        <ele>61</ele>
        <time>2021-03-06T15:05:04Z</time>
      </trkpt>
      <trkpt lat="43.6457" lon="3.79546">
        <ele>61</ele>
        <time>2021-03-06T15:05:05Z</time>
      </trkpt>
      <trkpt lat="43.64569" lon="3.7955">
        <ele>61</ele>
        <time>2021-03-06T15:05:06Z</time>
      </trkpt>
      <trkpt lat="43.64568" lon="3.79554">
        <ele>61</ele>
        <time>2021-03-06T15:05:07Z</time>
      </trkpt>
      <trkpt lat="43.64567" lon="3.79559">
        <ele>61</ele>
        <time>2021-03-06T15:05:08Z</time>
      </trkpt>
      <trkpt lat="43.64566" lon="3.79563">
        <ele>61</ele>
        <time>2021-03-06T15:05:09Z</time>
      </trkpt>
      <trkpt lat="43.64564" lon="3.79567">
        <ele>61</ele>
        <time>2021-03-06T15:05:10Z</time>
      </trkpt>
      <trkpt lat="43.64563" lon="3.79571">
        <ele>61</ele>
        <time>2021-03-06T15:05:11Z</time>
      </trkpt>
      <trkpt lat="43.64562" lon="3.79575">
        <ele>61</ele>
        <time>2021-03-06T15:05:12Z</time>
      </trkpt>
      <trkpt lat="43.64561" lon="3.79579">
        <ele>61</ele>
        <time>2021-03-06T15:05:13Z</time>
      </trkpt>
      <trkpt lat="43.6456" lon="3.79583">
        <ele>61</ele>
        <time>2021-03-06T15:05:14Z</time>
      </trkpt>
      <trkpt lat="43.64559" lon="3.79587">
        <ele>61</ele>
        <time>2021-03-06T15:05:15Z</time>
      </trkpt>
      <trkpt lat="43.64558" lon="3.7959">
        <ele>61</ele>
        <time>2021-03-06T15:05:16Z</time>
      </trkpt>
      <trkpt lat="43.64557" lon="3.79594">
        <ele>61</ele>
        <time>2021-03-06T15:05:17Z</time>
      </trkpt>
      <trkpt lat="43.64557" lon="3.79597">
        <ele>61</ele>
        <time>2021-03-06T15:05:18Z</time>
      </trkpt>
      <trkpt lat="43.64557" lon="3.796">
        <ele>58</ele>
        <time>2021-03-06T15:05:19Z</time>
      </trkpt>
      <trkpt lat="43.64556" lon="3.79604">
        <ele>58</ele>
        <time>2021-03-06T15:05:20Z</time>
      </trkpt>
      <trkpt lat="43.64555" lon="3.79608">
        <ele>58</ele>
        <time>2021-03-06T15:05:21Z</time>
      </trkpt>
      <trkpt lat="43.64553" lon="3.79611">
        <ele>58</ele>
        <time>2021-03-06T15:05:22Z</time>
      </trkpt>
      <trkpt lat="43.64551" lon="3.79614">
        <ele>58</ele>
        <time>2021-03-06T15:05:23Z</time>
      </trkpt>
      <trkpt lat="43.6455" lon="3.79617">
        <ele>58</ele>
        <time>2021-03-06T15:05:24Z</time>
      </trkpt>
      <trkpt lat="43.64549" lon="3.79619">
        <ele>58</ele>
        <time>2021-03-06T15:05:25Z</time>
      </trkpt>
      <trkpt lat="43.64548" lon="3.79622">
        <ele>58</ele>
        <time>2021-03-06T15:05:26Z</time>
      </trkpt>
      <trkpt lat="43.64547" lon="3.79626">
        <ele>58</ele>
        <time>2021-03-06T15:05:27Z</time>
      </trkpt>
      <trkpt lat="43.64546" lon="3.79629">
        <ele>58</ele>
        <time>2021-03-06T15:05:28Z</time>
      </trkpt>
      <trkpt lat="43.64544" lon="3.79631">
        <ele>58</ele>
        <time>2021-03-06T15:05:29Z</time>
      </trkpt>
      <trkpt lat="43.64542" lon="3.79634">
        <ele>58</ele>
        <time>2021-03-06T15:05:30Z</time>
      </trkpt>
      <trkpt lat="43.64541" lon="3.79638">
        <ele>58</ele>
        <time>2021-03-06T15:05:31Z</time>
      </trkpt>
      <trkpt lat="43.6454" lon="3.79641">
        <ele>58</ele>
        <time>2021-03-06T15:05:32Z</time>
      </trkpt>
      <trkpt lat="43.64539" lon="3.79644">
        <ele>58</ele>
        <time>2021-03-06T15:05:33Z</time>
      </trkpt>
      <trkpt lat="43.64538" lon="3.79647">
        <ele>58</ele>
        <time>2021-03-06T15:05:34Z</time>
      </trkpt>
      <trkpt lat="43.64536" lon="3.79649">
        <ele>58</ele>
        <time>2021-03-06T15:05:35Z</time>
      </trkpt>
      <trkpt lat="43.64535" lon="3.79651">
        <ele>58</ele>
        <time>2021-03-06T15:05:36Z</time>
      </trkpt>
      <trkpt lat="43.64533" lon="3.79655">
        <ele>58</ele>
        <time>2021-03-06T15:05:38Z</time>
      </trkpt>
      <trkpt lat="43.64533" lon="3.79658">
        <ele>58</ele>
        <time>2021-03-06T15:05:41Z</time>
      </trkpt>
      <trkpt lat="43.64531" lon="3.79662">
        <ele>58</ele>
        <time>2021-03-06T15:05:43Z</time>
      </trkpt>
      <trkpt lat="43.64529" lon="3.79664">
        <ele>58</ele>
        <time>2021-03-06T15:05:44Z</time>
      </trkpt>
      <trkpt lat="43.64528" lon="3.79667">
        <ele>58</ele>
        <time>2021-03-06T15:05:45Z</time>
      </trkpt>
      <trkpt lat="43.64527" lon="3.7967">
        <ele>58</ele>
        <time>2021-03-06T15:05:46Z</time>
      </trkpt>
      <trkpt lat="43.64526" lon="3.79674">
        <ele>58</ele>
        <time>2021-03-06T15:05:47Z</time>
      </trkpt>
      <trkpt lat="43.64525" lon="3.79677">
        <ele>58</ele>
        <time>2021-03-06T15:05:48Z</time>
      </trkpt>
      <trkpt lat="43.64525" lon="3.7968">
        <ele>59</ele>
        <time>2021-03-06T15:05:49Z</time>
      </trkpt>
      <trkpt lat="43.64524" lon="3.79684">
        <ele>59</ele>
        <time>2021-03-06T15:05:50Z</time>
      </trkpt>
      <trkpt lat="43.64523" lon="3.79687">
        <ele>59</ele>
        <time>2021-03-06T15:05:51Z</time>
      </trkpt>
      <trkpt lat="43.64522" lon="3.7969">
        <ele>59</ele>
        <time>2021-03-06T15:05:52Z</time>
      </trkpt>
      <trkpt lat="43.6452" lon="3.79692">
        <ele>59</ele>
        <time>2021-03-06T15:05:53Z</time>
      </trkpt>
      <trkpt lat="43.64519" lon="3.79694">
        <ele>59</ele>
        <time>2021-03-06T15:05:54Z</time>
      </trkpt>
      <trkpt lat="43.64517" lon="3.79699">
        <ele>59</ele>
        <time>2021-03-06T15:05:56Z</time>
      </trkpt>
      <trkpt lat="43.64516" lon="3.79703">
        <ele>59</ele>
        <time>2021-03-06T15:05:57Z</time>
      </trkpt>
      <trkpt lat="43.64515" lon="3.79707">
        <ele>59</ele>
        <time>2021-03-06T15:05:58Z</time>
      </trkpt>
      <trkpt lat="43.64513" lon="3.7971">
        <ele>59</ele>
        <time>2021-03-06T15:05:59Z</time>
      </trkpt>
      <trkpt lat="43.64511" lon="3.79714">
        <ele>59</ele>
        <time>2021-03-06T15:06:00Z</time>
      </trkpt>
      <trkpt lat="43.64509" lon="3.79718">
        <ele>59</ele>
        <time>2021-03-06T15:06:01Z</time>
      </trkpt>
      <trkpt lat="43.64507" lon="3.79722">
        <ele>59</ele>
        <time>2021-03-06T15:06:02Z</time>
      </trkpt>
      <trkpt lat="43.64506" lon="3.79726">
        <ele>59</ele>
        <time>2021-03-06T15:06:03Z</time>
      </trkpt>
      <trkpt lat="43.64504" lon="3.79729">
        <ele>59</ele>
        <time>2021-03-06T15:06:04Z</time>
      </trkpt>
      <trkpt lat="43.64503" lon="3.79733">
        <ele>59</ele>
        <time>2021-03-06T15:06:05Z</time>
      </trkpt>
      <trkpt lat="43.64501" lon="3.79737">
        <ele>59</ele>
        <time>2021-03-06T15:06:06Z</time>
      </trkpt>
      <trkpt lat="43.645" lon="3.7974">
        <ele>59</ele>
        <time>2021-03-06T15:06:07Z</time>
      </trkpt>
      <trkpt lat="43.64498" lon="3.79743">
        <ele>59</ele>
        <time>2021-03-06T15:06:08Z</time>
      </trkpt>
      <trkpt lat="43.64496" lon="3.79745">
        <ele>58</ele>
        <time>2021-03-06T15:06:09Z</time>
      </trkpt>
      <trkpt lat="43.64495" lon="3.79747">
        <ele>58</ele>
        <time>2021-03-06T15:06:10Z</time>
      </trkpt>
      <trkpt lat="43.64493" lon="3.79752">
        <ele>58</ele>
        <time>2021-03-06T15:06:12Z</time>
      </trkpt>
      <trkpt lat="43.64492" lon="3.79754">
        <ele>58</ele>
        <time>2021-03-06T15:06:13Z</time>
      </trkpt>
      <trkpt lat="43.6449" lon="3.79756">
        <ele>58</ele>
        <time>2021-03-06T15:06:14Z</time>
      </trkpt>
      <trkpt lat="43.64485" lon="3.7976">
        <ele>58</ele>
        <time>2021-03-06T15:06:16Z</time>
      </trkpt>
      <trkpt lat="43.64482" lon="3.79762">
        <ele>58</ele>
        <time>2021-03-06T15:06:17Z</time>
      </trkpt>
      <trkpt lat="43.64479" lon="3.79763">
        <ele>58</ele>
        <time>2021-03-06T15:06:18Z</time>
      </trkpt>
      <trkpt lat="43.64477" lon="3.79764">
        <ele>59</ele>
        <time>2021-03-06T15:06:19Z</time>
      </trkpt>
      <trkpt lat="43.64474" lon="3.79766">
        <ele>59</ele>
        <time>2021-03-06T15:06:20Z</time>
      </trkpt>
      <trkpt lat="43.64472" lon="3.79768">
        <ele>59</ele>
        <time>2021-03-06T15:06:21Z</time>
      </trkpt>
      <trkpt lat="43.64469" lon="3.79769">
        <ele>59</ele>
        <time>2021-03-06T15:06:22Z</time>
      </trkpt>
      <trkpt lat="43.64467" lon="3.7977">
        <ele>59</ele>
        <time>2021-03-06T15:06:23Z</time>
      </trkpt>
      <trkpt lat="43.64465" lon="3.79771">
        <ele>59</ele>
        <time>2021-03-06T15:06:24Z</time>
      </trkpt>
      <trkpt lat="43.64464" lon="3.79773">
        <ele>59</ele>
        <time>2021-03-06T15:06:25Z</time>
      </trkpt>
      <trkpt lat="43.64461" lon="3.79777">
        <ele>59</ele>
        <time>2021-03-06T15:06:27Z</time>
      </trkpt>
      <trkpt lat="43.64461" lon="3.7978">
        <ele>61</ele>
        <time>2021-03-06T15:06:29Z</time>
      </trkpt>
      <trkpt lat="43.64462" lon="3.79782">
        <ele>61</ele>
        <time>2021-03-06T15:06:32Z</time>
      </trkpt>
      <trkpt lat="43.64462" lon="3.79782">
        <ele>62</ele>
        <time>2021-03-06T15:06:38Z</time>
      </trkpt>
      <trkpt lat="43.64456" lon="3.79787">
        <ele>62</ele>
        <time>2021-03-06T15:06:49Z</time>
      </trkpt>
      <trkpt lat="43.64454" lon="3.79787">
        <ele>62</ele>
        <time>2021-03-06T15:06:50Z</time>
      </trkpt>
      <trkpt lat="43.64452" lon="3.79787">
        <ele>62</ele>
        <time>2021-03-06T15:06:51Z</time>
      </trkpt>
      <trkpt lat="43.6445" lon="3.79788">
        <ele>62</ele>
        <time>2021-03-06T15:06:52Z</time>
      </trkpt>
      <trkpt lat="43.64443" lon="3.79789">
        <ele>62</ele>
        <time>2021-03-06T15:06:54Z</time>
      </trkpt>
      <trkpt lat="43.64439" lon="3.7979">
        <ele>62</ele>
        <time>2021-03-06T15:06:55Z</time>
      </trkpt>
      <trkpt lat="43.6443" lon="3.79791">
        <ele>62</ele>
        <time>2021-03-06T15:06:57Z</time>
      </trkpt>
      <trkpt lat="43.64422" lon="3.7979">
        <ele>61</ele>
        <time>2021-03-06T15:06:59Z</time>
      </trkpt>
      <trkpt lat="43.64419" lon="3.7979">
        <ele>61</ele>
        <time>2021-03-06T15:07:00Z</time>
      </trkpt>
      <trkpt lat="43.64416" lon="3.7979">
        <ele>61</ele>
        <time>2021-03-06T15:07:01Z</time>
      </trkpt>
      <trkpt lat="43.64414" lon="3.79789">
        <ele>61</ele>
        <time>2021-03-06T15:07:03Z</time>
      </trkpt>
      <trkpt lat="43.64411" lon="3.79787">
        <ele>61</ele>
        <time>2021-03-06T15:07:05Z</time>
      </trkpt>
      <trkpt lat="43.64408" lon="3.79786">
        <ele>61</ele>
        <time>2021-03-06T15:07:06Z</time>
      </trkpt>
      <trkpt lat="43.64406" lon="3.79786">
        <ele>61</ele>
        <time>2021-03-06T15:07:07Z</time>
      </trkpt>
      <trkpt lat="43.64403" lon="3.79785">
        <ele>61</ele>
        <time>2021-03-06T15:07:08Z</time>
      </trkpt>
      <trkpt lat="43.64399" lon="3.79784">
        <ele>61</ele>
        <time>2021-03-06T15:07:09Z</time>
      </trkpt>
      <trkpt lat="43.64397" lon="3.79783">
        <ele>61</ele>
        <time>2021-03-06T15:07:10Z</time>
      </trkpt>
      <trkpt lat="43.64387" lon="3.79781">
        <ele>61</ele>
        <time>2021-03-06T15:07:14Z</time>
      </trkpt>
      <trkpt lat="43.64384" lon="3.79781">
        <ele>61</ele>
        <time>2021-03-06T15:07:15Z</time>
      </trkpt>
      <trkpt lat="43.6438" lon="3.79782">
        <ele>61</ele>
        <time>2021-03-06T15:07:16Z</time>
      </trkpt>
      <trkpt lat="43.64377" lon="3.79783">
        <ele>61</ele>
        <time>2021-03-06T15:07:17Z</time>
      </trkpt>
      <trkpt lat="43.64373" lon="3.79784">
        <ele>61</ele>
        <time>2021-03-06T15:07:18Z</time>
      </trkpt>
      <trkpt lat="43.64369" lon="3.79785">
        <ele>61</ele>
        <time>2021-03-06T15:07:20Z</time>
      </trkpt>
      <trkpt lat="43.64365" lon="3.79787">
        <ele>61</ele>
        <time>2021-03-06T15:07:21Z</time>
      </trkpt>
      <trkpt lat="43.64362" lon="3.79788">
        <ele>61</ele>
        <time>2021-03-06T15:07:22Z</time>
      </trkpt>
      <trkpt lat="43.64358" lon="3.79788">
        <ele>61</ele>
        <time>2021-03-06T15:07:23Z</time>
      </trkpt>
      <trkpt lat="43.64356" lon="3.7979">
        <ele>61</ele>
        <time>2021-03-06T15:07:24Z</time>
      </trkpt>
      <trkpt lat="43.64353" lon="3.79791">
        <ele>61</ele>
        <time>2021-03-06T15:07:25Z</time>
      </trkpt>
      <trkpt lat="43.6435" lon="3.79792">
        <ele>61</ele>
        <time>2021-03-06T15:07:26Z</time>
      </trkpt>
      <trkpt lat="43.64347" lon="3.79793">
        <ele>61</ele>
        <time>2021-03-06T15:07:27Z</time>
      </trkpt>
      <trkpt lat="43.64345" lon="3.79793">
        <ele>61</ele>
        <time>2021-03-06T15:07:28Z</time>
      </trkpt>
      <trkpt lat="43.64342" lon="3.79795">
        <ele>61</ele>
        <time>2021-03-06T15:07:29Z</time>
      </trkpt>
      <trkpt lat="43.64339" lon="3.79797">
        <ele>61</ele>
        <time>2021-03-06T15:07:30Z</time>
      </trkpt>
      <trkpt lat="43.64337" lon="3.79799">
        <ele>61</ele>
        <time>2021-03-06T15:07:31Z</time>
      </trkpt>
      <trkpt lat="43.64335" lon="3.79801">
        <ele>61</ele>
        <time>2021-03-06T15:07:32Z</time>
      </trkpt>
      <trkpt lat="43.64333" lon="3.79802">
        <ele>61</ele>
        <time>2021-03-06T15:07:33Z</time>
      </trkpt>
      <trkpt lat="43.64331" lon="3.79804">
        <ele>61</ele>
        <time>2021-03-06T15:07:34Z</time>
      </trkpt>
      <trkpt lat="43.64329" lon="3.79805">
        <ele>61</ele>
        <time>2021-03-06T15:07:35Z</time>
      </trkpt>
      <trkpt lat="43.64327" lon="3.79806">
        <ele>61</ele>
        <time>2021-03-06T15:07:36Z</time>
      </trkpt>
      <trkpt lat="43.64324" lon="3.79808">
        <ele>61</ele>
        <time>2021-03-06T15:07:37Z</time>
      </trkpt>
      <trkpt lat="43.64322" lon="3.79809">
        <ele>61</ele>
        <time>2021-03-06T15:07:38Z</time>
      </trkpt>
      <trkpt lat="43.64319" lon="3.79811">
        <ele>62</ele>
        <time>2021-03-06T15:07:39Z</time>
      </trkpt>
      <trkpt lat="43.64316" lon="3.79812">
        <ele>62</ele>
        <time>2021-03-06T15:07:40Z</time>
      </trkpt>
      <trkpt lat="43.64314" lon="3.79813">
        <ele>62</ele>
        <time>2021-03-06T15:07:41Z</time>
      </trkpt>
      <trkpt lat="43.64311" lon="3.79814">
        <ele>62</ele>
        <time>2021-03-06T15:07:42Z</time>
      </trkpt>
      <trkpt lat="43.64308" lon="3.79816">
        <ele>62</ele>
        <time>2021-03-06T15:07:43Z</time>
      </trkpt>
      <trkpt lat="43.64305" lon="3.79818">
        <ele>62</ele>
        <time>2021-03-06T15:07:44Z</time>
      </trkpt>
      <trkpt lat="43.64302" lon="3.79819">
        <ele>62</ele>
        <time>2021-03-06T15:07:45Z</time>
      </trkpt>
      <trkpt lat="43.64299" lon="3.7982">
        <ele>62</ele>
        <time>2021-03-06T15:07:46Z</time>
      </trkpt>
      <trkpt lat="43.64296" lon="3.7982">
        <ele>62</ele>
        <time>2021-03-06T15:07:47Z</time>
      </trkpt>
      <trkpt lat="43.64293" lon="3.79821">
        <ele>62</ele>
        <time>2021-03-06T15:07:48Z</time>
      </trkpt>
      <trkpt lat="43.6429" lon="3.79822">
        <ele>63</ele>
        <time>2021-03-06T15:07:49Z</time>
      </trkpt>
      <trkpt lat="43.64287" lon="3.79822">
        <ele>63</ele>
        <time>2021-03-06T15:07:50Z</time>
      </trkpt>
      <trkpt lat="43.64285" lon="3.79823">
        <ele>63</ele>
        <time>2021-03-06T15:07:51Z</time>
      </trkpt>
      <trkpt lat="43.64282" lon="3.79825">
        <ele>63</ele>
        <time>2021-03-06T15:07:52Z</time>
      </trkpt>
      <trkpt lat="43.64279" lon="3.79825">
        <ele>63</ele>
        <time>2021-03-06T15:07:53Z</time>
      </trkpt>
      <trkpt lat="43.64276" lon="3.79827">
        <ele>63</ele>
        <time>2021-03-06T15:07:54Z</time>
      </trkpt>
      <trkpt lat="43.64273" lon="3.79828">
        <ele>63</ele>
        <time>2021-03-06T15:07:55Z</time>
      </trkpt>
      <trkpt lat="43.6427" lon="3.7983">
        <ele>63</ele>
        <time>2021-03-06T15:07:56Z</time>
      </trkpt>
      <trkpt lat="43.64268" lon="3.79832">
        <ele>63</ele>
        <time>2021-03-06T15:07:57Z</time>
      </trkpt>
      <trkpt lat="43.64265" lon="3.79834">
        <ele>63</ele>
        <time>2021-03-06T15:07:58Z</time>
      </trkpt>
      <trkpt lat="43.64263" lon="3.79836">
        <ele>63</ele>
        <time>2021-03-06T15:07:59Z</time>
      </trkpt>
      <trkpt lat="43.6426" lon="3.79838">
        <ele>63</ele>
        <time>2021-03-06T15:08:00Z</time>
      </trkpt>
      <trkpt lat="43.64258" lon="3.7984">
        <ele>63</ele>
        <time>2021-03-06T15:08:01Z</time>
      </trkpt>
      <trkpt lat="43.64256" lon="3.79842">
        <ele>63</ele>
        <time>2021-03-06T15:08:02Z</time>
      </trkpt>
      <trkpt lat="43.64254" lon="3.79844">
        <ele>63</ele>
        <time>2021-03-06T15:08:03Z</time>
      </trkpt>
      <trkpt lat="43.64251" lon="3.79846">
        <ele>63</ele>
        <time>2021-03-06T15:08:04Z</time>
      </trkpt>
      <trkpt lat="43.64249" lon="3.79847">
        <ele>63</ele>
        <time>2021-03-06T15:08:05Z</time>
      </trkpt>
      <trkpt lat="43.64246" lon="3.79849">
        <ele>63</ele>
        <time>2021-03-06T15:08:06Z</time>
      </trkpt>
      <trkpt lat="43.64243" lon="3.79851">
        <ele>63</ele>
        <time>2021-03-06T15:08:07Z</time>
      </trkpt>
      <trkpt lat="43.6424" lon="3.79852">
        <ele>63</ele>
        <time>2021-03-06T15:08:08Z</time>
      </trkpt>
      <trkpt lat="43.64237" lon="3.79854">
        <ele>62</ele>
        <time>2021-03-06T15:08:09Z</time>
      </trkpt>
      <trkpt lat="43.64235" lon="3.79856">
        <ele>62</ele>
        <time>2021-03-06T15:08:10Z</time>
      </trkpt>
      <trkpt lat="43.64232" lon="3.79858">
        <ele>62</ele>
        <time>2021-03-06T15:08:11Z</time>
      </trkpt>
      <trkpt lat="43.6423" lon="3.7986">
        <ele>62</ele>
        <time>2021-03-06T15:08:12Z</time>
      </trkpt>
      <trkpt lat="43.64228" lon="3.79862">
        <ele>62</ele>
        <time>2021-03-06T15:08:13Z</time>
      </trkpt>
      <trkpt lat="43.64226" lon="3.79864">
        <ele>62</ele>
        <time>2021-03-06T15:08:14Z</time>
      </trkpt>
      <trkpt lat="43.64224" lon="3.79866">
        <ele>62</ele>
        <time>2021-03-06T15:08:15Z</time>
      </trkpt>
      <trkpt lat="43.64222" lon="3.79869">
        <ele>62</ele>
        <time>2021-03-06T15:08:16Z</time>
      </trkpt>
      <trkpt lat="43.64221" lon="3.79872">
        <ele>62</ele>
        <time>2021-03-06T15:08:17Z</time>
      </trkpt>
      <trkpt lat="43.64219" lon="3.79877">
        <ele>62</ele>
        <time>2021-03-06T15:08:18Z</time>
      </trkpt>
      <trkpt lat="43.64219" lon="3.79882">
        <ele>61</ele>
        <time>2021-03-06T15:08:19Z</time>
      </trkpt>
      <trkpt lat="43.64219" lon="3.79888">
        <ele>61</ele>
        <time>2021-03-06T15:08:20Z</time>
      </trkpt>
      <trkpt lat="43.64219" lon="3.79894">
        <ele>61</ele>
        <time>2021-03-06T15:08:21Z</time>
      </trkpt>
      <trkpt lat="43.64218" lon="3.79899">
        <ele>61</ele>
        <time>2021-03-06T15:08:22Z</time>
      </trkpt>
      <trkpt lat="43.64214" lon="3.79901">
        <ele>61</ele>
        <time>2021-03-06T15:08:23Z</time>
      </trkpt>
      <trkpt lat="43.6421" lon="3.79902">
        <ele>61</ele>
        <time>2021-03-06T15:08:24Z</time>
      </trkpt>
      <trkpt lat="43.64207" lon="3.79901">
        <ele>61</ele>
        <time>2021-03-06T15:08:25Z</time>
      </trkpt>
      <trkpt lat="43.64203" lon="3.799">
        <ele>61</ele>
        <time>2021-03-06T15:08:26Z</time>
      </trkpt>
      <trkpt lat="43.642" lon="3.799">
        <ele>61</ele>
        <time>2021-03-06T15:08:27Z</time>
      </trkpt>
      <trkpt lat="43.64196" lon="3.799">
        <ele>61</ele>
        <time>2021-03-06T15:08:28Z</time>
      </trkpt>
      <trkpt lat="43.64193" lon="3.79901">
        <ele>59</ele>
        <time>2021-03-06T15:08:29Z</time>
      </trkpt>
      <trkpt lat="43.64191" lon="3.79901">
        <ele>59</ele>
        <time>2021-03-06T15:08:30Z</time>
      </trkpt>
      <trkpt lat="43.64188" lon="3.79902">
        <ele>59</ele>
        <time>2021-03-06T15:08:31Z</time>
      </trkpt>
      <trkpt lat="43.64186" lon="3.79903">
        <ele>59</ele>
        <time>2021-03-06T15:08:32Z</time>
      </trkpt>
      <trkpt lat="43.64183" lon="3.79904">
        <ele>59</ele>
        <time>2021-03-06T15:08:33Z</time>
      </trkpt>
      <trkpt lat="43.64181" lon="3.79906">
        <ele>59</ele>
        <time>2021-03-06T15:08:34Z</time>
      </trkpt>
      <trkpt lat="43.64178" lon="3.79908">
        <ele>59</ele>
        <time>2021-03-06T15:08:35Z</time>
      </trkpt>
      <trkpt lat="43.64176" lon="3.7991">
        <ele>59</ele>
        <time>2021-03-06T15:08:36Z</time>
      </trkpt>
      <trkpt lat="43.64173" lon="3.79912">
        <ele>59</ele>
        <time>2021-03-06T15:08:37Z</time>
      </trkpt>
      <trkpt lat="43.64171" lon="3.79913">
        <ele>59</ele>
        <time>2021-03-06T15:08:38Z</time>
      </trkpt>
      <trkpt lat="43.64169" lon="3.79915">
        <ele>59</ele>
        <time>2021-03-06T15:08:39Z</time>
      </trkpt>
      <trkpt lat="43.64166" lon="3.79917">
        <ele>59</ele>
        <time>2021-03-06T15:08:40Z</time>
      </trkpt>
      <trkpt lat="43.64164" lon="3.79919">
        <ele>59</ele>
        <time>2021-03-06T15:08:41Z</time>
      </trkpt>
      <trkpt lat="43.64162" lon="3.7992">
        <ele>59</ele>
        <time>2021-03-06T15:08:42Z</time>
      </trkpt>
      <trkpt lat="43.6416" lon="3.79921">
        <ele>59</ele>
        <time>2021-03-06T15:08:43Z</time>
      </trkpt>
      <trkpt lat="43.64158" lon="3.79923">
        <ele>59</ele>
        <time>2021-03-06T15:08:44Z</time>
      </trkpt>
      <trkpt lat="43.64157" lon="3.79925">
        <ele>59</ele>
        <time>2021-03-06T15:08:45Z</time>
      </trkpt>
      <trkpt lat="43.64149" lon="3.79932">
        <ele>59</ele>
        <time>2021-03-06T15:08:48Z</time>
      </trkpt>
      <trkpt lat="43.6414" lon="3.7994">
        <ele>59</ele>
        <time>2021-03-06T15:08:52Z</time>
      </trkpt>
      <trkpt lat="43.64133" lon="3.79943">
        <ele>59</ele>
        <time>2021-03-06T15:08:54Z</time>
      </trkpt>
      <trkpt lat="43.6413" lon="3.79944">
        <ele>59</ele>
        <time>2021-03-06T15:08:55Z</time>
      </trkpt>
      <trkpt lat="43.64127" lon="3.79945">
        <ele>59</ele>
        <time>2021-03-06T15:08:56Z</time>
      </trkpt>
      <trkpt lat="43.64125" lon="3.79946">
        <ele>59</ele>
        <time>2021-03-06T15:08:57Z</time>
      </trkpt>
      <trkpt lat="43.64114" lon="3.79953">
        <ele>59</ele>
        <time>2021-03-06T15:09:01Z</time>
      </trkpt>
      <trkpt lat="43.64105" lon="3.79957">
        <ele>59</ele>
        <time>2021-03-06T15:09:04Z</time>
      </trkpt>
      <trkpt lat="43.64102" lon="3.79959">
        <ele>59</ele>
        <time>2021-03-06T15:09:05Z</time>
      </trkpt>
      <trkpt lat="43.64099" lon="3.79961">
        <ele>59</ele>
        <time>2021-03-06T15:09:06Z</time>
      </trkpt>
      <trkpt lat="43.64096" lon="3.79964">
        <ele>59</ele>
        <time>2021-03-06T15:09:07Z</time>
      </trkpt>
      <trkpt lat="43.64093" lon="3.79967">
        <ele>59</ele>
        <time>2021-03-06T15:09:08Z</time>
      </trkpt>
      <trkpt lat="43.6409" lon="3.79968">
        <ele>64</ele>
        <time>2021-03-06T15:09:09Z</time>
      </trkpt>
      <trkpt lat="43.64087" lon="3.7997">
        <ele>64</ele>
        <time>2021-03-06T15:09:10Z</time>
      </trkpt>
      <trkpt lat="43.64084" lon="3.79974">
        <ele>64</ele>
        <time>2021-03-06T15:09:11Z</time>
      </trkpt>
      <trkpt lat="43.64081" lon="3.79976">
        <ele>64</ele>
        <time>2021-03-06T15:09:12Z</time>
      </trkpt>
      <trkpt lat="43.64078" lon="3.79979">
        <ele>64</ele>
        <time>2021-03-06T15:09:13Z</time>
      </trkpt>
      <trkpt lat="43.64075" lon="3.79981">
        <ele>64</ele>
        <time>2021-03-06T15:09:14Z</time>
      </trkpt>
      <trkpt lat="43.64073" lon="3.79984">
        <ele>64</ele>
        <time>2021-03-06T15:09:15Z</time>
      </trkpt>
      <trkpt lat="43.6407" lon="3.79986">
        <ele>64</ele>
        <time>2021-03-06T15:09:16Z</time>
      </trkpt>
      <trkpt lat="43.64068" lon="3.79987">
        <ele>64</ele>
        <time>2021-03-06T15:09:17Z</time>
      </trkpt>
      <trkpt lat="43.64065" lon="3.79989">
        <ele>64</ele>
        <time>2021-03-06T15:09:18Z</time>
      </trkpt>
      <trkpt lat="43.64062" lon="3.7999">
        <ele>64</ele>
        <time>2021-03-06T15:09:19Z</time>
      </trkpt>
      <trkpt lat="43.6406" lon="3.79991">
        <ele>64</ele>
        <time>2021-03-06T15:09:20Z</time>
      </trkpt>
      <trkpt lat="43.64057" lon="3.79993">
        <ele>64</ele>
        <time>2021-03-06T15:09:21Z</time>
      </trkpt>
      <trkpt lat="43.64055" lon="3.79995">
        <ele>64</ele>
        <time>2021-03-06T15:09:22Z</time>
      </trkpt>
      <trkpt lat="43.64054" lon="3.79996">
        <ele>64</ele>
        <time>2021-03-06T15:09:23Z</time>
      </trkpt>
      <trkpt lat="43.64051" lon="3.79998">
        <ele>64</ele>
        <time>2021-03-06T15:09:24Z</time>
      </trkpt>
      <trkpt lat="43.64048" lon="3.79999">
        <ele>64</ele>
        <time>2021-03-06T15:09:25Z</time>
      </trkpt>
      <trkpt lat="43.64046" lon="3.8">
        <ele>64</ele>
        <time>2021-03-06T15:09:26Z</time>
      </trkpt>
      <trkpt lat="43.64043" lon="3.80002">
        <ele>64</ele>
        <time>2021-03-06T15:09:27Z</time>
      </trkpt>
      <trkpt lat="43.64041" lon="3.80004">
        <ele>64</ele>
        <time>2021-03-06T15:09:28Z</time>
      </trkpt>
      <trkpt lat="43.64039" lon="3.80006">
        <ele>63</ele>
        <time>2021-03-06T15:09:29Z</time>
      </trkpt>
      <trkpt lat="43.64037" lon="3.80008">
        <ele>63</ele>
        <time>2021-03-06T15:09:30Z</time>
      </trkpt>
      <trkpt lat="43.64035" lon="3.8001">
        <ele>63</ele>
        <time>2021-03-06T15:09:31Z</time>
      </trkpt>
      <trkpt lat="43.64033" lon="3.80013">
        <ele>63</ele>
        <time>2021-03-06T15:09:32Z</time>
      </trkpt>
      <trkpt lat="43.64031" lon="3.80015">
        <ele>63</ele>
        <time>2021-03-06T15:09:33Z</time>
      </trkpt>
      <trkpt lat="43.64029" lon="3.80017">
        <ele>63</ele>
        <time>2021-03-06T15:09:34Z</time>
      </trkpt>
      <trkpt lat="43.64027" lon="3.80019">
        <ele>63</ele>
        <time>2021-03-06T15:09:35Z</time>
      </trkpt>
      <trkpt lat="43.64025" lon="3.80021">
        <ele>63</ele>
        <time>2021-03-06T15:09:36Z</time>
      </trkpt>
      <trkpt lat="43.64023" lon="3.80024">
        <ele>63</ele>
        <time>2021-03-06T15:09:37Z</time>
      </trkpt>
      <trkpt lat="43.6402" lon="3.80027">
        <ele>63</ele>
        <time>2021-03-06T15:09:38Z</time>
      </trkpt>
      <trkpt lat="43.64017" lon="3.80029">
        <ele>62</ele>
        <time>2021-03-06T15:09:39Z</time>
      </trkpt>
      <trkpt lat="43.64015" lon="3.8003">
        <ele>62</ele>
        <time>2021-03-06T15:09:40Z</time>
      </trkpt>
      <trkpt lat="43.64013" lon="3.80032">
        <ele>62</ele>
        <time>2021-03-06T15:09:41Z</time>
      </trkpt>
      <trkpt lat="43.64011" lon="3.80034">
        <ele>62</ele>
        <time>2021-03-06T15:09:42Z</time>
      </trkpt>
      <trkpt lat="43.6401" lon="3.80035">
        <ele>62</ele>
        <time>2021-03-06T15:09:43Z</time>
      </trkpt>
      <trkpt lat="43.63999" lon="3.80041">
        <ele>62</ele>
        <time>2021-03-06T15:09:47Z</time>
      </trkpt>
      <trkpt lat="43.63996" lon="3.80043">
        <ele>62</ele>
        <time>2021-03-06T15:09:48Z</time>
      </trkpt>
      <trkpt lat="43.63993" lon="3.80046">
        <ele>61</ele>
        <time>2021-03-06T15:09:49Z</time>
      </trkpt>
      <trkpt lat="43.63989" lon="3.80049">
        <ele>61</ele>
        <time>2021-03-06T15:09:50Z</time>
      </trkpt>
      <trkpt lat="43.63987" lon="3.80052">
        <ele>61</ele>
        <time>2021-03-06T15:09:51Z</time>
      </trkpt>
      <trkpt lat="43.63984" lon="3.80056">
        <ele>61</ele>
        <time>2021-03-06T15:09:52Z</time>
      </trkpt>
      <trkpt lat="43.63981" lon="3.80058">
        <ele>61</ele>
        <time>2021-03-06T15:09:53Z</time>
      </trkpt>
      <trkpt lat="43.63978" lon="3.8006">
        <ele>61</ele>
        <time>2021-03-06T15:09:54Z</time>
      </trkpt>
      <trkpt lat="43.63974" lon="3.80061">
        <ele>61</ele>
        <time>2021-03-06T15:09:55Z</time>
      </trkpt>
      <trkpt lat="43.63971" lon="3.80063">
        <ele>61</ele>
        <time>2021-03-06T15:09:56Z</time>
      </trkpt>
      <trkpt lat="43.63968" lon="3.80065">
        <ele>61</ele>
        <time>2021-03-06T15:09:57Z</time>
      </trkpt>
      <trkpt lat="43.63965" lon="3.80067">
        <ele>61</ele>
        <time>2021-03-06T15:09:58Z</time>
      </trkpt>
      <trkpt lat="43.63962" lon="3.80068">
        <ele>60</ele>
        <time>2021-03-06T15:09:59Z</time>
      </trkpt>
      <trkpt lat="43.6396" lon="3.8007">
        <ele>60</ele>
        <time>2021-03-06T15:10:00Z</time>
      </trkpt>
      <trkpt lat="43.63957" lon="3.80072">
        <ele>60</ele>
        <time>2021-03-06T15:10:01Z</time>
      </trkpt>
      <trkpt lat="43.63955" lon="3.80073">
        <ele>60</ele>
        <time>2021-03-06T15:10:02Z</time>
      </trkpt>
      <trkpt lat="43.63952" lon="3.80074">
        <ele>60</ele>
        <time>2021-03-06T15:10:03Z</time>
      </trkpt>
      <trkpt lat="43.6395" lon="3.80076">
        <ele>60</ele>
        <time>2021-03-06T15:10:04Z</time>
      </trkpt>
      <trkpt lat="43.63947" lon="3.80077">
        <ele>60</ele>
        <time>2021-03-06T15:10:05Z</time>
      </trkpt>
      <trkpt lat="43.63944" lon="3.80078">
        <ele>60</ele>
        <time>2021-03-06T15:10:06Z</time>
      </trkpt>
      <trkpt lat="43.63942" lon="3.80079">
        <ele>60</ele>
        <time>2021-03-06T15:10:07Z</time>
      </trkpt>
      <trkpt lat="43.63939" lon="3.8008">
        <ele>60</ele>
        <time>2021-03-06T15:10:08Z</time>
      </trkpt>
      <trkpt lat="43.63937" lon="3.80081">
        <ele>59</ele>
        <time>2021-03-06T15:10:09Z</time>
      </trkpt>
      <trkpt lat="43.63934" lon="3.80083">
        <ele>59</ele>
        <time>2021-03-06T15:10:10Z</time>
      </trkpt>
      <trkpt lat="43.63931" lon="3.80085">
        <ele>59</ele>
        <time>2021-03-06T15:10:11Z</time>
      </trkpt>
      <trkpt lat="43.63928" lon="3.80087">
        <ele>59</ele>
        <time>2021-03-06T15:10:12Z</time>
      </trkpt>
      <trkpt lat="43.63926" lon="3.80089">
        <ele>59</ele>
        <time>2021-03-06T15:10:13Z</time>
      </trkpt>
      <trkpt lat="43.63923" lon="3.80091">
        <ele>59</ele>
        <time>2021-03-06T15:10:14Z</time>
      </trkpt>
      <trkpt lat="43.63912" lon="3.80096">
        <ele>59</ele>
        <time>2021-03-06T15:10:17Z</time>
      </trkpt>
      <trkpt lat="43.63902" lon="3.80099">
        <ele>59</ele>
        <time>2021-03-06T15:10:19Z</time>
      </trkpt>
      <trkpt lat="43.63892" lon="3.801">
        <ele>59</ele>
        <time>2021-03-06T15:10:22Z</time>
      </trkpt>
      <trkpt lat="43.63886" lon="3.80101">
        <ele>59</ele>
        <time>2021-03-06T15:10:25Z</time>
      </trkpt>
      <trkpt lat="43.63883" lon="3.80105">
        <ele>59</ele>
        <time>2021-03-06T15:10:27Z</time>
      </trkpt>
      <trkpt lat="43.63879" lon="3.80107">
        <ele>59</ele>
        <time>2021-03-06T15:10:28Z</time>
      </trkpt>
      <trkpt lat="43.63876" lon="3.80108">
        <ele>59</ele>
        <time>2021-03-06T15:10:30Z</time>
      </trkpt>
      <trkpt lat="43.63874" lon="3.80109">
        <ele>59</ele>
        <time>2021-03-06T15:10:31Z</time>
      </trkpt>
      <trkpt lat="43.63869" lon="3.80112">
        <ele>59</ele>
        <time>2021-03-06T15:10:33Z</time>
      </trkpt>
      <trkpt lat="43.63868" lon="3.80114">
        <ele>59</ele>
        <time>2021-03-06T15:10:34Z</time>
      </trkpt>
      <trkpt lat="43.63867" lon="3.80117">
        <ele>59</ele>
        <time>2021-03-06T15:10:35Z</time>
      </trkpt>
      <trkpt lat="43.63865" lon="3.8012">
        <ele>59</ele>
        <time>2021-03-06T15:10:36Z</time>
      </trkpt>
      <trkpt lat="43.63864" lon="3.80122">
        <ele>59</ele>
        <time>2021-03-06T15:10:37Z</time>
      </trkpt>
      <trkpt lat="43.63863" lon="3.80124">
        <ele>59</ele>
        <time>2021-03-06T15:10:38Z</time>
      </trkpt>
      <trkpt lat="43.63859" lon="3.80129">
        <ele>59</ele>
        <time>2021-03-06T15:10:39Z</time>
      </trkpt>
      <trkpt lat="43.63858" lon="3.80131">
        <ele>59</ele>
        <time>2021-03-06T15:10:40Z</time>
      </trkpt>
      <trkpt lat="43.63856" lon="3.80133">
        <ele>59</ele>
        <time>2021-03-06T15:10:41Z</time>
      </trkpt>
      <trkpt lat="43.63854" lon="3.80135">
        <ele>59</ele>
        <time>2021-03-06T15:10:42Z</time>
      </trkpt>
      <trkpt lat="43.6385" lon="3.80137">
        <ele>59</ele>
        <time>2021-03-06T15:10:44Z</time>
      </trkpt>
      <trkpt lat="43.63848" lon="3.80139">
        <ele>59</ele>
        <time>2021-03-06T15:10:45Z</time>
      </trkpt>
      <trkpt lat="43.63845" lon="3.8014">
        <ele>59</ele>
        <time>2021-03-06T15:10:46Z</time>
      </trkpt>
      <trkpt lat="43.63843" lon="3.80142">
        <ele>59</ele>
        <time>2021-03-06T15:10:47Z</time>
      </trkpt>
      <trkpt lat="43.6384" lon="3.80143">
        <ele>59</ele>
        <time>2021-03-06T15:10:48Z</time>
      </trkpt>
      <trkpt lat="43.63838" lon="3.80145">
        <ele>59</ele>
        <time>2021-03-06T15:10:50Z</time>
      </trkpt>
      <trkpt lat="43.63835" lon="3.80147">
        <ele>59</ele>
        <time>2021-03-06T15:10:51Z</time>
      </trkpt>
      <trkpt lat="43.63833" lon="3.8015">
        <ele>59</ele>
        <time>2021-03-06T15:10:52Z</time>
      </trkpt>
      <trkpt lat="43.63831" lon="3.80152">
        <ele>59</ele>
        <time>2021-03-06T15:10:53Z</time>
      </trkpt>
      <trkpt lat="43.63829" lon="3.80153">
        <ele>59</ele>
        <time>2021-03-06T15:10:54Z</time>
      </trkpt>
      <trkpt lat="43.63827" lon="3.80155">
        <ele>59</ele>
        <time>2021-03-06T15:10:55Z</time>
      </trkpt>
      <trkpt lat="43.63824" lon="3.80157">
        <ele>59</ele>
        <time>2021-03-06T15:10:56Z</time>
      </trkpt>
      <trkpt lat="43.63822" lon="3.80159">
        <ele>59</ele>
        <time>2021-03-06T15:10:57Z</time>
      </trkpt>
      <trkpt lat="43.63819" lon="3.80161">
        <ele>59</ele>
        <time>2021-03-06T15:10:58Z</time>
      </trkpt>
      <trkpt lat="43.63817" lon="3.80163">
        <ele>57</ele>
        <time>2021-03-06T15:10:59Z</time>
      </trkpt>
      <trkpt lat="43.63815" lon="3.80165">
        <ele>57</ele>
        <time>2021-03-06T15:11:00Z</time>
      </trkpt>
      <trkpt lat="43.63813" lon="3.80167">
        <ele>57</ele>
        <time>2021-03-06T15:11:01Z</time>
      </trkpt>
      <trkpt lat="43.63811" lon="3.80169">
        <ele>57</ele>
        <time>2021-03-06T15:11:02Z</time>
      </trkpt>
      <trkpt lat="43.63808" lon="3.80172">
        <ele>57</ele>
        <time>2021-03-06T15:11:03Z</time>
      </trkpt>
      <trkpt lat="43.63806" lon="3.80174">
        <ele>57</ele>
        <time>2021-03-06T15:11:04Z</time>
      </trkpt>
      <trkpt lat="43.63805" lon="3.80177">
        <ele>57</ele>
        <time>2021-03-06T15:11:05Z</time>
      </trkpt>
      <trkpt lat="43.63803" lon="3.80179">
        <ele>57</ele>
        <time>2021-03-06T15:11:06Z</time>
      </trkpt>
      <trkpt lat="43.63801" lon="3.80181">
        <ele>57</ele>
        <time>2021-03-06T15:11:07Z</time>
      </trkpt>
      <trkpt lat="43.638" lon="3.80182">
        <ele>57</ele>
        <time>2021-03-06T15:11:08Z</time>
      </trkpt>
      <trkpt lat="43.63797" lon="3.80184">
        <ele>57</ele>
        <time>2021-03-06T15:11:11Z</time>
      </trkpt>
      <trkpt lat="43.63794" lon="3.80182">
        <ele>57</ele>
        <time>2021-03-06T15:11:13Z</time>
      </trkpt>
      <trkpt lat="43.63792" lon="3.80181">
        <ele>57</ele>
        <time>2021-03-06T15:11:14Z</time>
      </trkpt>
      <trkpt lat="43.63789" lon="3.8018">
        <ele>57</ele>
        <time>2021-03-06T15:11:15Z</time>
      </trkpt>
      <trkpt lat="43.63785" lon="3.80179">
        <ele>57</ele>
        <time>2021-03-06T15:11:16Z</time>
      </trkpt>
      <trkpt lat="43.63781" lon="3.80177">
        <ele>57</ele>
        <time>2021-03-06T15:11:17Z</time>
      </trkpt>
      <trkpt lat="43.63778" lon="3.80175">
        <ele>57</ele>
        <time>2021-03-06T15:11:18Z</time>
      </trkpt>
      <trkpt lat="43.63775" lon="3.80174">
        <ele>53</ele>
        <time>2021-03-06T15:11:19Z</time>
      </trkpt>
      <trkpt lat="43.63773" lon="3.80175">
        <ele>53</ele>
        <time>2021-03-06T15:11:21Z</time>
      </trkpt>
      <trkpt lat="43.63772" lon="3.80179">
        <ele>53</ele>
        <time>2021-03-06T15:11:23Z</time>
      </trkpt>
      <trkpt lat="43.63771" lon="3.80181">
        <ele>53</ele>
        <time>2021-03-06T15:11:25Z</time>
      </trkpt>
      <trkpt lat="43.63771" lon="3.80182">
        <ele>54</ele>
        <time>2021-03-06T15:11:30Z</time>
      </trkpt>
      <trkpt lat="43.63771" lon="3.8018">
        <ele>52</ele>
        <time>2021-03-06T15:11:57Z</time>
      </trkpt>
      <trkpt lat="43.6377" lon="3.80183">
        <ele>52</ele>
        <time>2021-03-06T15:11:58Z</time>
      </trkpt>
      <trkpt lat="43.63769" lon="3.80185">
        <ele>52</ele>
        <time>2021-03-06T15:11:59Z</time>
      </trkpt>
      <trkpt lat="43.63768" lon="3.80189">
        <ele>52</ele>
        <time>2021-03-06T15:12:00Z</time>
      </trkpt>
      <trkpt lat="43.63767" lon="3.80191">
        <ele>52</ele>
        <time>2021-03-06T15:12:01Z</time>
      </trkpt>
      <trkpt lat="43.63767" lon="3.80194">
        <ele>52</ele>
        <time>2021-03-06T15:12:02Z</time>
      </trkpt>
      <trkpt lat="43.63766" lon="3.80198">
        <ele>52</ele>
        <time>2021-03-06T15:12:03Z</time>
      </trkpt>
      <trkpt lat="43.63767" lon="3.80203">
        <ele>52</ele>
        <time>2021-03-06T15:12:04Z</time>
      </trkpt>
      <trkpt lat="43.63768" lon="3.80212">
        <ele>52</ele>
        <time>2021-03-06T15:12:06Z</time>
      </trkpt>
      <trkpt lat="43.63769" lon="3.80217">
        <ele>52</ele>
        <time>2021-03-06T15:12:07Z</time>
      </trkpt>
      <trkpt lat="43.6377" lon="3.80223">
        <ele>52</ele>
        <time>2021-03-06T15:12:08Z</time>
      </trkpt>
      <trkpt lat="43.63771" lon="3.80228">
        <ele>52</ele>
        <time>2021-03-06T15:12:09Z</time>
      </trkpt>
      <trkpt lat="43.63772" lon="3.80233">
        <ele>52</ele>
        <time>2021-03-06T15:12:10Z</time>
      </trkpt>
      <trkpt lat="43.63773" lon="3.80239">
        <ele>52</ele>
        <time>2021-03-06T15:12:11Z</time>
      </trkpt>
      <trkpt lat="43.63773" lon="3.80245">
        <ele>52</ele>
        <time>2021-03-06T15:12:12Z</time>
      </trkpt>
      <trkpt lat="43.63773" lon="3.8025">
        <ele>52</ele>
        <time>2021-03-06T15:12:13Z</time>
      </trkpt>
      <trkpt lat="43.63774" lon="3.80256">
        <ele>52</ele>
        <time>2021-03-06T15:12:14Z</time>
      </trkpt>
      <trkpt lat="43.63775" lon="3.80272">
        <ele>52</ele>
        <time>2021-03-06T15:12:17Z</time>
      </trkpt>
      <trkpt lat="43.63775" lon="3.80276">
        <ele>52</ele>
        <time>2021-03-06T15:12:18Z</time>
      </trkpt>
      <trkpt lat="43.63776" lon="3.80281">
        <ele>52</ele>
        <time>2021-03-06T15:12:19Z</time>
      </trkpt>
      <trkpt lat="43.63776" lon="3.80287">
        <ele>52</ele>
        <time>2021-03-06T15:12:20Z</time>
      </trkpt>
      <trkpt lat="43.63777" lon="3.80293">
        <ele>52</ele>
        <time>2021-03-06T15:12:21Z</time>
      </trkpt>
      <trkpt lat="43.63779" lon="3.80298">
        <ele>52</ele>
        <time>2021-03-06T15:12:22Z</time>
      </trkpt>
      <trkpt lat="43.6378" lon="3.80303">
        <ele>52</ele>
        <time>2021-03-06T15:12:23Z</time>
      </trkpt>
      <trkpt lat="43.63782" lon="3.80308">
        <ele>52</ele>
        <time>2021-03-06T15:12:24Z</time>
      </trkpt>
      <trkpt lat="43.63784" lon="3.80312">
        <ele>52</ele>
        <time>2021-03-06T15:12:25Z</time>
      </trkpt>
      <trkpt lat="43.63785" lon="3.80317">
        <ele>52</ele>
        <time>2021-03-06T15:12:26Z</time>
      </trkpt>
      <trkpt lat="43.63786" lon="3.80321">
        <ele>53</ele>
        <time>2021-03-06T15:12:27Z</time>
      </trkpt>
      <trkpt lat="43.63792" lon="3.80335">
        <ele>53</ele>
        <time>2021-03-06T15:12:30Z</time>
      </trkpt>
      <trkpt lat="43.638" lon="3.80349">
        <ele>53</ele>
        <time>2021-03-06T15:12:33Z</time>
      </trkpt>
      <trkpt lat="43.63804" lon="3.80361">
        <ele>53</ele>
        <time>2021-03-06T15:12:35Z</time>
      </trkpt>
      <trkpt lat="43.63808" lon="3.80373">
        <ele>53</ele>
        <time>2021-03-06T15:12:37Z</time>
      </trkpt>
      <trkpt lat="43.63811" lon="3.80385">
        <ele>53</ele>
        <time>2021-03-06T15:12:39Z</time>
      </trkpt>
      <trkpt lat="43.63816" lon="3.80396">
        <ele>53</ele>
        <time>2021-03-06T15:12:41Z</time>
      </trkpt>
      <trkpt lat="43.63818" lon="3.804">
        <ele>53</ele>
        <time>2021-03-06T15:12:42Z</time>
      </trkpt>
      <trkpt lat="43.63821" lon="3.80402">
        <ele>53</ele>
        <time>2021-03-06T15:12:43Z</time>
      </trkpt>
      <trkpt lat="43.63831" lon="3.804">
        <ele>53</ele>
        <time>2021-03-06T15:12:47Z</time>
      </trkpt>
      <trkpt lat="43.63837" lon="3.80399">
        <ele>53</ele>
        <time>2021-03-06T15:12:50Z</time>
      </trkpt>
      <trkpt lat="43.63839" lon="3.80401">
        <ele>53</ele>
        <time>2021-03-06T15:12:51Z</time>
      </trkpt>
      <trkpt lat="43.63841" lon="3.80403">
        <ele>53</ele>
        <time>2021-03-06T15:12:52Z</time>
      </trkpt>
      <trkpt lat="43.63844" lon="3.80406">
        <ele>53</ele>
        <time>2021-03-06T15:12:53Z</time>
      </trkpt>
      <trkpt lat="43.63846" lon="3.80411">
        <ele>53</ele>
        <time>2021-03-06T15:12:54Z</time>
      </trkpt>
      <trkpt lat="43.63848" lon="3.80415">
        <ele>53</ele>
        <time>2021-03-06T15:12:55Z</time>
      </trkpt>
      <trkpt lat="43.6385" lon="3.8042">
        <ele>53</ele>
        <time>2021-03-06T15:12:56Z</time>
      </trkpt>
      <trkpt lat="43.63853" lon="3.80424">
        <ele>53</ele>
        <time>2021-03-06T15:12:57Z</time>
      </trkpt>
      <trkpt lat="43.63856" lon="3.80428">
        <ele>53</ele>
        <time>2021-03-06T15:12:58Z</time>
      </trkpt>
      <trkpt lat="43.63858" lon="3.80432">
        <ele>53</ele>
        <time>2021-03-06T15:12:59Z</time>
      </trkpt>
      <trkpt lat="43.63861" lon="3.80437">
        <ele>53</ele>
        <time>2021-03-06T15:13:00Z</time>
      </trkpt>
      <trkpt lat="43.63864" lon="3.80441">
        <ele>53</ele>
        <time>2021-03-06T15:13:01Z</time>
      </trkpt>
      <trkpt lat="43.63867" lon="3.80445">
        <ele>53</ele>
        <time>2021-03-06T15:13:02Z</time>
      </trkpt>
      <trkpt lat="43.6387" lon="3.80449">
        <ele>53</ele>
        <time>2021-03-06T15:13:03Z</time>
      </trkpt>
      <trkpt lat="43.63873" lon="3.80453">
        <ele>53</ele>
        <time>2021-03-06T15:13:04Z</time>
      </trkpt>
      <trkpt lat="43.63876" lon="3.80457">
        <ele>53</ele>
        <time>2021-03-06T15:13:05Z</time>
      </trkpt>
      <trkpt lat="43.63878" lon="3.80462">
        <ele>53</ele>
        <time>2021-03-06T15:13:06Z</time>
      </trkpt>
      <trkpt lat="43.6388" lon="3.80467">
        <ele>54</ele>
        <time>2021-03-06T15:13:07Z</time>
      </trkpt>
      <trkpt lat="43.63882" lon="3.80471">
        <ele>54</ele>
        <time>2021-03-06T15:13:08Z</time>
      </trkpt>
      <trkpt lat="43.63884" lon="3.80474">
        <ele>54</ele>
        <time>2021-03-06T15:13:09Z</time>
      </trkpt>
      <trkpt lat="43.63886" lon="3.80477">
        <ele>54</ele>
        <time>2021-03-06T15:13:10Z</time>
      </trkpt>
      <trkpt lat="43.63888" lon="3.80479">
        <ele>54</ele>
        <time>2021-03-06T15:13:11Z</time>
      </trkpt>
      <trkpt lat="43.63889" lon="3.80481">
        <ele>54</ele>
        <time>2021-03-06T15:13:12Z</time>
      </trkpt>
      <trkpt lat="43.6389" lon="3.80483">
        <ele>54</ele>
        <time>2021-03-06T15:13:13Z</time>
      </trkpt>
      <trkpt lat="43.63893" lon="3.80485">
        <ele>54</ele>
        <time>2021-03-06T15:13:15Z</time>
      </trkpt>
      <trkpt lat="43.63893" lon="3.80485">
        <ele>55</ele>
        <time>2021-03-06T15:13:20Z</time>
      </trkpt>
      <trkpt lat="43.63898" lon="3.80483">
        <ele>56</ele>
        <time>2021-03-06T15:13:51Z</time>
      </trkpt>
      <trkpt lat="43.639" lon="3.80483">
        <ele>56</ele>
        <time>2021-03-06T15:13:52Z</time>
      </trkpt>
      <trkpt lat="43.63901" lon="3.80482">
        <ele>56</ele>
        <time>2021-03-06T15:13:54Z</time>
      </trkpt>
      <trkpt lat="43.63904" lon="3.80481">
        <ele>56</ele>
        <time>2021-03-06T15:13:57Z</time>
      </trkpt>
      <trkpt lat="43.63905" lon="3.80484">
        <ele>56</ele>
        <time>2021-03-06T15:13:59Z</time>
      </trkpt>
      <trkpt lat="43.63905" lon="3.80487">
        <ele>56</ele>
        <time>2021-03-06T15:14:00Z</time>
      </trkpt>
      <trkpt lat="43.63905" lon="3.8049">
        <ele>57</ele>
        <time>2021-03-06T15:14:01Z</time>
      </trkpt>
      <trkpt lat="43.63906" lon="3.80493">
        <ele>57</ele>
        <time>2021-03-06T15:14:02Z</time>
      </trkpt>
      <trkpt lat="43.63907" lon="3.80495">
        <ele>57</ele>
        <time>2021-03-06T15:14:03Z</time>
      </trkpt>
      <trkpt lat="43.63908" lon="3.80498">
        <ele>57</ele>
        <time>2021-03-06T15:14:05Z</time>
      </trkpt>
      <trkpt lat="43.63909" lon="3.80502">
        <ele>57</ele>
        <time>2021-03-06T15:14:07Z</time>
      </trkpt>
      <trkpt lat="43.63909" lon="3.80505">
        <ele>57</ele>
        <time>2021-03-06T15:14:08Z</time>
      </trkpt>
      <trkpt lat="43.63908" lon="3.80508">
        <ele>57</ele>
        <time>2021-03-06T15:14:09Z</time>
      </trkpt>
      <trkpt lat="43.63908" lon="3.80511">
        <ele>57</ele>
        <time>2021-03-06T15:14:10Z</time>
      </trkpt>
      <trkpt lat="43.63907" lon="3.80519">
        <ele>56</ele>
        <time>2021-03-06T15:14:11Z</time>
      </trkpt>
      <trkpt lat="43.63907" lon="3.80523">
        <ele>56</ele>
        <time>2021-03-06T15:14:12Z</time>
      </trkpt>
      <trkpt lat="43.63908" lon="3.80527">
        <ele>56</ele>
        <time>2021-03-06T15:14:13Z</time>
      </trkpt>
      <trkpt lat="43.63908" lon="3.80535">
        <ele>56</ele>
        <time>2021-03-06T15:14:15Z</time>
      </trkpt>
      <trkpt lat="43.63907" lon="3.80539">
        <ele>56</ele>
        <time>2021-03-06T15:14:16Z</time>
      </trkpt>
      <trkpt lat="43.63906" lon="3.80544">
        <ele>56</ele>
        <time>2021-03-06T15:14:17Z</time>
      </trkpt>
      <trkpt lat="43.63906" lon="3.80548">
        <ele>56</ele>
        <time>2021-03-06T15:14:18Z</time>
      </trkpt>
      <trkpt lat="43.63906" lon="3.80552">
        <ele>56</ele>
        <time>2021-03-06T15:14:19Z</time>
      </trkpt>
      <trkpt lat="43.63906" lon="3.80556">
        <ele>56</ele>
        <time>2021-03-06T15:14:20Z</time>
      </trkpt>
      <trkpt lat="43.63906" lon="3.80561">
        <ele>56</ele>
        <time>2021-03-06T15:14:22Z</time>
      </trkpt>
      <trkpt lat="43.63906" lon="3.80566">
        <ele>56</ele>
        <time>2021-03-06T15:14:23Z</time>
      </trkpt>
      <trkpt lat="43.63907" lon="3.80572">
        <ele>56</ele>
        <time>2021-03-06T15:14:24Z</time>
      </trkpt>
      <trkpt lat="43.63907" lon="3.80578">
        <ele>56</ele>
        <time>2021-03-06T15:14:25Z</time>
      </trkpt>
      <trkpt lat="43.63907" lon="3.80585">
        <ele>56</ele>
        <time>2021-03-06T15:14:26Z</time>
      </trkpt>
      <trkpt lat="43.63907" lon="3.80591">
        <ele>56</ele>
        <time>2021-03-06T15:14:27Z</time>
      </trkpt>
      <trkpt lat="43.63908" lon="3.80598">
        <ele>56</ele>
        <time>2021-03-06T15:14:28Z</time>
      </trkpt>
      <trkpt lat="43.63908" lon="3.80604">
        <ele>56</ele>
        <time>2021-03-06T15:14:29Z</time>
      </trkpt>
      <trkpt lat="43.63908" lon="3.8061">
        <ele>56</ele>
        <time>2021-03-06T15:14:30Z</time>
      </trkpt>
      <trkpt lat="43.63908" lon="3.80616">
        <ele>55</ele>
        <time>2021-03-06T15:14:31Z</time>
      </trkpt>
      <trkpt lat="43.63908" lon="3.80623">
        <ele>55</ele>
        <time>2021-03-06T15:14:32Z</time>
      </trkpt>
      <trkpt lat="43.63908" lon="3.80629">
        <ele>55</ele>
        <time>2021-03-06T15:14:33Z</time>
      </trkpt>
      <trkpt lat="43.63909" lon="3.80635">
        <ele>55</ele>
        <time>2021-03-06T15:14:34Z</time>
      </trkpt>
      <trkpt lat="43.63909" lon="3.80641">
        <ele>55</ele>
        <time>2021-03-06T15:14:35Z</time>
      </trkpt>
      <trkpt lat="43.63908" lon="3.80647">
        <ele>55</ele>
        <time>2021-03-06T15:14:36Z</time>
      </trkpt>
      <trkpt lat="43.63908" lon="3.80653">
        <ele>55</ele>
        <time>2021-03-06T15:14:37Z</time>
      </trkpt>
      <trkpt lat="43.63907" lon="3.80659">
        <ele>55</ele>
        <time>2021-03-06T15:14:38Z</time>
      </trkpt>
      <trkpt lat="43.63906" lon="3.80664">
        <ele>55</ele>
        <time>2021-03-06T15:14:39Z</time>
      </trkpt>
      <trkpt lat="43.63905" lon="3.8067">
        <ele>55</ele>
        <time>2021-03-06T15:14:40Z</time>
      </trkpt>
      <trkpt lat="43.63904" lon="3.80675">
        <ele>55</ele>
        <time>2021-03-06T15:14:41Z</time>
      </trkpt>
      <trkpt lat="43.63903" lon="3.80679">
        <ele>55</ele>
        <time>2021-03-06T15:14:42Z</time>
      </trkpt>
      <trkpt lat="43.63903" lon="3.80684">
        <ele>55</ele>
        <time>2021-03-06T15:14:43Z</time>
      </trkpt>
      <trkpt lat="43.63902" lon="3.80689">
        <ele>55</ele>
        <time>2021-03-06T15:14:44Z</time>
      </trkpt>
      <trkpt lat="43.63902" lon="3.80694">
        <ele>55</ele>
        <time>2021-03-06T15:14:45Z</time>
      </trkpt>
      <trkpt lat="43.63902" lon="3.80698">
        <ele>55</ele>
        <time>2021-03-06T15:14:46Z</time>
      </trkpt>
      <trkpt lat="43.63902" lon="3.80703">
        <ele>55</ele>
        <time>2021-03-06T15:14:47Z</time>
      </trkpt>
      <trkpt lat="43.63901" lon="3.80707">
        <ele>55</ele>
        <time>2021-03-06T15:14:48Z</time>
      </trkpt>
      <trkpt lat="43.639" lon="3.8071">
        <ele>55</ele>
        <time>2021-03-06T15:14:49Z</time>
      </trkpt>
      <trkpt lat="43.63898" lon="3.80714">
        <ele>55</ele>
        <time>2021-03-06T15:14:51Z</time>
      </trkpt>
      <trkpt lat="43.63895" lon="3.80717">
        <ele>55</ele>
        <time>2021-03-06T15:14:53Z</time>
      </trkpt>
      <trkpt lat="43.63894" lon="3.80719">
        <ele>55</ele>
        <time>2021-03-06T15:14:54Z</time>
      </trkpt>
      <trkpt lat="43.63892" lon="3.80721">
        <ele>55</ele>
        <time>2021-03-06T15:14:55Z</time>
      </trkpt>
      <trkpt lat="43.63891" lon="3.80722">
        <ele>55</ele>
        <time>2021-03-06T15:14:56Z</time>
      </trkpt>
      <trkpt lat="43.63889" lon="3.80723">
        <ele>55</ele>
        <time>2021-03-06T15:14:57Z</time>
      </trkpt>
      <trkpt lat="43.63886" lon="3.80722">
        <ele>55</ele>
        <time>2021-03-06T15:14:58Z</time>
      </trkpt>
      <trkpt lat="43.63884" lon="3.80723">
        <ele>55</ele>
        <time>2021-03-06T15:15:05Z</time>
      </trkpt>
      <trkpt lat="43.63883" lon="3.80725">
        <ele>55</ele>
        <time>2021-03-06T15:15:08Z</time>
      </trkpt>
      <trkpt lat="43.63881" lon="3.80724">
        <ele>55</ele>
        <time>2021-03-06T15:15:10Z</time>
      </trkpt>
      <trkpt lat="43.6388" lon="3.80721">
        <ele>55</ele>
        <time>2021-03-06T15:15:13Z</time>
      </trkpt>
      <trkpt lat="43.63878" lon="3.80723">
        <ele>55</ele>
        <time>2021-03-06T15:15:18Z</time>
      </trkpt>
      <trkpt lat="43.63876" lon="3.80727">
        <ele>55</ele>
        <time>2021-03-06T15:15:20Z</time>
      </trkpt>
      <trkpt lat="43.63874" lon="3.80729">
        <ele>55</ele>
        <time>2021-03-06T15:15:25Z</time>
      </trkpt>
      <trkpt lat="43.63874" lon="3.80729">
        <ele>59</ele>
        <time>2021-03-06T15:15:27Z</time>
      </trkpt>
      <trkpt lat="43.63871" lon="3.80731">
        <ele>59</ele>
        <time>2021-03-06T15:15:29Z</time>
      </trkpt>
      <trkpt lat="43.6387" lon="3.80729">
        <ele>59</ele>
        <time>2021-03-06T15:15:33Z</time>
      </trkpt>
      <trkpt lat="43.63869" lon="3.80728">
        <ele>59</ele>
        <time>2021-03-06T15:15:38Z</time>
      </trkpt>
      <trkpt lat="43.63866" lon="3.80731">
        <ele>60</ele>
        <time>2021-03-06T15:15:43Z</time>
      </trkpt>
      <trkpt lat="43.63864" lon="3.80732">
        <ele>60</ele>
        <time>2021-03-06T15:15:47Z</time>
      </trkpt>
      <trkpt lat="43.63862" lon="3.80734">
        <ele>60</ele>
        <time>2021-03-06T15:15:49Z</time>
      </trkpt>
      <trkpt lat="43.6386" lon="3.80739">
        <ele>60</ele>
        <time>2021-03-06T15:15:52Z</time>
      </trkpt>
      <trkpt lat="43.6386" lon="3.80743">
        <ele>60</ele>
        <time>2021-03-06T15:15:54Z</time>
      </trkpt>
      <trkpt lat="43.6386" lon="3.80749">
        <ele>60</ele>
        <time>2021-03-06T15:15:56Z</time>
      </trkpt>
      <trkpt lat="43.6386" lon="3.80752">
        <ele>60</ele>
        <time>2021-03-06T15:15:57Z</time>
      </trkpt>
      <trkpt lat="43.63859" lon="3.80755">
        <ele>60</ele>
        <time>2021-03-06T15:15:58Z</time>
      </trkpt>
      <trkpt lat="43.63858" lon="3.80758">
        <ele>60</ele>
        <time>2021-03-06T15:15:59Z</time>
      </trkpt>
      <trkpt lat="43.63857" lon="3.8076">
        <ele>60</ele>
        <time>2021-03-06T15:16:00Z</time>
      </trkpt>
      <trkpt lat="43.63854" lon="3.80763">
        <ele>60</ele>
        <time>2021-03-06T15:16:02Z</time>
      </trkpt>
      <trkpt lat="43.63853" lon="3.80767">
        <ele>60</ele>
        <time>2021-03-06T15:16:04Z</time>
      </trkpt>
      <trkpt lat="43.63853" lon="3.80769">
        <ele>60</ele>
        <time>2021-03-06T15:16:05Z</time>
      </trkpt>
      <trkpt lat="43.63851" lon="3.80775">
        <ele>60</ele>
        <time>2021-03-06T15:16:07Z</time>
      </trkpt>
      <trkpt lat="43.6385" lon="3.80777">
        <ele>60</ele>
        <time>2021-03-06T15:16:08Z</time>
      </trkpt>
      <trkpt lat="43.63848" lon="3.80779">
        <ele>60</ele>
        <time>2021-03-06T15:16:09Z</time>
      </trkpt>
      <trkpt lat="43.63846" lon="3.80783">
        <ele>60</ele>
        <time>2021-03-06T15:16:11Z</time>
      </trkpt>
      <trkpt lat="43.63844" lon="3.80787">
        <ele>59</ele>
        <time>2021-03-06T15:16:13Z</time>
      </trkpt>
      <trkpt lat="43.63843" lon="3.8079">
        <ele>59</ele>
        <time>2021-03-06T15:16:14Z</time>
      </trkpt>
      <trkpt lat="43.63841" lon="3.80792">
        <ele>59</ele>
        <time>2021-03-06T15:16:15Z</time>
      </trkpt>
      <trkpt lat="43.63836" lon="3.80804">
        <ele>59</ele>
        <time>2021-03-06T15:16:21Z</time>
      </trkpt>
      <trkpt lat="43.63831" lon="3.80817">
        <ele>59</ele>
        <time>2021-03-06T15:16:37Z</time>
      </trkpt>
      <trkpt lat="43.63834" lon="3.80813">
        <ele>59</ele>
        <time>2021-03-06T15:16:50Z</time>
      </trkpt>
      <trkpt lat="43.63834" lon="3.80812">
        <ele>59</ele>
        <time>2021-03-06T15:16:53Z</time>
      </trkpt>
      <trkpt lat="43.63828" lon="3.80809">
        <ele>57</ele>
        <time>2021-03-06T15:17:19Z</time>
      </trkpt>
      <trkpt lat="43.63828" lon="3.80809">
        <ele>57</ele>
        <time>2021-03-06T15:17:23Z</time>
      </trkpt>
      <trkpt lat="43.63827" lon="3.80817">
        <ele>58</ele>
        <time>2021-03-06T15:18:17Z</time>
      </trkpt>
      <trkpt lat="43.63828" lon="3.80821">
        <ele>58</ele>
        <time>2021-03-06T15:18:20Z</time>
      </trkpt>
      <trkpt lat="43.63826" lon="3.80824">
        <ele>58</ele>
        <time>2021-03-06T15:18:22Z</time>
      </trkpt>
      <trkpt lat="43.63823" lon="3.80825">
        <ele>58</ele>
        <time>2021-03-06T15:18:25Z</time>
      </trkpt>
      <trkpt lat="43.63821" lon="3.80827">
        <ele>58</ele>
        <time>2021-03-06T15:18:28Z</time>
      </trkpt>
      <trkpt lat="43.63821" lon="3.8083">
        <ele>58</ele>
        <time>2021-03-06T15:18:32Z</time>
      </trkpt>
      <trkpt lat="43.63819" lon="3.80829">
        <ele>59</ele>
        <time>2021-03-06T15:18:37Z</time>
      </trkpt>
      <trkpt lat="43.63814" lon="3.80832">
        <ele>59</ele>
        <time>2021-03-06T15:18:39Z</time>
      </trkpt>
      <trkpt lat="43.63813" lon="3.80833">
        <ele>59</ele>
        <time>2021-03-06T15:18:40Z</time>
      </trkpt>
      <trkpt lat="43.63804" lon="3.80837">
        <ele>59</ele>
        <time>2021-03-06T15:18:45Z</time>
      </trkpt>
      <trkpt lat="43.63802" lon="3.80837">
        <ele>59</ele>
        <time>2021-03-06T15:18:46Z</time>
      </trkpt>
      <trkpt lat="43.638" lon="3.80838">
        <ele>59</ele>
        <time>2021-03-06T15:18:48Z</time>
      </trkpt>
      <trkpt lat="43.63798" lon="3.80839">
        <ele>59</ele>
        <time>2021-03-06T15:18:49Z</time>
      </trkpt>
      <trkpt lat="43.63796" lon="3.80839">
        <ele>59</ele>
        <time>2021-03-06T15:18:50Z</time>
      </trkpt>
      <trkpt lat="43.63794" lon="3.8084">
        <ele>59</ele>
        <time>2021-03-06T15:18:51Z</time>
      </trkpt>
      <trkpt lat="43.63792" lon="3.80841">
        <ele>59</ele>
        <time>2021-03-06T15:18:52Z</time>
      </trkpt>
      <trkpt lat="43.6379" lon="3.80841">
        <ele>59</ele>
        <time>2021-03-06T15:18:53Z</time>
      </trkpt>
      <trkpt lat="43.63788" lon="3.80841">
        <ele>59</ele>
        <time>2021-03-06T15:18:54Z</time>
      </trkpt>
      <trkpt lat="43.63786" lon="3.80842">
        <ele>59</ele>
        <time>2021-03-06T15:18:55Z</time>
      </trkpt>
      <trkpt lat="43.63784" lon="3.80843">
        <ele>59</ele>
        <time>2021-03-06T15:18:56Z</time>
      </trkpt>
      <trkpt lat="43.63782" lon="3.80843">
        <ele>59</ele>
        <time>2021-03-06T15:18:57Z</time>
      </trkpt>
      <trkpt lat="43.63773" lon="3.80848">
        <ele>59</ele>
        <time>2021-03-06T15:19:01Z</time>
      </trkpt>
      <trkpt lat="43.63763" lon="3.80851">
        <ele>59</ele>
        <time>2021-03-06T15:19:05Z</time>
      </trkpt>
      <trkpt lat="43.63753" lon="3.80854">
        <ele>59</ele>
        <time>2021-03-06T15:19:09Z</time>
      </trkpt>
      <trkpt lat="43.63741" lon="3.80856">
        <ele>59</ele>
        <time>2021-03-06T15:19:13Z</time>
      </trkpt>
      <trkpt lat="43.63738" lon="3.80856">
        <ele>59</ele>
        <time>2021-03-06T15:19:14Z</time>
      </trkpt>
      <trkpt lat="43.63729" lon="3.80858">
        <ele>58</ele>
        <time>2021-03-06T15:19:17Z</time>
      </trkpt>
      <trkpt lat="43.63718" lon="3.80859">
        <ele>58</ele>
        <time>2021-03-06T15:19:20Z</time>
      </trkpt>
      <trkpt lat="43.63708" lon="3.80858">
        <ele>58</ele>
        <time>2021-03-06T15:19:23Z</time>
      </trkpt>
      <trkpt lat="43.63704" lon="3.80858">
        <ele>58</ele>
        <time>2021-03-06T15:19:24Z</time>
      </trkpt>
      <trkpt lat="43.63701" lon="3.80858">
        <ele>58</ele>
        <time>2021-03-06T15:19:25Z</time>
      </trkpt>
      <trkpt lat="43.63698" lon="3.80858">
        <ele>58</ele>
        <time>2021-03-06T15:19:26Z</time>
      </trkpt>
      <trkpt lat="43.63689" lon="3.80858">
        <ele>58</ele>
        <time>2021-03-06T15:19:29Z</time>
      </trkpt>
      <trkpt lat="43.63686" lon="3.80858">
        <ele>58</ele>
        <time>2021-03-06T15:19:30Z</time>
      </trkpt>
      <trkpt lat="43.63683" lon="3.80858">
        <ele>58</ele>
        <time>2021-03-06T15:19:31Z</time>
      </trkpt>
      <trkpt lat="43.63679" lon="3.80858">
        <ele>58</ele>
        <time>2021-03-06T15:19:32Z</time>
      </trkpt>
      <trkpt lat="43.63677" lon="3.8086">
        <ele>58</ele>
        <time>2021-03-06T15:19:33Z</time>
      </trkpt>
      <trkpt lat="43.63674" lon="3.80861">
        <ele>58</ele>
        <time>2021-03-06T15:19:34Z</time>
      </trkpt>
      <trkpt lat="43.63665" lon="3.80867">
        <ele>60</ele>
        <time>2021-03-06T15:19:37Z</time>
      </trkpt>
      <trkpt lat="43.63659" lon="3.80868">
        <ele>60</ele>
        <time>2021-03-06T15:19:39Z</time>
      </trkpt>
      <trkpt lat="43.63656" lon="3.80869">
        <ele>60</ele>
        <time>2021-03-06T15:19:40Z</time>
      </trkpt>
      <trkpt lat="43.63653" lon="3.8087">
        <ele>60</ele>
        <time>2021-03-06T15:19:41Z</time>
      </trkpt>
      <trkpt lat="43.6365" lon="3.80872">
        <ele>60</ele>
        <time>2021-03-06T15:19:42Z</time>
      </trkpt>
      <trkpt lat="43.63647" lon="3.80873">
        <ele>60</ele>
        <time>2021-03-06T15:19:43Z</time>
      </trkpt>
      <trkpt lat="43.63642" lon="3.80875">
        <ele>60</ele>
        <time>2021-03-06T15:19:45Z</time>
      </trkpt>
      <trkpt lat="43.63639" lon="3.80875">
        <ele>60</ele>
        <time>2021-03-06T15:19:46Z</time>
      </trkpt>
      <trkpt lat="43.63637" lon="3.80876">
        <ele>60</ele>
        <time>2021-03-06T15:19:48Z</time>
      </trkpt>
      <trkpt lat="43.63634" lon="3.80875">
        <ele>60</ele>
        <time>2021-03-06T15:19:49Z</time>
      </trkpt>
      <trkpt lat="43.63624" lon="3.80873">
        <ele>60</ele>
        <time>2021-03-06T15:19:53Z</time>
      </trkpt>
      <trkpt lat="43.63614" lon="3.80868">
        <ele>62</ele>
        <time>2021-03-06T15:19:57Z</time>
      </trkpt>
      <trkpt lat="43.63611" lon="3.80867">
        <ele>62</ele>
        <time>2021-03-06T15:19:58Z</time>
      </trkpt>
      <trkpt lat="43.63608" lon="3.80865">
        <ele>62</ele>
        <time>2021-03-06T15:19:59Z</time>
      </trkpt>
      <trkpt lat="43.63605" lon="3.80864">
        <ele>62</ele>
        <time>2021-03-06T15:20:00Z</time>
      </trkpt>
      <trkpt lat="43.63602" lon="3.80862">
        <ele>62</ele>
        <time>2021-03-06T15:20:01Z</time>
      </trkpt>
      <trkpt lat="43.63598" lon="3.80861">
        <ele>62</ele>
        <time>2021-03-06T15:20:02Z</time>
      </trkpt>
      <trkpt lat="43.63595" lon="3.8086">
        <ele>62</ele>
        <time>2021-03-06T15:20:03Z</time>
      </trkpt>
      <trkpt lat="43.63592" lon="3.80858">
        <ele>62</ele>
        <time>2021-03-06T15:20:04Z</time>
      </trkpt>
      <trkpt lat="43.6359" lon="3.80857">
        <ele>62</ele>
        <time>2021-03-06T15:20:05Z</time>
      </trkpt>
      <trkpt lat="43.63587" lon="3.80856">
        <ele>62</ele>
        <time>2021-03-06T15:20:06Z</time>
      </trkpt>
      <trkpt lat="43.63582" lon="3.80852">
        <ele>61</ele>
        <time>2021-03-06T15:20:07Z</time>
      </trkpt>
      <trkpt lat="43.63573" lon="3.80842">
        <ele>61</ele>
        <time>2021-03-06T15:20:11Z</time>
      </trkpt>
      <trkpt lat="43.63571" lon="3.80839">
        <ele>61</ele>
        <time>2021-03-06T15:20:12Z</time>
      </trkpt>
      <trkpt lat="43.63571" lon="3.80837">
        <ele>61</ele>
        <time>2021-03-06T15:20:13Z</time>
      </trkpt>
      <trkpt lat="43.6357" lon="3.80834">
        <ele>61</ele>
        <time>2021-03-06T15:20:14Z</time>
      </trkpt>
      <trkpt lat="43.63567" lon="3.8083">
        <ele>61</ele>
        <time>2021-03-06T15:20:16Z</time>
      </trkpt>
      <trkpt lat="43.63565" lon="3.80827">
        <ele>61</ele>
        <time>2021-03-06T15:20:18Z</time>
      </trkpt>
      <trkpt lat="43.63563" lon="3.80825">
        <ele>61</ele>
        <time>2021-03-06T15:20:19Z</time>
      </trkpt>
      <trkpt lat="43.63561" lon="3.80822">
        <ele>61</ele>
        <time>2021-03-06T15:20:20Z</time>
      </trkpt>
      <trkpt lat="43.63558" lon="3.8082">
        <ele>61</ele>
        <time>2021-03-06T15:20:21Z</time>
      </trkpt>
      <trkpt lat="43.63556" lon="3.80817">
        <ele>61</ele>
        <time>2021-03-06T15:20:22Z</time>
      </trkpt>
      <trkpt lat="43.63553" lon="3.80815">
        <ele>61</ele>
        <time>2021-03-06T15:20:23Z</time>
      </trkpt>
      <trkpt lat="43.6355" lon="3.80812">
        <ele>61</ele>
        <time>2021-03-06T15:20:24Z</time>
      </trkpt>
      <trkpt lat="43.63548" lon="3.8081">
        <ele>61</ele>
        <time>2021-03-06T15:20:25Z</time>
      </trkpt>
      <trkpt lat="43.63545" lon="3.80807">
        <ele>61</ele>
        <time>2021-03-06T15:20:26Z</time>
      </trkpt>
      <trkpt lat="43.63542" lon="3.80805">
        <ele>55</ele>
        <time>2021-03-06T15:20:27Z</time>
      </trkpt>
      <trkpt lat="43.6354" lon="3.80802">
        <ele>55</ele>
        <time>2021-03-06T15:20:28Z</time>
      </trkpt>
      <trkpt lat="43.63537" lon="3.808">
        <ele>55</ele>
        <time>2021-03-06T15:20:29Z</time>
      </trkpt>
      <trkpt lat="43.63535" lon="3.80797">
        <ele>55</ele>
        <time>2021-03-06T15:20:30Z</time>
      </trkpt>
      <trkpt lat="43.63533" lon="3.80794">
        <ele>55</ele>
        <time>2021-03-06T15:20:31Z</time>
      </trkpt>
      <trkpt lat="43.63531" lon="3.80791">
        <ele>55</ele>
        <time>2021-03-06T15:20:32Z</time>
      </trkpt>
      <trkpt lat="43.63529" lon="3.80789">
        <ele>55</ele>
        <time>2021-03-06T15:20:33Z</time>
      </trkpt>
      <trkpt lat="43.63527" lon="3.80787">
        <ele>55</ele>
        <time>2021-03-06T15:20:34Z</time>
      </trkpt>
      <trkpt lat="43.63525" lon="3.80786">
        <ele>55</ele>
        <time>2021-03-06T15:20:35Z</time>
      </trkpt>
      <trkpt lat="43.63523" lon="3.80784">
        <ele>55</ele>
        <time>2021-03-06T15:20:36Z</time>
      </trkpt>
      <trkpt lat="43.63521" lon="3.80783">
        <ele>53</ele>
        <time>2021-03-06T15:20:37Z</time>
      </trkpt>
      <trkpt lat="43.63519" lon="3.80781">
        <ele>53</ele>
        <time>2021-03-06T15:20:38Z</time>
      </trkpt>
      <trkpt lat="43.63517" lon="3.8078">
        <ele>53</ele>
        <time>2021-03-06T15:20:39Z</time>
      </trkpt>
      <trkpt lat="43.63515" lon="3.80778">
        <ele>53</ele>
        <time>2021-03-06T15:20:40Z</time>
      </trkpt>
      <trkpt lat="43.63513" lon="3.80777">
        <ele>53</ele>
        <time>2021-03-06T15:20:41Z</time>
      </trkpt>
      <trkpt lat="43.63511" lon="3.80777">
        <ele>53</ele>
        <time>2021-03-06T15:20:42Z</time>
      </trkpt>
      <trkpt lat="43.63509" lon="3.80776">
        <ele>53</ele>
        <time>2021-03-06T15:20:43Z</time>
      </trkpt>
      <trkpt lat="43.63507" lon="3.80776">
        <ele>53</ele>
        <time>2021-03-06T15:20:44Z</time>
      </trkpt>
      <trkpt lat="43.63505" lon="3.80775">
        <ele>53</ele>
        <time>2021-03-06T15:20:45Z</time>
      </trkpt>
      <trkpt lat="43.63503" lon="3.80774">
        <ele>53</ele>
        <time>2021-03-06T15:20:46Z</time>
      </trkpt>
      <trkpt lat="43.63501" lon="3.80774">
        <ele>52</ele>
        <time>2021-03-06T15:20:47Z</time>
      </trkpt>
      <trkpt lat="43.63499" lon="3.80773">
        <ele>52</ele>
        <time>2021-03-06T15:20:48Z</time>
      </trkpt>
      <trkpt lat="43.63497" lon="3.80773">
        <ele>52</ele>
        <time>2021-03-06T15:20:49Z</time>
      </trkpt>
      <trkpt lat="43.63495" lon="3.80774">
        <ele>52</ele>
        <time>2021-03-06T15:20:50Z</time>
      </trkpt>
      <trkpt lat="43.63493" lon="3.80774">
        <ele>52</ele>
        <time>2021-03-06T15:20:51Z</time>
      </trkpt>
      <trkpt lat="43.6349" lon="3.80775">
        <ele>52</ele>
        <time>2021-03-06T15:20:52Z</time>
      </trkpt>
      <trkpt lat="43.63487" lon="3.80775">
        <ele>52</ele>
        <time>2021-03-06T15:20:53Z</time>
      </trkpt>
      <trkpt lat="43.63485" lon="3.80776">
        <ele>52</ele>
        <time>2021-03-06T15:20:54Z</time>
      </trkpt>
      <trkpt lat="43.63483" lon="3.80777">
        <ele>52</ele>
        <time>2021-03-06T15:20:55Z</time>
      </trkpt>
      <trkpt lat="43.6348" lon="3.80777">
        <ele>52</ele>
        <time>2021-03-06T15:20:56Z</time>
      </trkpt>
      <trkpt lat="43.63478" lon="3.80777">
        <ele>53</ele>
        <time>2021-03-06T15:20:57Z</time>
      </trkpt>
      <trkpt lat="43.63475" lon="3.80778">
        <ele>53</ele>
        <time>2021-03-06T15:20:58Z</time>
      </trkpt>
      <trkpt lat="43.63473" lon="3.80779">
        <ele>53</ele>
        <time>2021-03-06T15:20:59Z</time>
      </trkpt>
      <trkpt lat="43.6347" lon="3.8078">
        <ele>53</ele>
        <time>2021-03-06T15:21:00Z</time>
      </trkpt>
      <trkpt lat="43.63468" lon="3.80782">
        <ele>53</ele>
        <time>2021-03-06T15:21:01Z</time>
      </trkpt>
      <trkpt lat="43.63465" lon="3.80784">
        <ele>53</ele>
        <time>2021-03-06T15:21:02Z</time>
      </trkpt>
      <trkpt lat="43.63462" lon="3.80786">
        <ele>53</ele>
        <time>2021-03-06T15:21:03Z</time>
      </trkpt>
      <trkpt lat="43.6346" lon="3.80788">
        <ele>53</ele>
        <time>2021-03-06T15:21:04Z</time>
      </trkpt>
      <trkpt lat="43.63458" lon="3.80791">
        <ele>53</ele>
        <time>2021-03-06T15:21:05Z</time>
      </trkpt>
      <trkpt lat="43.63456" lon="3.80793">
        <ele>53</ele>
        <time>2021-03-06T15:21:06Z</time>
      </trkpt>
      <trkpt lat="43.63455" lon="3.80796">
        <ele>52</ele>
        <time>2021-03-06T15:21:07Z</time>
      </trkpt>
      <trkpt lat="43.63454" lon="3.80799">
        <ele>52</ele>
        <time>2021-03-06T15:21:08Z</time>
      </trkpt>
      <trkpt lat="43.63453" lon="3.80802">
        <ele>52</ele>
        <time>2021-03-06T15:21:09Z</time>
      </trkpt>
      <trkpt lat="43.63453" lon="3.80806">
        <ele>52</ele>
        <time>2021-03-06T15:21:10Z</time>
      </trkpt>
      <trkpt lat="43.63453" lon="3.8081">
        <ele>52</ele>
        <time>2021-03-06T15:21:11Z</time>
      </trkpt>
      <trkpt lat="43.63453" lon="3.80815">
        <ele>52</ele>
        <time>2021-03-06T15:21:12Z</time>
      </trkpt>
      <trkpt lat="43.63453" lon="3.80819">
        <ele>52</ele>
        <time>2021-03-06T15:21:13Z</time>
      </trkpt>
      <trkpt lat="43.63453" lon="3.80822">
        <ele>52</ele>
        <time>2021-03-06T15:21:14Z</time>
      </trkpt>
      <trkpt lat="43.63453" lon="3.80826">
        <ele>52</ele>
        <time>2021-03-06T15:21:15Z</time>
      </trkpt>
      <trkpt lat="43.63452" lon="3.8083">
        <ele>52</ele>
        <time>2021-03-06T15:21:16Z</time>
      </trkpt>
      <trkpt lat="43.63452" lon="3.80834">
        <ele>52</ele>
        <time>2021-03-06T15:21:17Z</time>
      </trkpt>
      <trkpt lat="43.63453" lon="3.80837">
        <ele>52</ele>
        <time>2021-03-06T15:21:18Z</time>
      </trkpt>
      <trkpt lat="43.63453" lon="3.80841">
        <ele>52</ele>
        <time>2021-03-06T15:21:19Z</time>
      </trkpt>
      <trkpt lat="43.63453" lon="3.80845">
        <ele>52</ele>
        <time>2021-03-06T15:21:20Z</time>
      </trkpt>
      <trkpt lat="43.63453" lon="3.80849">
        <ele>52</ele>
        <time>2021-03-06T15:21:21Z</time>
      </trkpt>
      <trkpt lat="43.63453" lon="3.80854">
        <ele>52</ele>
        <time>2021-03-06T15:21:22Z</time>
      </trkpt>
      <trkpt lat="43.63453" lon="3.80859">
        <ele>52</ele>
        <time>2021-03-06T15:21:23Z</time>
      </trkpt>
      <trkpt lat="43.63452" lon="3.80864">
        <ele>52</ele>
        <time>2021-03-06T15:21:24Z</time>
      </trkpt>
      <trkpt lat="43.63452" lon="3.80869">
        <ele>52</ele>
        <time>2021-03-06T15:21:25Z</time>
      </trkpt>
      <trkpt lat="43.63451" lon="3.80874">
        <ele>52</ele>
        <time>2021-03-06T15:21:26Z</time>
      </trkpt>
      <trkpt lat="43.6345" lon="3.80879">
        <ele>52</ele>
        <time>2021-03-06T15:21:27Z</time>
      </trkpt>
      <trkpt lat="43.63449" lon="3.80883">
        <ele>52</ele>
        <time>2021-03-06T15:21:28Z</time>
      </trkpt>
      <trkpt lat="43.63448" lon="3.80887">
        <ele>52</ele>
        <time>2021-03-06T15:21:29Z</time>
      </trkpt>
      <trkpt lat="43.63447" lon="3.80892">
        <ele>52</ele>
        <time>2021-03-06T15:21:30Z</time>
      </trkpt>
      <trkpt lat="43.63445" lon="3.80896">
        <ele>52</ele>
        <time>2021-03-06T15:21:31Z</time>
      </trkpt>
      <trkpt lat="43.63444" lon="3.80899">
        <ele>52</ele>
        <time>2021-03-06T15:21:32Z</time>
      </trkpt>
      <trkpt lat="43.63444" lon="3.80902">
        <ele>52</ele>
        <time>2021-03-06T15:21:33Z</time>
      </trkpt>
      <trkpt lat="43.63445" lon="3.80905">
        <ele>52</ele>
        <time>2021-03-06T15:21:34Z</time>
      </trkpt>
      <trkpt lat="43.63445" lon="3.80908">
        <ele>52</ele>
        <time>2021-03-06T15:21:35Z</time>
      </trkpt>
      <trkpt lat="43.63444" lon="3.80911">
        <ele>52</ele>
        <time>2021-03-06T15:21:36Z</time>
      </trkpt>
      <trkpt lat="43.63444" lon="3.80914">
        <ele>54</ele>
        <time>2021-03-06T15:21:37Z</time>
      </trkpt>
      <trkpt lat="43.63444" lon="3.80918">
        <ele>54</ele>
        <time>2021-03-06T15:21:38Z</time>
      </trkpt>
      <trkpt lat="43.63444" lon="3.80922">
        <ele>54</ele>
        <time>2021-03-06T15:21:39Z</time>
      </trkpt>
      <trkpt lat="43.63444" lon="3.80926">
        <ele>54</ele>
        <time>2021-03-06T15:21:40Z</time>
      </trkpt>
      <trkpt lat="43.63445" lon="3.8093">
        <ele>54</ele>
        <time>2021-03-06T15:21:41Z</time>
      </trkpt>
      <trkpt lat="43.63445" lon="3.80934">
        <ele>54</ele>
        <time>2021-03-06T15:21:42Z</time>
      </trkpt>
      <trkpt lat="43.63445" lon="3.80939">
        <ele>54</ele>
        <time>2021-03-06T15:21:43Z</time>
      </trkpt>
      <trkpt lat="43.63445" lon="3.80943">
        <ele>54</ele>
        <time>2021-03-06T15:21:44Z</time>
      </trkpt>
      <trkpt lat="43.63445" lon="3.80947">
        <ele>54</ele>
        <time>2021-03-06T15:21:45Z</time>
      </trkpt>
      <trkpt lat="43.63445" lon="3.80951">
        <ele>54</ele>
        <time>2021-03-06T15:21:46Z</time>
      </trkpt>
      <trkpt lat="43.63445" lon="3.80959">
        <ele>55</ele>
        <time>2021-03-06T15:21:47Z</time>
      </trkpt>
      <trkpt lat="43.63445" lon="3.80963">
        <ele>55</ele>
        <time>2021-03-06T15:21:48Z</time>
      </trkpt>
      <trkpt lat="43.63445" lon="3.80967">
        <ele>55</ele>
        <time>2021-03-06T15:21:49Z</time>
      </trkpt>
      <trkpt lat="43.63445" lon="3.80971">
        <ele>55</ele>
        <time>2021-03-06T15:21:50Z</time>
      </trkpt>
      <trkpt lat="43.63445" lon="3.80975">
        <ele>55</ele>
        <time>2021-03-06T15:21:51Z</time>
      </trkpt>
      <trkpt lat="43.63445" lon="3.8098">
        <ele>55</ele>
        <time>2021-03-06T15:21:52Z</time>
      </trkpt>
      <trkpt lat="43.63446" lon="3.80984">
        <ele>55</ele>
        <time>2021-03-06T15:21:53Z</time>
      </trkpt>
      <trkpt lat="43.63446" lon="3.80989">
        <ele>55</ele>
        <time>2021-03-06T15:21:54Z</time>
      </trkpt>
      <trkpt lat="43.63445" lon="3.80994">
        <ele>55</ele>
        <time>2021-03-06T15:21:55Z</time>
      </trkpt>
      <trkpt lat="43.63444" lon="3.81">
        <ele>55</ele>
        <time>2021-03-06T15:21:56Z</time>
      </trkpt>
      <trkpt lat="43.63444" lon="3.81006">
        <ele>55</ele>
        <time>2021-03-06T15:21:58Z</time>
      </trkpt>
      <trkpt lat="43.63443" lon="3.81014">
        <ele>55</ele>
        <time>2021-03-06T15:21:59Z</time>
      </trkpt>
      <trkpt lat="43.63444" lon="3.81021">
        <ele>55</ele>
        <time>2021-03-06T15:22:00Z</time>
      </trkpt>
      <trkpt lat="43.63444" lon="3.81029">
        <ele>55</ele>
        <time>2021-03-06T15:22:01Z</time>
      </trkpt>
      <trkpt lat="43.63444" lon="3.81036">
        <ele>55</ele>
        <time>2021-03-06T15:22:02Z</time>
      </trkpt>
      <trkpt lat="43.63444" lon="3.81043">
        <ele>55</ele>
        <time>2021-03-06T15:22:03Z</time>
      </trkpt>
      <trkpt lat="43.63445" lon="3.8105">
        <ele>55</ele>
        <time>2021-03-06T15:22:04Z</time>
      </trkpt>
      <trkpt lat="43.63446" lon="3.81056">
        <ele>55</ele>
        <time>2021-03-06T15:22:05Z</time>
      </trkpt>
      <trkpt lat="43.63448" lon="3.81062">
        <ele>55</ele>
        <time>2021-03-06T15:22:06Z</time>
      </trkpt>
      <trkpt lat="43.63449" lon="3.81068">
        <ele>53</ele>
        <time>2021-03-06T15:22:07Z</time>
      </trkpt>
      <trkpt lat="43.6345" lon="3.81074">
        <ele>53</ele>
        <time>2021-03-06T15:22:08Z</time>
      </trkpt>
      <trkpt lat="43.63452" lon="3.8108">
        <ele>53</ele>
        <time>2021-03-06T15:22:09Z</time>
      </trkpt>
      <trkpt lat="43.63453" lon="3.81086">
        <ele>53</ele>
        <time>2021-03-06T15:22:10Z</time>
      </trkpt>
      <trkpt lat="43.63453" lon="3.81092">
        <ele>53</ele>
        <time>2021-03-06T15:22:11Z</time>
      </trkpt>
      <trkpt lat="43.63454" lon="3.81098">
        <ele>53</ele>
        <time>2021-03-06T15:22:12Z</time>
      </trkpt>
      <trkpt lat="43.63454" lon="3.81104">
        <ele>53</ele>
        <time>2021-03-06T15:22:13Z</time>
      </trkpt>
      <trkpt lat="43.63455" lon="3.81109">
        <ele>53</ele>
        <time>2021-03-06T15:22:14Z</time>
      </trkpt>
      <trkpt lat="43.63456" lon="3.81115">
        <ele>53</ele>
        <time>2021-03-06T15:22:15Z</time>
      </trkpt>
      <trkpt lat="43.63456" lon="3.8112">
        <ele>53</ele>
        <time>2021-03-06T15:22:16Z</time>
      </trkpt>
      <trkpt lat="43.63457" lon="3.81125">
        <ele>52</ele>
        <time>2021-03-06T15:22:17Z</time>
      </trkpt>
      <trkpt lat="43.63457" lon="3.8113">
        <ele>52</ele>
        <time>2021-03-06T15:22:18Z</time>
      </trkpt>
      <trkpt lat="43.63458" lon="3.81135">
        <ele>52</ele>
        <time>2021-03-06T15:22:19Z</time>
      </trkpt>
      <trkpt lat="43.63458" lon="3.8114">
        <ele>52</ele>
        <time>2021-03-06T15:22:20Z</time>
      </trkpt>
      <trkpt lat="43.63459" lon="3.81144">
        <ele>52</ele>
        <time>2021-03-06T15:22:21Z</time>
      </trkpt>
      <trkpt lat="43.6346" lon="3.81149">
        <ele>52</ele>
        <time>2021-03-06T15:22:22Z</time>
      </trkpt>
      <trkpt lat="43.63459" lon="3.8116">
        <ele>52</ele>
        <time>2021-03-06T15:22:25Z</time>
      </trkpt>
      <trkpt lat="43.6346" lon="3.81164">
        <ele>52</ele>
        <time>2021-03-06T15:22:26Z</time>
      </trkpt>
      <trkpt lat="43.6346" lon="3.81168">
        <ele>52</ele>
        <time>2021-03-06T15:22:27Z</time>
      </trkpt>
      <trkpt lat="43.6346" lon="3.81171">
        <ele>52</ele>
        <time>2021-03-06T15:22:28Z</time>
      </trkpt>
      <trkpt lat="43.63461" lon="3.81175">
        <ele>52</ele>
        <time>2021-03-06T15:22:29Z</time>
      </trkpt>
      <trkpt lat="43.63461" lon="3.81179">
        <ele>52</ele>
        <time>2021-03-06T15:22:30Z</time>
      </trkpt>
      <trkpt lat="43.63461" lon="3.81183">
        <ele>52</ele>
        <time>2021-03-06T15:22:31Z</time>
      </trkpt>
      <trkpt lat="43.63461" lon="3.81187">
        <ele>52</ele>
        <time>2021-03-06T15:22:32Z</time>
      </trkpt>
      <trkpt lat="43.63461" lon="3.8119">
        <ele>52</ele>
        <time>2021-03-06T15:22:33Z</time>
      </trkpt>
      <trkpt lat="43.63462" lon="3.81194">
        <ele>52</ele>
        <time>2021-03-06T15:22:34Z</time>
      </trkpt>
      <trkpt lat="43.63462" lon="3.81197">
        <ele>52</ele>
        <time>2021-03-06T15:22:35Z</time>
      </trkpt>
      <trkpt lat="43.63462" lon="3.81201">
        <ele>52</ele>
        <time>2021-03-06T15:22:36Z</time>
      </trkpt>
      <trkpt lat="43.63462" lon="3.81205">
        <ele>51</ele>
        <time>2021-03-06T15:22:37Z</time>
      </trkpt>
      <trkpt lat="43.63462" lon="3.81208">
        <ele>51</ele>
        <time>2021-03-06T15:22:38Z</time>
      </trkpt>
      <trkpt lat="43.63462" lon="3.81212">
        <ele>51</ele>
        <time>2021-03-06T15:22:39Z</time>
      </trkpt>
      <trkpt lat="43.63462" lon="3.81215">
        <ele>51</ele>
        <time>2021-03-06T15:22:40Z</time>
      </trkpt>
      <trkpt lat="43.63462" lon="3.81218">
        <ele>51</ele>
        <time>2021-03-06T15:22:41Z</time>
      </trkpt>
      <trkpt lat="43.63462" lon="3.8122">
        <ele>51</ele>
        <time>2021-03-06T15:22:42Z</time>
      </trkpt>
      <trkpt lat="43.63462" lon="3.81225">
        <ele>51</ele>
        <time>2021-03-06T15:22:44Z</time>
      </trkpt>
      <trkpt lat="43.63462" lon="3.81228">
        <ele>51</ele>
        <time>2021-03-06T15:22:45Z</time>
      </trkpt>
      <trkpt lat="43.63462" lon="3.81231">
        <ele>51</ele>
        <time>2021-03-06T15:22:46Z</time>
      </trkpt>
      <trkpt lat="43.63461" lon="3.81234">
        <ele>51</ele>
        <time>2021-03-06T15:22:47Z</time>
      </trkpt>
      <trkpt lat="43.63461" lon="3.81238">
        <ele>51</ele>
        <time>2021-03-06T15:22:48Z</time>
      </trkpt>
      <trkpt lat="43.63461" lon="3.81241">
        <ele>51</ele>
        <time>2021-03-06T15:22:49Z</time>
      </trkpt>
      <trkpt lat="43.63461" lon="3.81244">
        <ele>51</ele>
        <time>2021-03-06T15:22:50Z</time>
      </trkpt>
      <trkpt lat="43.6346" lon="3.81248">
        <ele>51</ele>
        <time>2021-03-06T15:22:51Z</time>
      </trkpt>
      <trkpt lat="43.6346" lon="3.81251">
        <ele>51</ele>
        <time>2021-03-06T15:22:52Z</time>
      </trkpt>
      <trkpt lat="43.6346" lon="3.81255">
        <ele>51</ele>
        <time>2021-03-06T15:22:53Z</time>
      </trkpt>
      <trkpt lat="43.63459" lon="3.81259">
        <ele>51</ele>
        <time>2021-03-06T15:22:54Z</time>
      </trkpt>
      <trkpt lat="43.63459" lon="3.81263">
        <ele>51</ele>
        <time>2021-03-06T15:22:55Z</time>
      </trkpt>
      <trkpt lat="43.63459" lon="3.81267">
        <ele>51</ele>
        <time>2021-03-06T15:22:56Z</time>
      </trkpt>
      <trkpt lat="43.63458" lon="3.81271">
        <ele>51</ele>
        <time>2021-03-06T15:22:57Z</time>
      </trkpt>
      <trkpt lat="43.63457" lon="3.81275">
        <ele>51</ele>
        <time>2021-03-06T15:22:58Z</time>
      </trkpt>
      <trkpt lat="43.63457" lon="3.81279">
        <ele>51</ele>
        <time>2021-03-06T15:22:59Z</time>
      </trkpt>
      <trkpt lat="43.63456" lon="3.81284">
        <ele>51</ele>
        <time>2021-03-06T15:23:00Z</time>
      </trkpt>
      <trkpt lat="43.63454" lon="3.81293">
        <ele>51</ele>
        <time>2021-03-06T15:23:02Z</time>
      </trkpt>
      <trkpt lat="43.63453" lon="3.81298">
        <ele>51</ele>
        <time>2021-03-06T15:23:03Z</time>
      </trkpt>
      <trkpt lat="43.63452" lon="3.81302">
        <ele>51</ele>
        <time>2021-03-06T15:23:04Z</time>
      </trkpt>
      <trkpt lat="43.63451" lon="3.81307">
        <ele>51</ele>
        <time>2021-03-06T15:23:05Z</time>
      </trkpt>
      <trkpt lat="43.63448" lon="3.81312">
        <ele>51</ele>
        <time>2021-03-06T15:23:06Z</time>
      </trkpt>
      <trkpt lat="43.63446" lon="3.81316">
        <ele>51</ele>
        <time>2021-03-06T15:23:07Z</time>
      </trkpt>
      <trkpt lat="43.63444" lon="3.8132">
        <ele>51</ele>
        <time>2021-03-06T15:23:08Z</time>
      </trkpt>
      <trkpt lat="43.63442" lon="3.81324">
        <ele>51</ele>
        <time>2021-03-06T15:23:09Z</time>
      </trkpt>
      <trkpt lat="43.6344" lon="3.81328">
        <ele>51</ele>
        <time>2021-03-06T15:23:10Z</time>
      </trkpt>
      <trkpt lat="43.63438" lon="3.81332">
        <ele>51</ele>
        <time>2021-03-06T15:23:11Z</time>
      </trkpt>
      <trkpt lat="43.63434" lon="3.81336">
        <ele>51</ele>
        <time>2021-03-06T15:23:12Z</time>
      </trkpt>
      <trkpt lat="43.63431" lon="3.81339">
        <ele>51</ele>
        <time>2021-03-06T15:23:13Z</time>
      </trkpt>
      <trkpt lat="43.63427" lon="3.81341">
        <ele>51</ele>
        <time>2021-03-06T15:23:14Z</time>
      </trkpt>
      <trkpt lat="43.63423" lon="3.81344">
        <ele>51</ele>
        <time>2021-03-06T15:23:15Z</time>
      </trkpt>
      <trkpt lat="43.63421" lon="3.81347">
        <ele>51</ele>
        <time>2021-03-06T15:23:16Z</time>
      </trkpt>
      <trkpt lat="43.63417" lon="3.8135">
        <ele>52</ele>
        <time>2021-03-06T15:23:17Z</time>
      </trkpt>
      <trkpt lat="43.63411" lon="3.81355">
        <ele>52</ele>
        <time>2021-03-06T15:23:19Z</time>
      </trkpt>
      <trkpt lat="43.63408" lon="3.81357">
        <ele>52</ele>
        <time>2021-03-06T15:23:20Z</time>
      </trkpt>
      <trkpt lat="43.63405" lon="3.8136">
        <ele>52</ele>
        <time>2021-03-06T15:23:21Z</time>
      </trkpt>
      <trkpt lat="43.63402" lon="3.81362">
        <ele>52</ele>
        <time>2021-03-06T15:23:22Z</time>
      </trkpt>
      <trkpt lat="43.63396" lon="3.81366">
        <ele>52</ele>
        <time>2021-03-06T15:23:24Z</time>
      </trkpt>
      <trkpt lat="43.63393" lon="3.81368">
        <ele>52</ele>
        <time>2021-03-06T15:23:25Z</time>
      </trkpt>
      <trkpt lat="43.63391" lon="3.8137">
        <ele>52</ele>
        <time>2021-03-06T15:23:26Z</time>
      </trkpt>
      <trkpt lat="43.63388" lon="3.81371">
        <ele>52</ele>
        <time>2021-03-06T15:23:27Z</time>
      </trkpt>
      <trkpt lat="43.63385" lon="3.81373">
        <ele>52</ele>
        <time>2021-03-06T15:23:28Z</time>
      </trkpt>
      <trkpt lat="43.63382" lon="3.81375">
        <ele>52</ele>
        <time>2021-03-06T15:23:29Z</time>
      </trkpt>
      <trkpt lat="43.63379" lon="3.81377">
        <ele>52</ele>
        <time>2021-03-06T15:23:30Z</time>
      </trkpt>
      <trkpt lat="43.63376" lon="3.81379">
        <ele>52</ele>
        <time>2021-03-06T15:23:31Z</time>
      </trkpt>
      <trkpt lat="43.63373" lon="3.81381">
        <ele>52</ele>
        <time>2021-03-06T15:23:32Z</time>
      </trkpt>
      <trkpt lat="43.6337" lon="3.81383">
        <ele>52</ele>
        <time>2021-03-06T15:23:33Z</time>
      </trkpt>
      <trkpt lat="43.63367" lon="3.81386">
        <ele>52</ele>
        <time>2021-03-06T15:23:34Z</time>
      </trkpt>
      <trkpt lat="43.63364" lon="3.81389">
        <ele>52</ele>
        <time>2021-03-06T15:23:35Z</time>
      </trkpt>
      <trkpt lat="43.6336" lon="3.81391">
        <ele>52</ele>
        <time>2021-03-06T15:23:36Z</time>
      </trkpt>
      <trkpt lat="43.63357" lon="3.81394">
        <ele>52</ele>
        <time>2021-03-06T15:23:37Z</time>
      </trkpt>
      <trkpt lat="43.63355" lon="3.81398">
        <ele>52</ele>
        <time>2021-03-06T15:23:38Z</time>
      </trkpt>
      <trkpt lat="43.63352" lon="3.81402">
        <ele>52</ele>
        <time>2021-03-06T15:23:39Z</time>
      </trkpt>
      <trkpt lat="43.6335" lon="3.81406">
        <ele>52</ele>
        <time>2021-03-06T15:23:40Z</time>
      </trkpt>
      <trkpt lat="43.63348" lon="3.8141">
        <ele>52</ele>
        <time>2021-03-06T15:23:41Z</time>
      </trkpt>
      <trkpt lat="43.63345" lon="3.81413">
        <ele>52</ele>
        <time>2021-03-06T15:23:42Z</time>
      </trkpt>
      <trkpt lat="43.63342" lon="3.81415">
        <ele>52</ele>
        <time>2021-03-06T15:23:43Z</time>
      </trkpt>
      <trkpt lat="43.63339" lon="3.81418">
        <ele>52</ele>
        <time>2021-03-06T15:23:44Z</time>
      </trkpt>
      <trkpt lat="43.63336" lon="3.8142">
        <ele>52</ele>
        <time>2021-03-06T15:23:45Z</time>
      </trkpt>
      <trkpt lat="43.63333" lon="3.81422">
        <ele>52</ele>
        <time>2021-03-06T15:23:46Z</time>
      </trkpt>
      <trkpt lat="43.6333" lon="3.81424">
        <ele>52</ele>
        <time>2021-03-06T15:23:47Z</time>
      </trkpt>
      <trkpt lat="43.63327" lon="3.81427">
        <ele>52</ele>
        <time>2021-03-06T15:23:48Z</time>
      </trkpt>
      <trkpt lat="43.63324" lon="3.81429">
        <ele>52</ele>
        <time>2021-03-06T15:23:49Z</time>
      </trkpt>
      <trkpt lat="43.63322" lon="3.81432">
        <ele>52</ele>
        <time>2021-03-06T15:23:50Z</time>
      </trkpt>
      <trkpt lat="43.63319" lon="3.81435">
        <ele>52</ele>
        <time>2021-03-06T15:23:51Z</time>
      </trkpt>
      <trkpt lat="43.63317" lon="3.81439">
        <ele>52</ele>
        <time>2021-03-06T15:23:52Z</time>
      </trkpt>
      <trkpt lat="43.63314" lon="3.81441">
        <ele>52</ele>
        <time>2021-03-06T15:23:53Z</time>
      </trkpt>
      <trkpt lat="43.63312" lon="3.81445">
        <ele>52</ele>
        <time>2021-03-06T15:23:54Z</time>
      </trkpt>
      <trkpt lat="43.63307" lon="3.81451">
        <ele>52</ele>
        <time>2021-03-06T15:23:56Z</time>
      </trkpt>
      <trkpt lat="43.63305" lon="3.81456">
        <ele>54</ele>
        <time>2021-03-06T15:23:57Z</time>
      </trkpt>
      <trkpt lat="43.63302" lon="3.81459">
        <ele>54</ele>
        <time>2021-03-06T15:23:58Z</time>
      </trkpt>
      <trkpt lat="43.63301" lon="3.81463">
        <ele>54</ele>
        <time>2021-03-06T15:23:59Z</time>
      </trkpt>
      <trkpt lat="43.63301" lon="3.81466">
        <ele>54</ele>
        <time>2021-03-06T15:24:00Z</time>
      </trkpt>
      <trkpt lat="43.633" lon="3.81469">
        <ele>54</ele>
        <time>2021-03-06T15:24:01Z</time>
      </trkpt>
      <trkpt lat="43.63299" lon="3.81472">
        <ele>54</ele>
        <time>2021-03-06T15:24:02Z</time>
      </trkpt>
      <trkpt lat="43.63298" lon="3.81473">
        <ele>54</ele>
        <time>2021-03-06T15:24:03Z</time>
      </trkpt>
      <trkpt lat="43.63296" lon="3.81475">
        <ele>54</ele>
        <time>2021-03-06T15:24:04Z</time>
      </trkpt>
      <trkpt lat="43.63294" lon="3.81476">
        <ele>54</ele>
        <time>2021-03-06T15:24:05Z</time>
      </trkpt>
      <trkpt lat="43.63292" lon="3.81478">
        <ele>54</ele>
        <time>2021-03-06T15:24:06Z</time>
      </trkpt>
      <trkpt lat="43.6329" lon="3.8148">
        <ele>54</ele>
        <time>2021-03-06T15:24:07Z</time>
      </trkpt>
      <trkpt lat="43.63288" lon="3.81482">
        <ele>54</ele>
        <time>2021-03-06T15:24:08Z</time>
      </trkpt>
      <trkpt lat="43.63287" lon="3.81484">
        <ele>54</ele>
        <time>2021-03-06T15:24:09Z</time>
      </trkpt>
      <trkpt lat="43.63285" lon="3.81487">
        <ele>54</ele>
        <time>2021-03-06T15:24:10Z</time>
      </trkpt>
      <trkpt lat="43.63284" lon="3.81489">
        <ele>54</ele>
        <time>2021-03-06T15:24:11Z</time>
      </trkpt>
      <trkpt lat="43.63282" lon="3.81491">
        <ele>54</ele>
        <time>2021-03-06T15:24:12Z</time>
      </trkpt>
      <trkpt lat="43.63279" lon="3.81493">
        <ele>54</ele>
        <time>2021-03-06T15:24:13Z</time>
      </trkpt>
      <trkpt lat="43.63277" lon="3.81495">
        <ele>54</ele>
        <time>2021-03-06T15:24:14Z</time>
      </trkpt>
      <trkpt lat="43.63276" lon="3.81497">
        <ele>54</ele>
        <time>2021-03-06T15:24:15Z</time>
      </trkpt>
      <trkpt lat="43.63275" lon="3.815">
        <ele>54</ele>
        <time>2021-03-06T15:24:17Z</time>
      </trkpt>
      <trkpt lat="43.63277" lon="3.815">
        <ele>54</ele>
        <time>2021-03-06T15:24:20Z</time>
      </trkpt>
      <trkpt lat="43.63277" lon="3.81496">
        <ele>54</ele>
        <time>2021-03-06T15:24:22Z</time>
      </trkpt>
      <trkpt lat="43.63277" lon="3.81493">
        <ele>54</ele>
        <time>2021-03-06T15:24:23Z</time>
      </trkpt>
      <trkpt lat="43.6328" lon="3.81491">
        <ele>54</ele>
        <time>2021-03-06T15:24:25Z</time>
      </trkpt>
      <trkpt lat="43.6328" lon="3.81494">
        <ele>53</ele>
        <time>2021-03-06T15:24:27Z</time>
      </trkpt>
      <trkpt lat="43.63279" lon="3.81496">
        <ele>53</ele>
        <time>2021-03-06T15:24:28Z</time>
      </trkpt>
      <trkpt lat="43.63277" lon="3.81498">
        <ele>53</ele>
        <time>2021-03-06T15:24:29Z</time>
      </trkpt>
      <trkpt lat="43.63274" lon="3.815">
        <ele>53</ele>
        <time>2021-03-06T15:24:30Z</time>
      </trkpt>
      <trkpt lat="43.63271" lon="3.81502">
        <ele>53</ele>
        <time>2021-03-06T15:24:31Z</time>
      </trkpt>
      <trkpt lat="43.63267" lon="3.81506">
        <ele>53</ele>
        <time>2021-03-06T15:24:32Z</time>
      </trkpt>
      <trkpt lat="43.63264" lon="3.8151">
        <ele>53</ele>
        <time>2021-03-06T15:24:33Z</time>
      </trkpt>
      <trkpt lat="43.6326" lon="3.81515">
        <ele>53</ele>
        <time>2021-03-06T15:24:34Z</time>
      </trkpt>
      <trkpt lat="43.63257" lon="3.81519">
        <ele>53</ele>
        <time>2021-03-06T15:24:35Z</time>
      </trkpt>
      <trkpt lat="43.63255" lon="3.81524">
        <ele>53</ele>
        <time>2021-03-06T15:24:36Z</time>
      </trkpt>
      <trkpt lat="43.63252" lon="3.81528">
        <ele>53</ele>
        <time>2021-03-06T15:24:37Z</time>
      </trkpt>
      <trkpt lat="43.63249" lon="3.81532">
        <ele>53</ele>
        <time>2021-03-06T15:24:38Z</time>
      </trkpt>
      <trkpt lat="43.63247" lon="3.81537">
        <ele>53</ele>
        <time>2021-03-06T15:24:39Z</time>
      </trkpt>
      <trkpt lat="43.63244" lon="3.81541">
        <ele>53</ele>
        <time>2021-03-06T15:24:40Z</time>
      </trkpt>
      <trkpt lat="43.63241" lon="3.81544">
        <ele>53</ele>
        <time>2021-03-06T15:24:41Z</time>
      </trkpt>
      <trkpt lat="43.63238" lon="3.81548">
        <ele>53</ele>
        <time>2021-03-06T15:24:42Z</time>
      </trkpt>
      <trkpt lat="43.63235" lon="3.81551">
        <ele>53</ele>
        <time>2021-03-06T15:24:43Z</time>
      </trkpt>
      <trkpt lat="43.63231" lon="3.81554">
        <ele>53</ele>
        <time>2021-03-06T15:24:44Z</time>
      </trkpt>
      <trkpt lat="43.63227" lon="3.81556">
        <ele>53</ele>
        <time>2021-03-06T15:24:45Z</time>
      </trkpt>
      <trkpt lat="43.63224" lon="3.81559">
        <ele>53</ele>
        <time>2021-03-06T15:24:46Z</time>
      </trkpt>
      <trkpt lat="43.63221" lon="3.81562">
        <ele>53</ele>
        <time>2021-03-06T15:24:47Z</time>
      </trkpt>
      <trkpt lat="43.63217" lon="3.81567">
        <ele>53</ele>
        <time>2021-03-06T15:24:48Z</time>
      </trkpt>
      <trkpt lat="43.63213" lon="3.81572">
        <ele>53</ele>
        <time>2021-03-06T15:24:49Z</time>
      </trkpt>
      <trkpt lat="43.6321" lon="3.81577">
        <ele>53</ele>
        <time>2021-03-06T15:24:50Z</time>
      </trkpt>
      <trkpt lat="43.63207" lon="3.81582">
        <ele>53</ele>
        <time>2021-03-06T15:24:51Z</time>
      </trkpt>
      <trkpt lat="43.63203" lon="3.81586">
        <ele>53</ele>
        <time>2021-03-06T15:24:52Z</time>
      </trkpt>
      <trkpt lat="43.632" lon="3.8159">
        <ele>53</ele>
        <time>2021-03-06T15:24:53Z</time>
      </trkpt>
      <trkpt lat="43.63196" lon="3.81593">
        <ele>53</ele>
        <time>2021-03-06T15:24:54Z</time>
      </trkpt>
      <trkpt lat="43.63193" lon="3.81597">
        <ele>53</ele>
        <time>2021-03-06T15:24:55Z</time>
      </trkpt>
      <trkpt lat="43.63189" lon="3.81601">
        <ele>53</ele>
        <time>2021-03-06T15:24:56Z</time>
      </trkpt>
      <trkpt lat="43.63186" lon="3.81605">
        <ele>53</ele>
        <time>2021-03-06T15:24:57Z</time>
      </trkpt>
      <trkpt lat="43.63183" lon="3.81609">
        <ele>53</ele>
        <time>2021-03-06T15:24:58Z</time>
      </trkpt>
      <trkpt lat="43.6318" lon="3.81613">
        <ele>53</ele>
        <time>2021-03-06T15:24:59Z</time>
      </trkpt>
      <trkpt lat="43.63177" lon="3.81617">
        <ele>53</ele>
        <time>2021-03-06T15:25:00Z</time>
      </trkpt>
      <trkpt lat="43.63174" lon="3.8162">
        <ele>53</ele>
        <time>2021-03-06T15:25:01Z</time>
      </trkpt>
      <trkpt lat="43.63171" lon="3.81623">
        <ele>53</ele>
        <time>2021-03-06T15:25:02Z</time>
      </trkpt>
      <trkpt lat="43.63167" lon="3.81627">
        <ele>53</ele>
        <time>2021-03-06T15:25:03Z</time>
      </trkpt>
      <trkpt lat="43.63164" lon="3.81629">
        <ele>53</ele>
        <time>2021-03-06T15:25:04Z</time>
      </trkpt>
      <trkpt lat="43.63162" lon="3.81632">
        <ele>53</ele>
        <time>2021-03-06T15:25:05Z</time>
      </trkpt>
      <trkpt lat="43.63159" lon="3.81634">
        <ele>52</ele>
        <time>2021-03-06T15:25:07Z</time>
      </trkpt>
      <trkpt lat="43.63157" lon="3.81636">
        <ele>52</ele>
        <time>2021-03-06T15:25:09Z</time>
      </trkpt>
      <trkpt lat="43.63154" lon="3.81637">
        <ele>52</ele>
        <time>2021-03-06T15:25:11Z</time>
      </trkpt>
      <trkpt lat="43.63152" lon="3.81637">
        <ele>52</ele>
        <time>2021-03-06T15:25:12Z</time>
      </trkpt>
      <trkpt lat="43.6315" lon="3.81638">
        <ele>52</ele>
        <time>2021-03-06T15:25:13Z</time>
      </trkpt>
      <trkpt lat="43.63146" lon="3.8164">
        <ele>52</ele>
        <time>2021-03-06T15:25:14Z</time>
      </trkpt>
      <trkpt lat="43.63142" lon="3.81641">
        <ele>52</ele>
        <time>2021-03-06T15:25:15Z</time>
      </trkpt>
      <trkpt lat="43.63138" lon="3.81643">
        <ele>52</ele>
        <time>2021-03-06T15:25:16Z</time>
      </trkpt>
      <trkpt lat="43.63134" lon="3.81645">
        <ele>50</ele>
        <time>2021-03-06T15:25:17Z</time>
      </trkpt>
      <trkpt lat="43.63129" lon="3.81646">
        <ele>50</ele>
        <time>2021-03-06T15:25:18Z</time>
      </trkpt>
      <trkpt lat="43.63118" lon="3.81646">
        <ele>50</ele>
        <time>2021-03-06T15:25:21Z</time>
      </trkpt>
      <trkpt lat="43.63107" lon="3.81648">
        <ele>50</ele>
        <time>2021-03-06T15:25:24Z</time>
      </trkpt>
      <trkpt lat="43.63098" lon="3.81651">
        <ele>50</ele>
        <time>2021-03-06T15:25:27Z</time>
      </trkpt>
      <trkpt lat="43.63087" lon="3.81657">
        <ele>50</ele>
        <time>2021-03-06T15:25:31Z</time>
      </trkpt>
      <trkpt lat="43.63089" lon="3.8167">
        <ele>50</ele>
        <time>2021-03-06T15:25:34Z</time>
      </trkpt>
      <trkpt lat="43.63094" lon="3.8168">
        <ele>50</ele>
        <time>2021-03-06T15:25:38Z</time>
      </trkpt>
      <trkpt lat="43.63097" lon="3.81683">
        <ele>50</ele>
        <time>2021-03-06T15:25:44Z</time>
      </trkpt>
      <trkpt lat="43.63099" lon="3.81681">
        <ele>50</ele>
        <time>2021-03-06T15:25:47Z</time>
      </trkpt>
      <trkpt lat="43.63099" lon="3.81678">
        <ele>50</ele>
        <time>2021-03-06T15:25:49Z</time>
      </trkpt>
      <trkpt lat="43.63099" lon="3.81675">
        <ele>50</ele>
        <time>2021-03-06T15:25:51Z</time>
      </trkpt>
      <trkpt lat="43.63099" lon="3.81675">
        <ele>49</ele>
        <time>2021-03-06T15:25:58Z</time>
      </trkpt>
      <trkpt lat="43.63098" lon="3.81683">
        <ele>50</ele>
        <time>2021-03-06T15:26:03Z</time>
      </trkpt>
      <trkpt lat="43.63097" lon="3.81686">
        <ele>50</ele>
        <time>2021-03-06T15:26:05Z</time>
      </trkpt>
      <trkpt lat="43.63097" lon="3.81701">
        <ele>53</ele>
        <time>2021-03-06T15:26:39Z</time>
      </trkpt>
      <trkpt lat="43.63098" lon="3.81703">
        <ele>53</ele>
        <time>2021-03-06T15:26:41Z</time>
      </trkpt>
      <trkpt lat="43.63098" lon="3.81705">
        <ele>53</ele>
        <time>2021-03-06T15:26:44Z</time>
      </trkpt>
      <trkpt lat="43.63098" lon="3.81708">
        <ele>53</ele>
        <time>2021-03-06T15:26:47Z</time>
      </trkpt>
      <trkpt lat="43.63097" lon="3.81711">
        <ele>53</ele>
        <time>2021-03-06T15:26:50Z</time>
      </trkpt>
      <trkpt lat="43.63095" lon="3.81712">
        <ele>53</ele>
        <time>2021-03-06T15:26:54Z</time>
      </trkpt>
      <trkpt lat="43.63092" lon="3.81714">
        <ele>58</ele>
        <time>2021-03-06T15:26:59Z</time>
      </trkpt>
      <trkpt lat="43.63091" lon="3.81715">
        <ele>58</ele>
        <time>2021-03-06T15:27:00Z</time>
      </trkpt>
      <trkpt lat="43.6309" lon="3.81718">
        <ele>58</ele>
        <time>2021-03-06T15:27:02Z</time>
      </trkpt>
      <trkpt lat="43.63089" lon="3.81722">
        <ele>58</ele>
        <time>2021-03-06T15:27:04Z</time>
      </trkpt>
      <trkpt lat="43.63087" lon="3.81726">
        <ele>58</ele>
        <time>2021-03-06T15:27:06Z</time>
      </trkpt>
      <trkpt lat="43.63087" lon="3.8173">
        <ele>58</ele>
        <time>2021-03-06T15:27:08Z</time>
      </trkpt>
      <trkpt lat="43.63085" lon="3.81734">
        <ele>58</ele>
        <time>2021-03-06T15:27:10Z</time>
      </trkpt>
      <trkpt lat="43.63082" lon="3.81738">
        <ele>58</ele>
        <time>2021-03-06T15:27:12Z</time>
      </trkpt>
      <trkpt lat="43.63081" lon="3.8174">
        <ele>58</ele>
        <time>2021-03-06T15:27:13Z</time>
      </trkpt>
      <trkpt lat="43.6308" lon="3.81744">
        <ele>58</ele>
        <time>2021-03-06T15:27:15Z</time>
      </trkpt>
      <trkpt lat="43.63079" lon="3.81747">
        <ele>58</ele>
        <time>2021-03-06T15:27:17Z</time>
      </trkpt>
      <trkpt lat="43.63078" lon="3.8175">
        <ele>62</ele>
        <time>2021-03-06T15:27:19Z</time>
      </trkpt>
      <trkpt lat="43.63075" lon="3.81754">
        <ele>62</ele>
        <time>2021-03-06T15:27:20Z</time>
      </trkpt>
      <trkpt lat="43.63073" lon="3.81755">
        <ele>62</ele>
        <time>2021-03-06T15:27:21Z</time>
      </trkpt>
      <trkpt lat="43.63072" lon="3.81756">
        <ele>62</ele>
        <time>2021-03-06T15:27:22Z</time>
      </trkpt>
      <trkpt lat="43.6307" lon="3.81757">
        <ele>62</ele>
        <time>2021-03-06T15:27:23Z</time>
      </trkpt>
      <trkpt lat="43.63067" lon="3.81759">
        <ele>62</ele>
        <time>2021-03-06T15:27:25Z</time>
      </trkpt>
      <trkpt lat="43.63065" lon="3.8176">
        <ele>62</ele>
        <time>2021-03-06T15:27:26Z</time>
      </trkpt>
      <trkpt lat="43.63063" lon="3.81764">
        <ele>62</ele>
        <time>2021-03-06T15:27:28Z</time>
      </trkpt>
      <trkpt lat="43.63062" lon="3.81767">
        <ele>62</ele>
        <time>2021-03-06T15:27:30Z</time>
      </trkpt>
      <trkpt lat="43.63061" lon="3.81769">
        <ele>62</ele>
        <time>2021-03-06T15:27:31Z</time>
      </trkpt>
      <trkpt lat="43.63061" lon="3.81772">
        <ele>62</ele>
        <time>2021-03-06T15:27:32Z</time>
      </trkpt>
      <trkpt lat="43.63061" lon="3.81774">
        <ele>62</ele>
        <time>2021-03-06T15:27:33Z</time>
      </trkpt>
      <trkpt lat="43.63061" lon="3.81777">
        <ele>62</ele>
        <time>2021-03-06T15:27:34Z</time>
      </trkpt>
      <trkpt lat="43.63062" lon="3.8178">
        <ele>62</ele>
        <time>2021-03-06T15:27:35Z</time>
      </trkpt>
      <trkpt lat="43.63062" lon="3.81782">
        <ele>62</ele>
        <time>2021-03-06T15:27:36Z</time>
      </trkpt>
      <trkpt lat="43.63064" lon="3.81784">
        <ele>62</ele>
        <time>2021-03-06T15:27:37Z</time>
      </trkpt>
      <trkpt lat="43.63066" lon="3.81787">
        <ele>63</ele>
        <time>2021-03-06T15:27:39Z</time>
      </trkpt>
      <trkpt lat="43.63069" lon="3.8179">
        <ele>63</ele>
        <time>2021-03-06T15:27:41Z</time>
      </trkpt>
      <trkpt lat="43.63071" lon="3.81793">
        <ele>63</ele>
        <time>2021-03-06T15:27:42Z</time>
      </trkpt>
      <trkpt lat="43.63073" lon="3.81795">
        <ele>63</ele>
        <time>2021-03-06T15:27:43Z</time>
      </trkpt>
      <trkpt lat="43.63075" lon="3.81798">
        <ele>63</ele>
        <time>2021-03-06T15:27:44Z</time>
      </trkpt>
      <trkpt lat="43.63077" lon="3.81801">
        <ele>63</ele>
        <time>2021-03-06T15:27:45Z</time>
      </trkpt>
      <trkpt lat="43.63078" lon="3.81804">
        <ele>63</ele>
        <time>2021-03-06T15:27:46Z</time>
      </trkpt>
      <trkpt lat="43.63079" lon="3.81807">
        <ele>63</ele>
        <time>2021-03-06T15:27:47Z</time>
      </trkpt>
      <trkpt lat="43.6308" lon="3.8181">
        <ele>63</ele>
        <time>2021-03-06T15:27:48Z</time>
      </trkpt>
      <trkpt lat="43.63083" lon="3.81819">
        <ele>63</ele>
        <time>2021-03-06T15:27:50Z</time>
      </trkpt>
      <trkpt lat="43.63084" lon="3.81823">
        <ele>63</ele>
        <time>2021-03-06T15:27:51Z</time>
      </trkpt>
      <trkpt lat="43.63085" lon="3.81828">
        <ele>63</ele>
        <time>2021-03-06T15:27:52Z</time>
      </trkpt>
      <trkpt lat="43.63085" lon="3.81835">
        <ele>63</ele>
        <time>2021-03-06T15:27:53Z</time>
      </trkpt>
      <trkpt lat="43.63085" lon="3.81841">
        <ele>63</ele>
        <time>2021-03-06T15:27:54Z</time>
      </trkpt>
      <trkpt lat="43.63084" lon="3.81847">
        <ele>63</ele>
        <time>2021-03-06T15:27:55Z</time>
      </trkpt>
      <trkpt lat="43.63085" lon="3.81853">
        <ele>63</ele>
        <time>2021-03-06T15:27:56Z</time>
      </trkpt>
      <trkpt lat="43.63086" lon="3.81858">
        <ele>63</ele>
        <time>2021-03-06T15:27:57Z</time>
      </trkpt>
      <trkpt lat="43.63087" lon="3.81863">
        <ele>63</ele>
        <time>2021-03-06T15:27:58Z</time>
      </trkpt>
      <trkpt lat="43.63088" lon="3.81869">
        <ele>64</ele>
        <time>2021-03-06T15:27:59Z</time>
      </trkpt>
      <trkpt lat="43.63089" lon="3.81876">
        <ele>64</ele>
        <time>2021-03-06T15:28:00Z</time>
      </trkpt>
      <trkpt lat="43.63089" lon="3.81884">
        <ele>64</ele>
        <time>2021-03-06T15:28:01Z</time>
      </trkpt>
      <trkpt lat="43.63089" lon="3.81891">
        <ele>64</ele>
        <time>2021-03-06T15:28:02Z</time>
      </trkpt>
      <trkpt lat="43.63089" lon="3.81899">
        <ele>64</ele>
        <time>2021-03-06T15:28:03Z</time>
      </trkpt>
      <trkpt lat="43.63088" lon="3.81907">
        <ele>64</ele>
        <time>2021-03-06T15:28:04Z</time>
      </trkpt>
      <trkpt lat="43.63088" lon="3.81916">
        <ele>64</ele>
        <time>2021-03-06T15:28:05Z</time>
      </trkpt>
      <trkpt lat="43.63088" lon="3.81924">
        <ele>64</ele>
        <time>2021-03-06T15:28:06Z</time>
      </trkpt>
      <trkpt lat="43.63087" lon="3.81931">
        <ele>64</ele>
        <time>2021-03-06T15:28:07Z</time>
      </trkpt>
      <trkpt lat="43.63086" lon="3.81938">
        <ele>64</ele>
        <time>2021-03-06T15:28:08Z</time>
      </trkpt>
      <trkpt lat="43.63085" lon="3.81945">
        <ele>64</ele>
        <time>2021-03-06T15:28:09Z</time>
      </trkpt>
      <trkpt lat="43.63085" lon="3.81952">
        <ele>64</ele>
        <time>2021-03-06T15:28:10Z</time>
      </trkpt>
      <trkpt lat="43.63086" lon="3.81958">
        <ele>64</ele>
        <time>2021-03-06T15:28:11Z</time>
      </trkpt>
      <trkpt lat="43.63086" lon="3.81964">
        <ele>64</ele>
        <time>2021-03-06T15:28:12Z</time>
      </trkpt>
      <trkpt lat="43.63085" lon="3.8197">
        <ele>64</ele>
        <time>2021-03-06T15:28:13Z</time>
      </trkpt>
      <trkpt lat="43.63082" lon="3.81975">
        <ele>64</ele>
        <time>2021-03-06T15:28:14Z</time>
      </trkpt>
      <trkpt lat="43.63078" lon="3.81979">
        <ele>64</ele>
        <time>2021-03-06T15:28:15Z</time>
      </trkpt>
      <trkpt lat="43.63076" lon="3.81984">
        <ele>64</ele>
        <time>2021-03-06T15:28:16Z</time>
      </trkpt>
      <trkpt lat="43.63074" lon="3.81989">
        <ele>64</ele>
        <time>2021-03-06T15:28:17Z</time>
      </trkpt>
      <trkpt lat="43.63074" lon="3.81995">
        <ele>64</ele>
        <time>2021-03-06T15:28:18Z</time>
      </trkpt>
      <trkpt lat="43.63073" lon="3.82001">
        <ele>61</ele>
        <time>2021-03-06T15:28:19Z</time>
      </trkpt>
      <trkpt lat="43.63072" lon="3.82006">
        <ele>61</ele>
        <time>2021-03-06T15:28:20Z</time>
      </trkpt>
      <trkpt lat="43.63071" lon="3.82011">
        <ele>61</ele>
        <time>2021-03-06T15:28:21Z</time>
      </trkpt>
      <trkpt lat="43.63071" lon="3.82016">
        <ele>61</ele>
        <time>2021-03-06T15:28:22Z</time>
      </trkpt>
      <trkpt lat="43.63071" lon="3.8202">
        <ele>61</ele>
        <time>2021-03-06T15:28:23Z</time>
      </trkpt>
      <trkpt lat="43.63071" lon="3.82024">
        <ele>61</ele>
        <time>2021-03-06T15:28:24Z</time>
      </trkpt>
      <trkpt lat="43.63071" lon="3.82028">
        <ele>61</ele>
        <time>2021-03-06T15:28:25Z</time>
      </trkpt>
      <trkpt lat="43.63071" lon="3.82031">
        <ele>61</ele>
        <time>2021-03-06T15:28:26Z</time>
      </trkpt>
      <trkpt lat="43.63072" lon="3.82034">
        <ele>61</ele>
        <time>2021-03-06T15:28:27Z</time>
      </trkpt>
      <trkpt lat="43.63072" lon="3.82038">
        <ele>61</ele>
        <time>2021-03-06T15:28:28Z</time>
      </trkpt>
      <trkpt lat="43.63072" lon="3.82041">
        <ele>60</ele>
        <time>2021-03-06T15:28:29Z</time>
      </trkpt>
      <trkpt lat="43.63072" lon="3.82044">
        <ele>60</ele>
        <time>2021-03-06T15:28:30Z</time>
      </trkpt>
      <trkpt lat="43.63072" lon="3.82047">
        <ele>60</ele>
        <time>2021-03-06T15:28:31Z</time>
      </trkpt>
      <trkpt lat="43.63072" lon="3.82051">
        <ele>60</ele>
        <time>2021-03-06T15:28:32Z</time>
      </trkpt>
      <trkpt lat="43.63072" lon="3.82054">
        <ele>60</ele>
        <time>2021-03-06T15:28:33Z</time>
      </trkpt>
      <trkpt lat="43.63071" lon="3.82057">
        <ele>60</ele>
        <time>2021-03-06T15:28:34Z</time>
      </trkpt>
      <trkpt lat="43.63071" lon="3.82059">
        <ele>60</ele>
        <time>2021-03-06T15:28:35Z</time>
      </trkpt>
      <trkpt lat="43.63074" lon="3.82062">
        <ele>60</ele>
        <time>2021-03-06T15:28:37Z</time>
      </trkpt>
      <trkpt lat="43.63076" lon="3.82062">
        <ele>60</ele>
        <time>2021-03-06T15:28:38Z</time>
      </trkpt>
      <trkpt lat="43.63077" lon="3.82065">
        <ele>60</ele>
        <time>2021-03-06T15:28:40Z</time>
      </trkpt>
      <trkpt lat="43.63075" lon="3.82065">
        <ele>60</ele>
        <time>2021-03-06T15:28:42Z</time>
      </trkpt>
      <trkpt lat="43.63073" lon="3.82064">
        <ele>60</ele>
        <time>2021-03-06T15:28:43Z</time>
      </trkpt>
      <trkpt lat="43.63072" lon="3.82061">
        <ele>60</ele>
        <time>2021-03-06T15:28:44Z</time>
      </trkpt>
      <trkpt lat="43.63072" lon="3.82058">
        <ele>60</ele>
        <time>2021-03-06T15:28:45Z</time>
      </trkpt>
      <trkpt lat="43.63072" lon="3.82054">
        <ele>60</ele>
        <time>2021-03-06T15:28:46Z</time>
      </trkpt>
      <trkpt lat="43.63071" lon="3.82051">
        <ele>60</ele>
        <time>2021-03-06T15:28:47Z</time>
      </trkpt>
      <trkpt lat="43.63071" lon="3.82047">
        <ele>60</ele>
        <time>2021-03-06T15:28:48Z</time>
      </trkpt>
      <trkpt lat="43.63072" lon="3.82044">
        <ele>60</ele>
        <time>2021-03-06T15:28:49Z</time>
      </trkpt>
      <trkpt lat="43.63073" lon="3.82042">
        <ele>60</ele>
        <time>2021-03-06T15:28:50Z</time>
      </trkpt>
      <trkpt lat="43.63074" lon="3.8204">
        <ele>60</ele>
        <time>2021-03-06T15:28:51Z</time>
      </trkpt>
      <trkpt lat="43.63075" lon="3.82038">
        <ele>60</ele>
        <time>2021-03-06T15:28:52Z</time>
      </trkpt>
      <trkpt lat="43.63075" lon="3.82033">
        <ele>60</ele>
        <time>2021-03-06T15:28:53Z</time>
      </trkpt>
      <trkpt lat="43.63075" lon="3.8203">
        <ele>60</ele>
        <time>2021-03-06T15:28:54Z</time>
      </trkpt>
      <trkpt lat="43.63075" lon="3.82027">
        <ele>60</ele>
        <time>2021-03-06T15:28:55Z</time>
      </trkpt>
      <trkpt lat="43.63075" lon="3.82024">
        <ele>60</ele>
        <time>2021-03-06T15:28:56Z</time>
      </trkpt>
      <trkpt lat="43.63076" lon="3.82021">
        <ele>60</ele>
        <time>2021-03-06T15:28:57Z</time>
      </trkpt>
      <trkpt lat="43.63076" lon="3.82018">
        <ele>59</ele>
        <time>2021-03-06T15:28:59Z</time>
      </trkpt>
      <trkpt lat="43.63075" lon="3.82015">
        <ele>59</ele>
        <time>2021-03-06T15:29:01Z</time>
      </trkpt>
      <trkpt lat="43.63073" lon="3.82019">
        <ele>59</ele>
        <time>2021-03-06T15:29:06Z</time>
      </trkpt>
      <trkpt lat="43.63072" lon="3.82022">
        <ele>59</ele>
        <time>2021-03-06T15:29:07Z</time>
      </trkpt>
      <trkpt lat="43.63071" lon="3.82025">
        <ele>59</ele>
        <time>2021-03-06T15:29:08Z</time>
      </trkpt>
      <trkpt lat="43.63071" lon="3.82028">
        <ele>59</ele>
        <time>2021-03-06T15:29:09Z</time>
      </trkpt>
      <trkpt lat="43.63071" lon="3.82031">
        <ele>59</ele>
        <time>2021-03-06T15:29:10Z</time>
      </trkpt>
      <trkpt lat="43.63072" lon="3.82034">
        <ele>59</ele>
        <time>2021-03-06T15:29:11Z</time>
      </trkpt>
      <trkpt lat="43.63072" lon="3.82037">
        <ele>59</ele>
        <time>2021-03-06T15:29:12Z</time>
      </trkpt>
      <trkpt lat="43.63071" lon="3.8204">
        <ele>59</ele>
        <time>2021-03-06T15:29:13Z</time>
      </trkpt>
      <trkpt lat="43.63071" lon="3.82043">
        <ele>59</ele>
        <time>2021-03-06T15:29:14Z</time>
      </trkpt>
      <trkpt lat="43.63071" lon="3.82046">
        <ele>59</ele>
        <time>2021-03-06T15:29:15Z</time>
      </trkpt>
      <trkpt lat="43.6307" lon="3.82049">
        <ele>59</ele>
        <time>2021-03-06T15:29:16Z</time>
      </trkpt>
      <trkpt lat="43.63071" lon="3.82052">
        <ele>59</ele>
        <time>2021-03-06T15:29:17Z</time>
      </trkpt>
      <trkpt lat="43.63071" lon="3.82055">
        <ele>59</ele>
        <time>2021-03-06T15:29:18Z</time>
      </trkpt>
      <trkpt lat="43.63071" lon="3.82059">
        <ele>58</ele>
        <time>2021-03-06T15:29:19Z</time>
      </trkpt>
      <trkpt lat="43.63071" lon="3.82062">
        <ele>58</ele>
        <time>2021-03-06T15:29:20Z</time>
      </trkpt>
      <trkpt lat="43.63071" lon="3.82065">
        <ele>58</ele>
        <time>2021-03-06T15:29:21Z</time>
      </trkpt>
      <trkpt lat="43.63071" lon="3.82069">
        <ele>58</ele>
        <time>2021-03-06T15:29:22Z</time>
      </trkpt>
      <trkpt lat="43.63071" lon="3.82073">
        <ele>58</ele>
        <time>2021-03-06T15:29:23Z</time>
      </trkpt>
      <trkpt lat="43.63071" lon="3.82076">
        <ele>58</ele>
        <time>2021-03-06T15:29:24Z</time>
      </trkpt>
      <trkpt lat="43.63072" lon="3.8208">
        <ele>58</ele>
        <time>2021-03-06T15:29:25Z</time>
      </trkpt>
      <trkpt lat="43.63072" lon="3.82083">
        <ele>58</ele>
        <time>2021-03-06T15:29:26Z</time>
      </trkpt>
      <trkpt lat="43.63072" lon="3.82087">
        <ele>58</ele>
        <time>2021-03-06T15:29:27Z</time>
      </trkpt>
      <trkpt lat="43.63072" lon="3.8209">
        <ele>58</ele>
        <time>2021-03-06T15:29:28Z</time>
      </trkpt>
      <trkpt lat="43.63072" lon="3.82093">
        <ele>57</ele>
        <time>2021-03-06T15:29:29Z</time>
      </trkpt>
      <trkpt lat="43.63072" lon="3.82096">
        <ele>57</ele>
        <time>2021-03-06T15:29:30Z</time>
      </trkpt>
      <trkpt lat="43.63072" lon="3.82098">
        <ele>57</ele>
        <time>2021-03-06T15:29:31Z</time>
      </trkpt>
      <trkpt lat="43.63072" lon="3.82101">
        <ele>57</ele>
        <time>2021-03-06T15:29:32Z</time>
      </trkpt>
      <trkpt lat="43.63071" lon="3.82104">
        <ele>57</ele>
        <time>2021-03-06T15:29:33Z</time>
      </trkpt>
      <trkpt lat="43.63071" lon="3.82107">
        <ele>57</ele>
        <time>2021-03-06T15:29:34Z</time>
      </trkpt>
      <trkpt lat="43.63071" lon="3.82109">
        <ele>57</ele>
        <time>2021-03-06T15:29:35Z</time>
      </trkpt>
      <trkpt lat="43.63071" lon="3.82112">
        <ele>57</ele>
        <time>2021-03-06T15:29:36Z</time>
      </trkpt>
      <trkpt lat="43.6307" lon="3.82115">
        <ele>57</ele>
        <time>2021-03-06T15:29:37Z</time>
      </trkpt>
      <trkpt lat="43.63071" lon="3.82118">
        <ele>57</ele>
        <time>2021-03-06T15:29:38Z</time>
      </trkpt>
      <trkpt lat="43.63071" lon="3.8212">
        <ele>57</ele>
        <time>2021-03-06T15:29:39Z</time>
      </trkpt>
      <trkpt lat="43.63071" lon="3.82123">
        <ele>57</ele>
        <time>2021-03-06T15:29:40Z</time>
      </trkpt>
      <trkpt lat="43.63071" lon="3.82126">
        <ele>57</ele>
        <time>2021-03-06T15:29:41Z</time>
      </trkpt>
      <trkpt lat="43.63071" lon="3.82129">
        <ele>57</ele>
        <time>2021-03-06T15:29:42Z</time>
      </trkpt>
      <trkpt lat="43.63071" lon="3.82132">
        <ele>57</ele>
        <time>2021-03-06T15:29:43Z</time>
      </trkpt>
      <trkpt lat="43.63071" lon="3.82135">
        <ele>57</ele>
        <time>2021-03-06T15:29:44Z</time>
      </trkpt>
      <trkpt lat="43.63071" lon="3.82138">
        <ele>57</ele>
        <time>2021-03-06T15:29:45Z</time>
      </trkpt>
      <trkpt lat="43.63071" lon="3.82141">
        <ele>57</ele>
        <time>2021-03-06T15:29:46Z</time>
      </trkpt>
      <trkpt lat="43.63071" lon="3.82145">
        <ele>57</ele>
        <time>2021-03-06T15:29:47Z</time>
      </trkpt>
      <trkpt lat="43.63071" lon="3.82148">
        <ele>57</ele>
        <time>2021-03-06T15:29:48Z</time>
      </trkpt>
      <trkpt lat="43.63071" lon="3.82152">
        <ele>57</ele>
        <time>2021-03-06T15:29:49Z</time>
      </trkpt>
      <trkpt lat="43.63071" lon="3.82155">
        <ele>57</ele>
        <time>2021-03-06T15:29:50Z</time>
      </trkpt>
      <trkpt lat="43.63071" lon="3.82158">
        <ele>57</ele>
        <time>2021-03-06T15:29:51Z</time>
      </trkpt>
      <trkpt lat="43.6307" lon="3.82161">
        <ele>57</ele>
        <time>2021-03-06T15:29:52Z</time>
      </trkpt>
      <trkpt lat="43.6307" lon="3.82164">
        <ele>57</ele>
        <time>2021-03-06T15:29:53Z</time>
      </trkpt>
      <trkpt lat="43.6307" lon="3.82167">
        <ele>57</ele>
        <time>2021-03-06T15:29:54Z</time>
      </trkpt>
      <trkpt lat="43.6307" lon="3.8217">
        <ele>57</ele>
        <time>2021-03-06T15:29:55Z</time>
      </trkpt>
      <trkpt lat="43.6307" lon="3.82173">
        <ele>57</ele>
        <time>2021-03-06T15:29:56Z</time>
      </trkpt>
      <trkpt lat="43.6307" lon="3.82176">
        <ele>57</ele>
        <time>2021-03-06T15:29:57Z</time>
      </trkpt>
      <trkpt lat="43.6307" lon="3.82179">
        <ele>57</ele>
        <time>2021-03-06T15:29:58Z</time>
      </trkpt>
      <trkpt lat="43.6307" lon="3.82182">
        <ele>58</ele>
        <time>2021-03-06T15:29:59Z</time>
      </trkpt>
      <trkpt lat="43.6307" lon="3.82185">
        <ele>58</ele>
        <time>2021-03-06T15:30:00Z</time>
      </trkpt>
      <trkpt lat="43.6307" lon="3.82188">
        <ele>58</ele>
        <time>2021-03-06T15:30:01Z</time>
      </trkpt>
      <trkpt lat="43.6307" lon="3.82192">
        <ele>58</ele>
        <time>2021-03-06T15:30:02Z</time>
      </trkpt>
      <trkpt lat="43.6307" lon="3.82195">
        <ele>58</ele>
        <time>2021-03-06T15:30:03Z</time>
      </trkpt>
      <trkpt lat="43.6307" lon="3.82198">
        <ele>58</ele>
        <time>2021-03-06T15:30:04Z</time>
      </trkpt>
      <trkpt lat="43.63072" lon="3.82202">
        <ele>58</ele>
        <time>2021-03-06T15:30:06Z</time>
      </trkpt>
      <trkpt lat="43.63073" lon="3.82205">
        <ele>58</ele>
        <time>2021-03-06T15:30:08Z</time>
      </trkpt>
      <trkpt lat="43.63073" lon="3.82209">
        <ele>58</ele>
        <time>2021-03-06T15:30:10Z</time>
      </trkpt>
      <trkpt lat="43.63073" lon="3.82214">
        <ele>58</ele>
        <time>2021-03-06T15:30:12Z</time>
      </trkpt>
      <trkpt lat="43.63073" lon="3.82217">
        <ele>58</ele>
        <time>2021-03-06T15:30:13Z</time>
      </trkpt>
      <trkpt lat="43.63071" lon="3.82219">
        <ele>58</ele>
        <time>2021-03-06T15:30:14Z</time>
      </trkpt>
      <trkpt lat="43.63069" lon="3.82221">
        <ele>58</ele>
        <time>2021-03-06T15:30:15Z</time>
      </trkpt>
      <trkpt lat="43.63068" lon="3.82223">
        <ele>58</ele>
        <time>2021-03-06T15:30:16Z</time>
      </trkpt>
      <trkpt lat="43.63066" lon="3.82226">
        <ele>58</ele>
        <time>2021-03-06T15:30:17Z</time>
      </trkpt>
      <trkpt lat="43.63065" lon="3.82228">
        <ele>58</ele>
        <time>2021-03-06T15:30:18Z</time>
      </trkpt>
      <trkpt lat="43.63064" lon="3.8223">
        <ele>59</ele>
        <time>2021-03-06T15:30:19Z</time>
      </trkpt>
      <trkpt lat="43.63063" lon="3.82233">
        <ele>59</ele>
        <time>2021-03-06T15:30:20Z</time>
      </trkpt>
      <trkpt lat="43.63063" lon="3.82236">
        <ele>59</ele>
        <time>2021-03-06T15:30:21Z</time>
      </trkpt>
      <trkpt lat="43.63063" lon="3.82239">
        <ele>59</ele>
        <time>2021-03-06T15:30:22Z</time>
      </trkpt>
      <trkpt lat="43.63063" lon="3.82242">
        <ele>59</ele>
        <time>2021-03-06T15:30:23Z</time>
      </trkpt>
      <trkpt lat="43.63063" lon="3.82245">
        <ele>59</ele>
        <time>2021-03-06T15:30:24Z</time>
      </trkpt>
      <trkpt lat="43.63063" lon="3.82249">
        <ele>59</ele>
        <time>2021-03-06T15:30:25Z</time>
      </trkpt>
      <trkpt lat="43.63063" lon="3.82252">
        <ele>59</ele>
        <time>2021-03-06T15:30:26Z</time>
      </trkpt>
      <trkpt lat="43.63063" lon="3.82255">
        <ele>59</ele>
        <time>2021-03-06T15:30:27Z</time>
      </trkpt>
      <trkpt lat="43.63063" lon="3.82258">
        <ele>59</ele>
        <time>2021-03-06T15:30:28Z</time>
      </trkpt>
      <trkpt lat="43.63063" lon="3.82261">
        <ele>60</ele>
        <time>2021-03-06T15:30:29Z</time>
      </trkpt>
      <trkpt lat="43.63064" lon="3.82264">
        <ele>60</ele>
        <time>2021-03-06T15:30:30Z</time>
      </trkpt>
      <trkpt lat="43.63064" lon="3.82267">
        <ele>60</ele>
        <time>2021-03-06T15:30:31Z</time>
      </trkpt>
      <trkpt lat="43.63064" lon="3.82271">
        <ele>60</ele>
        <time>2021-03-06T15:30:33Z</time>
      </trkpt>
      <trkpt lat="43.63064" lon="3.82274">
        <ele>60</ele>
        <time>2021-03-06T15:30:34Z</time>
      </trkpt>
      <trkpt lat="43.63064" lon="3.82277">
        <ele>60</ele>
        <time>2021-03-06T15:30:35Z</time>
      </trkpt>
      <trkpt lat="43.63064" lon="3.82281">
        <ele>60</ele>
        <time>2021-03-06T15:30:36Z</time>
      </trkpt>
      <trkpt lat="43.63064" lon="3.82286">
        <ele>60</ele>
        <time>2021-03-06T15:30:37Z</time>
      </trkpt>
      <trkpt lat="43.63063" lon="3.82291">
        <ele>60</ele>
        <time>2021-03-06T15:30:38Z</time>
      </trkpt>
      <trkpt lat="43.63062" lon="3.82295">
        <ele>59</ele>
        <time>2021-03-06T15:30:39Z</time>
      </trkpt>
      <trkpt lat="43.6306" lon="3.82299">
        <ele>59</ele>
        <time>2021-03-06T15:30:40Z</time>
      </trkpt>
      <trkpt lat="43.63059" lon="3.82304">
        <ele>59</ele>
        <time>2021-03-06T15:30:41Z</time>
      </trkpt>
      <trkpt lat="43.63059" lon="3.82309">
        <ele>59</ele>
        <time>2021-03-06T15:30:42Z</time>
      </trkpt>
      <trkpt lat="43.63059" lon="3.82314">
        <ele>59</ele>
        <time>2021-03-06T15:30:43Z</time>
      </trkpt>
      <trkpt lat="43.63059" lon="3.8232">
        <ele>59</ele>
        <time>2021-03-06T15:30:44Z</time>
      </trkpt>
      <trkpt lat="43.63059" lon="3.82325">
        <ele>59</ele>
        <time>2021-03-06T15:30:45Z</time>
      </trkpt>
      <trkpt lat="43.63059" lon="3.8233">
        <ele>59</ele>
        <time>2021-03-06T15:30:46Z</time>
      </trkpt>
      <trkpt lat="43.63059" lon="3.82335">
        <ele>59</ele>
        <time>2021-03-06T15:30:47Z</time>
      </trkpt>
      <trkpt lat="43.63059" lon="3.8234">
        <ele>59</ele>
        <time>2021-03-06T15:30:48Z</time>
      </trkpt>
      <trkpt lat="43.63059" lon="3.82345">
        <ele>59</ele>
        <time>2021-03-06T15:30:49Z</time>
      </trkpt>
      <trkpt lat="43.63059" lon="3.8235">
        <ele>59</ele>
        <time>2021-03-06T15:30:50Z</time>
      </trkpt>
      <trkpt lat="43.63059" lon="3.82355">
        <ele>59</ele>
        <time>2021-03-06T15:30:51Z</time>
      </trkpt>
      <trkpt lat="43.63059" lon="3.8236">
        <ele>59</ele>
        <time>2021-03-06T15:30:52Z</time>
      </trkpt>
      <trkpt lat="43.63058" lon="3.82365">
        <ele>59</ele>
        <time>2021-03-06T15:30:53Z</time>
      </trkpt>
      <trkpt lat="43.63058" lon="3.8237">
        <ele>59</ele>
        <time>2021-03-06T15:30:54Z</time>
      </trkpt>
      <trkpt lat="43.63058" lon="3.82375">
        <ele>59</ele>
        <time>2021-03-06T15:30:55Z</time>
      </trkpt>
      <trkpt lat="43.63057" lon="3.8238">
        <ele>59</ele>
        <time>2021-03-06T15:30:56Z</time>
      </trkpt>
      <trkpt lat="43.63057" lon="3.82384">
        <ele>59</ele>
        <time>2021-03-06T15:30:57Z</time>
      </trkpt>
      <trkpt lat="43.63057" lon="3.82388">
        <ele>59</ele>
        <time>2021-03-06T15:30:58Z</time>
      </trkpt>
      <trkpt lat="43.63057" lon="3.82392">
        <ele>60</ele>
        <time>2021-03-06T15:30:59Z</time>
      </trkpt>
      <trkpt lat="43.63057" lon="3.82396">
        <ele>60</ele>
        <time>2021-03-06T15:31:00Z</time>
      </trkpt>
      <trkpt lat="43.63057" lon="3.824">
        <ele>60</ele>
        <time>2021-03-06T15:31:01Z</time>
      </trkpt>
      <trkpt lat="43.63057" lon="3.82404">
        <ele>60</ele>
        <time>2021-03-06T15:31:02Z</time>
      </trkpt>
      <trkpt lat="43.63058" lon="3.82408">
        <ele>60</ele>
        <time>2021-03-06T15:31:03Z</time>
      </trkpt>
      <trkpt lat="43.63058" lon="3.82413">
        <ele>60</ele>
        <time>2021-03-06T15:31:04Z</time>
      </trkpt>
      <trkpt lat="43.63058" lon="3.82417">
        <ele>60</ele>
        <time>2021-03-06T15:31:05Z</time>
      </trkpt>
      <trkpt lat="43.63058" lon="3.82422">
        <ele>60</ele>
        <time>2021-03-06T15:31:06Z</time>
      </trkpt>
      <trkpt lat="43.63058" lon="3.82426">
        <ele>60</ele>
        <time>2021-03-06T15:31:07Z</time>
      </trkpt>
      <trkpt lat="43.63059" lon="3.8243">
        <ele>60</ele>
        <time>2021-03-06T15:31:08Z</time>
      </trkpt>
      <trkpt lat="43.63059" lon="3.8244">
        <ele>60</ele>
        <time>2021-03-06T15:31:09Z</time>
      </trkpt>
      <trkpt lat="43.63059" lon="3.82444">
        <ele>60</ele>
        <time>2021-03-06T15:31:10Z</time>
      </trkpt>
      <trkpt lat="43.63059" lon="3.82449">
        <ele>60</ele>
        <time>2021-03-06T15:31:11Z</time>
      </trkpt>
      <trkpt lat="43.63059" lon="3.82453">
        <ele>60</ele>
        <time>2021-03-06T15:31:12Z</time>
      </trkpt>
      <trkpt lat="43.63058" lon="3.82457">
        <ele>60</ele>
        <time>2021-03-06T15:31:13Z</time>
      </trkpt>
      <trkpt lat="43.63057" lon="3.82461">
        <ele>60</ele>
        <time>2021-03-06T15:31:14Z</time>
      </trkpt>
      <trkpt lat="43.63057" lon="3.82466">
        <ele>60</ele>
        <time>2021-03-06T15:31:15Z</time>
      </trkpt>
      <trkpt lat="43.63056" lon="3.8247">
        <ele>60</ele>
        <time>2021-03-06T15:31:16Z</time>
      </trkpt>
      <trkpt lat="43.63056" lon="3.82474">
        <ele>60</ele>
        <time>2021-03-06T15:31:17Z</time>
      </trkpt>
      <trkpt lat="43.63056" lon="3.82479">
        <ele>60</ele>
        <time>2021-03-06T15:31:18Z</time>
      </trkpt>
      <trkpt lat="43.63055" lon="3.82483">
        <ele>60</ele>
        <time>2021-03-06T15:31:20Z</time>
      </trkpt>
      <trkpt lat="43.63054" lon="3.82488">
        <ele>60</ele>
        <time>2021-03-06T15:31:21Z</time>
      </trkpt>
      <trkpt lat="43.63054" lon="3.82492">
        <ele>60</ele>
        <time>2021-03-06T15:31:22Z</time>
      </trkpt>
      <trkpt lat="43.63053" lon="3.82497">
        <ele>60</ele>
        <time>2021-03-06T15:31:23Z</time>
      </trkpt>
      <trkpt lat="43.63052" lon="3.82501">
        <ele>60</ele>
        <time>2021-03-06T15:31:24Z</time>
      </trkpt>
      <trkpt lat="43.6305" lon="3.82506">
        <ele>60</ele>
        <time>2021-03-06T15:31:25Z</time>
      </trkpt>
      <trkpt lat="43.63049" lon="3.8251">
        <ele>60</ele>
        <time>2021-03-06T15:31:26Z</time>
      </trkpt>
      <trkpt lat="43.63047" lon="3.82514">
        <ele>60</ele>
        <time>2021-03-06T15:31:27Z</time>
      </trkpt>
      <trkpt lat="43.63045" lon="3.82518">
        <ele>60</ele>
        <time>2021-03-06T15:31:28Z</time>
      </trkpt>
      <trkpt lat="43.63044" lon="3.82523">
        <ele>58</ele>
        <time>2021-03-06T15:31:29Z</time>
      </trkpt>
      <trkpt lat="43.63045" lon="3.82528">
        <ele>58</ele>
        <time>2021-03-06T15:31:30Z</time>
      </trkpt>
      <trkpt lat="43.63045" lon="3.82532">
        <ele>58</ele>
        <time>2021-03-06T15:31:31Z</time>
      </trkpt>
      <trkpt lat="43.63045" lon="3.82537">
        <ele>58</ele>
        <time>2021-03-06T15:31:32Z</time>
      </trkpt>
      <trkpt lat="43.63044" lon="3.82542">
        <ele>58</ele>
        <time>2021-03-06T15:31:33Z</time>
      </trkpt>
      <trkpt lat="43.63043" lon="3.82547">
        <ele>58</ele>
        <time>2021-03-06T15:31:34Z</time>
      </trkpt>
      <trkpt lat="43.63042" lon="3.82551">
        <ele>58</ele>
        <time>2021-03-06T15:31:35Z</time>
      </trkpt>
      <trkpt lat="43.63042" lon="3.82555">
        <ele>58</ele>
        <time>2021-03-06T15:31:36Z</time>
      </trkpt>
      <trkpt lat="43.63042" lon="3.8256">
        <ele>58</ele>
        <time>2021-03-06T15:31:37Z</time>
      </trkpt>
      <trkpt lat="43.63042" lon="3.82564">
        <ele>58</ele>
        <time>2021-03-06T15:31:38Z</time>
      </trkpt>
      <trkpt lat="43.63041" lon="3.82568">
        <ele>58</ele>
        <time>2021-03-06T15:31:39Z</time>
      </trkpt>
      <trkpt lat="43.63041" lon="3.82571">
        <ele>58</ele>
        <time>2021-03-06T15:31:40Z</time>
      </trkpt>
      <trkpt lat="43.63041" lon="3.82575">
        <ele>58</ele>
        <time>2021-03-06T15:31:41Z</time>
      </trkpt>
      <trkpt lat="43.63041" lon="3.82578">
        <ele>58</ele>
        <time>2021-03-06T15:31:42Z</time>
      </trkpt>
      <trkpt lat="43.6304" lon="3.82581">
        <ele>58</ele>
        <time>2021-03-06T15:31:43Z</time>
      </trkpt>
      <trkpt lat="43.6304" lon="3.82585">
        <ele>58</ele>
        <time>2021-03-06T15:31:44Z</time>
      </trkpt>
      <trkpt lat="43.6304" lon="3.82588">
        <ele>58</ele>
        <time>2021-03-06T15:31:45Z</time>
      </trkpt>
      <trkpt lat="43.63039" lon="3.82592">
        <ele>58</ele>
        <time>2021-03-06T15:31:46Z</time>
      </trkpt>
      <trkpt lat="43.63039" lon="3.82595">
        <ele>58</ele>
        <time>2021-03-06T15:31:47Z</time>
      </trkpt>
      <trkpt lat="43.63039" lon="3.82599">
        <ele>58</ele>
        <time>2021-03-06T15:31:48Z</time>
      </trkpt>
      <trkpt lat="43.63039" lon="3.82602">
        <ele>59</ele>
        <time>2021-03-06T15:31:49Z</time>
      </trkpt>
      <trkpt lat="43.63039" lon="3.82606">
        <ele>59</ele>
        <time>2021-03-06T15:31:50Z</time>
      </trkpt>
      <trkpt lat="43.63038" lon="3.82609">
        <ele>59</ele>
        <time>2021-03-06T15:31:51Z</time>
      </trkpt>
      <trkpt lat="43.63037" lon="3.82612">
        <ele>59</ele>
        <time>2021-03-06T15:31:52Z</time>
      </trkpt>
      <trkpt lat="43.63037" lon="3.82615">
        <ele>59</ele>
        <time>2021-03-06T15:31:53Z</time>
      </trkpt>
      <trkpt lat="43.63037" lon="3.82619">
        <ele>59</ele>
        <time>2021-03-06T15:31:54Z</time>
      </trkpt>
      <trkpt lat="43.63036" lon="3.82622">
        <ele>59</ele>
        <time>2021-03-06T15:31:55Z</time>
      </trkpt>
      <trkpt lat="43.63035" lon="3.82625">
        <ele>59</ele>
        <time>2021-03-06T15:31:56Z</time>
      </trkpt>
      <trkpt lat="43.63035" lon="3.82627">
        <ele>59</ele>
        <time>2021-03-06T15:31:57Z</time>
      </trkpt>
      <trkpt lat="43.63034" lon="3.8263">
        <ele>59</ele>
        <time>2021-03-06T15:31:58Z</time>
      </trkpt>
      <trkpt lat="43.63032" lon="3.82632">
        <ele>61</ele>
        <time>2021-03-06T15:31:59Z</time>
      </trkpt>
      <trkpt lat="43.63031" lon="3.82634">
        <ele>61</ele>
        <time>2021-03-06T15:32:00Z</time>
      </trkpt>
      <trkpt lat="43.63029" lon="3.82635">
        <ele>61</ele>
        <time>2021-03-06T15:32:01Z</time>
      </trkpt>
      <trkpt lat="43.63027" lon="3.82637">
        <ele>61</ele>
        <time>2021-03-06T15:32:02Z</time>
      </trkpt>
      <trkpt lat="43.63025" lon="3.82637">
        <ele>61</ele>
        <time>2021-03-06T15:32:03Z</time>
      </trkpt>
      <trkpt lat="43.63023" lon="3.82637">
        <ele>61</ele>
        <time>2021-03-06T15:32:04Z</time>
      </trkpt>
      <trkpt lat="43.6302" lon="3.82637">
        <ele>61</ele>
        <time>2021-03-06T15:32:05Z</time>
      </trkpt>
      <trkpt lat="43.63018" lon="3.82636">
        <ele>61</ele>
        <time>2021-03-06T15:32:06Z</time>
      </trkpt>
      <trkpt lat="43.63016" lon="3.82637">
        <ele>61</ele>
        <time>2021-03-06T15:32:07Z</time>
      </trkpt>
      <trkpt lat="43.63014" lon="3.82637">
        <ele>61</ele>
        <time>2021-03-06T15:32:08Z</time>
      </trkpt>
      <trkpt lat="43.63012" lon="3.82637">
        <ele>61</ele>
        <time>2021-03-06T15:32:09Z</time>
      </trkpt>
      <trkpt lat="43.6301" lon="3.82638">
        <ele>61</ele>
        <time>2021-03-06T15:32:10Z</time>
      </trkpt>
      <trkpt lat="43.63009" lon="3.8264">
        <ele>61</ele>
        <time>2021-03-06T15:32:11Z</time>
      </trkpt>
      <trkpt lat="43.63007" lon="3.82642">
        <ele>61</ele>
        <time>2021-03-06T15:32:12Z</time>
      </trkpt>
      <trkpt lat="43.63005" lon="3.82645">
        <ele>61</ele>
        <time>2021-03-06T15:32:13Z</time>
      </trkpt>
      <trkpt lat="43.63003" lon="3.82648">
        <ele>61</ele>
        <time>2021-03-06T15:32:14Z</time>
      </trkpt>
      <trkpt lat="43.63001" lon="3.8265">
        <ele>61</ele>
        <time>2021-03-06T15:32:15Z</time>
      </trkpt>
      <trkpt lat="43.62999" lon="3.82653">
        <ele>61</ele>
        <time>2021-03-06T15:32:16Z</time>
      </trkpt>
      <trkpt lat="43.62997" lon="3.82656">
        <ele>61</ele>
        <time>2021-03-06T15:32:17Z</time>
      </trkpt>
      <trkpt lat="43.62996" lon="3.82659">
        <ele>61</ele>
        <time>2021-03-06T15:32:18Z</time>
      </trkpt>
      <trkpt lat="43.62994" lon="3.82661">
        <ele>62</ele>
        <time>2021-03-06T15:32:19Z</time>
      </trkpt>
      <trkpt lat="43.62992" lon="3.82663">
        <ele>62</ele>
        <time>2021-03-06T15:32:20Z</time>
      </trkpt>
      <trkpt lat="43.62991" lon="3.82665">
        <ele>62</ele>
        <time>2021-03-06T15:32:21Z</time>
      </trkpt>
      <trkpt lat="43.6299" lon="3.82668">
        <ele>62</ele>
        <time>2021-03-06T15:32:22Z</time>
      </trkpt>
      <trkpt lat="43.62988" lon="3.8267">
        <ele>62</ele>
        <time>2021-03-06T15:32:23Z</time>
      </trkpt>
      <trkpt lat="43.62986" lon="3.82671">
        <ele>62</ele>
        <time>2021-03-06T15:32:24Z</time>
      </trkpt>
      <trkpt lat="43.62983" lon="3.82671">
        <ele>62</ele>
        <time>2021-03-06T15:32:25Z</time>
      </trkpt>
      <trkpt lat="43.62981" lon="3.82672">
        <ele>62</ele>
        <time>2021-03-06T15:32:26Z</time>
      </trkpt>
      <trkpt lat="43.62979" lon="3.82671">
        <ele>62</ele>
        <time>2021-03-06T15:32:27Z</time>
      </trkpt>
      <trkpt lat="43.62976" lon="3.82673">
        <ele>62</ele>
        <time>2021-03-06T15:32:29Z</time>
      </trkpt>
      <trkpt lat="43.62974" lon="3.82675">
        <ele>62</ele>
        <time>2021-03-06T15:32:30Z</time>
      </trkpt>
      <trkpt lat="43.62973" lon="3.82677">
        <ele>62</ele>
        <time>2021-03-06T15:32:31Z</time>
      </trkpt>
      <trkpt lat="43.62971" lon="3.82679">
        <ele>62</ele>
        <time>2021-03-06T15:32:32Z</time>
      </trkpt>
      <trkpt lat="43.62969" lon="3.82681">
        <ele>62</ele>
        <time>2021-03-06T15:32:33Z</time>
      </trkpt>
      <trkpt lat="43.62967" lon="3.82683">
        <ele>62</ele>
        <time>2021-03-06T15:32:34Z</time>
      </trkpt>
      <trkpt lat="43.62966" lon="3.82686">
        <ele>62</ele>
        <time>2021-03-06T15:32:35Z</time>
      </trkpt>
      <trkpt lat="43.62964" lon="3.82688">
        <ele>62</ele>
        <time>2021-03-06T15:32:36Z</time>
      </trkpt>
      <trkpt lat="43.62962" lon="3.8269">
        <ele>62</ele>
        <time>2021-03-06T15:32:37Z</time>
      </trkpt>
      <trkpt lat="43.6296" lon="3.82692">
        <ele>62</ele>
        <time>2021-03-06T15:32:38Z</time>
      </trkpt>
      <trkpt lat="43.62958" lon="3.82694">
        <ele>62</ele>
        <time>2021-03-06T15:32:39Z</time>
      </trkpt>
      <trkpt lat="43.62956" lon="3.82697">
        <ele>62</ele>
        <time>2021-03-06T15:32:40Z</time>
      </trkpt>
      <trkpt lat="43.62954" lon="3.82699">
        <ele>62</ele>
        <time>2021-03-06T15:32:41Z</time>
      </trkpt>
      <trkpt lat="43.62952" lon="3.82702">
        <ele>62</ele>
        <time>2021-03-06T15:32:42Z</time>
      </trkpt>
      <trkpt lat="43.6295" lon="3.82704">
        <ele>62</ele>
        <time>2021-03-06T15:32:43Z</time>
      </trkpt>
      <trkpt lat="43.62948" lon="3.82706">
        <ele>62</ele>
        <time>2021-03-06T15:32:44Z</time>
      </trkpt>
      <trkpt lat="43.62946" lon="3.82708">
        <ele>62</ele>
        <time>2021-03-06T15:32:45Z</time>
      </trkpt>
      <trkpt lat="43.62944" lon="3.82711">
        <ele>62</ele>
        <time>2021-03-06T15:32:46Z</time>
      </trkpt>
      <trkpt lat="43.62941" lon="3.82713">
        <ele>62</ele>
        <time>2021-03-06T15:32:47Z</time>
      </trkpt>
      <trkpt lat="43.6294" lon="3.82716">
        <ele>62</ele>
        <time>2021-03-06T15:32:48Z</time>
      </trkpt>
      <trkpt lat="43.62938" lon="3.82719">
        <ele>62</ele>
        <time>2021-03-06T15:32:49Z</time>
      </trkpt>
      <trkpt lat="43.62937" lon="3.82721">
        <ele>62</ele>
        <time>2021-03-06T15:32:50Z</time>
      </trkpt>
      <trkpt lat="43.62934" lon="3.82724">
        <ele>62</ele>
        <time>2021-03-06T15:32:51Z</time>
      </trkpt>
      <trkpt lat="43.62932" lon="3.82726">
        <ele>62</ele>
        <time>2021-03-06T15:32:52Z</time>
      </trkpt>
      <trkpt lat="43.6293" lon="3.82728">
        <ele>62</ele>
        <time>2021-03-06T15:32:53Z</time>
      </trkpt>
      <trkpt lat="43.62928" lon="3.8273">
        <ele>62</ele>
        <time>2021-03-06T15:32:54Z</time>
      </trkpt>
      <trkpt lat="43.62926" lon="3.82733">
        <ele>62</ele>
        <time>2021-03-06T15:32:55Z</time>
      </trkpt>
      <trkpt lat="43.62924" lon="3.82736">
        <ele>62</ele>
        <time>2021-03-06T15:32:56Z</time>
      </trkpt>
      <trkpt lat="43.62922" lon="3.82738">
        <ele>62</ele>
        <time>2021-03-06T15:32:57Z</time>
      </trkpt>
      <trkpt lat="43.6292" lon="3.82741">
        <ele>62</ele>
        <time>2021-03-06T15:32:58Z</time>
      </trkpt>
      <trkpt lat="43.62918" lon="3.82743">
        <ele>62</ele>
        <time>2021-03-06T15:32:59Z</time>
      </trkpt>
      <trkpt lat="43.62916" lon="3.82745">
        <ele>62</ele>
        <time>2021-03-06T15:33:00Z</time>
      </trkpt>
      <trkpt lat="43.62914" lon="3.82748">
        <ele>62</ele>
        <time>2021-03-06T15:33:01Z</time>
      </trkpt>
      <trkpt lat="43.62913" lon="3.8275">
        <ele>62</ele>
        <time>2021-03-06T15:33:02Z</time>
      </trkpt>
      <trkpt lat="43.62911" lon="3.82752">
        <ele>62</ele>
        <time>2021-03-06T15:33:03Z</time>
      </trkpt>
      <trkpt lat="43.6291" lon="3.82754">
        <ele>62</ele>
        <time>2021-03-06T15:33:05Z</time>
      </trkpt>
      <trkpt lat="43.62908" lon="3.82756">
        <ele>62</ele>
        <time>2021-03-06T15:33:07Z</time>
      </trkpt>
      <trkpt lat="43.62906" lon="3.82757">
        <ele>62</ele>
        <time>2021-03-06T15:33:11Z</time>
      </trkpt>
      <trkpt lat="43.62904" lon="3.82759">
        <ele>62</ele>
        <time>2021-03-06T15:33:13Z</time>
      </trkpt>
      <trkpt lat="43.62902" lon="3.82761">
        <ele>62</ele>
        <time>2021-03-06T15:33:15Z</time>
      </trkpt>
      <trkpt lat="43.62902" lon="3.82764">
        <ele>62</ele>
        <time>2021-03-06T15:33:16Z</time>
      </trkpt>
      <trkpt lat="43.62901" lon="3.82769">
        <ele>62</ele>
        <time>2021-03-06T15:33:17Z</time>
      </trkpt>
      <trkpt lat="43.62902" lon="3.82775">
        <ele>62</ele>
        <time>2021-03-06T15:33:18Z</time>
      </trkpt>
      <trkpt lat="43.62902" lon="3.82781">
        <ele>64</ele>
        <time>2021-03-06T15:33:19Z</time>
      </trkpt>
      <trkpt lat="43.62902" lon="3.82788">
        <ele>64</ele>
        <time>2021-03-06T15:33:20Z</time>
      </trkpt>
      <trkpt lat="43.62901" lon="3.82794">
        <ele>64</ele>
        <time>2021-03-06T15:33:21Z</time>
      </trkpt>
      <trkpt lat="43.62901" lon="3.82799">
        <ele>64</ele>
        <time>2021-03-06T15:33:22Z</time>
      </trkpt>
      <trkpt lat="43.62901" lon="3.82804">
        <ele>64</ele>
        <time>2021-03-06T15:33:23Z</time>
      </trkpt>
      <trkpt lat="43.62902" lon="3.82807">
        <ele>64</ele>
        <time>2021-03-06T15:33:24Z</time>
      </trkpt>
      <trkpt lat="43.62905" lon="3.82808">
        <ele>64</ele>
        <time>2021-03-06T15:33:26Z</time>
      </trkpt>
      <trkpt lat="43.62905" lon="3.82805">
        <ele>64</ele>
        <time>2021-03-06T15:33:28Z</time>
      </trkpt>
      <trkpt lat="43.62904" lon="3.82804">
        <ele>64</ele>
        <time>2021-03-06T15:33:30Z</time>
      </trkpt>
      <trkpt lat="43.62903" lon="3.82806">
        <ele>64</ele>
        <time>2021-03-06T15:33:32Z</time>
      </trkpt>
      <trkpt lat="43.62901" lon="3.8281">
        <ele>64</ele>
        <time>2021-03-06T15:33:33Z</time>
      </trkpt>
      <trkpt lat="43.629" lon="3.82812">
        <ele>64</ele>
        <time>2021-03-06T15:33:35Z</time>
      </trkpt>
      <trkpt lat="43.62898" lon="3.82814">
        <ele>64</ele>
        <time>2021-03-06T15:33:37Z</time>
      </trkpt>
      <trkpt lat="43.62895" lon="3.82814">
        <ele>64</ele>
        <time>2021-03-06T15:33:38Z</time>
      </trkpt>
      <trkpt lat="43.62892" lon="3.82815">
        <ele>64</ele>
        <time>2021-03-06T15:33:41Z</time>
      </trkpt>
      <trkpt lat="43.62889" lon="3.82814">
        <ele>64</ele>
        <time>2021-03-06T15:33:43Z</time>
      </trkpt>
      <trkpt lat="43.62885" lon="3.82815">
        <ele>64</ele>
        <time>2021-03-06T15:33:45Z</time>
      </trkpt>
      <trkpt lat="43.62882" lon="3.82815">
        <ele>64</ele>
        <time>2021-03-06T15:33:46Z</time>
      </trkpt>
      <trkpt lat="43.62879" lon="3.82816">
        <ele>64</ele>
        <time>2021-03-06T15:33:47Z</time>
      </trkpt>
      <trkpt lat="43.62876" lon="3.82818">
        <ele>64</ele>
        <time>2021-03-06T15:33:48Z</time>
      </trkpt>
      <trkpt lat="43.62873" lon="3.82821">
        <ele>67</ele>
        <time>2021-03-06T15:33:49Z</time>
      </trkpt>
      <trkpt lat="43.6287" lon="3.82823">
        <ele>67</ele>
        <time>2021-03-06T15:33:50Z</time>
      </trkpt>
      <trkpt lat="43.62868" lon="3.82824">
        <ele>67</ele>
        <time>2021-03-06T15:33:51Z</time>
      </trkpt>
      <trkpt lat="43.62867" lon="3.82824">
        <ele>67</ele>
        <time>2021-03-06T15:33:52Z</time>
      </trkpt>
      <trkpt lat="43.62864" lon="3.82824">
        <ele>67</ele>
        <time>2021-03-06T15:33:54Z</time>
      </trkpt>
      <trkpt lat="43.62861" lon="3.82824">
        <ele>67</ele>
        <time>2021-03-06T15:33:56Z</time>
      </trkpt>
      <trkpt lat="43.62858" lon="3.82824">
        <ele>67</ele>
        <time>2021-03-06T15:33:58Z</time>
      </trkpt>
      <trkpt lat="43.62855" lon="3.82825">
        <ele>67</ele>
        <time>2021-03-06T15:34:00Z</time>
      </trkpt>
      <trkpt lat="43.62854" lon="3.82827">
        <ele>67</ele>
        <time>2021-03-06T15:34:01Z</time>
      </trkpt>
      <trkpt lat="43.62852" lon="3.8283">
        <ele>67</ele>
        <time>2021-03-06T15:34:02Z</time>
      </trkpt>
      <trkpt lat="43.62851" lon="3.82832">
        <ele>67</ele>
        <time>2021-03-06T15:34:03Z</time>
      </trkpt>
      <trkpt lat="43.6285" lon="3.82835">
        <ele>67</ele>
        <time>2021-03-06T15:34:04Z</time>
      </trkpt>
      <trkpt lat="43.6285" lon="3.82839">
        <ele>67</ele>
        <time>2021-03-06T15:34:05Z</time>
      </trkpt>
      <trkpt lat="43.62849" lon="3.82842">
        <ele>67</ele>
        <time>2021-03-06T15:34:06Z</time>
      </trkpt>
      <trkpt lat="43.62849" lon="3.82845">
        <ele>67</ele>
        <time>2021-03-06T15:34:07Z</time>
      </trkpt>
      <trkpt lat="43.62848" lon="3.82847">
        <ele>67</ele>
        <time>2021-03-06T15:34:08Z</time>
      </trkpt>
      <trkpt lat="43.62848" lon="3.8285">
        <ele>68</ele>
        <time>2021-03-06T15:34:09Z</time>
      </trkpt>
      <trkpt lat="43.62847" lon="3.82852">
        <ele>68</ele>
        <time>2021-03-06T15:34:10Z</time>
      </trkpt>
      <trkpt lat="43.62847" lon="3.82855">
        <ele>68</ele>
        <time>2021-03-06T15:34:11Z</time>
      </trkpt>
      <trkpt lat="43.62846" lon="3.82857">
        <ele>68</ele>
        <time>2021-03-06T15:34:12Z</time>
      </trkpt>
      <trkpt lat="43.62846" lon="3.8286">
        <ele>68</ele>
        <time>2021-03-06T15:34:13Z</time>
      </trkpt>
      <trkpt lat="43.62846" lon="3.82862">
        <ele>68</ele>
        <time>2021-03-06T15:34:14Z</time>
      </trkpt>
      <trkpt lat="43.62845" lon="3.82865">
        <ele>68</ele>
        <time>2021-03-06T15:34:15Z</time>
      </trkpt>
      <trkpt lat="43.62845" lon="3.82867">
        <ele>68</ele>
        <time>2021-03-06T15:34:16Z</time>
      </trkpt>
      <trkpt lat="43.62844" lon="3.82872">
        <ele>68</ele>
        <time>2021-03-06T15:34:18Z</time>
      </trkpt>
      <trkpt lat="43.62844" lon="3.82874">
        <ele>70</ele>
        <time>2021-03-06T15:34:19Z</time>
      </trkpt>
      <trkpt lat="43.62844" lon="3.82877">
        <ele>70</ele>
        <time>2021-03-06T15:34:20Z</time>
      </trkpt>
      <trkpt lat="43.62843" lon="3.82879">
        <ele>70</ele>
        <time>2021-03-06T15:34:21Z</time>
      </trkpt>
      <trkpt lat="43.62843" lon="3.82884">
        <ele>70</ele>
        <time>2021-03-06T15:34:23Z</time>
      </trkpt>
      <trkpt lat="43.62842" lon="3.82889">
        <ele>70</ele>
        <time>2021-03-06T15:34:25Z</time>
      </trkpt>
      <trkpt lat="43.62841" lon="3.82894">
        <ele>70</ele>
        <time>2021-03-06T15:34:27Z</time>
      </trkpt>
      <trkpt lat="43.62841" lon="3.82896">
        <ele>70</ele>
        <time>2021-03-06T15:34:28Z</time>
      </trkpt>
      <trkpt lat="43.6284" lon="3.82898">
        <ele>71</ele>
        <time>2021-03-06T15:34:29Z</time>
      </trkpt>
      <trkpt lat="43.6284" lon="3.82901">
        <ele>71</ele>
        <time>2021-03-06T15:34:30Z</time>
      </trkpt>
      <trkpt lat="43.62839" lon="3.82903">
        <ele>71</ele>
        <time>2021-03-06T15:34:31Z</time>
      </trkpt>
      <trkpt lat="43.62839" lon="3.82906">
        <ele>71</ele>
        <time>2021-03-06T15:34:32Z</time>
      </trkpt>
      <trkpt lat="43.62838" lon="3.82911">
        <ele>71</ele>
        <time>2021-03-06T15:34:34Z</time>
      </trkpt>
      <trkpt lat="43.62837" lon="3.82916">
        <ele>71</ele>
        <time>2021-03-06T15:34:36Z</time>
      </trkpt>
      <trkpt lat="43.62837" lon="3.82918">
        <ele>71</ele>
        <time>2021-03-06T15:34:37Z</time>
      </trkpt>
      <trkpt lat="43.62837" lon="3.82921">
        <ele>71</ele>
        <time>2021-03-06T15:34:38Z</time>
      </trkpt>
      <trkpt lat="43.62837" lon="3.82923">
        <ele>72</ele>
        <time>2021-03-06T15:34:39Z</time>
      </trkpt>
      <trkpt lat="43.62836" lon="3.82925">
        <ele>72</ele>
        <time>2021-03-06T15:34:40Z</time>
      </trkpt>
      <trkpt lat="43.62835" lon="3.8293">
        <ele>72</ele>
        <time>2021-03-06T15:34:42Z</time>
      </trkpt>
      <trkpt lat="43.62834" lon="3.82933">
        <ele>72</ele>
        <time>2021-03-06T15:34:43Z</time>
      </trkpt>
      <trkpt lat="43.62834" lon="3.82935">
        <ele>72</ele>
        <time>2021-03-06T15:34:44Z</time>
      </trkpt>
      <trkpt lat="43.62834" lon="3.8294">
        <ele>72</ele>
        <time>2021-03-06T15:34:46Z</time>
      </trkpt>
      <trkpt lat="43.62837" lon="3.82941">
        <ele>72</ele>
        <time>2021-03-06T15:34:48Z</time>
      </trkpt>
      <trkpt lat="43.6284" lon="3.82942">
        <ele>72</ele>
        <time>2021-03-06T15:34:50Z</time>
      </trkpt>
      <trkpt lat="43.62843" lon="3.82942">
        <ele>72</ele>
        <time>2021-03-06T15:34:52Z</time>
      </trkpt>
      <trkpt lat="43.62845" lon="3.82943">
        <ele>72</ele>
        <time>2021-03-06T15:34:54Z</time>
      </trkpt>
      <trkpt lat="43.62848" lon="3.82944">
        <ele>72</ele>
        <time>2021-03-06T15:34:56Z</time>
      </trkpt>
      <trkpt lat="43.6285" lon="3.82944">
        <ele>72</ele>
        <time>2021-03-06T15:34:57Z</time>
      </trkpt>
      <trkpt lat="43.62852" lon="3.82945">
        <ele>72</ele>
        <time>2021-03-06T15:34:58Z</time>
      </trkpt>
      <trkpt lat="43.62854" lon="3.82945">
        <ele>74</ele>
        <time>2021-03-06T15:34:59Z</time>
      </trkpt>
      <trkpt lat="43.62856" lon="3.82945">
        <ele>74</ele>
        <time>2021-03-06T15:35:00Z</time>
      </trkpt>
      <trkpt lat="43.62859" lon="3.82946">
        <ele>74</ele>
        <time>2021-03-06T15:35:02Z</time>
      </trkpt>
      <trkpt lat="43.62861" lon="3.82947">
        <ele>74</ele>
        <time>2021-03-06T15:35:03Z</time>
      </trkpt>
      <trkpt lat="43.62864" lon="3.82947">
        <ele>74</ele>
        <time>2021-03-06T15:35:05Z</time>
      </trkpt>
      <trkpt lat="43.62866" lon="3.82946">
        <ele>74</ele>
        <time>2021-03-06T15:35:06Z</time>
      </trkpt>
      <trkpt lat="43.62868" lon="3.82947">
        <ele>74</ele>
        <time>2021-03-06T15:35:07Z</time>
      </trkpt>
      <trkpt lat="43.62871" lon="3.82947">
        <ele>74</ele>
        <time>2021-03-06T15:35:08Z</time>
      </trkpt>
      <trkpt lat="43.62873" lon="3.82948">
        <ele>75</ele>
        <time>2021-03-06T15:35:09Z</time>
      </trkpt>
      <trkpt lat="43.62876" lon="3.82948">
        <ele>75</ele>
        <time>2021-03-06T15:35:10Z</time>
      </trkpt>
      <trkpt lat="43.62878" lon="3.82948">
        <ele>75</ele>
        <time>2021-03-06T15:35:11Z</time>
      </trkpt>
      <trkpt lat="43.62881" lon="3.82947">
        <ele>75</ele>
        <time>2021-03-06T15:35:12Z</time>
      </trkpt>
      <trkpt lat="43.62883" lon="3.82947">
        <ele>75</ele>
        <time>2021-03-06T15:35:13Z</time>
      </trkpt>
      <trkpt lat="43.62885" lon="3.82947">
        <ele>75</ele>
        <time>2021-03-06T15:35:14Z</time>
      </trkpt>
      <trkpt lat="43.62887" lon="3.82947">
        <ele>75</ele>
        <time>2021-03-06T15:35:15Z</time>
      </trkpt>
      <trkpt lat="43.6289" lon="3.82947">
        <ele>75</ele>
        <time>2021-03-06T15:35:16Z</time>
      </trkpt>
      <trkpt lat="43.62892" lon="3.82949">
        <ele>75</ele>
        <time>2021-03-06T15:35:17Z</time>
      </trkpt>
      <trkpt lat="43.62893" lon="3.82952">
        <ele>75</ele>
        <time>2021-03-06T15:35:18Z</time>
      </trkpt>
      <trkpt lat="43.62893" lon="3.82955">
        <ele>76</ele>
        <time>2021-03-06T15:35:19Z</time>
      </trkpt>
      <trkpt lat="43.62893" lon="3.82957">
        <ele>76</ele>
        <time>2021-03-06T15:35:20Z</time>
      </trkpt>
      <trkpt lat="43.62893" lon="3.8296">
        <ele>76</ele>
        <time>2021-03-06T15:35:21Z</time>
      </trkpt>
      <trkpt lat="43.62893" lon="3.82963">
        <ele>76</ele>
        <time>2021-03-06T15:35:22Z</time>
      </trkpt>
      <trkpt lat="43.62893" lon="3.82965">
        <ele>76</ele>
        <time>2021-03-06T15:35:23Z</time>
      </trkpt>
      <trkpt lat="43.62893" lon="3.8297">
        <ele>76</ele>
        <time>2021-03-06T15:35:25Z</time>
      </trkpt>
      <trkpt lat="43.62893" lon="3.82975">
        <ele>76</ele>
        <time>2021-03-06T15:35:27Z</time>
      </trkpt>
      <trkpt lat="43.62893" lon="3.82979">
        <ele>77</ele>
        <time>2021-03-06T15:35:29Z</time>
      </trkpt>
      <trkpt lat="43.62894" lon="3.82984">
        <ele>77</ele>
        <time>2021-03-06T15:35:31Z</time>
      </trkpt>
      <trkpt lat="43.62894" lon="3.82987">
        <ele>77</ele>
        <time>2021-03-06T15:35:32Z</time>
      </trkpt>
      <trkpt lat="43.62894" lon="3.82989">
        <ele>77</ele>
        <time>2021-03-06T15:35:33Z</time>
      </trkpt>
      <trkpt lat="43.62895" lon="3.82994">
        <ele>77</ele>
        <time>2021-03-06T15:35:35Z</time>
      </trkpt>
      <trkpt lat="43.62895" lon="3.82999">
        <ele>77</ele>
        <time>2021-03-06T15:35:37Z</time>
      </trkpt>
      <trkpt lat="43.62896" lon="3.83002">
        <ele>77</ele>
        <time>2021-03-06T15:35:38Z</time>
      </trkpt>
      <trkpt lat="43.62896" lon="3.83004">
        <ele>78</ele>
        <time>2021-03-06T15:35:39Z</time>
      </trkpt>
      <trkpt lat="43.62896" lon="3.83007">
        <ele>78</ele>
        <time>2021-03-06T15:35:40Z</time>
      </trkpt>
      <trkpt lat="43.62896" lon="3.83009">
        <ele>78</ele>
        <time>2021-03-06T15:35:41Z</time>
      </trkpt>
      <trkpt lat="43.62896" lon="3.83012">
        <ele>78</ele>
        <time>2021-03-06T15:35:42Z</time>
      </trkpt>
      <trkpt lat="43.62896" lon="3.83014">
        <ele>78</ele>
        <time>2021-03-06T15:35:43Z</time>
      </trkpt>
      <trkpt lat="43.62896" lon="3.83017">
        <ele>78</ele>
        <time>2021-03-06T15:35:44Z</time>
      </trkpt>
      <trkpt lat="43.62897" lon="3.83022">
        <ele>78</ele>
        <time>2021-03-06T15:35:46Z</time>
      </trkpt>
      <trkpt lat="43.62897" lon="3.83025">
        <ele>78</ele>
        <time>2021-03-06T15:35:47Z</time>
      </trkpt>
      <trkpt lat="43.62897" lon="3.83027">
        <ele>78</ele>
        <time>2021-03-06T15:35:48Z</time>
      </trkpt>
      <trkpt lat="43.62898" lon="3.83032">
        <ele>78</ele>
        <time>2021-03-06T15:35:50Z</time>
      </trkpt>
      <trkpt lat="43.62898" lon="3.83035">
        <ele>78</ele>
        <time>2021-03-06T15:35:51Z</time>
      </trkpt>
      <trkpt lat="43.62898" lon="3.83038">
        <ele>78</ele>
        <time>2021-03-06T15:35:52Z</time>
      </trkpt>
      <trkpt lat="43.62898" lon="3.83041">
        <ele>78</ele>
        <time>2021-03-06T15:35:53Z</time>
      </trkpt>
      <trkpt lat="43.62898" lon="3.83045">
        <ele>78</ele>
        <time>2021-03-06T15:35:54Z</time>
      </trkpt>
      <trkpt lat="43.62899" lon="3.83049">
        <ele>78</ele>
        <time>2021-03-06T15:35:55Z</time>
      </trkpt>
      <trkpt lat="43.62899" lon="3.83053">
        <ele>78</ele>
        <time>2021-03-06T15:35:56Z</time>
      </trkpt>
      <trkpt lat="43.62899" lon="3.83056">
        <ele>78</ele>
        <time>2021-03-06T15:35:57Z</time>
      </trkpt>
      <trkpt lat="43.62899" lon="3.83059">
        <ele>78</ele>
        <time>2021-03-06T15:35:58Z</time>
      </trkpt>
      <trkpt lat="43.629" lon="3.83062">
        <ele>82</ele>
        <time>2021-03-06T15:35:59Z</time>
      </trkpt>
      <trkpt lat="43.629" lon="3.83067">
        <ele>82</ele>
        <time>2021-03-06T15:36:01Z</time>
      </trkpt>
      <trkpt lat="43.629" lon="3.83069">
        <ele>82</ele>
        <time>2021-03-06T15:36:02Z</time>
      </trkpt>
      <trkpt lat="43.62901" lon="3.83072">
        <ele>82</ele>
        <time>2021-03-06T15:36:03Z</time>
      </trkpt>
      <trkpt lat="43.62901" lon="3.83074">
        <ele>82</ele>
        <time>2021-03-06T15:36:04Z</time>
      </trkpt>
      <trkpt lat="43.62902" lon="3.83077">
        <ele>82</ele>
        <time>2021-03-06T15:36:05Z</time>
      </trkpt>
      <trkpt lat="43.62902" lon="3.83081">
        <ele>82</ele>
        <time>2021-03-06T15:36:06Z</time>
      </trkpt>
      <trkpt lat="43.62902" lon="3.83085">
        <ele>82</ele>
        <time>2021-03-06T15:36:07Z</time>
      </trkpt>
      <trkpt lat="43.62902" lon="3.83089">
        <ele>82</ele>
        <time>2021-03-06T15:36:08Z</time>
      </trkpt>
      <trkpt lat="43.62901" lon="3.83092">
        <ele>84</ele>
        <time>2021-03-06T15:36:09Z</time>
      </trkpt>
      <trkpt lat="43.62899" lon="3.83093">
        <ele>84</ele>
        <time>2021-03-06T15:36:10Z</time>
      </trkpt>
      <trkpt lat="43.62896" lon="3.83092">
        <ele>84</ele>
        <time>2021-03-06T15:36:12Z</time>
      </trkpt>
      <trkpt lat="43.62893" lon="3.8309">
        <ele>84</ele>
        <time>2021-03-06T15:36:14Z</time>
      </trkpt>
      <trkpt lat="43.6289" lon="3.83089">
        <ele>84</ele>
        <time>2021-03-06T15:36:16Z</time>
      </trkpt>
      <trkpt lat="43.62887" lon="3.83088">
        <ele>84</ele>
        <time>2021-03-06T15:36:18Z</time>
      </trkpt>
      <trkpt lat="43.62885" lon="3.83088">
        <ele>84</ele>
        <time>2021-03-06T15:36:19Z</time>
      </trkpt>
      <trkpt lat="43.62883" lon="3.83087">
        <ele>84</ele>
        <time>2021-03-06T15:36:20Z</time>
      </trkpt>
      <trkpt lat="43.62881" lon="3.83086">
        <ele>84</ele>
        <time>2021-03-06T15:36:21Z</time>
      </trkpt>
      <trkpt lat="43.62879" lon="3.83086">
        <ele>84</ele>
        <time>2021-03-06T15:36:22Z</time>
      </trkpt>
      <trkpt lat="43.62877" lon="3.83086">
        <ele>84</ele>
        <time>2021-03-06T15:36:23Z</time>
      </trkpt>
      <trkpt lat="43.62875" lon="3.83086">
        <ele>84</ele>
        <time>2021-03-06T15:36:24Z</time>
      </trkpt>
      <trkpt lat="43.62873" lon="3.83087">
        <ele>84</ele>
        <time>2021-03-06T15:36:25Z</time>
      </trkpt>
      <trkpt lat="43.62871" lon="3.83087">
        <ele>84</ele>
        <time>2021-03-06T15:36:26Z</time>
      </trkpt>
      <trkpt lat="43.62869" lon="3.83086">
        <ele>84</ele>
        <time>2021-03-06T15:36:27Z</time>
      </trkpt>
      <trkpt lat="43.62867" lon="3.83085">
        <ele>84</ele>
        <time>2021-03-06T15:36:28Z</time>
      </trkpt>
      <trkpt lat="43.62864" lon="3.83085">
        <ele>85</ele>
        <time>2021-03-06T15:36:29Z</time>
      </trkpt>
      <trkpt lat="43.62862" lon="3.83084">
        <ele>85</ele>
        <time>2021-03-06T15:36:30Z</time>
      </trkpt>
      <trkpt lat="43.6286" lon="3.83084">
        <ele>85</ele>
        <time>2021-03-06T15:36:31Z</time>
      </trkpt>
      <trkpt lat="43.62858" lon="3.83084">
        <ele>85</ele>
        <time>2021-03-06T15:36:32Z</time>
      </trkpt>
      <trkpt lat="43.62856" lon="3.83084">
        <ele>85</ele>
        <time>2021-03-06T15:36:33Z</time>
      </trkpt>
      <trkpt lat="43.62854" lon="3.83085">
        <ele>85</ele>
        <time>2021-03-06T15:36:34Z</time>
      </trkpt>
      <trkpt lat="43.62852" lon="3.83085">
        <ele>85</ele>
        <time>2021-03-06T15:36:35Z</time>
      </trkpt>
      <trkpt lat="43.62851" lon="3.83086">
        <ele>85</ele>
        <time>2021-03-06T15:36:36Z</time>
      </trkpt>
      <trkpt lat="43.62849" lon="3.83086">
        <ele>85</ele>
        <time>2021-03-06T15:36:37Z</time>
      </trkpt>
      <trkpt lat="43.62847" lon="3.83087">
        <ele>85</ele>
        <time>2021-03-06T15:36:38Z</time>
      </trkpt>
      <trkpt lat="43.62844" lon="3.83088">
        <ele>85</ele>
        <time>2021-03-06T15:36:40Z</time>
      </trkpt>
      <trkpt lat="43.6284" lon="3.83089">
        <ele>85</ele>
        <time>2021-03-06T15:36:42Z</time>
      </trkpt>
      <trkpt lat="43.62838" lon="3.83089">
        <ele>85</ele>
        <time>2021-03-06T15:36:43Z</time>
      </trkpt>
      <trkpt lat="43.62836" lon="3.8309">
        <ele>85</ele>
        <time>2021-03-06T15:36:44Z</time>
      </trkpt>
      <trkpt lat="43.62834" lon="3.8309">
        <ele>85</ele>
        <time>2021-03-06T15:36:45Z</time>
      </trkpt>
      <trkpt lat="43.62831" lon="3.8309">
        <ele>85</ele>
        <time>2021-03-06T15:36:46Z</time>
      </trkpt>
      <trkpt lat="43.62829" lon="3.83091">
        <ele>85</ele>
        <time>2021-03-06T15:36:47Z</time>
      </trkpt>
      <trkpt lat="43.62827" lon="3.83092">
        <ele>85</ele>
        <time>2021-03-06T15:36:48Z</time>
      </trkpt>
      <trkpt lat="43.62823" lon="3.8309">
        <ele>85</ele>
        <time>2021-03-06T15:36:50Z</time>
      </trkpt>
      <trkpt lat="43.6282" lon="3.83089">
        <ele>85</ele>
        <time>2021-03-06T15:36:52Z</time>
      </trkpt>
      <trkpt lat="43.62818" lon="3.83089">
        <ele>85</ele>
        <time>2021-03-06T15:36:53Z</time>
      </trkpt>
      <trkpt lat="43.62816" lon="3.8309">
        <ele>85</ele>
        <time>2021-03-06T15:36:54Z</time>
      </trkpt>
      <trkpt lat="43.62814" lon="3.8309">
        <ele>85</ele>
        <time>2021-03-06T15:36:55Z</time>
      </trkpt>
      <trkpt lat="43.62811" lon="3.83091">
        <ele>85</ele>
        <time>2021-03-06T15:36:57Z</time>
      </trkpt>
      <trkpt lat="43.62807" lon="3.83092">
        <ele>85</ele>
        <time>2021-03-06T15:36:59Z</time>
      </trkpt>
      <trkpt lat="43.62805" lon="3.83093">
        <ele>85</ele>
        <time>2021-03-06T15:37:00Z</time>
      </trkpt>
      <trkpt lat="43.62803" lon="3.83094">
        <ele>85</ele>
        <time>2021-03-06T15:37:01Z</time>
      </trkpt>
      <trkpt lat="43.628" lon="3.83095">
        <ele>85</ele>
        <time>2021-03-06T15:37:03Z</time>
      </trkpt>
      <trkpt lat="43.62798" lon="3.83096">
        <ele>85</ele>
        <time>2021-03-06T15:37:05Z</time>
      </trkpt>
      <trkpt lat="43.62795" lon="3.83097">
        <ele>85</ele>
        <time>2021-03-06T15:37:07Z</time>
      </trkpt>
      <trkpt lat="43.62795" lon="3.83096">
        <ele>86</ele>
        <time>2021-03-06T15:37:12Z</time>
      </trkpt>
      <trkpt lat="43.62787" lon="3.83098">
        <ele>85</ele>
        <time>2021-03-06T15:37:25Z</time>
      </trkpt>
      <trkpt lat="43.62785" lon="3.83098">
        <ele>85</ele>
        <time>2021-03-06T15:37:26Z</time>
      </trkpt>
      <trkpt lat="43.62783" lon="3.83098">
        <ele>85</ele>
        <time>2021-03-06T15:37:27Z</time>
      </trkpt>
      <trkpt lat="43.62781" lon="3.83098">
        <ele>85</ele>
        <time>2021-03-06T15:37:28Z</time>
      </trkpt>
      <trkpt lat="43.62778" lon="3.83098">
        <ele>85</ele>
        <time>2021-03-06T15:37:29Z</time>
      </trkpt>
      <trkpt lat="43.62775" lon="3.83098">
        <ele>85</ele>
        <time>2021-03-06T15:37:30Z</time>
      </trkpt>
      <trkpt lat="43.62772" lon="3.83098">
        <ele>85</ele>
        <time>2021-03-06T15:37:31Z</time>
      </trkpt>
      <trkpt lat="43.6277" lon="3.83099">
        <ele>85</ele>
        <time>2021-03-06T15:37:32Z</time>
      </trkpt>
      <trkpt lat="43.62768" lon="3.831">
        <ele>85</ele>
        <time>2021-03-06T15:37:33Z</time>
      </trkpt>
      <trkpt lat="43.62767" lon="3.83101">
        <ele>85</ele>
        <time>2021-03-06T15:37:34Z</time>
      </trkpt>
      <trkpt lat="43.62765" lon="3.83102">
        <ele>86</ele>
        <time>2021-03-06T15:37:35Z</time>
      </trkpt>
      <trkpt lat="43.62762" lon="3.83102">
        <ele>86</ele>
        <time>2021-03-06T15:37:36Z</time>
      </trkpt>
      <trkpt lat="43.6276" lon="3.83103">
        <ele>86</ele>
        <time>2021-03-06T15:37:37Z</time>
      </trkpt>
      <trkpt lat="43.62758" lon="3.83104">
        <ele>86</ele>
        <time>2021-03-06T15:37:38Z</time>
      </trkpt>
      <trkpt lat="43.62756" lon="3.83104">
        <ele>86</ele>
        <time>2021-03-06T15:37:39Z</time>
      </trkpt>
      <trkpt lat="43.62754" lon="3.83104">
        <ele>86</ele>
        <time>2021-03-06T15:37:40Z</time>
      </trkpt>
      <trkpt lat="43.62752" lon="3.83105">
        <ele>86</ele>
        <time>2021-03-06T15:37:41Z</time>
      </trkpt>
      <trkpt lat="43.6275" lon="3.83107">
        <ele>86</ele>
        <time>2021-03-06T15:37:42Z</time>
      </trkpt>
      <trkpt lat="43.62748" lon="3.83108">
        <ele>86</ele>
        <time>2021-03-06T15:37:43Z</time>
      </trkpt>
      <trkpt lat="43.62746" lon="3.83109">
        <ele>86</ele>
        <time>2021-03-06T15:37:44Z</time>
      </trkpt>
      <trkpt lat="43.62741" lon="3.8311">
        <ele>87</ele>
        <time>2021-03-06T15:37:45Z</time>
      </trkpt>
      <trkpt lat="43.62739" lon="3.83111">
        <ele>87</ele>
        <time>2021-03-06T15:37:46Z</time>
      </trkpt>
      <trkpt lat="43.62736" lon="3.83113">
        <ele>87</ele>
        <time>2021-03-06T15:37:47Z</time>
      </trkpt>
      <trkpt lat="43.62732" lon="3.83116">
        <ele>87</ele>
        <time>2021-03-06T15:37:49Z</time>
      </trkpt>
      <trkpt lat="43.62729" lon="3.83117">
        <ele>87</ele>
        <time>2021-03-06T15:37:50Z</time>
      </trkpt>
      <trkpt lat="43.62726" lon="3.83119">
        <ele>87</ele>
        <time>2021-03-06T15:37:51Z</time>
      </trkpt>
      <trkpt lat="43.62719" lon="3.83123">
        <ele>87</ele>
        <time>2021-03-06T15:37:53Z</time>
      </trkpt>
      <trkpt lat="43.62715" lon="3.83125">
        <ele>87</ele>
        <time>2021-03-06T15:37:54Z</time>
      </trkpt>
      <trkpt lat="43.62712" lon="3.83126">
        <ele>87</ele>
        <time>2021-03-06T15:37:56Z</time>
      </trkpt>
      <trkpt lat="43.62708" lon="3.83129">
        <ele>87</ele>
        <time>2021-03-06T15:37:57Z</time>
      </trkpt>
      <trkpt lat="43.62704" lon="3.83132">
        <ele>87</ele>
        <time>2021-03-06T15:37:58Z</time>
      </trkpt>
      <trkpt lat="43.627" lon="3.83134">
        <ele>87</ele>
        <time>2021-03-06T15:37:59Z</time>
      </trkpt>
      <trkpt lat="43.62696" lon="3.83137">
        <ele>87</ele>
        <time>2021-03-06T15:38:00Z</time>
      </trkpt>
      <trkpt lat="43.62692" lon="3.83139">
        <ele>87</ele>
        <time>2021-03-06T15:38:01Z</time>
      </trkpt>
      <trkpt lat="43.62688" lon="3.83142">
        <ele>87</ele>
        <time>2021-03-06T15:38:02Z</time>
      </trkpt>
      <trkpt lat="43.62684" lon="3.83145">
        <ele>87</ele>
        <time>2021-03-06T15:38:03Z</time>
      </trkpt>
      <trkpt lat="43.6268" lon="3.83149">
        <ele>87</ele>
        <time>2021-03-06T15:38:04Z</time>
      </trkpt>
      <trkpt lat="43.62676" lon="3.83153">
        <ele>87</ele>
        <time>2021-03-06T15:38:05Z</time>
      </trkpt>
      <trkpt lat="43.62671" lon="3.83157">
        <ele>87</ele>
        <time>2021-03-06T15:38:06Z</time>
      </trkpt>
      <trkpt lat="43.62667" lon="3.83162">
        <ele>87</ele>
        <time>2021-03-06T15:38:07Z</time>
      </trkpt>
      <trkpt lat="43.62663" lon="3.83166">
        <ele>87</ele>
        <time>2021-03-06T15:38:08Z</time>
      </trkpt>
      <trkpt lat="43.62659" lon="3.8317">
        <ele>87</ele>
        <time>2021-03-06T15:38:09Z</time>
      </trkpt>
      <trkpt lat="43.62654" lon="3.83173">
        <ele>87</ele>
        <time>2021-03-06T15:38:10Z</time>
      </trkpt>
      <trkpt lat="43.62649" lon="3.83176">
        <ele>87</ele>
        <time>2021-03-06T15:38:11Z</time>
      </trkpt>
      <trkpt lat="43.62645" lon="3.8318">
        <ele>87</ele>
        <time>2021-03-06T15:38:12Z</time>
      </trkpt>
      <trkpt lat="43.62642" lon="3.83184">
        <ele>87</ele>
        <time>2021-03-06T15:38:13Z</time>
      </trkpt>
      <trkpt lat="43.62637" lon="3.83189">
        <ele>87</ele>
        <time>2021-03-06T15:38:14Z</time>
      </trkpt>
      <trkpt lat="43.62633" lon="3.83193">
        <ele>85</ele>
        <time>2021-03-06T15:38:15Z</time>
      </trkpt>
      <trkpt lat="43.62628" lon="3.83197">
        <ele>85</ele>
        <time>2021-03-06T15:38:16Z</time>
      </trkpt>
      <trkpt lat="43.62623" lon="3.832">
        <ele>85</ele>
        <time>2021-03-06T15:38:17Z</time>
      </trkpt>
      <trkpt lat="43.62618" lon="3.83204">
        <ele>85</ele>
        <time>2021-03-06T15:38:18Z</time>
      </trkpt>
      <trkpt lat="43.62613" lon="3.83207">
        <ele>85</ele>
        <time>2021-03-06T15:38:19Z</time>
      </trkpt>
      <trkpt lat="43.62608" lon="3.8321">
        <ele>85</ele>
        <time>2021-03-06T15:38:20Z</time>
      </trkpt>
      <trkpt lat="43.62603" lon="3.83214">
        <ele>85</ele>
        <time>2021-03-06T15:38:21Z</time>
      </trkpt>
      <trkpt lat="43.62599" lon="3.83218">
        <ele>85</ele>
        <time>2021-03-06T15:38:22Z</time>
      </trkpt>
      <trkpt lat="43.62594" lon="3.83221">
        <ele>85</ele>
        <time>2021-03-06T15:38:23Z</time>
      </trkpt>
      <trkpt lat="43.62589" lon="3.83224">
        <ele>85</ele>
        <time>2021-03-06T15:38:24Z</time>
      </trkpt>
      <trkpt lat="43.62585" lon="3.83228">
        <ele>84</ele>
        <time>2021-03-06T15:38:25Z</time>
      </trkpt>
      <trkpt lat="43.62583" lon="3.83233">
        <ele>84</ele>
        <time>2021-03-06T15:38:26Z</time>
      </trkpt>
      <trkpt lat="43.62583" lon="3.83239">
        <ele>84</ele>
        <time>2021-03-06T15:38:27Z</time>
      </trkpt>
      <trkpt lat="43.62583" lon="3.83245">
        <ele>84</ele>
        <time>2021-03-06T15:38:28Z</time>
      </trkpt>
      <trkpt lat="43.62582" lon="3.83251">
        <ele>84</ele>
        <time>2021-03-06T15:38:29Z</time>
      </trkpt>
      <trkpt lat="43.62581" lon="3.83256">
        <ele>84</ele>
        <time>2021-03-06T15:38:30Z</time>
      </trkpt>
      <trkpt lat="43.6258" lon="3.83261">
        <ele>84</ele>
        <time>2021-03-06T15:38:31Z</time>
      </trkpt>
      <trkpt lat="43.62578" lon="3.83266">
        <ele>84</ele>
        <time>2021-03-06T15:38:32Z</time>
      </trkpt>
      <trkpt lat="43.62577" lon="3.83271">
        <ele>84</ele>
        <time>2021-03-06T15:38:33Z</time>
      </trkpt>
      <trkpt lat="43.62576" lon="3.83276">
        <ele>84</ele>
        <time>2021-03-06T15:38:34Z</time>
      </trkpt>
      <trkpt lat="43.62575" lon="3.83281">
        <ele>83</ele>
        <time>2021-03-06T15:38:35Z</time>
      </trkpt>
      <trkpt lat="43.62574" lon="3.83286">
        <ele>83</ele>
        <time>2021-03-06T15:38:36Z</time>
      </trkpt>
      <trkpt lat="43.62572" lon="3.83292">
        <ele>83</ele>
        <time>2021-03-06T15:38:37Z</time>
      </trkpt>
      <trkpt lat="43.6257" lon="3.83296">
        <ele>83</ele>
        <time>2021-03-06T15:38:38Z</time>
      </trkpt>
      <trkpt lat="43.62566" lon="3.83298">
        <ele>83</ele>
        <time>2021-03-06T15:38:39Z</time>
      </trkpt>
      <trkpt lat="43.62561" lon="3.83295">
        <ele>83</ele>
        <time>2021-03-06T15:38:40Z</time>
      </trkpt>
      <trkpt lat="43.62557" lon="3.83294">
        <ele>83</ele>
        <time>2021-03-06T15:38:41Z</time>
      </trkpt>
      <trkpt lat="43.62553" lon="3.83293">
        <ele>83</ele>
        <time>2021-03-06T15:38:42Z</time>
      </trkpt>
      <trkpt lat="43.62549" lon="3.83296">
        <ele>83</ele>
        <time>2021-03-06T15:38:43Z</time>
      </trkpt>
      <trkpt lat="43.62548" lon="3.833">
        <ele>83</ele>
        <time>2021-03-06T15:38:44Z</time>
      </trkpt>
      <trkpt lat="43.62547" lon="3.83305">
        <ele>83</ele>
        <time>2021-03-06T15:38:45Z</time>
      </trkpt>
      <trkpt lat="43.62546" lon="3.83311">
        <ele>83</ele>
        <time>2021-03-06T15:38:46Z</time>
      </trkpt>
      <trkpt lat="43.62545" lon="3.83316">
        <ele>83</ele>
        <time>2021-03-06T15:38:47Z</time>
      </trkpt>
      <trkpt lat="43.62543" lon="3.83322">
        <ele>83</ele>
        <time>2021-03-06T15:38:48Z</time>
      </trkpt>
      <trkpt lat="43.62541" lon="3.83327">
        <ele>83</ele>
        <time>2021-03-06T15:38:49Z</time>
      </trkpt>
      <trkpt lat="43.62539" lon="3.83333">
        <ele>83</ele>
        <time>2021-03-06T15:38:50Z</time>
      </trkpt>
      <trkpt lat="43.62537" lon="3.83338">
        <ele>83</ele>
        <time>2021-03-06T15:38:51Z</time>
      </trkpt>
      <trkpt lat="43.62535" lon="3.83343">
        <ele>83</ele>
        <time>2021-03-06T15:38:52Z</time>
      </trkpt>
      <trkpt lat="43.62534" lon="3.83348">
        <ele>83</ele>
        <time>2021-03-06T15:38:53Z</time>
      </trkpt>
      <trkpt lat="43.62532" lon="3.83353">
        <ele>83</ele>
        <time>2021-03-06T15:38:54Z</time>
      </trkpt>
      <trkpt lat="43.62531" lon="3.83358">
        <ele>82</ele>
        <time>2021-03-06T15:38:55Z</time>
      </trkpt>
      <trkpt lat="43.62529" lon="3.83364">
        <ele>82</ele>
        <time>2021-03-06T15:38:56Z</time>
      </trkpt>
      <trkpt lat="43.62527" lon="3.8337">
        <ele>82</ele>
        <time>2021-03-06T15:38:57Z</time>
      </trkpt>
      <trkpt lat="43.62526" lon="3.83376">
        <ele>82</ele>
        <time>2021-03-06T15:38:58Z</time>
      </trkpt>
      <trkpt lat="43.62523" lon="3.83383">
        <ele>82</ele>
        <time>2021-03-06T15:38:59Z</time>
      </trkpt>
      <trkpt lat="43.62522" lon="3.8339">
        <ele>82</ele>
        <time>2021-03-06T15:39:00Z</time>
      </trkpt>
      <trkpt lat="43.6252" lon="3.83396">
        <ele>82</ele>
        <time>2021-03-06T15:39:01Z</time>
      </trkpt>
      <trkpt lat="43.62518" lon="3.83404">
        <ele>82</ele>
        <time>2021-03-06T15:39:02Z</time>
      </trkpt>
      <trkpt lat="43.62518" lon="3.83411">
        <ele>82</ele>
        <time>2021-03-06T15:39:03Z</time>
      </trkpt>
      <trkpt lat="43.62517" lon="3.83418">
        <ele>82</ele>
        <time>2021-03-06T15:39:04Z</time>
      </trkpt>
      <trkpt lat="43.62516" lon="3.83424">
        <ele>80</ele>
        <time>2021-03-06T15:39:05Z</time>
      </trkpt>
      <trkpt lat="43.62515" lon="3.8343">
        <ele>80</ele>
        <time>2021-03-06T15:39:06Z</time>
      </trkpt>
      <trkpt lat="43.62513" lon="3.83435">
        <ele>80</ele>
        <time>2021-03-06T15:39:07Z</time>
      </trkpt>
      <trkpt lat="43.62512" lon="3.8344">
        <ele>80</ele>
        <time>2021-03-06T15:39:08Z</time>
      </trkpt>
      <trkpt lat="43.62511" lon="3.83445">
        <ele>80</ele>
        <time>2021-03-06T15:39:09Z</time>
      </trkpt>
      <trkpt lat="43.62509" lon="3.83449">
        <ele>80</ele>
        <time>2021-03-06T15:39:10Z</time>
      </trkpt>
      <trkpt lat="43.62508" lon="3.83452">
        <ele>80</ele>
        <time>2021-03-06T15:39:11Z</time>
      </trkpt>
      <trkpt lat="43.62507" lon="3.83456">
        <ele>80</ele>
        <time>2021-03-06T15:39:12Z</time>
      </trkpt>
      <trkpt lat="43.62506" lon="3.83459">
        <ele>80</ele>
        <time>2021-03-06T15:39:13Z</time>
      </trkpt>
      <trkpt lat="43.62504" lon="3.83463">
        <ele>80</ele>
        <time>2021-03-06T15:39:14Z</time>
      </trkpt>
      <trkpt lat="43.62504" lon="3.83466">
        <ele>79</ele>
        <time>2021-03-06T15:39:15Z</time>
      </trkpt>
      <trkpt lat="43.62504" lon="3.83469">
        <ele>79</ele>
        <time>2021-03-06T15:39:16Z</time>
      </trkpt>
      <trkpt lat="43.62506" lon="3.83471">
        <ele>79</ele>
        <time>2021-03-06T15:39:17Z</time>
      </trkpt>
      <trkpt lat="43.62508" lon="3.83472">
        <ele>79</ele>
        <time>2021-03-06T15:39:18Z</time>
      </trkpt>
      <trkpt lat="43.62509" lon="3.83474">
        <ele>79</ele>
        <time>2021-03-06T15:39:19Z</time>
      </trkpt>
      <trkpt lat="43.62511" lon="3.83476">
        <ele>79</ele>
        <time>2021-03-06T15:39:20Z</time>
      </trkpt>
      <trkpt lat="43.62511" lon="3.83479">
        <ele>79</ele>
        <time>2021-03-06T15:39:21Z</time>
      </trkpt>
      <trkpt lat="43.62511" lon="3.83482">
        <ele>79</ele>
        <time>2021-03-06T15:39:22Z</time>
      </trkpt>
      <trkpt lat="43.62511" lon="3.83485">
        <ele>79</ele>
        <time>2021-03-06T15:39:23Z</time>
      </trkpt>
      <trkpt lat="43.62513" lon="3.83488">
        <ele>79</ele>
        <time>2021-03-06T15:39:24Z</time>
      </trkpt>
      <trkpt lat="43.62515" lon="3.83492">
        <ele>79</ele>
        <time>2021-03-06T15:39:25Z</time>
      </trkpt>
      <trkpt lat="43.62517" lon="3.83496">
        <ele>79</ele>
        <time>2021-03-06T15:39:26Z</time>
      </trkpt>
      <trkpt lat="43.62519" lon="3.83499">
        <ele>79</ele>
        <time>2021-03-06T15:39:27Z</time>
      </trkpt>
      <trkpt lat="43.6252" lon="3.83504">
        <ele>79</ele>
        <time>2021-03-06T15:39:28Z</time>
      </trkpt>
      <trkpt lat="43.62522" lon="3.83508">
        <ele>79</ele>
        <time>2021-03-06T15:39:29Z</time>
      </trkpt>
      <trkpt lat="43.62524" lon="3.83512">
        <ele>79</ele>
        <time>2021-03-06T15:39:30Z</time>
      </trkpt>
      <trkpt lat="43.62526" lon="3.83516">
        <ele>79</ele>
        <time>2021-03-06T15:39:31Z</time>
      </trkpt>
      <trkpt lat="43.62528" lon="3.83521">
        <ele>79</ele>
        <time>2021-03-06T15:39:32Z</time>
      </trkpt>
      <trkpt lat="43.6253" lon="3.83525">
        <ele>79</ele>
        <time>2021-03-06T15:39:33Z</time>
      </trkpt>
      <trkpt lat="43.62531" lon="3.8353">
        <ele>79</ele>
        <time>2021-03-06T15:39:34Z</time>
      </trkpt>
      <trkpt lat="43.62533" lon="3.83534">
        <ele>79</ele>
        <time>2021-03-06T15:39:35Z</time>
      </trkpt>
      <trkpt lat="43.62534" lon="3.83539">
        <ele>79</ele>
        <time>2021-03-06T15:39:36Z</time>
      </trkpt>
      <trkpt lat="43.62535" lon="3.83544">
        <ele>79</ele>
        <time>2021-03-06T15:39:37Z</time>
      </trkpt>
      <trkpt lat="43.62535" lon="3.83549">
        <ele>79</ele>
        <time>2021-03-06T15:39:38Z</time>
      </trkpt>
      <trkpt lat="43.62537" lon="3.83552">
        <ele>79</ele>
        <time>2021-03-06T15:39:39Z</time>
      </trkpt>
      <trkpt lat="43.62539" lon="3.83555">
        <ele>79</ele>
        <time>2021-03-06T15:39:40Z</time>
      </trkpt>
      <trkpt lat="43.62541" lon="3.83558">
        <ele>79</ele>
        <time>2021-03-06T15:39:41Z</time>
      </trkpt>
      <trkpt lat="43.62544" lon="3.83561">
        <ele>79</ele>
        <time>2021-03-06T15:39:42Z</time>
      </trkpt>
      <trkpt lat="43.62546" lon="3.83563">
        <ele>79</ele>
        <time>2021-03-06T15:39:43Z</time>
      </trkpt>
      <trkpt lat="43.62549" lon="3.83565">
        <ele>79</ele>
        <time>2021-03-06T15:39:44Z</time>
      </trkpt>
      <trkpt lat="43.62552" lon="3.83567">
        <ele>78</ele>
        <time>2021-03-06T15:39:45Z</time>
      </trkpt>
      <trkpt lat="43.62554" lon="3.83569">
        <ele>78</ele>
        <time>2021-03-06T15:39:46Z</time>
      </trkpt>
      <trkpt lat="43.62557" lon="3.83571">
        <ele>78</ele>
        <time>2021-03-06T15:39:47Z</time>
      </trkpt>
      <trkpt lat="43.62559" lon="3.83574">
        <ele>78</ele>
        <time>2021-03-06T15:39:48Z</time>
      </trkpt>
      <trkpt lat="43.62562" lon="3.83577">
        <ele>78</ele>
        <time>2021-03-06T15:39:49Z</time>
      </trkpt>
      <trkpt lat="43.62564" lon="3.83579">
        <ele>78</ele>
        <time>2021-03-06T15:39:50Z</time>
      </trkpt>
      <trkpt lat="43.62566" lon="3.83582">
        <ele>78</ele>
        <time>2021-03-06T15:39:51Z</time>
      </trkpt>
      <trkpt lat="43.62569" lon="3.83585">
        <ele>78</ele>
        <time>2021-03-06T15:39:52Z</time>
      </trkpt>
      <trkpt lat="43.62571" lon="3.83588">
        <ele>78</ele>
        <time>2021-03-06T15:39:53Z</time>
      </trkpt>
      <trkpt lat="43.62573" lon="3.83591">
        <ele>78</ele>
        <time>2021-03-06T15:39:54Z</time>
      </trkpt>
      <trkpt lat="43.62575" lon="3.83594">
        <ele>79</ele>
        <time>2021-03-06T15:39:55Z</time>
      </trkpt>
      <trkpt lat="43.62576" lon="3.83597">
        <ele>79</ele>
        <time>2021-03-06T15:39:56Z</time>
      </trkpt>
      <trkpt lat="43.62577" lon="3.836">
        <ele>79</ele>
        <time>2021-03-06T15:39:57Z</time>
      </trkpt>
      <trkpt lat="43.62577" lon="3.83603">
        <ele>79</ele>
        <time>2021-03-06T15:39:58Z</time>
      </trkpt>
      <trkpt lat="43.62577" lon="3.83606">
        <ele>79</ele>
        <time>2021-03-06T15:39:59Z</time>
      </trkpt>
      <trkpt lat="43.62575" lon="3.8361">
        <ele>79</ele>
        <time>2021-03-06T15:40:00Z</time>
      </trkpt>
      <trkpt lat="43.62573" lon="3.83613">
        <ele>79</ele>
        <time>2021-03-06T15:40:01Z</time>
      </trkpt>
      <trkpt lat="43.6257" lon="3.83615">
        <ele>79</ele>
        <time>2021-03-06T15:40:02Z</time>
      </trkpt>
      <trkpt lat="43.62568" lon="3.83616">
        <ele>79</ele>
        <time>2021-03-06T15:40:03Z</time>
      </trkpt>
      <trkpt lat="43.62566" lon="3.83616">
        <ele>79</ele>
        <time>2021-03-06T15:40:04Z</time>
      </trkpt>
      <trkpt lat="43.62564" lon="3.83617">
        <ele>79</ele>
        <time>2021-03-06T15:40:05Z</time>
      </trkpt>
      <trkpt lat="43.62561" lon="3.83618">
        <ele>79</ele>
        <time>2021-03-06T15:40:06Z</time>
      </trkpt>
      <trkpt lat="43.62559" lon="3.83619">
        <ele>79</ele>
        <time>2021-03-06T15:40:07Z</time>
      </trkpt>
      <trkpt lat="43.62557" lon="3.8362">
        <ele>79</ele>
        <time>2021-03-06T15:40:08Z</time>
      </trkpt>
      <trkpt lat="43.62554" lon="3.83621">
        <ele>79</ele>
        <time>2021-03-06T15:40:09Z</time>
      </trkpt>
      <trkpt lat="43.62552" lon="3.83622">
        <ele>79</ele>
        <time>2021-03-06T15:40:10Z</time>
      </trkpt>
      <trkpt lat="43.62549" lon="3.83622">
        <ele>79</ele>
        <time>2021-03-06T15:40:11Z</time>
      </trkpt>
      <trkpt lat="43.62547" lon="3.83622">
        <ele>79</ele>
        <time>2021-03-06T15:40:12Z</time>
      </trkpt>
      <trkpt lat="43.62545" lon="3.83621">
        <ele>79</ele>
        <time>2021-03-06T15:40:13Z</time>
      </trkpt>
      <trkpt lat="43.62543" lon="3.8362">
        <ele>79</ele>
        <time>2021-03-06T15:40:14Z</time>
      </trkpt>
      <trkpt lat="43.6254" lon="3.83618">
        <ele>79</ele>
        <time>2021-03-06T15:40:15Z</time>
      </trkpt>
      <trkpt lat="43.62538" lon="3.83616">
        <ele>79</ele>
        <time>2021-03-06T15:40:16Z</time>
      </trkpt>
      <trkpt lat="43.62536" lon="3.83614">
        <ele>79</ele>
        <time>2021-03-06T15:40:17Z</time>
      </trkpt>
      <trkpt lat="43.62533" lon="3.83612">
        <ele>79</ele>
        <time>2021-03-06T15:40:18Z</time>
      </trkpt>
      <trkpt lat="43.62531" lon="3.83609">
        <ele>79</ele>
        <time>2021-03-06T15:40:19Z</time>
      </trkpt>
      <trkpt lat="43.62528" lon="3.83608">
        <ele>79</ele>
        <time>2021-03-06T15:40:20Z</time>
      </trkpt>
      <trkpt lat="43.62525" lon="3.83606">
        <ele>79</ele>
        <time>2021-03-06T15:40:21Z</time>
      </trkpt>
      <trkpt lat="43.62522" lon="3.83605">
        <ele>79</ele>
        <time>2021-03-06T15:40:22Z</time>
      </trkpt>
      <trkpt lat="43.6252" lon="3.83604">
        <ele>79</ele>
        <time>2021-03-06T15:40:23Z</time>
      </trkpt>
      <trkpt lat="43.62517" lon="3.83604">
        <ele>79</ele>
        <time>2021-03-06T15:40:24Z</time>
      </trkpt>
      <trkpt lat="43.62514" lon="3.83604">
        <ele>79</ele>
        <time>2021-03-06T15:40:25Z</time>
      </trkpt>
      <trkpt lat="43.62512" lon="3.83605">
        <ele>79</ele>
        <time>2021-03-06T15:40:26Z</time>
      </trkpt>
      <trkpt lat="43.62509" lon="3.83605">
        <ele>79</ele>
        <time>2021-03-06T15:40:27Z</time>
      </trkpt>
      <trkpt lat="43.62507" lon="3.83606">
        <ele>79</ele>
        <time>2021-03-06T15:40:28Z</time>
      </trkpt>
      <trkpt lat="43.62505" lon="3.83609">
        <ele>79</ele>
        <time>2021-03-06T15:40:29Z</time>
      </trkpt>
      <trkpt lat="43.62503" lon="3.83612">
        <ele>79</ele>
        <time>2021-03-06T15:40:30Z</time>
      </trkpt>
      <trkpt lat="43.62501" lon="3.83615">
        <ele>79</ele>
        <time>2021-03-06T15:40:31Z</time>
      </trkpt>
      <trkpt lat="43.62499" lon="3.83618">
        <ele>79</ele>
        <time>2021-03-06T15:40:32Z</time>
      </trkpt>
      <trkpt lat="43.62497" lon="3.83622">
        <ele>79</ele>
        <time>2021-03-06T15:40:33Z</time>
      </trkpt>
      <trkpt lat="43.62496" lon="3.83625">
        <ele>79</ele>
        <time>2021-03-06T15:40:34Z</time>
      </trkpt>
      <trkpt lat="43.62494" lon="3.83628">
        <ele>78</ele>
        <time>2021-03-06T15:40:35Z</time>
      </trkpt>
      <trkpt lat="43.62494" lon="3.83632">
        <ele>78</ele>
        <time>2021-03-06T15:40:36Z</time>
      </trkpt>
      <trkpt lat="43.62492" lon="3.83636">
        <ele>78</ele>
        <time>2021-03-06T15:40:37Z</time>
      </trkpt>
      <trkpt lat="43.62491" lon="3.83639">
        <ele>78</ele>
        <time>2021-03-06T15:40:38Z</time>
      </trkpt>
      <trkpt lat="43.62489" lon="3.83643">
        <ele>78</ele>
        <time>2021-03-06T15:40:39Z</time>
      </trkpt>
      <trkpt lat="43.62487" lon="3.83646">
        <ele>78</ele>
        <time>2021-03-06T15:40:40Z</time>
      </trkpt>
      <trkpt lat="43.62484" lon="3.83648">
        <ele>78</ele>
        <time>2021-03-06T15:40:41Z</time>
      </trkpt>
      <trkpt lat="43.62481" lon="3.83648">
        <ele>78</ele>
        <time>2021-03-06T15:40:42Z</time>
      </trkpt>
      <trkpt lat="43.62478" lon="3.83649">
        <ele>78</ele>
        <time>2021-03-06T15:40:43Z</time>
      </trkpt>
      <trkpt lat="43.62476" lon="3.83651">
        <ele>78</ele>
        <time>2021-03-06T15:40:44Z</time>
      </trkpt>
      <trkpt lat="43.62473" lon="3.83652">
        <ele>78</ele>
        <time>2021-03-06T15:40:45Z</time>
      </trkpt>
      <trkpt lat="43.62471" lon="3.83653">
        <ele>78</ele>
        <time>2021-03-06T15:40:46Z</time>
      </trkpt>
      <trkpt lat="43.62469" lon="3.83653">
        <ele>78</ele>
        <time>2021-03-06T15:40:47Z</time>
      </trkpt>
      <trkpt lat="43.62467" lon="3.83654">
        <ele>78</ele>
        <time>2021-03-06T15:40:48Z</time>
      </trkpt>
      <trkpt lat="43.62465" lon="3.83655">
        <ele>78</ele>
        <time>2021-03-06T15:40:49Z</time>
      </trkpt>
      <trkpt lat="43.62463" lon="3.83656">
        <ele>78</ele>
        <time>2021-03-06T15:40:50Z</time>
      </trkpt>
      <trkpt lat="43.62461" lon="3.83657">
        <ele>78</ele>
        <time>2021-03-06T15:40:51Z</time>
      </trkpt>
      <trkpt lat="43.62458" lon="3.83658">
        <ele>78</ele>
        <time>2021-03-06T15:40:52Z</time>
      </trkpt>
      <trkpt lat="43.62456" lon="3.83659">
        <ele>78</ele>
        <time>2021-03-06T15:40:53Z</time>
      </trkpt>
      <trkpt lat="43.62453" lon="3.83661">
        <ele>78</ele>
        <time>2021-03-06T15:40:54Z</time>
      </trkpt>
      <trkpt lat="43.6245" lon="3.83662">
        <ele>78</ele>
        <time>2021-03-06T15:40:55Z</time>
      </trkpt>
      <trkpt lat="43.62443" lon="3.83665">
        <ele>79</ele>
        <time>2021-03-06T15:40:56Z</time>
      </trkpt>
      <trkpt lat="43.6244" lon="3.83666">
        <ele>79</ele>
        <time>2021-03-06T15:40:57Z</time>
      </trkpt>
      <trkpt lat="43.62436" lon="3.83667">
        <ele>79</ele>
        <time>2021-03-06T15:40:58Z</time>
      </trkpt>
      <trkpt lat="43.62433" lon="3.83669">
        <ele>79</ele>
        <time>2021-03-06T15:40:59Z</time>
      </trkpt>
      <trkpt lat="43.6243" lon="3.8367">
        <ele>79</ele>
        <time>2021-03-06T15:41:00Z</time>
      </trkpt>
      <trkpt lat="43.62427" lon="3.83671">
        <ele>79</ele>
        <time>2021-03-06T15:41:01Z</time>
      </trkpt>
      <trkpt lat="43.62425" lon="3.83672">
        <ele>79</ele>
        <time>2021-03-06T15:41:02Z</time>
      </trkpt>
      <trkpt lat="43.62423" lon="3.83672">
        <ele>79</ele>
        <time>2021-03-06T15:41:03Z</time>
      </trkpt>
      <trkpt lat="43.6242" lon="3.83672">
        <ele>78</ele>
        <time>2021-03-06T15:41:05Z</time>
      </trkpt>
      <trkpt lat="43.62418" lon="3.83672">
        <ele>78</ele>
        <time>2021-03-06T15:41:06Z</time>
      </trkpt>
      <trkpt lat="43.62415" lon="3.83675">
        <ele>78</ele>
        <time>2021-03-06T15:41:08Z</time>
      </trkpt>
      <trkpt lat="43.62415" lon="3.83678">
        <ele>78</ele>
        <time>2021-03-06T15:41:09Z</time>
      </trkpt>
      <trkpt lat="43.62416" lon="3.83681">
        <ele>78</ele>
        <time>2021-03-06T15:41:10Z</time>
      </trkpt>
      <trkpt lat="43.62416" lon="3.83684">
        <ele>78</ele>
        <time>2021-03-06T15:41:11Z</time>
      </trkpt>
      <trkpt lat="43.62417" lon="3.83688">
        <ele>78</ele>
        <time>2021-03-06T15:41:12Z</time>
      </trkpt>
      <trkpt lat="43.62418" lon="3.83691">
        <ele>78</ele>
        <time>2021-03-06T15:41:14Z</time>
      </trkpt>
      <trkpt lat="43.62418" lon="3.83696">
        <ele>78</ele>
        <time>2021-03-06T15:41:16Z</time>
      </trkpt>
      <trkpt lat="43.62422" lon="3.83703">
        <ele>78</ele>
        <time>2021-03-06T15:41:17Z</time>
      </trkpt>
      <trkpt lat="43.62425" lon="3.83708">
        <ele>78</ele>
        <time>2021-03-06T15:41:18Z</time>
      </trkpt>
      <trkpt lat="43.62426" lon="3.83714">
        <ele>78</ele>
        <time>2021-03-06T15:41:19Z</time>
      </trkpt>
      <trkpt lat="43.62428" lon="3.83719">
        <ele>78</ele>
        <time>2021-03-06T15:41:20Z</time>
      </trkpt>
      <trkpt lat="43.62433" lon="3.83731">
        <ele>78</ele>
        <time>2021-03-06T15:41:22Z</time>
      </trkpt>
      <trkpt lat="43.62436" lon="3.83736">
        <ele>78</ele>
        <time>2021-03-06T15:41:24Z</time>
      </trkpt>
      <trkpt lat="43.62436" lon="3.83741">
        <ele>78</ele>
        <time>2021-03-06T15:41:25Z</time>
      </trkpt>
      <trkpt lat="43.62436" lon="3.83746">
        <ele>78</ele>
        <time>2021-03-06T15:41:26Z</time>
      </trkpt>
      <trkpt lat="43.62437" lon="3.83749">
        <ele>78</ele>
        <time>2021-03-06T15:41:27Z</time>
      </trkpt>
      <trkpt lat="43.62438" lon="3.83753">
        <ele>78</ele>
        <time>2021-03-06T15:41:28Z</time>
      </trkpt>
      <trkpt lat="43.62439" lon="3.83756">
        <ele>78</ele>
        <time>2021-03-06T15:41:29Z</time>
      </trkpt>
      <trkpt lat="43.62439" lon="3.8376">
        <ele>78</ele>
        <time>2021-03-06T15:41:30Z</time>
      </trkpt>
      <trkpt lat="43.62439" lon="3.83763">
        <ele>78</ele>
        <time>2021-03-06T15:41:31Z</time>
      </trkpt>
      <trkpt lat="43.6244" lon="3.83766">
        <ele>78</ele>
        <time>2021-03-06T15:41:32Z</time>
      </trkpt>
      <trkpt lat="43.6244" lon="3.83769">
        <ele>78</ele>
        <time>2021-03-06T15:41:33Z</time>
      </trkpt>
      <trkpt lat="43.6244" lon="3.83771">
        <ele>78</ele>
        <time>2021-03-06T15:41:34Z</time>
      </trkpt>
      <trkpt lat="43.62441" lon="3.83773">
        <ele>79</ele>
        <time>2021-03-06T15:41:35Z</time>
      </trkpt>
      <trkpt lat="43.62442" lon="3.83776">
        <ele>79</ele>
        <time>2021-03-06T15:41:36Z</time>
      </trkpt>
      <trkpt lat="43.62443" lon="3.83778">
        <ele>79</ele>
        <time>2021-03-06T15:41:37Z</time>
      </trkpt>
      <trkpt lat="43.62446" lon="3.83782">
        <ele>79</ele>
        <time>2021-03-06T15:41:39Z</time>
      </trkpt>
      <trkpt lat="43.6245" lon="3.83785">
        <ele>79</ele>
        <time>2021-03-06T15:41:42Z</time>
      </trkpt>
      <trkpt lat="43.62452" lon="3.83786">
        <ele>79</ele>
        <time>2021-03-06T15:41:43Z</time>
      </trkpt>
      <trkpt lat="43.62454" lon="3.83787">
        <ele>79</ele>
        <time>2021-03-06T15:41:44Z</time>
      </trkpt>
      <trkpt lat="43.62457" lon="3.83789">
        <ele>79</ele>
        <time>2021-03-06T15:41:46Z</time>
      </trkpt>
      <trkpt lat="43.62459" lon="3.83791">
        <ele>79</ele>
        <time>2021-03-06T15:41:47Z</time>
      </trkpt>
      <trkpt lat="43.62465" lon="3.83794">
        <ele>79</ele>
        <time>2021-03-06T15:41:50Z</time>
      </trkpt>
      <trkpt lat="43.62473" lon="3.83802">
        <ele>79</ele>
        <time>2021-03-06T15:41:54Z</time>
      </trkpt>
      <trkpt lat="43.62477" lon="3.83807">
        <ele>79</ele>
        <time>2021-03-06T15:41:56Z</time>
      </trkpt>
      <trkpt lat="43.6248" lon="3.8381">
        <ele>79</ele>
        <time>2021-03-06T15:41:57Z</time>
      </trkpt>
      <trkpt lat="43.62483" lon="3.83812">
        <ele>79</ele>
        <time>2021-03-06T15:41:58Z</time>
      </trkpt>
      <trkpt lat="43.62485" lon="3.83815">
        <ele>79</ele>
        <time>2021-03-06T15:41:59Z</time>
      </trkpt>
      <trkpt lat="43.62487" lon="3.83816">
        <ele>79</ele>
        <time>2021-03-06T15:42:00Z</time>
      </trkpt>
      <trkpt lat="43.62489" lon="3.83817">
        <ele>79</ele>
        <time>2021-03-06T15:42:01Z</time>
      </trkpt>
      <trkpt lat="43.62491" lon="3.83819">
        <ele>79</ele>
        <time>2021-03-06T15:42:02Z</time>
      </trkpt>
      <trkpt lat="43.62493" lon="3.8382">
        <ele>79</ele>
        <time>2021-03-06T15:42:03Z</time>
      </trkpt>
      <trkpt lat="43.62496" lon="3.83822">
        <ele>79</ele>
        <time>2021-03-06T15:42:04Z</time>
      </trkpt>
      <trkpt lat="43.62498" lon="3.83824">
        <ele>81</ele>
        <time>2021-03-06T15:42:05Z</time>
      </trkpt>
      <trkpt lat="43.625" lon="3.83826">
        <ele>81</ele>
        <time>2021-03-06T15:42:06Z</time>
      </trkpt>
      <trkpt lat="43.62503" lon="3.83827">
        <ele>81</ele>
        <time>2021-03-06T15:42:07Z</time>
      </trkpt>
      <trkpt lat="43.62506" lon="3.83828">
        <ele>81</ele>
        <time>2021-03-06T15:42:08Z</time>
      </trkpt>
      <trkpt lat="43.6251" lon="3.83829">
        <ele>81</ele>
        <time>2021-03-06T15:42:09Z</time>
      </trkpt>
      <trkpt lat="43.62513" lon="3.83833">
        <ele>81</ele>
        <time>2021-03-06T15:42:10Z</time>
      </trkpt>
      <trkpt lat="43.62515" lon="3.83838">
        <ele>81</ele>
        <time>2021-03-06T15:42:11Z</time>
      </trkpt>
      <trkpt lat="43.62518" lon="3.83842">
        <ele>81</ele>
        <time>2021-03-06T15:42:12Z</time>
      </trkpt>
      <trkpt lat="43.6252" lon="3.83847">
        <ele>81</ele>
        <time>2021-03-06T15:42:13Z</time>
      </trkpt>
      <trkpt lat="43.62522" lon="3.83852">
        <ele>81</ele>
        <time>2021-03-06T15:42:14Z</time>
      </trkpt>
      <trkpt lat="43.62522" lon="3.83857">
        <ele>77</ele>
        <time>2021-03-06T15:42:15Z</time>
      </trkpt>
      <trkpt lat="43.62523" lon="3.83863">
        <ele>77</ele>
        <time>2021-03-06T15:42:16Z</time>
      </trkpt>
      <trkpt lat="43.62524" lon="3.83868">
        <ele>77</ele>
        <time>2021-03-06T15:42:17Z</time>
      </trkpt>
      <trkpt lat="43.62526" lon="3.83874">
        <ele>77</ele>
        <time>2021-03-06T15:42:18Z</time>
      </trkpt>
      <trkpt lat="43.62527" lon="3.8388">
        <ele>77</ele>
        <time>2021-03-06T15:42:19Z</time>
      </trkpt>
      <trkpt lat="43.62529" lon="3.83886">
        <ele>77</ele>
        <time>2021-03-06T15:42:20Z</time>
      </trkpt>
      <trkpt lat="43.62531" lon="3.83891">
        <ele>77</ele>
        <time>2021-03-06T15:42:21Z</time>
      </trkpt>
      <trkpt lat="43.62533" lon="3.83898">
        <ele>77</ele>
        <time>2021-03-06T15:42:22Z</time>
      </trkpt>
      <trkpt lat="43.62534" lon="3.83904">
        <ele>77</ele>
        <time>2021-03-06T15:42:23Z</time>
      </trkpt>
      <trkpt lat="43.62534" lon="3.83911">
        <ele>77</ele>
        <time>2021-03-06T15:42:24Z</time>
      </trkpt>
      <trkpt lat="43.62535" lon="3.83917">
        <ele>74</ele>
        <time>2021-03-06T15:42:25Z</time>
      </trkpt>
      <trkpt lat="43.62536" lon="3.83924">
        <ele>74</ele>
        <time>2021-03-06T15:42:26Z</time>
      </trkpt>
      <trkpt lat="43.62537" lon="3.8393">
        <ele>74</ele>
        <time>2021-03-06T15:42:27Z</time>
      </trkpt>
      <trkpt lat="43.62537" lon="3.83936">
        <ele>74</ele>
        <time>2021-03-06T15:42:28Z</time>
      </trkpt>
      <trkpt lat="43.62537" lon="3.83943">
        <ele>74</ele>
        <time>2021-03-06T15:42:29Z</time>
      </trkpt>
      <trkpt lat="43.62535" lon="3.8395">
        <ele>74</ele>
        <time>2021-03-06T15:42:30Z</time>
      </trkpt>
      <trkpt lat="43.62533" lon="3.83956">
        <ele>74</ele>
        <time>2021-03-06T15:42:31Z</time>
      </trkpt>
      <trkpt lat="43.6253" lon="3.83962">
        <ele>74</ele>
        <time>2021-03-06T15:42:32Z</time>
      </trkpt>
      <trkpt lat="43.62529" lon="3.83968">
        <ele>74</ele>
        <time>2021-03-06T15:42:33Z</time>
      </trkpt>
      <trkpt lat="43.62527" lon="3.83975">
        <ele>74</ele>
        <time>2021-03-06T15:42:34Z</time>
      </trkpt>
      <trkpt lat="43.62525" lon="3.8398">
        <ele>73</ele>
        <time>2021-03-06T15:42:35Z</time>
      </trkpt>
      <trkpt lat="43.62522" lon="3.83985">
        <ele>73</ele>
        <time>2021-03-06T15:42:36Z</time>
      </trkpt>
      <trkpt lat="43.6252" lon="3.83991">
        <ele>73</ele>
        <time>2021-03-06T15:42:37Z</time>
      </trkpt>
      <trkpt lat="43.62518" lon="3.83998">
        <ele>73</ele>
        <time>2021-03-06T15:42:38Z</time>
      </trkpt>
      <trkpt lat="43.62515" lon="3.84005">
        <ele>73</ele>
        <time>2021-03-06T15:42:39Z</time>
      </trkpt>
      <trkpt lat="43.62513" lon="3.84012">
        <ele>73</ele>
        <time>2021-03-06T15:42:40Z</time>
      </trkpt>
      <trkpt lat="43.6251" lon="3.8402">
        <ele>73</ele>
        <time>2021-03-06T15:42:41Z</time>
      </trkpt>
      <trkpt lat="43.62506" lon="3.84027">
        <ele>73</ele>
        <time>2021-03-06T15:42:42Z</time>
      </trkpt>
      <trkpt lat="43.62503" lon="3.84034">
        <ele>73</ele>
        <time>2021-03-06T15:42:43Z</time>
      </trkpt>
      <trkpt lat="43.62499" lon="3.84041">
        <ele>73</ele>
        <time>2021-03-06T15:42:44Z</time>
      </trkpt>
      <trkpt lat="43.62497" lon="3.84049">
        <ele>71</ele>
        <time>2021-03-06T15:42:45Z</time>
      </trkpt>
      <trkpt lat="43.62494" lon="3.84056">
        <ele>71</ele>
        <time>2021-03-06T15:42:46Z</time>
      </trkpt>
      <trkpt lat="43.62491" lon="3.84063">
        <ele>71</ele>
        <time>2021-03-06T15:42:47Z</time>
      </trkpt>
      <trkpt lat="43.62488" lon="3.8407">
        <ele>71</ele>
        <time>2021-03-06T15:42:48Z</time>
      </trkpt>
      <trkpt lat="43.62485" lon="3.84077">
        <ele>71</ele>
        <time>2021-03-06T15:42:49Z</time>
      </trkpt>
      <trkpt lat="43.62482" lon="3.84083">
        <ele>71</ele>
        <time>2021-03-06T15:42:50Z</time>
      </trkpt>
      <trkpt lat="43.62479" lon="3.84089">
        <ele>71</ele>
        <time>2021-03-06T15:42:51Z</time>
      </trkpt>
      <trkpt lat="43.62476" lon="3.84096">
        <ele>71</ele>
        <time>2021-03-06T15:42:52Z</time>
      </trkpt>
      <trkpt lat="43.62474" lon="3.84103">
        <ele>71</ele>
        <time>2021-03-06T15:42:53Z</time>
      </trkpt>
      <trkpt lat="43.62471" lon="3.84109">
        <ele>71</ele>
        <time>2021-03-06T15:42:54Z</time>
      </trkpt>
      <trkpt lat="43.62468" lon="3.84116">
        <ele>70</ele>
        <time>2021-03-06T15:42:55Z</time>
      </trkpt>
      <trkpt lat="43.62464" lon="3.84122">
        <ele>70</ele>
        <time>2021-03-06T15:42:56Z</time>
      </trkpt>
      <trkpt lat="43.6246" lon="3.84127">
        <ele>70</ele>
        <time>2021-03-06T15:42:57Z</time>
      </trkpt>
      <trkpt lat="43.62456" lon="3.84131">
        <ele>70</ele>
        <time>2021-03-06T15:42:58Z</time>
      </trkpt>
      <trkpt lat="43.62452" lon="3.84134">
        <ele>70</ele>
        <time>2021-03-06T15:42:59Z</time>
      </trkpt>
      <trkpt lat="43.62449" lon="3.84137">
        <ele>70</ele>
        <time>2021-03-06T15:43:00Z</time>
      </trkpt>
      <trkpt lat="43.62447" lon="3.84141">
        <ele>70</ele>
        <time>2021-03-06T15:43:01Z</time>
      </trkpt>
      <trkpt lat="43.62443" lon="3.84142">
        <ele>70</ele>
        <time>2021-03-06T15:43:02Z</time>
      </trkpt>
      <trkpt lat="43.62439" lon="3.84143">
        <ele>70</ele>
        <time>2021-03-06T15:43:03Z</time>
      </trkpt>
      <trkpt lat="43.62435" lon="3.84145">
        <ele>70</ele>
        <time>2021-03-06T15:43:04Z</time>
      </trkpt>
      <trkpt lat="43.6243" lon="3.84146">
        <ele>70</ele>
        <time>2021-03-06T15:43:05Z</time>
      </trkpt>
      <trkpt lat="43.62425" lon="3.84147">
        <ele>70</ele>
        <time>2021-03-06T15:43:06Z</time>
      </trkpt>
      <trkpt lat="43.62421" lon="3.84148">
        <ele>70</ele>
        <time>2021-03-06T15:43:07Z</time>
      </trkpt>
      <trkpt lat="43.62416" lon="3.84151">
        <ele>70</ele>
        <time>2021-03-06T15:43:08Z</time>
      </trkpt>
      <trkpt lat="43.62411" lon="3.84152">
        <ele>70</ele>
        <time>2021-03-06T15:43:09Z</time>
      </trkpt>
      <trkpt lat="43.62407" lon="3.84153">
        <ele>70</ele>
        <time>2021-03-06T15:43:10Z</time>
      </trkpt>
      <trkpt lat="43.62402" lon="3.84155">
        <ele>70</ele>
        <time>2021-03-06T15:43:11Z</time>
      </trkpt>
      <trkpt lat="43.62397" lon="3.84157">
        <ele>70</ele>
        <time>2021-03-06T15:43:12Z</time>
      </trkpt>
      <trkpt lat="43.62392" lon="3.84158">
        <ele>70</ele>
        <time>2021-03-06T15:43:13Z</time>
      </trkpt>
      <trkpt lat="43.62389" lon="3.8416">
        <ele>70</ele>
        <time>2021-03-06T15:43:14Z</time>
      </trkpt>
      <trkpt lat="43.62386" lon="3.84163">
        <ele>69</ele>
        <time>2021-03-06T15:43:15Z</time>
      </trkpt>
      <trkpt lat="43.62384" lon="3.84166">
        <ele>69</ele>
        <time>2021-03-06T15:43:16Z</time>
      </trkpt>
      <trkpt lat="43.62381" lon="3.84168">
        <ele>69</ele>
        <time>2021-03-06T15:43:17Z</time>
      </trkpt>
      <trkpt lat="43.62379" lon="3.84169">
        <ele>69</ele>
        <time>2021-03-06T15:43:18Z</time>
      </trkpt>
      <trkpt lat="43.62378" lon="3.84172">
        <ele>69</ele>
        <time>2021-03-06T15:43:19Z</time>
      </trkpt>
      <trkpt lat="43.62378" lon="3.84175">
        <ele>69</ele>
        <time>2021-03-06T15:43:20Z</time>
      </trkpt>
      <trkpt lat="43.62379" lon="3.84177">
        <ele>69</ele>
        <time>2021-03-06T15:43:21Z</time>
      </trkpt>
      <trkpt lat="43.62381" lon="3.84181">
        <ele>69</ele>
        <time>2021-03-06T15:43:22Z</time>
      </trkpt>
      <trkpt lat="43.62384" lon="3.84184">
        <ele>69</ele>
        <time>2021-03-06T15:43:23Z</time>
      </trkpt>
      <trkpt lat="43.62385" lon="3.84188">
        <ele>69</ele>
        <time>2021-03-06T15:43:24Z</time>
      </trkpt>
      <trkpt lat="43.62386" lon="3.84192">
        <ele>67</ele>
        <time>2021-03-06T15:43:25Z</time>
      </trkpt>
      <trkpt lat="43.62388" lon="3.84197">
        <ele>67</ele>
        <time>2021-03-06T15:43:26Z</time>
      </trkpt>
      <trkpt lat="43.62389" lon="3.84201">
        <ele>67</ele>
        <time>2021-03-06T15:43:27Z</time>
      </trkpt>
      <trkpt lat="43.6239" lon="3.84205">
        <ele>67</ele>
        <time>2021-03-06T15:43:28Z</time>
      </trkpt>
      <trkpt lat="43.62391" lon="3.84208">
        <ele>67</ele>
        <time>2021-03-06T15:43:29Z</time>
      </trkpt>
      <trkpt lat="43.62392" lon="3.84211">
        <ele>67</ele>
        <time>2021-03-06T15:43:30Z</time>
      </trkpt>
      <trkpt lat="43.62393" lon="3.84214">
        <ele>67</ele>
        <time>2021-03-06T15:43:31Z</time>
      </trkpt>
      <trkpt lat="43.62394" lon="3.84217">
        <ele>67</ele>
        <time>2021-03-06T15:43:32Z</time>
      </trkpt>
      <trkpt lat="43.62394" lon="3.8422">
        <ele>67</ele>
        <time>2021-03-06T15:43:33Z</time>
      </trkpt>
      <trkpt lat="43.62395" lon="3.84224">
        <ele>66</ele>
        <time>2021-03-06T15:43:35Z</time>
      </trkpt>
      <trkpt lat="43.62394" lon="3.84229">
        <ele>66</ele>
        <time>2021-03-06T15:43:37Z</time>
      </trkpt>
      <trkpt lat="43.62391" lon="3.8423">
        <ele>66</ele>
        <time>2021-03-06T15:43:39Z</time>
      </trkpt>
      <trkpt lat="43.62388" lon="3.84231">
        <ele>66</ele>
        <time>2021-03-06T15:43:41Z</time>
      </trkpt>
      <trkpt lat="43.62386" lon="3.84236">
        <ele>66</ele>
        <time>2021-03-06T15:43:43Z</time>
      </trkpt>
      <trkpt lat="43.62385" lon="3.84243">
        <ele>66</ele>
        <time>2021-03-06T15:43:44Z</time>
      </trkpt>
      <trkpt lat="43.62385" lon="3.84251">
        <ele>66</ele>
        <time>2021-03-06T15:43:45Z</time>
      </trkpt>
      <trkpt lat="43.62385" lon="3.84258">
        <ele>66</ele>
        <time>2021-03-06T15:43:46Z</time>
      </trkpt>
      <trkpt lat="43.62384" lon="3.84265">
        <ele>66</ele>
        <time>2021-03-06T15:43:47Z</time>
      </trkpt>
      <trkpt lat="43.62384" lon="3.8427">
        <ele>66</ele>
        <time>2021-03-06T15:43:48Z</time>
      </trkpt>
      <trkpt lat="43.62384" lon="3.84276">
        <ele>66</ele>
        <time>2021-03-06T15:43:49Z</time>
      </trkpt>
      <trkpt lat="43.62383" lon="3.84281">
        <ele>66</ele>
        <time>2021-03-06T15:43:50Z</time>
      </trkpt>
      <trkpt lat="43.62381" lon="3.84285">
        <ele>66</ele>
        <time>2021-03-06T15:43:51Z</time>
      </trkpt>
      <trkpt lat="43.62378" lon="3.84288">
        <ele>66</ele>
        <time>2021-03-06T15:43:52Z</time>
      </trkpt>
      <trkpt lat="43.62376" lon="3.84291">
        <ele>66</ele>
        <time>2021-03-06T15:43:53Z</time>
      </trkpt>
      <trkpt lat="43.62374" lon="3.84295">
        <ele>66</ele>
        <time>2021-03-06T15:43:54Z</time>
      </trkpt>
      <trkpt lat="43.62373" lon="3.84299">
        <ele>65</ele>
        <time>2021-03-06T15:43:55Z</time>
      </trkpt>
      <trkpt lat="43.62372" lon="3.84303">
        <ele>65</ele>
        <time>2021-03-06T15:43:56Z</time>
      </trkpt>
      <trkpt lat="43.62374" lon="3.84305">
        <ele>65</ele>
        <time>2021-03-06T15:43:58Z</time>
      </trkpt>
      <trkpt lat="43.62375" lon="3.84302">
        <ele>65</ele>
        <time>2021-03-06T15:44:00Z</time>
      </trkpt>
      <trkpt lat="43.62377" lon="3.84298">
        <ele>65</ele>
        <time>2021-03-06T15:44:02Z</time>
      </trkpt>
      <trkpt lat="43.62378" lon="3.84295">
        <ele>65</ele>
        <time>2021-03-06T15:44:04Z</time>
      </trkpt>
      <trkpt lat="43.62376" lon="3.84294">
        <ele>65</ele>
        <time>2021-03-06T15:44:06Z</time>
      </trkpt>
      <trkpt lat="43.62374" lon="3.84295">
        <ele>65</ele>
        <time>2021-03-06T15:44:09Z</time>
      </trkpt>
      <trkpt lat="43.62373" lon="3.84299">
        <ele>65</ele>
        <time>2021-03-06T15:44:11Z</time>
      </trkpt>
      <trkpt lat="43.62373" lon="3.84301">
        <ele>65</ele>
        <time>2021-03-06T15:44:12Z</time>
      </trkpt>
      <trkpt lat="43.62372" lon="3.84304">
        <ele>65</ele>
        <time>2021-03-06T15:44:14Z</time>
      </trkpt>
      <trkpt lat="43.6237" lon="3.84309">
        <ele>65</ele>
        <time>2021-03-06T15:44:16Z</time>
      </trkpt>
      <trkpt lat="43.62368" lon="3.84314">
        <ele>65</ele>
        <time>2021-03-06T15:44:17Z</time>
      </trkpt>
      <trkpt lat="43.62366" lon="3.84318">
        <ele>65</ele>
        <time>2021-03-06T15:44:18Z</time>
      </trkpt>
      <trkpt lat="43.62364" lon="3.84321">
        <ele>65</ele>
        <time>2021-03-06T15:44:19Z</time>
      </trkpt>
      <trkpt lat="43.62362" lon="3.84325">
        <ele>65</ele>
        <time>2021-03-06T15:44:20Z</time>
      </trkpt>
      <trkpt lat="43.6236" lon="3.84328">
        <ele>65</ele>
        <time>2021-03-06T15:44:21Z</time>
      </trkpt>
      <trkpt lat="43.62359" lon="3.84331">
        <ele>65</ele>
        <time>2021-03-06T15:44:22Z</time>
      </trkpt>
      <trkpt lat="43.62359" lon="3.84334">
        <ele>65</ele>
        <time>2021-03-06T15:44:23Z</time>
      </trkpt>
      <trkpt lat="43.62359" lon="3.84337">
        <ele>65</ele>
        <time>2021-03-06T15:44:24Z</time>
      </trkpt>
      <trkpt lat="43.6236" lon="3.8434">
        <ele>64</ele>
        <time>2021-03-06T15:44:25Z</time>
      </trkpt>
      <trkpt lat="43.6236" lon="3.84344">
        <ele>64</ele>
        <time>2021-03-06T15:44:27Z</time>
      </trkpt>
      <trkpt lat="43.62359" lon="3.84346">
        <ele>64</ele>
        <time>2021-03-06T15:44:28Z</time>
      </trkpt>
      <trkpt lat="43.62357" lon="3.84351">
        <ele>64</ele>
        <time>2021-03-06T15:44:30Z</time>
      </trkpt>
      <trkpt lat="43.62357" lon="3.84356">
        <ele>64</ele>
        <time>2021-03-06T15:44:32Z</time>
      </trkpt>
      <trkpt lat="43.62357" lon="3.84358">
        <ele>64</ele>
        <time>2021-03-06T15:44:33Z</time>
      </trkpt>
      <trkpt lat="43.62356" lon="3.84361">
        <ele>64</ele>
        <time>2021-03-06T15:44:34Z</time>
      </trkpt>
      <trkpt lat="43.62356" lon="3.84364">
        <ele>64</ele>
        <time>2021-03-06T15:44:35Z</time>
      </trkpt>
      <trkpt lat="43.62354" lon="3.84367">
        <ele>64</ele>
        <time>2021-03-06T15:44:36Z</time>
      </trkpt>
      <trkpt lat="43.62353" lon="3.8437">
        <ele>64</ele>
        <time>2021-03-06T15:44:37Z</time>
      </trkpt>
      <trkpt lat="43.62351" lon="3.84372">
        <ele>64</ele>
        <time>2021-03-06T15:44:38Z</time>
      </trkpt>
      <trkpt lat="43.62349" lon="3.84375">
        <ele>64</ele>
        <time>2021-03-06T15:44:39Z</time>
      </trkpt>
      <trkpt lat="43.62347" lon="3.84378">
        <ele>64</ele>
        <time>2021-03-06T15:44:40Z</time>
      </trkpt>
      <trkpt lat="43.62345" lon="3.84381">
        <ele>64</ele>
        <time>2021-03-06T15:44:41Z</time>
      </trkpt>
      <trkpt lat="43.62343" lon="3.84383">
        <ele>64</ele>
        <time>2021-03-06T15:44:42Z</time>
      </trkpt>
      <trkpt lat="43.62341" lon="3.84386">
        <ele>64</ele>
        <time>2021-03-06T15:44:43Z</time>
      </trkpt>
      <trkpt lat="43.62339" lon="3.84389">
        <ele>64</ele>
        <time>2021-03-06T15:44:44Z</time>
      </trkpt>
      <trkpt lat="43.62337" lon="3.84393">
        <ele>64</ele>
        <time>2021-03-06T15:44:45Z</time>
      </trkpt>
      <trkpt lat="43.62334" lon="3.84396">
        <ele>64</ele>
        <time>2021-03-06T15:44:46Z</time>
      </trkpt>
      <trkpt lat="43.62332" lon="3.84399">
        <ele>64</ele>
        <time>2021-03-06T15:44:47Z</time>
      </trkpt>
      <trkpt lat="43.6233" lon="3.84402">
        <ele>64</ele>
        <time>2021-03-06T15:44:48Z</time>
      </trkpt>
      <trkpt lat="43.62327" lon="3.84405">
        <ele>64</ele>
        <time>2021-03-06T15:44:49Z</time>
      </trkpt>
      <trkpt lat="43.62325" lon="3.84409">
        <ele>64</ele>
        <time>2021-03-06T15:44:50Z</time>
      </trkpt>
      <trkpt lat="43.62323" lon="3.84412">
        <ele>64</ele>
        <time>2021-03-06T15:44:51Z</time>
      </trkpt>
      <trkpt lat="43.6232" lon="3.84416">
        <ele>64</ele>
        <time>2021-03-06T15:44:52Z</time>
      </trkpt>
      <trkpt lat="43.62318" lon="3.8442">
        <ele>64</ele>
        <time>2021-03-06T15:44:53Z</time>
      </trkpt>
      <trkpt lat="43.62316" lon="3.84424">
        <ele>64</ele>
        <time>2021-03-06T15:44:54Z</time>
      </trkpt>
      <trkpt lat="43.62314" lon="3.84427">
        <ele>64</ele>
        <time>2021-03-06T15:44:55Z</time>
      </trkpt>
      <trkpt lat="43.62311" lon="3.84431">
        <ele>64</ele>
        <time>2021-03-06T15:44:56Z</time>
      </trkpt>
      <trkpt lat="43.62309" lon="3.84434">
        <ele>64</ele>
        <time>2021-03-06T15:44:57Z</time>
      </trkpt>
      <trkpt lat="43.62307" lon="3.84437">
        <ele>64</ele>
        <time>2021-03-06T15:44:58Z</time>
      </trkpt>
      <trkpt lat="43.62305" lon="3.84439">
        <ele>64</ele>
        <time>2021-03-06T15:44:59Z</time>
      </trkpt>
      <trkpt lat="43.62303" lon="3.84442">
        <ele>64</ele>
        <time>2021-03-06T15:45:00Z</time>
      </trkpt>
      <trkpt lat="43.62302" lon="3.84445">
        <ele>64</ele>
        <time>2021-03-06T15:45:01Z</time>
      </trkpt>
      <trkpt lat="43.623" lon="3.84448">
        <ele>64</ele>
        <time>2021-03-06T15:45:02Z</time>
      </trkpt>
      <trkpt lat="43.62298" lon="3.84451">
        <ele>64</ele>
        <time>2021-03-06T15:45:03Z</time>
      </trkpt>
      <trkpt lat="43.62296" lon="3.84453">
        <ele>64</ele>
        <time>2021-03-06T15:45:04Z</time>
      </trkpt>
      <trkpt lat="43.62294" lon="3.84455">
        <ele>65</ele>
        <time>2021-03-06T15:45:05Z</time>
      </trkpt>
      <trkpt lat="43.62291" lon="3.84457">
        <ele>65</ele>
        <time>2021-03-06T15:45:06Z</time>
      </trkpt>
      <trkpt lat="43.62288" lon="3.8446">
        <ele>65</ele>
        <time>2021-03-06T15:45:07Z</time>
      </trkpt>
      <trkpt lat="43.62286" lon="3.84463">
        <ele>65</ele>
        <time>2021-03-06T15:45:08Z</time>
      </trkpt>
      <trkpt lat="43.62283" lon="3.84466">
        <ele>65</ele>
        <time>2021-03-06T15:45:09Z</time>
      </trkpt>
      <trkpt lat="43.62281" lon="3.8447">
        <ele>65</ele>
        <time>2021-03-06T15:45:10Z</time>
      </trkpt>
      <trkpt lat="43.62279" lon="3.84473">
        <ele>65</ele>
        <time>2021-03-06T15:45:11Z</time>
      </trkpt>
      <trkpt lat="43.62277" lon="3.84476">
        <ele>65</ele>
        <time>2021-03-06T15:45:12Z</time>
      </trkpt>
      <trkpt lat="43.62275" lon="3.8448">
        <ele>65</ele>
        <time>2021-03-06T15:45:13Z</time>
      </trkpt>
      <trkpt lat="43.62272" lon="3.84484">
        <ele>65</ele>
        <time>2021-03-06T15:45:14Z</time>
      </trkpt>
      <trkpt lat="43.62269" lon="3.84487">
        <ele>64</ele>
        <time>2021-03-06T15:45:15Z</time>
      </trkpt>
      <trkpt lat="43.62267" lon="3.84491">
        <ele>64</ele>
        <time>2021-03-06T15:45:16Z</time>
      </trkpt>
      <trkpt lat="43.62264" lon="3.84495">
        <ele>64</ele>
        <time>2021-03-06T15:45:17Z</time>
      </trkpt>
      <trkpt lat="43.62262" lon="3.845">
        <ele>64</ele>
        <time>2021-03-06T15:45:18Z</time>
      </trkpt>
      <trkpt lat="43.6226" lon="3.84505">
        <ele>64</ele>
        <time>2021-03-06T15:45:19Z</time>
      </trkpt>
      <trkpt lat="43.62258" lon="3.84509">
        <ele>64</ele>
        <time>2021-03-06T15:45:20Z</time>
      </trkpt>
      <trkpt lat="43.62255" lon="3.84513">
        <ele>64</ele>
        <time>2021-03-06T15:45:21Z</time>
      </trkpt>
      <trkpt lat="43.62252" lon="3.84517">
        <ele>64</ele>
        <time>2021-03-06T15:45:22Z</time>
      </trkpt>
      <trkpt lat="43.62249" lon="3.84521">
        <ele>64</ele>
        <time>2021-03-06T15:45:23Z</time>
      </trkpt>
      <trkpt lat="43.62247" lon="3.84525">
        <ele>64</ele>
        <time>2021-03-06T15:45:24Z</time>
      </trkpt>
      <trkpt lat="43.62244" lon="3.84529">
        <ele>65</ele>
        <time>2021-03-06T15:45:25Z</time>
      </trkpt>
      <trkpt lat="43.6224" lon="3.84535">
        <ele>65</ele>
        <time>2021-03-06T15:45:27Z</time>
      </trkpt>
      <trkpt lat="43.62239" lon="3.84539">
        <ele>65</ele>
        <time>2021-03-06T15:45:28Z</time>
      </trkpt>
      <trkpt lat="43.62237" lon="3.84543">
        <ele>65</ele>
        <time>2021-03-06T15:45:29Z</time>
      </trkpt>
      <trkpt lat="43.62236" lon="3.84546">
        <ele>65</ele>
        <time>2021-03-06T15:45:30Z</time>
      </trkpt>
      <trkpt lat="43.62234" lon="3.84549">
        <ele>65</ele>
        <time>2021-03-06T15:45:31Z</time>
      </trkpt>
      <trkpt lat="43.62233" lon="3.84553">
        <ele>65</ele>
        <time>2021-03-06T15:45:32Z</time>
      </trkpt>
      <trkpt lat="43.62231" lon="3.84556">
        <ele>65</ele>
        <time>2021-03-06T15:45:33Z</time>
      </trkpt>
      <trkpt lat="43.62229" lon="3.8456">
        <ele>65</ele>
        <time>2021-03-06T15:45:34Z</time>
      </trkpt>
      <trkpt lat="43.62228" lon="3.84564">
        <ele>64</ele>
        <time>2021-03-06T15:45:35Z</time>
      </trkpt>
      <trkpt lat="43.62226" lon="3.84569">
        <ele>64</ele>
        <time>2021-03-06T15:45:36Z</time>
      </trkpt>
      <trkpt lat="43.62226" lon="3.84574">
        <ele>64</ele>
        <time>2021-03-06T15:45:37Z</time>
      </trkpt>
      <trkpt lat="43.62226" lon="3.84579">
        <ele>64</ele>
        <time>2021-03-06T15:45:38Z</time>
      </trkpt>
      <trkpt lat="43.62226" lon="3.84584">
        <ele>64</ele>
        <time>2021-03-06T15:45:39Z</time>
      </trkpt>
      <trkpt lat="43.62227" lon="3.8459">
        <ele>64</ele>
        <time>2021-03-06T15:45:40Z</time>
      </trkpt>
      <trkpt lat="43.62227" lon="3.84596">
        <ele>64</ele>
        <time>2021-03-06T15:45:41Z</time>
      </trkpt>
      <trkpt lat="43.62226" lon="3.84601">
        <ele>64</ele>
        <time>2021-03-06T15:45:42Z</time>
      </trkpt>
      <trkpt lat="43.62225" lon="3.84605">
        <ele>64</ele>
        <time>2021-03-06T15:45:43Z</time>
      </trkpt>
      <trkpt lat="43.62224" lon="3.84609">
        <ele>64</ele>
        <time>2021-03-06T15:45:44Z</time>
      </trkpt>
      <trkpt lat="43.62223" lon="3.84613">
        <ele>62</ele>
        <time>2021-03-06T15:45:45Z</time>
      </trkpt>
      <trkpt lat="43.62221" lon="3.84617">
        <ele>62</ele>
        <time>2021-03-06T15:45:46Z</time>
      </trkpt>
      <trkpt lat="43.6222" lon="3.8462">
        <ele>62</ele>
        <time>2021-03-06T15:45:47Z</time>
      </trkpt>
      <trkpt lat="43.6222" lon="3.84624">
        <ele>62</ele>
        <time>2021-03-06T15:45:48Z</time>
      </trkpt>
      <trkpt lat="43.62219" lon="3.84628">
        <ele>62</ele>
        <time>2021-03-06T15:45:49Z</time>
      </trkpt>
      <trkpt lat="43.62219" lon="3.84631">
        <ele>62</ele>
        <time>2021-03-06T15:45:50Z</time>
      </trkpt>
      <trkpt lat="43.62219" lon="3.84635">
        <ele>62</ele>
        <time>2021-03-06T15:45:51Z</time>
      </trkpt>
      <trkpt lat="43.6222" lon="3.84639">
        <ele>62</ele>
        <time>2021-03-06T15:45:52Z</time>
      </trkpt>
      <trkpt lat="43.62221" lon="3.84642">
        <ele>62</ele>
        <time>2021-03-06T15:45:53Z</time>
      </trkpt>
      <trkpt lat="43.62222" lon="3.84646">
        <ele>62</ele>
        <time>2021-03-06T15:45:54Z</time>
      </trkpt>
      <trkpt lat="43.62228" lon="3.84655">
        <ele>62</ele>
        <time>2021-03-06T15:45:58Z</time>
      </trkpt>
      <trkpt lat="43.62234" lon="3.84659">
        <ele>62</ele>
        <time>2021-03-06T15:46:01Z</time>
      </trkpt>
      <trkpt lat="43.62236" lon="3.84661">
        <ele>62</ele>
        <time>2021-03-06T15:46:02Z</time>
      </trkpt>
      <trkpt lat="43.62238" lon="3.84662">
        <ele>62</ele>
        <time>2021-03-06T15:46:03Z</time>
      </trkpt>
      <trkpt lat="43.6224" lon="3.84664">
        <ele>62</ele>
        <time>2021-03-06T15:46:04Z</time>
      </trkpt>
      <trkpt lat="43.62242" lon="3.84666">
        <ele>63</ele>
        <time>2021-03-06T15:46:05Z</time>
      </trkpt>
      <trkpt lat="43.62245" lon="3.84668">
        <ele>63</ele>
        <time>2021-03-06T15:46:07Z</time>
      </trkpt>
      <trkpt lat="43.62248" lon="3.8467">
        <ele>63</ele>
        <time>2021-03-06T15:46:09Z</time>
      </trkpt>
      <trkpt lat="43.62249" lon="3.84672">
        <ele>63</ele>
        <time>2021-03-06T15:46:10Z</time>
      </trkpt>
      <trkpt lat="43.62251" lon="3.84674">
        <ele>63</ele>
        <time>2021-03-06T15:46:11Z</time>
      </trkpt>
      <trkpt lat="43.62252" lon="3.84675">
        <ele>63</ele>
        <time>2021-03-06T15:46:12Z</time>
      </trkpt>
      <trkpt lat="43.62254" lon="3.84678">
        <ele>63</ele>
        <time>2021-03-06T15:46:13Z</time>
      </trkpt>
      <trkpt lat="43.62256" lon="3.8468">
        <ele>63</ele>
        <time>2021-03-06T15:46:14Z</time>
      </trkpt>
      <trkpt lat="43.62257" lon="3.84683">
        <ele>63</ele>
        <time>2021-03-06T15:46:15Z</time>
      </trkpt>
      <trkpt lat="43.62259" lon="3.84685">
        <ele>63</ele>
        <time>2021-03-06T15:46:16Z</time>
      </trkpt>
      <trkpt lat="43.6226" lon="3.84688">
        <ele>63</ele>
        <time>2021-03-06T15:46:17Z</time>
      </trkpt>
      <trkpt lat="43.62261" lon="3.8469">
        <ele>63</ele>
        <time>2021-03-06T15:46:18Z</time>
      </trkpt>
      <trkpt lat="43.62262" lon="3.84693">
        <ele>63</ele>
        <time>2021-03-06T15:46:19Z</time>
      </trkpt>
      <trkpt lat="43.62263" lon="3.84696">
        <ele>63</ele>
        <time>2021-03-06T15:46:20Z</time>
      </trkpt>
      <trkpt lat="43.62264" lon="3.84698">
        <ele>63</ele>
        <time>2021-03-06T15:46:21Z</time>
      </trkpt>
      <trkpt lat="43.62265" lon="3.84701">
        <ele>63</ele>
        <time>2021-03-06T15:46:22Z</time>
      </trkpt>
      <trkpt lat="43.62266" lon="3.84703">
        <ele>63</ele>
        <time>2021-03-06T15:46:23Z</time>
      </trkpt>
      <trkpt lat="43.62266" lon="3.84706">
        <ele>63</ele>
        <time>2021-03-06T15:46:24Z</time>
      </trkpt>
      <trkpt lat="43.62267" lon="3.84708">
        <ele>63</ele>
        <time>2021-03-06T15:46:25Z</time>
      </trkpt>
      <trkpt lat="43.62269" lon="3.84712">
        <ele>63</ele>
        <time>2021-03-06T15:46:27Z</time>
      </trkpt>
      <trkpt lat="43.6227" lon="3.84717">
        <ele>63</ele>
        <time>2021-03-06T15:46:29Z</time>
      </trkpt>
      <trkpt lat="43.62271" lon="3.84721">
        <ele>63</ele>
        <time>2021-03-06T15:46:31Z</time>
      </trkpt>
      <trkpt lat="43.62273" lon="3.84725">
        <ele>63</ele>
        <time>2021-03-06T15:46:33Z</time>
      </trkpt>
      <trkpt lat="43.62274" lon="3.84729">
        <ele>63</ele>
        <time>2021-03-06T15:46:35Z</time>
      </trkpt>
      <trkpt lat="43.62275" lon="3.84731">
        <ele>63</ele>
        <time>2021-03-06T15:46:36Z</time>
      </trkpt>
      <trkpt lat="43.62276" lon="3.84733">
        <ele>63</ele>
        <time>2021-03-06T15:46:37Z</time>
      </trkpt>
      <trkpt lat="43.62277" lon="3.84738">
        <ele>63</ele>
        <time>2021-03-06T15:46:39Z</time>
      </trkpt>
      <trkpt lat="43.62278" lon="3.8474">
        <ele>63</ele>
        <time>2021-03-06T15:46:40Z</time>
      </trkpt>
      <trkpt lat="43.62279" lon="3.84745">
        <ele>63</ele>
        <time>2021-03-06T15:46:42Z</time>
      </trkpt>
      <trkpt lat="43.62279" lon="3.84747">
        <ele>63</ele>
        <time>2021-03-06T15:46:43Z</time>
      </trkpt>
      <trkpt lat="43.62281" lon="3.84752">
        <ele>64</ele>
        <time>2021-03-06T15:46:45Z</time>
      </trkpt>
      <trkpt lat="43.62281" lon="3.84754">
        <ele>64</ele>
        <time>2021-03-06T15:46:46Z</time>
      </trkpt>
      <trkpt lat="43.62281" lon="3.84757">
        <ele>64</ele>
        <time>2021-03-06T15:46:47Z</time>
      </trkpt>
      <trkpt lat="43.62282" lon="3.8476">
        <ele>64</ele>
        <time>2021-03-06T15:46:48Z</time>
      </trkpt>
      <trkpt lat="43.62283" lon="3.84763">
        <ele>64</ele>
        <time>2021-03-06T15:46:49Z</time>
      </trkpt>
      <trkpt lat="43.62283" lon="3.84767">
        <ele>64</ele>
        <time>2021-03-06T15:46:50Z</time>
      </trkpt>
      <trkpt lat="43.62282" lon="3.8477">
        <ele>64</ele>
        <time>2021-03-06T15:46:51Z</time>
      </trkpt>
      <trkpt lat="43.62282" lon="3.84774">
        <ele>64</ele>
        <time>2021-03-06T15:46:52Z</time>
      </trkpt>
      <trkpt lat="43.62281" lon="3.84777">
        <ele>64</ele>
        <time>2021-03-06T15:46:53Z</time>
      </trkpt>
      <trkpt lat="43.6228" lon="3.8478">
        <ele>64</ele>
        <time>2021-03-06T15:46:54Z</time>
      </trkpt>
      <trkpt lat="43.6228" lon="3.84783">
        <ele>64</ele>
        <time>2021-03-06T15:46:55Z</time>
      </trkpt>
      <trkpt lat="43.6228" lon="3.84787">
        <ele>64</ele>
        <time>2021-03-06T15:46:56Z</time>
      </trkpt>
      <trkpt lat="43.6228" lon="3.8479">
        <ele>64</ele>
        <time>2021-03-06T15:46:57Z</time>
      </trkpt>
      <trkpt lat="43.62279" lon="3.84793">
        <ele>64</ele>
        <time>2021-03-06T15:46:58Z</time>
      </trkpt>
      <trkpt lat="43.62279" lon="3.84796">
        <ele>64</ele>
        <time>2021-03-06T15:46:59Z</time>
      </trkpt>
      <trkpt lat="43.62279" lon="3.84799">
        <ele>64</ele>
        <time>2021-03-06T15:47:00Z</time>
      </trkpt>
      <trkpt lat="43.62278" lon="3.84802">
        <ele>64</ele>
        <time>2021-03-06T15:47:01Z</time>
      </trkpt>
      <trkpt lat="43.62278" lon="3.84805">
        <ele>64</ele>
        <time>2021-03-06T15:47:02Z</time>
      </trkpt>
      <trkpt lat="43.62278" lon="3.84808">
        <ele>64</ele>
        <time>2021-03-06T15:47:03Z</time>
      </trkpt>
      <trkpt lat="43.62278" lon="3.84811">
        <ele>64</ele>
        <time>2021-03-06T15:47:04Z</time>
      </trkpt>
      <trkpt lat="43.62278" lon="3.84814">
        <ele>65</ele>
        <time>2021-03-06T15:47:05Z</time>
      </trkpt>
      <trkpt lat="43.62277" lon="3.84817">
        <ele>65</ele>
        <time>2021-03-06T15:47:06Z</time>
      </trkpt>
      <trkpt lat="43.62277" lon="3.8482">
        <ele>65</ele>
        <time>2021-03-06T15:47:08Z</time>
      </trkpt>
      <trkpt lat="43.62277" lon="3.84824">
        <ele>65</ele>
        <time>2021-03-06T15:47:10Z</time>
      </trkpt>
      <trkpt lat="43.62278" lon="3.84828">
        <ele>65</ele>
        <time>2021-03-06T15:47:12Z</time>
      </trkpt>
      <trkpt lat="43.62278" lon="3.84832">
        <ele>65</ele>
        <time>2021-03-06T15:47:14Z</time>
      </trkpt>
      <trkpt lat="43.62279" lon="3.84837">
        <ele>65</ele>
        <time>2021-03-06T15:47:16Z</time>
      </trkpt>
      <trkpt lat="43.6228" lon="3.84843">
        <ele>65</ele>
        <time>2021-03-06T15:47:17Z</time>
      </trkpt>
      <trkpt lat="43.6228" lon="3.84846">
        <ele>65</ele>
        <time>2021-03-06T15:47:18Z</time>
      </trkpt>
      <trkpt lat="43.62281" lon="3.84849">
        <ele>65</ele>
        <time>2021-03-06T15:47:20Z</time>
      </trkpt>
      <trkpt lat="43.62282" lon="3.84851">
        <ele>65</ele>
        <time>2021-03-06T15:47:21Z</time>
      </trkpt>
      <trkpt lat="43.62282" lon="3.84854">
        <ele>65</ele>
        <time>2021-03-06T15:47:22Z</time>
      </trkpt>
      <trkpt lat="43.62281" lon="3.84859">
        <ele>65</ele>
        <time>2021-03-06T15:47:23Z</time>
      </trkpt>
      <trkpt lat="43.62281" lon="3.84862">
        <ele>65</ele>
        <time>2021-03-06T15:47:24Z</time>
      </trkpt>
      <trkpt lat="43.62281" lon="3.84867">
        <ele>65</ele>
        <time>2021-03-06T15:47:26Z</time>
      </trkpt>
      <trkpt lat="43.6228" lon="3.84872">
        <ele>65</ele>
        <time>2021-03-06T15:47:27Z</time>
      </trkpt>
      <trkpt lat="43.62279" lon="3.8488">
        <ele>65</ele>
        <time>2021-03-06T15:47:28Z</time>
      </trkpt>
      <trkpt lat="43.62278" lon="3.84888">
        <ele>65</ele>
        <time>2021-03-06T15:47:29Z</time>
      </trkpt>
      <trkpt lat="43.62277" lon="3.84896">
        <ele>65</ele>
        <time>2021-03-06T15:47:30Z</time>
      </trkpt>
      <trkpt lat="43.62275" lon="3.84903">
        <ele>65</ele>
        <time>2021-03-06T15:47:31Z</time>
      </trkpt>
      <trkpt lat="43.62272" lon="3.84907">
        <ele>65</ele>
        <time>2021-03-06T15:47:32Z</time>
      </trkpt>
      <trkpt lat="43.6227" lon="3.84907">
        <ele>65</ele>
        <time>2021-03-06T15:47:33Z</time>
      </trkpt>
      <trkpt lat="43.62268" lon="3.84908">
        <ele>65</ele>
        <time>2021-03-06T15:47:39Z</time>
      </trkpt>
      <trkpt lat="43.62268" lon="3.84909">
        <ele>64</ele>
        <time>2021-03-06T15:47:43Z</time>
      </trkpt>
      <trkpt lat="43.62271" lon="3.84899">
        <ele>63</ele>
        <time>2021-03-06T15:47:59Z</time>
      </trkpt>
      <trkpt lat="43.62272" lon="3.84896">
        <ele>63</ele>
        <time>2021-03-06T15:48:00Z</time>
      </trkpt>
      <trkpt lat="43.62272" lon="3.84893">
        <ele>63</ele>
        <time>2021-03-06T15:48:01Z</time>
      </trkpt>
      <trkpt lat="43.62272" lon="3.84892">
        <ele>63</ele>
        <time>2021-03-06T15:48:06Z</time>
      </trkpt>
      <trkpt lat="43.6227" lon="3.8489">
        <ele>63</ele>
        <time>2021-03-06T15:48:29Z</time>
      </trkpt>
      <trkpt lat="43.6227" lon="3.8489">
        <ele>63</ele>
        <time>2021-03-06T15:48:32Z</time>
      </trkpt>
      <trkpt lat="43.62273" lon="3.84894">
        <ele>63</ele>
        <time>2021-03-06T15:49:21Z</time>
      </trkpt>
      <trkpt lat="43.62273" lon="3.84894">
        <ele>63</ele>
        <time>2021-03-06T15:49:22Z</time>
      </trkpt>
      <trkpt lat="43.62274" lon="3.84895">
        <ele>63</ele>
        <time>2021-03-06T15:49:25Z</time>
      </trkpt>
      <trkpt lat="43.62274" lon="3.84885">
        <ele>65</ele>
        <time>2021-03-06T15:50:19Z</time>
      </trkpt>
      <trkpt lat="43.62274" lon="3.84884">
        <ele>65</ele>
        <time>2021-03-06T15:50:24Z</time>
      </trkpt>
      <trkpt lat="43.62272" lon="3.84897">
        <ele>65</ele>
        <time>2021-03-06T15:50:59Z</time>
      </trkpt>
      <trkpt lat="43.62272" lon="3.84896">
        <ele>65</ele>
        <time>2021-03-06T15:51:00Z</time>
      </trkpt>
      <trkpt lat="43.62273" lon="3.84893">
        <ele>65</ele>
        <time>2021-03-06T15:51:02Z</time>
      </trkpt>
      <trkpt lat="43.62272" lon="3.8489">
        <ele>65</ele>
        <time>2021-03-06T15:51:04Z</time>
      </trkpt>
      <trkpt lat="43.6227" lon="3.84889">
        <ele>65</ele>
        <time>2021-03-06T15:51:07Z</time>
      </trkpt>
      <trkpt lat="43.62268" lon="3.84889">
        <ele>65</ele>
        <time>2021-03-06T15:51:12Z</time>
      </trkpt>
      <trkpt lat="43.62266" lon="3.8489">
        <ele>66</ele>
        <time>2021-03-06T15:51:14Z</time>
      </trkpt>
      <trkpt lat="43.62262" lon="3.84894">
        <ele>66</ele>
        <time>2021-03-06T15:51:23Z</time>
      </trkpt>
      <trkpt lat="43.6226" lon="3.84895">
        <ele>66</ele>
        <time>2021-03-06T15:51:25Z</time>
      </trkpt>
      <trkpt lat="43.62258" lon="3.84896">
        <ele>66</ele>
        <time>2021-03-06T15:51:28Z</time>
      </trkpt>
      <trkpt lat="43.62259" lon="3.84898">
        <ele>65</ele>
        <time>2021-03-06T15:51:32Z</time>
      </trkpt>
      <trkpt lat="43.62258" lon="3.84893">
        <ele>66</ele>
        <time>2021-03-06T15:51:39Z</time>
      </trkpt>
      <trkpt lat="43.62255" lon="3.84902">
        <ele>68</ele>
        <time>2021-03-06T15:52:49Z</time>
      </trkpt>
      <trkpt lat="43.62252" lon="3.84906">
        <ele>68</ele>
        <time>2021-03-06T15:52:51Z</time>
      </trkpt>
      <trkpt lat="43.62254" lon="3.84907">
        <ele>68</ele>
        <time>2021-03-06T15:53:00Z</time>
      </trkpt>
      <trkpt lat="43.62253" lon="3.84909">
        <ele>68</ele>
        <time>2021-03-06T15:53:06Z</time>
      </trkpt>
      <trkpt lat="43.62253" lon="3.84906">
        <ele>68</ele>
        <time>2021-03-06T15:53:14Z</time>
      </trkpt>
      <trkpt lat="43.62254" lon="3.84906">
        <ele>73</ele>
        <time>2021-03-06T15:53:20Z</time>
      </trkpt>
      <trkpt lat="43.62258" lon="3.84904">
        <ele>72</ele>
        <time>2021-03-06T15:53:25Z</time>
      </trkpt>
      <trkpt lat="43.62258" lon="3.84904">
        <ele>72</ele>
        <time>2021-03-06T15:53:30Z</time>
      </trkpt>
      <trkpt lat="43.62259" lon="3.849">
        <ele>72</ele>
        <time>2021-03-06T15:53:57Z</time>
      </trkpt>
      <trkpt lat="43.62259" lon="3.849">
        <ele>72</ele>
        <time>2021-03-06T15:54:02Z</time>
      </trkpt>
      <trkpt lat="43.62258" lon="3.84899">
        <ele>71</ele>
        <time>2021-03-06T15:55:19Z</time>
      </trkpt>
      <trkpt lat="43.62258" lon="3.84899">
        <ele>71</ele>
        <time>2021-03-06T15:55:24Z</time>
      </trkpt>
      <trkpt lat="43.62258" lon="3.849">
        <ele>75</ele>
        <time>2021-03-06T15:58:13Z</time>
      </trkpt>
      <trkpt lat="43.6226" lon="3.84898">
        <ele>75</ele>
        <time>2021-03-06T15:58:19Z</time>
      </trkpt>
      <trkpt lat="43.6226" lon="3.84898">
        <ele>74</ele>
        <time>2021-03-06T15:58:22Z</time>
      </trkpt>
      <trkpt lat="43.62259" lon="3.84903">
        <ele>75</ele>
        <time>2021-03-06T15:58:43Z</time>
      </trkpt>
      <trkpt lat="43.62259" lon="3.84903">
        <ele>75</ele>
        <time>2021-03-06T15:58:45Z</time>
      </trkpt>
      <trkpt lat="43.62259" lon="3.84903">
        <ele>75</ele>
        <time>2021-03-06T15:58:48Z</time>
      </trkpt>
      <trkpt lat="43.62258" lon="3.84901">
        <ele>75</ele>
        <time>2021-03-06T15:59:24Z</time>
      </trkpt>
      <trkpt lat="43.62259" lon="3.84903">
        <ele>75</ele>
        <time>2021-03-06T15:59:25Z</time>
      </trkpt>
      <trkpt lat="43.6226" lon="3.84903">
        <ele>75</ele>
        <time>2021-03-06T15:59:30Z</time>
      </trkpt>
      <trkpt lat="43.62259" lon="3.84899">
        <ele>75</ele>
        <time>2021-03-06T16:10:21Z</time>
      </trkpt>
      <trkpt lat="43.62261" lon="3.84897">
        <ele>75</ele>
        <time>2021-03-06T16:10:25Z</time>
      </trkpt>
      <trkpt lat="43.62261" lon="3.84897">
        <ele>75</ele>
        <time>2021-03-06T16:10:27Z</time>
      </trkpt>
      <trkpt lat="43.62261" lon="3.84902">
        <ele>74</ele>
        <time>2021-03-06T16:12:27Z</time>
      </trkpt>
      <trkpt lat="43.62261" lon="3.84903">
        <ele>74</ele>
        <time>2021-03-06T16:12:29Z</time>
      </trkpt>
      <trkpt lat="43.62261" lon="3.84903">
        <ele>75</ele>
        <time>2021-03-06T16:12:34Z</time>
      </trkpt>
      <trkpt lat="43.62261" lon="3.84908">
        <ele>74</ele>
        <time>2021-03-06T16:13:35Z</time>
      </trkpt>
      <trkpt lat="43.62271" lon="3.84907">
        <ele>72</ele>
        <time>2021-03-06T16:13:59Z</time>
      </trkpt>
      <trkpt lat="43.62272" lon="3.84906">
        <ele>72</ele>
        <time>2021-03-06T16:14:00Z</time>
      </trkpt>
      <trkpt lat="43.62273" lon="3.84908">
        <ele>72</ele>
        <time>2021-03-06T16:14:03Z</time>
      </trkpt>
      <trkpt lat="43.62273" lon="3.84913">
        <ele>72</ele>
        <time>2021-03-06T16:14:05Z</time>
      </trkpt>
      <trkpt lat="43.62272" lon="3.84916">
        <ele>72</ele>
        <time>2021-03-06T16:14:06Z</time>
      </trkpt>
      <trkpt lat="43.62271" lon="3.84919">
        <ele>72</ele>
        <time>2021-03-06T16:14:07Z</time>
      </trkpt>
      <trkpt lat="43.62271" lon="3.84924">
        <ele>72</ele>
        <time>2021-03-06T16:14:08Z</time>
      </trkpt>
      <trkpt lat="43.62271" lon="3.84929">
        <ele>70</ele>
        <time>2021-03-06T16:14:09Z</time>
      </trkpt>
      <trkpt lat="43.62272" lon="3.84935">
        <ele>70</ele>
        <time>2021-03-06T16:14:10Z</time>
      </trkpt>
      <trkpt lat="43.62273" lon="3.84942">
        <ele>70</ele>
        <time>2021-03-06T16:14:11Z</time>
      </trkpt>
      <trkpt lat="43.62276" lon="3.84948">
        <ele>70</ele>
        <time>2021-03-06T16:14:12Z</time>
      </trkpt>
      <trkpt lat="43.62278" lon="3.84952">
        <ele>70</ele>
        <time>2021-03-06T16:14:13Z</time>
      </trkpt>
      <trkpt lat="43.62281" lon="3.84955">
        <ele>70</ele>
        <time>2021-03-06T16:14:14Z</time>
      </trkpt>
      <trkpt lat="43.62284" lon="3.84956">
        <ele>70</ele>
        <time>2021-03-06T16:14:15Z</time>
      </trkpt>
      <trkpt lat="43.62288" lon="3.84959">
        <ele>70</ele>
        <time>2021-03-06T16:14:17Z</time>
      </trkpt>
      <trkpt lat="43.6229" lon="3.8496">
        <ele>70</ele>
        <time>2021-03-06T16:14:18Z</time>
      </trkpt>
      <trkpt lat="43.62292" lon="3.84958">
        <ele>66</ele>
        <time>2021-03-06T16:14:19Z</time>
      </trkpt>
      <trkpt lat="43.62294" lon="3.84957">
        <ele>66</ele>
        <time>2021-03-06T16:14:20Z</time>
      </trkpt>
      <trkpt lat="43.62297" lon="3.84955">
        <ele>66</ele>
        <time>2021-03-06T16:14:21Z</time>
      </trkpt>
      <trkpt lat="43.62299" lon="3.84952">
        <ele>66</ele>
        <time>2021-03-06T16:14:23Z</time>
      </trkpt>
      <trkpt lat="43.62303" lon="3.84952">
        <ele>66</ele>
        <time>2021-03-06T16:14:24Z</time>
      </trkpt>
      <trkpt lat="43.62306" lon="3.84954">
        <ele>66</ele>
        <time>2021-03-06T16:14:26Z</time>
      </trkpt>
      <trkpt lat="43.62309" lon="3.84956">
        <ele>64</ele>
        <time>2021-03-06T16:14:29Z</time>
      </trkpt>
      <trkpt lat="43.6231" lon="3.84959">
        <ele>64</ele>
        <time>2021-03-06T16:14:30Z</time>
      </trkpt>
      <trkpt lat="43.6231" lon="3.84965">
        <ele>64</ele>
        <time>2021-03-06T16:14:32Z</time>
      </trkpt>
      <trkpt lat="43.6231" lon="3.84968">
        <ele>64</ele>
        <time>2021-03-06T16:14:33Z</time>
      </trkpt>
      <trkpt lat="43.62311" lon="3.84971">
        <ele>64</ele>
        <time>2021-03-06T16:14:34Z</time>
      </trkpt>
      <trkpt lat="43.62312" lon="3.84974">
        <ele>64</ele>
        <time>2021-03-06T16:14:35Z</time>
      </trkpt>
      <trkpt lat="43.62317" lon="3.84974">
        <ele>64</ele>
        <time>2021-03-06T16:14:36Z</time>
      </trkpt>
      <trkpt lat="43.6232" lon="3.84973">
        <ele>64</ele>
        <time>2021-03-06T16:14:37Z</time>
      </trkpt>
      <trkpt lat="43.62323" lon="3.8497">
        <ele>64</ele>
        <time>2021-03-06T16:14:38Z</time>
      </trkpt>
      <trkpt lat="43.62328" lon="3.84963">
        <ele>64</ele>
        <time>2021-03-06T16:14:41Z</time>
      </trkpt>
      <trkpt lat="43.6233" lon="3.8496">
        <ele>64</ele>
        <time>2021-03-06T16:14:42Z</time>
      </trkpt>
      <trkpt lat="43.62332" lon="3.84957">
        <ele>64</ele>
        <time>2021-03-06T16:14:43Z</time>
      </trkpt>
      <trkpt lat="43.62335" lon="3.84954">
        <ele>64</ele>
        <time>2021-03-06T16:14:44Z</time>
      </trkpt>
      <trkpt lat="43.62338" lon="3.84951">
        <ele>64</ele>
        <time>2021-03-06T16:14:45Z</time>
      </trkpt>
      <trkpt lat="43.62342" lon="3.84949">
        <ele>64</ele>
        <time>2021-03-06T16:14:46Z</time>
      </trkpt>
      <trkpt lat="43.62346" lon="3.84948">
        <ele>64</ele>
        <time>2021-03-06T16:14:47Z</time>
      </trkpt>
      <trkpt lat="43.6235" lon="3.84947">
        <ele>64</ele>
        <time>2021-03-06T16:14:48Z</time>
      </trkpt>
      <trkpt lat="43.62354" lon="3.84948">
        <ele>62</ele>
        <time>2021-03-06T16:14:49Z</time>
      </trkpt>
      <trkpt lat="43.62358" lon="3.84949">
        <ele>62</ele>
        <time>2021-03-06T16:14:50Z</time>
      </trkpt>
      <trkpt lat="43.62361" lon="3.84951">
        <ele>62</ele>
        <time>2021-03-06T16:14:51Z</time>
      </trkpt>
      <trkpt lat="43.62365" lon="3.84953">
        <ele>62</ele>
        <time>2021-03-06T16:14:52Z</time>
      </trkpt>
      <trkpt lat="43.62368" lon="3.84951">
        <ele>62</ele>
        <time>2021-03-06T16:14:53Z</time>
      </trkpt>
      <trkpt lat="43.6237" lon="3.84947">
        <ele>62</ele>
        <time>2021-03-06T16:14:54Z</time>
      </trkpt>
      <trkpt lat="43.62371" lon="3.84943">
        <ele>62</ele>
        <time>2021-03-06T16:14:55Z</time>
      </trkpt>
      <trkpt lat="43.62373" lon="3.84938">
        <ele>62</ele>
        <time>2021-03-06T16:14:56Z</time>
      </trkpt>
      <trkpt lat="43.62375" lon="3.84934">
        <ele>62</ele>
        <time>2021-03-06T16:14:57Z</time>
      </trkpt>
      <trkpt lat="43.62377" lon="3.84929">
        <ele>62</ele>
        <time>2021-03-06T16:14:58Z</time>
      </trkpt>
      <trkpt lat="43.62379" lon="3.84926">
        <ele>61</ele>
        <time>2021-03-06T16:14:59Z</time>
      </trkpt>
      <trkpt lat="43.62382" lon="3.84925">
        <ele>61</ele>
        <time>2021-03-06T16:15:00Z</time>
      </trkpt>
      <trkpt lat="43.62386" lon="3.84926">
        <ele>61</ele>
        <time>2021-03-06T16:15:01Z</time>
      </trkpt>
      <trkpt lat="43.6239" lon="3.84928">
        <ele>61</ele>
        <time>2021-03-06T16:15:02Z</time>
      </trkpt>
      <trkpt lat="43.62395" lon="3.84931">
        <ele>61</ele>
        <time>2021-03-06T16:15:03Z</time>
      </trkpt>
      <trkpt lat="43.624" lon="3.84933">
        <ele>61</ele>
        <time>2021-03-06T16:15:04Z</time>
      </trkpt>
      <trkpt lat="43.62405" lon="3.84935">
        <ele>61</ele>
        <time>2021-03-06T16:15:05Z</time>
      </trkpt>
      <trkpt lat="43.62415" lon="3.8494">
        <ele>61</ele>
        <time>2021-03-06T16:15:07Z</time>
      </trkpt>
      <trkpt lat="43.62421" lon="3.8494">
        <ele>61</ele>
        <time>2021-03-06T16:15:08Z</time>
      </trkpt>
      <trkpt lat="43.62426" lon="3.84936">
        <ele>62</ele>
        <time>2021-03-06T16:15:09Z</time>
      </trkpt>
      <trkpt lat="43.62429" lon="3.8493">
        <ele>62</ele>
        <time>2021-03-06T16:15:10Z</time>
      </trkpt>
      <trkpt lat="43.62433" lon="3.84923">
        <ele>62</ele>
        <time>2021-03-06T16:15:11Z</time>
      </trkpt>
      <trkpt lat="43.62438" lon="3.84918">
        <ele>62</ele>
        <time>2021-03-06T16:15:12Z</time>
      </trkpt>
      <trkpt lat="43.62442" lon="3.84913">
        <ele>62</ele>
        <time>2021-03-06T16:15:13Z</time>
      </trkpt>
      <trkpt lat="43.62446" lon="3.84907">
        <ele>62</ele>
        <time>2021-03-06T16:15:14Z</time>
      </trkpt>
      <trkpt lat="43.62451" lon="3.84904">
        <ele>62</ele>
        <time>2021-03-06T16:15:15Z</time>
      </trkpt>
      <trkpt lat="43.62457" lon="3.84904">
        <ele>62</ele>
        <time>2021-03-06T16:15:16Z</time>
      </trkpt>
      <trkpt lat="43.62462" lon="3.84907">
        <ele>62</ele>
        <time>2021-03-06T16:15:17Z</time>
      </trkpt>
      <trkpt lat="43.62466" lon="3.84912">
        <ele>62</ele>
        <time>2021-03-06T16:15:18Z</time>
      </trkpt>
      <trkpt lat="43.6247" lon="3.84917">
        <ele>60</ele>
        <time>2021-03-06T16:15:19Z</time>
      </trkpt>
      <trkpt lat="43.62474" lon="3.84923">
        <ele>60</ele>
        <time>2021-03-06T16:15:20Z</time>
      </trkpt>
      <trkpt lat="43.62478" lon="3.84929">
        <ele>60</ele>
        <time>2021-03-06T16:15:21Z</time>
      </trkpt>
      <trkpt lat="43.62482" lon="3.84934">
        <ele>60</ele>
        <time>2021-03-06T16:15:22Z</time>
      </trkpt>
      <trkpt lat="43.62486" lon="3.8494">
        <ele>60</ele>
        <time>2021-03-06T16:15:23Z</time>
      </trkpt>
      <trkpt lat="43.62491" lon="3.84945">
        <ele>60</ele>
        <time>2021-03-06T16:15:24Z</time>
      </trkpt>
      <trkpt lat="43.62496" lon="3.8495">
        <ele>60</ele>
        <time>2021-03-06T16:15:25Z</time>
      </trkpt>
      <trkpt lat="43.625" lon="3.84955">
        <ele>60</ele>
        <time>2021-03-06T16:15:26Z</time>
      </trkpt>
      <trkpt lat="43.62504" lon="3.84961">
        <ele>60</ele>
        <time>2021-03-06T16:15:27Z</time>
      </trkpt>
      <trkpt lat="43.62509" lon="3.84967">
        <ele>60</ele>
        <time>2021-03-06T16:15:28Z</time>
      </trkpt>
      <trkpt lat="43.62513" lon="3.84973">
        <ele>58</ele>
        <time>2021-03-06T16:15:29Z</time>
      </trkpt>
      <trkpt lat="43.62517" lon="3.8498">
        <ele>58</ele>
        <time>2021-03-06T16:15:30Z</time>
      </trkpt>
      <trkpt lat="43.62521" lon="3.84986">
        <ele>58</ele>
        <time>2021-03-06T16:15:31Z</time>
      </trkpt>
      <trkpt lat="43.62525" lon="3.84992">
        <ele>58</ele>
        <time>2021-03-06T16:15:32Z</time>
      </trkpt>
      <trkpt lat="43.62529" lon="3.84998">
        <ele>58</ele>
        <time>2021-03-06T16:15:33Z</time>
      </trkpt>
      <trkpt lat="43.62533" lon="3.85004">
        <ele>58</ele>
        <time>2021-03-06T16:15:34Z</time>
      </trkpt>
      <trkpt lat="43.62536" lon="3.85009">
        <ele>58</ele>
        <time>2021-03-06T16:15:35Z</time>
      </trkpt>
      <trkpt lat="43.62538" lon="3.85015">
        <ele>58</ele>
        <time>2021-03-06T16:15:36Z</time>
      </trkpt>
      <trkpt lat="43.62537" lon="3.8502">
        <ele>58</ele>
        <time>2021-03-06T16:15:37Z</time>
      </trkpt>
      <trkpt lat="43.62535" lon="3.85024">
        <ele>58</ele>
        <time>2021-03-06T16:15:38Z</time>
      </trkpt>
      <trkpt lat="43.62534" lon="3.85029">
        <ele>55</ele>
        <time>2021-03-06T16:15:39Z</time>
      </trkpt>
      <trkpt lat="43.62532" lon="3.85033">
        <ele>55</ele>
        <time>2021-03-06T16:15:40Z</time>
      </trkpt>
      <trkpt lat="43.6253" lon="3.85038">
        <ele>55</ele>
        <time>2021-03-06T16:15:41Z</time>
      </trkpt>
      <trkpt lat="43.62528" lon="3.85044">
        <ele>55</ele>
        <time>2021-03-06T16:15:42Z</time>
      </trkpt>
      <trkpt lat="43.62525" lon="3.85049">
        <ele>55</ele>
        <time>2021-03-06T16:15:43Z</time>
      </trkpt>
      <trkpt lat="43.62523" lon="3.85054">
        <ele>55</ele>
        <time>2021-03-06T16:15:44Z</time>
      </trkpt>
      <trkpt lat="43.62521" lon="3.85059">
        <ele>55</ele>
        <time>2021-03-06T16:15:45Z</time>
      </trkpt>
      <trkpt lat="43.62519" lon="3.85064">
        <ele>55</ele>
        <time>2021-03-06T16:15:46Z</time>
      </trkpt>
      <trkpt lat="43.62517" lon="3.8507">
        <ele>55</ele>
        <time>2021-03-06T16:15:47Z</time>
      </trkpt>
      <trkpt lat="43.62515" lon="3.85075">
        <ele>55</ele>
        <time>2021-03-06T16:15:48Z</time>
      </trkpt>
      <trkpt lat="43.62513" lon="3.85081">
        <ele>55</ele>
        <time>2021-03-06T16:15:49Z</time>
      </trkpt>
      <trkpt lat="43.6251" lon="3.85088">
        <ele>55</ele>
        <time>2021-03-06T16:15:50Z</time>
      </trkpt>
      <trkpt lat="43.62507" lon="3.85094">
        <ele>55</ele>
        <time>2021-03-06T16:15:51Z</time>
      </trkpt>
      <trkpt lat="43.62504" lon="3.85101">
        <ele>55</ele>
        <time>2021-03-06T16:15:52Z</time>
      </trkpt>
      <trkpt lat="43.62502" lon="3.85107">
        <ele>55</ele>
        <time>2021-03-06T16:15:53Z</time>
      </trkpt>
      <trkpt lat="43.62499" lon="3.85114">
        <ele>55</ele>
        <time>2021-03-06T16:15:54Z</time>
      </trkpt>
      <trkpt lat="43.62496" lon="3.8512">
        <ele>55</ele>
        <time>2021-03-06T16:15:55Z</time>
      </trkpt>
      <trkpt lat="43.62494" lon="3.85127">
        <ele>55</ele>
        <time>2021-03-06T16:15:56Z</time>
      </trkpt>
      <trkpt lat="43.62491" lon="3.85134">
        <ele>55</ele>
        <time>2021-03-06T16:15:57Z</time>
      </trkpt>
      <trkpt lat="43.62488" lon="3.85141">
        <ele>55</ele>
        <time>2021-03-06T16:15:58Z</time>
      </trkpt>
      <trkpt lat="43.62485" lon="3.85148">
        <ele>53</ele>
        <time>2021-03-06T16:15:59Z</time>
      </trkpt>
      <trkpt lat="43.62482" lon="3.85155">
        <ele>53</ele>
        <time>2021-03-06T16:16:00Z</time>
      </trkpt>
      <trkpt lat="43.6248" lon="3.85162">
        <ele>53</ele>
        <time>2021-03-06T16:16:01Z</time>
      </trkpt>
      <trkpt lat="43.62477" lon="3.85169">
        <ele>53</ele>
        <time>2021-03-06T16:16:02Z</time>
      </trkpt>
      <trkpt lat="43.62474" lon="3.85176">
        <ele>53</ele>
        <time>2021-03-06T16:16:03Z</time>
      </trkpt>
      <trkpt lat="43.62471" lon="3.85184">
        <ele>53</ele>
        <time>2021-03-06T16:16:04Z</time>
      </trkpt>
      <trkpt lat="43.62468" lon="3.85191">
        <ele>53</ele>
        <time>2021-03-06T16:16:05Z</time>
      </trkpt>
      <trkpt lat="43.62465" lon="3.85198">
        <ele>53</ele>
        <time>2021-03-06T16:16:06Z</time>
      </trkpt>
      <trkpt lat="43.62462" lon="3.85206">
        <ele>53</ele>
        <time>2021-03-06T16:16:07Z</time>
      </trkpt>
      <trkpt lat="43.62459" lon="3.85213">
        <ele>53</ele>
        <time>2021-03-06T16:16:08Z</time>
      </trkpt>
      <trkpt lat="43.62456" lon="3.8522">
        <ele>51</ele>
        <time>2021-03-06T16:16:09Z</time>
      </trkpt>
      <trkpt lat="43.62453" lon="3.85228">
        <ele>51</ele>
        <time>2021-03-06T16:16:10Z</time>
      </trkpt>
      <trkpt lat="43.6245" lon="3.85235">
        <ele>51</ele>
        <time>2021-03-06T16:16:11Z</time>
      </trkpt>
      <trkpt lat="43.62446" lon="3.85242">
        <ele>51</ele>
        <time>2021-03-06T16:16:12Z</time>
      </trkpt>
      <trkpt lat="43.62443" lon="3.85249">
        <ele>51</ele>
        <time>2021-03-06T16:16:13Z</time>
      </trkpt>
      <trkpt lat="43.62439" lon="3.85257">
        <ele>51</ele>
        <time>2021-03-06T16:16:14Z</time>
      </trkpt>
      <trkpt lat="43.62436" lon="3.85264">
        <ele>51</ele>
        <time>2021-03-06T16:16:15Z</time>
      </trkpt>
      <trkpt lat="43.62432" lon="3.85271">
        <ele>51</ele>
        <time>2021-03-06T16:16:16Z</time>
      </trkpt>
      <trkpt lat="43.62427" lon="3.85278">
        <ele>51</ele>
        <time>2021-03-06T16:16:17Z</time>
      </trkpt>
      <trkpt lat="43.62423" lon="3.85285">
        <ele>51</ele>
        <time>2021-03-06T16:16:18Z</time>
      </trkpt>
      <trkpt lat="43.62419" lon="3.85293">
        <ele>50</ele>
        <time>2021-03-06T16:16:19Z</time>
      </trkpt>
      <trkpt lat="43.62415" lon="3.853">
        <ele>50</ele>
        <time>2021-03-06T16:16:20Z</time>
      </trkpt>
      <trkpt lat="43.62411" lon="3.85307">
        <ele>50</ele>
        <time>2021-03-06T16:16:21Z</time>
      </trkpt>
      <trkpt lat="43.62406" lon="3.85314">
        <ele>50</ele>
        <time>2021-03-06T16:16:22Z</time>
      </trkpt>
      <trkpt lat="43.62402" lon="3.85321">
        <ele>50</ele>
        <time>2021-03-06T16:16:23Z</time>
      </trkpt>
      <trkpt lat="43.62398" lon="3.85328">
        <ele>50</ele>
        <time>2021-03-06T16:16:24Z</time>
      </trkpt>
      <trkpt lat="43.62393" lon="3.85335">
        <ele>50</ele>
        <time>2021-03-06T16:16:25Z</time>
      </trkpt>
      <trkpt lat="43.62389" lon="3.85342">
        <ele>50</ele>
        <time>2021-03-06T16:16:26Z</time>
      </trkpt>
      <trkpt lat="43.62384" lon="3.85349">
        <ele>50</ele>
        <time>2021-03-06T16:16:27Z</time>
      </trkpt>
      <trkpt lat="43.6238" lon="3.85355">
        <ele>50</ele>
        <time>2021-03-06T16:16:28Z</time>
      </trkpt>
      <trkpt lat="43.62375" lon="3.85362">
        <ele>50</ele>
        <time>2021-03-06T16:16:29Z</time>
      </trkpt>
      <trkpt lat="43.6237" lon="3.85368">
        <ele>50</ele>
        <time>2021-03-06T16:16:30Z</time>
      </trkpt>
      <trkpt lat="43.62366" lon="3.85375">
        <ele>50</ele>
        <time>2021-03-06T16:16:31Z</time>
      </trkpt>
      <trkpt lat="43.62361" lon="3.85381">
        <ele>50</ele>
        <time>2021-03-06T16:16:32Z</time>
      </trkpt>
      <trkpt lat="43.62357" lon="3.85388">
        <ele>50</ele>
        <time>2021-03-06T16:16:33Z</time>
      </trkpt>
      <trkpt lat="43.62352" lon="3.85394">
        <ele>50</ele>
        <time>2021-03-06T16:16:34Z</time>
      </trkpt>
      <trkpt lat="43.62347" lon="3.854">
        <ele>50</ele>
        <time>2021-03-06T16:16:35Z</time>
      </trkpt>
      <trkpt lat="43.62343" lon="3.85406">
        <ele>50</ele>
        <time>2021-03-06T16:16:36Z</time>
      </trkpt>
      <trkpt lat="43.62338" lon="3.85412">
        <ele>50</ele>
        <time>2021-03-06T16:16:37Z</time>
      </trkpt>
      <trkpt lat="43.62332" lon="3.85417">
        <ele>50</ele>
        <time>2021-03-06T16:16:38Z</time>
      </trkpt>
      <trkpt lat="43.62327" lon="3.85422">
        <ele>49</ele>
        <time>2021-03-06T16:16:39Z</time>
      </trkpt>
      <trkpt lat="43.62322" lon="3.85427">
        <ele>49</ele>
        <time>2021-03-06T16:16:40Z</time>
      </trkpt>
      <trkpt lat="43.62317" lon="3.85431">
        <ele>49</ele>
        <time>2021-03-06T16:16:41Z</time>
      </trkpt>
      <trkpt lat="43.62311" lon="3.85435">
        <ele>49</ele>
        <time>2021-03-06T16:16:42Z</time>
      </trkpt>
      <trkpt lat="43.62305" lon="3.85439">
        <ele>49</ele>
        <time>2021-03-06T16:16:43Z</time>
      </trkpt>
      <trkpt lat="43.623" lon="3.85442">
        <ele>49</ele>
        <time>2021-03-06T16:16:44Z</time>
      </trkpt>
      <trkpt lat="43.62294" lon="3.85445">
        <ele>49</ele>
        <time>2021-03-06T16:16:45Z</time>
      </trkpt>
      <trkpt lat="43.62289" lon="3.85448">
        <ele>49</ele>
        <time>2021-03-06T16:16:46Z</time>
      </trkpt>
      <trkpt lat="43.62284" lon="3.8545">
        <ele>49</ele>
        <time>2021-03-06T16:16:47Z</time>
      </trkpt>
      <trkpt lat="43.62279" lon="3.85453">
        <ele>49</ele>
        <time>2021-03-06T16:16:48Z</time>
      </trkpt>
      <trkpt lat="43.62275" lon="3.85454">
        <ele>45</ele>
        <time>2021-03-06T16:16:49Z</time>
      </trkpt>
      <trkpt lat="43.62272" lon="3.85455">
        <ele>45</ele>
        <time>2021-03-06T16:16:50Z</time>
      </trkpt>
      <trkpt lat="43.62269" lon="3.85455">
        <ele>45</ele>
        <time>2021-03-06T16:16:51Z</time>
      </trkpt>
      <trkpt lat="43.62265" lon="3.85455">
        <ele>45</ele>
        <time>2021-03-06T16:16:52Z</time>
      </trkpt>
      <trkpt lat="43.62262" lon="3.85457">
        <ele>45</ele>
        <time>2021-03-06T16:16:53Z</time>
      </trkpt>
      <trkpt lat="43.62258" lon="3.8546">
        <ele>45</ele>
        <time>2021-03-06T16:16:54Z</time>
      </trkpt>
      <trkpt lat="43.62254" lon="3.85464">
        <ele>45</ele>
        <time>2021-03-06T16:16:55Z</time>
      </trkpt>
      <trkpt lat="43.62251" lon="3.85467">
        <ele>45</ele>
        <time>2021-03-06T16:16:56Z</time>
      </trkpt>
      <trkpt lat="43.62247" lon="3.85471">
        <ele>45</ele>
        <time>2021-03-06T16:16:57Z</time>
      </trkpt>
      <trkpt lat="43.62243" lon="3.85474">
        <ele>45</ele>
        <time>2021-03-06T16:16:58Z</time>
      </trkpt>
      <trkpt lat="43.62239" lon="3.8548">
        <ele>43</ele>
        <time>2021-03-06T16:16:59Z</time>
      </trkpt>
      <trkpt lat="43.62235" lon="3.85485">
        <ele>43</ele>
        <time>2021-03-06T16:17:00Z</time>
      </trkpt>
      <trkpt lat="43.62231" lon="3.85491">
        <ele>43</ele>
        <time>2021-03-06T16:17:01Z</time>
      </trkpt>
      <trkpt lat="43.62227" lon="3.85496">
        <ele>43</ele>
        <time>2021-03-06T16:17:02Z</time>
      </trkpt>
      <trkpt lat="43.62223" lon="3.85502">
        <ele>43</ele>
        <time>2021-03-06T16:17:03Z</time>
      </trkpt>
      <trkpt lat="43.6222" lon="3.85508">
        <ele>43</ele>
        <time>2021-03-06T16:17:04Z</time>
      </trkpt>
      <trkpt lat="43.62216" lon="3.85514">
        <ele>43</ele>
        <time>2021-03-06T16:17:05Z</time>
      </trkpt>
      <trkpt lat="43.62212" lon="3.8552">
        <ele>43</ele>
        <time>2021-03-06T16:17:06Z</time>
      </trkpt>
      <trkpt lat="43.62209" lon="3.85526">
        <ele>43</ele>
        <time>2021-03-06T16:17:07Z</time>
      </trkpt>
      <trkpt lat="43.62205" lon="3.85532">
        <ele>43</ele>
        <time>2021-03-06T16:17:08Z</time>
      </trkpt>
      <trkpt lat="43.62201" lon="3.85537">
        <ele>43</ele>
        <time>2021-03-06T16:17:09Z</time>
      </trkpt>
      <trkpt lat="43.62197" lon="3.85543">
        <ele>43</ele>
        <time>2021-03-06T16:17:10Z</time>
      </trkpt>
      <trkpt lat="43.62194" lon="3.8555">
        <ele>43</ele>
        <time>2021-03-06T16:17:11Z</time>
      </trkpt>
      <trkpt lat="43.6219" lon="3.85556">
        <ele>43</ele>
        <time>2021-03-06T16:17:12Z</time>
      </trkpt>
      <trkpt lat="43.62187" lon="3.85562">
        <ele>43</ele>
        <time>2021-03-06T16:17:13Z</time>
      </trkpt>
      <trkpt lat="43.6218" lon="3.85575">
        <ele>43</ele>
        <time>2021-03-06T16:17:15Z</time>
      </trkpt>
      <trkpt lat="43.62176" lon="3.85581">
        <ele>43</ele>
        <time>2021-03-06T16:17:16Z</time>
      </trkpt>
      <trkpt lat="43.62172" lon="3.85587">
        <ele>43</ele>
        <time>2021-03-06T16:17:17Z</time>
      </trkpt>
      <trkpt lat="43.62167" lon="3.85592">
        <ele>43</ele>
        <time>2021-03-06T16:17:18Z</time>
      </trkpt>
      <trkpt lat="43.62163" lon="3.85598">
        <ele>44</ele>
        <time>2021-03-06T16:17:19Z</time>
      </trkpt>
      <trkpt lat="43.62159" lon="3.85604">
        <ele>44</ele>
        <time>2021-03-06T16:17:20Z</time>
      </trkpt>
      <trkpt lat="43.62156" lon="3.8561">
        <ele>44</ele>
        <time>2021-03-06T16:17:21Z</time>
      </trkpt>
      <trkpt lat="43.62152" lon="3.85616">
        <ele>44</ele>
        <time>2021-03-06T16:17:22Z</time>
      </trkpt>
      <trkpt lat="43.62148" lon="3.85622">
        <ele>44</ele>
        <time>2021-03-06T16:17:23Z</time>
      </trkpt>
      <trkpt lat="43.62144" lon="3.85628">
        <ele>44</ele>
        <time>2021-03-06T16:17:24Z</time>
      </trkpt>
      <trkpt lat="43.6214" lon="3.85634">
        <ele>44</ele>
        <time>2021-03-06T16:17:25Z</time>
      </trkpt>
      <trkpt lat="43.62135" lon="3.8564">
        <ele>44</ele>
        <time>2021-03-06T16:17:26Z</time>
      </trkpt>
      <trkpt lat="43.62131" lon="3.85645">
        <ele>44</ele>
        <time>2021-03-06T16:17:27Z</time>
      </trkpt>
      <trkpt lat="43.62127" lon="3.85651">
        <ele>44</ele>
        <time>2021-03-06T16:17:28Z</time>
      </trkpt>
      <trkpt lat="43.62123" lon="3.85657">
        <ele>43</ele>
        <time>2021-03-06T16:17:29Z</time>
      </trkpt>
      <trkpt lat="43.62119" lon="3.85663">
        <ele>43</ele>
        <time>2021-03-06T16:17:30Z</time>
      </trkpt>
      <trkpt lat="43.62115" lon="3.8567">
        <ele>43</ele>
        <time>2021-03-06T16:17:31Z</time>
      </trkpt>
      <trkpt lat="43.62112" lon="3.85677">
        <ele>43</ele>
        <time>2021-03-06T16:17:32Z</time>
      </trkpt>
      <trkpt lat="43.62109" lon="3.85684">
        <ele>43</ele>
        <time>2021-03-06T16:17:33Z</time>
      </trkpt>
      <trkpt lat="43.62106" lon="3.85691">
        <ele>43</ele>
        <time>2021-03-06T16:17:34Z</time>
      </trkpt>
      <trkpt lat="43.62103" lon="3.85699">
        <ele>43</ele>
        <time>2021-03-06T16:17:35Z</time>
      </trkpt>
      <trkpt lat="43.621" lon="3.85706">
        <ele>43</ele>
        <time>2021-03-06T16:17:36Z</time>
      </trkpt>
      <trkpt lat="43.62097" lon="3.85713">
        <ele>43</ele>
        <time>2021-03-06T16:17:37Z</time>
      </trkpt>
      <trkpt lat="43.62095" lon="3.85719">
        <ele>43</ele>
        <time>2021-03-06T16:17:38Z</time>
      </trkpt>
      <trkpt lat="43.62092" lon="3.85726">
        <ele>43</ele>
        <time>2021-03-06T16:17:39Z</time>
      </trkpt>
      <trkpt lat="43.62089" lon="3.85731">
        <ele>43</ele>
        <time>2021-03-06T16:17:40Z</time>
      </trkpt>
      <trkpt lat="43.62085" lon="3.85736">
        <ele>43</ele>
        <time>2021-03-06T16:17:41Z</time>
      </trkpt>
      <trkpt lat="43.62082" lon="3.85741">
        <ele>43</ele>
        <time>2021-03-06T16:17:42Z</time>
      </trkpt>
      <trkpt lat="43.62079" lon="3.85743">
        <ele>43</ele>
        <time>2021-03-06T16:17:43Z</time>
      </trkpt>
      <trkpt lat="43.62076" lon="3.85744">
        <ele>43</ele>
        <time>2021-03-06T16:17:44Z</time>
      </trkpt>
      <trkpt lat="43.62075" lon="3.85747">
        <ele>43</ele>
        <time>2021-03-06T16:17:45Z</time>
      </trkpt>
      <trkpt lat="43.62075" lon="3.8575">
        <ele>43</ele>
        <time>2021-03-06T16:17:46Z</time>
      </trkpt>
      <trkpt lat="43.62075" lon="3.85752">
        <ele>43</ele>
        <time>2021-03-06T16:17:48Z</time>
      </trkpt>
      <trkpt lat="43.62075" lon="3.85755">
        <ele>41</ele>
        <time>2021-03-06T16:17:54Z</time>
      </trkpt>
      <trkpt lat="43.62068" lon="3.8576">
        <ele>40</ele>
        <time>2021-03-06T16:18:15Z</time>
      </trkpt>
      <trkpt lat="43.62065" lon="3.85763">
        <ele>40</ele>
        <time>2021-03-06T16:18:16Z</time>
      </trkpt>
      <trkpt lat="43.62063" lon="3.85766">
        <ele>40</ele>
        <time>2021-03-06T16:18:17Z</time>
      </trkpt>
      <trkpt lat="43.62061" lon="3.8577">
        <ele>40</ele>
        <time>2021-03-06T16:18:18Z</time>
      </trkpt>
      <trkpt lat="43.6206" lon="3.85775">
        <ele>40</ele>
        <time>2021-03-06T16:18:19Z</time>
      </trkpt>
      <trkpt lat="43.6206" lon="3.8578">
        <ele>40</ele>
        <time>2021-03-06T16:18:20Z</time>
      </trkpt>
      <trkpt lat="43.62059" lon="3.85784">
        <ele>40</ele>
        <time>2021-03-06T16:18:21Z</time>
      </trkpt>
      <trkpt lat="43.62058" lon="3.85789">
        <ele>40</ele>
        <time>2021-03-06T16:18:22Z</time>
      </trkpt>
      <trkpt lat="43.62056" lon="3.85793">
        <ele>40</ele>
        <time>2021-03-06T16:18:23Z</time>
      </trkpt>
      <trkpt lat="43.62054" lon="3.85797">
        <ele>40</ele>
        <time>2021-03-06T16:18:24Z</time>
      </trkpt>
      <trkpt lat="43.62051" lon="3.85802">
        <ele>39</ele>
        <time>2021-03-06T16:18:25Z</time>
      </trkpt>
      <trkpt lat="43.62049" lon="3.85806">
        <ele>39</ele>
        <time>2021-03-06T16:18:26Z</time>
      </trkpt>
      <trkpt lat="43.62048" lon="3.85811">
        <ele>39</ele>
        <time>2021-03-06T16:18:27Z</time>
      </trkpt>
      <trkpt lat="43.62046" lon="3.85817">
        <ele>39</ele>
        <time>2021-03-06T16:18:28Z</time>
      </trkpt>
      <trkpt lat="43.62044" lon="3.85822">
        <ele>39</ele>
        <time>2021-03-06T16:18:29Z</time>
      </trkpt>
      <trkpt lat="43.62042" lon="3.85826">
        <ele>39</ele>
        <time>2021-03-06T16:18:30Z</time>
      </trkpt>
      <trkpt lat="43.6204" lon="3.85831">
        <ele>39</ele>
        <time>2021-03-06T16:18:31Z</time>
      </trkpt>
      <trkpt lat="43.62038" lon="3.85836">
        <ele>39</ele>
        <time>2021-03-06T16:18:32Z</time>
      </trkpt>
      <trkpt lat="43.62035" lon="3.8584">
        <ele>39</ele>
        <time>2021-03-06T16:18:33Z</time>
      </trkpt>
      <trkpt lat="43.62032" lon="3.85844">
        <ele>39</ele>
        <time>2021-03-06T16:18:34Z</time>
      </trkpt>
      <trkpt lat="43.62029" lon="3.85848">
        <ele>39</ele>
        <time>2021-03-06T16:18:35Z</time>
      </trkpt>
      <trkpt lat="43.62025" lon="3.85851">
        <ele>39</ele>
        <time>2021-03-06T16:18:36Z</time>
      </trkpt>
      <trkpt lat="43.62022" lon="3.85855">
        <ele>39</ele>
        <time>2021-03-06T16:18:37Z</time>
      </trkpt>
      <trkpt lat="43.62019" lon="3.85857">
        <ele>39</ele>
        <time>2021-03-06T16:18:38Z</time>
      </trkpt>
      <trkpt lat="43.62015" lon="3.8586">
        <ele>39</ele>
        <time>2021-03-06T16:18:39Z</time>
      </trkpt>
      <trkpt lat="43.62011" lon="3.85863">
        <ele>39</ele>
        <time>2021-03-06T16:18:40Z</time>
      </trkpt>
      <trkpt lat="43.62003" lon="3.85867">
        <ele>39</ele>
        <time>2021-03-06T16:18:41Z</time>
      </trkpt>
      <trkpt lat="43.61999" lon="3.85868">
        <ele>39</ele>
        <time>2021-03-06T16:18:42Z</time>
      </trkpt>
      <trkpt lat="43.61994" lon="3.85869">
        <ele>39</ele>
        <time>2021-03-06T16:18:43Z</time>
      </trkpt>
      <trkpt lat="43.6199" lon="3.8587">
        <ele>39</ele>
        <time>2021-03-06T16:18:44Z</time>
      </trkpt>
      <trkpt lat="43.61986" lon="3.85871">
        <ele>39</ele>
        <time>2021-03-06T16:18:46Z</time>
      </trkpt>
      <trkpt lat="43.61981" lon="3.85872">
        <ele>39</ele>
        <time>2021-03-06T16:18:47Z</time>
      </trkpt>
      <trkpt lat="43.61977" lon="3.85872">
        <ele>39</ele>
        <time>2021-03-06T16:18:48Z</time>
      </trkpt>
      <trkpt lat="43.61972" lon="3.85872">
        <ele>39</ele>
        <time>2021-03-06T16:18:49Z</time>
      </trkpt>
      <trkpt lat="43.61968" lon="3.85872">
        <ele>39</ele>
        <time>2021-03-06T16:18:50Z</time>
      </trkpt>
      <trkpt lat="43.61964" lon="3.85871">
        <ele>39</ele>
        <time>2021-03-06T16:18:51Z</time>
      </trkpt>
      <trkpt lat="43.61959" lon="3.8587">
        <ele>39</ele>
        <time>2021-03-06T16:18:52Z</time>
      </trkpt>
      <trkpt lat="43.61955" lon="3.85869">
        <ele>39</ele>
        <time>2021-03-06T16:18:53Z</time>
      </trkpt>
      <trkpt lat="43.61951" lon="3.85868">
        <ele>39</ele>
        <time>2021-03-06T16:18:54Z</time>
      </trkpt>
      <trkpt lat="43.61947" lon="3.85866">
        <ele>40</ele>
        <time>2021-03-06T16:18:55Z</time>
      </trkpt>
      <trkpt lat="43.61943" lon="3.85866">
        <ele>40</ele>
        <time>2021-03-06T16:18:56Z</time>
      </trkpt>
      <trkpt lat="43.61939" lon="3.85865">
        <ele>40</ele>
        <time>2021-03-06T16:18:57Z</time>
      </trkpt>
      <trkpt lat="43.61935" lon="3.85865">
        <ele>40</ele>
        <time>2021-03-06T16:18:58Z</time>
      </trkpt>
      <trkpt lat="43.61931" lon="3.85865">
        <ele>40</ele>
        <time>2021-03-06T16:18:59Z</time>
      </trkpt>
      <trkpt lat="43.61927" lon="3.85865">
        <ele>40</ele>
        <time>2021-03-06T16:19:00Z</time>
      </trkpt>
      <trkpt lat="43.61922" lon="3.85864">
        <ele>40</ele>
        <time>2021-03-06T16:19:01Z</time>
      </trkpt>
      <trkpt lat="43.61918" lon="3.85865">
        <ele>40</ele>
        <time>2021-03-06T16:19:02Z</time>
      </trkpt>
      <trkpt lat="43.61914" lon="3.85865">
        <ele>40</ele>
        <time>2021-03-06T16:19:03Z</time>
      </trkpt>
      <trkpt lat="43.61911" lon="3.85866">
        <ele>40</ele>
        <time>2021-03-06T16:19:04Z</time>
      </trkpt>
      <trkpt lat="43.61907" lon="3.85867">
        <ele>41</ele>
        <time>2021-03-06T16:19:05Z</time>
      </trkpt>
      <trkpt lat="43.61902" lon="3.85868">
        <ele>41</ele>
        <time>2021-03-06T16:19:06Z</time>
      </trkpt>
      <trkpt lat="43.61898" lon="3.85868">
        <ele>41</ele>
        <time>2021-03-06T16:19:07Z</time>
      </trkpt>
      <trkpt lat="43.61895" lon="3.85867">
        <ele>41</ele>
        <time>2021-03-06T16:19:08Z</time>
      </trkpt>
      <trkpt lat="43.61891" lon="3.85868">
        <ele>41</ele>
        <time>2021-03-06T16:19:09Z</time>
      </trkpt>
      <trkpt lat="43.61887" lon="3.85869">
        <ele>41</ele>
        <time>2021-03-06T16:19:10Z</time>
      </trkpt>
      <trkpt lat="43.61883" lon="3.8587">
        <ele>41</ele>
        <time>2021-03-06T16:19:11Z</time>
      </trkpt>
      <trkpt lat="43.61879" lon="3.85872">
        <ele>41</ele>
        <time>2021-03-06T16:19:12Z</time>
      </trkpt>
      <trkpt lat="43.61875" lon="3.85874">
        <ele>41</ele>
        <time>2021-03-06T16:19:13Z</time>
      </trkpt>
      <trkpt lat="43.61872" lon="3.85877">
        <ele>41</ele>
        <time>2021-03-06T16:19:14Z</time>
      </trkpt>
      <trkpt lat="43.61868" lon="3.85881">
        <ele>42</ele>
        <time>2021-03-06T16:19:15Z</time>
      </trkpt>
      <trkpt lat="43.61865" lon="3.85884">
        <ele>42</ele>
        <time>2021-03-06T16:19:16Z</time>
      </trkpt>
      <trkpt lat="43.61861" lon="3.85889">
        <ele>42</ele>
        <time>2021-03-06T16:19:17Z</time>
      </trkpt>
      <trkpt lat="43.61858" lon="3.85892">
        <ele>42</ele>
        <time>2021-03-06T16:19:18Z</time>
      </trkpt>
      <trkpt lat="43.61854" lon="3.85896">
        <ele>42</ele>
        <time>2021-03-06T16:19:19Z</time>
      </trkpt>
      <trkpt lat="43.61851" lon="3.859">
        <ele>42</ele>
        <time>2021-03-06T16:19:20Z</time>
      </trkpt>
      <trkpt lat="43.61848" lon="3.85905">
        <ele>42</ele>
        <time>2021-03-06T16:19:21Z</time>
      </trkpt>
      <trkpt lat="43.61844" lon="3.85909">
        <ele>42</ele>
        <time>2021-03-06T16:19:22Z</time>
      </trkpt>
      <trkpt lat="43.61841" lon="3.85914">
        <ele>42</ele>
        <time>2021-03-06T16:19:23Z</time>
      </trkpt>
      <trkpt lat="43.61837" lon="3.85918">
        <ele>42</ele>
        <time>2021-03-06T16:19:24Z</time>
      </trkpt>
      <trkpt lat="43.61834" lon="3.85922">
        <ele>43</ele>
        <time>2021-03-06T16:19:25Z</time>
      </trkpt>
      <trkpt lat="43.6183" lon="3.85927">
        <ele>43</ele>
        <time>2021-03-06T16:19:26Z</time>
      </trkpt>
      <trkpt lat="43.61827" lon="3.85932">
        <ele>43</ele>
        <time>2021-03-06T16:19:27Z</time>
      </trkpt>
      <trkpt lat="43.61824" lon="3.85937">
        <ele>43</ele>
        <time>2021-03-06T16:19:28Z</time>
      </trkpt>
      <trkpt lat="43.61821" lon="3.85942">
        <ele>43</ele>
        <time>2021-03-06T16:19:29Z</time>
      </trkpt>
      <trkpt lat="43.61817" lon="3.85947">
        <ele>43</ele>
        <time>2021-03-06T16:19:30Z</time>
      </trkpt>
      <trkpt lat="43.61814" lon="3.85952">
        <ele>43</ele>
        <time>2021-03-06T16:19:31Z</time>
      </trkpt>
      <trkpt lat="43.61811" lon="3.85957">
        <ele>43</ele>
        <time>2021-03-06T16:19:32Z</time>
      </trkpt>
      <trkpt lat="43.61808" lon="3.85961">
        <ele>43</ele>
        <time>2021-03-06T16:19:33Z</time>
      </trkpt>
      <trkpt lat="43.61804" lon="3.85966">
        <ele>43</ele>
        <time>2021-03-06T16:19:34Z</time>
      </trkpt>
      <trkpt lat="43.61798" lon="3.85975">
        <ele>45</ele>
        <time>2021-03-06T16:19:35Z</time>
      </trkpt>
      <trkpt lat="43.61795" lon="3.8598">
        <ele>45</ele>
        <time>2021-03-06T16:19:36Z</time>
      </trkpt>
      <trkpt lat="43.61791" lon="3.85985">
        <ele>45</ele>
        <time>2021-03-06T16:19:37Z</time>
      </trkpt>
      <trkpt lat="43.61788" lon="3.85989">
        <ele>45</ele>
        <time>2021-03-06T16:19:39Z</time>
      </trkpt>
      <trkpt lat="43.61785" lon="3.85994">
        <ele>45</ele>
        <time>2021-03-06T16:19:40Z</time>
      </trkpt>
      <trkpt lat="43.61782" lon="3.85998">
        <ele>45</ele>
        <time>2021-03-06T16:19:41Z</time>
      </trkpt>
      <trkpt lat="43.61778" lon="3.86003">
        <ele>45</ele>
        <time>2021-03-06T16:19:42Z</time>
      </trkpt>
      <trkpt lat="43.61775" lon="3.86008">
        <ele>45</ele>
        <time>2021-03-06T16:19:43Z</time>
      </trkpt>
      <trkpt lat="43.61772" lon="3.86013">
        <ele>45</ele>
        <time>2021-03-06T16:19:44Z</time>
      </trkpt>
      <trkpt lat="43.61768" lon="3.86019">
        <ele>46</ele>
        <time>2021-03-06T16:19:45Z</time>
      </trkpt>
      <trkpt lat="43.61765" lon="3.86024">
        <ele>46</ele>
        <time>2021-03-06T16:19:46Z</time>
      </trkpt>
      <trkpt lat="43.61762" lon="3.86029">
        <ele>46</ele>
        <time>2021-03-06T16:19:47Z</time>
      </trkpt>
      <trkpt lat="43.61758" lon="3.86034">
        <ele>46</ele>
        <time>2021-03-06T16:19:48Z</time>
      </trkpt>
      <trkpt lat="43.61756" lon="3.86038">
        <ele>46</ele>
        <time>2021-03-06T16:19:49Z</time>
      </trkpt>
      <trkpt lat="43.61753" lon="3.86043">
        <ele>46</ele>
        <time>2021-03-06T16:19:50Z</time>
      </trkpt>
      <trkpt lat="43.6175" lon="3.86048">
        <ele>46</ele>
        <time>2021-03-06T16:19:51Z</time>
      </trkpt>
      <trkpt lat="43.61747" lon="3.86053">
        <ele>46</ele>
        <time>2021-03-06T16:19:52Z</time>
      </trkpt>
      <trkpt lat="43.61743" lon="3.86057">
        <ele>46</ele>
        <time>2021-03-06T16:19:53Z</time>
      </trkpt>
      <trkpt lat="43.6174" lon="3.86062">
        <ele>46</ele>
        <time>2021-03-06T16:19:54Z</time>
      </trkpt>
      <trkpt lat="43.61737" lon="3.86067">
        <ele>46</ele>
        <time>2021-03-06T16:19:55Z</time>
      </trkpt>
      <trkpt lat="43.61734" lon="3.86071">
        <ele>46</ele>
        <time>2021-03-06T16:19:56Z</time>
      </trkpt>
      <trkpt lat="43.61731" lon="3.86076">
        <ele>46</ele>
        <time>2021-03-06T16:19:57Z</time>
      </trkpt>
      <trkpt lat="43.61728" lon="3.8608">
        <ele>46</ele>
        <time>2021-03-06T16:19:58Z</time>
      </trkpt>
      <trkpt lat="43.61725" lon="3.86085">
        <ele>46</ele>
        <time>2021-03-06T16:19:59Z</time>
      </trkpt>
      <trkpt lat="43.61722" lon="3.86089">
        <ele>46</ele>
        <time>2021-03-06T16:20:00Z</time>
      </trkpt>
      <trkpt lat="43.61719" lon="3.86093">
        <ele>46</ele>
        <time>2021-03-06T16:20:01Z</time>
      </trkpt>
      <trkpt lat="43.61717" lon="3.86097">
        <ele>46</ele>
        <time>2021-03-06T16:20:02Z</time>
      </trkpt>
      <trkpt lat="43.61716" lon="3.861">
        <ele>46</ele>
        <time>2021-03-06T16:20:03Z</time>
      </trkpt>
      <trkpt lat="43.61714" lon="3.86102">
        <ele>46</ele>
        <time>2021-03-06T16:20:05Z</time>
      </trkpt>
      <trkpt lat="43.61714" lon="3.86103">
        <ele>47</ele>
        <time>2021-03-06T16:20:13Z</time>
      </trkpt>
      <trkpt lat="43.61708" lon="3.86109">
        <ele>47</ele>
        <time>2021-03-06T16:20:23Z</time>
      </trkpt>
      <trkpt lat="43.61706" lon="3.86111">
        <ele>47</ele>
        <time>2021-03-06T16:20:24Z</time>
      </trkpt>
      <trkpt lat="43.61703" lon="3.86114">
        <ele>47</ele>
        <time>2021-03-06T16:20:25Z</time>
      </trkpt>
      <trkpt lat="43.61701" lon="3.86118">
        <ele>47</ele>
        <time>2021-03-06T16:20:26Z</time>
      </trkpt>
      <trkpt lat="43.61698" lon="3.86123">
        <ele>47</ele>
        <time>2021-03-06T16:20:27Z</time>
      </trkpt>
      <trkpt lat="43.61696" lon="3.86128">
        <ele>47</ele>
        <time>2021-03-06T16:20:28Z</time>
      </trkpt>
      <trkpt lat="43.61693" lon="3.86133">
        <ele>47</ele>
        <time>2021-03-06T16:20:29Z</time>
      </trkpt>
      <trkpt lat="43.61689" lon="3.86139">
        <ele>47</ele>
        <time>2021-03-06T16:20:30Z</time>
      </trkpt>
      <trkpt lat="43.61685" lon="3.86144">
        <ele>47</ele>
        <time>2021-03-06T16:20:31Z</time>
      </trkpt>
      <trkpt lat="43.61682" lon="3.8615">
        <ele>47</ele>
        <time>2021-03-06T16:20:32Z</time>
      </trkpt>
      <trkpt lat="43.61678" lon="3.86155">
        <ele>46</ele>
        <time>2021-03-06T16:20:33Z</time>
      </trkpt>
      <trkpt lat="43.61674" lon="3.86161">
        <ele>46</ele>
        <time>2021-03-06T16:20:34Z</time>
      </trkpt>
      <trkpt lat="43.6167" lon="3.86167">
        <ele>46</ele>
        <time>2021-03-06T16:20:35Z</time>
      </trkpt>
      <trkpt lat="43.61665" lon="3.86173">
        <ele>46</ele>
        <time>2021-03-06T16:20:36Z</time>
      </trkpt>
      <trkpt lat="43.61661" lon="3.86179">
        <ele>46</ele>
        <time>2021-03-06T16:20:37Z</time>
      </trkpt>
      <trkpt lat="43.61657" lon="3.86185">
        <ele>46</ele>
        <time>2021-03-06T16:20:38Z</time>
      </trkpt>
      <trkpt lat="43.61653" lon="3.86192">
        <ele>46</ele>
        <time>2021-03-06T16:20:39Z</time>
      </trkpt>
      <trkpt lat="43.61648" lon="3.86199">
        <ele>46</ele>
        <time>2021-03-06T16:20:40Z</time>
      </trkpt>
      <trkpt lat="43.61644" lon="3.86205">
        <ele>46</ele>
        <time>2021-03-06T16:20:41Z</time>
      </trkpt>
      <trkpt lat="43.61639" lon="3.86212">
        <ele>46</ele>
        <time>2021-03-06T16:20:42Z</time>
      </trkpt>
      <trkpt lat="43.61635" lon="3.86218">
        <ele>46</ele>
        <time>2021-03-06T16:20:43Z</time>
      </trkpt>
      <trkpt lat="43.61626" lon="3.86232">
        <ele>46</ele>
        <time>2021-03-06T16:20:44Z</time>
      </trkpt>
      <trkpt lat="43.61621" lon="3.86239">
        <ele>46</ele>
        <time>2021-03-06T16:20:45Z</time>
      </trkpt>
      <trkpt lat="43.61616" lon="3.86246">
        <ele>46</ele>
        <time>2021-03-06T16:20:46Z</time>
      </trkpt>
      <trkpt lat="43.61607" lon="3.8626">
        <ele>46</ele>
        <time>2021-03-06T16:20:48Z</time>
      </trkpt>
      <trkpt lat="43.61602" lon="3.86267">
        <ele>46</ele>
        <time>2021-03-06T16:20:49Z</time>
      </trkpt>
      <trkpt lat="43.61598" lon="3.86273">
        <ele>46</ele>
        <time>2021-03-06T16:20:50Z</time>
      </trkpt>
      <trkpt lat="43.61593" lon="3.86279">
        <ele>46</ele>
        <time>2021-03-06T16:20:51Z</time>
      </trkpt>
      <trkpt lat="43.61589" lon="3.86287">
        <ele>45</ele>
        <time>2021-03-06T16:20:53Z</time>
      </trkpt>
      <trkpt lat="43.61584" lon="3.86294">
        <ele>45</ele>
        <time>2021-03-06T16:20:54Z</time>
      </trkpt>
      <trkpt lat="43.61579" lon="3.86301">
        <ele>45</ele>
        <time>2021-03-06T16:20:55Z</time>
      </trkpt>
      <trkpt lat="43.61574" lon="3.86308">
        <ele>45</ele>
        <time>2021-03-06T16:20:56Z</time>
      </trkpt>
      <trkpt lat="43.61564" lon="3.86321">
        <ele>45</ele>
        <time>2021-03-06T16:20:57Z</time>
      </trkpt>
      <trkpt lat="43.61559" lon="3.86328">
        <ele>45</ele>
        <time>2021-03-06T16:20:58Z</time>
      </trkpt>
      <trkpt lat="43.61554" lon="3.86335">
        <ele>45</ele>
        <time>2021-03-06T16:20:59Z</time>
      </trkpt>
      <trkpt lat="43.61549" lon="3.86342">
        <ele>45</ele>
        <time>2021-03-06T16:21:00Z</time>
      </trkpt>
      <trkpt lat="43.61544" lon="3.8635">
        <ele>45</ele>
        <time>2021-03-06T16:21:01Z</time>
      </trkpt>
      <trkpt lat="43.61539" lon="3.86357">
        <ele>45</ele>
        <time>2021-03-06T16:21:02Z</time>
      </trkpt>
      <trkpt lat="43.61534" lon="3.86364">
        <ele>45</ele>
        <time>2021-03-06T16:21:04Z</time>
      </trkpt>
      <trkpt lat="43.6153" lon="3.86371">
        <ele>45</ele>
        <time>2021-03-06T16:21:05Z</time>
      </trkpt>
      <trkpt lat="43.61525" lon="3.86377">
        <ele>45</ele>
        <time>2021-03-06T16:21:06Z</time>
      </trkpt>
      <trkpt lat="43.61521" lon="3.86384">
        <ele>45</ele>
        <time>2021-03-06T16:21:07Z</time>
      </trkpt>
      <trkpt lat="43.61516" lon="3.8639">
        <ele>45</ele>
        <time>2021-03-06T16:21:08Z</time>
      </trkpt>
      <trkpt lat="43.61512" lon="3.86396">
        <ele>45</ele>
        <time>2021-03-06T16:21:09Z</time>
      </trkpt>
      <trkpt lat="43.61509" lon="3.86403">
        <ele>45</ele>
        <time>2021-03-06T16:21:10Z</time>
      </trkpt>
      <trkpt lat="43.61504" lon="3.8641">
        <ele>45</ele>
        <time>2021-03-06T16:21:11Z</time>
      </trkpt>
      <trkpt lat="43.615" lon="3.86417">
        <ele>45</ele>
        <time>2021-03-06T16:21:12Z</time>
      </trkpt>
      <trkpt lat="43.61495" lon="3.86424">
        <ele>46</ele>
        <time>2021-03-06T16:21:13Z</time>
      </trkpt>
      <trkpt lat="43.6149" lon="3.86432">
        <ele>46</ele>
        <time>2021-03-06T16:21:14Z</time>
      </trkpt>
      <trkpt lat="43.61485" lon="3.86439">
        <ele>46</ele>
        <time>2021-03-06T16:21:15Z</time>
      </trkpt>
      <trkpt lat="43.6148" lon="3.86447">
        <ele>46</ele>
        <time>2021-03-06T16:21:16Z</time>
      </trkpt>
      <trkpt lat="43.61476" lon="3.86454">
        <ele>46</ele>
        <time>2021-03-06T16:21:17Z</time>
      </trkpt>
      <trkpt lat="43.61471" lon="3.86461">
        <ele>46</ele>
        <time>2021-03-06T16:21:18Z</time>
      </trkpt>
      <trkpt lat="43.61466" lon="3.86468">
        <ele>46</ele>
        <time>2021-03-06T16:21:19Z</time>
      </trkpt>
      <trkpt lat="43.61461" lon="3.86475">
        <ele>46</ele>
        <time>2021-03-06T16:21:20Z</time>
      </trkpt>
      <trkpt lat="43.61456" lon="3.86482">
        <ele>46</ele>
        <time>2021-03-06T16:21:21Z</time>
      </trkpt>
      <trkpt lat="43.61451" lon="3.8649">
        <ele>46</ele>
        <time>2021-03-06T16:21:22Z</time>
      </trkpt>
      <trkpt lat="43.61446" lon="3.86497">
        <ele>47</ele>
        <time>2021-03-06T16:21:23Z</time>
      </trkpt>
      <trkpt lat="43.6144" lon="3.86504">
        <ele>47</ele>
        <time>2021-03-06T16:21:24Z</time>
      </trkpt>
      <trkpt lat="43.61435" lon="3.86511">
        <ele>47</ele>
        <time>2021-03-06T16:21:25Z</time>
      </trkpt>
      <trkpt lat="43.61431" lon="3.86519">
        <ele>47</ele>
        <time>2021-03-06T16:21:26Z</time>
      </trkpt>
      <trkpt lat="43.61426" lon="3.86526">
        <ele>47</ele>
        <time>2021-03-06T16:21:27Z</time>
      </trkpt>
      <trkpt lat="43.61421" lon="3.86533">
        <ele>47</ele>
        <time>2021-03-06T16:21:28Z</time>
      </trkpt>
      <trkpt lat="43.61416" lon="3.8654">
        <ele>47</ele>
        <time>2021-03-06T16:21:29Z</time>
      </trkpt>
      <trkpt lat="43.61412" lon="3.86546">
        <ele>47</ele>
        <time>2021-03-06T16:21:30Z</time>
      </trkpt>
      <trkpt lat="43.61407" lon="3.86553">
        <ele>47</ele>
        <time>2021-03-06T16:21:31Z</time>
      </trkpt>
      <trkpt lat="43.61403" lon="3.86559">
        <ele>47</ele>
        <time>2021-03-06T16:21:32Z</time>
      </trkpt>
      <trkpt lat="43.61394" lon="3.86572">
        <ele>47</ele>
        <time>2021-03-06T16:21:33Z</time>
      </trkpt>
      <trkpt lat="43.6139" lon="3.86579">
        <ele>47</ele>
        <time>2021-03-06T16:21:34Z</time>
      </trkpt>
      <trkpt lat="43.61386" lon="3.86585">
        <ele>47</ele>
        <time>2021-03-06T16:21:35Z</time>
      </trkpt>
      <trkpt lat="43.61378" lon="3.86597">
        <ele>47</ele>
        <time>2021-03-06T16:21:37Z</time>
      </trkpt>
      <trkpt lat="43.61375" lon="3.86602">
        <ele>47</ele>
        <time>2021-03-06T16:21:38Z</time>
      </trkpt>
      <trkpt lat="43.61373" lon="3.86606">
        <ele>47</ele>
        <time>2021-03-06T16:21:39Z</time>
      </trkpt>
      <trkpt lat="43.61371" lon="3.8661">
        <ele>47</ele>
        <time>2021-03-06T16:21:40Z</time>
      </trkpt>
      <trkpt lat="43.6137" lon="3.86614">
        <ele>47</ele>
        <time>2021-03-06T16:21:42Z</time>
      </trkpt>
      <trkpt lat="43.61371" lon="3.86617">
        <ele>46</ele>
        <time>2021-03-06T16:21:43Z</time>
      </trkpt>
      <trkpt lat="43.61372" lon="3.86622">
        <ele>46</ele>
        <time>2021-03-06T16:21:44Z</time>
      </trkpt>
      <trkpt lat="43.61373" lon="3.86627">
        <ele>46</ele>
        <time>2021-03-06T16:21:45Z</time>
      </trkpt>
      <trkpt lat="43.61373" lon="3.86634">
        <ele>46</ele>
        <time>2021-03-06T16:21:46Z</time>
      </trkpt>
      <trkpt lat="43.61372" lon="3.86639">
        <ele>46</ele>
        <time>2021-03-06T16:21:47Z</time>
      </trkpt>
      <trkpt lat="43.6137" lon="3.86645">
        <ele>46</ele>
        <time>2021-03-06T16:21:48Z</time>
      </trkpt>
      <trkpt lat="43.61369" lon="3.86652">
        <ele>46</ele>
        <time>2021-03-06T16:21:49Z</time>
      </trkpt>
      <trkpt lat="43.61369" lon="3.86659">
        <ele>46</ele>
        <time>2021-03-06T16:21:50Z</time>
      </trkpt>
      <trkpt lat="43.61368" lon="3.86665">
        <ele>46</ele>
        <time>2021-03-06T16:21:51Z</time>
      </trkpt>
      <trkpt lat="43.61367" lon="3.86672">
        <ele>46</ele>
        <time>2021-03-06T16:21:52Z</time>
      </trkpt>
      <trkpt lat="43.61366" lon="3.86679">
        <ele>45</ele>
        <time>2021-03-06T16:21:53Z</time>
      </trkpt>
      <trkpt lat="43.61365" lon="3.86686">
        <ele>45</ele>
        <time>2021-03-06T16:21:54Z</time>
      </trkpt>
      <trkpt lat="43.61363" lon="3.86693">
        <ele>45</ele>
        <time>2021-03-06T16:21:55Z</time>
      </trkpt>
      <trkpt lat="43.6136" lon="3.86699">
        <ele>45</ele>
        <time>2021-03-06T16:21:56Z</time>
      </trkpt>
      <trkpt lat="43.61358" lon="3.86705">
        <ele>45</ele>
        <time>2021-03-06T16:21:57Z</time>
      </trkpt>
      <trkpt lat="43.61356" lon="3.86711">
        <ele>45</ele>
        <time>2021-03-06T16:21:58Z</time>
      </trkpt>
      <trkpt lat="43.61354" lon="3.86717">
        <ele>45</ele>
        <time>2021-03-06T16:21:59Z</time>
      </trkpt>
      <trkpt lat="43.61351" lon="3.86723">
        <ele>45</ele>
        <time>2021-03-06T16:22:00Z</time>
      </trkpt>
      <trkpt lat="43.61348" lon="3.8673">
        <ele>45</ele>
        <time>2021-03-06T16:22:01Z</time>
      </trkpt>
      <trkpt lat="43.61346" lon="3.86737">
        <ele>45</ele>
        <time>2021-03-06T16:22:02Z</time>
      </trkpt>
      <trkpt lat="43.61343" lon="3.86743">
        <ele>43</ele>
        <time>2021-03-06T16:22:03Z</time>
      </trkpt>
      <trkpt lat="43.6134" lon="3.8675">
        <ele>43</ele>
        <time>2021-03-06T16:22:04Z</time>
      </trkpt>
      <trkpt lat="43.61338" lon="3.86756">
        <ele>43</ele>
        <time>2021-03-06T16:22:05Z</time>
      </trkpt>
      <trkpt lat="43.61335" lon="3.86762">
        <ele>43</ele>
        <time>2021-03-06T16:22:06Z</time>
      </trkpt>
      <trkpt lat="43.61332" lon="3.86768">
        <ele>43</ele>
        <time>2021-03-06T16:22:07Z</time>
      </trkpt>
      <trkpt lat="43.6133" lon="3.86774">
        <ele>43</ele>
        <time>2021-03-06T16:22:08Z</time>
      </trkpt>
      <trkpt lat="43.61328" lon="3.8678">
        <ele>43</ele>
        <time>2021-03-06T16:22:09Z</time>
      </trkpt>
      <trkpt lat="43.61326" lon="3.86785">
        <ele>43</ele>
        <time>2021-03-06T16:22:10Z</time>
      </trkpt>
      <trkpt lat="43.61324" lon="3.86789">
        <ele>43</ele>
        <time>2021-03-06T16:22:11Z</time>
      </trkpt>
      <trkpt lat="43.61323" lon="3.86793">
        <ele>43</ele>
        <time>2021-03-06T16:22:12Z</time>
      </trkpt>
      <trkpt lat="43.61322" lon="3.86799">
        <ele>42</ele>
        <time>2021-03-06T16:22:13Z</time>
      </trkpt>
      <trkpt lat="43.61322" lon="3.86805">
        <ele>42</ele>
        <time>2021-03-06T16:22:14Z</time>
      </trkpt>
      <trkpt lat="43.61321" lon="3.86811">
        <ele>42</ele>
        <time>2021-03-06T16:22:15Z</time>
      </trkpt>
      <trkpt lat="43.61321" lon="3.86818">
        <ele>42</ele>
        <time>2021-03-06T16:22:16Z</time>
      </trkpt>
      <trkpt lat="43.6132" lon="3.86824">
        <ele>42</ele>
        <time>2021-03-06T16:22:17Z</time>
      </trkpt>
      <trkpt lat="43.6132" lon="3.86831">
        <ele>42</ele>
        <time>2021-03-06T16:22:18Z</time>
      </trkpt>
      <trkpt lat="43.61319" lon="3.86837">
        <ele>42</ele>
        <time>2021-03-06T16:22:19Z</time>
      </trkpt>
      <trkpt lat="43.61317" lon="3.86844">
        <ele>42</ele>
        <time>2021-03-06T16:22:20Z</time>
      </trkpt>
      <trkpt lat="43.61316" lon="3.8685">
        <ele>42</ele>
        <time>2021-03-06T16:22:21Z</time>
      </trkpt>
      <trkpt lat="43.61315" lon="3.86856">
        <ele>42</ele>
        <time>2021-03-06T16:22:22Z</time>
      </trkpt>
      <trkpt lat="43.61314" lon="3.86862">
        <ele>42</ele>
        <time>2021-03-06T16:22:23Z</time>
      </trkpt>
      <trkpt lat="43.61312" lon="3.86867">
        <ele>42</ele>
        <time>2021-03-06T16:22:24Z</time>
      </trkpt>
      <trkpt lat="43.6131" lon="3.86872">
        <ele>42</ele>
        <time>2021-03-06T16:22:25Z</time>
      </trkpt>
      <trkpt lat="43.61309" lon="3.86877">
        <ele>42</ele>
        <time>2021-03-06T16:22:26Z</time>
      </trkpt>
      <trkpt lat="43.61308" lon="3.86883">
        <ele>42</ele>
        <time>2021-03-06T16:22:27Z</time>
      </trkpt>
      <trkpt lat="43.61307" lon="3.86888">
        <ele>42</ele>
        <time>2021-03-06T16:22:28Z</time>
      </trkpt>
      <trkpt lat="43.61306" lon="3.86894">
        <ele>42</ele>
        <time>2021-03-06T16:22:29Z</time>
      </trkpt>
      <trkpt lat="43.61305" lon="3.86899">
        <ele>42</ele>
        <time>2021-03-06T16:22:30Z</time>
      </trkpt>
      <trkpt lat="43.61304" lon="3.86904">
        <ele>42</ele>
        <time>2021-03-06T16:22:31Z</time>
      </trkpt>
      <trkpt lat="43.61303" lon="3.86908">
        <ele>42</ele>
        <time>2021-03-06T16:22:32Z</time>
      </trkpt>
      <trkpt lat="43.61302" lon="3.86912">
        <ele>43</ele>
        <time>2021-03-06T16:22:33Z</time>
      </trkpt>
      <trkpt lat="43.61302" lon="3.86916">
        <ele>43</ele>
        <time>2021-03-06T16:22:34Z</time>
      </trkpt>
      <trkpt lat="43.61302" lon="3.8692">
        <ele>43</ele>
        <time>2021-03-06T16:22:35Z</time>
      </trkpt>
      <trkpt lat="43.61302" lon="3.86923">
        <ele>43</ele>
        <time>2021-03-06T16:22:36Z</time>
      </trkpt>
      <trkpt lat="43.61302" lon="3.86926">
        <ele>43</ele>
        <time>2021-03-06T16:22:37Z</time>
      </trkpt>
      <trkpt lat="43.61302" lon="3.8693">
        <ele>43</ele>
        <time>2021-03-06T16:22:39Z</time>
      </trkpt>
      <trkpt lat="43.61302" lon="3.86933">
        <ele>43</ele>
        <time>2021-03-06T16:22:41Z</time>
      </trkpt>
      <trkpt lat="43.61302" lon="3.86937">
        <ele>43</ele>
        <time>2021-03-06T16:22:44Z</time>
      </trkpt>
      <trkpt lat="43.61302" lon="3.86941">
        <ele>43</ele>
        <time>2021-03-06T16:22:46Z</time>
      </trkpt>
      <trkpt lat="43.61302" lon="3.86944">
        <ele>43</ele>
        <time>2021-03-06T16:22:47Z</time>
      </trkpt>
      <trkpt lat="43.61303" lon="3.86947">
        <ele>43</ele>
        <time>2021-03-06T16:22:48Z</time>
      </trkpt>
      <trkpt lat="43.61303" lon="3.8695">
        <ele>43</ele>
        <time>2021-03-06T16:22:49Z</time>
      </trkpt>
      <trkpt lat="43.61303" lon="3.86954">
        <ele>43</ele>
        <time>2021-03-06T16:22:50Z</time>
      </trkpt>
      <trkpt lat="43.61302" lon="3.86957">
        <ele>43</ele>
        <time>2021-03-06T16:22:51Z</time>
      </trkpt>
      <trkpt lat="43.61302" lon="3.86961">
        <ele>43</ele>
        <time>2021-03-06T16:22:52Z</time>
      </trkpt>
      <trkpt lat="43.61301" lon="3.86965">
        <ele>46</ele>
        <time>2021-03-06T16:22:53Z</time>
      </trkpt>
      <trkpt lat="43.61301" lon="3.86969">
        <ele>46</ele>
        <time>2021-03-06T16:22:54Z</time>
      </trkpt>
      <trkpt lat="43.61301" lon="3.86972">
        <ele>46</ele>
        <time>2021-03-06T16:22:55Z</time>
      </trkpt>
      <trkpt lat="43.613" lon="3.86976">
        <ele>46</ele>
        <time>2021-03-06T16:22:56Z</time>
      </trkpt>
      <trkpt lat="43.61299" lon="3.86979">
        <ele>46</ele>
        <time>2021-03-06T16:22:57Z</time>
      </trkpt>
      <trkpt lat="43.61297" lon="3.86983">
        <ele>46</ele>
        <time>2021-03-06T16:22:58Z</time>
      </trkpt>
      <trkpt lat="43.61296" lon="3.86986">
        <ele>46</ele>
        <time>2021-03-06T16:22:59Z</time>
      </trkpt>
      <trkpt lat="43.61295" lon="3.86989">
        <ele>46</ele>
        <time>2021-03-06T16:23:00Z</time>
      </trkpt>
      <trkpt lat="43.61293" lon="3.86993">
        <ele>46</ele>
        <time>2021-03-06T16:23:01Z</time>
      </trkpt>
      <trkpt lat="43.61292" lon="3.86996">
        <ele>46</ele>
        <time>2021-03-06T16:23:02Z</time>
      </trkpt>
      <trkpt lat="43.61291" lon="3.87">
        <ele>46</ele>
        <time>2021-03-06T16:23:03Z</time>
      </trkpt>
      <trkpt lat="43.6129" lon="3.87003">
        <ele>46</ele>
        <time>2021-03-06T16:23:04Z</time>
      </trkpt>
      <trkpt lat="43.61289" lon="3.87007">
        <ele>46</ele>
        <time>2021-03-06T16:23:05Z</time>
      </trkpt>
      <trkpt lat="43.61288" lon="3.87011">
        <ele>46</ele>
        <time>2021-03-06T16:23:06Z</time>
      </trkpt>
      <trkpt lat="43.61287" lon="3.87015">
        <ele>46</ele>
        <time>2021-03-06T16:23:07Z</time>
      </trkpt>
      <trkpt lat="43.61286" lon="3.87019">
        <ele>46</ele>
        <time>2021-03-06T16:23:08Z</time>
      </trkpt>
      <trkpt lat="43.61285" lon="3.87023">
        <ele>46</ele>
        <time>2021-03-06T16:23:09Z</time>
      </trkpt>
      <trkpt lat="43.61284" lon="3.87028">
        <ele>46</ele>
        <time>2021-03-06T16:23:10Z</time>
      </trkpt>
      <trkpt lat="43.61283" lon="3.87032">
        <ele>46</ele>
        <time>2021-03-06T16:23:11Z</time>
      </trkpt>
      <trkpt lat="43.61281" lon="3.87036">
        <ele>46</ele>
        <time>2021-03-06T16:23:12Z</time>
      </trkpt>
      <trkpt lat="43.6128" lon="3.8704">
        <ele>46</ele>
        <time>2021-03-06T16:23:13Z</time>
      </trkpt>
      <trkpt lat="43.61279" lon="3.87044">
        <ele>46</ele>
        <time>2021-03-06T16:23:14Z</time>
      </trkpt>
      <trkpt lat="43.61278" lon="3.87049">
        <ele>46</ele>
        <time>2021-03-06T16:23:15Z</time>
      </trkpt>
      <trkpt lat="43.61277" lon="3.87053">
        <ele>46</ele>
        <time>2021-03-06T16:23:16Z</time>
      </trkpt>
      <trkpt lat="43.61276" lon="3.87058">
        <ele>46</ele>
        <time>2021-03-06T16:23:17Z</time>
      </trkpt>
      <trkpt lat="43.61275" lon="3.87062">
        <ele>46</ele>
        <time>2021-03-06T16:23:18Z</time>
      </trkpt>
      <trkpt lat="43.61274" lon="3.87067">
        <ele>46</ele>
        <time>2021-03-06T16:23:19Z</time>
      </trkpt>
      <trkpt lat="43.61273" lon="3.87071">
        <ele>46</ele>
        <time>2021-03-06T16:23:20Z</time>
      </trkpt>
      <trkpt lat="43.61272" lon="3.87075">
        <ele>46</ele>
        <time>2021-03-06T16:23:21Z</time>
      </trkpt>
      <trkpt lat="43.61271" lon="3.87079">
        <ele>46</ele>
        <time>2021-03-06T16:23:22Z</time>
      </trkpt>
      <trkpt lat="43.61271" lon="3.87083">
        <ele>45</ele>
        <time>2021-03-06T16:23:23Z</time>
      </trkpt>
      <trkpt lat="43.6127" lon="3.87086">
        <ele>45</ele>
        <time>2021-03-06T16:23:24Z</time>
      </trkpt>
      <trkpt lat="43.61269" lon="3.8709">
        <ele>45</ele>
        <time>2021-03-06T16:23:25Z</time>
      </trkpt>
      <trkpt lat="43.61268" lon="3.87094">
        <ele>45</ele>
        <time>2021-03-06T16:23:26Z</time>
      </trkpt>
      <trkpt lat="43.61267" lon="3.87098">
        <ele>45</ele>
        <time>2021-03-06T16:23:27Z</time>
      </trkpt>
      <trkpt lat="43.61266" lon="3.87103">
        <ele>45</ele>
        <time>2021-03-06T16:23:28Z</time>
      </trkpt>
      <trkpt lat="43.61265" lon="3.87107">
        <ele>45</ele>
        <time>2021-03-06T16:23:29Z</time>
      </trkpt>
      <trkpt lat="43.61264" lon="3.87112">
        <ele>45</ele>
        <time>2021-03-06T16:23:30Z</time>
      </trkpt>
      <trkpt lat="43.61263" lon="3.87116">
        <ele>45</ele>
        <time>2021-03-06T16:23:31Z</time>
      </trkpt>
      <trkpt lat="43.61263" lon="3.87121">
        <ele>45</ele>
        <time>2021-03-06T16:23:32Z</time>
      </trkpt>
      <trkpt lat="43.61262" lon="3.87125">
        <ele>46</ele>
        <time>2021-03-06T16:23:33Z</time>
      </trkpt>
      <trkpt lat="43.61262" lon="3.87129">
        <ele>46</ele>
        <time>2021-03-06T16:23:34Z</time>
      </trkpt>
      <trkpt lat="43.61261" lon="3.87132">
        <ele>46</ele>
        <time>2021-03-06T16:23:35Z</time>
      </trkpt>
      <trkpt lat="43.6126" lon="3.87135">
        <ele>46</ele>
        <time>2021-03-06T16:23:36Z</time>
      </trkpt>
      <trkpt lat="43.61259" lon="3.87139">
        <ele>46</ele>
        <time>2021-03-06T16:23:37Z</time>
      </trkpt>
      <trkpt lat="43.61259" lon="3.87143">
        <ele>46</ele>
        <time>2021-03-06T16:23:38Z</time>
      </trkpt>
      <trkpt lat="43.61258" lon="3.87147">
        <ele>46</ele>
        <time>2021-03-06T16:23:39Z</time>
      </trkpt>
      <trkpt lat="43.61256" lon="3.87152">
        <ele>46</ele>
        <time>2021-03-06T16:23:40Z</time>
      </trkpt>
      <trkpt lat="43.61255" lon="3.87156">
        <ele>46</ele>
        <time>2021-03-06T16:23:41Z</time>
      </trkpt>
      <trkpt lat="43.61254" lon="3.87159">
        <ele>46</ele>
        <time>2021-03-06T16:23:42Z</time>
      </trkpt>
      <trkpt lat="43.61253" lon="3.87162">
        <ele>46</ele>
        <time>2021-03-06T16:23:43Z</time>
      </trkpt>
      <trkpt lat="43.61252" lon="3.87165">
        <ele>46</ele>
        <time>2021-03-06T16:23:44Z</time>
      </trkpt>
      <trkpt lat="43.61253" lon="3.8717">
        <ele>46</ele>
        <time>2021-03-06T16:23:45Z</time>
      </trkpt>
      <trkpt lat="43.61252" lon="3.87174">
        <ele>46</ele>
        <time>2021-03-06T16:23:46Z</time>
      </trkpt>
      <trkpt lat="43.61252" lon="3.87179">
        <ele>46</ele>
        <time>2021-03-06T16:23:47Z</time>
      </trkpt>
      <trkpt lat="43.61252" lon="3.87183">
        <ele>46</ele>
        <time>2021-03-06T16:23:48Z</time>
      </trkpt>
      <trkpt lat="43.61252" lon="3.87187">
        <ele>46</ele>
        <time>2021-03-06T16:23:49Z</time>
      </trkpt>
      <trkpt lat="43.61252" lon="3.87192">
        <ele>46</ele>
        <time>2021-03-06T16:23:50Z</time>
      </trkpt>
      <trkpt lat="43.61252" lon="3.87196">
        <ele>46</ele>
        <time>2021-03-06T16:23:51Z</time>
      </trkpt>
      <trkpt lat="43.61252" lon="3.872">
        <ele>46</ele>
        <time>2021-03-06T16:23:52Z</time>
      </trkpt>
      <trkpt lat="43.61252" lon="3.87205">
        <ele>47</ele>
        <time>2021-03-06T16:23:53Z</time>
      </trkpt>
      <trkpt lat="43.61251" lon="3.87209">
        <ele>47</ele>
        <time>2021-03-06T16:23:54Z</time>
      </trkpt>
      <trkpt lat="43.61251" lon="3.87214">
        <ele>47</ele>
        <time>2021-03-06T16:23:55Z</time>
      </trkpt>
      <trkpt lat="43.61251" lon="3.87218">
        <ele>47</ele>
        <time>2021-03-06T16:23:56Z</time>
      </trkpt>
      <trkpt lat="43.61251" lon="3.87221">
        <ele>47</ele>
        <time>2021-03-06T16:23:57Z</time>
      </trkpt>
      <trkpt lat="43.61252" lon="3.87224">
        <ele>47</ele>
        <time>2021-03-06T16:23:58Z</time>
      </trkpt>
      <trkpt lat="43.61253" lon="3.87229">
        <ele>47</ele>
        <time>2021-03-06T16:23:59Z</time>
      </trkpt>
      <trkpt lat="43.61254" lon="3.87233">
        <ele>47</ele>
        <time>2021-03-06T16:24:00Z</time>
      </trkpt>
      <trkpt lat="43.61254" lon="3.87237">
        <ele>47</ele>
        <time>2021-03-06T16:24:01Z</time>
      </trkpt>
      <trkpt lat="43.61255" lon="3.8724">
        <ele>47</ele>
        <time>2021-03-06T16:24:02Z</time>
      </trkpt>
      <trkpt lat="43.61255" lon="3.87244">
        <ele>48</ele>
        <time>2021-03-06T16:24:03Z</time>
      </trkpt>
      <trkpt lat="43.61255" lon="3.87248">
        <ele>48</ele>
        <time>2021-03-06T16:24:04Z</time>
      </trkpt>
      <trkpt lat="43.61256" lon="3.87251">
        <ele>48</ele>
        <time>2021-03-06T16:24:05Z</time>
      </trkpt>
      <trkpt lat="43.61256" lon="3.87256">
        <ele>48</ele>
        <time>2021-03-06T16:24:06Z</time>
      </trkpt>
      <trkpt lat="43.61256" lon="3.8726">
        <ele>48</ele>
        <time>2021-03-06T16:24:07Z</time>
      </trkpt>
      <trkpt lat="43.61256" lon="3.87264">
        <ele>48</ele>
        <time>2021-03-06T16:24:08Z</time>
      </trkpt>
      <trkpt lat="43.61255" lon="3.87269">
        <ele>48</ele>
        <time>2021-03-06T16:24:09Z</time>
      </trkpt>
      <trkpt lat="43.61254" lon="3.87272">
        <ele>48</ele>
        <time>2021-03-06T16:24:10Z</time>
      </trkpt>
      <trkpt lat="43.61253" lon="3.87275">
        <ele>48</ele>
        <time>2021-03-06T16:24:11Z</time>
      </trkpt>
      <trkpt lat="43.61251" lon="3.87278">
        <ele>48</ele>
        <time>2021-03-06T16:24:12Z</time>
      </trkpt>
      <trkpt lat="43.6125" lon="3.87279">
        <ele>51</ele>
        <time>2021-03-06T16:24:13Z</time>
      </trkpt>
      <trkpt lat="43.61249" lon="3.87281">
        <ele>51</ele>
        <time>2021-03-06T16:24:14Z</time>
      </trkpt>
      <trkpt lat="43.61247" lon="3.87283">
        <ele>51</ele>
        <time>2021-03-06T16:24:15Z</time>
      </trkpt>
      <trkpt lat="43.61245" lon="3.87286">
        <ele>51</ele>
        <time>2021-03-06T16:24:17Z</time>
      </trkpt>
      <trkpt lat="43.61245" lon="3.87288">
        <ele>51</ele>
        <time>2021-03-06T16:24:18Z</time>
      </trkpt>
      <trkpt lat="43.61242" lon="3.87292">
        <ele>51</ele>
        <time>2021-03-06T16:24:20Z</time>
      </trkpt>
      <trkpt lat="43.61241" lon="3.87293">
        <ele>51</ele>
        <time>2021-03-06T16:24:21Z</time>
      </trkpt>
      <trkpt lat="43.61238" lon="3.87296">
        <ele>51</ele>
        <time>2021-03-06T16:24:23Z</time>
      </trkpt>
      <trkpt lat="43.61237" lon="3.87298">
        <ele>51</ele>
        <time>2021-03-06T16:24:24Z</time>
      </trkpt>
      <trkpt lat="43.61235" lon="3.873">
        <ele>51</ele>
        <time>2021-03-06T16:24:25Z</time>
      </trkpt>
      <trkpt lat="43.61233" lon="3.87302">
        <ele>51</ele>
        <time>2021-03-06T16:24:26Z</time>
      </trkpt>
      <trkpt lat="43.61231" lon="3.87304">
        <ele>51</ele>
        <time>2021-03-06T16:24:27Z</time>
      </trkpt>
      <trkpt lat="43.61229" lon="3.87307">
        <ele>51</ele>
        <time>2021-03-06T16:24:28Z</time>
      </trkpt>
      <trkpt lat="43.61227" lon="3.8731">
        <ele>51</ele>
        <time>2021-03-06T16:24:29Z</time>
      </trkpt>
      <trkpt lat="43.61225" lon="3.87313">
        <ele>51</ele>
        <time>2021-03-06T16:24:30Z</time>
      </trkpt>
      <trkpt lat="43.61224" lon="3.87316">
        <ele>51</ele>
        <time>2021-03-06T16:24:31Z</time>
      </trkpt>
      <trkpt lat="43.6122" lon="3.87322">
        <ele>51</ele>
        <time>2021-03-06T16:24:33Z</time>
      </trkpt>
      <trkpt lat="43.61218" lon="3.87325">
        <ele>51</ele>
        <time>2021-03-06T16:24:34Z</time>
      </trkpt>
      <trkpt lat="43.61216" lon="3.87327">
        <ele>51</ele>
        <time>2021-03-06T16:24:35Z</time>
      </trkpt>
      <trkpt lat="43.61214" lon="3.87329">
        <ele>51</ele>
        <time>2021-03-06T16:24:36Z</time>
      </trkpt>
      <trkpt lat="43.61213" lon="3.87332">
        <ele>51</ele>
        <time>2021-03-06T16:24:37Z</time>
      </trkpt>
      <trkpt lat="43.61211" lon="3.87335">
        <ele>51</ele>
        <time>2021-03-06T16:24:38Z</time>
      </trkpt>
      <trkpt lat="43.6121" lon="3.87338">
        <ele>51</ele>
        <time>2021-03-06T16:24:39Z</time>
      </trkpt>
      <trkpt lat="43.612" lon="3.87348">
        <ele>51</ele>
        <time>2021-03-06T16:24:43Z</time>
      </trkpt>
      <trkpt lat="43.61193" lon="3.87358">
        <ele>51</ele>
        <time>2021-03-06T16:24:47Z</time>
      </trkpt>
      <trkpt lat="43.61192" lon="3.87361">
        <ele>51</ele>
        <time>2021-03-06T16:24:48Z</time>
      </trkpt>
      <trkpt lat="43.61191" lon="3.87363">
        <ele>51</ele>
        <time>2021-03-06T16:24:49Z</time>
      </trkpt>
      <trkpt lat="43.61189" lon="3.87366">
        <ele>51</ele>
        <time>2021-03-06T16:24:50Z</time>
      </trkpt>
      <trkpt lat="43.61188" lon="3.87369">
        <ele>51</ele>
        <time>2021-03-06T16:24:51Z</time>
      </trkpt>
      <trkpt lat="43.61187" lon="3.87371">
        <ele>51</ele>
        <time>2021-03-06T16:24:52Z</time>
      </trkpt>
      <trkpt lat="43.61185" lon="3.87374">
        <ele>51</ele>
        <time>2021-03-06T16:24:53Z</time>
      </trkpt>
      <trkpt lat="43.61184" lon="3.87376">
        <ele>51</ele>
        <time>2021-03-06T16:24:54Z</time>
      </trkpt>
      <trkpt lat="43.61177" lon="3.87388">
        <ele>51</ele>
        <time>2021-03-06T16:24:58Z</time>
      </trkpt>
      <trkpt lat="43.61175" lon="3.87394">
        <ele>51</ele>
        <time>2021-03-06T16:25:00Z</time>
      </trkpt>
      <trkpt lat="43.61175" lon="3.87397">
        <ele>51</ele>
        <time>2021-03-06T16:25:01Z</time>
      </trkpt>
      <trkpt lat="43.61173" lon="3.87402">
        <ele>52</ele>
        <time>2021-03-06T16:25:03Z</time>
      </trkpt>
      <trkpt lat="43.61173" lon="3.87404">
        <ele>52</ele>
        <time>2021-03-06T16:25:04Z</time>
      </trkpt>
      <trkpt lat="43.6117" lon="3.87416">
        <ele>52</ele>
        <time>2021-03-06T16:25:12Z</time>
      </trkpt>
      <trkpt lat="43.61171" lon="3.87429">
        <ele>52</ele>
        <time>2021-03-06T16:25:15Z</time>
      </trkpt>
      <trkpt lat="43.61173" lon="3.87433">
        <ele>52</ele>
        <time>2021-03-06T16:25:16Z</time>
      </trkpt>
      <trkpt lat="43.61175" lon="3.87437">
        <ele>52</ele>
        <time>2021-03-06T16:25:17Z</time>
      </trkpt>
      <trkpt lat="43.61176" lon="3.87441">
        <ele>52</ele>
        <time>2021-03-06T16:25:18Z</time>
      </trkpt>
      <trkpt lat="43.61178" lon="3.87444">
        <ele>52</ele>
        <time>2021-03-06T16:25:19Z</time>
      </trkpt>
      <trkpt lat="43.6118" lon="3.87447">
        <ele>52</ele>
        <time>2021-03-06T16:25:20Z</time>
      </trkpt>
      <trkpt lat="43.61184" lon="3.87455">
        <ele>52</ele>
        <time>2021-03-06T16:25:22Z</time>
      </trkpt>
      <trkpt lat="43.61188" lon="3.8746">
        <ele>52</ele>
        <time>2021-03-06T16:25:24Z</time>
      </trkpt>
      <trkpt lat="43.61191" lon="3.87462">
        <ele>52</ele>
        <time>2021-03-06T16:25:25Z</time>
      </trkpt>
      <trkpt lat="43.61194" lon="3.87463">
        <ele>52</ele>
        <time>2021-03-06T16:25:26Z</time>
      </trkpt>
      <trkpt lat="43.61197" lon="3.87465">
        <ele>52</ele>
        <time>2021-03-06T16:25:27Z</time>
      </trkpt>
      <trkpt lat="43.612" lon="3.87468">
        <ele>52</ele>
        <time>2021-03-06T16:25:28Z</time>
      </trkpt>
      <trkpt lat="43.61203" lon="3.87471">
        <ele>52</ele>
        <time>2021-03-06T16:25:29Z</time>
      </trkpt>
      <trkpt lat="43.61205" lon="3.87474">
        <ele>52</ele>
        <time>2021-03-06T16:25:30Z</time>
      </trkpt>
      <trkpt lat="43.61208" lon="3.87477">
        <ele>52</ele>
        <time>2021-03-06T16:25:31Z</time>
      </trkpt>
      <trkpt lat="43.61211" lon="3.8748">
        <ele>52</ele>
        <time>2021-03-06T16:25:32Z</time>
      </trkpt>
      <trkpt lat="43.61213" lon="3.87484">
        <ele>59</ele>
        <time>2021-03-06T16:25:33Z</time>
      </trkpt>
      <trkpt lat="43.61215" lon="3.87487">
        <ele>59</ele>
        <time>2021-03-06T16:25:34Z</time>
      </trkpt>
      <trkpt lat="43.61216" lon="3.87491">
        <ele>59</ele>
        <time>2021-03-06T16:25:35Z</time>
      </trkpt>
      <trkpt lat="43.61215" lon="3.87495">
        <ele>59</ele>
        <time>2021-03-06T16:25:36Z</time>
      </trkpt>
      <trkpt lat="43.61213" lon="3.875">
        <ele>59</ele>
        <time>2021-03-06T16:25:37Z</time>
      </trkpt>
      <trkpt lat="43.6121" lon="3.87504">
        <ele>59</ele>
        <time>2021-03-06T16:25:38Z</time>
      </trkpt>
      <trkpt lat="43.61208" lon="3.87509">
        <ele>59</ele>
        <time>2021-03-06T16:25:39Z</time>
      </trkpt>
      <trkpt lat="43.61205" lon="3.87513">
        <ele>59</ele>
        <time>2021-03-06T16:25:40Z</time>
      </trkpt>
      <trkpt lat="43.61203" lon="3.87519">
        <ele>59</ele>
        <time>2021-03-06T16:25:41Z</time>
      </trkpt>
      <trkpt lat="43.61201" lon="3.87525">
        <ele>59</ele>
        <time>2021-03-06T16:25:42Z</time>
      </trkpt>
      <trkpt lat="43.612" lon="3.8753">
        <ele>58</ele>
        <time>2021-03-06T16:25:43Z</time>
      </trkpt>
      <trkpt lat="43.612" lon="3.87536">
        <ele>58</ele>
        <time>2021-03-06T16:25:44Z</time>
      </trkpt>
      <trkpt lat="43.612" lon="3.87542">
        <ele>58</ele>
        <time>2021-03-06T16:25:45Z</time>
      </trkpt>
      <trkpt lat="43.612" lon="3.87546">
        <ele>58</ele>
        <time>2021-03-06T16:25:46Z</time>
      </trkpt>
      <trkpt lat="43.612" lon="3.87554">
        <ele>58</ele>
        <time>2021-03-06T16:25:48Z</time>
      </trkpt>
      <trkpt lat="43.612" lon="3.87561">
        <ele>58</ele>
        <time>2021-03-06T16:25:50Z</time>
      </trkpt>
      <trkpt lat="43.61198" lon="3.87578">
        <ele>58</ele>
        <time>2021-03-06T16:25:54Z</time>
      </trkpt>
      <trkpt lat="43.61193" lon="3.8759">
        <ele>58</ele>
        <time>2021-03-06T16:25:56Z</time>
      </trkpt>
      <trkpt lat="43.6119" lon="3.87606">
        <ele>58</ele>
        <time>2021-03-06T16:25:58Z</time>
      </trkpt>
      <trkpt lat="43.61187" lon="3.87619">
        <ele>58</ele>
        <time>2021-03-06T16:26:00Z</time>
      </trkpt>
      <trkpt lat="43.61184" lon="3.87631">
        <ele>57</ele>
        <time>2021-03-06T16:26:03Z</time>
      </trkpt>
      <trkpt lat="43.61183" lon="3.87634">
        <ele>57</ele>
        <time>2021-03-06T16:26:05Z</time>
      </trkpt>
      <trkpt lat="43.61181" lon="3.87638">
        <ele>57</ele>
        <time>2021-03-06T16:26:07Z</time>
      </trkpt>
      <trkpt lat="43.61181" lon="3.8764">
        <ele>57</ele>
        <time>2021-03-06T16:26:08Z</time>
      </trkpt>
      <trkpt lat="43.6118" lon="3.87644">
        <ele>57</ele>
        <time>2021-03-06T16:26:09Z</time>
      </trkpt>
      <trkpt lat="43.61177" lon="3.8766">
        <ele>58</ele>
        <time>2021-03-06T16:26:13Z</time>
      </trkpt>
      <trkpt lat="43.61176" lon="3.87668">
        <ele>58</ele>
        <time>2021-03-06T16:26:15Z</time>
      </trkpt>
      <trkpt lat="43.61176" lon="3.87681">
        <ele>58</ele>
        <time>2021-03-06T16:26:18Z</time>
      </trkpt>
      <trkpt lat="43.6117" lon="3.87695">
        <ele>58</ele>
        <time>2021-03-06T16:26:21Z</time>
      </trkpt>
      <trkpt lat="43.61168" lon="3.877">
        <ele>58</ele>
        <time>2021-03-06T16:26:22Z</time>
      </trkpt>
      <trkpt lat="43.61168" lon="3.87705">
        <ele>57</ele>
        <time>2021-03-06T16:26:23Z</time>
      </trkpt>
      <trkpt lat="43.61167" lon="3.87708">
        <ele>57</ele>
        <time>2021-03-06T16:26:24Z</time>
      </trkpt>
      <trkpt lat="43.61166" lon="3.87712">
        <ele>57</ele>
        <time>2021-03-06T16:26:25Z</time>
      </trkpt>
      <trkpt lat="43.61165" lon="3.87716">
        <ele>57</ele>
        <time>2021-03-06T16:26:26Z</time>
      </trkpt>
      <trkpt lat="43.61165" lon="3.87719">
        <ele>57</ele>
        <time>2021-03-06T16:26:27Z</time>
      </trkpt>
      <trkpt lat="43.61165" lon="3.87723">
        <ele>57</ele>
        <time>2021-03-06T16:26:28Z</time>
      </trkpt>
      <trkpt lat="43.61164" lon="3.87726">
        <ele>57</ele>
        <time>2021-03-06T16:26:29Z</time>
      </trkpt>
      <trkpt lat="43.61163" lon="3.87731">
        <ele>57</ele>
        <time>2021-03-06T16:26:30Z</time>
      </trkpt>
      <trkpt lat="43.61161" lon="3.87735">
        <ele>57</ele>
        <time>2021-03-06T16:26:31Z</time>
      </trkpt>
      <trkpt lat="43.6116" lon="3.87739">
        <ele>57</ele>
        <time>2021-03-06T16:26:32Z</time>
      </trkpt>
      <trkpt lat="43.61159" lon="3.87743">
        <ele>58</ele>
        <time>2021-03-06T16:26:33Z</time>
      </trkpt>
      <trkpt lat="43.61158" lon="3.87746">
        <ele>58</ele>
        <time>2021-03-06T16:26:34Z</time>
      </trkpt>
      <trkpt lat="43.61157" lon="3.87749">
        <ele>58</ele>
        <time>2021-03-06T16:26:35Z</time>
      </trkpt>
      <trkpt lat="43.61156" lon="3.87751">
        <ele>58</ele>
        <time>2021-03-06T16:26:38Z</time>
      </trkpt>
      <trkpt lat="43.61157" lon="3.87747">
        <ele>58</ele>
        <time>2021-03-06T16:26:42Z</time>
      </trkpt>
      <trkpt lat="43.61155" lon="3.87745">
        <ele>58</ele>
        <time>2021-03-06T16:26:51Z</time>
      </trkpt>
      <trkpt lat="43.61155" lon="3.87744">
        <ele>61</ele>
        <time>2021-03-06T16:26:55Z</time>
      </trkpt>
      <trkpt lat="43.61154" lon="3.87744">
        <ele>62</ele>
        <time>2021-03-06T16:26:58Z</time>
      </trkpt>
    </trkseg>
  </trk>
</gpx>